<?xml version="1.0" encoding="UTF-8" standalone="no" ?>
<gpx xmlns="http://www.topografix.com/GPX/1/1" xmlns:xsi="http://www.w3.org/2001/XMLSchema-instance" xsi:schemaLocation="http://www.topografix.com/GPX/1/1 http://www.topografix.com/GPX/1/1/gpx.xsd" version="1.1" creator="VisuGPX - https://www.visugpx.com">
  <metadata>
    <name>04-D+ Quinson </name>
    <desc><![CDATA[04-D+ Quinson au lac Esparron : par les basses gorges en bateau 2023-06-11
]]></desc>
  </metadata>
  <trk>
    <name><![CDATA[Quinson au lac Esparron par les basses gorges en bateau 2023-06-11-01]]></name>
    <trkseg>
      <trkpt lat="43.70152" lon="6.01955">
        <ele>358.3</ele>
        <time>2023-06-11T08:22:57Z</time>
      </trkpt>
      <trkpt lat="43.70153" lon="6.01953">
        <ele>358.3</ele>
        <time>2023-06-11T08:22:58Z</time>
      </trkpt>
      <trkpt lat="43.70153" lon="6.01951">
        <ele>358.3</ele>
        <time>2023-06-11T08:22:59Z</time>
      </trkpt>
      <trkpt lat="43.70154" lon="6.01948">
        <ele>358.3</ele>
        <time>2023-06-11T08:23:00Z</time>
      </trkpt>
      <trkpt lat="43.70155" lon="6.01946">
        <ele>358.3</ele>
        <time>2023-06-11T08:23:01Z</time>
      </trkpt>
      <trkpt lat="43.70156" lon="6.01943">
        <ele>358.3</ele>
        <time>2023-06-11T08:23:02Z</time>
      </trkpt>
      <trkpt lat="43.70156" lon="6.0194">
        <ele>358.3</ele>
        <time>2023-06-11T08:23:03Z</time>
      </trkpt>
      <trkpt lat="43.70156" lon="6.01938">
        <ele>358.3</ele>
        <time>2023-06-11T08:23:04Z</time>
      </trkpt>
      <trkpt lat="43.70157" lon="6.01935">
        <ele>358.3</ele>
        <time>2023-06-11T08:23:05Z</time>
      </trkpt>
      <trkpt lat="43.70157" lon="6.01933">
        <ele>358.3</ele>
        <time>2023-06-11T08:23:06Z</time>
      </trkpt>
      <trkpt lat="43.70158" lon="6.01931">
        <ele>358.3</ele>
        <time>2023-06-11T08:23:07Z</time>
      </trkpt>
      <trkpt lat="43.70158" lon="6.01929">
        <ele>358.3</ele>
        <time>2023-06-11T08:23:08Z</time>
      </trkpt>
      <trkpt lat="43.70159" lon="6.01926">
        <ele>358.3</ele>
        <time>2023-06-11T08:23:09Z</time>
      </trkpt>
      <trkpt lat="43.70159" lon="6.01924">
        <ele>358.3</ele>
        <time>2023-06-11T08:23:10Z</time>
      </trkpt>
      <trkpt lat="43.70159" lon="6.01922">
        <ele>358.3</ele>
        <time>2023-06-11T08:23:11Z</time>
      </trkpt>
      <trkpt lat="43.70159" lon="6.0192">
        <ele>358.3</ele>
        <time>2023-06-11T08:23:12Z</time>
      </trkpt>
      <trkpt lat="43.7016" lon="6.01918">
        <ele>358.3</ele>
        <time>2023-06-11T08:23:13Z</time>
      </trkpt>
      <trkpt lat="43.7016" lon="6.01916">
        <ele>358.3</ele>
        <time>2023-06-11T08:23:14Z</time>
      </trkpt>
      <trkpt lat="43.7016" lon="6.01914">
        <ele>358.4</ele>
        <time>2023-06-11T08:23:15Z</time>
      </trkpt>
      <trkpt lat="43.7016" lon="6.01912">
        <ele>358.4</ele>
        <time>2023-06-11T08:23:16Z</time>
      </trkpt>
      <trkpt lat="43.7016" lon="6.01911">
        <ele>358.4</ele>
        <time>2023-06-11T08:23:17Z</time>
      </trkpt>
      <trkpt lat="43.7016" lon="6.01909">
        <ele>358.4</ele>
        <time>2023-06-11T08:23:18Z</time>
      </trkpt>
      <trkpt lat="43.7016" lon="6.01907">
        <ele>358.4</ele>
        <time>2023-06-11T08:23:19Z</time>
      </trkpt>
      <trkpt lat="43.70161" lon="6.01905">
        <ele>358.5</ele>
        <time>2023-06-11T08:23:20Z</time>
      </trkpt>
      <trkpt lat="43.70161" lon="6.01904">
        <ele>358.5</ele>
        <time>2023-06-11T08:23:21Z</time>
      </trkpt>
      <trkpt lat="43.70161" lon="6.01902">
        <ele>358.5</ele>
        <time>2023-06-11T08:23:22Z</time>
      </trkpt>
      <trkpt lat="43.70162" lon="6.019">
        <ele>358.6</ele>
        <time>2023-06-11T08:23:23Z</time>
      </trkpt>
      <trkpt lat="43.70162" lon="6.01898">
        <ele>358.6</ele>
        <time>2023-06-11T08:23:24Z</time>
      </trkpt>
      <trkpt lat="43.70162" lon="6.01896">
        <ele>358.6</ele>
        <time>2023-06-11T08:23:25Z</time>
      </trkpt>
      <trkpt lat="43.70162" lon="6.01895">
        <ele>358.6</ele>
        <time>2023-06-11T08:23:26Z</time>
      </trkpt>
      <trkpt lat="43.70162" lon="6.01893">
        <ele>358.6</ele>
        <time>2023-06-11T08:23:27Z</time>
      </trkpt>
      <trkpt lat="43.70162" lon="6.01891">
        <ele>358.6</ele>
        <time>2023-06-11T08:23:28Z</time>
      </trkpt>
      <trkpt lat="43.70163" lon="6.01889">
        <ele>358.6</ele>
        <time>2023-06-11T08:23:29Z</time>
      </trkpt>
      <trkpt lat="43.70163" lon="6.01887">
        <ele>358.5</ele>
        <time>2023-06-11T08:23:30Z</time>
      </trkpt>
      <trkpt lat="43.70163" lon="6.01885">
        <ele>358.6</ele>
        <time>2023-06-11T08:23:31Z</time>
      </trkpt>
      <trkpt lat="43.70163" lon="6.01883">
        <ele>358.6</ele>
        <time>2023-06-11T08:23:32Z</time>
      </trkpt>
      <trkpt lat="43.70163" lon="6.01881">
        <ele>358.6</ele>
        <time>2023-06-11T08:23:33Z</time>
      </trkpt>
      <trkpt lat="43.70164" lon="6.01879">
        <ele>358.6</ele>
        <time>2023-06-11T08:23:34Z</time>
      </trkpt>
      <trkpt lat="43.70164" lon="6.01877">
        <ele>358.6</ele>
        <time>2023-06-11T08:23:35Z</time>
      </trkpt>
      <trkpt lat="43.70164" lon="6.01875">
        <ele>358.6</ele>
        <time>2023-06-11T08:23:36Z</time>
      </trkpt>
      <trkpt lat="43.70164" lon="6.01873">
        <ele>358.6</ele>
        <time>2023-06-11T08:23:37Z</time>
      </trkpt>
      <trkpt lat="43.70165" lon="6.01871">
        <ele>358.5</ele>
        <time>2023-06-11T08:23:38Z</time>
      </trkpt>
      <trkpt lat="43.70165" lon="6.01869">
        <ele>358.5</ele>
        <time>2023-06-11T08:23:39Z</time>
      </trkpt>
      <trkpt lat="43.70165" lon="6.01867">
        <ele>358.5</ele>
        <time>2023-06-11T08:23:40Z</time>
      </trkpt>
      <trkpt lat="43.70166" lon="6.01865">
        <ele>358.6</ele>
        <time>2023-06-11T08:23:41Z</time>
      </trkpt>
      <trkpt lat="43.70166" lon="6.01863">
        <ele>358.6</ele>
        <time>2023-06-11T08:23:42Z</time>
      </trkpt>
      <trkpt lat="43.70166" lon="6.01861">
        <ele>358.6</ele>
        <time>2023-06-11T08:23:43Z</time>
      </trkpt>
      <trkpt lat="43.70166" lon="6.01859">
        <ele>358.6</ele>
        <time>2023-06-11T08:23:44Z</time>
      </trkpt>
      <trkpt lat="43.70166" lon="6.01858">
        <ele>358.6</ele>
        <time>2023-06-11T08:23:45Z</time>
      </trkpt>
      <trkpt lat="43.70167" lon="6.01856">
        <ele>358.6</ele>
        <time>2023-06-11T08:23:46Z</time>
      </trkpt>
      <trkpt lat="43.70167" lon="6.01854">
        <ele>358.6</ele>
        <time>2023-06-11T08:23:47Z</time>
      </trkpt>
      <trkpt lat="43.70167" lon="6.01852">
        <ele>358.6</ele>
        <time>2023-06-11T08:23:48Z</time>
      </trkpt>
      <trkpt lat="43.70168" lon="6.0185">
        <ele>358.6</ele>
        <time>2023-06-11T08:23:49Z</time>
      </trkpt>
      <trkpt lat="43.70168" lon="6.01848">
        <ele>358.6</ele>
        <time>2023-06-11T08:23:50Z</time>
      </trkpt>
      <trkpt lat="43.70168" lon="6.01846">
        <ele>358.5</ele>
        <time>2023-06-11T08:23:51Z</time>
      </trkpt>
      <trkpt lat="43.70169" lon="6.01844">
        <ele>358.5</ele>
        <time>2023-06-11T08:23:52Z</time>
      </trkpt>
      <trkpt lat="43.70169" lon="6.01842">
        <ele>358.5</ele>
        <time>2023-06-11T08:23:53Z</time>
      </trkpt>
      <trkpt lat="43.70169" lon="6.01841">
        <ele>358.5</ele>
        <time>2023-06-11T08:23:54Z</time>
      </trkpt>
      <trkpt lat="43.70169" lon="6.01839">
        <ele>358.5</ele>
        <time>2023-06-11T08:23:55Z</time>
      </trkpt>
      <trkpt lat="43.70169" lon="6.01836">
        <ele>358.5</ele>
        <time>2023-06-11T08:23:56Z</time>
      </trkpt>
      <trkpt lat="43.70169" lon="6.01835">
        <ele>358.5</ele>
        <time>2023-06-11T08:23:57Z</time>
      </trkpt>
      <trkpt lat="43.7017" lon="6.01833">
        <ele>358.4</ele>
        <time>2023-06-11T08:23:58Z</time>
      </trkpt>
      <trkpt lat="43.7017" lon="6.01831">
        <ele>358.4</ele>
        <time>2023-06-11T08:23:59Z</time>
      </trkpt>
      <trkpt lat="43.7017" lon="6.01829">
        <ele>358.4</ele>
        <time>2023-06-11T08:24:00Z</time>
      </trkpt>
      <trkpt lat="43.7017" lon="6.01827">
        <ele>358.4</ele>
        <time>2023-06-11T08:24:01Z</time>
      </trkpt>
      <trkpt lat="43.7017" lon="6.01825">
        <ele>358.4</ele>
        <time>2023-06-11T08:24:02Z</time>
      </trkpt>
      <trkpt lat="43.7017" lon="6.01823">
        <ele>358.4</ele>
        <time>2023-06-11T08:24:03Z</time>
      </trkpt>
      <trkpt lat="43.7017" lon="6.01822">
        <ele>358.5</ele>
        <time>2023-06-11T08:24:04Z</time>
      </trkpt>
      <trkpt lat="43.7017" lon="6.01819">
        <ele>358.5</ele>
        <time>2023-06-11T08:24:05Z</time>
      </trkpt>
      <trkpt lat="43.7017" lon="6.01818">
        <ele>358.5</ele>
        <time>2023-06-11T08:24:06Z</time>
      </trkpt>
      <trkpt lat="43.7017" lon="6.01816">
        <ele>358.4</ele>
        <time>2023-06-11T08:24:07Z</time>
      </trkpt>
      <trkpt lat="43.7017" lon="6.01814">
        <ele>358.4</ele>
        <time>2023-06-11T08:24:08Z</time>
      </trkpt>
      <trkpt lat="43.7017" lon="6.01812">
        <ele>358.4</ele>
        <time>2023-06-11T08:24:09Z</time>
      </trkpt>
      <trkpt lat="43.7017" lon="6.0181">
        <ele>358.4</ele>
        <time>2023-06-11T08:24:10Z</time>
      </trkpt>
      <trkpt lat="43.7017" lon="6.01808">
        <ele>358.4</ele>
        <time>2023-06-11T08:24:11Z</time>
      </trkpt>
      <trkpt lat="43.70171" lon="6.01806">
        <ele>358.4</ele>
        <time>2023-06-11T08:24:12Z</time>
      </trkpt>
      <trkpt lat="43.70171" lon="6.01804">
        <ele>358.4</ele>
        <time>2023-06-11T08:24:13Z</time>
      </trkpt>
      <trkpt lat="43.70171" lon="6.01803">
        <ele>358.4</ele>
        <time>2023-06-11T08:24:14Z</time>
      </trkpt>
      <trkpt lat="43.7017" lon="6.01801">
        <ele>358.3</ele>
        <time>2023-06-11T08:24:15Z</time>
      </trkpt>
      <trkpt lat="43.70171" lon="6.01799">
        <ele>358.4</ele>
        <time>2023-06-11T08:24:16Z</time>
      </trkpt>
      <trkpt lat="43.70171" lon="6.01797">
        <ele>358.4</ele>
        <time>2023-06-11T08:24:17Z</time>
      </trkpt>
      <trkpt lat="43.70171" lon="6.01795">
        <ele>358.4</ele>
        <time>2023-06-11T08:24:18Z</time>
      </trkpt>
      <trkpt lat="43.70171" lon="6.01794">
        <ele>358.4</ele>
        <time>2023-06-11T08:24:19Z</time>
      </trkpt>
      <trkpt lat="43.70171" lon="6.01792">
        <ele>358.4</ele>
        <time>2023-06-11T08:24:20Z</time>
      </trkpt>
      <trkpt lat="43.70171" lon="6.0179">
        <ele>358.4</ele>
        <time>2023-06-11T08:24:21Z</time>
      </trkpt>
      <trkpt lat="43.70171" lon="6.01789">
        <ele>358.4</ele>
        <time>2023-06-11T08:24:22Z</time>
      </trkpt>
      <trkpt lat="43.70171" lon="6.01788">
        <ele>358.4</ele>
        <time>2023-06-11T08:24:23Z</time>
      </trkpt>
      <trkpt lat="43.70171" lon="6.01786">
        <ele>358.5</ele>
        <time>2023-06-11T08:24:24Z</time>
      </trkpt>
      <trkpt lat="43.70171" lon="6.01785">
        <ele>358.5</ele>
        <time>2023-06-11T08:24:25Z</time>
      </trkpt>
      <trkpt lat="43.70171" lon="6.01784">
        <ele>358.5</ele>
        <time>2023-06-11T08:24:26Z</time>
      </trkpt>
      <trkpt lat="43.70171" lon="6.01783">
        <ele>358.6</ele>
        <time>2023-06-11T08:24:27Z</time>
      </trkpt>
      <trkpt lat="43.70171" lon="6.01781">
        <ele>358.7</ele>
        <time>2023-06-11T08:24:28Z</time>
      </trkpt>
      <trkpt lat="43.70171" lon="6.0178">
        <ele>358.7</ele>
        <time>2023-06-11T08:24:29Z</time>
      </trkpt>
      <trkpt lat="43.70171" lon="6.01779">
        <ele>358.6</ele>
        <time>2023-06-11T08:24:30Z</time>
      </trkpt>
      <trkpt lat="43.70171" lon="6.01778">
        <ele>358.6</ele>
        <time>2023-06-11T08:24:31Z</time>
      </trkpt>
      <trkpt lat="43.70171" lon="6.01777">
        <ele>358.6</ele>
        <time>2023-06-11T08:24:32Z</time>
      </trkpt>
      <trkpt lat="43.70171" lon="6.01776">
        <ele>358.6</ele>
        <time>2023-06-11T08:24:33Z</time>
      </trkpt>
      <trkpt lat="43.70171" lon="6.01775">
        <ele>358.7</ele>
        <time>2023-06-11T08:24:34Z</time>
      </trkpt>
      <trkpt lat="43.7017" lon="6.01774">
        <ele>358.6</ele>
        <time>2023-06-11T08:24:35Z</time>
      </trkpt>
      <trkpt lat="43.7017" lon="6.01773">
        <ele>358.6</ele>
        <time>2023-06-11T08:24:36Z</time>
      </trkpt>
      <trkpt lat="43.7017" lon="6.01772">
        <ele>358.7</ele>
        <time>2023-06-11T08:24:37Z</time>
      </trkpt>
      <trkpt lat="43.7017" lon="6.01771">
        <ele>358.6</ele>
        <time>2023-06-11T08:24:38Z</time>
      </trkpt>
      <trkpt lat="43.7017" lon="6.01769">
        <ele>358.7</ele>
        <time>2023-06-11T08:24:39Z</time>
      </trkpt>
      <trkpt lat="43.7017" lon="6.01768">
        <ele>358.7</ele>
        <time>2023-06-11T08:24:40Z</time>
      </trkpt>
      <trkpt lat="43.7017" lon="6.01767">
        <ele>358.7</ele>
        <time>2023-06-11T08:24:41Z</time>
      </trkpt>
      <trkpt lat="43.7017" lon="6.01766">
        <ele>358.7</ele>
        <time>2023-06-11T08:24:42Z</time>
      </trkpt>
      <trkpt lat="43.7017" lon="6.01765">
        <ele>358.7</ele>
        <time>2023-06-11T08:24:43Z</time>
      </trkpt>
      <trkpt lat="43.7017" lon="6.01763">
        <ele>358.7</ele>
        <time>2023-06-11T08:24:44Z</time>
      </trkpt>
      <trkpt lat="43.7017" lon="6.01762">
        <ele>358.7</ele>
        <time>2023-06-11T08:24:45Z</time>
      </trkpt>
      <trkpt lat="43.70171" lon="6.0176">
        <ele>358.7</ele>
        <time>2023-06-11T08:24:46Z</time>
      </trkpt>
      <trkpt lat="43.70171" lon="6.01758">
        <ele>358.7</ele>
        <time>2023-06-11T08:24:47Z</time>
      </trkpt>
      <trkpt lat="43.70171" lon="6.01757">
        <ele>358.7</ele>
        <time>2023-06-11T08:24:48Z</time>
      </trkpt>
      <trkpt lat="43.70171" lon="6.01755">
        <ele>358.6</ele>
        <time>2023-06-11T08:24:49Z</time>
      </trkpt>
      <trkpt lat="43.70171" lon="6.01753">
        <ele>358.5</ele>
        <time>2023-06-11T08:24:50Z</time>
      </trkpt>
      <trkpt lat="43.70172" lon="6.01751">
        <ele>358.5</ele>
        <time>2023-06-11T08:24:51Z</time>
      </trkpt>
      <trkpt lat="43.70172" lon="6.0175">
        <ele>358.6</ele>
        <time>2023-06-11T08:24:52Z</time>
      </trkpt>
      <trkpt lat="43.70172" lon="6.01748">
        <ele>358.6</ele>
        <time>2023-06-11T08:24:53Z</time>
      </trkpt>
      <trkpt lat="43.70172" lon="6.01746">
        <ele>358.6</ele>
        <time>2023-06-11T08:24:54Z</time>
      </trkpt>
      <trkpt lat="43.70172" lon="6.01744">
        <ele>358.5</ele>
        <time>2023-06-11T08:24:55Z</time>
      </trkpt>
      <trkpt lat="43.70172" lon="6.01742">
        <ele>358.6</ele>
        <time>2023-06-11T08:24:56Z</time>
      </trkpt>
      <trkpt lat="43.70173" lon="6.01739">
        <ele>358.6</ele>
        <time>2023-06-11T08:24:57Z</time>
      </trkpt>
      <trkpt lat="43.70173" lon="6.01737">
        <ele>358.6</ele>
        <time>2023-06-11T08:24:58Z</time>
      </trkpt>
      <trkpt lat="43.70173" lon="6.01735">
        <ele>358.6</ele>
        <time>2023-06-11T08:24:59Z</time>
      </trkpt>
      <trkpt lat="43.70173" lon="6.01733">
        <ele>358.6</ele>
        <time>2023-06-11T08:25:00Z</time>
      </trkpt>
      <trkpt lat="43.70174" lon="6.01731">
        <ele>358.6</ele>
        <time>2023-06-11T08:25:01Z</time>
      </trkpt>
      <trkpt lat="43.70174" lon="6.01729">
        <ele>358.6</ele>
        <time>2023-06-11T08:25:02Z</time>
      </trkpt>
      <trkpt lat="43.70174" lon="6.01726">
        <ele>358.6</ele>
        <time>2023-06-11T08:25:03Z</time>
      </trkpt>
      <trkpt lat="43.70174" lon="6.01724">
        <ele>358.6</ele>
        <time>2023-06-11T08:25:04Z</time>
      </trkpt>
      <trkpt lat="43.70174" lon="6.01722">
        <ele>358.6</ele>
        <time>2023-06-11T08:25:05Z</time>
      </trkpt>
      <trkpt lat="43.70175" lon="6.01719">
        <ele>358.6</ele>
        <time>2023-06-11T08:25:06Z</time>
      </trkpt>
      <trkpt lat="43.70175" lon="6.01716">
        <ele>358.5</ele>
        <time>2023-06-11T08:25:07Z</time>
      </trkpt>
      <trkpt lat="43.70175" lon="6.01714">
        <ele>358.5</ele>
        <time>2023-06-11T08:25:08Z</time>
      </trkpt>
      <trkpt lat="43.70176" lon="6.01711">
        <ele>358.4</ele>
        <time>2023-06-11T08:25:09Z</time>
      </trkpt>
      <trkpt lat="43.70176" lon="6.01709">
        <ele>358.4</ele>
        <time>2023-06-11T08:25:10Z</time>
      </trkpt>
      <trkpt lat="43.70176" lon="6.01706">
        <ele>358.4</ele>
        <time>2023-06-11T08:25:11Z</time>
      </trkpt>
      <trkpt lat="43.70176" lon="6.01704">
        <ele>358.4</ele>
        <time>2023-06-11T08:25:12Z</time>
      </trkpt>
      <trkpt lat="43.70177" lon="6.01702">
        <ele>358.4</ele>
        <time>2023-06-11T08:25:13Z</time>
      </trkpt>
      <trkpt lat="43.70177" lon="6.017">
        <ele>358.5</ele>
        <time>2023-06-11T08:25:14Z</time>
      </trkpt>
      <trkpt lat="43.70177" lon="6.01698">
        <ele>358.5</ele>
        <time>2023-06-11T08:25:15Z</time>
      </trkpt>
      <trkpt lat="43.70177" lon="6.01695">
        <ele>358.5</ele>
        <time>2023-06-11T08:25:16Z</time>
      </trkpt>
      <trkpt lat="43.70178" lon="6.01692">
        <ele>358.5</ele>
        <time>2023-06-11T08:25:17Z</time>
      </trkpt>
      <trkpt lat="43.70178" lon="6.0169">
        <ele>358.6</ele>
        <time>2023-06-11T08:25:18Z</time>
      </trkpt>
      <trkpt lat="43.70178" lon="6.01687">
        <ele>358.6</ele>
        <time>2023-06-11T08:25:19Z</time>
      </trkpt>
      <trkpt lat="43.70178" lon="6.01685">
        <ele>358.6</ele>
        <time>2023-06-11T08:25:20Z</time>
      </trkpt>
      <trkpt lat="43.70178" lon="6.01683">
        <ele>358.6</ele>
        <time>2023-06-11T08:25:21Z</time>
      </trkpt>
      <trkpt lat="43.70178" lon="6.0168">
        <ele>358.6</ele>
        <time>2023-06-11T08:25:22Z</time>
      </trkpt>
      <trkpt lat="43.70178" lon="6.01679">
        <ele>358.6</ele>
        <time>2023-06-11T08:25:23Z</time>
      </trkpt>
      <trkpt lat="43.70178" lon="6.01676">
        <ele>358.6</ele>
        <time>2023-06-11T08:25:24Z</time>
      </trkpt>
      <trkpt lat="43.70178" lon="6.01674">
        <ele>358.6</ele>
        <time>2023-06-11T08:25:25Z</time>
      </trkpt>
      <trkpt lat="43.70177" lon="6.01671">
        <ele>358.6</ele>
        <time>2023-06-11T08:25:26Z</time>
      </trkpt>
      <trkpt lat="43.70177" lon="6.01669">
        <ele>358.6</ele>
        <time>2023-06-11T08:25:27Z</time>
      </trkpt>
      <trkpt lat="43.70177" lon="6.01666">
        <ele>358.6</ele>
        <time>2023-06-11T08:25:28Z</time>
      </trkpt>
      <trkpt lat="43.70177" lon="6.01664">
        <ele>358.6</ele>
        <time>2023-06-11T08:25:29Z</time>
      </trkpt>
      <trkpt lat="43.70177" lon="6.01662">
        <ele>358.7</ele>
        <time>2023-06-11T08:25:30Z</time>
      </trkpt>
      <trkpt lat="43.70177" lon="6.01659">
        <ele>358.7</ele>
        <time>2023-06-11T08:25:31Z</time>
      </trkpt>
      <trkpt lat="43.70177" lon="6.01657">
        <ele>358.7</ele>
        <time>2023-06-11T08:25:32Z</time>
      </trkpt>
      <trkpt lat="43.70177" lon="6.01655">
        <ele>358.6</ele>
        <time>2023-06-11T08:25:33Z</time>
      </trkpt>
      <trkpt lat="43.70177" lon="6.01653">
        <ele>358.6</ele>
        <time>2023-06-11T08:25:34Z</time>
      </trkpt>
      <trkpt lat="43.70177" lon="6.01651">
        <ele>358.6</ele>
        <time>2023-06-11T08:25:35Z</time>
      </trkpt>
      <trkpt lat="43.70177" lon="6.01649">
        <ele>358.6</ele>
        <time>2023-06-11T08:25:36Z</time>
      </trkpt>
      <trkpt lat="43.70177" lon="6.01646">
        <ele>358.6</ele>
        <time>2023-06-11T08:25:37Z</time>
      </trkpt>
      <trkpt lat="43.70177" lon="6.01644">
        <ele>358.7</ele>
        <time>2023-06-11T08:25:38Z</time>
      </trkpt>
      <trkpt lat="43.70177" lon="6.01641">
        <ele>358.7</ele>
        <time>2023-06-11T08:25:39Z</time>
      </trkpt>
      <trkpt lat="43.70177" lon="6.01639">
        <ele>358.7</ele>
        <time>2023-06-11T08:25:40Z</time>
      </trkpt>
      <trkpt lat="43.70177" lon="6.01636">
        <ele>358.7</ele>
        <time>2023-06-11T08:25:41Z</time>
      </trkpt>
      <trkpt lat="43.70177" lon="6.01634">
        <ele>358.7</ele>
        <time>2023-06-11T08:25:42Z</time>
      </trkpt>
      <trkpt lat="43.70177" lon="6.01631">
        <ele>358.6</ele>
        <time>2023-06-11T08:25:43Z</time>
      </trkpt>
      <trkpt lat="43.70177" lon="6.01629">
        <ele>358.6</ele>
        <time>2023-06-11T08:25:44Z</time>
      </trkpt>
      <trkpt lat="43.70177" lon="6.01628">
        <ele>358.5</ele>
        <time>2023-06-11T08:25:45Z</time>
      </trkpt>
      <trkpt lat="43.70177" lon="6.01626">
        <ele>358.4</ele>
        <time>2023-06-11T08:25:46Z</time>
      </trkpt>
      <trkpt lat="43.70177" lon="6.01625">
        <ele>358.5</ele>
        <time>2023-06-11T08:25:47Z</time>
      </trkpt>
      <trkpt lat="43.70177" lon="6.01623">
        <ele>358.5</ele>
        <time>2023-06-11T08:25:48Z</time>
      </trkpt>
      <trkpt lat="43.70178" lon="6.01621">
        <ele>358.6</ele>
        <time>2023-06-11T08:25:49Z</time>
      </trkpt>
      <trkpt lat="43.70178" lon="6.0162">
        <ele>358.6</ele>
        <time>2023-06-11T08:25:50Z</time>
      </trkpt>
      <trkpt lat="43.70178" lon="6.01619">
        <ele>358.6</ele>
        <time>2023-06-11T08:25:51Z</time>
      </trkpt>
      <trkpt lat="43.70178" lon="6.01619">
        <ele>358.7</ele>
        <time>2023-06-11T08:25:52Z</time>
      </trkpt>
      <trkpt lat="43.70178" lon="6.01617">
        <ele>358.7</ele>
        <time>2023-06-11T08:25:53Z</time>
      </trkpt>
      <trkpt lat="43.70178" lon="6.01615">
        <ele>358.8</ele>
        <time>2023-06-11T08:25:54Z</time>
      </trkpt>
      <trkpt lat="43.70179" lon="6.01614">
        <ele>358.8</ele>
        <time>2023-06-11T08:25:55Z</time>
      </trkpt>
      <trkpt lat="43.70179" lon="6.01613">
        <ele>358.8</ele>
        <time>2023-06-11T08:25:56Z</time>
      </trkpt>
      <trkpt lat="43.70179" lon="6.01611">
        <ele>358.8</ele>
        <time>2023-06-11T08:25:57Z</time>
      </trkpt>
      <trkpt lat="43.70179" lon="6.01609">
        <ele>359</ele>
        <time>2023-06-11T08:25:58Z</time>
      </trkpt>
      <trkpt lat="43.70179" lon="6.01608">
        <ele>359</ele>
        <time>2023-06-11T08:25:59Z</time>
      </trkpt>
      <trkpt lat="43.70179" lon="6.01606">
        <ele>359</ele>
        <time>2023-06-11T08:26:00Z</time>
      </trkpt>
      <trkpt lat="43.7018" lon="6.01605">
        <ele>359</ele>
        <time>2023-06-11T08:26:01Z</time>
      </trkpt>
      <trkpt lat="43.7018" lon="6.01603">
        <ele>359</ele>
        <time>2023-06-11T08:26:02Z</time>
      </trkpt>
      <trkpt lat="43.7018" lon="6.01602">
        <ele>358.9</ele>
        <time>2023-06-11T08:26:03Z</time>
      </trkpt>
      <trkpt lat="43.7018" lon="6.01601">
        <ele>358.9</ele>
        <time>2023-06-11T08:26:04Z</time>
      </trkpt>
      <trkpt lat="43.7018" lon="6.01599">
        <ele>358.9</ele>
        <time>2023-06-11T08:26:05Z</time>
      </trkpt>
      <trkpt lat="43.7018" lon="6.01598">
        <ele>358.9</ele>
        <time>2023-06-11T08:26:06Z</time>
      </trkpt>
      <trkpt lat="43.7018" lon="6.01596">
        <ele>359</ele>
        <time>2023-06-11T08:26:07Z</time>
      </trkpt>
      <trkpt lat="43.7018" lon="6.01595">
        <ele>359</ele>
        <time>2023-06-11T08:26:08Z</time>
      </trkpt>
      <trkpt lat="43.7018" lon="6.01593">
        <ele>358.9</ele>
        <time>2023-06-11T08:26:09Z</time>
      </trkpt>
      <trkpt lat="43.7018" lon="6.01591">
        <ele>358.9</ele>
        <time>2023-06-11T08:26:10Z</time>
      </trkpt>
      <trkpt lat="43.7018" lon="6.0159">
        <ele>358.9</ele>
        <time>2023-06-11T08:26:11Z</time>
      </trkpt>
      <trkpt lat="43.7018" lon="6.01588">
        <ele>359</ele>
        <time>2023-06-11T08:26:12Z</time>
      </trkpt>
      <trkpt lat="43.7018" lon="6.01586">
        <ele>359</ele>
        <time>2023-06-11T08:26:13Z</time>
      </trkpt>
      <trkpt lat="43.7018" lon="6.01584">
        <ele>359</ele>
        <time>2023-06-11T08:26:14Z</time>
      </trkpt>
      <trkpt lat="43.70179" lon="6.01583">
        <ele>359</ele>
        <time>2023-06-11T08:26:15Z</time>
      </trkpt>
      <trkpt lat="43.70179" lon="6.01581">
        <ele>359.1</ele>
        <time>2023-06-11T08:26:16Z</time>
      </trkpt>
      <trkpt lat="43.70179" lon="6.01579">
        <ele>359.1</ele>
        <time>2023-06-11T08:26:17Z</time>
      </trkpt>
      <trkpt lat="43.70179" lon="6.01577">
        <ele>359.1</ele>
        <time>2023-06-11T08:26:18Z</time>
      </trkpt>
      <trkpt lat="43.70179" lon="6.01575">
        <ele>359.1</ele>
        <time>2023-06-11T08:26:19Z</time>
      </trkpt>
      <trkpt lat="43.70179" lon="6.01574">
        <ele>359</ele>
        <time>2023-06-11T08:26:20Z</time>
      </trkpt>
      <trkpt lat="43.70178" lon="6.01572">
        <ele>359</ele>
        <time>2023-06-11T08:26:21Z</time>
      </trkpt>
      <trkpt lat="43.70178" lon="6.0157">
        <ele>359</ele>
        <time>2023-06-11T08:26:22Z</time>
      </trkpt>
      <trkpt lat="43.70178" lon="6.01568">
        <ele>359</ele>
        <time>2023-06-11T08:26:23Z</time>
      </trkpt>
      <trkpt lat="43.70178" lon="6.01566">
        <ele>358.9</ele>
        <time>2023-06-11T08:26:24Z</time>
      </trkpt>
      <trkpt lat="43.70178" lon="6.01564">
        <ele>358.9</ele>
        <time>2023-06-11T08:26:25Z</time>
      </trkpt>
      <trkpt lat="43.70178" lon="6.01562">
        <ele>358.8</ele>
        <time>2023-06-11T08:26:26Z</time>
      </trkpt>
      <trkpt lat="43.70178" lon="6.0156">
        <ele>358.7</ele>
        <time>2023-06-11T08:26:27Z</time>
      </trkpt>
      <trkpt lat="43.70178" lon="6.01558">
        <ele>358.7</ele>
        <time>2023-06-11T08:26:28Z</time>
      </trkpt>
      <trkpt lat="43.70178" lon="6.01556">
        <ele>358.7</ele>
        <time>2023-06-11T08:26:29Z</time>
      </trkpt>
      <trkpt lat="43.70178" lon="6.01554">
        <ele>358.7</ele>
        <time>2023-06-11T08:26:30Z</time>
      </trkpt>
      <trkpt lat="43.70178" lon="6.01553">
        <ele>358.7</ele>
        <time>2023-06-11T08:26:31Z</time>
      </trkpt>
      <trkpt lat="43.70178" lon="6.01551">
        <ele>358.7</ele>
        <time>2023-06-11T08:26:32Z</time>
      </trkpt>
      <trkpt lat="43.70178" lon="6.01549">
        <ele>358.7</ele>
        <time>2023-06-11T08:26:33Z</time>
      </trkpt>
      <trkpt lat="43.70179" lon="6.01547">
        <ele>358.7</ele>
        <time>2023-06-11T08:26:34Z</time>
      </trkpt>
      <trkpt lat="43.70179" lon="6.01545">
        <ele>358.7</ele>
        <time>2023-06-11T08:26:35Z</time>
      </trkpt>
      <trkpt lat="43.70179" lon="6.01543">
        <ele>358.7</ele>
        <time>2023-06-11T08:26:36Z</time>
      </trkpt>
      <trkpt lat="43.70179" lon="6.01541">
        <ele>358.8</ele>
        <time>2023-06-11T08:26:37Z</time>
      </trkpt>
      <trkpt lat="43.70179" lon="6.01539">
        <ele>358.8</ele>
        <time>2023-06-11T08:26:38Z</time>
      </trkpt>
      <trkpt lat="43.70179" lon="6.01537">
        <ele>358.8</ele>
        <time>2023-06-11T08:26:39Z</time>
      </trkpt>
      <trkpt lat="43.7018" lon="6.01536">
        <ele>358.8</ele>
        <time>2023-06-11T08:26:40Z</time>
      </trkpt>
      <trkpt lat="43.70181" lon="6.01534">
        <ele>358.9</ele>
        <time>2023-06-11T08:26:41Z</time>
      </trkpt>
      <trkpt lat="43.70182" lon="6.01533">
        <ele>358.9</ele>
        <time>2023-06-11T08:26:42Z</time>
      </trkpt>
      <trkpt lat="43.70182" lon="6.01531">
        <ele>358.8</ele>
        <time>2023-06-11T08:26:43Z</time>
      </trkpt>
      <trkpt lat="43.70183" lon="6.01529">
        <ele>358.8</ele>
        <time>2023-06-11T08:26:44Z</time>
      </trkpt>
      <trkpt lat="43.70184" lon="6.01527">
        <ele>358.8</ele>
        <time>2023-06-11T08:26:45Z</time>
      </trkpt>
      <trkpt lat="43.70184" lon="6.01525">
        <ele>358.8</ele>
        <time>2023-06-11T08:26:46Z</time>
      </trkpt>
      <trkpt lat="43.70185" lon="6.01523">
        <ele>358.9</ele>
        <time>2023-06-11T08:26:47Z</time>
      </trkpt>
      <trkpt lat="43.70185" lon="6.01521">
        <ele>359</ele>
        <time>2023-06-11T08:26:48Z</time>
      </trkpt>
      <trkpt lat="43.70186" lon="6.01519">
        <ele>359</ele>
        <time>2023-06-11T08:26:49Z</time>
      </trkpt>
      <trkpt lat="43.70186" lon="6.01517">
        <ele>359</ele>
        <time>2023-06-11T08:26:50Z</time>
      </trkpt>
      <trkpt lat="43.70187" lon="6.01515">
        <ele>358.9</ele>
        <time>2023-06-11T08:26:51Z</time>
      </trkpt>
      <trkpt lat="43.70187" lon="6.01513">
        <ele>358.9</ele>
        <time>2023-06-11T08:26:52Z</time>
      </trkpt>
      <trkpt lat="43.70189" lon="6.01512">
        <ele>358.9</ele>
        <time>2023-06-11T08:26:53Z</time>
      </trkpt>
      <trkpt lat="43.70189" lon="6.0151">
        <ele>358.9</ele>
        <time>2023-06-11T08:26:54Z</time>
      </trkpt>
      <trkpt lat="43.7019" lon="6.01509">
        <ele>358.8</ele>
        <time>2023-06-11T08:26:55Z</time>
      </trkpt>
      <trkpt lat="43.70191" lon="6.01507">
        <ele>358.8</ele>
        <time>2023-06-11T08:26:56Z</time>
      </trkpt>
      <trkpt lat="43.70192" lon="6.01505">
        <ele>358.8</ele>
        <time>2023-06-11T08:26:57Z</time>
      </trkpt>
      <trkpt lat="43.70193" lon="6.01503">
        <ele>358.8</ele>
        <time>2023-06-11T08:26:58Z</time>
      </trkpt>
      <trkpt lat="43.70194" lon="6.01502">
        <ele>358.8</ele>
        <time>2023-06-11T08:26:59Z</time>
      </trkpt>
      <trkpt lat="43.70195" lon="6.01499">
        <ele>358.9</ele>
        <time>2023-06-11T08:27:00Z</time>
      </trkpt>
      <trkpt lat="43.70196" lon="6.01498">
        <ele>358.9</ele>
        <time>2023-06-11T08:27:01Z</time>
      </trkpt>
      <trkpt lat="43.70197" lon="6.01496">
        <ele>359</ele>
        <time>2023-06-11T08:27:02Z</time>
      </trkpt>
      <trkpt lat="43.70198" lon="6.01494">
        <ele>358.9</ele>
        <time>2023-06-11T08:27:03Z</time>
      </trkpt>
      <trkpt lat="43.70198" lon="6.01492">
        <ele>358.9</ele>
        <time>2023-06-11T08:27:04Z</time>
      </trkpt>
      <trkpt lat="43.70199" lon="6.0149">
        <ele>358.9</ele>
        <time>2023-06-11T08:27:05Z</time>
      </trkpt>
      <trkpt lat="43.702" lon="6.01487">
        <ele>359</ele>
        <time>2023-06-11T08:27:06Z</time>
      </trkpt>
      <trkpt lat="43.702" lon="6.01485">
        <ele>359.1</ele>
        <time>2023-06-11T08:27:07Z</time>
      </trkpt>
      <trkpt lat="43.70201" lon="6.01483">
        <ele>359</ele>
        <time>2023-06-11T08:27:08Z</time>
      </trkpt>
      <trkpt lat="43.70203" lon="6.01482">
        <ele>358.9</ele>
        <time>2023-06-11T08:27:09Z</time>
      </trkpt>
      <trkpt lat="43.70203" lon="6.01479">
        <ele>358.9</ele>
        <time>2023-06-11T08:27:10Z</time>
      </trkpt>
      <trkpt lat="43.70204" lon="6.01476">
        <ele>358.9</ele>
        <time>2023-06-11T08:27:11Z</time>
      </trkpt>
      <trkpt lat="43.70204" lon="6.01474">
        <ele>358.9</ele>
        <time>2023-06-11T08:27:12Z</time>
      </trkpt>
      <trkpt lat="43.70205" lon="6.01472">
        <ele>359</ele>
        <time>2023-06-11T08:27:13Z</time>
      </trkpt>
      <trkpt lat="43.70206" lon="6.0147">
        <ele>358.9</ele>
        <time>2023-06-11T08:27:14Z</time>
      </trkpt>
      <trkpt lat="43.70206" lon="6.01468">
        <ele>358.9</ele>
        <time>2023-06-11T08:27:15Z</time>
      </trkpt>
      <trkpt lat="43.70206" lon="6.01465">
        <ele>359</ele>
        <time>2023-06-11T08:27:16Z</time>
      </trkpt>
      <trkpt lat="43.70206" lon="6.01462">
        <ele>359</ele>
        <time>2023-06-11T08:27:17Z</time>
      </trkpt>
      <trkpt lat="43.70207" lon="6.0146">
        <ele>359</ele>
        <time>2023-06-11T08:27:18Z</time>
      </trkpt>
      <trkpt lat="43.70207" lon="6.01458">
        <ele>358.9</ele>
        <time>2023-06-11T08:27:19Z</time>
      </trkpt>
      <trkpt lat="43.70207" lon="6.01455">
        <ele>358.8</ele>
        <time>2023-06-11T08:27:20Z</time>
      </trkpt>
      <trkpt lat="43.70208" lon="6.01453">
        <ele>358.7</ele>
        <time>2023-06-11T08:27:21Z</time>
      </trkpt>
      <trkpt lat="43.70208" lon="6.01451">
        <ele>358.7</ele>
        <time>2023-06-11T08:27:22Z</time>
      </trkpt>
      <trkpt lat="43.70208" lon="6.01448">
        <ele>358.7</ele>
        <time>2023-06-11T08:27:23Z</time>
      </trkpt>
      <trkpt lat="43.7021" lon="6.01447">
        <ele>358.7</ele>
        <time>2023-06-11T08:27:24Z</time>
      </trkpt>
      <trkpt lat="43.70211" lon="6.01445">
        <ele>358.7</ele>
        <time>2023-06-11T08:27:25Z</time>
      </trkpt>
      <trkpt lat="43.70213" lon="6.01444">
        <ele>358.7</ele>
        <time>2023-06-11T08:27:26Z</time>
      </trkpt>
      <trkpt lat="43.70214" lon="6.01441">
        <ele>358.6</ele>
        <time>2023-06-11T08:27:27Z</time>
      </trkpt>
      <trkpt lat="43.70215" lon="6.01439">
        <ele>358.6</ele>
        <time>2023-06-11T08:27:28Z</time>
      </trkpt>
      <trkpt lat="43.70216" lon="6.01436">
        <ele>358.7</ele>
        <time>2023-06-11T08:27:29Z</time>
      </trkpt>
      <trkpt lat="43.70214" lon="6.0143">
        <ele>358.7</ele>
        <time>2023-06-11T08:27:30Z</time>
      </trkpt>
      <trkpt lat="43.70216" lon="6.01428">
        <ele>358.7</ele>
        <time>2023-06-11T08:27:31Z</time>
      </trkpt>
      <trkpt lat="43.70217" lon="6.01425">
        <ele>358.7</ele>
        <time>2023-06-11T08:27:32Z</time>
      </trkpt>
      <trkpt lat="43.70217" lon="6.01422">
        <ele>358.7</ele>
        <time>2023-06-11T08:27:33Z</time>
      </trkpt>
      <trkpt lat="43.70218" lon="6.01419">
        <ele>358.7</ele>
        <time>2023-06-11T08:27:34Z</time>
      </trkpt>
      <trkpt lat="43.70219" lon="6.01417">
        <ele>358.7</ele>
        <time>2023-06-11T08:27:35Z</time>
      </trkpt>
      <trkpt lat="43.70219" lon="6.01412">
        <ele>358.6</ele>
        <time>2023-06-11T08:27:36Z</time>
      </trkpt>
      <trkpt lat="43.7022" lon="6.0141">
        <ele>358.6</ele>
        <time>2023-06-11T08:27:37Z</time>
      </trkpt>
      <trkpt lat="43.70222" lon="6.01408">
        <ele>358.6</ele>
        <time>2023-06-11T08:27:38Z</time>
      </trkpt>
      <trkpt lat="43.70223" lon="6.01406">
        <ele>358.5</ele>
        <time>2023-06-11T08:27:39Z</time>
      </trkpt>
      <trkpt lat="43.70224" lon="6.01404">
        <ele>358.6</ele>
        <time>2023-06-11T08:27:40Z</time>
      </trkpt>
      <trkpt lat="43.70225" lon="6.01402">
        <ele>358.6</ele>
        <time>2023-06-11T08:27:41Z</time>
      </trkpt>
      <trkpt lat="43.70226" lon="6.01401">
        <ele>358.6</ele>
        <time>2023-06-11T08:27:42Z</time>
      </trkpt>
      <trkpt lat="43.70227" lon="6.01399">
        <ele>358.6</ele>
        <time>2023-06-11T08:27:43Z</time>
      </trkpt>
      <trkpt lat="43.70229" lon="6.01398">
        <ele>358.5</ele>
        <time>2023-06-11T08:27:44Z</time>
      </trkpt>
      <trkpt lat="43.70231" lon="6.01396">
        <ele>358.5</ele>
        <time>2023-06-11T08:27:45Z</time>
      </trkpt>
      <trkpt lat="43.70233" lon="6.01394">
        <ele>358.5</ele>
        <time>2023-06-11T08:27:46Z</time>
      </trkpt>
      <trkpt lat="43.70235" lon="6.01393">
        <ele>358.5</ele>
        <time>2023-06-11T08:27:47Z</time>
      </trkpt>
      <trkpt lat="43.70237" lon="6.01392">
        <ele>358.5</ele>
        <time>2023-06-11T08:27:48Z</time>
      </trkpt>
      <trkpt lat="43.70239" lon="6.01391">
        <ele>358.6</ele>
        <time>2023-06-11T08:27:49Z</time>
      </trkpt>
      <trkpt lat="43.70241" lon="6.0139">
        <ele>358.6</ele>
        <time>2023-06-11T08:27:50Z</time>
      </trkpt>
      <trkpt lat="43.70242" lon="6.01389">
        <ele>358.6</ele>
        <time>2023-06-11T08:27:51Z</time>
      </trkpt>
      <trkpt lat="43.70243" lon="6.01387">
        <ele>358.6</ele>
        <time>2023-06-11T08:27:52Z</time>
      </trkpt>
      <trkpt lat="43.70245" lon="6.01386">
        <ele>358.6</ele>
        <time>2023-06-11T08:27:53Z</time>
      </trkpt>
      <trkpt lat="43.70247" lon="6.01384">
        <ele>358.6</ele>
        <time>2023-06-11T08:27:54Z</time>
      </trkpt>
      <trkpt lat="43.70248" lon="6.01383">
        <ele>358.6</ele>
        <time>2023-06-11T08:27:55Z</time>
      </trkpt>
      <trkpt lat="43.70251" lon="6.01382">
        <ele>358.6</ele>
        <time>2023-06-11T08:27:56Z</time>
      </trkpt>
      <trkpt lat="43.70253" lon="6.0138">
        <ele>358.6</ele>
        <time>2023-06-11T08:27:57Z</time>
      </trkpt>
      <trkpt lat="43.70255" lon="6.01378">
        <ele>358.6</ele>
        <time>2023-06-11T08:27:58Z</time>
      </trkpt>
      <trkpt lat="43.70256" lon="6.01376">
        <ele>358.6</ele>
        <time>2023-06-11T08:27:59Z</time>
      </trkpt>
      <trkpt lat="43.70257" lon="6.01374">
        <ele>358.6</ele>
        <time>2023-06-11T08:28:00Z</time>
      </trkpt>
      <trkpt lat="43.70258" lon="6.01373">
        <ele>358.6</ele>
        <time>2023-06-11T08:28:01Z</time>
      </trkpt>
      <trkpt lat="43.70259" lon="6.01371">
        <ele>358.6</ele>
        <time>2023-06-11T08:28:02Z</time>
      </trkpt>
      <trkpt lat="43.7026" lon="6.01369">
        <ele>358.6</ele>
        <time>2023-06-11T08:28:03Z</time>
      </trkpt>
      <trkpt lat="43.7026" lon="6.01366">
        <ele>358.6</ele>
        <time>2023-06-11T08:28:04Z</time>
      </trkpt>
      <trkpt lat="43.70261" lon="6.01365">
        <ele>358.5</ele>
        <time>2023-06-11T08:28:05Z</time>
      </trkpt>
      <trkpt lat="43.70261" lon="6.01363">
        <ele>358.5</ele>
        <time>2023-06-11T08:28:06Z</time>
      </trkpt>
      <trkpt lat="43.70262" lon="6.01361">
        <ele>358.5</ele>
        <time>2023-06-11T08:28:07Z</time>
      </trkpt>
      <trkpt lat="43.70263" lon="6.01359">
        <ele>358.5</ele>
        <time>2023-06-11T08:28:08Z</time>
      </trkpt>
      <trkpt lat="43.70263" lon="6.01357">
        <ele>358.4</ele>
        <time>2023-06-11T08:28:09Z</time>
      </trkpt>
      <trkpt lat="43.70263" lon="6.01356">
        <ele>358.4</ele>
        <time>2023-06-11T08:28:10Z</time>
      </trkpt>
      <trkpt lat="43.70264" lon="6.01355">
        <ele>358.4</ele>
        <time>2023-06-11T08:28:11Z</time>
      </trkpt>
      <trkpt lat="43.70265" lon="6.01353">
        <ele>358.4</ele>
        <time>2023-06-11T08:28:12Z</time>
      </trkpt>
      <trkpt lat="43.70266" lon="6.01351">
        <ele>358.4</ele>
        <time>2023-06-11T08:28:13Z</time>
      </trkpt>
      <trkpt lat="43.70268" lon="6.01351">
        <ele>358.4</ele>
        <time>2023-06-11T08:28:14Z</time>
      </trkpt>
      <trkpt lat="43.70268" lon="6.01349">
        <ele>358.5</ele>
        <time>2023-06-11T08:28:15Z</time>
      </trkpt>
      <trkpt lat="43.7027" lon="6.01349">
        <ele>358.4</ele>
        <time>2023-06-11T08:28:16Z</time>
      </trkpt>
      <trkpt lat="43.70271" lon="6.01348">
        <ele>358.5</ele>
        <time>2023-06-11T08:28:17Z</time>
      </trkpt>
      <trkpt lat="43.70272" lon="6.01347">
        <ele>358.5</ele>
        <time>2023-06-11T08:28:18Z</time>
      </trkpt>
      <trkpt lat="43.70273" lon="6.01345">
        <ele>358.5</ele>
        <time>2023-06-11T08:28:19Z</time>
      </trkpt>
      <trkpt lat="43.70274" lon="6.01343">
        <ele>358.5</ele>
        <time>2023-06-11T08:28:20Z</time>
      </trkpt>
      <trkpt lat="43.70275" lon="6.01341">
        <ele>358.6</ele>
        <time>2023-06-11T08:28:21Z</time>
      </trkpt>
      <trkpt lat="43.70276" lon="6.01339">
        <ele>358.6</ele>
        <time>2023-06-11T08:28:22Z</time>
      </trkpt>
      <trkpt lat="43.70277" lon="6.01337">
        <ele>358.7</ele>
        <time>2023-06-11T08:28:23Z</time>
      </trkpt>
      <trkpt lat="43.70277" lon="6.01335">
        <ele>358.6</ele>
        <time>2023-06-11T08:28:24Z</time>
      </trkpt>
      <trkpt lat="43.70279" lon="6.01333">
        <ele>358.6</ele>
        <time>2023-06-11T08:28:25Z</time>
      </trkpt>
      <trkpt lat="43.70281" lon="6.01332">
        <ele>358.6</ele>
        <time>2023-06-11T08:28:26Z</time>
      </trkpt>
      <trkpt lat="43.70282" lon="6.01331">
        <ele>358.6</ele>
        <time>2023-06-11T08:28:27Z</time>
      </trkpt>
      <trkpt lat="43.70283" lon="6.01328">
        <ele>358.6</ele>
        <time>2023-06-11T08:28:28Z</time>
      </trkpt>
      <trkpt lat="43.70284" lon="6.01326">
        <ele>358.7</ele>
        <time>2023-06-11T08:28:29Z</time>
      </trkpt>
      <trkpt lat="43.70285" lon="6.01325">
        <ele>358.7</ele>
        <time>2023-06-11T08:28:30Z</time>
      </trkpt>
      <trkpt lat="43.70286" lon="6.01323">
        <ele>358.7</ele>
        <time>2023-06-11T08:28:31Z</time>
      </trkpt>
      <trkpt lat="43.70287" lon="6.01321">
        <ele>358.7</ele>
        <time>2023-06-11T08:28:32Z</time>
      </trkpt>
      <trkpt lat="43.70288" lon="6.0132">
        <ele>358.8</ele>
        <time>2023-06-11T08:28:33Z</time>
      </trkpt>
      <trkpt lat="43.7029" lon="6.01319">
        <ele>358.9</ele>
        <time>2023-06-11T08:28:34Z</time>
      </trkpt>
      <trkpt lat="43.70292" lon="6.01318">
        <ele>359</ele>
        <time>2023-06-11T08:28:35Z</time>
      </trkpt>
      <trkpt lat="43.70294" lon="6.01318">
        <ele>359</ele>
        <time>2023-06-11T08:28:36Z</time>
      </trkpt>
      <trkpt lat="43.70295" lon="6.01317">
        <ele>359</ele>
        <time>2023-06-11T08:28:37Z</time>
      </trkpt>
      <trkpt lat="43.70297" lon="6.01316">
        <ele>359</ele>
        <time>2023-06-11T08:28:38Z</time>
      </trkpt>
      <trkpt lat="43.70299" lon="6.01316">
        <ele>359</ele>
        <time>2023-06-11T08:28:39Z</time>
      </trkpt>
      <trkpt lat="43.703" lon="6.01315">
        <ele>359</ele>
        <time>2023-06-11T08:28:40Z</time>
      </trkpt>
      <trkpt lat="43.70301" lon="6.01313">
        <ele>359.1</ele>
        <time>2023-06-11T08:28:41Z</time>
      </trkpt>
      <trkpt lat="43.70302" lon="6.01311">
        <ele>359.1</ele>
        <time>2023-06-11T08:28:42Z</time>
      </trkpt>
      <trkpt lat="43.70303" lon="6.01311">
        <ele>359.2</ele>
        <time>2023-06-11T08:28:43Z</time>
      </trkpt>
      <trkpt lat="43.70304" lon="6.01309">
        <ele>359.2</ele>
        <time>2023-06-11T08:28:44Z</time>
      </trkpt>
      <trkpt lat="43.70305" lon="6.01308">
        <ele>359.1</ele>
        <time>2023-06-11T08:28:45Z</time>
      </trkpt>
      <trkpt lat="43.70306" lon="6.01307">
        <ele>359.1</ele>
        <time>2023-06-11T08:28:46Z</time>
      </trkpt>
      <trkpt lat="43.70306" lon="6.01306">
        <ele>359.2</ele>
        <time>2023-06-11T08:28:47Z</time>
      </trkpt>
      <trkpt lat="43.70307" lon="6.01305">
        <ele>359.2</ele>
        <time>2023-06-11T08:28:48Z</time>
      </trkpt>
      <trkpt lat="43.70307" lon="6.01303">
        <ele>359.2</ele>
        <time>2023-06-11T08:28:49Z</time>
      </trkpt>
      <trkpt lat="43.70309" lon="6.01303">
        <ele>359.2</ele>
        <time>2023-06-11T08:28:50Z</time>
      </trkpt>
      <trkpt lat="43.7031" lon="6.01302">
        <ele>359.2</ele>
        <time>2023-06-11T08:28:51Z</time>
      </trkpt>
      <trkpt lat="43.7031" lon="6.013">
        <ele>359.2</ele>
        <time>2023-06-11T08:28:52Z</time>
      </trkpt>
      <trkpt lat="43.7031" lon="6.01299">
        <ele>359.2</ele>
        <time>2023-06-11T08:28:53Z</time>
      </trkpt>
      <trkpt lat="43.70311" lon="6.01297">
        <ele>359.2</ele>
        <time>2023-06-11T08:28:54Z</time>
      </trkpt>
      <trkpt lat="43.70311" lon="6.01296">
        <ele>359.2</ele>
        <time>2023-06-11T08:28:55Z</time>
      </trkpt>
      <trkpt lat="43.70312" lon="6.01295">
        <ele>359.1</ele>
        <time>2023-06-11T08:28:56Z</time>
      </trkpt>
      <trkpt lat="43.70313" lon="6.01294">
        <ele>359</ele>
        <time>2023-06-11T08:28:57Z</time>
      </trkpt>
      <trkpt lat="43.70313" lon="6.01292">
        <ele>358.9</ele>
        <time>2023-06-11T08:28:58Z</time>
      </trkpt>
      <trkpt lat="43.70314" lon="6.01291">
        <ele>358.9</ele>
        <time>2023-06-11T08:28:59Z</time>
      </trkpt>
      <trkpt lat="43.70315" lon="6.0129">
        <ele>358.8</ele>
        <time>2023-06-11T08:29:00Z</time>
      </trkpt>
      <trkpt lat="43.70316" lon="6.01289">
        <ele>358.8</ele>
        <time>2023-06-11T08:29:01Z</time>
      </trkpt>
      <trkpt lat="43.70316" lon="6.01287">
        <ele>358.7</ele>
        <time>2023-06-11T08:29:02Z</time>
      </trkpt>
      <trkpt lat="43.70316" lon="6.01286">
        <ele>358.7</ele>
        <time>2023-06-11T08:29:03Z</time>
      </trkpt>
      <trkpt lat="43.70318" lon="6.01286">
        <ele>358.7</ele>
        <time>2023-06-11T08:29:04Z</time>
      </trkpt>
      <trkpt lat="43.70318" lon="6.01285">
        <ele>358.7</ele>
        <time>2023-06-11T08:29:05Z</time>
      </trkpt>
      <trkpt lat="43.70318" lon="6.01283">
        <ele>358.6</ele>
        <time>2023-06-11T08:29:06Z</time>
      </trkpt>
      <trkpt lat="43.70318" lon="6.01281">
        <ele>358.7</ele>
        <time>2023-06-11T08:29:07Z</time>
      </trkpt>
      <trkpt lat="43.70317" lon="6.0128">
        <ele>358.6</ele>
        <time>2023-06-11T08:29:08Z</time>
      </trkpt>
      <trkpt lat="43.70317" lon="6.01278">
        <ele>358.5</ele>
        <time>2023-06-11T08:29:09Z</time>
      </trkpt>
      <trkpt lat="43.70316" lon="6.01276">
        <ele>358.6</ele>
        <time>2023-06-11T08:29:10Z</time>
      </trkpt>
      <trkpt lat="43.70316" lon="6.01275">
        <ele>358.6</ele>
        <time>2023-06-11T08:29:11Z</time>
      </trkpt>
      <trkpt lat="43.70316" lon="6.01273">
        <ele>358.6</ele>
        <time>2023-06-11T08:29:12Z</time>
      </trkpt>
      <trkpt lat="43.70317" lon="6.01271">
        <ele>358.6</ele>
        <time>2023-06-11T08:29:13Z</time>
      </trkpt>
      <trkpt lat="43.70317" lon="6.0127">
        <ele>358.6</ele>
        <time>2023-06-11T08:29:14Z</time>
      </trkpt>
      <trkpt lat="43.70317" lon="6.01268">
        <ele>358.5</ele>
        <time>2023-06-11T08:29:15Z</time>
      </trkpt>
      <trkpt lat="43.70317" lon="6.01266">
        <ele>358.5</ele>
        <time>2023-06-11T08:29:16Z</time>
      </trkpt>
      <trkpt lat="43.70317" lon="6.01264">
        <ele>358.6</ele>
        <time>2023-06-11T08:29:17Z</time>
      </trkpt>
      <trkpt lat="43.70317" lon="6.01263">
        <ele>358.6</ele>
        <time>2023-06-11T08:29:18Z</time>
      </trkpt>
      <trkpt lat="43.70318" lon="6.01261">
        <ele>358.6</ele>
        <time>2023-06-11T08:29:19Z</time>
      </trkpt>
      <trkpt lat="43.70318" lon="6.0126">
        <ele>358.7</ele>
        <time>2023-06-11T08:29:20Z</time>
      </trkpt>
      <trkpt lat="43.70318" lon="6.01258">
        <ele>358.7</ele>
        <time>2023-06-11T08:29:21Z</time>
      </trkpt>
      <trkpt lat="43.70318" lon="6.01256">
        <ele>358.7</ele>
        <time>2023-06-11T08:29:22Z</time>
      </trkpt>
      <trkpt lat="43.70319" lon="6.01254">
        <ele>358.8</ele>
        <time>2023-06-11T08:29:23Z</time>
      </trkpt>
      <trkpt lat="43.70319" lon="6.01252">
        <ele>358.8</ele>
        <time>2023-06-11T08:29:24Z</time>
      </trkpt>
      <trkpt lat="43.70319" lon="6.0125">
        <ele>358.9</ele>
        <time>2023-06-11T08:29:25Z</time>
      </trkpt>
      <trkpt lat="43.70319" lon="6.01248">
        <ele>358.9</ele>
        <time>2023-06-11T08:29:26Z</time>
      </trkpt>
      <trkpt lat="43.70319" lon="6.01246">
        <ele>358.9</ele>
        <time>2023-06-11T08:29:27Z</time>
      </trkpt>
      <trkpt lat="43.70319" lon="6.01245">
        <ele>358.9</ele>
        <time>2023-06-11T08:29:28Z</time>
      </trkpt>
      <trkpt lat="43.7032" lon="6.01243">
        <ele>358.9</ele>
        <time>2023-06-11T08:29:29Z</time>
      </trkpt>
      <trkpt lat="43.7032" lon="6.01241">
        <ele>358.9</ele>
        <time>2023-06-11T08:29:30Z</time>
      </trkpt>
      <trkpt lat="43.7032" lon="6.01239">
        <ele>359</ele>
        <time>2023-06-11T08:29:31Z</time>
      </trkpt>
      <trkpt lat="43.70321" lon="6.01237">
        <ele>359</ele>
        <time>2023-06-11T08:29:32Z</time>
      </trkpt>
      <trkpt lat="43.70321" lon="6.01236">
        <ele>359.1</ele>
        <time>2023-06-11T08:29:33Z</time>
      </trkpt>
      <trkpt lat="43.70321" lon="6.01234">
        <ele>359.1</ele>
        <time>2023-06-11T08:29:34Z</time>
      </trkpt>
      <trkpt lat="43.70322" lon="6.01232">
        <ele>359.1</ele>
        <time>2023-06-11T08:29:35Z</time>
      </trkpt>
      <trkpt lat="43.70322" lon="6.01231">
        <ele>359.1</ele>
        <time>2023-06-11T08:29:36Z</time>
      </trkpt>
      <trkpt lat="43.70323" lon="6.01229">
        <ele>359.1</ele>
        <time>2023-06-11T08:29:37Z</time>
      </trkpt>
      <trkpt lat="43.70323" lon="6.01227">
        <ele>359</ele>
        <time>2023-06-11T08:29:38Z</time>
      </trkpt>
      <trkpt lat="43.70324" lon="6.01226">
        <ele>359</ele>
        <time>2023-06-11T08:29:39Z</time>
      </trkpt>
      <trkpt lat="43.70324" lon="6.01224">
        <ele>358.9</ele>
        <time>2023-06-11T08:29:40Z</time>
      </trkpt>
      <trkpt lat="43.70324" lon="6.01222">
        <ele>358.9</ele>
        <time>2023-06-11T08:29:41Z</time>
      </trkpt>
      <trkpt lat="43.70325" lon="6.0122">
        <ele>358.9</ele>
        <time>2023-06-11T08:29:42Z</time>
      </trkpt>
      <trkpt lat="43.70325" lon="6.01218">
        <ele>358.9</ele>
        <time>2023-06-11T08:29:43Z</time>
      </trkpt>
      <trkpt lat="43.70326" lon="6.01216">
        <ele>358.9</ele>
        <time>2023-06-11T08:29:44Z</time>
      </trkpt>
      <trkpt lat="43.70326" lon="6.01215">
        <ele>358.9</ele>
        <time>2023-06-11T08:29:45Z</time>
      </trkpt>
      <trkpt lat="43.70326" lon="6.01213">
        <ele>359</ele>
        <time>2023-06-11T08:29:46Z</time>
      </trkpt>
      <trkpt lat="43.70327" lon="6.01211">
        <ele>359</ele>
        <time>2023-06-11T08:29:47Z</time>
      </trkpt>
      <trkpt lat="43.70327" lon="6.01209">
        <ele>359</ele>
        <time>2023-06-11T08:29:48Z</time>
      </trkpt>
      <trkpt lat="43.70327" lon="6.01207">
        <ele>359</ele>
        <time>2023-06-11T08:29:49Z</time>
      </trkpt>
      <trkpt lat="43.70328" lon="6.01205">
        <ele>358.9</ele>
        <time>2023-06-11T08:29:50Z</time>
      </trkpt>
      <trkpt lat="43.70328" lon="6.01203">
        <ele>358.9</ele>
        <time>2023-06-11T08:29:51Z</time>
      </trkpt>
      <trkpt lat="43.70329" lon="6.01201">
        <ele>358.9</ele>
        <time>2023-06-11T08:29:52Z</time>
      </trkpt>
      <trkpt lat="43.70329" lon="6.012">
        <ele>358.9</ele>
        <time>2023-06-11T08:29:53Z</time>
      </trkpt>
      <trkpt lat="43.70329" lon="6.01198">
        <ele>358.9</ele>
        <time>2023-06-11T08:29:54Z</time>
      </trkpt>
      <trkpt lat="43.7033" lon="6.01195">
        <ele>358.9</ele>
        <time>2023-06-11T08:29:55Z</time>
      </trkpt>
      <trkpt lat="43.7033" lon="6.01193">
        <ele>359</ele>
        <time>2023-06-11T08:29:56Z</time>
      </trkpt>
      <trkpt lat="43.70331" lon="6.01191">
        <ele>359</ele>
        <time>2023-06-11T08:29:57Z</time>
      </trkpt>
      <trkpt lat="43.70331" lon="6.01189">
        <ele>358.9</ele>
        <time>2023-06-11T08:29:58Z</time>
      </trkpt>
      <trkpt lat="43.70331" lon="6.01187">
        <ele>358.9</ele>
        <time>2023-06-11T08:29:59Z</time>
      </trkpt>
      <trkpt lat="43.70332" lon="6.01186">
        <ele>359</ele>
        <time>2023-06-11T08:30:00Z</time>
      </trkpt>
      <trkpt lat="43.70332" lon="6.01184">
        <ele>359</ele>
        <time>2023-06-11T08:30:01Z</time>
      </trkpt>
      <trkpt lat="43.70333" lon="6.01182">
        <ele>359</ele>
        <time>2023-06-11T08:30:02Z</time>
      </trkpt>
      <trkpt lat="43.70333" lon="6.0118">
        <ele>359</ele>
        <time>2023-06-11T08:30:03Z</time>
      </trkpt>
      <trkpt lat="43.70333" lon="6.01178">
        <ele>359</ele>
        <time>2023-06-11T08:30:04Z</time>
      </trkpt>
      <trkpt lat="43.70334" lon="6.01176">
        <ele>359</ele>
        <time>2023-06-11T08:30:05Z</time>
      </trkpt>
      <trkpt lat="43.70334" lon="6.01174">
        <ele>358.9</ele>
        <time>2023-06-11T08:30:06Z</time>
      </trkpt>
      <trkpt lat="43.70335" lon="6.01172">
        <ele>358.9</ele>
        <time>2023-06-11T08:30:07Z</time>
      </trkpt>
      <trkpt lat="43.70335" lon="6.0117">
        <ele>359</ele>
        <time>2023-06-11T08:30:08Z</time>
      </trkpt>
      <trkpt lat="43.70336" lon="6.01168">
        <ele>359</ele>
        <time>2023-06-11T08:30:09Z</time>
      </trkpt>
      <trkpt lat="43.70336" lon="6.01166">
        <ele>359</ele>
        <time>2023-06-11T08:30:10Z</time>
      </trkpt>
      <trkpt lat="43.70336" lon="6.01164">
        <ele>359</ele>
        <time>2023-06-11T08:30:11Z</time>
      </trkpt>
      <trkpt lat="43.70337" lon="6.01163">
        <ele>359</ele>
        <time>2023-06-11T08:30:12Z</time>
      </trkpt>
      <trkpt lat="43.70337" lon="6.01161">
        <ele>358.9</ele>
        <time>2023-06-11T08:30:13Z</time>
      </trkpt>
      <trkpt lat="43.70338" lon="6.01159">
        <ele>359</ele>
        <time>2023-06-11T08:30:14Z</time>
      </trkpt>
      <trkpt lat="43.70338" lon="6.01157">
        <ele>359.1</ele>
        <time>2023-06-11T08:30:15Z</time>
      </trkpt>
      <trkpt lat="43.70339" lon="6.01156">
        <ele>359.1</ele>
        <time>2023-06-11T08:30:16Z</time>
      </trkpt>
      <trkpt lat="43.70339" lon="6.01154">
        <ele>359.2</ele>
        <time>2023-06-11T08:30:17Z</time>
      </trkpt>
      <trkpt lat="43.70339" lon="6.01152">
        <ele>359.1</ele>
        <time>2023-06-11T08:30:18Z</time>
      </trkpt>
      <trkpt lat="43.7034" lon="6.01151">
        <ele>359.2</ele>
        <time>2023-06-11T08:30:19Z</time>
      </trkpt>
      <trkpt lat="43.7034" lon="6.01149">
        <ele>359.2</ele>
        <time>2023-06-11T08:30:20Z</time>
      </trkpt>
      <trkpt lat="43.70341" lon="6.01147">
        <ele>359.1</ele>
        <time>2023-06-11T08:30:21Z</time>
      </trkpt>
      <trkpt lat="43.70341" lon="6.01146">
        <ele>359.1</ele>
        <time>2023-06-11T08:30:22Z</time>
      </trkpt>
      <trkpt lat="43.70341" lon="6.01144">
        <ele>359.1</ele>
        <time>2023-06-11T08:30:23Z</time>
      </trkpt>
      <trkpt lat="43.70342" lon="6.01142">
        <ele>359.1</ele>
        <time>2023-06-11T08:30:24Z</time>
      </trkpt>
      <trkpt lat="43.70342" lon="6.01141">
        <ele>359.1</ele>
        <time>2023-06-11T08:30:25Z</time>
      </trkpt>
      <trkpt lat="43.70343" lon="6.01139">
        <ele>359.1</ele>
        <time>2023-06-11T08:30:26Z</time>
      </trkpt>
      <trkpt lat="43.70343" lon="6.01137">
        <ele>359.1</ele>
        <time>2023-06-11T08:30:27Z</time>
      </trkpt>
      <trkpt lat="43.70343" lon="6.01136">
        <ele>359.1</ele>
        <time>2023-06-11T08:30:28Z</time>
      </trkpt>
      <trkpt lat="43.70344" lon="6.01134">
        <ele>359</ele>
        <time>2023-06-11T08:30:29Z</time>
      </trkpt>
      <trkpt lat="43.70344" lon="6.01132">
        <ele>359</ele>
        <time>2023-06-11T08:30:30Z</time>
      </trkpt>
      <trkpt lat="43.70344" lon="6.01131">
        <ele>359</ele>
        <time>2023-06-11T08:30:31Z</time>
      </trkpt>
      <trkpt lat="43.70345" lon="6.01129">
        <ele>359.1</ele>
        <time>2023-06-11T08:30:32Z</time>
      </trkpt>
      <trkpt lat="43.70345" lon="6.01127">
        <ele>359.2</ele>
        <time>2023-06-11T08:30:33Z</time>
      </trkpt>
      <trkpt lat="43.70345" lon="6.01126">
        <ele>359.3</ele>
        <time>2023-06-11T08:30:34Z</time>
      </trkpt>
      <trkpt lat="43.70345" lon="6.01124">
        <ele>359.2</ele>
        <time>2023-06-11T08:30:35Z</time>
      </trkpt>
      <trkpt lat="43.70346" lon="6.01122">
        <ele>359.2</ele>
        <time>2023-06-11T08:30:36Z</time>
      </trkpt>
      <trkpt lat="43.70346" lon="6.01121">
        <ele>359.3</ele>
        <time>2023-06-11T08:30:37Z</time>
      </trkpt>
      <trkpt lat="43.70346" lon="6.01119">
        <ele>359.3</ele>
        <time>2023-06-11T08:30:38Z</time>
      </trkpt>
      <trkpt lat="43.70346" lon="6.01117">
        <ele>359.3</ele>
        <time>2023-06-11T08:30:39Z</time>
      </trkpt>
      <trkpt lat="43.70347" lon="6.01116">
        <ele>359.2</ele>
        <time>2023-06-11T08:30:40Z</time>
      </trkpt>
      <trkpt lat="43.70347" lon="6.01114">
        <ele>359.2</ele>
        <time>2023-06-11T08:30:41Z</time>
      </trkpt>
      <trkpt lat="43.70347" lon="6.01113">
        <ele>359.2</ele>
        <time>2023-06-11T08:30:42Z</time>
      </trkpt>
      <trkpt lat="43.70347" lon="6.01111">
        <ele>359.2</ele>
        <time>2023-06-11T08:30:43Z</time>
      </trkpt>
      <trkpt lat="43.70348" lon="6.0111">
        <ele>359.2</ele>
        <time>2023-06-11T08:30:44Z</time>
      </trkpt>
      <trkpt lat="43.70348" lon="6.01108">
        <ele>359.2</ele>
        <time>2023-06-11T08:30:45Z</time>
      </trkpt>
      <trkpt lat="43.70348" lon="6.01107">
        <ele>359.2</ele>
        <time>2023-06-11T08:30:46Z</time>
      </trkpt>
      <trkpt lat="43.70348" lon="6.01105">
        <ele>359.2</ele>
        <time>2023-06-11T08:30:47Z</time>
      </trkpt>
      <trkpt lat="43.70349" lon="6.01104">
        <ele>359.2</ele>
        <time>2023-06-11T08:30:48Z</time>
      </trkpt>
      <trkpt lat="43.70349" lon="6.01102">
        <ele>359.2</ele>
        <time>2023-06-11T08:30:49Z</time>
      </trkpt>
      <trkpt lat="43.70349" lon="6.011">
        <ele>359.1</ele>
        <time>2023-06-11T08:30:50Z</time>
      </trkpt>
      <trkpt lat="43.70349" lon="6.01099">
        <ele>359.1</ele>
        <time>2023-06-11T08:30:51Z</time>
      </trkpt>
      <trkpt lat="43.70349" lon="6.01097">
        <ele>359.2</ele>
        <time>2023-06-11T08:30:52Z</time>
      </trkpt>
      <trkpt lat="43.7035" lon="6.01096">
        <ele>359.2</ele>
        <time>2023-06-11T08:30:53Z</time>
      </trkpt>
      <trkpt lat="43.7035" lon="6.01094">
        <ele>359.2</ele>
        <time>2023-06-11T08:30:54Z</time>
      </trkpt>
      <trkpt lat="43.7035" lon="6.01092">
        <ele>359.1</ele>
        <time>2023-06-11T08:30:55Z</time>
      </trkpt>
      <trkpt lat="43.7035" lon="6.01091">
        <ele>359</ele>
        <time>2023-06-11T08:30:56Z</time>
      </trkpt>
      <trkpt lat="43.7035" lon="6.01089">
        <ele>359</ele>
        <time>2023-06-11T08:30:57Z</time>
      </trkpt>
      <trkpt lat="43.70351" lon="6.01088">
        <ele>359</ele>
        <time>2023-06-11T08:30:58Z</time>
      </trkpt>
      <trkpt lat="43.70351" lon="6.01086">
        <ele>359</ele>
        <time>2023-06-11T08:30:59Z</time>
      </trkpt>
      <trkpt lat="43.70351" lon="6.01085">
        <ele>359.1</ele>
        <time>2023-06-11T08:31:00Z</time>
      </trkpt>
      <trkpt lat="43.70351" lon="6.01083">
        <ele>359.1</ele>
        <time>2023-06-11T08:31:01Z</time>
      </trkpt>
      <trkpt lat="43.70351" lon="6.01081">
        <ele>359.1</ele>
        <time>2023-06-11T08:31:02Z</time>
      </trkpt>
      <trkpt lat="43.70351" lon="6.0108">
        <ele>359</ele>
        <time>2023-06-11T08:31:03Z</time>
      </trkpt>
      <trkpt lat="43.70351" lon="6.01078">
        <ele>359</ele>
        <time>2023-06-11T08:31:04Z</time>
      </trkpt>
      <trkpt lat="43.70351" lon="6.01077">
        <ele>359</ele>
        <time>2023-06-11T08:31:05Z</time>
      </trkpt>
      <trkpt lat="43.70351" lon="6.01075">
        <ele>359</ele>
        <time>2023-06-11T08:31:06Z</time>
      </trkpt>
      <trkpt lat="43.70351" lon="6.01073">
        <ele>359</ele>
        <time>2023-06-11T08:31:07Z</time>
      </trkpt>
      <trkpt lat="43.70352" lon="6.01072">
        <ele>359</ele>
        <time>2023-06-11T08:31:08Z</time>
      </trkpt>
      <trkpt lat="43.70352" lon="6.0107">
        <ele>359.1</ele>
        <time>2023-06-11T08:31:09Z</time>
      </trkpt>
      <trkpt lat="43.70352" lon="6.01068">
        <ele>359.1</ele>
        <time>2023-06-11T08:31:10Z</time>
      </trkpt>
      <trkpt lat="43.70352" lon="6.01067">
        <ele>359.2</ele>
        <time>2023-06-11T08:31:11Z</time>
      </trkpt>
      <trkpt lat="43.70352" lon="6.01065">
        <ele>359.1</ele>
        <time>2023-06-11T08:31:12Z</time>
      </trkpt>
      <trkpt lat="43.70352" lon="6.01063">
        <ele>359</ele>
        <time>2023-06-11T08:31:13Z</time>
      </trkpt>
      <trkpt lat="43.70352" lon="6.01062">
        <ele>359</ele>
        <time>2023-06-11T08:31:14Z</time>
      </trkpt>
      <trkpt lat="43.70352" lon="6.0106">
        <ele>358.9</ele>
        <time>2023-06-11T08:31:15Z</time>
      </trkpt>
      <trkpt lat="43.70352" lon="6.01058">
        <ele>358.9</ele>
        <time>2023-06-11T08:31:16Z</time>
      </trkpt>
      <trkpt lat="43.70353" lon="6.01056">
        <ele>359</ele>
        <time>2023-06-11T08:31:17Z</time>
      </trkpt>
      <trkpt lat="43.70353" lon="6.01055">
        <ele>359</ele>
        <time>2023-06-11T08:31:18Z</time>
      </trkpt>
      <trkpt lat="43.70353" lon="6.01053">
        <ele>359</ele>
        <time>2023-06-11T08:31:19Z</time>
      </trkpt>
      <trkpt lat="43.70353" lon="6.01051">
        <ele>359</ele>
        <time>2023-06-11T08:31:20Z</time>
      </trkpt>
      <trkpt lat="43.70353" lon="6.0105">
        <ele>359</ele>
        <time>2023-06-11T08:31:21Z</time>
      </trkpt>
      <trkpt lat="43.70353" lon="6.01048">
        <ele>359</ele>
        <time>2023-06-11T08:31:22Z</time>
      </trkpt>
      <trkpt lat="43.70353" lon="6.01045">
        <ele>359.1</ele>
        <time>2023-06-11T08:31:23Z</time>
      </trkpt>
      <trkpt lat="43.70354" lon="6.01043">
        <ele>359.1</ele>
        <time>2023-06-11T08:31:24Z</time>
      </trkpt>
      <trkpt lat="43.70354" lon="6.01041">
        <ele>359.1</ele>
        <time>2023-06-11T08:31:25Z</time>
      </trkpt>
      <trkpt lat="43.70354" lon="6.0104">
        <ele>359.2</ele>
        <time>2023-06-11T08:31:26Z</time>
      </trkpt>
      <trkpt lat="43.70354" lon="6.01038">
        <ele>359.2</ele>
        <time>2023-06-11T08:31:27Z</time>
      </trkpt>
      <trkpt lat="43.70354" lon="6.01036">
        <ele>359.2</ele>
        <time>2023-06-11T08:31:28Z</time>
      </trkpt>
      <trkpt lat="43.70355" lon="6.01035">
        <ele>359.1</ele>
        <time>2023-06-11T08:31:29Z</time>
      </trkpt>
      <trkpt lat="43.70355" lon="6.01033">
        <ele>359.1</ele>
        <time>2023-06-11T08:31:30Z</time>
      </trkpt>
      <trkpt lat="43.70355" lon="6.01032">
        <ele>359.1</ele>
        <time>2023-06-11T08:31:31Z</time>
      </trkpt>
      <trkpt lat="43.70355" lon="6.0103">
        <ele>359.1</ele>
        <time>2023-06-11T08:31:32Z</time>
      </trkpt>
      <trkpt lat="43.70356" lon="6.01029">
        <ele>359.1</ele>
        <time>2023-06-11T08:31:33Z</time>
      </trkpt>
      <trkpt lat="43.70356" lon="6.01027">
        <ele>359.1</ele>
        <time>2023-06-11T08:31:34Z</time>
      </trkpt>
      <trkpt lat="43.70356" lon="6.01026">
        <ele>359.1</ele>
        <time>2023-06-11T08:31:35Z</time>
      </trkpt>
      <trkpt lat="43.70356" lon="6.01024">
        <ele>359.1</ele>
        <time>2023-06-11T08:31:36Z</time>
      </trkpt>
      <trkpt lat="43.70356" lon="6.01023">
        <ele>359.1</ele>
        <time>2023-06-11T08:31:37Z</time>
      </trkpt>
      <trkpt lat="43.70357" lon="6.01021">
        <ele>359.1</ele>
        <time>2023-06-11T08:31:38Z</time>
      </trkpt>
      <trkpt lat="43.70357" lon="6.01019">
        <ele>359</ele>
        <time>2023-06-11T08:31:39Z</time>
      </trkpt>
      <trkpt lat="43.70357" lon="6.01018">
        <ele>359</ele>
        <time>2023-06-11T08:31:40Z</time>
      </trkpt>
      <trkpt lat="43.70357" lon="6.01017">
        <ele>358.9</ele>
        <time>2023-06-11T08:31:41Z</time>
      </trkpt>
      <trkpt lat="43.70358" lon="6.01015">
        <ele>358.9</ele>
        <time>2023-06-11T08:31:42Z</time>
      </trkpt>
      <trkpt lat="43.70358" lon="6.01014">
        <ele>358.9</ele>
        <time>2023-06-11T08:31:43Z</time>
      </trkpt>
      <trkpt lat="43.70358" lon="6.01012">
        <ele>358.9</ele>
        <time>2023-06-11T08:31:44Z</time>
      </trkpt>
      <trkpt lat="43.70358" lon="6.01011">
        <ele>358.9</ele>
        <time>2023-06-11T08:31:45Z</time>
      </trkpt>
      <trkpt lat="43.70358" lon="6.01009">
        <ele>358.9</ele>
        <time>2023-06-11T08:31:46Z</time>
      </trkpt>
      <trkpt lat="43.70359" lon="6.01008">
        <ele>358.9</ele>
        <time>2023-06-11T08:31:47Z</time>
      </trkpt>
      <trkpt lat="43.70359" lon="6.01007">
        <ele>358.9</ele>
        <time>2023-06-11T08:31:48Z</time>
      </trkpt>
      <trkpt lat="43.70359" lon="6.01005">
        <ele>358.9</ele>
        <time>2023-06-11T08:31:49Z</time>
      </trkpt>
      <trkpt lat="43.70359" lon="6.01004">
        <ele>358.9</ele>
        <time>2023-06-11T08:31:50Z</time>
      </trkpt>
      <trkpt lat="43.7036" lon="6.01003">
        <ele>358.9</ele>
        <time>2023-06-11T08:31:51Z</time>
      </trkpt>
      <trkpt lat="43.7036" lon="6.01001">
        <ele>359</ele>
        <time>2023-06-11T08:31:52Z</time>
      </trkpt>
      <trkpt lat="43.7036" lon="6.00999">
        <ele>359.1</ele>
        <time>2023-06-11T08:31:53Z</time>
      </trkpt>
      <trkpt lat="43.7036" lon="6.00997">
        <ele>359</ele>
        <time>2023-06-11T08:31:54Z</time>
      </trkpt>
      <trkpt lat="43.70361" lon="6.00996">
        <ele>359</ele>
        <time>2023-06-11T08:31:55Z</time>
      </trkpt>
      <trkpt lat="43.70361" lon="6.00994">
        <ele>359</ele>
        <time>2023-06-11T08:31:56Z</time>
      </trkpt>
      <trkpt lat="43.70362" lon="6.00993">
        <ele>358.9</ele>
        <time>2023-06-11T08:31:57Z</time>
      </trkpt>
      <trkpt lat="43.70362" lon="6.00992">
        <ele>358.9</ele>
        <time>2023-06-11T08:31:58Z</time>
      </trkpt>
      <trkpt lat="43.70362" lon="6.0099">
        <ele>358.9</ele>
        <time>2023-06-11T08:31:59Z</time>
      </trkpt>
      <trkpt lat="43.70362" lon="6.00989">
        <ele>358.9</ele>
        <time>2023-06-11T08:32:00Z</time>
      </trkpt>
      <trkpt lat="43.70362" lon="6.00987">
        <ele>359</ele>
        <time>2023-06-11T08:32:01Z</time>
      </trkpt>
      <trkpt lat="43.70362" lon="6.00986">
        <ele>358.9</ele>
        <time>2023-06-11T08:32:02Z</time>
      </trkpt>
      <trkpt lat="43.70362" lon="6.00986">
        <ele>358.9</ele>
        <time>2023-06-11T08:32:03Z</time>
      </trkpt>
      <trkpt lat="43.70363" lon="6.00985">
        <ele>358.8</ele>
        <time>2023-06-11T08:32:04Z</time>
      </trkpt>
      <trkpt lat="43.70363" lon="6.00983">
        <ele>358.8</ele>
        <time>2023-06-11T08:32:05Z</time>
      </trkpt>
      <trkpt lat="43.70363" lon="6.00982">
        <ele>358.8</ele>
        <time>2023-06-11T08:32:06Z</time>
      </trkpt>
      <trkpt lat="43.70364" lon="6.00981">
        <ele>358.8</ele>
        <time>2023-06-11T08:32:07Z</time>
      </trkpt>
      <trkpt lat="43.70364" lon="6.0098">
        <ele>358.8</ele>
        <time>2023-06-11T08:32:08Z</time>
      </trkpt>
      <trkpt lat="43.70364" lon="6.00979">
        <ele>358.8</ele>
        <time>2023-06-11T08:32:09Z</time>
      </trkpt>
      <trkpt lat="43.70364" lon="6.00978">
        <ele>358.8</ele>
        <time>2023-06-11T08:32:10Z</time>
      </trkpt>
      <trkpt lat="43.70364" lon="6.00978">
        <ele>358.8</ele>
        <time>2023-06-11T08:32:11Z</time>
      </trkpt>
      <trkpt lat="43.70364" lon="6.00977">
        <ele>358.8</ele>
        <time>2023-06-11T08:32:12Z</time>
      </trkpt>
      <trkpt lat="43.70365" lon="6.00976">
        <ele>358.8</ele>
        <time>2023-06-11T08:32:13Z</time>
      </trkpt>
      <trkpt lat="43.70365" lon="6.00975">
        <ele>358.8</ele>
        <time>2023-06-11T08:32:14Z</time>
      </trkpt>
      <trkpt lat="43.70365" lon="6.00974">
        <ele>358.8</ele>
        <time>2023-06-11T08:32:15Z</time>
      </trkpt>
      <trkpt lat="43.70365" lon="6.00974">
        <ele>358.8</ele>
        <time>2023-06-11T08:32:16Z</time>
      </trkpt>
      <trkpt lat="43.70366" lon="6.00973">
        <ele>358.8</ele>
        <time>2023-06-11T08:32:17Z</time>
      </trkpt>
      <trkpt lat="43.70366" lon="6.00972">
        <ele>358.8</ele>
        <time>2023-06-11T08:32:18Z</time>
      </trkpt>
      <trkpt lat="43.70366" lon="6.00971">
        <ele>358.8</ele>
        <time>2023-06-11T08:32:19Z</time>
      </trkpt>
      <trkpt lat="43.70366" lon="6.00971">
        <ele>358.8</ele>
        <time>2023-06-11T08:32:20Z</time>
      </trkpt>
      <trkpt lat="43.70366" lon="6.0097">
        <ele>358.7</ele>
        <time>2023-06-11T08:32:21Z</time>
      </trkpt>
      <trkpt lat="43.70366" lon="6.00969">
        <ele>358.7</ele>
        <time>2023-06-11T08:32:22Z</time>
      </trkpt>
      <trkpt lat="43.70366" lon="6.00968">
        <ele>358.6</ele>
        <time>2023-06-11T08:32:23Z</time>
      </trkpt>
      <trkpt lat="43.70366" lon="6.00967">
        <ele>358.6</ele>
        <time>2023-06-11T08:32:24Z</time>
      </trkpt>
      <trkpt lat="43.70367" lon="6.00965">
        <ele>358.6</ele>
        <time>2023-06-11T08:32:25Z</time>
      </trkpt>
      <trkpt lat="43.70367" lon="6.00964">
        <ele>358.6</ele>
        <time>2023-06-11T08:32:26Z</time>
      </trkpt>
      <trkpt lat="43.70367" lon="6.00963">
        <ele>358.6</ele>
        <time>2023-06-11T08:32:27Z</time>
      </trkpt>
      <trkpt lat="43.70366" lon="6.00961">
        <ele>358.5</ele>
        <time>2023-06-11T08:32:28Z</time>
      </trkpt>
      <trkpt lat="43.70366" lon="6.0096">
        <ele>358.5</ele>
        <time>2023-06-11T08:32:29Z</time>
      </trkpt>
      <trkpt lat="43.70367" lon="6.00958">
        <ele>358.4</ele>
        <time>2023-06-11T08:32:30Z</time>
      </trkpt>
      <trkpt lat="43.70367" lon="6.00957">
        <ele>358.4</ele>
        <time>2023-06-11T08:32:31Z</time>
      </trkpt>
      <trkpt lat="43.70367" lon="6.00956">
        <ele>358.5</ele>
        <time>2023-06-11T08:32:32Z</time>
      </trkpt>
      <trkpt lat="43.70367" lon="6.00955">
        <ele>358.5</ele>
        <time>2023-06-11T08:32:33Z</time>
      </trkpt>
      <trkpt lat="43.70367" lon="6.00953">
        <ele>358.6</ele>
        <time>2023-06-11T08:32:34Z</time>
      </trkpt>
      <trkpt lat="43.70367" lon="6.00952">
        <ele>358.6</ele>
        <time>2023-06-11T08:32:35Z</time>
      </trkpt>
      <trkpt lat="43.70367" lon="6.0095">
        <ele>358.6</ele>
        <time>2023-06-11T08:32:36Z</time>
      </trkpt>
      <trkpt lat="43.70367" lon="6.00949">
        <ele>358.6</ele>
        <time>2023-06-11T08:32:37Z</time>
      </trkpt>
      <trkpt lat="43.70367" lon="6.00947">
        <ele>358.7</ele>
        <time>2023-06-11T08:32:38Z</time>
      </trkpt>
      <trkpt lat="43.70367" lon="6.00946">
        <ele>358.7</ele>
        <time>2023-06-11T08:32:39Z</time>
      </trkpt>
      <trkpt lat="43.70367" lon="6.00944">
        <ele>358.8</ele>
        <time>2023-06-11T08:32:40Z</time>
      </trkpt>
      <trkpt lat="43.70367" lon="6.00942">
        <ele>358.8</ele>
        <time>2023-06-11T08:32:41Z</time>
      </trkpt>
      <trkpt lat="43.70367" lon="6.00941">
        <ele>358.9</ele>
        <time>2023-06-11T08:32:42Z</time>
      </trkpt>
      <trkpt lat="43.70367" lon="6.00939">
        <ele>358.8</ele>
        <time>2023-06-11T08:32:43Z</time>
      </trkpt>
      <trkpt lat="43.70367" lon="6.00938">
        <ele>358.8</ele>
        <time>2023-06-11T08:32:44Z</time>
      </trkpt>
      <trkpt lat="43.70367" lon="6.00936">
        <ele>358.8</ele>
        <time>2023-06-11T08:32:45Z</time>
      </trkpt>
      <trkpt lat="43.70368" lon="6.00934">
        <ele>358.8</ele>
        <time>2023-06-11T08:32:46Z</time>
      </trkpt>
      <trkpt lat="43.70368" lon="6.00933">
        <ele>358.9</ele>
        <time>2023-06-11T08:32:47Z</time>
      </trkpt>
      <trkpt lat="43.70368" lon="6.00931">
        <ele>358.8</ele>
        <time>2023-06-11T08:32:48Z</time>
      </trkpt>
      <trkpt lat="43.70368" lon="6.00929">
        <ele>358.8</ele>
        <time>2023-06-11T08:32:49Z</time>
      </trkpt>
      <trkpt lat="43.70367" lon="6.00928">
        <ele>358.7</ele>
        <time>2023-06-11T08:32:50Z</time>
      </trkpt>
      <trkpt lat="43.70367" lon="6.00925">
        <ele>358.7</ele>
        <time>2023-06-11T08:32:51Z</time>
      </trkpt>
      <trkpt lat="43.70368" lon="6.00924">
        <ele>358.7</ele>
        <time>2023-06-11T08:32:52Z</time>
      </trkpt>
      <trkpt lat="43.70368" lon="6.00922">
        <ele>358.6</ele>
        <time>2023-06-11T08:32:53Z</time>
      </trkpt>
      <trkpt lat="43.70368" lon="6.0092">
        <ele>358.6</ele>
        <time>2023-06-11T08:32:54Z</time>
      </trkpt>
      <trkpt lat="43.70368" lon="6.00919">
        <ele>358.6</ele>
        <time>2023-06-11T08:32:55Z</time>
      </trkpt>
      <trkpt lat="43.70367" lon="6.00917">
        <ele>358.6</ele>
        <time>2023-06-11T08:32:56Z</time>
      </trkpt>
      <trkpt lat="43.70367" lon="6.00915">
        <ele>358.6</ele>
        <time>2023-06-11T08:32:57Z</time>
      </trkpt>
      <trkpt lat="43.70367" lon="6.00914">
        <ele>358.6</ele>
        <time>2023-06-11T08:32:58Z</time>
      </trkpt>
      <trkpt lat="43.70368" lon="6.00912">
        <ele>358.7</ele>
        <time>2023-06-11T08:32:59Z</time>
      </trkpt>
      <trkpt lat="43.70368" lon="6.0091">
        <ele>358.6</ele>
        <time>2023-06-11T08:33:00Z</time>
      </trkpt>
      <trkpt lat="43.70367" lon="6.00909">
        <ele>358.6</ele>
        <time>2023-06-11T08:33:01Z</time>
      </trkpt>
      <trkpt lat="43.70367" lon="6.00907">
        <ele>358.5</ele>
        <time>2023-06-11T08:33:02Z</time>
      </trkpt>
      <trkpt lat="43.70367" lon="6.00905">
        <ele>358.5</ele>
        <time>2023-06-11T08:33:03Z</time>
      </trkpt>
      <trkpt lat="43.70367" lon="6.00904">
        <ele>358.5</ele>
        <time>2023-06-11T08:33:04Z</time>
      </trkpt>
      <trkpt lat="43.70367" lon="6.00902">
        <ele>358.5</ele>
        <time>2023-06-11T08:33:05Z</time>
      </trkpt>
      <trkpt lat="43.70368" lon="6.00901">
        <ele>358.5</ele>
        <time>2023-06-11T08:33:06Z</time>
      </trkpt>
      <trkpt lat="43.70368" lon="6.00899">
        <ele>358.6</ele>
        <time>2023-06-11T08:33:07Z</time>
      </trkpt>
      <trkpt lat="43.70369" lon="6.00898">
        <ele>358.7</ele>
        <time>2023-06-11T08:33:08Z</time>
      </trkpt>
      <trkpt lat="43.70369" lon="6.00896">
        <ele>358.7</ele>
        <time>2023-06-11T08:33:09Z</time>
      </trkpt>
      <trkpt lat="43.70369" lon="6.00895">
        <ele>358.6</ele>
        <time>2023-06-11T08:33:10Z</time>
      </trkpt>
      <trkpt lat="43.70369" lon="6.00893">
        <ele>358.7</ele>
        <time>2023-06-11T08:33:11Z</time>
      </trkpt>
      <trkpt lat="43.70369" lon="6.00891">
        <ele>358.7</ele>
        <time>2023-06-11T08:33:12Z</time>
      </trkpt>
      <trkpt lat="43.70369" lon="6.00889">
        <ele>358.7</ele>
        <time>2023-06-11T08:33:13Z</time>
      </trkpt>
      <trkpt lat="43.70369" lon="6.00888">
        <ele>358.8</ele>
        <time>2023-06-11T08:33:14Z</time>
      </trkpt>
      <trkpt lat="43.7037" lon="6.00887">
        <ele>358.8</ele>
        <time>2023-06-11T08:33:15Z</time>
      </trkpt>
      <trkpt lat="43.7037" lon="6.00885">
        <ele>358.8</ele>
        <time>2023-06-11T08:33:16Z</time>
      </trkpt>
      <trkpt lat="43.7037" lon="6.00884">
        <ele>358.8</ele>
        <time>2023-06-11T08:33:17Z</time>
      </trkpt>
      <trkpt lat="43.7037" lon="6.00882">
        <ele>358.9</ele>
        <time>2023-06-11T08:33:18Z</time>
      </trkpt>
      <trkpt lat="43.7037" lon="6.0088">
        <ele>358.9</ele>
        <time>2023-06-11T08:33:19Z</time>
      </trkpt>
      <trkpt lat="43.7037" lon="6.00878">
        <ele>358.9</ele>
        <time>2023-06-11T08:33:20Z</time>
      </trkpt>
      <trkpt lat="43.7037" lon="6.00877">
        <ele>359</ele>
        <time>2023-06-11T08:33:21Z</time>
      </trkpt>
      <trkpt lat="43.70371" lon="6.00875">
        <ele>359</ele>
        <time>2023-06-11T08:33:22Z</time>
      </trkpt>
      <trkpt lat="43.70371" lon="6.00874">
        <ele>359.1</ele>
        <time>2023-06-11T08:33:23Z</time>
      </trkpt>
      <trkpt lat="43.70372" lon="6.00872">
        <ele>359.1</ele>
        <time>2023-06-11T08:33:24Z</time>
      </trkpt>
      <trkpt lat="43.70372" lon="6.0087">
        <ele>359.1</ele>
        <time>2023-06-11T08:33:25Z</time>
      </trkpt>
      <trkpt lat="43.70373" lon="6.00868">
        <ele>359</ele>
        <time>2023-06-11T08:33:26Z</time>
      </trkpt>
      <trkpt lat="43.70373" lon="6.00866">
        <ele>359</ele>
        <time>2023-06-11T08:33:27Z</time>
      </trkpt>
      <trkpt lat="43.70374" lon="6.00865">
        <ele>359</ele>
        <time>2023-06-11T08:33:28Z</time>
      </trkpt>
      <trkpt lat="43.70374" lon="6.00863">
        <ele>359</ele>
        <time>2023-06-11T08:33:29Z</time>
      </trkpt>
      <trkpt lat="43.70375" lon="6.00862">
        <ele>359</ele>
        <time>2023-06-11T08:33:30Z</time>
      </trkpt>
      <trkpt lat="43.70375" lon="6.0086">
        <ele>359</ele>
        <time>2023-06-11T08:33:31Z</time>
      </trkpt>
      <trkpt lat="43.70376" lon="6.00858">
        <ele>359</ele>
        <time>2023-06-11T08:33:32Z</time>
      </trkpt>
      <trkpt lat="43.70377" lon="6.00856">
        <ele>359</ele>
        <time>2023-06-11T08:33:33Z</time>
      </trkpt>
      <trkpt lat="43.70377" lon="6.00854">
        <ele>358.9</ele>
        <time>2023-06-11T08:33:34Z</time>
      </trkpt>
      <trkpt lat="43.70378" lon="6.00853">
        <ele>358.9</ele>
        <time>2023-06-11T08:33:35Z</time>
      </trkpt>
      <trkpt lat="43.70379" lon="6.00851">
        <ele>358.9</ele>
        <time>2023-06-11T08:33:36Z</time>
      </trkpt>
      <trkpt lat="43.7038" lon="6.0085">
        <ele>359</ele>
        <time>2023-06-11T08:33:37Z</time>
      </trkpt>
      <trkpt lat="43.70381" lon="6.00848">
        <ele>359</ele>
        <time>2023-06-11T08:33:38Z</time>
      </trkpt>
      <trkpt lat="43.70381" lon="6.00847">
        <ele>359.1</ele>
        <time>2023-06-11T08:33:39Z</time>
      </trkpt>
      <trkpt lat="43.70382" lon="6.00845">
        <ele>359.2</ele>
        <time>2023-06-11T08:33:40Z</time>
      </trkpt>
      <trkpt lat="43.70383" lon="6.00844">
        <ele>359.2</ele>
        <time>2023-06-11T08:33:41Z</time>
      </trkpt>
      <trkpt lat="43.70384" lon="6.00842">
        <ele>359.2</ele>
        <time>2023-06-11T08:33:42Z</time>
      </trkpt>
      <trkpt lat="43.70384" lon="6.00841">
        <ele>359.3</ele>
        <time>2023-06-11T08:33:43Z</time>
      </trkpt>
      <trkpt lat="43.70385" lon="6.00839">
        <ele>359.2</ele>
        <time>2023-06-11T08:33:44Z</time>
      </trkpt>
      <trkpt lat="43.70386" lon="6.00838">
        <ele>359.2</ele>
        <time>2023-06-11T08:33:45Z</time>
      </trkpt>
      <trkpt lat="43.70387" lon="6.00836">
        <ele>359.2</ele>
        <time>2023-06-11T08:33:46Z</time>
      </trkpt>
      <trkpt lat="43.70388" lon="6.00835">
        <ele>359.2</ele>
        <time>2023-06-11T08:33:47Z</time>
      </trkpt>
      <trkpt lat="43.70388" lon="6.00833">
        <ele>359.2</ele>
        <time>2023-06-11T08:33:48Z</time>
      </trkpt>
      <trkpt lat="43.70389" lon="6.00831">
        <ele>359.2</ele>
        <time>2023-06-11T08:33:49Z</time>
      </trkpt>
      <trkpt lat="43.7039" lon="6.0083">
        <ele>359.1</ele>
        <time>2023-06-11T08:33:50Z</time>
      </trkpt>
      <trkpt lat="43.70391" lon="6.00828">
        <ele>359.1</ele>
        <time>2023-06-11T08:33:51Z</time>
      </trkpt>
      <trkpt lat="43.70392" lon="6.00826">
        <ele>359.1</ele>
        <time>2023-06-11T08:33:52Z</time>
      </trkpt>
      <trkpt lat="43.70393" lon="6.00825">
        <ele>359.1</ele>
        <time>2023-06-11T08:33:53Z</time>
      </trkpt>
      <trkpt lat="43.70394" lon="6.00823">
        <ele>359.1</ele>
        <time>2023-06-11T08:33:54Z</time>
      </trkpt>
      <trkpt lat="43.70395" lon="6.00822">
        <ele>359.1</ele>
        <time>2023-06-11T08:33:55Z</time>
      </trkpt>
      <trkpt lat="43.70396" lon="6.0082">
        <ele>359.1</ele>
        <time>2023-06-11T08:33:56Z</time>
      </trkpt>
      <trkpt lat="43.70397" lon="6.00819">
        <ele>359.1</ele>
        <time>2023-06-11T08:33:57Z</time>
      </trkpt>
      <trkpt lat="43.70398" lon="6.00818">
        <ele>359.1</ele>
        <time>2023-06-11T08:33:58Z</time>
      </trkpt>
      <trkpt lat="43.70399" lon="6.00816">
        <ele>359.2</ele>
        <time>2023-06-11T08:33:59Z</time>
      </trkpt>
      <trkpt lat="43.704" lon="6.00815">
        <ele>359.2</ele>
        <time>2023-06-11T08:34:00Z</time>
      </trkpt>
      <trkpt lat="43.70401" lon="6.00814">
        <ele>359.2</ele>
        <time>2023-06-11T08:34:01Z</time>
      </trkpt>
      <trkpt lat="43.70403" lon="6.00813">
        <ele>359.2</ele>
        <time>2023-06-11T08:34:02Z</time>
      </trkpt>
      <trkpt lat="43.70404" lon="6.00812">
        <ele>359.2</ele>
        <time>2023-06-11T08:34:03Z</time>
      </trkpt>
      <trkpt lat="43.70405" lon="6.00811">
        <ele>359.2</ele>
        <time>2023-06-11T08:34:04Z</time>
      </trkpt>
      <trkpt lat="43.70406" lon="6.0081">
        <ele>359.3</ele>
        <time>2023-06-11T08:34:05Z</time>
      </trkpt>
      <trkpt lat="43.70407" lon="6.00809">
        <ele>359.3</ele>
        <time>2023-06-11T08:34:06Z</time>
      </trkpt>
      <trkpt lat="43.70408" lon="6.00808">
        <ele>359.3</ele>
        <time>2023-06-11T08:34:07Z</time>
      </trkpt>
      <trkpt lat="43.70409" lon="6.00806">
        <ele>359.3</ele>
        <time>2023-06-11T08:34:08Z</time>
      </trkpt>
      <trkpt lat="43.7041" lon="6.00805">
        <ele>359.3</ele>
        <time>2023-06-11T08:34:09Z</time>
      </trkpt>
      <trkpt lat="43.70412" lon="6.00804">
        <ele>359.1</ele>
        <time>2023-06-11T08:34:10Z</time>
      </trkpt>
      <trkpt lat="43.70413" lon="6.00802">
        <ele>359</ele>
        <time>2023-06-11T08:34:11Z</time>
      </trkpt>
      <trkpt lat="43.70414" lon="6.00801">
        <ele>359</ele>
        <time>2023-06-11T08:34:12Z</time>
      </trkpt>
      <trkpt lat="43.70415" lon="6.008">
        <ele>358.9</ele>
        <time>2023-06-11T08:34:13Z</time>
      </trkpt>
      <trkpt lat="43.70416" lon="6.00799">
        <ele>358.9</ele>
        <time>2023-06-11T08:34:14Z</time>
      </trkpt>
      <trkpt lat="43.70418" lon="6.00798">
        <ele>358.9</ele>
        <time>2023-06-11T08:34:15Z</time>
      </trkpt>
      <trkpt lat="43.70419" lon="6.00797">
        <ele>358.8</ele>
        <time>2023-06-11T08:34:16Z</time>
      </trkpt>
      <trkpt lat="43.7042" lon="6.00796">
        <ele>358.9</ele>
        <time>2023-06-11T08:34:17Z</time>
      </trkpt>
      <trkpt lat="43.70421" lon="6.00795">
        <ele>358.9</ele>
        <time>2023-06-11T08:34:18Z</time>
      </trkpt>
      <trkpt lat="43.70422" lon="6.00794">
        <ele>358.9</ele>
        <time>2023-06-11T08:34:19Z</time>
      </trkpt>
      <trkpt lat="43.70424" lon="6.00793">
        <ele>359</ele>
        <time>2023-06-11T08:34:20Z</time>
      </trkpt>
      <trkpt lat="43.70425" lon="6.00792">
        <ele>358.9</ele>
        <time>2023-06-11T08:34:21Z</time>
      </trkpt>
      <trkpt lat="43.70426" lon="6.00792">
        <ele>358.9</ele>
        <time>2023-06-11T08:34:22Z</time>
      </trkpt>
      <trkpt lat="43.70428" lon="6.00791">
        <ele>358.8</ele>
        <time>2023-06-11T08:34:23Z</time>
      </trkpt>
      <trkpt lat="43.70429" lon="6.0079">
        <ele>358.8</ele>
        <time>2023-06-11T08:34:24Z</time>
      </trkpt>
      <trkpt lat="43.7043" lon="6.00789">
        <ele>358.9</ele>
        <time>2023-06-11T08:34:25Z</time>
      </trkpt>
      <trkpt lat="43.70432" lon="6.00789">
        <ele>358.9</ele>
        <time>2023-06-11T08:34:26Z</time>
      </trkpt>
      <trkpt lat="43.70433" lon="6.00788">
        <ele>358.9</ele>
        <time>2023-06-11T08:34:27Z</time>
      </trkpt>
      <trkpt lat="43.70434" lon="6.00786">
        <ele>358.9</ele>
        <time>2023-06-11T08:34:28Z</time>
      </trkpt>
      <trkpt lat="43.70435" lon="6.00785">
        <ele>358.9</ele>
        <time>2023-06-11T08:34:29Z</time>
      </trkpt>
      <trkpt lat="43.70437" lon="6.00785">
        <ele>358.8</ele>
        <time>2023-06-11T08:34:30Z</time>
      </trkpt>
      <trkpt lat="43.70438" lon="6.00783">
        <ele>358.9</ele>
        <time>2023-06-11T08:34:31Z</time>
      </trkpt>
      <trkpt lat="43.70439" lon="6.00782">
        <ele>359</ele>
        <time>2023-06-11T08:34:32Z</time>
      </trkpt>
      <trkpt lat="43.7044" lon="6.00781">
        <ele>358.9</ele>
        <time>2023-06-11T08:34:33Z</time>
      </trkpt>
      <trkpt lat="43.70441" lon="6.00779">
        <ele>358.9</ele>
        <time>2023-06-11T08:34:34Z</time>
      </trkpt>
      <trkpt lat="43.70442" lon="6.00778">
        <ele>358.9</ele>
        <time>2023-06-11T08:34:35Z</time>
      </trkpt>
      <trkpt lat="43.70444" lon="6.00777">
        <ele>358.8</ele>
        <time>2023-06-11T08:34:36Z</time>
      </trkpt>
      <trkpt lat="43.70445" lon="6.00776">
        <ele>358.8</ele>
        <time>2023-06-11T08:34:37Z</time>
      </trkpt>
      <trkpt lat="43.70446" lon="6.00776">
        <ele>358.8</ele>
        <time>2023-06-11T08:34:38Z</time>
      </trkpt>
      <trkpt lat="43.70447" lon="6.00775">
        <ele>358.8</ele>
        <time>2023-06-11T08:34:39Z</time>
      </trkpt>
      <trkpt lat="43.70448" lon="6.00774">
        <ele>358.8</ele>
        <time>2023-06-11T08:34:40Z</time>
      </trkpt>
      <trkpt lat="43.70449" lon="6.00773">
        <ele>358.8</ele>
        <time>2023-06-11T08:34:41Z</time>
      </trkpt>
      <trkpt lat="43.7045" lon="6.00772">
        <ele>358.8</ele>
        <time>2023-06-11T08:34:42Z</time>
      </trkpt>
      <trkpt lat="43.70451" lon="6.0077">
        <ele>358.8</ele>
        <time>2023-06-11T08:34:43Z</time>
      </trkpt>
      <trkpt lat="43.70452" lon="6.00768">
        <ele>358.8</ele>
        <time>2023-06-11T08:34:44Z</time>
      </trkpt>
      <trkpt lat="43.70452" lon="6.00766">
        <ele>358.8</ele>
        <time>2023-06-11T08:34:45Z</time>
      </trkpt>
      <trkpt lat="43.70453" lon="6.00765">
        <ele>358.9</ele>
        <time>2023-06-11T08:34:46Z</time>
      </trkpt>
      <trkpt lat="43.70453" lon="6.00763">
        <ele>358.9</ele>
        <time>2023-06-11T08:34:47Z</time>
      </trkpt>
      <trkpt lat="43.70454" lon="6.0076">
        <ele>359</ele>
        <time>2023-06-11T08:34:48Z</time>
      </trkpt>
      <trkpt lat="43.70454" lon="6.00758">
        <ele>358.9</ele>
        <time>2023-06-11T08:34:49Z</time>
      </trkpt>
      <trkpt lat="43.70454" lon="6.00756">
        <ele>358.9</ele>
        <time>2023-06-11T08:34:50Z</time>
      </trkpt>
      <trkpt lat="43.70454" lon="6.00753">
        <ele>358.9</ele>
        <time>2023-06-11T08:34:51Z</time>
      </trkpt>
      <trkpt lat="43.70455" lon="6.00751">
        <ele>358.9</ele>
        <time>2023-06-11T08:34:52Z</time>
      </trkpt>
      <trkpt lat="43.70455" lon="6.00749">
        <ele>358.9</ele>
        <time>2023-06-11T08:34:53Z</time>
      </trkpt>
      <trkpt lat="43.70455" lon="6.00747">
        <ele>358.9</ele>
        <time>2023-06-11T08:34:54Z</time>
      </trkpt>
      <trkpt lat="43.70455" lon="6.00744">
        <ele>358.9</ele>
        <time>2023-06-11T08:34:55Z</time>
      </trkpt>
      <trkpt lat="43.70455" lon="6.00742">
        <ele>358.8</ele>
        <time>2023-06-11T08:34:56Z</time>
      </trkpt>
      <trkpt lat="43.70455" lon="6.0074">
        <ele>358.8</ele>
        <time>2023-06-11T08:34:57Z</time>
      </trkpt>
      <trkpt lat="43.70455" lon="6.00738">
        <ele>358.8</ele>
        <time>2023-06-11T08:34:58Z</time>
      </trkpt>
      <trkpt lat="43.70455" lon="6.00736">
        <ele>358.8</ele>
        <time>2023-06-11T08:34:59Z</time>
      </trkpt>
      <trkpt lat="43.70456" lon="6.00734">
        <ele>358.7</ele>
        <time>2023-06-11T08:35:00Z</time>
      </trkpt>
      <trkpt lat="43.70456" lon="6.00733">
        <ele>358.7</ele>
        <time>2023-06-11T08:35:01Z</time>
      </trkpt>
      <trkpt lat="43.70455" lon="6.00731">
        <ele>358.7</ele>
        <time>2023-06-11T08:35:02Z</time>
      </trkpt>
      <trkpt lat="43.70455" lon="6.00729">
        <ele>358.6</ele>
        <time>2023-06-11T08:35:03Z</time>
      </trkpt>
      <trkpt lat="43.70455" lon="6.00728">
        <ele>358.7</ele>
        <time>2023-06-11T08:35:04Z</time>
      </trkpt>
      <trkpt lat="43.70455" lon="6.00726">
        <ele>358.7</ele>
        <time>2023-06-11T08:35:05Z</time>
      </trkpt>
      <trkpt lat="43.70454" lon="6.00724">
        <ele>358.7</ele>
        <time>2023-06-11T08:35:06Z</time>
      </trkpt>
      <trkpt lat="43.70454" lon="6.00722">
        <ele>358.7</ele>
        <time>2023-06-11T08:35:07Z</time>
      </trkpt>
      <trkpt lat="43.70453" lon="6.0072">
        <ele>358.6</ele>
        <time>2023-06-11T08:35:08Z</time>
      </trkpt>
      <trkpt lat="43.70453" lon="6.00719">
        <ele>358.6</ele>
        <time>2023-06-11T08:35:09Z</time>
      </trkpt>
      <trkpt lat="43.70453" lon="6.00717">
        <ele>358.6</ele>
        <time>2023-06-11T08:35:10Z</time>
      </trkpt>
      <trkpt lat="43.70453" lon="6.00716">
        <ele>358.6</ele>
        <time>2023-06-11T08:35:11Z</time>
      </trkpt>
      <trkpt lat="43.70454" lon="6.00715">
        <ele>358.6</ele>
        <time>2023-06-11T08:35:12Z</time>
      </trkpt>
      <trkpt lat="43.70454" lon="6.00714">
        <ele>358.6</ele>
        <time>2023-06-11T08:35:13Z</time>
      </trkpt>
      <trkpt lat="43.70454" lon="6.00712">
        <ele>358.6</ele>
        <time>2023-06-11T08:35:14Z</time>
      </trkpt>
      <trkpt lat="43.70454" lon="6.00711">
        <ele>358.6</ele>
        <time>2023-06-11T08:35:15Z</time>
      </trkpt>
      <trkpt lat="43.70455" lon="6.0071">
        <ele>358.6</ele>
        <time>2023-06-11T08:35:16Z</time>
      </trkpt>
      <trkpt lat="43.70455" lon="6.00708">
        <ele>358.6</ele>
        <time>2023-06-11T08:35:17Z</time>
      </trkpt>
      <trkpt lat="43.70456" lon="6.00707">
        <ele>358.6</ele>
        <time>2023-06-11T08:35:18Z</time>
      </trkpt>
      <trkpt lat="43.70456" lon="6.00706">
        <ele>358.6</ele>
        <time>2023-06-11T08:35:19Z</time>
      </trkpt>
      <trkpt lat="43.70457" lon="6.00705">
        <ele>358.6</ele>
        <time>2023-06-11T08:35:20Z</time>
      </trkpt>
      <trkpt lat="43.70457" lon="6.00704">
        <ele>358.7</ele>
        <time>2023-06-11T08:35:21Z</time>
      </trkpt>
      <trkpt lat="43.70457" lon="6.00703">
        <ele>358.8</ele>
        <time>2023-06-11T08:35:22Z</time>
      </trkpt>
      <trkpt lat="43.70458" lon="6.00703">
        <ele>358.8</ele>
        <time>2023-06-11T08:35:23Z</time>
      </trkpt>
      <trkpt lat="43.70459" lon="6.00702">
        <ele>358.8</ele>
        <time>2023-06-11T08:35:24Z</time>
      </trkpt>
      <trkpt lat="43.7046" lon="6.00702">
        <ele>358.9</ele>
        <time>2023-06-11T08:35:25Z</time>
      </trkpt>
      <trkpt lat="43.7046" lon="6.00702">
        <ele>358.9</ele>
        <time>2023-06-11T08:35:26Z</time>
      </trkpt>
      <trkpt lat="43.70461" lon="6.00702">
        <ele>358.9</ele>
        <time>2023-06-11T08:35:27Z</time>
      </trkpt>
      <trkpt lat="43.70462" lon="6.00703">
        <ele>358.9</ele>
        <time>2023-06-11T08:35:28Z</time>
      </trkpt>
      <trkpt lat="43.70463" lon="6.00704">
        <ele>358.8</ele>
        <time>2023-06-11T08:35:29Z</time>
      </trkpt>
      <trkpt lat="43.70464" lon="6.00705">
        <ele>358.9</ele>
        <time>2023-06-11T08:35:30Z</time>
      </trkpt>
      <trkpt lat="43.70464" lon="6.00706">
        <ele>358.9</ele>
        <time>2023-06-11T08:35:31Z</time>
      </trkpt>
      <trkpt lat="43.70465" lon="6.00707">
        <ele>358.9</ele>
        <time>2023-06-11T08:35:32Z</time>
      </trkpt>
      <trkpt lat="43.70465" lon="6.00708">
        <ele>359</ele>
        <time>2023-06-11T08:35:33Z</time>
      </trkpt>
      <trkpt lat="43.70466" lon="6.00709">
        <ele>359</ele>
        <time>2023-06-11T08:35:34Z</time>
      </trkpt>
      <trkpt lat="43.70466" lon="6.0071">
        <ele>359</ele>
        <time>2023-06-11T08:35:35Z</time>
      </trkpt>
      <trkpt lat="43.70466" lon="6.0071">
        <ele>359.1</ele>
        <time>2023-06-11T08:35:36Z</time>
      </trkpt>
      <trkpt lat="43.70467" lon="6.00711">
        <ele>359.1</ele>
        <time>2023-06-11T08:35:37Z</time>
      </trkpt>
      <trkpt lat="43.70467" lon="6.00712">
        <ele>359</ele>
        <time>2023-06-11T08:35:38Z</time>
      </trkpt>
      <trkpt lat="43.70468" lon="6.00713">
        <ele>359</ele>
        <time>2023-06-11T08:35:39Z</time>
      </trkpt>
      <trkpt lat="43.70468" lon="6.00714">
        <ele>359</ele>
        <time>2023-06-11T08:35:40Z</time>
      </trkpt>
      <trkpt lat="43.70469" lon="6.00715">
        <ele>359</ele>
        <time>2023-06-11T08:35:41Z</time>
      </trkpt>
      <trkpt lat="43.70469" lon="6.00716">
        <ele>358.9</ele>
        <time>2023-06-11T08:35:42Z</time>
      </trkpt>
      <trkpt lat="43.7047" lon="6.00717">
        <ele>358.9</ele>
        <time>2023-06-11T08:35:43Z</time>
      </trkpt>
      <trkpt lat="43.70471" lon="6.00718">
        <ele>358.9</ele>
        <time>2023-06-11T08:35:44Z</time>
      </trkpt>
      <trkpt lat="43.70471" lon="6.00719">
        <ele>358.9</ele>
        <time>2023-06-11T08:35:45Z</time>
      </trkpt>
      <trkpt lat="43.70472" lon="6.0072">
        <ele>358.8</ele>
        <time>2023-06-11T08:35:46Z</time>
      </trkpt>
      <trkpt lat="43.70472" lon="6.00721">
        <ele>358.8</ele>
        <time>2023-06-11T08:35:47Z</time>
      </trkpt>
      <trkpt lat="43.70473" lon="6.00722">
        <ele>358.8</ele>
        <time>2023-06-11T08:35:48Z</time>
      </trkpt>
      <trkpt lat="43.70473" lon="6.00723">
        <ele>358.9</ele>
        <time>2023-06-11T08:35:49Z</time>
      </trkpt>
      <trkpt lat="43.70474" lon="6.00724">
        <ele>358.9</ele>
        <time>2023-06-11T08:35:50Z</time>
      </trkpt>
      <trkpt lat="43.70475" lon="6.00724">
        <ele>358.9</ele>
        <time>2023-06-11T08:35:51Z</time>
      </trkpt>
      <trkpt lat="43.70475" lon="6.00725">
        <ele>359</ele>
        <time>2023-06-11T08:35:52Z</time>
      </trkpt>
      <trkpt lat="43.70476" lon="6.00726">
        <ele>359</ele>
        <time>2023-06-11T08:35:53Z</time>
      </trkpt>
      <trkpt lat="43.70476" lon="6.00727">
        <ele>359</ele>
        <time>2023-06-11T08:35:54Z</time>
      </trkpt>
      <trkpt lat="43.70477" lon="6.00728">
        <ele>359.1</ele>
        <time>2023-06-11T08:35:55Z</time>
      </trkpt>
      <trkpt lat="43.70477" lon="6.00729">
        <ele>359.1</ele>
        <time>2023-06-11T08:35:56Z</time>
      </trkpt>
      <trkpt lat="43.70477" lon="6.0073">
        <ele>359.2</ele>
        <time>2023-06-11T08:35:57Z</time>
      </trkpt>
      <trkpt lat="43.70478" lon="6.0073">
        <ele>359.2</ele>
        <time>2023-06-11T08:35:58Z</time>
      </trkpt>
      <trkpt lat="43.70478" lon="6.00731">
        <ele>359.2</ele>
        <time>2023-06-11T08:35:59Z</time>
      </trkpt>
      <trkpt lat="43.70479" lon="6.00731">
        <ele>359.2</ele>
        <time>2023-06-11T08:36:00Z</time>
      </trkpt>
      <trkpt lat="43.7048" lon="6.00732">
        <ele>359.3</ele>
        <time>2023-06-11T08:36:01Z</time>
      </trkpt>
      <trkpt lat="43.7048" lon="6.00732">
        <ele>359.3</ele>
        <time>2023-06-11T08:36:02Z</time>
      </trkpt>
      <trkpt lat="43.70481" lon="6.00733">
        <ele>359.3</ele>
        <time>2023-06-11T08:36:03Z</time>
      </trkpt>
      <trkpt lat="43.70482" lon="6.00733">
        <ele>359.2</ele>
        <time>2023-06-11T08:36:04Z</time>
      </trkpt>
      <trkpt lat="43.70483" lon="6.00734">
        <ele>359.1</ele>
        <time>2023-06-11T08:36:05Z</time>
      </trkpt>
      <trkpt lat="43.70484" lon="6.00734">
        <ele>359</ele>
        <time>2023-06-11T08:36:06Z</time>
      </trkpt>
      <trkpt lat="43.70484" lon="6.00734">
        <ele>359</ele>
        <time>2023-06-11T08:36:07Z</time>
      </trkpt>
      <trkpt lat="43.70485" lon="6.00735">
        <ele>359.1</ele>
        <time>2023-06-11T08:36:08Z</time>
      </trkpt>
      <trkpt lat="43.70487" lon="6.00735">
        <ele>359.2</ele>
        <time>2023-06-11T08:36:09Z</time>
      </trkpt>
      <trkpt lat="43.70488" lon="6.00735">
        <ele>359.3</ele>
        <time>2023-06-11T08:36:10Z</time>
      </trkpt>
      <trkpt lat="43.70489" lon="6.00736">
        <ele>359.3</ele>
        <time>2023-06-11T08:36:11Z</time>
      </trkpt>
      <trkpt lat="43.70491" lon="6.00736">
        <ele>359.3</ele>
        <time>2023-06-11T08:36:12Z</time>
      </trkpt>
      <trkpt lat="43.70492" lon="6.00736">
        <ele>359.2</ele>
        <time>2023-06-11T08:36:13Z</time>
      </trkpt>
      <trkpt lat="43.70494" lon="6.00737">
        <ele>359.2</ele>
        <time>2023-06-11T08:36:14Z</time>
      </trkpt>
      <trkpt lat="43.70497" lon="6.00737">
        <ele>359.1</ele>
        <time>2023-06-11T08:36:15Z</time>
      </trkpt>
      <trkpt lat="43.70498" lon="6.00737">
        <ele>359.1</ele>
        <time>2023-06-11T08:36:16Z</time>
      </trkpt>
      <trkpt lat="43.705" lon="6.00737">
        <ele>359.3</ele>
        <time>2023-06-11T08:36:17Z</time>
      </trkpt>
      <trkpt lat="43.70501" lon="6.00738">
        <ele>359.3</ele>
        <time>2023-06-11T08:36:18Z</time>
      </trkpt>
      <trkpt lat="43.70503" lon="6.00738">
        <ele>359.2</ele>
        <time>2023-06-11T08:36:19Z</time>
      </trkpt>
      <trkpt lat="43.70506" lon="6.00738">
        <ele>359.2</ele>
        <time>2023-06-11T08:36:20Z</time>
      </trkpt>
      <trkpt lat="43.70508" lon="6.00738">
        <ele>359.1</ele>
        <time>2023-06-11T08:36:21Z</time>
      </trkpt>
      <trkpt lat="43.7051" lon="6.00738">
        <ele>359.1</ele>
        <time>2023-06-11T08:36:22Z</time>
      </trkpt>
      <trkpt lat="43.70513" lon="6.00738">
        <ele>359</ele>
        <time>2023-06-11T08:36:23Z</time>
      </trkpt>
      <trkpt lat="43.70515" lon="6.00738">
        <ele>359</ele>
        <time>2023-06-11T08:36:24Z</time>
      </trkpt>
      <trkpt lat="43.70517" lon="6.00738">
        <ele>359.1</ele>
        <time>2023-06-11T08:36:25Z</time>
      </trkpt>
      <trkpt lat="43.70518" lon="6.00738">
        <ele>359</ele>
        <time>2023-06-11T08:36:26Z</time>
      </trkpt>
      <trkpt lat="43.7052" lon="6.00738">
        <ele>359</ele>
        <time>2023-06-11T08:36:27Z</time>
      </trkpt>
      <trkpt lat="43.70522" lon="6.00738">
        <ele>358.9</ele>
        <time>2023-06-11T08:36:28Z</time>
      </trkpt>
      <trkpt lat="43.70524" lon="6.00738">
        <ele>358.9</ele>
        <time>2023-06-11T08:36:29Z</time>
      </trkpt>
      <trkpt lat="43.70525" lon="6.00738">
        <ele>359</ele>
        <time>2023-06-11T08:36:30Z</time>
      </trkpt>
      <trkpt lat="43.70527" lon="6.00738">
        <ele>359</ele>
        <time>2023-06-11T08:36:31Z</time>
      </trkpt>
      <trkpt lat="43.70528" lon="6.00738">
        <ele>359</ele>
        <time>2023-06-11T08:36:32Z</time>
      </trkpt>
      <trkpt lat="43.7053" lon="6.00738">
        <ele>359</ele>
        <time>2023-06-11T08:36:33Z</time>
      </trkpt>
      <trkpt lat="43.70532" lon="6.00737">
        <ele>359</ele>
        <time>2023-06-11T08:36:34Z</time>
      </trkpt>
      <trkpt lat="43.70534" lon="6.00737">
        <ele>358.9</ele>
        <time>2023-06-11T08:36:35Z</time>
      </trkpt>
      <trkpt lat="43.70535" lon="6.00737">
        <ele>358.9</ele>
        <time>2023-06-11T08:36:36Z</time>
      </trkpt>
      <trkpt lat="43.70537" lon="6.00736">
        <ele>358.9</ele>
        <time>2023-06-11T08:36:37Z</time>
      </trkpt>
      <trkpt lat="43.70539" lon="6.00736">
        <ele>358.9</ele>
        <time>2023-06-11T08:36:38Z</time>
      </trkpt>
      <trkpt lat="43.7054" lon="6.00736">
        <ele>359</ele>
        <time>2023-06-11T08:36:39Z</time>
      </trkpt>
      <trkpt lat="43.70542" lon="6.00736">
        <ele>359</ele>
        <time>2023-06-11T08:36:40Z</time>
      </trkpt>
      <trkpt lat="43.70543" lon="6.00736">
        <ele>359.1</ele>
        <time>2023-06-11T08:36:41Z</time>
      </trkpt>
      <trkpt lat="43.70545" lon="6.00735">
        <ele>359.2</ele>
        <time>2023-06-11T08:36:42Z</time>
      </trkpt>
      <trkpt lat="43.70546" lon="6.00735">
        <ele>359.2</ele>
        <time>2023-06-11T08:36:43Z</time>
      </trkpt>
      <trkpt lat="43.70548" lon="6.00735">
        <ele>359.2</ele>
        <time>2023-06-11T08:36:44Z</time>
      </trkpt>
      <trkpt lat="43.70549" lon="6.00735">
        <ele>359.1</ele>
        <time>2023-06-11T08:36:45Z</time>
      </trkpt>
      <trkpt lat="43.70551" lon="6.00735">
        <ele>359.2</ele>
        <time>2023-06-11T08:36:46Z</time>
      </trkpt>
      <trkpt lat="43.70552" lon="6.00734">
        <ele>359.2</ele>
        <time>2023-06-11T08:36:47Z</time>
      </trkpt>
      <trkpt lat="43.70553" lon="6.00734">
        <ele>359.3</ele>
        <time>2023-06-11T08:36:48Z</time>
      </trkpt>
      <trkpt lat="43.70555" lon="6.00734">
        <ele>359.2</ele>
        <time>2023-06-11T08:36:49Z</time>
      </trkpt>
      <trkpt lat="43.70556" lon="6.00733">
        <ele>359.2</ele>
        <time>2023-06-11T08:36:50Z</time>
      </trkpt>
      <trkpt lat="43.70557" lon="6.00733">
        <ele>359.2</ele>
        <time>2023-06-11T08:36:51Z</time>
      </trkpt>
      <trkpt lat="43.70559" lon="6.00732">
        <ele>359.2</ele>
        <time>2023-06-11T08:36:52Z</time>
      </trkpt>
      <trkpt lat="43.7056" lon="6.00732">
        <ele>359.2</ele>
        <time>2023-06-11T08:36:53Z</time>
      </trkpt>
      <trkpt lat="43.70561" lon="6.00732">
        <ele>359.2</ele>
        <time>2023-06-11T08:36:54Z</time>
      </trkpt>
      <trkpt lat="43.70563" lon="6.00732">
        <ele>359.2</ele>
        <time>2023-06-11T08:36:55Z</time>
      </trkpt>
      <trkpt lat="43.70564" lon="6.00731">
        <ele>359.2</ele>
        <time>2023-06-11T08:36:56Z</time>
      </trkpt>
      <trkpt lat="43.70565" lon="6.00731">
        <ele>359.3</ele>
        <time>2023-06-11T08:36:57Z</time>
      </trkpt>
      <trkpt lat="43.70567" lon="6.0073">
        <ele>359.3</ele>
        <time>2023-06-11T08:36:58Z</time>
      </trkpt>
      <trkpt lat="43.70568" lon="6.0073">
        <ele>359.3</ele>
        <time>2023-06-11T08:36:59Z</time>
      </trkpt>
      <trkpt lat="43.70569" lon="6.00729">
        <ele>359.3</ele>
        <time>2023-06-11T08:37:00Z</time>
      </trkpt>
      <trkpt lat="43.7057" lon="6.00729">
        <ele>359.3</ele>
        <time>2023-06-11T08:37:01Z</time>
      </trkpt>
      <trkpt lat="43.70572" lon="6.00729">
        <ele>359.2</ele>
        <time>2023-06-11T08:37:02Z</time>
      </trkpt>
      <trkpt lat="43.70573" lon="6.00728">
        <ele>359.2</ele>
        <time>2023-06-11T08:37:03Z</time>
      </trkpt>
      <trkpt lat="43.70574" lon="6.00728">
        <ele>359.2</ele>
        <time>2023-06-11T08:37:04Z</time>
      </trkpt>
      <trkpt lat="43.70576" lon="6.00728">
        <ele>359.3</ele>
        <time>2023-06-11T08:37:05Z</time>
      </trkpt>
      <trkpt lat="43.70577" lon="6.00728">
        <ele>359.2</ele>
        <time>2023-06-11T08:37:06Z</time>
      </trkpt>
      <trkpt lat="43.70579" lon="6.00728">
        <ele>359.1</ele>
        <time>2023-06-11T08:37:07Z</time>
      </trkpt>
      <trkpt lat="43.70581" lon="6.0073">
        <ele>359.1</ele>
        <time>2023-06-11T08:37:08Z</time>
      </trkpt>
      <trkpt lat="43.70584" lon="6.00732">
        <ele>359.1</ele>
        <time>2023-06-11T08:37:09Z</time>
      </trkpt>
      <trkpt lat="43.70586" lon="6.00733">
        <ele>359</ele>
        <time>2023-06-11T08:37:10Z</time>
      </trkpt>
      <trkpt lat="43.70588" lon="6.00735">
        <ele>359.1</ele>
        <time>2023-06-11T08:37:11Z</time>
      </trkpt>
      <trkpt lat="43.7059" lon="6.00736">
        <ele>359.1</ele>
        <time>2023-06-11T08:37:12Z</time>
      </trkpt>
      <trkpt lat="43.70592" lon="6.00737">
        <ele>359.1</ele>
        <time>2023-06-11T08:37:13Z</time>
      </trkpt>
      <trkpt lat="43.70594" lon="6.00738">
        <ele>359.2</ele>
        <time>2023-06-11T08:37:14Z</time>
      </trkpt>
      <trkpt lat="43.70596" lon="6.00738">
        <ele>359.1</ele>
        <time>2023-06-11T08:37:15Z</time>
      </trkpt>
      <trkpt lat="43.70598" lon="6.00739">
        <ele>359.1</ele>
        <time>2023-06-11T08:37:16Z</time>
      </trkpt>
      <trkpt lat="43.706" lon="6.0074">
        <ele>359.1</ele>
        <time>2023-06-11T08:37:17Z</time>
      </trkpt>
      <trkpt lat="43.70601" lon="6.0074">
        <ele>359.1</ele>
        <time>2023-06-11T08:37:18Z</time>
      </trkpt>
      <trkpt lat="43.70603" lon="6.00741">
        <ele>359.1</ele>
        <time>2023-06-11T08:37:19Z</time>
      </trkpt>
      <trkpt lat="43.70605" lon="6.00741">
        <ele>359.1</ele>
        <time>2023-06-11T08:37:20Z</time>
      </trkpt>
      <trkpt lat="43.70606" lon="6.00741">
        <ele>359.2</ele>
        <time>2023-06-11T08:37:21Z</time>
      </trkpt>
      <trkpt lat="43.70607" lon="6.0074">
        <ele>359.3</ele>
        <time>2023-06-11T08:37:22Z</time>
      </trkpt>
      <trkpt lat="43.70609" lon="6.00741">
        <ele>359.3</ele>
        <time>2023-06-11T08:37:23Z</time>
      </trkpt>
      <trkpt lat="43.7061" lon="6.00741">
        <ele>359.2</ele>
        <time>2023-06-11T08:37:24Z</time>
      </trkpt>
      <trkpt lat="43.70612" lon="6.00741">
        <ele>359.1</ele>
        <time>2023-06-11T08:37:25Z</time>
      </trkpt>
      <trkpt lat="43.70613" lon="6.00741">
        <ele>359.1</ele>
        <time>2023-06-11T08:37:26Z</time>
      </trkpt>
      <trkpt lat="43.70615" lon="6.00742">
        <ele>359.1</ele>
        <time>2023-06-11T08:37:27Z</time>
      </trkpt>
      <trkpt lat="43.70616" lon="6.00743">
        <ele>359.2</ele>
        <time>2023-06-11T08:37:28Z</time>
      </trkpt>
      <trkpt lat="43.70618" lon="6.00743">
        <ele>359.2</ele>
        <time>2023-06-11T08:37:29Z</time>
      </trkpt>
      <trkpt lat="43.7062" lon="6.00744">
        <ele>359.2</ele>
        <time>2023-06-11T08:37:30Z</time>
      </trkpt>
      <trkpt lat="43.70621" lon="6.00745">
        <ele>359.2</ele>
        <time>2023-06-11T08:37:31Z</time>
      </trkpt>
      <trkpt lat="43.70623" lon="6.00746">
        <ele>359.2</ele>
        <time>2023-06-11T08:37:32Z</time>
      </trkpt>
      <trkpt lat="43.70625" lon="6.00746">
        <ele>359.1</ele>
        <time>2023-06-11T08:37:33Z</time>
      </trkpt>
      <trkpt lat="43.70626" lon="6.00747">
        <ele>359</ele>
        <time>2023-06-11T08:37:34Z</time>
      </trkpt>
      <trkpt lat="43.70628" lon="6.00747">
        <ele>359</ele>
        <time>2023-06-11T08:37:35Z</time>
      </trkpt>
      <trkpt lat="43.7063" lon="6.00747">
        <ele>359</ele>
        <time>2023-06-11T08:37:36Z</time>
      </trkpt>
      <trkpt lat="43.70632" lon="6.00748">
        <ele>358.9</ele>
        <time>2023-06-11T08:37:37Z</time>
      </trkpt>
      <trkpt lat="43.70633" lon="6.00748">
        <ele>358.9</ele>
        <time>2023-06-11T08:37:38Z</time>
      </trkpt>
      <trkpt lat="43.70635" lon="6.00749">
        <ele>358.9</ele>
        <time>2023-06-11T08:37:39Z</time>
      </trkpt>
      <trkpt lat="43.70636" lon="6.00749">
        <ele>358.9</ele>
        <time>2023-06-11T08:37:40Z</time>
      </trkpt>
      <trkpt lat="43.70638" lon="6.0075">
        <ele>358.9</ele>
        <time>2023-06-11T08:37:41Z</time>
      </trkpt>
      <trkpt lat="43.7064" lon="6.0075">
        <ele>358.8</ele>
        <time>2023-06-11T08:37:42Z</time>
      </trkpt>
      <trkpt lat="43.70641" lon="6.0075">
        <ele>358.8</ele>
        <time>2023-06-11T08:37:43Z</time>
      </trkpt>
      <trkpt lat="43.70643" lon="6.00751">
        <ele>358.7</ele>
        <time>2023-06-11T08:37:44Z</time>
      </trkpt>
      <trkpt lat="43.70644" lon="6.00751">
        <ele>358.7</ele>
        <time>2023-06-11T08:37:45Z</time>
      </trkpt>
      <trkpt lat="43.70646" lon="6.00751">
        <ele>358.7</ele>
        <time>2023-06-11T08:37:46Z</time>
      </trkpt>
      <trkpt lat="43.70648" lon="6.00752">
        <ele>358.7</ele>
        <time>2023-06-11T08:37:47Z</time>
      </trkpt>
      <trkpt lat="43.70649" lon="6.00752">
        <ele>358.7</ele>
        <time>2023-06-11T08:37:48Z</time>
      </trkpt>
      <trkpt lat="43.70651" lon="6.00752">
        <ele>358.7</ele>
        <time>2023-06-11T08:37:49Z</time>
      </trkpt>
      <trkpt lat="43.70653" lon="6.00752">
        <ele>358.7</ele>
        <time>2023-06-11T08:37:50Z</time>
      </trkpt>
      <trkpt lat="43.70654" lon="6.00753">
        <ele>358.7</ele>
        <time>2023-06-11T08:37:51Z</time>
      </trkpt>
      <trkpt lat="43.70656" lon="6.00753">
        <ele>358.8</ele>
        <time>2023-06-11T08:37:52Z</time>
      </trkpt>
      <trkpt lat="43.70657" lon="6.00753">
        <ele>358.8</ele>
        <time>2023-06-11T08:37:53Z</time>
      </trkpt>
      <trkpt lat="43.70659" lon="6.00753">
        <ele>358.8</ele>
        <time>2023-06-11T08:37:54Z</time>
      </trkpt>
      <trkpt lat="43.7066" lon="6.00754">
        <ele>358.8</ele>
        <time>2023-06-11T08:37:55Z</time>
      </trkpt>
      <trkpt lat="43.70662" lon="6.00754">
        <ele>358.8</ele>
        <time>2023-06-11T08:37:56Z</time>
      </trkpt>
      <trkpt lat="43.70663" lon="6.00754">
        <ele>358.8</ele>
        <time>2023-06-11T08:37:57Z</time>
      </trkpt>
      <trkpt lat="43.70665" lon="6.00754">
        <ele>358.8</ele>
        <time>2023-06-11T08:37:58Z</time>
      </trkpt>
      <trkpt lat="43.70667" lon="6.00755">
        <ele>358.8</ele>
        <time>2023-06-11T08:37:59Z</time>
      </trkpt>
      <trkpt lat="43.70668" lon="6.00755">
        <ele>358.8</ele>
        <time>2023-06-11T08:38:00Z</time>
      </trkpt>
      <trkpt lat="43.7067" lon="6.00755">
        <ele>358.8</ele>
        <time>2023-06-11T08:38:01Z</time>
      </trkpt>
      <trkpt lat="43.70671" lon="6.00755">
        <ele>358.8</ele>
        <time>2023-06-11T08:38:02Z</time>
      </trkpt>
      <trkpt lat="43.70673" lon="6.00756">
        <ele>358.8</ele>
        <time>2023-06-11T08:38:03Z</time>
      </trkpt>
      <trkpt lat="43.70674" lon="6.00756">
        <ele>358.8</ele>
        <time>2023-06-11T08:38:04Z</time>
      </trkpt>
      <trkpt lat="43.70676" lon="6.00756">
        <ele>358.9</ele>
        <time>2023-06-11T08:38:05Z</time>
      </trkpt>
      <trkpt lat="43.70677" lon="6.00756">
        <ele>359</ele>
        <time>2023-06-11T08:38:06Z</time>
      </trkpt>
      <trkpt lat="43.70679" lon="6.00757">
        <ele>359.1</ele>
        <time>2023-06-11T08:38:07Z</time>
      </trkpt>
      <trkpt lat="43.7068" lon="6.00757">
        <ele>359.2</ele>
        <time>2023-06-11T08:38:08Z</time>
      </trkpt>
      <trkpt lat="43.70682" lon="6.00757">
        <ele>359.2</ele>
        <time>2023-06-11T08:38:09Z</time>
      </trkpt>
      <trkpt lat="43.70683" lon="6.00757">
        <ele>359.2</ele>
        <time>2023-06-11T08:38:10Z</time>
      </trkpt>
      <trkpt lat="43.70685" lon="6.00757">
        <ele>359.3</ele>
        <time>2023-06-11T08:38:11Z</time>
      </trkpt>
      <trkpt lat="43.70687" lon="6.00757">
        <ele>359.3</ele>
        <time>2023-06-11T08:38:12Z</time>
      </trkpt>
      <trkpt lat="43.70688" lon="6.00757">
        <ele>359.3</ele>
        <time>2023-06-11T08:38:13Z</time>
      </trkpt>
      <trkpt lat="43.7069" lon="6.00757">
        <ele>359.3</ele>
        <time>2023-06-11T08:38:14Z</time>
      </trkpt>
      <trkpt lat="43.70691" lon="6.00758">
        <ele>359.3</ele>
        <time>2023-06-11T08:38:15Z</time>
      </trkpt>
      <trkpt lat="43.70693" lon="6.00758">
        <ele>359.3</ele>
        <time>2023-06-11T08:38:16Z</time>
      </trkpt>
      <trkpt lat="43.70694" lon="6.00758">
        <ele>359.3</ele>
        <time>2023-06-11T08:38:17Z</time>
      </trkpt>
      <trkpt lat="43.70696" lon="6.00758">
        <ele>359.2</ele>
        <time>2023-06-11T08:38:18Z</time>
      </trkpt>
      <trkpt lat="43.70697" lon="6.00758">
        <ele>359.2</ele>
        <time>2023-06-11T08:38:19Z</time>
      </trkpt>
      <trkpt lat="43.70699" lon="6.00758">
        <ele>359.2</ele>
        <time>2023-06-11T08:38:20Z</time>
      </trkpt>
      <trkpt lat="43.707" lon="6.00758">
        <ele>359.1</ele>
        <time>2023-06-11T08:38:21Z</time>
      </trkpt>
      <trkpt lat="43.70702" lon="6.00758">
        <ele>359.1</ele>
        <time>2023-06-11T08:38:22Z</time>
      </trkpt>
      <trkpt lat="43.70704" lon="6.00758">
        <ele>359</ele>
        <time>2023-06-11T08:38:23Z</time>
      </trkpt>
      <trkpt lat="43.70705" lon="6.00758">
        <ele>359</ele>
        <time>2023-06-11T08:38:24Z</time>
      </trkpt>
      <trkpt lat="43.70707" lon="6.00758">
        <ele>359</ele>
        <time>2023-06-11T08:38:25Z</time>
      </trkpt>
      <trkpt lat="43.70708" lon="6.00758">
        <ele>359</ele>
        <time>2023-06-11T08:38:26Z</time>
      </trkpt>
      <trkpt lat="43.7071" lon="6.00758">
        <ele>359</ele>
        <time>2023-06-11T08:38:27Z</time>
      </trkpt>
      <trkpt lat="43.70711" lon="6.00758">
        <ele>359</ele>
        <time>2023-06-11T08:38:28Z</time>
      </trkpt>
      <trkpt lat="43.70713" lon="6.00758">
        <ele>359</ele>
        <time>2023-06-11T08:38:29Z</time>
      </trkpt>
      <trkpt lat="43.70714" lon="6.00758">
        <ele>359.1</ele>
        <time>2023-06-11T08:38:30Z</time>
      </trkpt>
      <trkpt lat="43.70716" lon="6.00758">
        <ele>359.1</ele>
        <time>2023-06-11T08:38:31Z</time>
      </trkpt>
      <trkpt lat="43.70717" lon="6.00758">
        <ele>359.1</ele>
        <time>2023-06-11T08:38:32Z</time>
      </trkpt>
      <trkpt lat="43.70719" lon="6.00758">
        <ele>359</ele>
        <time>2023-06-11T08:38:33Z</time>
      </trkpt>
      <trkpt lat="43.7072" lon="6.00758">
        <ele>359</ele>
        <time>2023-06-11T08:38:34Z</time>
      </trkpt>
      <trkpt lat="43.70722" lon="6.00758">
        <ele>359</ele>
        <time>2023-06-11T08:38:35Z</time>
      </trkpt>
      <trkpt lat="43.70723" lon="6.00758">
        <ele>359.1</ele>
        <time>2023-06-11T08:38:36Z</time>
      </trkpt>
      <trkpt lat="43.70725" lon="6.00757">
        <ele>359.1</ele>
        <time>2023-06-11T08:38:37Z</time>
      </trkpt>
      <trkpt lat="43.70726" lon="6.00757">
        <ele>359.1</ele>
        <time>2023-06-11T08:38:38Z</time>
      </trkpt>
      <trkpt lat="43.70728" lon="6.00757">
        <ele>359.1</ele>
        <time>2023-06-11T08:38:39Z</time>
      </trkpt>
      <trkpt lat="43.70729" lon="6.00757">
        <ele>359.1</ele>
        <time>2023-06-11T08:38:40Z</time>
      </trkpt>
      <trkpt lat="43.70731" lon="6.00757">
        <ele>359.1</ele>
        <time>2023-06-11T08:38:41Z</time>
      </trkpt>
      <trkpt lat="43.70732" lon="6.00757">
        <ele>359.1</ele>
        <time>2023-06-11T08:38:42Z</time>
      </trkpt>
      <trkpt lat="43.70734" lon="6.00757">
        <ele>359.1</ele>
        <time>2023-06-11T08:38:43Z</time>
      </trkpt>
      <trkpt lat="43.70735" lon="6.00756">
        <ele>359</ele>
        <time>2023-06-11T08:38:44Z</time>
      </trkpt>
      <trkpt lat="43.70737" lon="6.00756">
        <ele>359</ele>
        <time>2023-06-11T08:38:45Z</time>
      </trkpt>
      <trkpt lat="43.70738" lon="6.00756">
        <ele>359</ele>
        <time>2023-06-11T08:38:46Z</time>
      </trkpt>
      <trkpt lat="43.7074" lon="6.00756">
        <ele>359</ele>
        <time>2023-06-11T08:38:47Z</time>
      </trkpt>
      <trkpt lat="43.70741" lon="6.00756">
        <ele>359</ele>
        <time>2023-06-11T08:38:48Z</time>
      </trkpt>
      <trkpt lat="43.70742" lon="6.00755">
        <ele>359</ele>
        <time>2023-06-11T08:38:49Z</time>
      </trkpt>
      <trkpt lat="43.70744" lon="6.00755">
        <ele>359</ele>
        <time>2023-06-11T08:38:50Z</time>
      </trkpt>
      <trkpt lat="43.70745" lon="6.00755">
        <ele>359</ele>
        <time>2023-06-11T08:38:51Z</time>
      </trkpt>
      <trkpt lat="43.70747" lon="6.00755">
        <ele>358.9</ele>
        <time>2023-06-11T08:38:52Z</time>
      </trkpt>
      <trkpt lat="43.70748" lon="6.00754">
        <ele>358.9</ele>
        <time>2023-06-11T08:38:53Z</time>
      </trkpt>
      <trkpt lat="43.7075" lon="6.00754">
        <ele>358.9</ele>
        <time>2023-06-11T08:38:54Z</time>
      </trkpt>
      <trkpt lat="43.70751" lon="6.00754">
        <ele>358.9</ele>
        <time>2023-06-11T08:38:55Z</time>
      </trkpt>
      <trkpt lat="43.70753" lon="6.00754">
        <ele>358.9</ele>
        <time>2023-06-11T08:38:56Z</time>
      </trkpt>
      <trkpt lat="43.70754" lon="6.00753">
        <ele>358.9</ele>
        <time>2023-06-11T08:38:57Z</time>
      </trkpt>
      <trkpt lat="43.70756" lon="6.00753">
        <ele>358.9</ele>
        <time>2023-06-11T08:38:58Z</time>
      </trkpt>
      <trkpt lat="43.70757" lon="6.00753">
        <ele>359</ele>
        <time>2023-06-11T08:38:59Z</time>
      </trkpt>
      <trkpt lat="43.70759" lon="6.00753">
        <ele>358.9</ele>
        <time>2023-06-11T08:39:00Z</time>
      </trkpt>
      <trkpt lat="43.7076" lon="6.00752">
        <ele>358.9</ele>
        <time>2023-06-11T08:39:01Z</time>
      </trkpt>
      <trkpt lat="43.70762" lon="6.00752">
        <ele>358.9</ele>
        <time>2023-06-11T08:39:02Z</time>
      </trkpt>
      <trkpt lat="43.70763" lon="6.00752">
        <ele>358.9</ele>
        <time>2023-06-11T08:39:03Z</time>
      </trkpt>
      <trkpt lat="43.70765" lon="6.00752">
        <ele>358.9</ele>
        <time>2023-06-11T08:39:04Z</time>
      </trkpt>
      <trkpt lat="43.70766" lon="6.00751">
        <ele>358.9</ele>
        <time>2023-06-11T08:39:05Z</time>
      </trkpt>
      <trkpt lat="43.70768" lon="6.00751">
        <ele>358.9</ele>
        <time>2023-06-11T08:39:06Z</time>
      </trkpt>
      <trkpt lat="43.70769" lon="6.00751">
        <ele>358.9</ele>
        <time>2023-06-11T08:39:07Z</time>
      </trkpt>
      <trkpt lat="43.70771" lon="6.00751">
        <ele>358.9</ele>
        <time>2023-06-11T08:39:08Z</time>
      </trkpt>
      <trkpt lat="43.70773" lon="6.0075">
        <ele>358.9</ele>
        <time>2023-06-11T08:39:09Z</time>
      </trkpt>
      <trkpt lat="43.70774" lon="6.0075">
        <ele>358.9</ele>
        <time>2023-06-11T08:39:10Z</time>
      </trkpt>
      <trkpt lat="43.70776" lon="6.0075">
        <ele>358.9</ele>
        <time>2023-06-11T08:39:11Z</time>
      </trkpt>
      <trkpt lat="43.70777" lon="6.0075">
        <ele>358.9</ele>
        <time>2023-06-11T08:39:12Z</time>
      </trkpt>
      <trkpt lat="43.70779" lon="6.00749">
        <ele>358.9</ele>
        <time>2023-06-11T08:39:13Z</time>
      </trkpt>
      <trkpt lat="43.7078" lon="6.00749">
        <ele>359</ele>
        <time>2023-06-11T08:39:14Z</time>
      </trkpt>
      <trkpt lat="43.70782" lon="6.00749">
        <ele>359</ele>
        <time>2023-06-11T08:39:15Z</time>
      </trkpt>
      <trkpt lat="43.70783" lon="6.00749">
        <ele>359</ele>
        <time>2023-06-11T08:39:16Z</time>
      </trkpt>
      <trkpt lat="43.70785" lon="6.00748">
        <ele>358.9</ele>
        <time>2023-06-11T08:39:17Z</time>
      </trkpt>
      <trkpt lat="43.70786" lon="6.00748">
        <ele>358.9</ele>
        <time>2023-06-11T08:39:18Z</time>
      </trkpt>
      <trkpt lat="43.70788" lon="6.00748">
        <ele>359</ele>
        <time>2023-06-11T08:39:19Z</time>
      </trkpt>
      <trkpt lat="43.70789" lon="6.00747">
        <ele>358.9</ele>
        <time>2023-06-11T08:39:20Z</time>
      </trkpt>
      <trkpt lat="43.70791" lon="6.00747">
        <ele>358.9</ele>
        <time>2023-06-11T08:39:21Z</time>
      </trkpt>
      <trkpt lat="43.70792" lon="6.00747">
        <ele>358.9</ele>
        <time>2023-06-11T08:39:22Z</time>
      </trkpt>
      <trkpt lat="43.70794" lon="6.00746">
        <ele>358.9</ele>
        <time>2023-06-11T08:39:23Z</time>
      </trkpt>
      <trkpt lat="43.70795" lon="6.00746">
        <ele>358.9</ele>
        <time>2023-06-11T08:39:24Z</time>
      </trkpt>
      <trkpt lat="43.70797" lon="6.00746">
        <ele>359</ele>
        <time>2023-06-11T08:39:25Z</time>
      </trkpt>
      <trkpt lat="43.70798" lon="6.00745">
        <ele>358.9</ele>
        <time>2023-06-11T08:39:26Z</time>
      </trkpt>
      <trkpt lat="43.70799" lon="6.00745">
        <ele>358.9</ele>
        <time>2023-06-11T08:39:27Z</time>
      </trkpt>
      <trkpt lat="43.70801" lon="6.00744">
        <ele>358.9</ele>
        <time>2023-06-11T08:39:28Z</time>
      </trkpt>
      <trkpt lat="43.70802" lon="6.00743">
        <ele>358.9</ele>
        <time>2023-06-11T08:39:29Z</time>
      </trkpt>
      <trkpt lat="43.70803" lon="6.00742">
        <ele>358.9</ele>
        <time>2023-06-11T08:39:30Z</time>
      </trkpt>
      <trkpt lat="43.70805" lon="6.00741">
        <ele>358.9</ele>
        <time>2023-06-11T08:39:31Z</time>
      </trkpt>
      <trkpt lat="43.70806" lon="6.0074">
        <ele>358.9</ele>
        <time>2023-06-11T08:39:32Z</time>
      </trkpt>
      <trkpt lat="43.70807" lon="6.00739">
        <ele>358.8</ele>
        <time>2023-06-11T08:39:33Z</time>
      </trkpt>
      <trkpt lat="43.70808" lon="6.00738">
        <ele>358.9</ele>
        <time>2023-06-11T08:39:34Z</time>
      </trkpt>
      <trkpt lat="43.7081" lon="6.00737">
        <ele>358.9</ele>
        <time>2023-06-11T08:39:35Z</time>
      </trkpt>
      <trkpt lat="43.70811" lon="6.00736">
        <ele>358.9</ele>
        <time>2023-06-11T08:39:36Z</time>
      </trkpt>
      <trkpt lat="43.70812" lon="6.00735">
        <ele>358.9</ele>
        <time>2023-06-11T08:39:37Z</time>
      </trkpt>
      <trkpt lat="43.70813" lon="6.00734">
        <ele>358.9</ele>
        <time>2023-06-11T08:39:38Z</time>
      </trkpt>
      <trkpt lat="43.70815" lon="6.00733">
        <ele>359</ele>
        <time>2023-06-11T08:39:39Z</time>
      </trkpt>
      <trkpt lat="43.70816" lon="6.00732">
        <ele>359</ele>
        <time>2023-06-11T08:39:40Z</time>
      </trkpt>
      <trkpt lat="43.70817" lon="6.00731">
        <ele>359</ele>
        <time>2023-06-11T08:39:41Z</time>
      </trkpt>
      <trkpt lat="43.70818" lon="6.0073">
        <ele>359</ele>
        <time>2023-06-11T08:39:42Z</time>
      </trkpt>
      <trkpt lat="43.70819" lon="6.00728">
        <ele>359</ele>
        <time>2023-06-11T08:39:43Z</time>
      </trkpt>
      <trkpt lat="43.7082" lon="6.00727">
        <ele>359</ele>
        <time>2023-06-11T08:39:44Z</time>
      </trkpt>
      <trkpt lat="43.70821" lon="6.00726">
        <ele>359.1</ele>
        <time>2023-06-11T08:39:45Z</time>
      </trkpt>
      <trkpt lat="43.70822" lon="6.00724">
        <ele>359.1</ele>
        <time>2023-06-11T08:39:46Z</time>
      </trkpt>
      <trkpt lat="43.70823" lon="6.00723">
        <ele>359.2</ele>
        <time>2023-06-11T08:39:47Z</time>
      </trkpt>
      <trkpt lat="43.70824" lon="6.00721">
        <ele>359.3</ele>
        <time>2023-06-11T08:39:48Z</time>
      </trkpt>
      <trkpt lat="43.70826" lon="6.0072">
        <ele>359.2</ele>
        <time>2023-06-11T08:39:49Z</time>
      </trkpt>
      <trkpt lat="43.70827" lon="6.00719">
        <ele>359.2</ele>
        <time>2023-06-11T08:39:50Z</time>
      </trkpt>
      <trkpt lat="43.70828" lon="6.00717">
        <ele>359.2</ele>
        <time>2023-06-11T08:39:51Z</time>
      </trkpt>
      <trkpt lat="43.70829" lon="6.00716">
        <ele>359.2</ele>
        <time>2023-06-11T08:39:52Z</time>
      </trkpt>
      <trkpt lat="43.7083" lon="6.00715">
        <ele>359.1</ele>
        <time>2023-06-11T08:39:53Z</time>
      </trkpt>
      <trkpt lat="43.70831" lon="6.00713">
        <ele>359</ele>
        <time>2023-06-11T08:39:54Z</time>
      </trkpt>
      <trkpt lat="43.70832" lon="6.00712">
        <ele>359</ele>
        <time>2023-06-11T08:39:55Z</time>
      </trkpt>
      <trkpt lat="43.70833" lon="6.0071">
        <ele>359</ele>
        <time>2023-06-11T08:39:56Z</time>
      </trkpt>
      <trkpt lat="43.70834" lon="6.00709">
        <ele>359</ele>
        <time>2023-06-11T08:39:57Z</time>
      </trkpt>
      <trkpt lat="43.70835" lon="6.00707">
        <ele>359.1</ele>
        <time>2023-06-11T08:39:58Z</time>
      </trkpt>
      <trkpt lat="43.70836" lon="6.00706">
        <ele>359.1</ele>
        <time>2023-06-11T08:39:59Z</time>
      </trkpt>
      <trkpt lat="43.70837" lon="6.00704">
        <ele>359.1</ele>
        <time>2023-06-11T08:40:00Z</time>
      </trkpt>
      <trkpt lat="43.70838" lon="6.00703">
        <ele>359.2</ele>
        <time>2023-06-11T08:40:01Z</time>
      </trkpt>
      <trkpt lat="43.70838" lon="6.00701">
        <ele>359.2</ele>
        <time>2023-06-11T08:40:02Z</time>
      </trkpt>
      <trkpt lat="43.70839" lon="6.007">
        <ele>359.2</ele>
        <time>2023-06-11T08:40:03Z</time>
      </trkpt>
      <trkpt lat="43.7084" lon="6.00698">
        <ele>359.2</ele>
        <time>2023-06-11T08:40:04Z</time>
      </trkpt>
      <trkpt lat="43.70841" lon="6.00697">
        <ele>359.2</ele>
        <time>2023-06-11T08:40:05Z</time>
      </trkpt>
      <trkpt lat="43.70842" lon="6.00695">
        <ele>359.2</ele>
        <time>2023-06-11T08:40:06Z</time>
      </trkpt>
      <trkpt lat="43.70843" lon="6.00694">
        <ele>359.2</ele>
        <time>2023-06-11T08:40:07Z</time>
      </trkpt>
      <trkpt lat="43.70844" lon="6.00692">
        <ele>359.2</ele>
        <time>2023-06-11T08:40:08Z</time>
      </trkpt>
      <trkpt lat="43.70844" lon="6.0069">
        <ele>359.2</ele>
        <time>2023-06-11T08:40:09Z</time>
      </trkpt>
      <trkpt lat="43.70845" lon="6.00689">
        <ele>359.1</ele>
        <time>2023-06-11T08:40:10Z</time>
      </trkpt>
      <trkpt lat="43.70846" lon="6.00687">
        <ele>359.1</ele>
        <time>2023-06-11T08:40:11Z</time>
      </trkpt>
      <trkpt lat="43.70847" lon="6.00685">
        <ele>359.1</ele>
        <time>2023-06-11T08:40:12Z</time>
      </trkpt>
      <trkpt lat="43.70847" lon="6.00684">
        <ele>359</ele>
        <time>2023-06-11T08:40:13Z</time>
      </trkpt>
      <trkpt lat="43.70848" lon="6.00682">
        <ele>359.1</ele>
        <time>2023-06-11T08:40:14Z</time>
      </trkpt>
      <trkpt lat="43.70849" lon="6.00681">
        <ele>359.1</ele>
        <time>2023-06-11T08:40:15Z</time>
      </trkpt>
      <trkpt lat="43.70849" lon="6.00679">
        <ele>359.1</ele>
        <time>2023-06-11T08:40:16Z</time>
      </trkpt>
      <trkpt lat="43.7085" lon="6.00677">
        <ele>359.1</ele>
        <time>2023-06-11T08:40:17Z</time>
      </trkpt>
      <trkpt lat="43.70851" lon="6.00675">
        <ele>359.1</ele>
        <time>2023-06-11T08:40:18Z</time>
      </trkpt>
      <trkpt lat="43.70851" lon="6.00674">
        <ele>359</ele>
        <time>2023-06-11T08:40:19Z</time>
      </trkpt>
      <trkpt lat="43.70852" lon="6.00672">
        <ele>359.1</ele>
        <time>2023-06-11T08:40:20Z</time>
      </trkpt>
      <trkpt lat="43.70852" lon="6.0067">
        <ele>359.1</ele>
        <time>2023-06-11T08:40:21Z</time>
      </trkpt>
      <trkpt lat="43.70853" lon="6.00668">
        <ele>359.1</ele>
        <time>2023-06-11T08:40:22Z</time>
      </trkpt>
      <trkpt lat="43.70853" lon="6.00666">
        <ele>359</ele>
        <time>2023-06-11T08:40:23Z</time>
      </trkpt>
      <trkpt lat="43.70854" lon="6.00664">
        <ele>359</ele>
        <time>2023-06-11T08:40:24Z</time>
      </trkpt>
      <trkpt lat="43.70854" lon="6.00662">
        <ele>359</ele>
        <time>2023-06-11T08:40:25Z</time>
      </trkpt>
      <trkpt lat="43.70855" lon="6.0066">
        <ele>359</ele>
        <time>2023-06-11T08:40:26Z</time>
      </trkpt>
      <trkpt lat="43.70855" lon="6.00658">
        <ele>359.1</ele>
        <time>2023-06-11T08:40:27Z</time>
      </trkpt>
      <trkpt lat="43.70856" lon="6.00656">
        <ele>359.2</ele>
        <time>2023-06-11T08:40:28Z</time>
      </trkpt>
      <trkpt lat="43.70856" lon="6.00654">
        <ele>359.1</ele>
        <time>2023-06-11T08:40:29Z</time>
      </trkpt>
      <trkpt lat="43.70856" lon="6.00653">
        <ele>359.2</ele>
        <time>2023-06-11T08:40:30Z</time>
      </trkpt>
      <trkpt lat="43.70856" lon="6.00651">
        <ele>359.2</ele>
        <time>2023-06-11T08:40:31Z</time>
      </trkpt>
      <trkpt lat="43.70857" lon="6.00649">
        <ele>359.2</ele>
        <time>2023-06-11T08:40:32Z</time>
      </trkpt>
      <trkpt lat="43.70857" lon="6.00647">
        <ele>359.2</ele>
        <time>2023-06-11T08:40:33Z</time>
      </trkpt>
      <trkpt lat="43.70857" lon="6.00645">
        <ele>359.3</ele>
        <time>2023-06-11T08:40:34Z</time>
      </trkpt>
      <trkpt lat="43.70857" lon="6.00643">
        <ele>359.3</ele>
        <time>2023-06-11T08:40:35Z</time>
      </trkpt>
      <trkpt lat="43.70857" lon="6.00641">
        <ele>359.3</ele>
        <time>2023-06-11T08:40:36Z</time>
      </trkpt>
      <trkpt lat="43.70857" lon="6.00639">
        <ele>359.4</ele>
        <time>2023-06-11T08:40:37Z</time>
      </trkpt>
      <trkpt lat="43.70857" lon="6.00637">
        <ele>359.4</ele>
        <time>2023-06-11T08:40:38Z</time>
      </trkpt>
      <trkpt lat="43.70858" lon="6.00635">
        <ele>359.3</ele>
        <time>2023-06-11T08:40:39Z</time>
      </trkpt>
      <trkpt lat="43.70858" lon="6.00633">
        <ele>359.3</ele>
        <time>2023-06-11T08:40:40Z</time>
      </trkpt>
      <trkpt lat="43.70858" lon="6.00631">
        <ele>359.3</ele>
        <time>2023-06-11T08:40:41Z</time>
      </trkpt>
      <trkpt lat="43.70858" lon="6.00629">
        <ele>359.3</ele>
        <time>2023-06-11T08:40:42Z</time>
      </trkpt>
      <trkpt lat="43.70858" lon="6.00627">
        <ele>359.3</ele>
        <time>2023-06-11T08:40:43Z</time>
      </trkpt>
      <trkpt lat="43.70858" lon="6.00625">
        <ele>359.3</ele>
        <time>2023-06-11T08:40:44Z</time>
      </trkpt>
      <trkpt lat="43.70858" lon="6.00623">
        <ele>359.3</ele>
        <time>2023-06-11T08:40:45Z</time>
      </trkpt>
      <trkpt lat="43.70858" lon="6.00621">
        <ele>359.3</ele>
        <time>2023-06-11T08:40:46Z</time>
      </trkpt>
      <trkpt lat="43.70858" lon="6.00619">
        <ele>359.4</ele>
        <time>2023-06-11T08:40:47Z</time>
      </trkpt>
      <trkpt lat="43.70858" lon="6.00617">
        <ele>359.4</ele>
        <time>2023-06-11T08:40:48Z</time>
      </trkpt>
      <trkpt lat="43.70857" lon="6.00615">
        <ele>359.4</ele>
        <time>2023-06-11T08:40:49Z</time>
      </trkpt>
      <trkpt lat="43.70857" lon="6.00614">
        <ele>359.4</ele>
        <time>2023-06-11T08:40:50Z</time>
      </trkpt>
      <trkpt lat="43.70857" lon="6.00612">
        <ele>359.4</ele>
        <time>2023-06-11T08:40:51Z</time>
      </trkpt>
      <trkpt lat="43.70857" lon="6.0061">
        <ele>359.3</ele>
        <time>2023-06-11T08:40:52Z</time>
      </trkpt>
      <trkpt lat="43.70856" lon="6.00608">
        <ele>359.3</ele>
        <time>2023-06-11T08:40:53Z</time>
      </trkpt>
      <trkpt lat="43.70856" lon="6.00605">
        <ele>359.3</ele>
        <time>2023-06-11T08:40:54Z</time>
      </trkpt>
      <trkpt lat="43.70856" lon="6.00604">
        <ele>359.2</ele>
        <time>2023-06-11T08:40:55Z</time>
      </trkpt>
      <trkpt lat="43.70855" lon="6.00602">
        <ele>359.2</ele>
        <time>2023-06-11T08:40:56Z</time>
      </trkpt>
      <trkpt lat="43.70855" lon="6.006">
        <ele>359.2</ele>
        <time>2023-06-11T08:40:57Z</time>
      </trkpt>
      <trkpt lat="43.70855" lon="6.00598">
        <ele>359.2</ele>
        <time>2023-06-11T08:40:58Z</time>
      </trkpt>
      <trkpt lat="43.70854" lon="6.00596">
        <ele>359.2</ele>
        <time>2023-06-11T08:40:59Z</time>
      </trkpt>
      <trkpt lat="43.70854" lon="6.00594">
        <ele>359.3</ele>
        <time>2023-06-11T08:41:00Z</time>
      </trkpt>
      <trkpt lat="43.70854" lon="6.00592">
        <ele>359.4</ele>
        <time>2023-06-11T08:41:01Z</time>
      </trkpt>
      <trkpt lat="43.70853" lon="6.0059">
        <ele>359.4</ele>
        <time>2023-06-11T08:41:02Z</time>
      </trkpt>
      <trkpt lat="43.70853" lon="6.00588">
        <ele>359.4</ele>
        <time>2023-06-11T08:41:03Z</time>
      </trkpt>
      <trkpt lat="43.70853" lon="6.00586">
        <ele>359.3</ele>
        <time>2023-06-11T08:41:04Z</time>
      </trkpt>
      <trkpt lat="43.70852" lon="6.00584">
        <ele>359.2</ele>
        <time>2023-06-11T08:41:05Z</time>
      </trkpt>
      <trkpt lat="43.70852" lon="6.00582">
        <ele>359.3</ele>
        <time>2023-06-11T08:41:06Z</time>
      </trkpt>
      <trkpt lat="43.70852" lon="6.0058">
        <ele>359.2</ele>
        <time>2023-06-11T08:41:07Z</time>
      </trkpt>
      <trkpt lat="43.70851" lon="6.00578">
        <ele>359.2</ele>
        <time>2023-06-11T08:41:08Z</time>
      </trkpt>
      <trkpt lat="43.70851" lon="6.00577">
        <ele>359.3</ele>
        <time>2023-06-11T08:41:09Z</time>
      </trkpt>
      <trkpt lat="43.7085" lon="6.00575">
        <ele>359.3</ele>
        <time>2023-06-11T08:41:10Z</time>
      </trkpt>
      <trkpt lat="43.7085" lon="6.00573">
        <ele>359.4</ele>
        <time>2023-06-11T08:41:11Z</time>
      </trkpt>
      <trkpt lat="43.7085" lon="6.00571">
        <ele>359.5</ele>
        <time>2023-06-11T08:41:12Z</time>
      </trkpt>
      <trkpt lat="43.70849" lon="6.00569">
        <ele>359.5</ele>
        <time>2023-06-11T08:41:13Z</time>
      </trkpt>
      <trkpt lat="43.70849" lon="6.00567">
        <ele>359.4</ele>
        <time>2023-06-11T08:41:14Z</time>
      </trkpt>
      <trkpt lat="43.70849" lon="6.00565">
        <ele>359.4</ele>
        <time>2023-06-11T08:41:15Z</time>
      </trkpt>
      <trkpt lat="43.70848" lon="6.00563">
        <ele>359.3</ele>
        <time>2023-06-11T08:41:16Z</time>
      </trkpt>
      <trkpt lat="43.70848" lon="6.00561">
        <ele>359.3</ele>
        <time>2023-06-11T08:41:17Z</time>
      </trkpt>
      <trkpt lat="43.70848" lon="6.00559">
        <ele>359.4</ele>
        <time>2023-06-11T08:41:18Z</time>
      </trkpt>
      <trkpt lat="43.70847" lon="6.00557">
        <ele>359.4</ele>
        <time>2023-06-11T08:41:19Z</time>
      </trkpt>
      <trkpt lat="43.70847" lon="6.00555">
        <ele>359.4</ele>
        <time>2023-06-11T08:41:20Z</time>
      </trkpt>
      <trkpt lat="43.70847" lon="6.00553">
        <ele>359.4</ele>
        <time>2023-06-11T08:41:21Z</time>
      </trkpt>
      <trkpt lat="43.70846" lon="6.00551">
        <ele>359.5</ele>
        <time>2023-06-11T08:41:22Z</time>
      </trkpt>
      <trkpt lat="43.70846" lon="6.00549">
        <ele>359.5</ele>
        <time>2023-06-11T08:41:23Z</time>
      </trkpt>
      <trkpt lat="43.70846" lon="6.00547">
        <ele>359.5</ele>
        <time>2023-06-11T08:41:24Z</time>
      </trkpt>
      <trkpt lat="43.70845" lon="6.00545">
        <ele>359.4</ele>
        <time>2023-06-11T08:41:25Z</time>
      </trkpt>
      <trkpt lat="43.70845" lon="6.00543">
        <ele>359.4</ele>
        <time>2023-06-11T08:41:26Z</time>
      </trkpt>
      <trkpt lat="43.70845" lon="6.00541">
        <ele>359.4</ele>
        <time>2023-06-11T08:41:27Z</time>
      </trkpt>
      <trkpt lat="43.70845" lon="6.00539">
        <ele>359.4</ele>
        <time>2023-06-11T08:41:28Z</time>
      </trkpt>
      <trkpt lat="43.70844" lon="6.00537">
        <ele>359.5</ele>
        <time>2023-06-11T08:41:29Z</time>
      </trkpt>
      <trkpt lat="43.70844" lon="6.00535">
        <ele>359.5</ele>
        <time>2023-06-11T08:41:30Z</time>
      </trkpt>
      <trkpt lat="43.70844" lon="6.00533">
        <ele>359.5</ele>
        <time>2023-06-11T08:41:31Z</time>
      </trkpt>
      <trkpt lat="43.70844" lon="6.00531">
        <ele>359.5</ele>
        <time>2023-06-11T08:41:32Z</time>
      </trkpt>
      <trkpt lat="43.70843" lon="6.00529">
        <ele>359.5</ele>
        <time>2023-06-11T08:41:33Z</time>
      </trkpt>
      <trkpt lat="43.70843" lon="6.00527">
        <ele>359.5</ele>
        <time>2023-06-11T08:41:34Z</time>
      </trkpt>
      <trkpt lat="43.70843" lon="6.00525">
        <ele>359.4</ele>
        <time>2023-06-11T08:41:35Z</time>
      </trkpt>
      <trkpt lat="43.70843" lon="6.00523">
        <ele>359.4</ele>
        <time>2023-06-11T08:41:36Z</time>
      </trkpt>
      <trkpt lat="43.70842" lon="6.00521">
        <ele>359.4</ele>
        <time>2023-06-11T08:41:37Z</time>
      </trkpt>
      <trkpt lat="43.70842" lon="6.00519">
        <ele>359.4</ele>
        <time>2023-06-11T08:41:38Z</time>
      </trkpt>
      <trkpt lat="43.70842" lon="6.00517">
        <ele>359.4</ele>
        <time>2023-06-11T08:41:39Z</time>
      </trkpt>
      <trkpt lat="43.70842" lon="6.00515">
        <ele>359.4</ele>
        <time>2023-06-11T08:41:40Z</time>
      </trkpt>
      <trkpt lat="43.70841" lon="6.00513">
        <ele>359.3</ele>
        <time>2023-06-11T08:41:41Z</time>
      </trkpt>
      <trkpt lat="43.70841" lon="6.00511">
        <ele>359.2</ele>
        <time>2023-06-11T08:41:42Z</time>
      </trkpt>
      <trkpt lat="43.70841" lon="6.00509">
        <ele>359.3</ele>
        <time>2023-06-11T08:41:43Z</time>
      </trkpt>
      <trkpt lat="43.7084" lon="6.00507">
        <ele>359.3</ele>
        <time>2023-06-11T08:41:44Z</time>
      </trkpt>
      <trkpt lat="43.7084" lon="6.00505">
        <ele>359.3</ele>
        <time>2023-06-11T08:41:45Z</time>
      </trkpt>
      <trkpt lat="43.7084" lon="6.00503">
        <ele>359.2</ele>
        <time>2023-06-11T08:41:46Z</time>
      </trkpt>
      <trkpt lat="43.7084" lon="6.00501">
        <ele>359.3</ele>
        <time>2023-06-11T08:41:47Z</time>
      </trkpt>
      <trkpt lat="43.70839" lon="6.00499">
        <ele>359.3</ele>
        <time>2023-06-11T08:41:48Z</time>
      </trkpt>
      <trkpt lat="43.70839" lon="6.00497">
        <ele>359.3</ele>
        <time>2023-06-11T08:41:49Z</time>
      </trkpt>
      <trkpt lat="43.70839" lon="6.00495">
        <ele>359.4</ele>
        <time>2023-06-11T08:41:50Z</time>
      </trkpt>
      <trkpt lat="43.70838" lon="6.00493">
        <ele>359.4</ele>
        <time>2023-06-11T08:41:51Z</time>
      </trkpt>
      <trkpt lat="43.70838" lon="6.00491">
        <ele>359.5</ele>
        <time>2023-06-11T08:41:52Z</time>
      </trkpt>
      <trkpt lat="43.70838" lon="6.00489">
        <ele>359.5</ele>
        <time>2023-06-11T08:41:53Z</time>
      </trkpt>
      <trkpt lat="43.70838" lon="6.00487">
        <ele>359.6</ele>
        <time>2023-06-11T08:41:54Z</time>
      </trkpt>
      <trkpt lat="43.70837" lon="6.00485">
        <ele>359.7</ele>
        <time>2023-06-11T08:41:55Z</time>
      </trkpt>
      <trkpt lat="43.70837" lon="6.00483">
        <ele>359.7</ele>
        <time>2023-06-11T08:41:56Z</time>
      </trkpt>
      <trkpt lat="43.70837" lon="6.00481">
        <ele>359.7</ele>
        <time>2023-06-11T08:41:57Z</time>
      </trkpt>
      <trkpt lat="43.70836" lon="6.00479">
        <ele>359.7</ele>
        <time>2023-06-11T08:41:58Z</time>
      </trkpt>
      <trkpt lat="43.70836" lon="6.00477">
        <ele>359.8</ele>
        <time>2023-06-11T08:41:59Z</time>
      </trkpt>
      <trkpt lat="43.70836" lon="6.00475">
        <ele>359.8</ele>
        <time>2023-06-11T08:42:00Z</time>
      </trkpt>
      <trkpt lat="43.70835" lon="6.00473">
        <ele>359.8</ele>
        <time>2023-06-11T08:42:01Z</time>
      </trkpt>
      <trkpt lat="43.70835" lon="6.00471">
        <ele>359.8</ele>
        <time>2023-06-11T08:42:02Z</time>
      </trkpt>
      <trkpt lat="43.70835" lon="6.00469">
        <ele>359.8</ele>
        <time>2023-06-11T08:42:03Z</time>
      </trkpt>
      <trkpt lat="43.70834" lon="6.00467">
        <ele>359.8</ele>
        <time>2023-06-11T08:42:04Z</time>
      </trkpt>
      <trkpt lat="43.70834" lon="6.00465">
        <ele>359.7</ele>
        <time>2023-06-11T08:42:05Z</time>
      </trkpt>
      <trkpt lat="43.70834" lon="6.00463">
        <ele>359.7</ele>
        <time>2023-06-11T08:42:06Z</time>
      </trkpt>
      <trkpt lat="43.70834" lon="6.00461">
        <ele>359.6</ele>
        <time>2023-06-11T08:42:07Z</time>
      </trkpt>
      <trkpt lat="43.70833" lon="6.00459">
        <ele>359.6</ele>
        <time>2023-06-11T08:42:08Z</time>
      </trkpt>
      <trkpt lat="43.70833" lon="6.00457">
        <ele>359.5</ele>
        <time>2023-06-11T08:42:09Z</time>
      </trkpt>
      <trkpt lat="43.70833" lon="6.00455">
        <ele>359.4</ele>
        <time>2023-06-11T08:42:10Z</time>
      </trkpt>
      <trkpt lat="43.70833" lon="6.00452">
        <ele>359.5</ele>
        <time>2023-06-11T08:42:11Z</time>
      </trkpt>
      <trkpt lat="43.70833" lon="6.0045">
        <ele>359.4</ele>
        <time>2023-06-11T08:42:12Z</time>
      </trkpt>
      <trkpt lat="43.70833" lon="6.00448">
        <ele>359.4</ele>
        <time>2023-06-11T08:42:13Z</time>
      </trkpt>
      <trkpt lat="43.70833" lon="6.00446">
        <ele>359.4</ele>
        <time>2023-06-11T08:42:14Z</time>
      </trkpt>
      <trkpt lat="43.70833" lon="6.00444">
        <ele>359.4</ele>
        <time>2023-06-11T08:42:15Z</time>
      </trkpt>
      <trkpt lat="43.70833" lon="6.00442">
        <ele>359.4</ele>
        <time>2023-06-11T08:42:16Z</time>
      </trkpt>
      <trkpt lat="43.70833" lon="6.00439">
        <ele>359.4</ele>
        <time>2023-06-11T08:42:17Z</time>
      </trkpt>
      <trkpt lat="43.70833" lon="6.00437">
        <ele>359.4</ele>
        <time>2023-06-11T08:42:18Z</time>
      </trkpt>
      <trkpt lat="43.70832" lon="6.00435">
        <ele>359.4</ele>
        <time>2023-06-11T08:42:19Z</time>
      </trkpt>
      <trkpt lat="43.70832" lon="6.00433">
        <ele>359.4</ele>
        <time>2023-06-11T08:42:20Z</time>
      </trkpt>
      <trkpt lat="43.70832" lon="6.00431">
        <ele>359.4</ele>
        <time>2023-06-11T08:42:21Z</time>
      </trkpt>
      <trkpt lat="43.70832" lon="6.00429">
        <ele>359.4</ele>
        <time>2023-06-11T08:42:22Z</time>
      </trkpt>
      <trkpt lat="43.70832" lon="6.00427">
        <ele>359.3</ele>
        <time>2023-06-11T08:42:23Z</time>
      </trkpt>
      <trkpt lat="43.70831" lon="6.00425">
        <ele>359.5</ele>
        <time>2023-06-11T08:42:24Z</time>
      </trkpt>
      <trkpt lat="43.70831" lon="6.00423">
        <ele>359.5</ele>
        <time>2023-06-11T08:42:25Z</time>
      </trkpt>
      <trkpt lat="43.70831" lon="6.00421">
        <ele>359.5</ele>
        <time>2023-06-11T08:42:26Z</time>
      </trkpt>
      <trkpt lat="43.70831" lon="6.00419">
        <ele>359.6</ele>
        <time>2023-06-11T08:42:27Z</time>
      </trkpt>
      <trkpt lat="43.7083" lon="6.00417">
        <ele>359.6</ele>
        <time>2023-06-11T08:42:28Z</time>
      </trkpt>
      <trkpt lat="43.7083" lon="6.00414">
        <ele>359.6</ele>
        <time>2023-06-11T08:42:29Z</time>
      </trkpt>
      <trkpt lat="43.7083" lon="6.00412">
        <ele>359.6</ele>
        <time>2023-06-11T08:42:30Z</time>
      </trkpt>
      <trkpt lat="43.7083" lon="6.0041">
        <ele>359.6</ele>
        <time>2023-06-11T08:42:31Z</time>
      </trkpt>
      <trkpt lat="43.7083" lon="6.00408">
        <ele>359.6</ele>
        <time>2023-06-11T08:42:32Z</time>
      </trkpt>
      <trkpt lat="43.7083" lon="6.00406">
        <ele>359.6</ele>
        <time>2023-06-11T08:42:33Z</time>
      </trkpt>
      <trkpt lat="43.7083" lon="6.00404">
        <ele>359.7</ele>
        <time>2023-06-11T08:42:34Z</time>
      </trkpt>
      <trkpt lat="43.7083" lon="6.00402">
        <ele>359.7</ele>
        <time>2023-06-11T08:42:35Z</time>
      </trkpt>
      <trkpt lat="43.7083" lon="6.004">
        <ele>359.7</ele>
        <time>2023-06-11T08:42:36Z</time>
      </trkpt>
      <trkpt lat="43.7083" lon="6.00398">
        <ele>359.7</ele>
        <time>2023-06-11T08:42:37Z</time>
      </trkpt>
      <trkpt lat="43.7083" lon="6.00396">
        <ele>359.7</ele>
        <time>2023-06-11T08:42:38Z</time>
      </trkpt>
      <trkpt lat="43.70829" lon="6.00394">
        <ele>359.8</ele>
        <time>2023-06-11T08:42:39Z</time>
      </trkpt>
      <trkpt lat="43.70829" lon="6.00392">
        <ele>359.8</ele>
        <time>2023-06-11T08:42:40Z</time>
      </trkpt>
      <trkpt lat="43.70829" lon="6.0039">
        <ele>359.7</ele>
        <time>2023-06-11T08:42:41Z</time>
      </trkpt>
      <trkpt lat="43.70829" lon="6.00388">
        <ele>359.7</ele>
        <time>2023-06-11T08:42:42Z</time>
      </trkpt>
      <trkpt lat="43.70829" lon="6.00386">
        <ele>359.7</ele>
        <time>2023-06-11T08:42:43Z</time>
      </trkpt>
      <trkpt lat="43.70829" lon="6.00384">
        <ele>359.6</ele>
        <time>2023-06-11T08:42:44Z</time>
      </trkpt>
      <trkpt lat="43.70829" lon="6.00382">
        <ele>359.6</ele>
        <time>2023-06-11T08:42:45Z</time>
      </trkpt>
      <trkpt lat="43.70829" lon="6.0038">
        <ele>359.4</ele>
        <time>2023-06-11T08:42:46Z</time>
      </trkpt>
      <trkpt lat="43.70829" lon="6.00379">
        <ele>359.3</ele>
        <time>2023-06-11T08:42:47Z</time>
      </trkpt>
      <trkpt lat="43.70829" lon="6.00377">
        <ele>359.3</ele>
        <time>2023-06-11T08:42:48Z</time>
      </trkpt>
      <trkpt lat="43.70829" lon="6.00376">
        <ele>359.3</ele>
        <time>2023-06-11T08:42:49Z</time>
      </trkpt>
      <trkpt lat="43.7083" lon="6.00374">
        <ele>359.3</ele>
        <time>2023-06-11T08:42:50Z</time>
      </trkpt>
      <trkpt lat="43.7083" lon="6.00373">
        <ele>359.3</ele>
        <time>2023-06-11T08:42:51Z</time>
      </trkpt>
      <trkpt lat="43.7083" lon="6.00372">
        <ele>359.4</ele>
        <time>2023-06-11T08:42:52Z</time>
      </trkpt>
      <trkpt lat="43.7083" lon="6.0037">
        <ele>359.4</ele>
        <time>2023-06-11T08:42:53Z</time>
      </trkpt>
      <trkpt lat="43.7083" lon="6.00369">
        <ele>359.4</ele>
        <time>2023-06-11T08:42:54Z</time>
      </trkpt>
      <trkpt lat="43.7083" lon="6.00368">
        <ele>359.4</ele>
        <time>2023-06-11T08:42:55Z</time>
      </trkpt>
      <trkpt lat="43.70829" lon="6.00367">
        <ele>359.4</ele>
        <time>2023-06-11T08:42:56Z</time>
      </trkpt>
      <trkpt lat="43.70829" lon="6.00366">
        <ele>359.4</ele>
        <time>2023-06-11T08:42:57Z</time>
      </trkpt>
      <trkpt lat="43.70829" lon="6.00365">
        <ele>359.4</ele>
        <time>2023-06-11T08:42:58Z</time>
      </trkpt>
      <trkpt lat="43.70829" lon="6.00364">
        <ele>359.4</ele>
        <time>2023-06-11T08:42:59Z</time>
      </trkpt>
      <trkpt lat="43.70829" lon="6.00363">
        <ele>359.4</ele>
        <time>2023-06-11T08:43:00Z</time>
      </trkpt>
      <trkpt lat="43.70829" lon="6.00362">
        <ele>359.4</ele>
        <time>2023-06-11T08:43:01Z</time>
      </trkpt>
      <trkpt lat="43.70829" lon="6.00361">
        <ele>359.4</ele>
        <time>2023-06-11T08:43:02Z</time>
      </trkpt>
      <trkpt lat="43.70828" lon="6.0036">
        <ele>359.4</ele>
        <time>2023-06-11T08:43:03Z</time>
      </trkpt>
      <trkpt lat="43.70828" lon="6.00359">
        <ele>359.4</ele>
        <time>2023-06-11T08:43:04Z</time>
      </trkpt>
      <trkpt lat="43.70828" lon="6.00358">
        <ele>359.4</ele>
        <time>2023-06-11T08:43:05Z</time>
      </trkpt>
      <trkpt lat="43.70828" lon="6.00356">
        <ele>359.5</ele>
        <time>2023-06-11T08:43:06Z</time>
      </trkpt>
      <trkpt lat="43.70828" lon="6.00355">
        <ele>359.6</ele>
        <time>2023-06-11T08:43:07Z</time>
      </trkpt>
      <trkpt lat="43.70828" lon="6.00354">
        <ele>359.6</ele>
        <time>2023-06-11T08:43:08Z</time>
      </trkpt>
      <trkpt lat="43.70828" lon="6.00352">
        <ele>359.6</ele>
        <time>2023-06-11T08:43:09Z</time>
      </trkpt>
      <trkpt lat="43.70828" lon="6.00351">
        <ele>359.6</ele>
        <time>2023-06-11T08:43:10Z</time>
      </trkpt>
      <trkpt lat="43.70828" lon="6.00349">
        <ele>359.6</ele>
        <time>2023-06-11T08:43:11Z</time>
      </trkpt>
      <trkpt lat="43.70828" lon="6.00348">
        <ele>359.6</ele>
        <time>2023-06-11T08:43:12Z</time>
      </trkpt>
      <trkpt lat="43.70829" lon="6.00347">
        <ele>359.6</ele>
        <time>2023-06-11T08:43:13Z</time>
      </trkpt>
      <trkpt lat="43.70829" lon="6.00345">
        <ele>359.6</ele>
        <time>2023-06-11T08:43:14Z</time>
      </trkpt>
      <trkpt lat="43.70829" lon="6.00344">
        <ele>359.6</ele>
        <time>2023-06-11T08:43:15Z</time>
      </trkpt>
      <trkpt lat="43.70829" lon="6.00342">
        <ele>359.6</ele>
        <time>2023-06-11T08:43:16Z</time>
      </trkpt>
      <trkpt lat="43.7083" lon="6.00341">
        <ele>359.6</ele>
        <time>2023-06-11T08:43:17Z</time>
      </trkpt>
      <trkpt lat="43.7083" lon="6.00339">
        <ele>359.7</ele>
        <time>2023-06-11T08:43:18Z</time>
      </trkpt>
      <trkpt lat="43.7083" lon="6.00338">
        <ele>359.7</ele>
        <time>2023-06-11T08:43:19Z</time>
      </trkpt>
      <trkpt lat="43.7083" lon="6.00336">
        <ele>359.7</ele>
        <time>2023-06-11T08:43:20Z</time>
      </trkpt>
      <trkpt lat="43.7083" lon="6.00334">
        <ele>359.6</ele>
        <time>2023-06-11T08:43:21Z</time>
      </trkpt>
      <trkpt lat="43.70831" lon="6.00333">
        <ele>359.6</ele>
        <time>2023-06-11T08:43:22Z</time>
      </trkpt>
      <trkpt lat="43.70831" lon="6.00331">
        <ele>359.6</ele>
        <time>2023-06-11T08:43:23Z</time>
      </trkpt>
      <trkpt lat="43.70831" lon="6.0033">
        <ele>359.6</ele>
        <time>2023-06-11T08:43:24Z</time>
      </trkpt>
      <trkpt lat="43.70832" lon="6.00328">
        <ele>359.6</ele>
        <time>2023-06-11T08:43:25Z</time>
      </trkpt>
      <trkpt lat="43.70832" lon="6.00326">
        <ele>359.6</ele>
        <time>2023-06-11T08:43:26Z</time>
      </trkpt>
      <trkpt lat="43.70832" lon="6.00325">
        <ele>359.6</ele>
        <time>2023-06-11T08:43:27Z</time>
      </trkpt>
      <trkpt lat="43.70833" lon="6.00323">
        <ele>359.5</ele>
        <time>2023-06-11T08:43:28Z</time>
      </trkpt>
      <trkpt lat="43.70834" lon="6.00322">
        <ele>359.5</ele>
        <time>2023-06-11T08:43:29Z</time>
      </trkpt>
      <trkpt lat="43.70834" lon="6.0032">
        <ele>359.5</ele>
        <time>2023-06-11T08:43:30Z</time>
      </trkpt>
      <trkpt lat="43.70835" lon="6.00318">
        <ele>359.5</ele>
        <time>2023-06-11T08:43:31Z</time>
      </trkpt>
      <trkpt lat="43.70835" lon="6.00317">
        <ele>359.5</ele>
        <time>2023-06-11T08:43:32Z</time>
      </trkpt>
      <trkpt lat="43.70835" lon="6.00315">
        <ele>359.5</ele>
        <time>2023-06-11T08:43:33Z</time>
      </trkpt>
      <trkpt lat="43.70836" lon="6.00313">
        <ele>359.5</ele>
        <time>2023-06-11T08:43:34Z</time>
      </trkpt>
      <trkpt lat="43.70836" lon="6.00312">
        <ele>359.4</ele>
        <time>2023-06-11T08:43:35Z</time>
      </trkpt>
      <trkpt lat="43.70837" lon="6.0031">
        <ele>359.4</ele>
        <time>2023-06-11T08:43:36Z</time>
      </trkpt>
      <trkpt lat="43.70837" lon="6.00308">
        <ele>359.4</ele>
        <time>2023-06-11T08:43:37Z</time>
      </trkpt>
      <trkpt lat="43.70838" lon="6.00306">
        <ele>359.4</ele>
        <time>2023-06-11T08:43:38Z</time>
      </trkpt>
      <trkpt lat="43.70838" lon="6.00305">
        <ele>359.4</ele>
        <time>2023-06-11T08:43:39Z</time>
      </trkpt>
      <trkpt lat="43.70839" lon="6.00303">
        <ele>359.4</ele>
        <time>2023-06-11T08:43:40Z</time>
      </trkpt>
      <trkpt lat="43.70839" lon="6.00301">
        <ele>359.4</ele>
        <time>2023-06-11T08:43:41Z</time>
      </trkpt>
      <trkpt lat="43.7084" lon="6.00299">
        <ele>359.4</ele>
        <time>2023-06-11T08:43:42Z</time>
      </trkpt>
      <trkpt lat="43.7084" lon="6.00298">
        <ele>359.5</ele>
        <time>2023-06-11T08:43:43Z</time>
      </trkpt>
      <trkpt lat="43.70841" lon="6.00296">
        <ele>359.4</ele>
        <time>2023-06-11T08:43:44Z</time>
      </trkpt>
      <trkpt lat="43.70841" lon="6.00294">
        <ele>359.5</ele>
        <time>2023-06-11T08:43:45Z</time>
      </trkpt>
      <trkpt lat="43.70841" lon="6.00292">
        <ele>359.6</ele>
        <time>2023-06-11T08:43:46Z</time>
      </trkpt>
      <trkpt lat="43.70843" lon="6.00291">
        <ele>359.6</ele>
        <time>2023-06-11T08:43:47Z</time>
      </trkpt>
      <trkpt lat="43.70843" lon="6.00289">
        <ele>359.6</ele>
        <time>2023-06-11T08:43:48Z</time>
      </trkpt>
      <trkpt lat="43.70843" lon="6.00288">
        <ele>359.6</ele>
        <time>2023-06-11T08:43:49Z</time>
      </trkpt>
      <trkpt lat="43.70844" lon="6.00286">
        <ele>359.6</ele>
        <time>2023-06-11T08:43:50Z</time>
      </trkpt>
      <trkpt lat="43.70844" lon="6.00284">
        <ele>359.6</ele>
        <time>2023-06-11T08:43:51Z</time>
      </trkpt>
      <trkpt lat="43.70845" lon="6.00283">
        <ele>359.7</ele>
        <time>2023-06-11T08:43:52Z</time>
      </trkpt>
      <trkpt lat="43.70846" lon="6.00281">
        <ele>359.7</ele>
        <time>2023-06-11T08:43:53Z</time>
      </trkpt>
      <trkpt lat="43.70846" lon="6.00279">
        <ele>359.7</ele>
        <time>2023-06-11T08:43:54Z</time>
      </trkpt>
      <trkpt lat="43.70847" lon="6.00277">
        <ele>359.7</ele>
        <time>2023-06-11T08:43:55Z</time>
      </trkpt>
      <trkpt lat="43.70847" lon="6.00276">
        <ele>359.7</ele>
        <time>2023-06-11T08:43:56Z</time>
      </trkpt>
      <trkpt lat="43.70848" lon="6.00274">
        <ele>359.6</ele>
        <time>2023-06-11T08:43:57Z</time>
      </trkpt>
      <trkpt lat="43.70848" lon="6.00272">
        <ele>359.7</ele>
        <time>2023-06-11T08:43:58Z</time>
      </trkpt>
      <trkpt lat="43.70849" lon="6.0027">
        <ele>359.7</ele>
        <time>2023-06-11T08:43:59Z</time>
      </trkpt>
      <trkpt lat="43.7085" lon="6.00268">
        <ele>359.7</ele>
        <time>2023-06-11T08:44:00Z</time>
      </trkpt>
      <trkpt lat="43.7085" lon="6.00266">
        <ele>359.7</ele>
        <time>2023-06-11T08:44:01Z</time>
      </trkpt>
      <trkpt lat="43.70851" lon="6.00265">
        <ele>359.7</ele>
        <time>2023-06-11T08:44:02Z</time>
      </trkpt>
      <trkpt lat="43.70852" lon="6.00263">
        <ele>359.7</ele>
        <time>2023-06-11T08:44:03Z</time>
      </trkpt>
      <trkpt lat="43.70852" lon="6.00261">
        <ele>359.6</ele>
        <time>2023-06-11T08:44:04Z</time>
      </trkpt>
      <trkpt lat="43.70853" lon="6.00259">
        <ele>359.6</ele>
        <time>2023-06-11T08:44:05Z</time>
      </trkpt>
      <trkpt lat="43.70854" lon="6.00258">
        <ele>359.6</ele>
        <time>2023-06-11T08:44:06Z</time>
      </trkpt>
      <trkpt lat="43.70855" lon="6.00256">
        <ele>359.6</ele>
        <time>2023-06-11T08:44:07Z</time>
      </trkpt>
      <trkpt lat="43.70856" lon="6.00255">
        <ele>359.6</ele>
        <time>2023-06-11T08:44:08Z</time>
      </trkpt>
      <trkpt lat="43.70857" lon="6.00253">
        <ele>359.5</ele>
        <time>2023-06-11T08:44:09Z</time>
      </trkpt>
      <trkpt lat="43.70857" lon="6.00251">
        <ele>359.5</ele>
        <time>2023-06-11T08:44:10Z</time>
      </trkpt>
      <trkpt lat="43.70858" lon="6.0025">
        <ele>359.5</ele>
        <time>2023-06-11T08:44:11Z</time>
      </trkpt>
      <trkpt lat="43.70859" lon="6.00248">
        <ele>359.5</ele>
        <time>2023-06-11T08:44:12Z</time>
      </trkpt>
      <trkpt lat="43.7086" lon="6.00246">
        <ele>359.5</ele>
        <time>2023-06-11T08:44:13Z</time>
      </trkpt>
      <trkpt lat="43.70861" lon="6.00244">
        <ele>359.5</ele>
        <time>2023-06-11T08:44:14Z</time>
      </trkpt>
      <trkpt lat="43.70862" lon="6.00243">
        <ele>359.4</ele>
        <time>2023-06-11T08:44:15Z</time>
      </trkpt>
      <trkpt lat="43.70863" lon="6.00241">
        <ele>359.5</ele>
        <time>2023-06-11T08:44:16Z</time>
      </trkpt>
      <trkpt lat="43.70864" lon="6.0024">
        <ele>359.5</ele>
        <time>2023-06-11T08:44:17Z</time>
      </trkpt>
      <trkpt lat="43.70865" lon="6.00238">
        <ele>359.5</ele>
        <time>2023-06-11T08:44:18Z</time>
      </trkpt>
      <trkpt lat="43.70865" lon="6.00236">
        <ele>359.5</ele>
        <time>2023-06-11T08:44:19Z</time>
      </trkpt>
      <trkpt lat="43.70866" lon="6.00235">
        <ele>359.5</ele>
        <time>2023-06-11T08:44:20Z</time>
      </trkpt>
      <trkpt lat="43.70867" lon="6.00233">
        <ele>359.5</ele>
        <time>2023-06-11T08:44:21Z</time>
      </trkpt>
      <trkpt lat="43.70868" lon="6.00232">
        <ele>359.5</ele>
        <time>2023-06-11T08:44:22Z</time>
      </trkpt>
      <trkpt lat="43.70869" lon="6.00231">
        <ele>359.5</ele>
        <time>2023-06-11T08:44:23Z</time>
      </trkpt>
      <trkpt lat="43.7087" lon="6.00229">
        <ele>359.5</ele>
        <time>2023-06-11T08:44:24Z</time>
      </trkpt>
      <trkpt lat="43.70871" lon="6.00228">
        <ele>359.5</ele>
        <time>2023-06-11T08:44:25Z</time>
      </trkpt>
      <trkpt lat="43.70872" lon="6.00226">
        <ele>359.5</ele>
        <time>2023-06-11T08:44:26Z</time>
      </trkpt>
      <trkpt lat="43.70873" lon="6.00225">
        <ele>359.5</ele>
        <time>2023-06-11T08:44:27Z</time>
      </trkpt>
      <trkpt lat="43.70874" lon="6.00224">
        <ele>359.2</ele>
        <time>2023-06-11T08:44:28Z</time>
      </trkpt>
      <trkpt lat="43.70876" lon="6.00222">
        <ele>359.3</ele>
        <time>2023-06-11T08:44:29Z</time>
      </trkpt>
      <trkpt lat="43.70877" lon="6.00221">
        <ele>359.2</ele>
        <time>2023-06-11T08:44:30Z</time>
      </trkpt>
      <trkpt lat="43.70878" lon="6.0022">
        <ele>359.3</ele>
        <time>2023-06-11T08:44:31Z</time>
      </trkpt>
      <trkpt lat="43.70879" lon="6.00219">
        <ele>359.3</ele>
        <time>2023-06-11T08:44:32Z</time>
      </trkpt>
      <trkpt lat="43.7088" lon="6.00217">
        <ele>359.4</ele>
        <time>2023-06-11T08:44:33Z</time>
      </trkpt>
      <trkpt lat="43.70882" lon="6.00216">
        <ele>359.4</ele>
        <time>2023-06-11T08:44:34Z</time>
      </trkpt>
      <trkpt lat="43.70883" lon="6.00215">
        <ele>359.4</ele>
        <time>2023-06-11T08:44:35Z</time>
      </trkpt>
      <trkpt lat="43.70884" lon="6.00214">
        <ele>359.4</ele>
        <time>2023-06-11T08:44:36Z</time>
      </trkpt>
      <trkpt lat="43.70885" lon="6.00212">
        <ele>359.5</ele>
        <time>2023-06-11T08:44:37Z</time>
      </trkpt>
      <trkpt lat="43.70886" lon="6.00211">
        <ele>359.6</ele>
        <time>2023-06-11T08:44:38Z</time>
      </trkpt>
      <trkpt lat="43.70887" lon="6.0021">
        <ele>359.6</ele>
        <time>2023-06-11T08:44:39Z</time>
      </trkpt>
      <trkpt lat="43.70888" lon="6.00208">
        <ele>359.6</ele>
        <time>2023-06-11T08:44:40Z</time>
      </trkpt>
      <trkpt lat="43.70889" lon="6.00207">
        <ele>359.6</ele>
        <time>2023-06-11T08:44:41Z</time>
      </trkpt>
      <trkpt lat="43.7089" lon="6.00206">
        <ele>359.6</ele>
        <time>2023-06-11T08:44:42Z</time>
      </trkpt>
      <trkpt lat="43.70892" lon="6.00204">
        <ele>359.6</ele>
        <time>2023-06-11T08:44:43Z</time>
      </trkpt>
      <trkpt lat="43.70893" lon="6.00203">
        <ele>359.6</ele>
        <time>2023-06-11T08:44:44Z</time>
      </trkpt>
      <trkpt lat="43.70894" lon="6.00202">
        <ele>359.6</ele>
        <time>2023-06-11T08:44:45Z</time>
      </trkpt>
      <trkpt lat="43.70895" lon="6.002">
        <ele>359.5</ele>
        <time>2023-06-11T08:44:46Z</time>
      </trkpt>
      <trkpt lat="43.70896" lon="6.00199">
        <ele>359.5</ele>
        <time>2023-06-11T08:44:47Z</time>
      </trkpt>
      <trkpt lat="43.70897" lon="6.00197">
        <ele>359.4</ele>
        <time>2023-06-11T08:44:48Z</time>
      </trkpt>
      <trkpt lat="43.70898" lon="6.00196">
        <ele>359.4</ele>
        <time>2023-06-11T08:44:49Z</time>
      </trkpt>
      <trkpt lat="43.70899" lon="6.00194">
        <ele>359.5</ele>
        <time>2023-06-11T08:44:50Z</time>
      </trkpt>
      <trkpt lat="43.709" lon="6.00193">
        <ele>359.5</ele>
        <time>2023-06-11T08:44:51Z</time>
      </trkpt>
      <trkpt lat="43.70901" lon="6.00192">
        <ele>359.5</ele>
        <time>2023-06-11T08:44:52Z</time>
      </trkpt>
      <trkpt lat="43.70903" lon="6.00191">
        <ele>359.6</ele>
        <time>2023-06-11T08:44:53Z</time>
      </trkpt>
      <trkpt lat="43.70904" lon="6.0019">
        <ele>359.6</ele>
        <time>2023-06-11T08:44:54Z</time>
      </trkpt>
      <trkpt lat="43.70905" lon="6.00189">
        <ele>359.7</ele>
        <time>2023-06-11T08:44:55Z</time>
      </trkpt>
      <trkpt lat="43.70906" lon="6.00188">
        <ele>359.5</ele>
        <time>2023-06-11T08:44:56Z</time>
      </trkpt>
      <trkpt lat="43.70907" lon="6.00186">
        <ele>359.5</ele>
        <time>2023-06-11T08:44:57Z</time>
      </trkpt>
      <trkpt lat="43.70908" lon="6.00185">
        <ele>359.5</ele>
        <time>2023-06-11T08:44:58Z</time>
      </trkpt>
      <trkpt lat="43.70909" lon="6.00183">
        <ele>359.5</ele>
        <time>2023-06-11T08:44:59Z</time>
      </trkpt>
      <trkpt lat="43.70911" lon="6.00182">
        <ele>359.6</ele>
        <time>2023-06-11T08:45:00Z</time>
      </trkpt>
      <trkpt lat="43.70912" lon="6.00181">
        <ele>359.6</ele>
        <time>2023-06-11T08:45:01Z</time>
      </trkpt>
      <trkpt lat="43.70913" lon="6.00179">
        <ele>359.6</ele>
        <time>2023-06-11T08:45:02Z</time>
      </trkpt>
      <trkpt lat="43.70914" lon="6.00178">
        <ele>359.6</ele>
        <time>2023-06-11T08:45:03Z</time>
      </trkpt>
      <trkpt lat="43.70915" lon="6.00177">
        <ele>359.5</ele>
        <time>2023-06-11T08:45:04Z</time>
      </trkpt>
      <trkpt lat="43.70916" lon="6.00176">
        <ele>359.5</ele>
        <time>2023-06-11T08:45:05Z</time>
      </trkpt>
      <trkpt lat="43.70918" lon="6.00174">
        <ele>359.5</ele>
        <time>2023-06-11T08:45:06Z</time>
      </trkpt>
      <trkpt lat="43.70919" lon="6.00173">
        <ele>359.6</ele>
        <time>2023-06-11T08:45:07Z</time>
      </trkpt>
      <trkpt lat="43.7092" lon="6.00172">
        <ele>359.7</ele>
        <time>2023-06-11T08:45:08Z</time>
      </trkpt>
      <trkpt lat="43.70921" lon="6.0017">
        <ele>359.7</ele>
        <time>2023-06-11T08:45:09Z</time>
      </trkpt>
      <trkpt lat="43.70922" lon="6.00169">
        <ele>359.7</ele>
        <time>2023-06-11T08:45:10Z</time>
      </trkpt>
      <trkpt lat="43.70923" lon="6.00167">
        <ele>359.8</ele>
        <time>2023-06-11T08:45:11Z</time>
      </trkpt>
      <trkpt lat="43.70924" lon="6.00165">
        <ele>359.8</ele>
        <time>2023-06-11T08:45:12Z</time>
      </trkpt>
      <trkpt lat="43.70925" lon="6.00164">
        <ele>359.8</ele>
        <time>2023-06-11T08:45:13Z</time>
      </trkpt>
      <trkpt lat="43.70926" lon="6.00162">
        <ele>359.9</ele>
        <time>2023-06-11T08:45:14Z</time>
      </trkpt>
      <trkpt lat="43.70926" lon="6.00161">
        <ele>359.9</ele>
        <time>2023-06-11T08:45:15Z</time>
      </trkpt>
      <trkpt lat="43.70927" lon="6.0016">
        <ele>359.9</ele>
        <time>2023-06-11T08:45:16Z</time>
      </trkpt>
      <trkpt lat="43.70928" lon="6.00159">
        <ele>359.9</ele>
        <time>2023-06-11T08:45:17Z</time>
      </trkpt>
      <trkpt lat="43.70929" lon="6.00158">
        <ele>359.9</ele>
        <time>2023-06-11T08:45:18Z</time>
      </trkpt>
      <trkpt lat="43.70929" lon="6.00157">
        <ele>359.9</ele>
        <time>2023-06-11T08:45:19Z</time>
      </trkpt>
      <trkpt lat="43.7093" lon="6.00155">
        <ele>359.9</ele>
        <time>2023-06-11T08:45:20Z</time>
      </trkpt>
      <trkpt lat="43.7093" lon="6.00154">
        <ele>359.8</ele>
        <time>2023-06-11T08:45:21Z</time>
      </trkpt>
      <trkpt lat="43.7093" lon="6.00153">
        <ele>359.8</ele>
        <time>2023-06-11T08:45:22Z</time>
      </trkpt>
      <trkpt lat="43.7093" lon="6.00151">
        <ele>359.7</ele>
        <time>2023-06-11T08:45:23Z</time>
      </trkpt>
      <trkpt lat="43.70931" lon="6.0015">
        <ele>359.7</ele>
        <time>2023-06-11T08:45:24Z</time>
      </trkpt>
      <trkpt lat="43.70931" lon="6.00148">
        <ele>359.6</ele>
        <time>2023-06-11T08:45:25Z</time>
      </trkpt>
      <trkpt lat="43.70931" lon="6.00147">
        <ele>359.7</ele>
        <time>2023-06-11T08:45:26Z</time>
      </trkpt>
      <trkpt lat="43.70932" lon="6.00145">
        <ele>359.7</ele>
        <time>2023-06-11T08:45:27Z</time>
      </trkpt>
      <trkpt lat="43.70933" lon="6.00145">
        <ele>359.8</ele>
        <time>2023-06-11T08:45:28Z</time>
      </trkpt>
      <trkpt lat="43.70934" lon="6.00144">
        <ele>359.8</ele>
        <time>2023-06-11T08:45:29Z</time>
      </trkpt>
      <trkpt lat="43.70935" lon="6.00143">
        <ele>359.8</ele>
        <time>2023-06-11T08:45:30Z</time>
      </trkpt>
      <trkpt lat="43.70936" lon="6.00142">
        <ele>359.9</ele>
        <time>2023-06-11T08:45:31Z</time>
      </trkpt>
      <trkpt lat="43.70937" lon="6.00141">
        <ele>359.8</ele>
        <time>2023-06-11T08:45:32Z</time>
      </trkpt>
      <trkpt lat="43.70938" lon="6.0014">
        <ele>359.8</ele>
        <time>2023-06-11T08:45:33Z</time>
      </trkpt>
      <trkpt lat="43.7094" lon="6.00139">
        <ele>359.8</ele>
        <time>2023-06-11T08:45:34Z</time>
      </trkpt>
      <trkpt lat="43.70941" lon="6.00138">
        <ele>359.9</ele>
        <time>2023-06-11T08:45:35Z</time>
      </trkpt>
      <trkpt lat="43.70942" lon="6.00137">
        <ele>360</ele>
        <time>2023-06-11T08:45:36Z</time>
      </trkpt>
      <trkpt lat="43.70943" lon="6.00136">
        <ele>360</ele>
        <time>2023-06-11T08:45:37Z</time>
      </trkpt>
      <trkpt lat="43.70944" lon="6.00135">
        <ele>360</ele>
        <time>2023-06-11T08:45:38Z</time>
      </trkpt>
      <trkpt lat="43.70945" lon="6.00133">
        <ele>360</ele>
        <time>2023-06-11T08:45:39Z</time>
      </trkpt>
      <trkpt lat="43.70946" lon="6.00132">
        <ele>359.9</ele>
        <time>2023-06-11T08:45:40Z</time>
      </trkpt>
      <trkpt lat="43.70948" lon="6.00131">
        <ele>359.9</ele>
        <time>2023-06-11T08:45:41Z</time>
      </trkpt>
      <trkpt lat="43.70949" lon="6.0013">
        <ele>359.9</ele>
        <time>2023-06-11T08:45:42Z</time>
      </trkpt>
      <trkpt lat="43.7095" lon="6.00129">
        <ele>359.9</ele>
        <time>2023-06-11T08:45:43Z</time>
      </trkpt>
      <trkpt lat="43.70951" lon="6.00128">
        <ele>359.8</ele>
        <time>2023-06-11T08:45:44Z</time>
      </trkpt>
      <trkpt lat="43.70952" lon="6.00127">
        <ele>359.8</ele>
        <time>2023-06-11T08:45:45Z</time>
      </trkpt>
      <trkpt lat="43.70953" lon="6.00126">
        <ele>359.7</ele>
        <time>2023-06-11T08:45:46Z</time>
      </trkpt>
      <trkpt lat="43.70954" lon="6.00125">
        <ele>359.6</ele>
        <time>2023-06-11T08:45:47Z</time>
      </trkpt>
      <trkpt lat="43.70955" lon="6.00124">
        <ele>359.6</ele>
        <time>2023-06-11T08:45:48Z</time>
      </trkpt>
      <trkpt lat="43.70956" lon="6.00123">
        <ele>359.5</ele>
        <time>2023-06-11T08:45:49Z</time>
      </trkpt>
      <trkpt lat="43.70957" lon="6.00122">
        <ele>359.5</ele>
        <time>2023-06-11T08:45:50Z</time>
      </trkpt>
      <trkpt lat="43.70958" lon="6.00121">
        <ele>359.5</ele>
        <time>2023-06-11T08:45:51Z</time>
      </trkpt>
      <trkpt lat="43.70959" lon="6.0012">
        <ele>359.5</ele>
        <time>2023-06-11T08:45:52Z</time>
      </trkpt>
      <trkpt lat="43.7096" lon="6.0012">
        <ele>359.5</ele>
        <time>2023-06-11T08:45:53Z</time>
      </trkpt>
      <trkpt lat="43.70961" lon="6.00119">
        <ele>359.5</ele>
        <time>2023-06-11T08:45:54Z</time>
      </trkpt>
      <trkpt lat="43.70962" lon="6.00118">
        <ele>359.5</ele>
        <time>2023-06-11T08:45:55Z</time>
      </trkpt>
      <trkpt lat="43.70963" lon="6.00117">
        <ele>359.5</ele>
        <time>2023-06-11T08:45:56Z</time>
      </trkpt>
      <trkpt lat="43.70963" lon="6.00117">
        <ele>359.5</ele>
        <time>2023-06-11T08:45:57Z</time>
      </trkpt>
      <trkpt lat="43.70964" lon="6.00116">
        <ele>359.5</ele>
        <time>2023-06-11T08:45:58Z</time>
      </trkpt>
      <trkpt lat="43.70965" lon="6.00115">
        <ele>359.6</ele>
        <time>2023-06-11T08:45:59Z</time>
      </trkpt>
      <trkpt lat="43.70966" lon="6.00114">
        <ele>359.6</ele>
        <time>2023-06-11T08:46:00Z</time>
      </trkpt>
      <trkpt lat="43.70967" lon="6.00113">
        <ele>359.6</ele>
        <time>2023-06-11T08:46:01Z</time>
      </trkpt>
      <trkpt lat="43.70968" lon="6.00112">
        <ele>359.6</ele>
        <time>2023-06-11T08:46:02Z</time>
      </trkpt>
      <trkpt lat="43.70968" lon="6.00112">
        <ele>359.5</ele>
        <time>2023-06-11T08:46:03Z</time>
      </trkpt>
      <trkpt lat="43.70969" lon="6.00111">
        <ele>359.6</ele>
        <time>2023-06-11T08:46:04Z</time>
      </trkpt>
      <trkpt lat="43.7097" lon="6.0011">
        <ele>359.6</ele>
        <time>2023-06-11T08:46:05Z</time>
      </trkpt>
      <trkpt lat="43.70971" lon="6.00109">
        <ele>359.7</ele>
        <time>2023-06-11T08:46:06Z</time>
      </trkpt>
      <trkpt lat="43.70972" lon="6.00108">
        <ele>359.7</ele>
        <time>2023-06-11T08:46:07Z</time>
      </trkpt>
      <trkpt lat="43.70972" lon="6.00107">
        <ele>359.7</ele>
        <time>2023-06-11T08:46:08Z</time>
      </trkpt>
      <trkpt lat="43.70973" lon="6.00107">
        <ele>359.8</ele>
        <time>2023-06-11T08:46:09Z</time>
      </trkpt>
      <trkpt lat="43.70974" lon="6.00106">
        <ele>359.8</ele>
        <time>2023-06-11T08:46:10Z</time>
      </trkpt>
      <trkpt lat="43.70975" lon="6.00105">
        <ele>359.9</ele>
        <time>2023-06-11T08:46:11Z</time>
      </trkpt>
      <trkpt lat="43.70976" lon="6.00104">
        <ele>359.9</ele>
        <time>2023-06-11T08:46:12Z</time>
      </trkpt>
      <trkpt lat="43.70977" lon="6.00103">
        <ele>359.9</ele>
        <time>2023-06-11T08:46:13Z</time>
      </trkpt>
      <trkpt lat="43.70978" lon="6.00103">
        <ele>360</ele>
        <time>2023-06-11T08:46:14Z</time>
      </trkpt>
      <trkpt lat="43.70979" lon="6.00102">
        <ele>360.1</ele>
        <time>2023-06-11T08:46:15Z</time>
      </trkpt>
      <trkpt lat="43.7098" lon="6.00101">
        <ele>360.1</ele>
        <time>2023-06-11T08:46:16Z</time>
      </trkpt>
      <trkpt lat="43.70981" lon="6.001">
        <ele>360.1</ele>
        <time>2023-06-11T08:46:17Z</time>
      </trkpt>
      <trkpt lat="43.70982" lon="6.00099">
        <ele>360.1</ele>
        <time>2023-06-11T08:46:18Z</time>
      </trkpt>
      <trkpt lat="43.70983" lon="6.00098">
        <ele>360.1</ele>
        <time>2023-06-11T08:46:19Z</time>
      </trkpt>
      <trkpt lat="43.70984" lon="6.00097">
        <ele>360.1</ele>
        <time>2023-06-11T08:46:20Z</time>
      </trkpt>
      <trkpt lat="43.70985" lon="6.00096">
        <ele>360.1</ele>
        <time>2023-06-11T08:46:21Z</time>
      </trkpt>
      <trkpt lat="43.70986" lon="6.00094">
        <ele>360.1</ele>
        <time>2023-06-11T08:46:22Z</time>
      </trkpt>
      <trkpt lat="43.70987" lon="6.00093">
        <ele>360</ele>
        <time>2023-06-11T08:46:23Z</time>
      </trkpt>
      <trkpt lat="43.70988" lon="6.00092">
        <ele>360</ele>
        <time>2023-06-11T08:46:24Z</time>
      </trkpt>
      <trkpt lat="43.70989" lon="6.00091">
        <ele>359.9</ele>
        <time>2023-06-11T08:46:25Z</time>
      </trkpt>
      <trkpt lat="43.7099" lon="6.0009">
        <ele>360</ele>
        <time>2023-06-11T08:46:26Z</time>
      </trkpt>
      <trkpt lat="43.70991" lon="6.00088">
        <ele>359.9</ele>
        <time>2023-06-11T08:46:27Z</time>
      </trkpt>
      <trkpt lat="43.70992" lon="6.00087">
        <ele>360</ele>
        <time>2023-06-11T08:46:28Z</time>
      </trkpt>
      <trkpt lat="43.70992" lon="6.00085">
        <ele>360</ele>
        <time>2023-06-11T08:46:29Z</time>
      </trkpt>
      <trkpt lat="43.70993" lon="6.00084">
        <ele>360</ele>
        <time>2023-06-11T08:46:30Z</time>
      </trkpt>
      <trkpt lat="43.70994" lon="6.00082">
        <ele>360</ele>
        <time>2023-06-11T08:46:31Z</time>
      </trkpt>
      <trkpt lat="43.70996" lon="6.00081">
        <ele>360</ele>
        <time>2023-06-11T08:46:32Z</time>
      </trkpt>
      <trkpt lat="43.70997" lon="6.0008">
        <ele>360</ele>
        <time>2023-06-11T08:46:33Z</time>
      </trkpt>
      <trkpt lat="43.70998" lon="6.00078">
        <ele>360</ele>
        <time>2023-06-11T08:46:34Z</time>
      </trkpt>
      <trkpt lat="43.70999" lon="6.00077">
        <ele>360</ele>
        <time>2023-06-11T08:46:35Z</time>
      </trkpt>
      <trkpt lat="43.71" lon="6.00076">
        <ele>359.9</ele>
        <time>2023-06-11T08:46:36Z</time>
      </trkpt>
      <trkpt lat="43.71001" lon="6.00074">
        <ele>359.8</ele>
        <time>2023-06-11T08:46:37Z</time>
      </trkpt>
      <trkpt lat="43.71002" lon="6.00073">
        <ele>359.9</ele>
        <time>2023-06-11T08:46:38Z</time>
      </trkpt>
      <trkpt lat="43.71003" lon="6.00071">
        <ele>359.8</ele>
        <time>2023-06-11T08:46:39Z</time>
      </trkpt>
      <trkpt lat="43.71004" lon="6.0007">
        <ele>359.8</ele>
        <time>2023-06-11T08:46:40Z</time>
      </trkpt>
      <trkpt lat="43.71005" lon="6.00069">
        <ele>359.7</ele>
        <time>2023-06-11T08:46:41Z</time>
      </trkpt>
      <trkpt lat="43.71006" lon="6.00067">
        <ele>359.7</ele>
        <time>2023-06-11T08:46:42Z</time>
      </trkpt>
      <trkpt lat="43.71007" lon="6.00066">
        <ele>359.7</ele>
        <time>2023-06-11T08:46:43Z</time>
      </trkpt>
      <trkpt lat="43.71008" lon="6.00065">
        <ele>359.6</ele>
        <time>2023-06-11T08:46:44Z</time>
      </trkpt>
      <trkpt lat="43.71009" lon="6.00063">
        <ele>359.6</ele>
        <time>2023-06-11T08:46:45Z</time>
      </trkpt>
      <trkpt lat="43.7101" lon="6.00062">
        <ele>359.7</ele>
        <time>2023-06-11T08:46:46Z</time>
      </trkpt>
      <trkpt lat="43.71011" lon="6.0006">
        <ele>359.7</ele>
        <time>2023-06-11T08:46:47Z</time>
      </trkpt>
      <trkpt lat="43.71012" lon="6.00059">
        <ele>359.7</ele>
        <time>2023-06-11T08:46:48Z</time>
      </trkpt>
      <trkpt lat="43.71013" lon="6.00057">
        <ele>359.7</ele>
        <time>2023-06-11T08:46:49Z</time>
      </trkpt>
      <trkpt lat="43.71014" lon="6.00056">
        <ele>359.6</ele>
        <time>2023-06-11T08:46:50Z</time>
      </trkpt>
      <trkpt lat="43.71015" lon="6.00054">
        <ele>359.6</ele>
        <time>2023-06-11T08:46:51Z</time>
      </trkpt>
      <trkpt lat="43.71016" lon="6.00053">
        <ele>359.5</ele>
        <time>2023-06-11T08:46:52Z</time>
      </trkpt>
      <trkpt lat="43.71016" lon="6.00051">
        <ele>359.5</ele>
        <time>2023-06-11T08:46:53Z</time>
      </trkpt>
      <trkpt lat="43.71017" lon="6.0005">
        <ele>359.5</ele>
        <time>2023-06-11T08:46:54Z</time>
      </trkpt>
      <trkpt lat="43.71018" lon="6.00048">
        <ele>359.5</ele>
        <time>2023-06-11T08:46:55Z</time>
      </trkpt>
      <trkpt lat="43.71019" lon="6.00046">
        <ele>359.6</ele>
        <time>2023-06-11T08:46:56Z</time>
      </trkpt>
      <trkpt lat="43.7102" lon="6.00045">
        <ele>359.6</ele>
        <time>2023-06-11T08:46:57Z</time>
      </trkpt>
      <trkpt lat="43.71021" lon="6.00043">
        <ele>359.6</ele>
        <time>2023-06-11T08:46:58Z</time>
      </trkpt>
      <trkpt lat="43.71021" lon="6.00042">
        <ele>359.7</ele>
        <time>2023-06-11T08:46:59Z</time>
      </trkpt>
      <trkpt lat="43.71022" lon="6.0004">
        <ele>359.7</ele>
        <time>2023-06-11T08:47:00Z</time>
      </trkpt>
      <trkpt lat="43.71023" lon="6.00038">
        <ele>359.7</ele>
        <time>2023-06-11T08:47:01Z</time>
      </trkpt>
      <trkpt lat="43.71023" lon="6.00036">
        <ele>359.6</ele>
        <time>2023-06-11T08:47:02Z</time>
      </trkpt>
      <trkpt lat="43.71024" lon="6.00035">
        <ele>359.6</ele>
        <time>2023-06-11T08:47:03Z</time>
      </trkpt>
      <trkpt lat="43.71025" lon="6.00033">
        <ele>359.6</ele>
        <time>2023-06-11T08:47:04Z</time>
      </trkpt>
      <trkpt lat="43.71026" lon="6.00031">
        <ele>359.6</ele>
        <time>2023-06-11T08:47:05Z</time>
      </trkpt>
      <trkpt lat="43.71027" lon="6.00029">
        <ele>359.6</ele>
        <time>2023-06-11T08:47:06Z</time>
      </trkpt>
      <trkpt lat="43.71028" lon="6.00027">
        <ele>359.6</ele>
        <time>2023-06-11T08:47:07Z</time>
      </trkpt>
      <trkpt lat="43.71028" lon="6.00026">
        <ele>359.6</ele>
        <time>2023-06-11T08:47:08Z</time>
      </trkpt>
      <trkpt lat="43.71029" lon="6.00024">
        <ele>359.6</ele>
        <time>2023-06-11T08:47:09Z</time>
      </trkpt>
      <trkpt lat="43.7103" lon="6.00022">
        <ele>359.6</ele>
        <time>2023-06-11T08:47:10Z</time>
      </trkpt>
      <trkpt lat="43.7103" lon="6.0002">
        <ele>359.7</ele>
        <time>2023-06-11T08:47:11Z</time>
      </trkpt>
      <trkpt lat="43.71031" lon="6.00018">
        <ele>359.7</ele>
        <time>2023-06-11T08:47:12Z</time>
      </trkpt>
      <trkpt lat="43.71032" lon="6.00016">
        <ele>359.7</ele>
        <time>2023-06-11T08:47:13Z</time>
      </trkpt>
      <trkpt lat="43.71032" lon="6.00014">
        <ele>359.7</ele>
        <time>2023-06-11T08:47:14Z</time>
      </trkpt>
      <trkpt lat="43.71033" lon="6.00013">
        <ele>359.7</ele>
        <time>2023-06-11T08:47:15Z</time>
      </trkpt>
      <trkpt lat="43.71034" lon="6.00011">
        <ele>359.7</ele>
        <time>2023-06-11T08:47:16Z</time>
      </trkpt>
      <trkpt lat="43.71034" lon="6.00009">
        <ele>359.7</ele>
        <time>2023-06-11T08:47:17Z</time>
      </trkpt>
      <trkpt lat="43.71035" lon="6.00007">
        <ele>359.6</ele>
        <time>2023-06-11T08:47:18Z</time>
      </trkpt>
      <trkpt lat="43.71036" lon="6.00005">
        <ele>359.6</ele>
        <time>2023-06-11T08:47:19Z</time>
      </trkpt>
      <trkpt lat="43.71036" lon="6.00003">
        <ele>359.5</ele>
        <time>2023-06-11T08:47:20Z</time>
      </trkpt>
      <trkpt lat="43.71037" lon="6.00001">
        <ele>359.5</ele>
        <time>2023-06-11T08:47:21Z</time>
      </trkpt>
      <trkpt lat="43.71037" lon="5.99999">
        <ele>359.6</ele>
        <time>2023-06-11T08:47:22Z</time>
      </trkpt>
      <trkpt lat="43.71038" lon="5.99997">
        <ele>359.6</ele>
        <time>2023-06-11T08:47:23Z</time>
      </trkpt>
      <trkpt lat="43.71038" lon="5.99995">
        <ele>359.6</ele>
        <time>2023-06-11T08:47:24Z</time>
      </trkpt>
      <trkpt lat="43.71039" lon="5.99993">
        <ele>359.6</ele>
        <time>2023-06-11T08:47:25Z</time>
      </trkpt>
      <trkpt lat="43.71039" lon="5.99991">
        <ele>359.6</ele>
        <time>2023-06-11T08:47:26Z</time>
      </trkpt>
      <trkpt lat="43.7104" lon="5.99989">
        <ele>359.7</ele>
        <time>2023-06-11T08:47:27Z</time>
      </trkpt>
      <trkpt lat="43.7104" lon="5.99987">
        <ele>359.7</ele>
        <time>2023-06-11T08:47:28Z</time>
      </trkpt>
      <trkpt lat="43.7104" lon="5.99985">
        <ele>359.6</ele>
        <time>2023-06-11T08:47:29Z</time>
      </trkpt>
      <trkpt lat="43.7104" lon="5.99983">
        <ele>359.6</ele>
        <time>2023-06-11T08:47:30Z</time>
      </trkpt>
      <trkpt lat="43.7104" lon="5.99982">
        <ele>359.6</ele>
        <time>2023-06-11T08:47:31Z</time>
      </trkpt>
      <trkpt lat="43.7104" lon="5.9998">
        <ele>359.6</ele>
        <time>2023-06-11T08:47:32Z</time>
      </trkpt>
      <trkpt lat="43.71041" lon="5.99979">
        <ele>359.6</ele>
        <time>2023-06-11T08:47:33Z</time>
      </trkpt>
      <trkpt lat="43.71042" lon="5.99978">
        <ele>359.6</ele>
        <time>2023-06-11T08:47:34Z</time>
      </trkpt>
      <trkpt lat="43.71043" lon="5.99977">
        <ele>359.6</ele>
        <time>2023-06-11T08:47:35Z</time>
      </trkpt>
      <trkpt lat="43.71044" lon="5.99976">
        <ele>359.6</ele>
        <time>2023-06-11T08:47:36Z</time>
      </trkpt>
      <trkpt lat="43.71045" lon="5.99976">
        <ele>359.7</ele>
        <time>2023-06-11T08:47:37Z</time>
      </trkpt>
      <trkpt lat="43.71046" lon="5.99976">
        <ele>359.6</ele>
        <time>2023-06-11T08:47:38Z</time>
      </trkpt>
      <trkpt lat="43.71047" lon="5.99976">
        <ele>359.6</ele>
        <time>2023-06-11T08:47:39Z</time>
      </trkpt>
      <trkpt lat="43.71048" lon="5.99976">
        <ele>359.6</ele>
        <time>2023-06-11T08:47:40Z</time>
      </trkpt>
      <trkpt lat="43.71049" lon="5.99977">
        <ele>359.6</ele>
        <time>2023-06-11T08:47:41Z</time>
      </trkpt>
      <trkpt lat="43.7105" lon="5.99977">
        <ele>359.6</ele>
        <time>2023-06-11T08:47:42Z</time>
      </trkpt>
      <trkpt lat="43.71051" lon="5.99978">
        <ele>359.7</ele>
        <time>2023-06-11T08:47:43Z</time>
      </trkpt>
      <trkpt lat="43.71051" lon="5.99979">
        <ele>359.8</ele>
        <time>2023-06-11T08:47:44Z</time>
      </trkpt>
      <trkpt lat="43.71052" lon="5.99981">
        <ele>359.7</ele>
        <time>2023-06-11T08:47:45Z</time>
      </trkpt>
      <trkpt lat="43.71053" lon="5.99982">
        <ele>359.6</ele>
        <time>2023-06-11T08:47:46Z</time>
      </trkpt>
      <trkpt lat="43.71053" lon="5.99983">
        <ele>359.6</ele>
        <time>2023-06-11T08:47:47Z</time>
      </trkpt>
      <trkpt lat="43.71053" lon="5.99985">
        <ele>359.5</ele>
        <time>2023-06-11T08:47:48Z</time>
      </trkpt>
      <trkpt lat="43.71053" lon="5.99986">
        <ele>359.5</ele>
        <time>2023-06-11T08:47:49Z</time>
      </trkpt>
      <trkpt lat="43.71052" lon="5.99987">
        <ele>359.5</ele>
        <time>2023-06-11T08:47:50Z</time>
      </trkpt>
      <trkpt lat="43.71052" lon="5.99989">
        <ele>359.5</ele>
        <time>2023-06-11T08:47:51Z</time>
      </trkpt>
      <trkpt lat="43.71051" lon="5.9999">
        <ele>359.5</ele>
        <time>2023-06-11T08:47:52Z</time>
      </trkpt>
      <trkpt lat="43.71051" lon="5.99991">
        <ele>359.6</ele>
        <time>2023-06-11T08:47:53Z</time>
      </trkpt>
      <trkpt lat="43.7105" lon="5.99991">
        <ele>359.6</ele>
        <time>2023-06-11T08:47:54Z</time>
      </trkpt>
      <trkpt lat="43.71049" lon="5.99992">
        <ele>359.6</ele>
        <time>2023-06-11T08:47:55Z</time>
      </trkpt>
      <trkpt lat="43.71048" lon="5.99992">
        <ele>359.6</ele>
        <time>2023-06-11T08:47:56Z</time>
      </trkpt>
      <trkpt lat="43.71047" lon="5.99992">
        <ele>359.6</ele>
        <time>2023-06-11T08:47:57Z</time>
      </trkpt>
      <trkpt lat="43.71046" lon="5.99992">
        <ele>359.7</ele>
        <time>2023-06-11T08:47:58Z</time>
      </trkpt>
      <trkpt lat="43.71046" lon="5.99992">
        <ele>359.7</ele>
        <time>2023-06-11T08:47:59Z</time>
      </trkpt>
      <trkpt lat="43.71045" lon="5.99991">
        <ele>359.7</ele>
        <time>2023-06-11T08:48:00Z</time>
      </trkpt>
      <trkpt lat="43.71044" lon="5.9999">
        <ele>359.8</ele>
        <time>2023-06-11T08:48:01Z</time>
      </trkpt>
      <trkpt lat="43.71044" lon="5.99989">
        <ele>359.8</ele>
        <time>2023-06-11T08:48:02Z</time>
      </trkpt>
      <trkpt lat="43.71043" lon="5.99988">
        <ele>359.8</ele>
        <time>2023-06-11T08:48:03Z</time>
      </trkpt>
      <trkpt lat="43.71043" lon="5.99987">
        <ele>359.8</ele>
        <time>2023-06-11T08:48:04Z</time>
      </trkpt>
      <trkpt lat="43.71043" lon="5.99986">
        <ele>359.8</ele>
        <time>2023-06-11T08:48:05Z</time>
      </trkpt>
      <trkpt lat="43.71044" lon="5.99985">
        <ele>359.8</ele>
        <time>2023-06-11T08:48:06Z</time>
      </trkpt>
      <trkpt lat="43.71044" lon="5.99984">
        <ele>359.8</ele>
        <time>2023-06-11T08:48:07Z</time>
      </trkpt>
      <trkpt lat="43.71044" lon="5.99982">
        <ele>359.8</ele>
        <time>2023-06-11T08:48:08Z</time>
      </trkpt>
      <trkpt lat="43.71045" lon="5.99981">
        <ele>359.8</ele>
        <time>2023-06-11T08:48:09Z</time>
      </trkpt>
      <trkpt lat="43.71045" lon="5.99979">
        <ele>359.7</ele>
        <time>2023-06-11T08:48:10Z</time>
      </trkpt>
      <trkpt lat="43.71046" lon="5.99978">
        <ele>359.7</ele>
        <time>2023-06-11T08:48:11Z</time>
      </trkpt>
      <trkpt lat="43.71046" lon="5.99977">
        <ele>359.7</ele>
        <time>2023-06-11T08:48:12Z</time>
      </trkpt>
      <trkpt lat="43.71047" lon="5.99975">
        <ele>359.8</ele>
        <time>2023-06-11T08:48:13Z</time>
      </trkpt>
      <trkpt lat="43.71047" lon="5.99973">
        <ele>359.8</ele>
        <time>2023-06-11T08:48:14Z</time>
      </trkpt>
      <trkpt lat="43.71048" lon="5.99972">
        <ele>359.8</ele>
        <time>2023-06-11T08:48:15Z</time>
      </trkpt>
      <trkpt lat="43.71049" lon="5.9997">
        <ele>359.8</ele>
        <time>2023-06-11T08:48:16Z</time>
      </trkpt>
      <trkpt lat="43.71049" lon="5.99969">
        <ele>359.7</ele>
        <time>2023-06-11T08:48:17Z</time>
      </trkpt>
      <trkpt lat="43.7105" lon="5.99967">
        <ele>359.7</ele>
        <time>2023-06-11T08:48:18Z</time>
      </trkpt>
      <trkpt lat="43.71051" lon="5.99966">
        <ele>359.7</ele>
        <time>2023-06-11T08:48:19Z</time>
      </trkpt>
      <trkpt lat="43.71051" lon="5.99964">
        <ele>359.8</ele>
        <time>2023-06-11T08:48:20Z</time>
      </trkpt>
      <trkpt lat="43.71052" lon="5.99963">
        <ele>359.8</ele>
        <time>2023-06-11T08:48:21Z</time>
      </trkpt>
      <trkpt lat="43.71053" lon="5.99961">
        <ele>359.8</ele>
        <time>2023-06-11T08:48:22Z</time>
      </trkpt>
      <trkpt lat="43.71054" lon="5.9996">
        <ele>359.8</ele>
        <time>2023-06-11T08:48:23Z</time>
      </trkpt>
      <trkpt lat="43.71055" lon="5.99958">
        <ele>359.8</ele>
        <time>2023-06-11T08:48:24Z</time>
      </trkpt>
      <trkpt lat="43.71056" lon="5.99956">
        <ele>359.8</ele>
        <time>2023-06-11T08:48:25Z</time>
      </trkpt>
      <trkpt lat="43.71056" lon="5.99955">
        <ele>359.7</ele>
        <time>2023-06-11T08:48:26Z</time>
      </trkpt>
      <trkpt lat="43.71057" lon="5.99953">
        <ele>359.7</ele>
        <time>2023-06-11T08:48:27Z</time>
      </trkpt>
      <trkpt lat="43.71058" lon="5.99952">
        <ele>359.6</ele>
        <time>2023-06-11T08:48:28Z</time>
      </trkpt>
      <trkpt lat="43.71059" lon="5.9995">
        <ele>359.6</ele>
        <time>2023-06-11T08:48:29Z</time>
      </trkpt>
      <trkpt lat="43.7106" lon="5.99949">
        <ele>359.5</ele>
        <time>2023-06-11T08:48:30Z</time>
      </trkpt>
      <trkpt lat="43.71061" lon="5.99947">
        <ele>359.5</ele>
        <time>2023-06-11T08:48:31Z</time>
      </trkpt>
      <trkpt lat="43.71062" lon="5.99946">
        <ele>359.4</ele>
        <time>2023-06-11T08:48:32Z</time>
      </trkpt>
      <trkpt lat="43.71063" lon="5.99944">
        <ele>359.4</ele>
        <time>2023-06-11T08:48:33Z</time>
      </trkpt>
      <trkpt lat="43.71064" lon="5.99942">
        <ele>359.5</ele>
        <time>2023-06-11T08:48:34Z</time>
      </trkpt>
      <trkpt lat="43.71064" lon="5.99941">
        <ele>359.5</ele>
        <time>2023-06-11T08:48:35Z</time>
      </trkpt>
      <trkpt lat="43.71065" lon="5.99939">
        <ele>359.5</ele>
        <time>2023-06-11T08:48:36Z</time>
      </trkpt>
      <trkpt lat="43.71066" lon="5.99938">
        <ele>359.6</ele>
        <time>2023-06-11T08:48:37Z</time>
      </trkpt>
      <trkpt lat="43.71067" lon="5.99937">
        <ele>359.7</ele>
        <time>2023-06-11T08:48:38Z</time>
      </trkpt>
      <trkpt lat="43.71069" lon="5.99936">
        <ele>359.8</ele>
        <time>2023-06-11T08:48:39Z</time>
      </trkpt>
      <trkpt lat="43.7107" lon="5.99934">
        <ele>359.9</ele>
        <time>2023-06-11T08:48:40Z</time>
      </trkpt>
      <trkpt lat="43.71071" lon="5.99933">
        <ele>359.9</ele>
        <time>2023-06-11T08:48:41Z</time>
      </trkpt>
      <trkpt lat="43.71072" lon="5.99932">
        <ele>359.9</ele>
        <time>2023-06-11T08:48:42Z</time>
      </trkpt>
      <trkpt lat="43.71073" lon="5.9993">
        <ele>360</ele>
        <time>2023-06-11T08:48:43Z</time>
      </trkpt>
      <trkpt lat="43.71074" lon="5.99929">
        <ele>360.1</ele>
        <time>2023-06-11T08:48:44Z</time>
      </trkpt>
      <trkpt lat="43.71075" lon="5.99928">
        <ele>360</ele>
        <time>2023-06-11T08:48:45Z</time>
      </trkpt>
      <trkpt lat="43.71076" lon="5.99926">
        <ele>360</ele>
        <time>2023-06-11T08:48:46Z</time>
      </trkpt>
      <trkpt lat="43.71078" lon="5.99925">
        <ele>360</ele>
        <time>2023-06-11T08:48:47Z</time>
      </trkpt>
      <trkpt lat="43.71079" lon="5.99924">
        <ele>359.9</ele>
        <time>2023-06-11T08:48:48Z</time>
      </trkpt>
      <trkpt lat="43.7108" lon="5.99923">
        <ele>359.9</ele>
        <time>2023-06-11T08:48:49Z</time>
      </trkpt>
      <trkpt lat="43.71081" lon="5.99921">
        <ele>359.9</ele>
        <time>2023-06-11T08:48:50Z</time>
      </trkpt>
      <trkpt lat="43.71082" lon="5.9992">
        <ele>359.8</ele>
        <time>2023-06-11T08:48:51Z</time>
      </trkpt>
      <trkpt lat="43.71083" lon="5.99918">
        <ele>359.7</ele>
        <time>2023-06-11T08:48:52Z</time>
      </trkpt>
      <trkpt lat="43.71084" lon="5.99917">
        <ele>359.7</ele>
        <time>2023-06-11T08:48:53Z</time>
      </trkpt>
      <trkpt lat="43.71084" lon="5.99915">
        <ele>359.7</ele>
        <time>2023-06-11T08:48:54Z</time>
      </trkpt>
      <trkpt lat="43.71085" lon="5.99914">
        <ele>359.7</ele>
        <time>2023-06-11T08:48:55Z</time>
      </trkpt>
      <trkpt lat="43.71086" lon="5.99912">
        <ele>359.7</ele>
        <time>2023-06-11T08:48:56Z</time>
      </trkpt>
      <trkpt lat="43.71087" lon="5.99911">
        <ele>359.8</ele>
        <time>2023-06-11T08:48:57Z</time>
      </trkpt>
      <trkpt lat="43.71088" lon="5.99909">
        <ele>359.8</ele>
        <time>2023-06-11T08:48:58Z</time>
      </trkpt>
      <trkpt lat="43.71089" lon="5.99908">
        <ele>359.7</ele>
        <time>2023-06-11T08:48:59Z</time>
      </trkpt>
      <trkpt lat="43.7109" lon="5.99906">
        <ele>359.7</ele>
        <time>2023-06-11T08:49:00Z</time>
      </trkpt>
      <trkpt lat="43.71091" lon="5.99904">
        <ele>359.7</ele>
        <time>2023-06-11T08:49:01Z</time>
      </trkpt>
      <trkpt lat="43.71092" lon="5.99903">
        <ele>359.6</ele>
        <time>2023-06-11T08:49:02Z</time>
      </trkpt>
      <trkpt lat="43.71093" lon="5.99901">
        <ele>359.6</ele>
        <time>2023-06-11T08:49:03Z</time>
      </trkpt>
      <trkpt lat="43.71093" lon="5.999">
        <ele>359.5</ele>
        <time>2023-06-11T08:49:04Z</time>
      </trkpt>
      <trkpt lat="43.71094" lon="5.99898">
        <ele>359.5</ele>
        <time>2023-06-11T08:49:05Z</time>
      </trkpt>
      <trkpt lat="43.71095" lon="5.99896">
        <ele>359.5</ele>
        <time>2023-06-11T08:49:06Z</time>
      </trkpt>
      <trkpt lat="43.71096" lon="5.99894">
        <ele>359.5</ele>
        <time>2023-06-11T08:49:07Z</time>
      </trkpt>
      <trkpt lat="43.71096" lon="5.99892">
        <ele>359.6</ele>
        <time>2023-06-11T08:49:08Z</time>
      </trkpt>
      <trkpt lat="43.71097" lon="5.99891">
        <ele>359.6</ele>
        <time>2023-06-11T08:49:09Z</time>
      </trkpt>
      <trkpt lat="43.71097" lon="5.99889">
        <ele>359.6</ele>
        <time>2023-06-11T08:49:10Z</time>
      </trkpt>
      <trkpt lat="43.71098" lon="5.99887">
        <ele>359.6</ele>
        <time>2023-06-11T08:49:11Z</time>
      </trkpt>
      <trkpt lat="43.71099" lon="5.99885">
        <ele>359.7</ele>
        <time>2023-06-11T08:49:12Z</time>
      </trkpt>
      <trkpt lat="43.71099" lon="5.99883">
        <ele>359.7</ele>
        <time>2023-06-11T08:49:13Z</time>
      </trkpt>
      <trkpt lat="43.711" lon="5.99882">
        <ele>359.7</ele>
        <time>2023-06-11T08:49:14Z</time>
      </trkpt>
      <trkpt lat="43.71101" lon="5.9988">
        <ele>359.6</ele>
        <time>2023-06-11T08:49:15Z</time>
      </trkpt>
      <trkpt lat="43.71102" lon="5.99878">
        <ele>359.6</ele>
        <time>2023-06-11T08:49:16Z</time>
      </trkpt>
      <trkpt lat="43.71102" lon="5.99876">
        <ele>359.7</ele>
        <time>2023-06-11T08:49:17Z</time>
      </trkpt>
      <trkpt lat="43.71103" lon="5.99875">
        <ele>359.7</ele>
        <time>2023-06-11T08:49:18Z</time>
      </trkpt>
      <trkpt lat="43.71104" lon="5.99873">
        <ele>359.7</ele>
        <time>2023-06-11T08:49:19Z</time>
      </trkpt>
      <trkpt lat="43.71105" lon="5.99871">
        <ele>359.6</ele>
        <time>2023-06-11T08:49:20Z</time>
      </trkpt>
      <trkpt lat="43.71105" lon="5.9987">
        <ele>359.6</ele>
        <time>2023-06-11T08:49:21Z</time>
      </trkpt>
      <trkpt lat="43.71106" lon="5.99868">
        <ele>359.7</ele>
        <time>2023-06-11T08:49:22Z</time>
      </trkpt>
      <trkpt lat="43.71107" lon="5.99866">
        <ele>359.7</ele>
        <time>2023-06-11T08:49:23Z</time>
      </trkpt>
      <trkpt lat="43.71108" lon="5.99864">
        <ele>359.7</ele>
        <time>2023-06-11T08:49:24Z</time>
      </trkpt>
      <trkpt lat="43.71109" lon="5.99863">
        <ele>359.7</ele>
        <time>2023-06-11T08:49:25Z</time>
      </trkpt>
      <trkpt lat="43.71109" lon="5.99861">
        <ele>359.7</ele>
        <time>2023-06-11T08:49:26Z</time>
      </trkpt>
      <trkpt lat="43.7111" lon="5.99859">
        <ele>359.7</ele>
        <time>2023-06-11T08:49:27Z</time>
      </trkpt>
      <trkpt lat="43.71111" lon="5.99857">
        <ele>359.7</ele>
        <time>2023-06-11T08:49:28Z</time>
      </trkpt>
      <trkpt lat="43.71111" lon="5.99856">
        <ele>359.7</ele>
        <time>2023-06-11T08:49:29Z</time>
      </trkpt>
      <trkpt lat="43.71112" lon="5.99854">
        <ele>359.6</ele>
        <time>2023-06-11T08:49:30Z</time>
      </trkpt>
      <trkpt lat="43.71112" lon="5.99852">
        <ele>359.6</ele>
        <time>2023-06-11T08:49:31Z</time>
      </trkpt>
      <trkpt lat="43.71113" lon="5.9985">
        <ele>359.6</ele>
        <time>2023-06-11T08:49:32Z</time>
      </trkpt>
      <trkpt lat="43.71113" lon="5.99848">
        <ele>359.6</ele>
        <time>2023-06-11T08:49:33Z</time>
      </trkpt>
      <trkpt lat="43.71114" lon="5.99846">
        <ele>359.6</ele>
        <time>2023-06-11T08:49:34Z</time>
      </trkpt>
      <trkpt lat="43.71114" lon="5.99844">
        <ele>359.7</ele>
        <time>2023-06-11T08:49:35Z</time>
      </trkpt>
      <trkpt lat="43.71115" lon="5.99842">
        <ele>359.8</ele>
        <time>2023-06-11T08:49:36Z</time>
      </trkpt>
      <trkpt lat="43.71115" lon="5.99841">
        <ele>359.7</ele>
        <time>2023-06-11T08:49:37Z</time>
      </trkpt>
      <trkpt lat="43.71116" lon="5.99839">
        <ele>359.7</ele>
        <time>2023-06-11T08:49:38Z</time>
      </trkpt>
      <trkpt lat="43.71116" lon="5.99837">
        <ele>359.8</ele>
        <time>2023-06-11T08:49:39Z</time>
      </trkpt>
      <trkpt lat="43.71116" lon="5.99835">
        <ele>359.8</ele>
        <time>2023-06-11T08:49:40Z</time>
      </trkpt>
      <trkpt lat="43.71117" lon="5.99833">
        <ele>359.8</ele>
        <time>2023-06-11T08:49:41Z</time>
      </trkpt>
      <trkpt lat="43.71117" lon="5.99831">
        <ele>359.8</ele>
        <time>2023-06-11T08:49:42Z</time>
      </trkpt>
      <trkpt lat="43.71118" lon="5.99829">
        <ele>359.8</ele>
        <time>2023-06-11T08:49:43Z</time>
      </trkpt>
      <trkpt lat="43.71118" lon="5.99827">
        <ele>359.7</ele>
        <time>2023-06-11T08:49:44Z</time>
      </trkpt>
      <trkpt lat="43.71118" lon="5.99825">
        <ele>359.7</ele>
        <time>2023-06-11T08:49:45Z</time>
      </trkpt>
      <trkpt lat="43.71118" lon="5.99823">
        <ele>359.7</ele>
        <time>2023-06-11T08:49:46Z</time>
      </trkpt>
      <trkpt lat="43.71119" lon="5.99821">
        <ele>359.6</ele>
        <time>2023-06-11T08:49:47Z</time>
      </trkpt>
      <trkpt lat="43.71119" lon="5.99819">
        <ele>359.6</ele>
        <time>2023-06-11T08:49:48Z</time>
      </trkpt>
      <trkpt lat="43.7112" lon="5.99817">
        <ele>359.6</ele>
        <time>2023-06-11T08:49:49Z</time>
      </trkpt>
      <trkpt lat="43.7112" lon="5.99815">
        <ele>359.6</ele>
        <time>2023-06-11T08:49:50Z</time>
      </trkpt>
      <trkpt lat="43.71121" lon="5.99813">
        <ele>359.6</ele>
        <time>2023-06-11T08:49:51Z</time>
      </trkpt>
      <trkpt lat="43.71121" lon="5.99811">
        <ele>359.6</ele>
        <time>2023-06-11T08:49:52Z</time>
      </trkpt>
      <trkpt lat="43.71121" lon="5.99809">
        <ele>359.5</ele>
        <time>2023-06-11T08:49:53Z</time>
      </trkpt>
      <trkpt lat="43.71122" lon="5.99807">
        <ele>359.5</ele>
        <time>2023-06-11T08:49:54Z</time>
      </trkpt>
      <trkpt lat="43.71122" lon="5.99805">
        <ele>359.5</ele>
        <time>2023-06-11T08:49:55Z</time>
      </trkpt>
      <trkpt lat="43.71122" lon="5.99804">
        <ele>359.4</ele>
        <time>2023-06-11T08:49:56Z</time>
      </trkpt>
      <trkpt lat="43.71123" lon="5.99802">
        <ele>359.6</ele>
        <time>2023-06-11T08:49:57Z</time>
      </trkpt>
      <trkpt lat="43.71123" lon="5.998">
        <ele>359.5</ele>
        <time>2023-06-11T08:49:58Z</time>
      </trkpt>
      <trkpt lat="43.71124" lon="5.99798">
        <ele>359.5</ele>
        <time>2023-06-11T08:49:59Z</time>
      </trkpt>
      <trkpt lat="43.71124" lon="5.99796">
        <ele>359.6</ele>
        <time>2023-06-11T08:50:00Z</time>
      </trkpt>
      <trkpt lat="43.71124" lon="5.99794">
        <ele>359.5</ele>
        <time>2023-06-11T08:50:01Z</time>
      </trkpt>
      <trkpt lat="43.71125" lon="5.99792">
        <ele>359.5</ele>
        <time>2023-06-11T08:50:02Z</time>
      </trkpt>
      <trkpt lat="43.71125" lon="5.9979">
        <ele>359.5</ele>
        <time>2023-06-11T08:50:03Z</time>
      </trkpt>
      <trkpt lat="43.71125" lon="5.99788">
        <ele>359.5</ele>
        <time>2023-06-11T08:50:04Z</time>
      </trkpt>
      <trkpt lat="43.71126" lon="5.99786">
        <ele>359.6</ele>
        <time>2023-06-11T08:50:05Z</time>
      </trkpt>
      <trkpt lat="43.71126" lon="5.99784">
        <ele>359.6</ele>
        <time>2023-06-11T08:50:06Z</time>
      </trkpt>
      <trkpt lat="43.71127" lon="5.99782">
        <ele>359.6</ele>
        <time>2023-06-11T08:50:07Z</time>
      </trkpt>
      <trkpt lat="43.71127" lon="5.9978">
        <ele>359.6</ele>
        <time>2023-06-11T08:50:08Z</time>
      </trkpt>
      <trkpt lat="43.71127" lon="5.99778">
        <ele>359.6</ele>
        <time>2023-06-11T08:50:09Z</time>
      </trkpt>
      <trkpt lat="43.71128" lon="5.99776">
        <ele>359.6</ele>
        <time>2023-06-11T08:50:10Z</time>
      </trkpt>
      <trkpt lat="43.71128" lon="5.99774">
        <ele>359.6</ele>
        <time>2023-06-11T08:50:11Z</time>
      </trkpt>
      <trkpt lat="43.71128" lon="5.99772">
        <ele>359.6</ele>
        <time>2023-06-11T08:50:12Z</time>
      </trkpt>
      <trkpt lat="43.71129" lon="5.9977">
        <ele>359.6</ele>
        <time>2023-06-11T08:50:13Z</time>
      </trkpt>
      <trkpt lat="43.71129" lon="5.99768">
        <ele>359.5</ele>
        <time>2023-06-11T08:50:14Z</time>
      </trkpt>
      <trkpt lat="43.71129" lon="5.99766">
        <ele>359.5</ele>
        <time>2023-06-11T08:50:15Z</time>
      </trkpt>
      <trkpt lat="43.7113" lon="5.99764">
        <ele>359.5</ele>
        <time>2023-06-11T08:50:16Z</time>
      </trkpt>
      <trkpt lat="43.7113" lon="5.99762">
        <ele>359.5</ele>
        <time>2023-06-11T08:50:17Z</time>
      </trkpt>
      <trkpt lat="43.7113" lon="5.99761">
        <ele>359.6</ele>
        <time>2023-06-11T08:50:18Z</time>
      </trkpt>
      <trkpt lat="43.71131" lon="5.99759">
        <ele>359.5</ele>
        <time>2023-06-11T08:50:19Z</time>
      </trkpt>
      <trkpt lat="43.71131" lon="5.99757">
        <ele>359.5</ele>
        <time>2023-06-11T08:50:20Z</time>
      </trkpt>
      <trkpt lat="43.71131" lon="5.99755">
        <ele>359.5</ele>
        <time>2023-06-11T08:50:21Z</time>
      </trkpt>
      <trkpt lat="43.71131" lon="5.99753">
        <ele>359.5</ele>
        <time>2023-06-11T08:50:22Z</time>
      </trkpt>
      <trkpt lat="43.71131" lon="5.9975">
        <ele>359.5</ele>
        <time>2023-06-11T08:50:23Z</time>
      </trkpt>
      <trkpt lat="43.71131" lon="5.99749">
        <ele>359.6</ele>
        <time>2023-06-11T08:50:24Z</time>
      </trkpt>
      <trkpt lat="43.71132" lon="5.99747">
        <ele>359.6</ele>
        <time>2023-06-11T08:50:25Z</time>
      </trkpt>
      <trkpt lat="43.71132" lon="5.99745">
        <ele>359.6</ele>
        <time>2023-06-11T08:50:26Z</time>
      </trkpt>
      <trkpt lat="43.71132" lon="5.99743">
        <ele>359.5</ele>
        <time>2023-06-11T08:50:27Z</time>
      </trkpt>
      <trkpt lat="43.71132" lon="5.99741">
        <ele>359.5</ele>
        <time>2023-06-11T08:50:28Z</time>
      </trkpt>
      <trkpt lat="43.71132" lon="5.99739">
        <ele>359.5</ele>
        <time>2023-06-11T08:50:29Z</time>
      </trkpt>
      <trkpt lat="43.71132" lon="5.99737">
        <ele>359.5</ele>
        <time>2023-06-11T08:50:30Z</time>
      </trkpt>
      <trkpt lat="43.71132" lon="5.99735">
        <ele>359.5</ele>
        <time>2023-06-11T08:50:31Z</time>
      </trkpt>
      <trkpt lat="43.71133" lon="5.99733">
        <ele>359.5</ele>
        <time>2023-06-11T08:50:32Z</time>
      </trkpt>
      <trkpt lat="43.71133" lon="5.99731">
        <ele>359.5</ele>
        <time>2023-06-11T08:50:33Z</time>
      </trkpt>
      <trkpt lat="43.71133" lon="5.99729">
        <ele>359.6</ele>
        <time>2023-06-11T08:50:34Z</time>
      </trkpt>
      <trkpt lat="43.71133" lon="5.99727">
        <ele>359.6</ele>
        <time>2023-06-11T08:50:35Z</time>
      </trkpt>
      <trkpt lat="43.71133" lon="5.99725">
        <ele>359.6</ele>
        <time>2023-06-11T08:50:36Z</time>
      </trkpt>
      <trkpt lat="43.71133" lon="5.99723">
        <ele>359.5</ele>
        <time>2023-06-11T08:50:37Z</time>
      </trkpt>
      <trkpt lat="43.71133" lon="5.99721">
        <ele>359.4</ele>
        <time>2023-06-11T08:50:38Z</time>
      </trkpt>
      <trkpt lat="43.71134" lon="5.99719">
        <ele>359.4</ele>
        <time>2023-06-11T08:50:39Z</time>
      </trkpt>
      <trkpt lat="43.71134" lon="5.99717">
        <ele>359.5</ele>
        <time>2023-06-11T08:50:40Z</time>
      </trkpt>
      <trkpt lat="43.71134" lon="5.99715">
        <ele>359.4</ele>
        <time>2023-06-11T08:50:41Z</time>
      </trkpt>
      <trkpt lat="43.71134" lon="5.99713">
        <ele>359.5</ele>
        <time>2023-06-11T08:50:42Z</time>
      </trkpt>
      <trkpt lat="43.71134" lon="5.99711">
        <ele>359.5</ele>
        <time>2023-06-11T08:50:43Z</time>
      </trkpt>
      <trkpt lat="43.71134" lon="5.99709">
        <ele>359.5</ele>
        <time>2023-06-11T08:50:44Z</time>
      </trkpt>
      <trkpt lat="43.71134" lon="5.99707">
        <ele>359.5</ele>
        <time>2023-06-11T08:50:45Z</time>
      </trkpt>
      <trkpt lat="43.71134" lon="5.99705">
        <ele>359.6</ele>
        <time>2023-06-11T08:50:46Z</time>
      </trkpt>
      <trkpt lat="43.71135" lon="5.99703">
        <ele>359.6</ele>
        <time>2023-06-11T08:50:47Z</time>
      </trkpt>
      <trkpt lat="43.71135" lon="5.99701">
        <ele>359.7</ele>
        <time>2023-06-11T08:50:48Z</time>
      </trkpt>
      <trkpt lat="43.71135" lon="5.997">
        <ele>359.6</ele>
        <time>2023-06-11T08:50:49Z</time>
      </trkpt>
      <trkpt lat="43.71135" lon="5.99698">
        <ele>359.6</ele>
        <time>2023-06-11T08:50:50Z</time>
      </trkpt>
      <trkpt lat="43.71135" lon="5.99696">
        <ele>359.6</ele>
        <time>2023-06-11T08:50:51Z</time>
      </trkpt>
      <trkpt lat="43.71135" lon="5.99694">
        <ele>359.6</ele>
        <time>2023-06-11T08:50:52Z</time>
      </trkpt>
      <trkpt lat="43.71135" lon="5.99692">
        <ele>359.6</ele>
        <time>2023-06-11T08:50:53Z</time>
      </trkpt>
      <trkpt lat="43.71135" lon="5.9969">
        <ele>359.6</ele>
        <time>2023-06-11T08:50:54Z</time>
      </trkpt>
      <trkpt lat="43.71135" lon="5.99688">
        <ele>359.7</ele>
        <time>2023-06-11T08:50:55Z</time>
      </trkpt>
      <trkpt lat="43.71135" lon="5.99686">
        <ele>359.8</ele>
        <time>2023-06-11T08:50:56Z</time>
      </trkpt>
      <trkpt lat="43.71135" lon="5.99684">
        <ele>359.8</ele>
        <time>2023-06-11T08:50:57Z</time>
      </trkpt>
      <trkpt lat="43.71135" lon="5.99682">
        <ele>359.9</ele>
        <time>2023-06-11T08:50:58Z</time>
      </trkpt>
      <trkpt lat="43.71135" lon="5.9968">
        <ele>359.9</ele>
        <time>2023-06-11T08:50:59Z</time>
      </trkpt>
      <trkpt lat="43.71135" lon="5.99679">
        <ele>359.9</ele>
        <time>2023-06-11T08:51:00Z</time>
      </trkpt>
      <trkpt lat="43.71136" lon="5.99677">
        <ele>359.9</ele>
        <time>2023-06-11T08:51:01Z</time>
      </trkpt>
      <trkpt lat="43.71136" lon="5.99675">
        <ele>359.9</ele>
        <time>2023-06-11T08:51:02Z</time>
      </trkpt>
      <trkpt lat="43.71136" lon="5.99673">
        <ele>359.9</ele>
        <time>2023-06-11T08:51:03Z</time>
      </trkpt>
      <trkpt lat="43.71137" lon="5.99671">
        <ele>359.9</ele>
        <time>2023-06-11T08:51:04Z</time>
      </trkpt>
      <trkpt lat="43.71137" lon="5.9967">
        <ele>359.9</ele>
        <time>2023-06-11T08:51:05Z</time>
      </trkpt>
      <trkpt lat="43.71137" lon="5.99668">
        <ele>359.9</ele>
        <time>2023-06-11T08:51:06Z</time>
      </trkpt>
      <trkpt lat="43.71137" lon="5.99666">
        <ele>359.9</ele>
        <time>2023-06-11T08:51:07Z</time>
      </trkpt>
      <trkpt lat="43.71137" lon="5.99664">
        <ele>359.9</ele>
        <time>2023-06-11T08:51:08Z</time>
      </trkpt>
      <trkpt lat="43.71137" lon="5.99662">
        <ele>359.8</ele>
        <time>2023-06-11T08:51:09Z</time>
      </trkpt>
      <trkpt lat="43.71137" lon="5.9966">
        <ele>359.8</ele>
        <time>2023-06-11T08:51:10Z</time>
      </trkpt>
      <trkpt lat="43.71137" lon="5.99658">
        <ele>359.8</ele>
        <time>2023-06-11T08:51:11Z</time>
      </trkpt>
      <trkpt lat="43.71138" lon="5.99657">
        <ele>359.7</ele>
        <time>2023-06-11T08:51:12Z</time>
      </trkpt>
      <trkpt lat="43.71138" lon="5.99655">
        <ele>359.8</ele>
        <time>2023-06-11T08:51:13Z</time>
      </trkpt>
      <trkpt lat="43.71138" lon="5.99653">
        <ele>359.8</ele>
        <time>2023-06-11T08:51:14Z</time>
      </trkpt>
      <trkpt lat="43.71138" lon="5.99651">
        <ele>359.7</ele>
        <time>2023-06-11T08:51:15Z</time>
      </trkpt>
      <trkpt lat="43.71138" lon="5.99649">
        <ele>359.7</ele>
        <time>2023-06-11T08:51:16Z</time>
      </trkpt>
      <trkpt lat="43.71138" lon="5.99647">
        <ele>359.6</ele>
        <time>2023-06-11T08:51:17Z</time>
      </trkpt>
      <trkpt lat="43.71138" lon="5.99646">
        <ele>359.6</ele>
        <time>2023-06-11T08:51:18Z</time>
      </trkpt>
      <trkpt lat="43.71138" lon="5.99644">
        <ele>359.6</ele>
        <time>2023-06-11T08:51:19Z</time>
      </trkpt>
      <trkpt lat="43.71138" lon="5.99642">
        <ele>359.6</ele>
        <time>2023-06-11T08:51:20Z</time>
      </trkpt>
      <trkpt lat="43.71138" lon="5.9964">
        <ele>359.6</ele>
        <time>2023-06-11T08:51:21Z</time>
      </trkpt>
      <trkpt lat="43.71138" lon="5.99639">
        <ele>359.6</ele>
        <time>2023-06-11T08:51:22Z</time>
      </trkpt>
      <trkpt lat="43.71138" lon="5.99637">
        <ele>359.6</ele>
        <time>2023-06-11T08:51:23Z</time>
      </trkpt>
      <trkpt lat="43.71138" lon="5.99635">
        <ele>359.6</ele>
        <time>2023-06-11T08:51:24Z</time>
      </trkpt>
      <trkpt lat="43.71139" lon="5.99633">
        <ele>359.6</ele>
        <time>2023-06-11T08:51:25Z</time>
      </trkpt>
      <trkpt lat="43.71139" lon="5.99631">
        <ele>359.6</ele>
        <time>2023-06-11T08:51:26Z</time>
      </trkpt>
      <trkpt lat="43.71139" lon="5.99629">
        <ele>359.6</ele>
        <time>2023-06-11T08:51:27Z</time>
      </trkpt>
      <trkpt lat="43.71139" lon="5.99627">
        <ele>359.6</ele>
        <time>2023-06-11T08:51:28Z</time>
      </trkpt>
      <trkpt lat="43.71139" lon="5.99625">
        <ele>359.7</ele>
        <time>2023-06-11T08:51:29Z</time>
      </trkpt>
      <trkpt lat="43.71139" lon="5.99624">
        <ele>359.7</ele>
        <time>2023-06-11T08:51:30Z</time>
      </trkpt>
      <trkpt lat="43.71139" lon="5.99622">
        <ele>359.7</ele>
        <time>2023-06-11T08:51:31Z</time>
      </trkpt>
      <trkpt lat="43.7114" lon="5.9962">
        <ele>359.7</ele>
        <time>2023-06-11T08:51:32Z</time>
      </trkpt>
      <trkpt lat="43.7114" lon="5.99618">
        <ele>359.7</ele>
        <time>2023-06-11T08:51:33Z</time>
      </trkpt>
      <trkpt lat="43.7114" lon="5.99616">
        <ele>359.7</ele>
        <time>2023-06-11T08:51:34Z</time>
      </trkpt>
      <trkpt lat="43.7114" lon="5.99614">
        <ele>359.7</ele>
        <time>2023-06-11T08:51:35Z</time>
      </trkpt>
      <trkpt lat="43.7114" lon="5.99612">
        <ele>359.7</ele>
        <time>2023-06-11T08:51:36Z</time>
      </trkpt>
      <trkpt lat="43.7114" lon="5.9961">
        <ele>359.7</ele>
        <time>2023-06-11T08:51:37Z</time>
      </trkpt>
      <trkpt lat="43.7114" lon="5.99608">
        <ele>359.7</ele>
        <time>2023-06-11T08:51:38Z</time>
      </trkpt>
      <trkpt lat="43.7114" lon="5.99606">
        <ele>359.8</ele>
        <time>2023-06-11T08:51:39Z</time>
      </trkpt>
      <trkpt lat="43.7114" lon="5.99605">
        <ele>359.7</ele>
        <time>2023-06-11T08:51:40Z</time>
      </trkpt>
      <trkpt lat="43.71139" lon="5.99603">
        <ele>359.7</ele>
        <time>2023-06-11T08:51:41Z</time>
      </trkpt>
      <trkpt lat="43.71139" lon="5.99601">
        <ele>359.7</ele>
        <time>2023-06-11T08:51:42Z</time>
      </trkpt>
      <trkpt lat="43.71139" lon="5.99599">
        <ele>359.6</ele>
        <time>2023-06-11T08:51:43Z</time>
      </trkpt>
      <trkpt lat="43.71139" lon="5.99597">
        <ele>359.6</ele>
        <time>2023-06-11T08:51:44Z</time>
      </trkpt>
      <trkpt lat="43.71139" lon="5.99595">
        <ele>359.6</ele>
        <time>2023-06-11T08:51:45Z</time>
      </trkpt>
      <trkpt lat="43.71139" lon="5.99593">
        <ele>359.6</ele>
        <time>2023-06-11T08:51:46Z</time>
      </trkpt>
      <trkpt lat="43.7114" lon="5.99591">
        <ele>359.6</ele>
        <time>2023-06-11T08:51:47Z</time>
      </trkpt>
      <trkpt lat="43.7114" lon="5.9959">
        <ele>359.6</ele>
        <time>2023-06-11T08:51:48Z</time>
      </trkpt>
      <trkpt lat="43.7114" lon="5.99588">
        <ele>359.5</ele>
        <time>2023-06-11T08:51:49Z</time>
      </trkpt>
      <trkpt lat="43.71141" lon="5.99586">
        <ele>359.5</ele>
        <time>2023-06-11T08:51:50Z</time>
      </trkpt>
      <trkpt lat="43.7114" lon="5.99584">
        <ele>359.6</ele>
        <time>2023-06-11T08:51:51Z</time>
      </trkpt>
      <trkpt lat="43.7114" lon="5.99582">
        <ele>359.6</ele>
        <time>2023-06-11T08:51:52Z</time>
      </trkpt>
      <trkpt lat="43.7114" lon="5.9958">
        <ele>359.6</ele>
        <time>2023-06-11T08:51:53Z</time>
      </trkpt>
      <trkpt lat="43.7114" lon="5.99579">
        <ele>359.5</ele>
        <time>2023-06-11T08:51:54Z</time>
      </trkpt>
      <trkpt lat="43.7114" lon="5.99577">
        <ele>359.6</ele>
        <time>2023-06-11T08:51:55Z</time>
      </trkpt>
      <trkpt lat="43.7114" lon="5.99575">
        <ele>359.6</ele>
        <time>2023-06-11T08:51:56Z</time>
      </trkpt>
      <trkpt lat="43.71139" lon="5.99573">
        <ele>359.6</ele>
        <time>2023-06-11T08:51:57Z</time>
      </trkpt>
      <trkpt lat="43.71139" lon="5.99571">
        <ele>359.6</ele>
        <time>2023-06-11T08:51:58Z</time>
      </trkpt>
      <trkpt lat="43.71139" lon="5.99569">
        <ele>359.7</ele>
        <time>2023-06-11T08:51:59Z</time>
      </trkpt>
      <trkpt lat="43.71139" lon="5.99567">
        <ele>359.7</ele>
        <time>2023-06-11T08:52:00Z</time>
      </trkpt>
      <trkpt lat="43.71138" lon="5.99565">
        <ele>359.8</ele>
        <time>2023-06-11T08:52:01Z</time>
      </trkpt>
      <trkpt lat="43.71138" lon="5.99563">
        <ele>359.8</ele>
        <time>2023-06-11T08:52:02Z</time>
      </trkpt>
      <trkpt lat="43.71138" lon="5.99561">
        <ele>359.7</ele>
        <time>2023-06-11T08:52:03Z</time>
      </trkpt>
      <trkpt lat="43.71138" lon="5.99559">
        <ele>359.7</ele>
        <time>2023-06-11T08:52:04Z</time>
      </trkpt>
      <trkpt lat="43.71138" lon="5.99558">
        <ele>359.7</ele>
        <time>2023-06-11T08:52:05Z</time>
      </trkpt>
      <trkpt lat="43.71139" lon="5.99556">
        <ele>359.7</ele>
        <time>2023-06-11T08:52:06Z</time>
      </trkpt>
      <trkpt lat="43.71139" lon="5.99554">
        <ele>359.7</ele>
        <time>2023-06-11T08:52:07Z</time>
      </trkpt>
      <trkpt lat="43.71139" lon="5.99552">
        <ele>359.6</ele>
        <time>2023-06-11T08:52:08Z</time>
      </trkpt>
      <trkpt lat="43.71139" lon="5.9955">
        <ele>359.6</ele>
        <time>2023-06-11T08:52:09Z</time>
      </trkpt>
      <trkpt lat="43.71139" lon="5.99548">
        <ele>359.6</ele>
        <time>2023-06-11T08:52:10Z</time>
      </trkpt>
      <trkpt lat="43.7114" lon="5.99547">
        <ele>359.7</ele>
        <time>2023-06-11T08:52:11Z</time>
      </trkpt>
      <trkpt lat="43.7114" lon="5.99545">
        <ele>359.6</ele>
        <time>2023-06-11T08:52:12Z</time>
      </trkpt>
      <trkpt lat="43.7114" lon="5.99543">
        <ele>359.7</ele>
        <time>2023-06-11T08:52:13Z</time>
      </trkpt>
      <trkpt lat="43.7114" lon="5.99541">
        <ele>359.7</ele>
        <time>2023-06-11T08:52:14Z</time>
      </trkpt>
      <trkpt lat="43.7114" lon="5.99539">
        <ele>359.7</ele>
        <time>2023-06-11T08:52:15Z</time>
      </trkpt>
      <trkpt lat="43.7114" lon="5.99538">
        <ele>359.7</ele>
        <time>2023-06-11T08:52:16Z</time>
      </trkpt>
      <trkpt lat="43.7114" lon="5.99536">
        <ele>359.7</ele>
        <time>2023-06-11T08:52:17Z</time>
      </trkpt>
      <trkpt lat="43.7114" lon="5.99534">
        <ele>359.6</ele>
        <time>2023-06-11T08:52:18Z</time>
      </trkpt>
      <trkpt lat="43.7114" lon="5.99532">
        <ele>359.6</ele>
        <time>2023-06-11T08:52:19Z</time>
      </trkpt>
      <trkpt lat="43.7114" lon="5.9953">
        <ele>359.6</ele>
        <time>2023-06-11T08:52:20Z</time>
      </trkpt>
      <trkpt lat="43.71139" lon="5.99528">
        <ele>359.6</ele>
        <time>2023-06-11T08:52:21Z</time>
      </trkpt>
      <trkpt lat="43.71139" lon="5.99526">
        <ele>359.5</ele>
        <time>2023-06-11T08:52:22Z</time>
      </trkpt>
      <trkpt lat="43.71138" lon="5.99524">
        <ele>359.4</ele>
        <time>2023-06-11T08:52:23Z</time>
      </trkpt>
      <trkpt lat="43.71138" lon="5.99522">
        <ele>359.4</ele>
        <time>2023-06-11T08:52:24Z</time>
      </trkpt>
      <trkpt lat="43.71137" lon="5.9952">
        <ele>359.4</ele>
        <time>2023-06-11T08:52:25Z</time>
      </trkpt>
      <trkpt lat="43.71137" lon="5.99518">
        <ele>359.4</ele>
        <time>2023-06-11T08:52:26Z</time>
      </trkpt>
      <trkpt lat="43.71137" lon="5.99516">
        <ele>359.5</ele>
        <time>2023-06-11T08:52:27Z</time>
      </trkpt>
      <trkpt lat="43.71137" lon="5.99514">
        <ele>359.5</ele>
        <time>2023-06-11T08:52:28Z</time>
      </trkpt>
      <trkpt lat="43.71137" lon="5.99512">
        <ele>359.6</ele>
        <time>2023-06-11T08:52:29Z</time>
      </trkpt>
      <trkpt lat="43.71137" lon="5.9951">
        <ele>359.6</ele>
        <time>2023-06-11T08:52:30Z</time>
      </trkpt>
      <trkpt lat="43.71136" lon="5.99508">
        <ele>359.6</ele>
        <time>2023-06-11T08:52:31Z</time>
      </trkpt>
      <trkpt lat="43.71136" lon="5.99507">
        <ele>359.7</ele>
        <time>2023-06-11T08:52:32Z</time>
      </trkpt>
      <trkpt lat="43.71136" lon="5.99505">
        <ele>359.7</ele>
        <time>2023-06-11T08:52:33Z</time>
      </trkpt>
      <trkpt lat="43.71136" lon="5.99503">
        <ele>359.8</ele>
        <time>2023-06-11T08:52:34Z</time>
      </trkpt>
      <trkpt lat="43.71136" lon="5.99501">
        <ele>359.9</ele>
        <time>2023-06-11T08:52:35Z</time>
      </trkpt>
      <trkpt lat="43.71136" lon="5.99499">
        <ele>359.9</ele>
        <time>2023-06-11T08:52:36Z</time>
      </trkpt>
      <trkpt lat="43.71136" lon="5.99497">
        <ele>359.8</ele>
        <time>2023-06-11T08:52:37Z</time>
      </trkpt>
      <trkpt lat="43.71136" lon="5.99495">
        <ele>359.8</ele>
        <time>2023-06-11T08:52:38Z</time>
      </trkpt>
      <trkpt lat="43.71136" lon="5.99493">
        <ele>359.8</ele>
        <time>2023-06-11T08:52:39Z</time>
      </trkpt>
      <trkpt lat="43.71136" lon="5.99491">
        <ele>359.8</ele>
        <time>2023-06-11T08:52:40Z</time>
      </trkpt>
      <trkpt lat="43.71136" lon="5.99489">
        <ele>359.7</ele>
        <time>2023-06-11T08:52:41Z</time>
      </trkpt>
      <trkpt lat="43.71136" lon="5.99487">
        <ele>359.8</ele>
        <time>2023-06-11T08:52:42Z</time>
      </trkpt>
      <trkpt lat="43.71136" lon="5.99486">
        <ele>359.8</ele>
        <time>2023-06-11T08:52:43Z</time>
      </trkpt>
      <trkpt lat="43.71136" lon="5.99484">
        <ele>359.8</ele>
        <time>2023-06-11T08:52:44Z</time>
      </trkpt>
      <trkpt lat="43.71136" lon="5.99482">
        <ele>359.8</ele>
        <time>2023-06-11T08:52:45Z</time>
      </trkpt>
      <trkpt lat="43.71135" lon="5.9948">
        <ele>359.7</ele>
        <time>2023-06-11T08:52:46Z</time>
      </trkpt>
      <trkpt lat="43.71135" lon="5.99477">
        <ele>359.7</ele>
        <time>2023-06-11T08:52:47Z</time>
      </trkpt>
      <trkpt lat="43.71135" lon="5.99476">
        <ele>359.7</ele>
        <time>2023-06-11T08:52:48Z</time>
      </trkpt>
      <trkpt lat="43.71135" lon="5.99473">
        <ele>359.7</ele>
        <time>2023-06-11T08:52:49Z</time>
      </trkpt>
      <trkpt lat="43.71135" lon="5.99471">
        <ele>359.7</ele>
        <time>2023-06-11T08:52:50Z</time>
      </trkpt>
      <trkpt lat="43.71134" lon="5.9947">
        <ele>359.7</ele>
        <time>2023-06-11T08:52:51Z</time>
      </trkpt>
      <trkpt lat="43.71134" lon="5.99468">
        <ele>359.7</ele>
        <time>2023-06-11T08:52:52Z</time>
      </trkpt>
      <trkpt lat="43.71134" lon="5.99466">
        <ele>359.7</ele>
        <time>2023-06-11T08:52:53Z</time>
      </trkpt>
      <trkpt lat="43.71134" lon="5.99464">
        <ele>359.7</ele>
        <time>2023-06-11T08:52:54Z</time>
      </trkpt>
      <trkpt lat="43.71133" lon="5.99462">
        <ele>359.7</ele>
        <time>2023-06-11T08:52:55Z</time>
      </trkpt>
      <trkpt lat="43.71133" lon="5.9946">
        <ele>359.7</ele>
        <time>2023-06-11T08:52:56Z</time>
      </trkpt>
      <trkpt lat="43.71133" lon="5.99458">
        <ele>359.7</ele>
        <time>2023-06-11T08:52:57Z</time>
      </trkpt>
      <trkpt lat="43.71133" lon="5.99456">
        <ele>359.7</ele>
        <time>2023-06-11T08:52:58Z</time>
      </trkpt>
      <trkpt lat="43.71132" lon="5.99454">
        <ele>359.7</ele>
        <time>2023-06-11T08:52:59Z</time>
      </trkpt>
      <trkpt lat="43.71132" lon="5.99452">
        <ele>359.7</ele>
        <time>2023-06-11T08:53:00Z</time>
      </trkpt>
      <trkpt lat="43.71132" lon="5.99451">
        <ele>359.7</ele>
        <time>2023-06-11T08:53:01Z</time>
      </trkpt>
      <trkpt lat="43.71131" lon="5.99449">
        <ele>359.8</ele>
        <time>2023-06-11T08:53:02Z</time>
      </trkpt>
      <trkpt lat="43.71131" lon="5.99447">
        <ele>359.7</ele>
        <time>2023-06-11T08:53:03Z</time>
      </trkpt>
      <trkpt lat="43.71131" lon="5.99445">
        <ele>359.7</ele>
        <time>2023-06-11T08:53:04Z</time>
      </trkpt>
      <trkpt lat="43.7113" lon="5.99443">
        <ele>359.7</ele>
        <time>2023-06-11T08:53:05Z</time>
      </trkpt>
      <trkpt lat="43.7113" lon="5.99441">
        <ele>359.7</ele>
        <time>2023-06-11T08:53:06Z</time>
      </trkpt>
      <trkpt lat="43.7113" lon="5.99439">
        <ele>359.8</ele>
        <time>2023-06-11T08:53:07Z</time>
      </trkpt>
      <trkpt lat="43.7113" lon="5.99437">
        <ele>359.9</ele>
        <time>2023-06-11T08:53:08Z</time>
      </trkpt>
      <trkpt lat="43.7113" lon="5.99436">
        <ele>359.9</ele>
        <time>2023-06-11T08:53:09Z</time>
      </trkpt>
      <trkpt lat="43.71129" lon="5.99434">
        <ele>359.9</ele>
        <time>2023-06-11T08:53:10Z</time>
      </trkpt>
      <trkpt lat="43.71129" lon="5.99432">
        <ele>359.9</ele>
        <time>2023-06-11T08:53:11Z</time>
      </trkpt>
      <trkpt lat="43.71129" lon="5.9943">
        <ele>359.9</ele>
        <time>2023-06-11T08:53:12Z</time>
      </trkpt>
      <trkpt lat="43.71129" lon="5.99427">
        <ele>359.9</ele>
        <time>2023-06-11T08:53:13Z</time>
      </trkpt>
      <trkpt lat="43.71129" lon="5.99425">
        <ele>359.9</ele>
        <time>2023-06-11T08:53:14Z</time>
      </trkpt>
      <trkpt lat="43.71129" lon="5.99423">
        <ele>359.9</ele>
        <time>2023-06-11T08:53:15Z</time>
      </trkpt>
      <trkpt lat="43.71128" lon="5.99421">
        <ele>359.8</ele>
        <time>2023-06-11T08:53:16Z</time>
      </trkpt>
      <trkpt lat="43.71128" lon="5.99419">
        <ele>359.8</ele>
        <time>2023-06-11T08:53:17Z</time>
      </trkpt>
      <trkpt lat="43.71128" lon="5.99417">
        <ele>359.8</ele>
        <time>2023-06-11T08:53:18Z</time>
      </trkpt>
      <trkpt lat="43.71128" lon="5.99415">
        <ele>359.8</ele>
        <time>2023-06-11T08:53:19Z</time>
      </trkpt>
      <trkpt lat="43.71128" lon="5.99413">
        <ele>359.8</ele>
        <time>2023-06-11T08:53:20Z</time>
      </trkpt>
      <trkpt lat="43.71128" lon="5.99411">
        <ele>359.7</ele>
        <time>2023-06-11T08:53:21Z</time>
      </trkpt>
      <trkpt lat="43.71127" lon="5.99409">
        <ele>359.7</ele>
        <time>2023-06-11T08:53:22Z</time>
      </trkpt>
      <trkpt lat="43.71127" lon="5.99407">
        <ele>359.7</ele>
        <time>2023-06-11T08:53:23Z</time>
      </trkpt>
      <trkpt lat="43.71127" lon="5.99405">
        <ele>359.7</ele>
        <time>2023-06-11T08:53:24Z</time>
      </trkpt>
      <trkpt lat="43.71127" lon="5.99403">
        <ele>359.6</ele>
        <time>2023-06-11T08:53:25Z</time>
      </trkpt>
      <trkpt lat="43.71127" lon="5.99401">
        <ele>359.6</ele>
        <time>2023-06-11T08:53:26Z</time>
      </trkpt>
      <trkpt lat="43.71127" lon="5.99399">
        <ele>359.7</ele>
        <time>2023-06-11T08:53:27Z</time>
      </trkpt>
      <trkpt lat="43.71127" lon="5.99397">
        <ele>359.7</ele>
        <time>2023-06-11T08:53:28Z</time>
      </trkpt>
      <trkpt lat="43.71128" lon="5.99395">
        <ele>359.7</ele>
        <time>2023-06-11T08:53:29Z</time>
      </trkpt>
      <trkpt lat="43.71128" lon="5.99393">
        <ele>359.8</ele>
        <time>2023-06-11T08:53:30Z</time>
      </trkpt>
      <trkpt lat="43.71128" lon="5.99391">
        <ele>359.7</ele>
        <time>2023-06-11T08:53:31Z</time>
      </trkpt>
      <trkpt lat="43.71128" lon="5.99389">
        <ele>359.7</ele>
        <time>2023-06-11T08:53:32Z</time>
      </trkpt>
      <trkpt lat="43.71128" lon="5.99387">
        <ele>359.7</ele>
        <time>2023-06-11T08:53:33Z</time>
      </trkpt>
      <trkpt lat="43.71128" lon="5.99385">
        <ele>359.7</ele>
        <time>2023-06-11T08:53:34Z</time>
      </trkpt>
      <trkpt lat="43.71128" lon="5.99383">
        <ele>359.7</ele>
        <time>2023-06-11T08:53:35Z</time>
      </trkpt>
      <trkpt lat="43.71129" lon="5.99381">
        <ele>359.7</ele>
        <time>2023-06-11T08:53:36Z</time>
      </trkpt>
      <trkpt lat="43.71129" lon="5.99379">
        <ele>359.8</ele>
        <time>2023-06-11T08:53:37Z</time>
      </trkpt>
      <trkpt lat="43.71129" lon="5.99377">
        <ele>359.8</ele>
        <time>2023-06-11T08:53:38Z</time>
      </trkpt>
      <trkpt lat="43.71129" lon="5.99375">
        <ele>359.8</ele>
        <time>2023-06-11T08:53:39Z</time>
      </trkpt>
      <trkpt lat="43.71129" lon="5.99373">
        <ele>359.8</ele>
        <time>2023-06-11T08:53:40Z</time>
      </trkpt>
      <trkpt lat="43.71129" lon="5.99371">
        <ele>359.7</ele>
        <time>2023-06-11T08:53:41Z</time>
      </trkpt>
      <trkpt lat="43.71129" lon="5.99369">
        <ele>359.7</ele>
        <time>2023-06-11T08:53:42Z</time>
      </trkpt>
      <trkpt lat="43.71129" lon="5.99367">
        <ele>359.7</ele>
        <time>2023-06-11T08:53:43Z</time>
      </trkpt>
      <trkpt lat="43.71129" lon="5.99365">
        <ele>359.7</ele>
        <time>2023-06-11T08:53:44Z</time>
      </trkpt>
      <trkpt lat="43.71129" lon="5.99363">
        <ele>359.6</ele>
        <time>2023-06-11T08:53:45Z</time>
      </trkpt>
      <trkpt lat="43.71129" lon="5.99361">
        <ele>359.6</ele>
        <time>2023-06-11T08:53:46Z</time>
      </trkpt>
      <trkpt lat="43.71128" lon="5.99358">
        <ele>359.6</ele>
        <time>2023-06-11T08:53:47Z</time>
      </trkpt>
      <trkpt lat="43.71128" lon="5.99356">
        <ele>359.5</ele>
        <time>2023-06-11T08:53:48Z</time>
      </trkpt>
      <trkpt lat="43.71128" lon="5.99354">
        <ele>359.6</ele>
        <time>2023-06-11T08:53:49Z</time>
      </trkpt>
      <trkpt lat="43.71128" lon="5.99352">
        <ele>359.6</ele>
        <time>2023-06-11T08:53:50Z</time>
      </trkpt>
      <trkpt lat="43.71128" lon="5.9935">
        <ele>359.6</ele>
        <time>2023-06-11T08:53:51Z</time>
      </trkpt>
      <trkpt lat="43.71128" lon="5.99348">
        <ele>359.6</ele>
        <time>2023-06-11T08:53:52Z</time>
      </trkpt>
      <trkpt lat="43.71127" lon="5.99346">
        <ele>359.6</ele>
        <time>2023-06-11T08:53:53Z</time>
      </trkpt>
      <trkpt lat="43.71127" lon="5.99344">
        <ele>359.7</ele>
        <time>2023-06-11T08:53:54Z</time>
      </trkpt>
      <trkpt lat="43.71127" lon="5.99342">
        <ele>359.7</ele>
        <time>2023-06-11T08:53:55Z</time>
      </trkpt>
      <trkpt lat="43.71127" lon="5.9934">
        <ele>359.6</ele>
        <time>2023-06-11T08:53:56Z</time>
      </trkpt>
      <trkpt lat="43.71127" lon="5.99338">
        <ele>359.6</ele>
        <time>2023-06-11T08:53:57Z</time>
      </trkpt>
      <trkpt lat="43.71128" lon="5.99336">
        <ele>359.7</ele>
        <time>2023-06-11T08:53:58Z</time>
      </trkpt>
      <trkpt lat="43.71128" lon="5.99334">
        <ele>359.6</ele>
        <time>2023-06-11T08:53:59Z</time>
      </trkpt>
      <trkpt lat="43.71128" lon="5.99332">
        <ele>359.7</ele>
        <time>2023-06-11T08:54:00Z</time>
      </trkpt>
      <trkpt lat="43.71128" lon="5.9933">
        <ele>359.7</ele>
        <time>2023-06-11T08:54:01Z</time>
      </trkpt>
      <trkpt lat="43.71128" lon="5.99327">
        <ele>359.7</ele>
        <time>2023-06-11T08:54:02Z</time>
      </trkpt>
      <trkpt lat="43.71128" lon="5.99325">
        <ele>359.7</ele>
        <time>2023-06-11T08:54:03Z</time>
      </trkpt>
      <trkpt lat="43.71129" lon="5.99323">
        <ele>359.8</ele>
        <time>2023-06-11T08:54:04Z</time>
      </trkpt>
      <trkpt lat="43.71129" lon="5.99321">
        <ele>359.8</ele>
        <time>2023-06-11T08:54:05Z</time>
      </trkpt>
      <trkpt lat="43.71129" lon="5.99319">
        <ele>359.8</ele>
        <time>2023-06-11T08:54:06Z</time>
      </trkpt>
      <trkpt lat="43.71129" lon="5.99317">
        <ele>359.7</ele>
        <time>2023-06-11T08:54:07Z</time>
      </trkpt>
      <trkpt lat="43.71129" lon="5.99315">
        <ele>359.7</ele>
        <time>2023-06-11T08:54:08Z</time>
      </trkpt>
      <trkpt lat="43.7113" lon="5.99313">
        <ele>359.7</ele>
        <time>2023-06-11T08:54:09Z</time>
      </trkpt>
      <trkpt lat="43.7113" lon="5.9931">
        <ele>359.7</ele>
        <time>2023-06-11T08:54:10Z</time>
      </trkpt>
      <trkpt lat="43.7113" lon="5.99308">
        <ele>359.7</ele>
        <time>2023-06-11T08:54:11Z</time>
      </trkpt>
      <trkpt lat="43.7113" lon="5.99306">
        <ele>359.7</ele>
        <time>2023-06-11T08:54:12Z</time>
      </trkpt>
      <trkpt lat="43.71131" lon="5.99304">
        <ele>359.7</ele>
        <time>2023-06-11T08:54:13Z</time>
      </trkpt>
      <trkpt lat="43.71131" lon="5.99302">
        <ele>359.7</ele>
        <time>2023-06-11T08:54:14Z</time>
      </trkpt>
      <trkpt lat="43.71131" lon="5.993">
        <ele>359.7</ele>
        <time>2023-06-11T08:54:15Z</time>
      </trkpt>
      <trkpt lat="43.71131" lon="5.99298">
        <ele>359.7</ele>
        <time>2023-06-11T08:54:16Z</time>
      </trkpt>
      <trkpt lat="43.71132" lon="5.99296">
        <ele>359.6</ele>
        <time>2023-06-11T08:54:17Z</time>
      </trkpt>
      <trkpt lat="43.71132" lon="5.99293">
        <ele>359.7</ele>
        <time>2023-06-11T08:54:18Z</time>
      </trkpt>
      <trkpt lat="43.71132" lon="5.99291">
        <ele>359.7</ele>
        <time>2023-06-11T08:54:19Z</time>
      </trkpt>
      <trkpt lat="43.71133" lon="5.99289">
        <ele>359.7</ele>
        <time>2023-06-11T08:54:20Z</time>
      </trkpt>
      <trkpt lat="43.71133" lon="5.99287">
        <ele>359.7</ele>
        <time>2023-06-11T08:54:21Z</time>
      </trkpt>
      <trkpt lat="43.71133" lon="5.99285">
        <ele>359.8</ele>
        <time>2023-06-11T08:54:22Z</time>
      </trkpt>
      <trkpt lat="43.71133" lon="5.99283">
        <ele>359.8</ele>
        <time>2023-06-11T08:54:23Z</time>
      </trkpt>
      <trkpt lat="43.71134" lon="5.99281">
        <ele>359.8</ele>
        <time>2023-06-11T08:54:24Z</time>
      </trkpt>
      <trkpt lat="43.71135" lon="5.99279">
        <ele>359.7</ele>
        <time>2023-06-11T08:54:25Z</time>
      </trkpt>
      <trkpt lat="43.71135" lon="5.99277">
        <ele>359.7</ele>
        <time>2023-06-11T08:54:26Z</time>
      </trkpt>
      <trkpt lat="43.71135" lon="5.99275">
        <ele>359.7</ele>
        <time>2023-06-11T08:54:27Z</time>
      </trkpt>
      <trkpt lat="43.71136" lon="5.99273">
        <ele>359.7</ele>
        <time>2023-06-11T08:54:28Z</time>
      </trkpt>
      <trkpt lat="43.71136" lon="5.99271">
        <ele>359.6</ele>
        <time>2023-06-11T08:54:29Z</time>
      </trkpt>
      <trkpt lat="43.71137" lon="5.99269">
        <ele>359.7</ele>
        <time>2023-06-11T08:54:30Z</time>
      </trkpt>
      <trkpt lat="43.71137" lon="5.99267">
        <ele>359.7</ele>
        <time>2023-06-11T08:54:31Z</time>
      </trkpt>
      <trkpt lat="43.71138" lon="5.99266">
        <ele>359.6</ele>
        <time>2023-06-11T08:54:32Z</time>
      </trkpt>
      <trkpt lat="43.71139" lon="5.99264">
        <ele>359.6</ele>
        <time>2023-06-11T08:54:33Z</time>
      </trkpt>
      <trkpt lat="43.7114" lon="5.99262">
        <ele>359.6</ele>
        <time>2023-06-11T08:54:34Z</time>
      </trkpt>
      <trkpt lat="43.71141" lon="5.99261">
        <ele>359.6</ele>
        <time>2023-06-11T08:54:35Z</time>
      </trkpt>
      <trkpt lat="43.71142" lon="5.99259">
        <ele>359.6</ele>
        <time>2023-06-11T08:54:36Z</time>
      </trkpt>
      <trkpt lat="43.71142" lon="5.99258">
        <ele>359.6</ele>
        <time>2023-06-11T08:54:37Z</time>
      </trkpt>
      <trkpt lat="43.71142" lon="5.99256">
        <ele>359.6</ele>
        <time>2023-06-11T08:54:38Z</time>
      </trkpt>
      <trkpt lat="43.71143" lon="5.99254">
        <ele>359.6</ele>
        <time>2023-06-11T08:54:39Z</time>
      </trkpt>
      <trkpt lat="43.71143" lon="5.99252">
        <ele>359.7</ele>
        <time>2023-06-11T08:54:40Z</time>
      </trkpt>
      <trkpt lat="43.71144" lon="5.9925">
        <ele>359.7</ele>
        <time>2023-06-11T08:54:41Z</time>
      </trkpt>
      <trkpt lat="43.71145" lon="5.99247">
        <ele>359.8</ele>
        <time>2023-06-11T08:54:42Z</time>
      </trkpt>
      <trkpt lat="43.71146" lon="5.99245">
        <ele>359.8</ele>
        <time>2023-06-11T08:54:43Z</time>
      </trkpt>
      <trkpt lat="43.71146" lon="5.99243">
        <ele>359.8</ele>
        <time>2023-06-11T08:54:44Z</time>
      </trkpt>
      <trkpt lat="43.71147" lon="5.99241">
        <ele>359.8</ele>
        <time>2023-06-11T08:54:45Z</time>
      </trkpt>
      <trkpt lat="43.71147" lon="5.99239">
        <ele>359.8</ele>
        <time>2023-06-11T08:54:46Z</time>
      </trkpt>
      <trkpt lat="43.71147" lon="5.99237">
        <ele>359.8</ele>
        <time>2023-06-11T08:54:47Z</time>
      </trkpt>
      <trkpt lat="43.71147" lon="5.99235">
        <ele>359.7</ele>
        <time>2023-06-11T08:54:48Z</time>
      </trkpt>
      <trkpt lat="43.71148" lon="5.99233">
        <ele>359.7</ele>
        <time>2023-06-11T08:54:49Z</time>
      </trkpt>
      <trkpt lat="43.71148" lon="5.99231">
        <ele>359.7</ele>
        <time>2023-06-11T08:54:50Z</time>
      </trkpt>
      <trkpt lat="43.71148" lon="5.99229">
        <ele>359.7</ele>
        <time>2023-06-11T08:54:51Z</time>
      </trkpt>
      <trkpt lat="43.71149" lon="5.99227">
        <ele>359.6</ele>
        <time>2023-06-11T08:54:52Z</time>
      </trkpt>
      <trkpt lat="43.71149" lon="5.99225">
        <ele>359.5</ele>
        <time>2023-06-11T08:54:53Z</time>
      </trkpt>
      <trkpt lat="43.71149" lon="5.99223">
        <ele>359.5</ele>
        <time>2023-06-11T08:54:54Z</time>
      </trkpt>
      <trkpt lat="43.71149" lon="5.99221">
        <ele>359.5</ele>
        <time>2023-06-11T08:54:55Z</time>
      </trkpt>
      <trkpt lat="43.7115" lon="5.99219">
        <ele>359.5</ele>
        <time>2023-06-11T08:54:56Z</time>
      </trkpt>
      <trkpt lat="43.7115" lon="5.99217">
        <ele>359.6</ele>
        <time>2023-06-11T08:54:57Z</time>
      </trkpt>
      <trkpt lat="43.7115" lon="5.99215">
        <ele>359.6</ele>
        <time>2023-06-11T08:54:58Z</time>
      </trkpt>
      <trkpt lat="43.7115" lon="5.99212">
        <ele>359.6</ele>
        <time>2023-06-11T08:54:59Z</time>
      </trkpt>
      <trkpt lat="43.7115" lon="5.9921">
        <ele>359.8</ele>
        <time>2023-06-11T08:55:00Z</time>
      </trkpt>
      <trkpt lat="43.7115" lon="5.99208">
        <ele>359.7</ele>
        <time>2023-06-11T08:55:01Z</time>
      </trkpt>
      <trkpt lat="43.7115" lon="5.99206">
        <ele>359.7</ele>
        <time>2023-06-11T08:55:02Z</time>
      </trkpt>
      <trkpt lat="43.7115" lon="5.99204">
        <ele>359.8</ele>
        <time>2023-06-11T08:55:03Z</time>
      </trkpt>
      <trkpt lat="43.71151" lon="5.99202">
        <ele>359.8</ele>
        <time>2023-06-11T08:55:04Z</time>
      </trkpt>
      <trkpt lat="43.71151" lon="5.992">
        <ele>359.8</ele>
        <time>2023-06-11T08:55:05Z</time>
      </trkpt>
      <trkpt lat="43.71151" lon="5.99198">
        <ele>359.8</ele>
        <time>2023-06-11T08:55:06Z</time>
      </trkpt>
      <trkpt lat="43.71151" lon="5.99196">
        <ele>359.7</ele>
        <time>2023-06-11T08:55:07Z</time>
      </trkpt>
      <trkpt lat="43.71152" lon="5.99194">
        <ele>359.8</ele>
        <time>2023-06-11T08:55:08Z</time>
      </trkpt>
      <trkpt lat="43.71152" lon="5.99192">
        <ele>359.9</ele>
        <time>2023-06-11T08:55:09Z</time>
      </trkpt>
      <trkpt lat="43.71152" lon="5.9919">
        <ele>359.9</ele>
        <time>2023-06-11T08:55:10Z</time>
      </trkpt>
      <trkpt lat="43.71153" lon="5.99188">
        <ele>360</ele>
        <time>2023-06-11T08:55:11Z</time>
      </trkpt>
      <trkpt lat="43.71154" lon="5.99186">
        <ele>360</ele>
        <time>2023-06-11T08:55:12Z</time>
      </trkpt>
      <trkpt lat="43.71154" lon="5.99184">
        <ele>360</ele>
        <time>2023-06-11T08:55:13Z</time>
      </trkpt>
      <trkpt lat="43.71155" lon="5.99182">
        <ele>360</ele>
        <time>2023-06-11T08:55:14Z</time>
      </trkpt>
      <trkpt lat="43.71155" lon="5.99179">
        <ele>360</ele>
        <time>2023-06-11T08:55:15Z</time>
      </trkpt>
      <trkpt lat="43.71156" lon="5.99177">
        <ele>360</ele>
        <time>2023-06-11T08:55:16Z</time>
      </trkpt>
      <trkpt lat="43.71156" lon="5.99175">
        <ele>359.9</ele>
        <time>2023-06-11T08:55:17Z</time>
      </trkpt>
      <trkpt lat="43.71156" lon="5.99173">
        <ele>359.9</ele>
        <time>2023-06-11T08:55:18Z</time>
      </trkpt>
      <trkpt lat="43.71157" lon="5.99171">
        <ele>359.9</ele>
        <time>2023-06-11T08:55:19Z</time>
      </trkpt>
      <trkpt lat="43.71157" lon="5.99169">
        <ele>359.9</ele>
        <time>2023-06-11T08:55:20Z</time>
      </trkpt>
      <trkpt lat="43.71158" lon="5.99167">
        <ele>359.8</ele>
        <time>2023-06-11T08:55:21Z</time>
      </trkpt>
      <trkpt lat="43.71158" lon="5.99165">
        <ele>359.9</ele>
        <time>2023-06-11T08:55:22Z</time>
      </trkpt>
      <trkpt lat="43.71158" lon="5.99163">
        <ele>359.9</ele>
        <time>2023-06-11T08:55:23Z</time>
      </trkpt>
      <trkpt lat="43.71159" lon="5.99161">
        <ele>359.9</ele>
        <time>2023-06-11T08:55:24Z</time>
      </trkpt>
      <trkpt lat="43.71159" lon="5.99159">
        <ele>359.9</ele>
        <time>2023-06-11T08:55:25Z</time>
      </trkpt>
      <trkpt lat="43.7116" lon="5.99156">
        <ele>359.9</ele>
        <time>2023-06-11T08:55:26Z</time>
      </trkpt>
      <trkpt lat="43.7116" lon="5.99154">
        <ele>359.9</ele>
        <time>2023-06-11T08:55:27Z</time>
      </trkpt>
      <trkpt lat="43.71161" lon="5.99152">
        <ele>359.9</ele>
        <time>2023-06-11T08:55:28Z</time>
      </trkpt>
      <trkpt lat="43.71161" lon="5.9915">
        <ele>360</ele>
        <time>2023-06-11T08:55:29Z</time>
      </trkpt>
      <trkpt lat="43.71161" lon="5.99148">
        <ele>359.9</ele>
        <time>2023-06-11T08:55:30Z</time>
      </trkpt>
      <trkpt lat="43.71161" lon="5.99146">
        <ele>359.9</ele>
        <time>2023-06-11T08:55:31Z</time>
      </trkpt>
      <trkpt lat="43.71162" lon="5.99144">
        <ele>359.8</ele>
        <time>2023-06-11T08:55:32Z</time>
      </trkpt>
      <trkpt lat="43.71162" lon="5.99142">
        <ele>359.7</ele>
        <time>2023-06-11T08:55:33Z</time>
      </trkpt>
      <trkpt lat="43.71162" lon="5.9914">
        <ele>359.8</ele>
        <time>2023-06-11T08:55:34Z</time>
      </trkpt>
      <trkpt lat="43.71162" lon="5.99138">
        <ele>359.8</ele>
        <time>2023-06-11T08:55:35Z</time>
      </trkpt>
      <trkpt lat="43.71162" lon="5.99136">
        <ele>359.9</ele>
        <time>2023-06-11T08:55:36Z</time>
      </trkpt>
      <trkpt lat="43.71163" lon="5.99134">
        <ele>360</ele>
        <time>2023-06-11T08:55:37Z</time>
      </trkpt>
      <trkpt lat="43.71163" lon="5.99132">
        <ele>360</ele>
        <time>2023-06-11T08:55:38Z</time>
      </trkpt>
      <trkpt lat="43.71163" lon="5.9913">
        <ele>359.9</ele>
        <time>2023-06-11T08:55:39Z</time>
      </trkpt>
      <trkpt lat="43.71163" lon="5.99128">
        <ele>359.9</ele>
        <time>2023-06-11T08:55:40Z</time>
      </trkpt>
      <trkpt lat="43.71164" lon="5.99126">
        <ele>359.8</ele>
        <time>2023-06-11T08:55:41Z</time>
      </trkpt>
      <trkpt lat="43.71164" lon="5.99124">
        <ele>359.9</ele>
        <time>2023-06-11T08:55:42Z</time>
      </trkpt>
      <trkpt lat="43.71164" lon="5.99122">
        <ele>359.9</ele>
        <time>2023-06-11T08:55:43Z</time>
      </trkpt>
      <trkpt lat="43.71165" lon="5.9912">
        <ele>360</ele>
        <time>2023-06-11T08:55:44Z</time>
      </trkpt>
      <trkpt lat="43.71165" lon="5.99118">
        <ele>360</ele>
        <time>2023-06-11T08:55:45Z</time>
      </trkpt>
      <trkpt lat="43.71165" lon="5.99116">
        <ele>360</ele>
        <time>2023-06-11T08:55:46Z</time>
      </trkpt>
      <trkpt lat="43.71165" lon="5.99114">
        <ele>360</ele>
        <time>2023-06-11T08:55:47Z</time>
      </trkpt>
      <trkpt lat="43.71165" lon="5.99112">
        <ele>360</ele>
        <time>2023-06-11T08:55:48Z</time>
      </trkpt>
      <trkpt lat="43.71166" lon="5.9911">
        <ele>360</ele>
        <time>2023-06-11T08:55:49Z</time>
      </trkpt>
      <trkpt lat="43.71166" lon="5.99108">
        <ele>360</ele>
        <time>2023-06-11T08:55:50Z</time>
      </trkpt>
      <trkpt lat="43.71166" lon="5.99106">
        <ele>360</ele>
        <time>2023-06-11T08:55:51Z</time>
      </trkpt>
      <trkpt lat="43.71166" lon="5.99104">
        <ele>360.1</ele>
        <time>2023-06-11T08:55:52Z</time>
      </trkpt>
      <trkpt lat="43.71166" lon="5.99102">
        <ele>360.1</ele>
        <time>2023-06-11T08:55:53Z</time>
      </trkpt>
      <trkpt lat="43.71166" lon="5.991">
        <ele>360.2</ele>
        <time>2023-06-11T08:55:54Z</time>
      </trkpt>
      <trkpt lat="43.71166" lon="5.99098">
        <ele>360.2</ele>
        <time>2023-06-11T08:55:55Z</time>
      </trkpt>
      <trkpt lat="43.71166" lon="5.99096">
        <ele>360.2</ele>
        <time>2023-06-11T08:55:56Z</time>
      </trkpt>
      <trkpt lat="43.71167" lon="5.99094">
        <ele>360.2</ele>
        <time>2023-06-11T08:55:57Z</time>
      </trkpt>
      <trkpt lat="43.71167" lon="5.99092">
        <ele>360.2</ele>
        <time>2023-06-11T08:55:58Z</time>
      </trkpt>
      <trkpt lat="43.71167" lon="5.99091">
        <ele>360.2</ele>
        <time>2023-06-11T08:55:59Z</time>
      </trkpt>
      <trkpt lat="43.71167" lon="5.99089">
        <ele>360.2</ele>
        <time>2023-06-11T08:56:00Z</time>
      </trkpt>
      <trkpt lat="43.71167" lon="5.99087">
        <ele>360.3</ele>
        <time>2023-06-11T08:56:01Z</time>
      </trkpt>
      <trkpt lat="43.71168" lon="5.99085">
        <ele>360.2</ele>
        <time>2023-06-11T08:56:02Z</time>
      </trkpt>
      <trkpt lat="43.71168" lon="5.99083">
        <ele>360.1</ele>
        <time>2023-06-11T08:56:03Z</time>
      </trkpt>
      <trkpt lat="43.71168" lon="5.99081">
        <ele>360.1</ele>
        <time>2023-06-11T08:56:04Z</time>
      </trkpt>
      <trkpt lat="43.71168" lon="5.99079">
        <ele>360.2</ele>
        <time>2023-06-11T08:56:05Z</time>
      </trkpt>
      <trkpt lat="43.71168" lon="5.99077">
        <ele>360.2</ele>
        <time>2023-06-11T08:56:06Z</time>
      </trkpt>
      <trkpt lat="43.71168" lon="5.99075">
        <ele>360.2</ele>
        <time>2023-06-11T08:56:07Z</time>
      </trkpt>
      <trkpt lat="43.71169" lon="5.99073">
        <ele>360.2</ele>
        <time>2023-06-11T08:56:08Z</time>
      </trkpt>
      <trkpt lat="43.71169" lon="5.99071">
        <ele>360.2</ele>
        <time>2023-06-11T08:56:09Z</time>
      </trkpt>
      <trkpt lat="43.71169" lon="5.99069">
        <ele>360.1</ele>
        <time>2023-06-11T08:56:10Z</time>
      </trkpt>
      <trkpt lat="43.71169" lon="5.99068">
        <ele>360.1</ele>
        <time>2023-06-11T08:56:11Z</time>
      </trkpt>
      <trkpt lat="43.71169" lon="5.99066">
        <ele>360.1</ele>
        <time>2023-06-11T08:56:12Z</time>
      </trkpt>
      <trkpt lat="43.71169" lon="5.99064">
        <ele>360.2</ele>
        <time>2023-06-11T08:56:13Z</time>
      </trkpt>
      <trkpt lat="43.71169" lon="5.99062">
        <ele>360.2</ele>
        <time>2023-06-11T08:56:14Z</time>
      </trkpt>
      <trkpt lat="43.71169" lon="5.9906">
        <ele>360.2</ele>
        <time>2023-06-11T08:56:15Z</time>
      </trkpt>
      <trkpt lat="43.7117" lon="5.99058">
        <ele>360.1</ele>
        <time>2023-06-11T08:56:16Z</time>
      </trkpt>
      <trkpt lat="43.7117" lon="5.99056">
        <ele>360.1</ele>
        <time>2023-06-11T08:56:17Z</time>
      </trkpt>
      <trkpt lat="43.7117" lon="5.99054">
        <ele>360.2</ele>
        <time>2023-06-11T08:56:18Z</time>
      </trkpt>
      <trkpt lat="43.7117" lon="5.99052">
        <ele>360.2</ele>
        <time>2023-06-11T08:56:19Z</time>
      </trkpt>
      <trkpt lat="43.71171" lon="5.99051">
        <ele>360.2</ele>
        <time>2023-06-11T08:56:20Z</time>
      </trkpt>
      <trkpt lat="43.71171" lon="5.99049">
        <ele>360.2</ele>
        <time>2023-06-11T08:56:21Z</time>
      </trkpt>
      <trkpt lat="43.71171" lon="5.99047">
        <ele>360.2</ele>
        <time>2023-06-11T08:56:22Z</time>
      </trkpt>
      <trkpt lat="43.71171" lon="5.99045">
        <ele>360.2</ele>
        <time>2023-06-11T08:56:23Z</time>
      </trkpt>
      <trkpt lat="43.71171" lon="5.99043">
        <ele>360.2</ele>
        <time>2023-06-11T08:56:24Z</time>
      </trkpt>
      <trkpt lat="43.71171" lon="5.99041">
        <ele>360.2</ele>
        <time>2023-06-11T08:56:25Z</time>
      </trkpt>
      <trkpt lat="43.71171" lon="5.99039">
        <ele>360.2</ele>
        <time>2023-06-11T08:56:26Z</time>
      </trkpt>
      <trkpt lat="43.71171" lon="5.99037">
        <ele>360.2</ele>
        <time>2023-06-11T08:56:27Z</time>
      </trkpt>
      <trkpt lat="43.71171" lon="5.99035">
        <ele>360.3</ele>
        <time>2023-06-11T08:56:28Z</time>
      </trkpt>
      <trkpt lat="43.71172" lon="5.99034">
        <ele>360.3</ele>
        <time>2023-06-11T08:56:29Z</time>
      </trkpt>
      <trkpt lat="43.71172" lon="5.99032">
        <ele>360.3</ele>
        <time>2023-06-11T08:56:30Z</time>
      </trkpt>
      <trkpt lat="43.71172" lon="5.9903">
        <ele>360.3</ele>
        <time>2023-06-11T08:56:31Z</time>
      </trkpt>
      <trkpt lat="43.71172" lon="5.99028">
        <ele>360.3</ele>
        <time>2023-06-11T08:56:32Z</time>
      </trkpt>
      <trkpt lat="43.71173" lon="5.99026">
        <ele>360.3</ele>
        <time>2023-06-11T08:56:33Z</time>
      </trkpt>
      <trkpt lat="43.71173" lon="5.99024">
        <ele>360.3</ele>
        <time>2023-06-11T08:56:34Z</time>
      </trkpt>
      <trkpt lat="43.71173" lon="5.99021">
        <ele>360.2</ele>
        <time>2023-06-11T08:56:35Z</time>
      </trkpt>
      <trkpt lat="43.71173" lon="5.99019">
        <ele>360.2</ele>
        <time>2023-06-11T08:56:36Z</time>
      </trkpt>
      <trkpt lat="43.71173" lon="5.99017">
        <ele>360.2</ele>
        <time>2023-06-11T08:56:37Z</time>
      </trkpt>
      <trkpt lat="43.71173" lon="5.99015">
        <ele>360.3</ele>
        <time>2023-06-11T08:56:38Z</time>
      </trkpt>
      <trkpt lat="43.71173" lon="5.99013">
        <ele>360.3</ele>
        <time>2023-06-11T08:56:39Z</time>
      </trkpt>
      <trkpt lat="43.71173" lon="5.99011">
        <ele>360.3</ele>
        <time>2023-06-11T08:56:40Z</time>
      </trkpt>
      <trkpt lat="43.71173" lon="5.99009">
        <ele>360.4</ele>
        <time>2023-06-11T08:56:41Z</time>
      </trkpt>
      <trkpt lat="43.71174" lon="5.99007">
        <ele>360.4</ele>
        <time>2023-06-11T08:56:42Z</time>
      </trkpt>
      <trkpt lat="43.71174" lon="5.99004">
        <ele>360.4</ele>
        <time>2023-06-11T08:56:43Z</time>
      </trkpt>
      <trkpt lat="43.71174" lon="5.99002">
        <ele>360.4</ele>
        <time>2023-06-11T08:56:44Z</time>
      </trkpt>
      <trkpt lat="43.71175" lon="5.99">
        <ele>360.4</ele>
        <time>2023-06-11T08:56:45Z</time>
      </trkpt>
      <trkpt lat="43.71175" lon="5.98998">
        <ele>360.4</ele>
        <time>2023-06-11T08:56:46Z</time>
      </trkpt>
      <trkpt lat="43.71175" lon="5.98996">
        <ele>360.4</ele>
        <time>2023-06-11T08:56:47Z</time>
      </trkpt>
      <trkpt lat="43.71175" lon="5.98994">
        <ele>360.3</ele>
        <time>2023-06-11T08:56:48Z</time>
      </trkpt>
      <trkpt lat="43.71176" lon="5.98992">
        <ele>360.4</ele>
        <time>2023-06-11T08:56:49Z</time>
      </trkpt>
      <trkpt lat="43.71176" lon="5.9899">
        <ele>360.3</ele>
        <time>2023-06-11T08:56:50Z</time>
      </trkpt>
      <trkpt lat="43.71176" lon="5.98988">
        <ele>360.3</ele>
        <time>2023-06-11T08:56:51Z</time>
      </trkpt>
      <trkpt lat="43.71176" lon="5.98986">
        <ele>360.3</ele>
        <time>2023-06-11T08:56:52Z</time>
      </trkpt>
      <trkpt lat="43.71177" lon="5.98983">
        <ele>360.2</ele>
        <time>2023-06-11T08:56:53Z</time>
      </trkpt>
      <trkpt lat="43.71177" lon="5.98981">
        <ele>360.1</ele>
        <time>2023-06-11T08:56:54Z</time>
      </trkpt>
      <trkpt lat="43.71177" lon="5.98979">
        <ele>360</ele>
        <time>2023-06-11T08:56:55Z</time>
      </trkpt>
      <trkpt lat="43.71177" lon="5.98977">
        <ele>360</ele>
        <time>2023-06-11T08:56:56Z</time>
      </trkpt>
      <trkpt lat="43.71178" lon="5.98975">
        <ele>360</ele>
        <time>2023-06-11T08:56:57Z</time>
      </trkpt>
      <trkpt lat="43.71178" lon="5.98973">
        <ele>360</ele>
        <time>2023-06-11T08:56:58Z</time>
      </trkpt>
      <trkpt lat="43.71178" lon="5.98972">
        <ele>360</ele>
        <time>2023-06-11T08:56:59Z</time>
      </trkpt>
      <trkpt lat="43.71178" lon="5.9897">
        <ele>359.9</ele>
        <time>2023-06-11T08:57:00Z</time>
      </trkpt>
      <trkpt lat="43.71178" lon="5.98968">
        <ele>359.8</ele>
        <time>2023-06-11T08:57:01Z</time>
      </trkpt>
      <trkpt lat="43.71178" lon="5.98966">
        <ele>359.8</ele>
        <time>2023-06-11T08:57:02Z</time>
      </trkpt>
      <trkpt lat="43.71178" lon="5.98964">
        <ele>359.8</ele>
        <time>2023-06-11T08:57:03Z</time>
      </trkpt>
      <trkpt lat="43.71179" lon="5.98962">
        <ele>359.8</ele>
        <time>2023-06-11T08:57:04Z</time>
      </trkpt>
      <trkpt lat="43.71179" lon="5.9896">
        <ele>359.8</ele>
        <time>2023-06-11T08:57:05Z</time>
      </trkpt>
      <trkpt lat="43.71179" lon="5.98958">
        <ele>359.8</ele>
        <time>2023-06-11T08:57:06Z</time>
      </trkpt>
      <trkpt lat="43.71179" lon="5.98956">
        <ele>359.8</ele>
        <time>2023-06-11T08:57:07Z</time>
      </trkpt>
      <trkpt lat="43.71179" lon="5.98954">
        <ele>359.8</ele>
        <time>2023-06-11T08:57:08Z</time>
      </trkpt>
      <trkpt lat="43.7118" lon="5.98952">
        <ele>359.8</ele>
        <time>2023-06-11T08:57:09Z</time>
      </trkpt>
      <trkpt lat="43.7118" lon="5.9895">
        <ele>359.8</ele>
        <time>2023-06-11T08:57:10Z</time>
      </trkpt>
      <trkpt lat="43.71181" lon="5.98948">
        <ele>359.8</ele>
        <time>2023-06-11T08:57:11Z</time>
      </trkpt>
      <trkpt lat="43.71181" lon="5.98946">
        <ele>359.8</ele>
        <time>2023-06-11T08:57:12Z</time>
      </trkpt>
      <trkpt lat="43.71181" lon="5.98944">
        <ele>359.8</ele>
        <time>2023-06-11T08:57:13Z</time>
      </trkpt>
      <trkpt lat="43.71182" lon="5.98942">
        <ele>359.8</ele>
        <time>2023-06-11T08:57:14Z</time>
      </trkpt>
      <trkpt lat="43.71182" lon="5.9894">
        <ele>359.9</ele>
        <time>2023-06-11T08:57:15Z</time>
      </trkpt>
      <trkpt lat="43.71183" lon="5.98938">
        <ele>359.9</ele>
        <time>2023-06-11T08:57:16Z</time>
      </trkpt>
      <trkpt lat="43.71183" lon="5.98937">
        <ele>360</ele>
        <time>2023-06-11T08:57:17Z</time>
      </trkpt>
      <trkpt lat="43.71184" lon="5.98935">
        <ele>360.1</ele>
        <time>2023-06-11T08:57:18Z</time>
      </trkpt>
      <trkpt lat="43.71184" lon="5.98933">
        <ele>360.2</ele>
        <time>2023-06-11T08:57:19Z</time>
      </trkpt>
      <trkpt lat="43.71185" lon="5.98931">
        <ele>360.2</ele>
        <time>2023-06-11T08:57:20Z</time>
      </trkpt>
      <trkpt lat="43.71185" lon="5.98929">
        <ele>360.3</ele>
        <time>2023-06-11T08:57:21Z</time>
      </trkpt>
      <trkpt lat="43.71185" lon="5.98927">
        <ele>360.3</ele>
        <time>2023-06-11T08:57:22Z</time>
      </trkpt>
      <trkpt lat="43.71186" lon="5.98926">
        <ele>360.3</ele>
        <time>2023-06-11T08:57:23Z</time>
      </trkpt>
      <trkpt lat="43.71186" lon="5.98924">
        <ele>360.3</ele>
        <time>2023-06-11T08:57:24Z</time>
      </trkpt>
      <trkpt lat="43.71187" lon="5.98922">
        <ele>360.2</ele>
        <time>2023-06-11T08:57:25Z</time>
      </trkpt>
      <trkpt lat="43.71187" lon="5.9892">
        <ele>360.2</ele>
        <time>2023-06-11T08:57:26Z</time>
      </trkpt>
      <trkpt lat="43.71188" lon="5.98918">
        <ele>360.1</ele>
        <time>2023-06-11T08:57:27Z</time>
      </trkpt>
      <trkpt lat="43.71189" lon="5.98917">
        <ele>360.1</ele>
        <time>2023-06-11T08:57:28Z</time>
      </trkpt>
      <trkpt lat="43.71189" lon="5.98915">
        <ele>360</ele>
        <time>2023-06-11T08:57:29Z</time>
      </trkpt>
      <trkpt lat="43.7119" lon="5.98913">
        <ele>360</ele>
        <time>2023-06-11T08:57:30Z</time>
      </trkpt>
      <trkpt lat="43.7119" lon="5.98911">
        <ele>360</ele>
        <time>2023-06-11T08:57:31Z</time>
      </trkpt>
      <trkpt lat="43.71191" lon="5.98909">
        <ele>360</ele>
        <time>2023-06-11T08:57:32Z</time>
      </trkpt>
      <trkpt lat="43.71192" lon="5.98908">
        <ele>360</ele>
        <time>2023-06-11T08:57:33Z</time>
      </trkpt>
      <trkpt lat="43.71192" lon="5.98906">
        <ele>360</ele>
        <time>2023-06-11T08:57:34Z</time>
      </trkpt>
      <trkpt lat="43.71193" lon="5.98904">
        <ele>360.1</ele>
        <time>2023-06-11T08:57:35Z</time>
      </trkpt>
      <trkpt lat="43.71194" lon="5.98902">
        <ele>360.1</ele>
        <time>2023-06-11T08:57:36Z</time>
      </trkpt>
      <trkpt lat="43.71194" lon="5.989">
        <ele>360</ele>
        <time>2023-06-11T08:57:37Z</time>
      </trkpt>
      <trkpt lat="43.71195" lon="5.98898">
        <ele>360</ele>
        <time>2023-06-11T08:57:38Z</time>
      </trkpt>
      <trkpt lat="43.71196" lon="5.98897">
        <ele>360</ele>
        <time>2023-06-11T08:57:39Z</time>
      </trkpt>
      <trkpt lat="43.71196" lon="5.98895">
        <ele>360</ele>
        <time>2023-06-11T08:57:40Z</time>
      </trkpt>
      <trkpt lat="43.71197" lon="5.98893">
        <ele>360</ele>
        <time>2023-06-11T08:57:41Z</time>
      </trkpt>
      <trkpt lat="43.71198" lon="5.98892">
        <ele>360</ele>
        <time>2023-06-11T08:57:42Z</time>
      </trkpt>
      <trkpt lat="43.71198" lon="5.9889">
        <ele>359.9</ele>
        <time>2023-06-11T08:57:43Z</time>
      </trkpt>
      <trkpt lat="43.71199" lon="5.98888">
        <ele>359.8</ele>
        <time>2023-06-11T08:57:44Z</time>
      </trkpt>
      <trkpt lat="43.71199" lon="5.98886">
        <ele>359.8</ele>
        <time>2023-06-11T08:57:45Z</time>
      </trkpt>
      <trkpt lat="43.712" lon="5.98884">
        <ele>359.9</ele>
        <time>2023-06-11T08:57:46Z</time>
      </trkpt>
      <trkpt lat="43.71201" lon="5.98883">
        <ele>359.9</ele>
        <time>2023-06-11T08:57:47Z</time>
      </trkpt>
      <trkpt lat="43.71201" lon="5.98881">
        <ele>359.9</ele>
        <time>2023-06-11T08:57:48Z</time>
      </trkpt>
      <trkpt lat="43.71202" lon="5.98879">
        <ele>360</ele>
        <time>2023-06-11T08:57:49Z</time>
      </trkpt>
      <trkpt lat="43.71203" lon="5.98878">
        <ele>360</ele>
        <time>2023-06-11T08:57:50Z</time>
      </trkpt>
      <trkpt lat="43.71203" lon="5.98876">
        <ele>360</ele>
        <time>2023-06-11T08:57:51Z</time>
      </trkpt>
      <trkpt lat="43.71204" lon="5.98874">
        <ele>360</ele>
        <time>2023-06-11T08:57:52Z</time>
      </trkpt>
      <trkpt lat="43.71205" lon="5.98872">
        <ele>360</ele>
        <time>2023-06-11T08:57:53Z</time>
      </trkpt>
      <trkpt lat="43.71205" lon="5.98871">
        <ele>360</ele>
        <time>2023-06-11T08:57:54Z</time>
      </trkpt>
      <trkpt lat="43.71206" lon="5.98869">
        <ele>359.9</ele>
        <time>2023-06-11T08:57:55Z</time>
      </trkpt>
      <trkpt lat="43.71207" lon="5.98867">
        <ele>359.9</ele>
        <time>2023-06-11T08:57:56Z</time>
      </trkpt>
      <trkpt lat="43.71207" lon="5.98865">
        <ele>360</ele>
        <time>2023-06-11T08:57:57Z</time>
      </trkpt>
      <trkpt lat="43.71207" lon="5.98863">
        <ele>360</ele>
        <time>2023-06-11T08:57:58Z</time>
      </trkpt>
      <trkpt lat="43.71207" lon="5.98861">
        <ele>360</ele>
        <time>2023-06-11T08:57:59Z</time>
      </trkpt>
      <trkpt lat="43.71207" lon="5.98859">
        <ele>360</ele>
        <time>2023-06-11T08:58:00Z</time>
      </trkpt>
      <trkpt lat="43.71208" lon="5.98857">
        <ele>360</ele>
        <time>2023-06-11T08:58:01Z</time>
      </trkpt>
      <trkpt lat="43.71208" lon="5.98856">
        <ele>359.9</ele>
        <time>2023-06-11T08:58:02Z</time>
      </trkpt>
      <trkpt lat="43.71209" lon="5.98854">
        <ele>359.9</ele>
        <time>2023-06-11T08:58:03Z</time>
      </trkpt>
      <trkpt lat="43.71209" lon="5.98852">
        <ele>359.9</ele>
        <time>2023-06-11T08:58:04Z</time>
      </trkpt>
      <trkpt lat="43.7121" lon="5.9885">
        <ele>359.9</ele>
        <time>2023-06-11T08:58:05Z</time>
      </trkpt>
      <trkpt lat="43.7121" lon="5.98848">
        <ele>359.9</ele>
        <time>2023-06-11T08:58:06Z</time>
      </trkpt>
      <trkpt lat="43.7121" lon="5.98846">
        <ele>359.9</ele>
        <time>2023-06-11T08:58:07Z</time>
      </trkpt>
      <trkpt lat="43.71211" lon="5.98844">
        <ele>359.9</ele>
        <time>2023-06-11T08:58:08Z</time>
      </trkpt>
      <trkpt lat="43.71211" lon="5.98843">
        <ele>359.9</ele>
        <time>2023-06-11T08:58:09Z</time>
      </trkpt>
      <trkpt lat="43.71212" lon="5.98841">
        <ele>359.9</ele>
        <time>2023-06-11T08:58:10Z</time>
      </trkpt>
      <trkpt lat="43.71212" lon="5.98839">
        <ele>359.9</ele>
        <time>2023-06-11T08:58:11Z</time>
      </trkpt>
      <trkpt lat="43.71213" lon="5.98837">
        <ele>359.8</ele>
        <time>2023-06-11T08:58:12Z</time>
      </trkpt>
      <trkpt lat="43.71213" lon="5.98836">
        <ele>359.8</ele>
        <time>2023-06-11T08:58:13Z</time>
      </trkpt>
      <trkpt lat="43.71214" lon="5.98834">
        <ele>359.8</ele>
        <time>2023-06-11T08:58:14Z</time>
      </trkpt>
      <trkpt lat="43.71215" lon="5.98832">
        <ele>359.7</ele>
        <time>2023-06-11T08:58:15Z</time>
      </trkpt>
      <trkpt lat="43.71216" lon="5.98831">
        <ele>359.7</ele>
        <time>2023-06-11T08:58:16Z</time>
      </trkpt>
      <trkpt lat="43.71217" lon="5.98829">
        <ele>359.6</ele>
        <time>2023-06-11T08:58:17Z</time>
      </trkpt>
      <trkpt lat="43.71217" lon="5.98828">
        <ele>359.6</ele>
        <time>2023-06-11T08:58:18Z</time>
      </trkpt>
      <trkpt lat="43.71218" lon="5.98826">
        <ele>359.6</ele>
        <time>2023-06-11T08:58:19Z</time>
      </trkpt>
      <trkpt lat="43.71219" lon="5.98825">
        <ele>359.7</ele>
        <time>2023-06-11T08:58:20Z</time>
      </trkpt>
      <trkpt lat="43.7122" lon="5.98823">
        <ele>359.7</ele>
        <time>2023-06-11T08:58:21Z</time>
      </trkpt>
      <trkpt lat="43.71221" lon="5.98822">
        <ele>359.7</ele>
        <time>2023-06-11T08:58:22Z</time>
      </trkpt>
      <trkpt lat="43.71222" lon="5.98821">
        <ele>359.7</ele>
        <time>2023-06-11T08:58:23Z</time>
      </trkpt>
      <trkpt lat="43.71223" lon="5.98819">
        <ele>359.7</ele>
        <time>2023-06-11T08:58:24Z</time>
      </trkpt>
      <trkpt lat="43.71224" lon="5.98818">
        <ele>359.7</ele>
        <time>2023-06-11T08:58:25Z</time>
      </trkpt>
      <trkpt lat="43.71225" lon="5.98817">
        <ele>359.8</ele>
        <time>2023-06-11T08:58:26Z</time>
      </trkpt>
      <trkpt lat="43.71226" lon="5.98815">
        <ele>359.8</ele>
        <time>2023-06-11T08:58:27Z</time>
      </trkpt>
      <trkpt lat="43.71227" lon="5.98814">
        <ele>359.8</ele>
        <time>2023-06-11T08:58:28Z</time>
      </trkpt>
      <trkpt lat="43.71227" lon="5.98812">
        <ele>359.8</ele>
        <time>2023-06-11T08:58:29Z</time>
      </trkpt>
      <trkpt lat="43.71228" lon="5.98811">
        <ele>359.9</ele>
        <time>2023-06-11T08:58:30Z</time>
      </trkpt>
      <trkpt lat="43.71229" lon="5.9881">
        <ele>359.9</ele>
        <time>2023-06-11T08:58:31Z</time>
      </trkpt>
      <trkpt lat="43.7123" lon="5.98808">
        <ele>359.8</ele>
        <time>2023-06-11T08:58:32Z</time>
      </trkpt>
      <trkpt lat="43.71231" lon="5.98807">
        <ele>359.9</ele>
        <time>2023-06-11T08:58:33Z</time>
      </trkpt>
      <trkpt lat="43.71232" lon="5.98806">
        <ele>360</ele>
        <time>2023-06-11T08:58:34Z</time>
      </trkpt>
      <trkpt lat="43.71233" lon="5.98805">
        <ele>360</ele>
        <time>2023-06-11T08:58:35Z</time>
      </trkpt>
      <trkpt lat="43.71234" lon="5.98803">
        <ele>360.1</ele>
        <time>2023-06-11T08:58:36Z</time>
      </trkpt>
      <trkpt lat="43.71235" lon="5.98802">
        <ele>360</ele>
        <time>2023-06-11T08:58:37Z</time>
      </trkpt>
      <trkpt lat="43.71236" lon="5.98801">
        <ele>360</ele>
        <time>2023-06-11T08:58:38Z</time>
      </trkpt>
      <trkpt lat="43.71237" lon="5.98799">
        <ele>360</ele>
        <time>2023-06-11T08:58:39Z</time>
      </trkpt>
      <trkpt lat="43.71238" lon="5.98798">
        <ele>360</ele>
        <time>2023-06-11T08:58:40Z</time>
      </trkpt>
      <trkpt lat="43.71239" lon="5.98797">
        <ele>359.9</ele>
        <time>2023-06-11T08:58:41Z</time>
      </trkpt>
      <trkpt lat="43.7124" lon="5.98796">
        <ele>360</ele>
        <time>2023-06-11T08:58:42Z</time>
      </trkpt>
      <trkpt lat="43.71241" lon="5.98794">
        <ele>359.9</ele>
        <time>2023-06-11T08:58:43Z</time>
      </trkpt>
      <trkpt lat="43.71242" lon="5.98793">
        <ele>359.9</ele>
        <time>2023-06-11T08:58:44Z</time>
      </trkpt>
      <trkpt lat="43.71243" lon="5.98791">
        <ele>360</ele>
        <time>2023-06-11T08:58:45Z</time>
      </trkpt>
      <trkpt lat="43.71244" lon="5.9879">
        <ele>360</ele>
        <time>2023-06-11T08:58:46Z</time>
      </trkpt>
      <trkpt lat="43.71245" lon="5.98789">
        <ele>359.9</ele>
        <time>2023-06-11T08:58:47Z</time>
      </trkpt>
      <trkpt lat="43.71246" lon="5.98788">
        <ele>359.9</ele>
        <time>2023-06-11T08:58:48Z</time>
      </trkpt>
      <trkpt lat="43.71247" lon="5.98786">
        <ele>360</ele>
        <time>2023-06-11T08:58:49Z</time>
      </trkpt>
      <trkpt lat="43.71248" lon="5.98785">
        <ele>360</ele>
        <time>2023-06-11T08:58:50Z</time>
      </trkpt>
      <trkpt lat="43.71249" lon="5.98784">
        <ele>360</ele>
        <time>2023-06-11T08:58:51Z</time>
      </trkpt>
      <trkpt lat="43.7125" lon="5.98782">
        <ele>360</ele>
        <time>2023-06-11T08:58:52Z</time>
      </trkpt>
      <trkpt lat="43.71251" lon="5.98781">
        <ele>360</ele>
        <time>2023-06-11T08:58:53Z</time>
      </trkpt>
      <trkpt lat="43.71252" lon="5.9878">
        <ele>360</ele>
        <time>2023-06-11T08:58:54Z</time>
      </trkpt>
      <trkpt lat="43.71253" lon="5.98779">
        <ele>360</ele>
        <time>2023-06-11T08:58:55Z</time>
      </trkpt>
      <trkpt lat="43.71254" lon="5.98778">
        <ele>360</ele>
        <time>2023-06-11T08:58:56Z</time>
      </trkpt>
      <trkpt lat="43.71255" lon="5.98776">
        <ele>360</ele>
        <time>2023-06-11T08:58:57Z</time>
      </trkpt>
      <trkpt lat="43.71256" lon="5.98775">
        <ele>360</ele>
        <time>2023-06-11T08:58:58Z</time>
      </trkpt>
      <trkpt lat="43.71257" lon="5.98774">
        <ele>360</ele>
        <time>2023-06-11T08:58:59Z</time>
      </trkpt>
      <trkpt lat="43.71258" lon="5.98773">
        <ele>360.1</ele>
        <time>2023-06-11T08:59:00Z</time>
      </trkpt>
      <trkpt lat="43.71259" lon="5.98771">
        <ele>360.1</ele>
        <time>2023-06-11T08:59:01Z</time>
      </trkpt>
      <trkpt lat="43.7126" lon="5.9877">
        <ele>360</ele>
        <time>2023-06-11T08:59:02Z</time>
      </trkpt>
      <trkpt lat="43.71261" lon="5.98769">
        <ele>359.9</ele>
        <time>2023-06-11T08:59:03Z</time>
      </trkpt>
      <trkpt lat="43.71262" lon="5.98767">
        <ele>359.8</ele>
        <time>2023-06-11T08:59:04Z</time>
      </trkpt>
      <trkpt lat="43.71263" lon="5.98766">
        <ele>359.7</ele>
        <time>2023-06-11T08:59:05Z</time>
      </trkpt>
      <trkpt lat="43.71264" lon="5.98764">
        <ele>359.7</ele>
        <time>2023-06-11T08:59:06Z</time>
      </trkpt>
      <trkpt lat="43.71265" lon="5.98763">
        <ele>359.8</ele>
        <time>2023-06-11T08:59:07Z</time>
      </trkpt>
      <trkpt lat="43.71266" lon="5.98762">
        <ele>359.8</ele>
        <time>2023-06-11T08:59:08Z</time>
      </trkpt>
      <trkpt lat="43.71267" lon="5.9876">
        <ele>359.8</ele>
        <time>2023-06-11T08:59:09Z</time>
      </trkpt>
      <trkpt lat="43.71267" lon="5.98759">
        <ele>359.8</ele>
        <time>2023-06-11T08:59:10Z</time>
      </trkpt>
      <trkpt lat="43.71268" lon="5.98757">
        <ele>359.9</ele>
        <time>2023-06-11T08:59:11Z</time>
      </trkpt>
      <trkpt lat="43.71269" lon="5.98756">
        <ele>359.9</ele>
        <time>2023-06-11T08:59:12Z</time>
      </trkpt>
      <trkpt lat="43.7127" lon="5.98755">
        <ele>359.9</ele>
        <time>2023-06-11T08:59:13Z</time>
      </trkpt>
      <trkpt lat="43.71271" lon="5.98753">
        <ele>359.9</ele>
        <time>2023-06-11T08:59:14Z</time>
      </trkpt>
      <trkpt lat="43.71272" lon="5.98752">
        <ele>359.8</ele>
        <time>2023-06-11T08:59:15Z</time>
      </trkpt>
      <trkpt lat="43.71273" lon="5.98751">
        <ele>359.8</ele>
        <time>2023-06-11T08:59:16Z</time>
      </trkpt>
      <trkpt lat="43.71274" lon="5.98749">
        <ele>359.8</ele>
        <time>2023-06-11T08:59:17Z</time>
      </trkpt>
      <trkpt lat="43.71275" lon="5.98748">
        <ele>359.8</ele>
        <time>2023-06-11T08:59:18Z</time>
      </trkpt>
      <trkpt lat="43.71276" lon="5.98747">
        <ele>359.8</ele>
        <time>2023-06-11T08:59:19Z</time>
      </trkpt>
      <trkpt lat="43.71277" lon="5.98746">
        <ele>359.8</ele>
        <time>2023-06-11T08:59:20Z</time>
      </trkpt>
      <trkpt lat="43.71278" lon="5.98744">
        <ele>359.8</ele>
        <time>2023-06-11T08:59:21Z</time>
      </trkpt>
      <trkpt lat="43.71279" lon="5.98743">
        <ele>359.8</ele>
        <time>2023-06-11T08:59:22Z</time>
      </trkpt>
      <trkpt lat="43.7128" lon="5.98742">
        <ele>359.8</ele>
        <time>2023-06-11T08:59:23Z</time>
      </trkpt>
      <trkpt lat="43.71281" lon="5.9874">
        <ele>359.8</ele>
        <time>2023-06-11T08:59:24Z</time>
      </trkpt>
      <trkpt lat="43.71282" lon="5.98739">
        <ele>359.8</ele>
        <time>2023-06-11T08:59:25Z</time>
      </trkpt>
      <trkpt lat="43.71283" lon="5.98738">
        <ele>359.8</ele>
        <time>2023-06-11T08:59:26Z</time>
      </trkpt>
      <trkpt lat="43.71284" lon="5.98737">
        <ele>359.8</ele>
        <time>2023-06-11T08:59:27Z</time>
      </trkpt>
      <trkpt lat="43.71285" lon="5.98736">
        <ele>359.8</ele>
        <time>2023-06-11T08:59:28Z</time>
      </trkpt>
      <trkpt lat="43.71286" lon="5.98735">
        <ele>359.8</ele>
        <time>2023-06-11T08:59:29Z</time>
      </trkpt>
      <trkpt lat="43.71287" lon="5.98733">
        <ele>359.8</ele>
        <time>2023-06-11T08:59:30Z</time>
      </trkpt>
      <trkpt lat="43.71288" lon="5.98732">
        <ele>359.7</ele>
        <time>2023-06-11T08:59:31Z</time>
      </trkpt>
      <trkpt lat="43.71289" lon="5.98731">
        <ele>359.7</ele>
        <time>2023-06-11T08:59:32Z</time>
      </trkpt>
      <trkpt lat="43.7129" lon="5.98729">
        <ele>359.8</ele>
        <time>2023-06-11T08:59:33Z</time>
      </trkpt>
      <trkpt lat="43.71291" lon="5.98728">
        <ele>359.8</ele>
        <time>2023-06-11T08:59:34Z</time>
      </trkpt>
      <trkpt lat="43.71292" lon="5.98727">
        <ele>359.7</ele>
        <time>2023-06-11T08:59:35Z</time>
      </trkpt>
      <trkpt lat="43.71293" lon="5.98726">
        <ele>359.7</ele>
        <time>2023-06-11T08:59:36Z</time>
      </trkpt>
      <trkpt lat="43.71294" lon="5.98724">
        <ele>359.6</ele>
        <time>2023-06-11T08:59:37Z</time>
      </trkpt>
      <trkpt lat="43.71296" lon="5.98723">
        <ele>359.6</ele>
        <time>2023-06-11T08:59:38Z</time>
      </trkpt>
      <trkpt lat="43.71297" lon="5.98722">
        <ele>359.6</ele>
        <time>2023-06-11T08:59:39Z</time>
      </trkpt>
      <trkpt lat="43.71297" lon="5.9872">
        <ele>359.5</ele>
        <time>2023-06-11T08:59:40Z</time>
      </trkpt>
      <trkpt lat="43.71298" lon="5.98719">
        <ele>359.5</ele>
        <time>2023-06-11T08:59:41Z</time>
      </trkpt>
      <trkpt lat="43.71299" lon="5.98718">
        <ele>359.6</ele>
        <time>2023-06-11T08:59:42Z</time>
      </trkpt>
      <trkpt lat="43.713" lon="5.98716">
        <ele>359.6</ele>
        <time>2023-06-11T08:59:43Z</time>
      </trkpt>
      <trkpt lat="43.71301" lon="5.98715">
        <ele>359.6</ele>
        <time>2023-06-11T08:59:44Z</time>
      </trkpt>
      <trkpt lat="43.71302" lon="5.98714">
        <ele>359.7</ele>
        <time>2023-06-11T08:59:45Z</time>
      </trkpt>
      <trkpt lat="43.71303" lon="5.98712">
        <ele>359.7</ele>
        <time>2023-06-11T08:59:46Z</time>
      </trkpt>
      <trkpt lat="43.71304" lon="5.98711">
        <ele>359.7</ele>
        <time>2023-06-11T08:59:47Z</time>
      </trkpt>
      <trkpt lat="43.71305" lon="5.9871">
        <ele>359.7</ele>
        <time>2023-06-11T08:59:48Z</time>
      </trkpt>
      <trkpt lat="43.71306" lon="5.98708">
        <ele>359.8</ele>
        <time>2023-06-11T08:59:49Z</time>
      </trkpt>
      <trkpt lat="43.71307" lon="5.98707">
        <ele>359.8</ele>
        <time>2023-06-11T08:59:50Z</time>
      </trkpt>
      <trkpt lat="43.71308" lon="5.98706">
        <ele>359.8</ele>
        <time>2023-06-11T08:59:51Z</time>
      </trkpt>
      <trkpt lat="43.71309" lon="5.98704">
        <ele>359.8</ele>
        <time>2023-06-11T08:59:52Z</time>
      </trkpt>
      <trkpt lat="43.7131" lon="5.98703">
        <ele>359.8</ele>
        <time>2023-06-11T08:59:53Z</time>
      </trkpt>
      <trkpt lat="43.71311" lon="5.98701">
        <ele>359.8</ele>
        <time>2023-06-11T08:59:54Z</time>
      </trkpt>
      <trkpt lat="43.71312" lon="5.987">
        <ele>359.8</ele>
        <time>2023-06-11T08:59:55Z</time>
      </trkpt>
      <trkpt lat="43.71313" lon="5.98699">
        <ele>359.8</ele>
        <time>2023-06-11T08:59:56Z</time>
      </trkpt>
      <trkpt lat="43.71314" lon="5.98697">
        <ele>359.8</ele>
        <time>2023-06-11T08:59:57Z</time>
      </trkpt>
      <trkpt lat="43.71315" lon="5.98696">
        <ele>359.8</ele>
        <time>2023-06-11T08:59:58Z</time>
      </trkpt>
      <trkpt lat="43.71316" lon="5.98695">
        <ele>359.8</ele>
        <time>2023-06-11T08:59:59Z</time>
      </trkpt>
      <trkpt lat="43.71317" lon="5.98694">
        <ele>359.8</ele>
        <time>2023-06-11T09:00:00Z</time>
      </trkpt>
      <trkpt lat="43.71318" lon="5.98692">
        <ele>359.8</ele>
        <time>2023-06-11T09:00:01Z</time>
      </trkpt>
      <trkpt lat="43.71319" lon="5.98691">
        <ele>359.8</ele>
        <time>2023-06-11T09:00:02Z</time>
      </trkpt>
      <trkpt lat="43.7132" lon="5.9869">
        <ele>359.9</ele>
        <time>2023-06-11T09:00:03Z</time>
      </trkpt>
      <trkpt lat="43.71321" lon="5.98689">
        <ele>359.9</ele>
        <time>2023-06-11T09:00:04Z</time>
      </trkpt>
      <trkpt lat="43.71322" lon="5.98687">
        <ele>359.9</ele>
        <time>2023-06-11T09:00:05Z</time>
      </trkpt>
      <trkpt lat="43.71323" lon="5.98686">
        <ele>359.8</ele>
        <time>2023-06-11T09:00:06Z</time>
      </trkpt>
      <trkpt lat="43.71324" lon="5.98685">
        <ele>359.8</ele>
        <time>2023-06-11T09:00:07Z</time>
      </trkpt>
      <trkpt lat="43.71325" lon="5.98684">
        <ele>359.8</ele>
        <time>2023-06-11T09:00:08Z</time>
      </trkpt>
      <trkpt lat="43.71326" lon="5.98682">
        <ele>359.8</ele>
        <time>2023-06-11T09:00:09Z</time>
      </trkpt>
      <trkpt lat="43.71327" lon="5.98681">
        <ele>359.8</ele>
        <time>2023-06-11T09:00:10Z</time>
      </trkpt>
      <trkpt lat="43.71328" lon="5.9868">
        <ele>359.8</ele>
        <time>2023-06-11T09:00:11Z</time>
      </trkpt>
      <trkpt lat="43.71329" lon="5.98678">
        <ele>359.8</ele>
        <time>2023-06-11T09:00:12Z</time>
      </trkpt>
      <trkpt lat="43.7133" lon="5.98677">
        <ele>359.8</ele>
        <time>2023-06-11T09:00:13Z</time>
      </trkpt>
      <trkpt lat="43.71331" lon="5.98676">
        <ele>359.9</ele>
        <time>2023-06-11T09:00:14Z</time>
      </trkpt>
      <trkpt lat="43.71332" lon="5.98675">
        <ele>359.9</ele>
        <time>2023-06-11T09:00:15Z</time>
      </trkpt>
      <trkpt lat="43.71333" lon="5.98674">
        <ele>359.9</ele>
        <time>2023-06-11T09:00:16Z</time>
      </trkpt>
      <trkpt lat="43.71334" lon="5.98672">
        <ele>359.9</ele>
        <time>2023-06-11T09:00:17Z</time>
      </trkpt>
      <trkpt lat="43.71335" lon="5.98671">
        <ele>359.8</ele>
        <time>2023-06-11T09:00:18Z</time>
      </trkpt>
      <trkpt lat="43.71336" lon="5.98669">
        <ele>359.9</ele>
        <time>2023-06-11T09:00:19Z</time>
      </trkpt>
      <trkpt lat="43.71337" lon="5.98668">
        <ele>359.9</ele>
        <time>2023-06-11T09:00:20Z</time>
      </trkpt>
      <trkpt lat="43.71338" lon="5.98666">
        <ele>359.9</ele>
        <time>2023-06-11T09:00:21Z</time>
      </trkpt>
      <trkpt lat="43.71338" lon="5.98665">
        <ele>359.9</ele>
        <time>2023-06-11T09:00:22Z</time>
      </trkpt>
      <trkpt lat="43.71339" lon="5.98663">
        <ele>359.9</ele>
        <time>2023-06-11T09:00:23Z</time>
      </trkpt>
      <trkpt lat="43.7134" lon="5.98662">
        <ele>359.9</ele>
        <time>2023-06-11T09:00:24Z</time>
      </trkpt>
      <trkpt lat="43.71341" lon="5.98661">
        <ele>359.9</ele>
        <time>2023-06-11T09:00:25Z</time>
      </trkpt>
      <trkpt lat="43.71343" lon="5.98659">
        <ele>360</ele>
        <time>2023-06-11T09:00:26Z</time>
      </trkpt>
      <trkpt lat="43.71344" lon="5.98658">
        <ele>359.9</ele>
        <time>2023-06-11T09:00:27Z</time>
      </trkpt>
      <trkpt lat="43.71345" lon="5.98656">
        <ele>359.9</ele>
        <time>2023-06-11T09:00:28Z</time>
      </trkpt>
      <trkpt lat="43.71345" lon="5.98654">
        <ele>359.8</ele>
        <time>2023-06-11T09:00:29Z</time>
      </trkpt>
      <trkpt lat="43.71346" lon="5.98653">
        <ele>359.8</ele>
        <time>2023-06-11T09:00:30Z</time>
      </trkpt>
      <trkpt lat="43.71347" lon="5.98651">
        <ele>359.8</ele>
        <time>2023-06-11T09:00:31Z</time>
      </trkpt>
      <trkpt lat="43.71348" lon="5.98649">
        <ele>359.8</ele>
        <time>2023-06-11T09:00:32Z</time>
      </trkpt>
      <trkpt lat="43.71349" lon="5.98647">
        <ele>359.7</ele>
        <time>2023-06-11T09:00:33Z</time>
      </trkpt>
      <trkpt lat="43.71349" lon="5.98646">
        <ele>359.8</ele>
        <time>2023-06-11T09:00:34Z</time>
      </trkpt>
      <trkpt lat="43.7135" lon="5.98644">
        <ele>359.7</ele>
        <time>2023-06-11T09:00:35Z</time>
      </trkpt>
      <trkpt lat="43.71351" lon="5.98642">
        <ele>359.8</ele>
        <time>2023-06-11T09:00:36Z</time>
      </trkpt>
      <trkpt lat="43.71352" lon="5.9864">
        <ele>359.8</ele>
        <time>2023-06-11T09:00:37Z</time>
      </trkpt>
      <trkpt lat="43.71353" lon="5.98639">
        <ele>359.7</ele>
        <time>2023-06-11T09:00:38Z</time>
      </trkpt>
      <trkpt lat="43.71353" lon="5.98637">
        <ele>359.8</ele>
        <time>2023-06-11T09:00:39Z</time>
      </trkpt>
      <trkpt lat="43.71354" lon="5.98635">
        <ele>359.9</ele>
        <time>2023-06-11T09:00:40Z</time>
      </trkpt>
      <trkpt lat="43.71355" lon="5.98633">
        <ele>359.8</ele>
        <time>2023-06-11T09:00:41Z</time>
      </trkpt>
      <trkpt lat="43.71356" lon="5.98632">
        <ele>359.8</ele>
        <time>2023-06-11T09:00:42Z</time>
      </trkpt>
      <trkpt lat="43.71356" lon="5.9863">
        <ele>359.8</ele>
        <time>2023-06-11T09:00:43Z</time>
      </trkpt>
      <trkpt lat="43.71357" lon="5.98628">
        <ele>359.8</ele>
        <time>2023-06-11T09:00:44Z</time>
      </trkpt>
      <trkpt lat="43.71358" lon="5.98626">
        <ele>359.8</ele>
        <time>2023-06-11T09:00:45Z</time>
      </trkpt>
      <trkpt lat="43.71359" lon="5.98625">
        <ele>359.8</ele>
        <time>2023-06-11T09:00:46Z</time>
      </trkpt>
      <trkpt lat="43.7136" lon="5.98623">
        <ele>359.9</ele>
        <time>2023-06-11T09:00:47Z</time>
      </trkpt>
      <trkpt lat="43.7136" lon="5.98621">
        <ele>359.9</ele>
        <time>2023-06-11T09:00:48Z</time>
      </trkpt>
      <trkpt lat="43.71361" lon="5.9862">
        <ele>360</ele>
        <time>2023-06-11T09:00:49Z</time>
      </trkpt>
      <trkpt lat="43.71362" lon="5.98618">
        <ele>360</ele>
        <time>2023-06-11T09:00:50Z</time>
      </trkpt>
      <trkpt lat="43.71363" lon="5.98617">
        <ele>360</ele>
        <time>2023-06-11T09:00:51Z</time>
      </trkpt>
      <trkpt lat="43.71364" lon="5.98615">
        <ele>360</ele>
        <time>2023-06-11T09:00:52Z</time>
      </trkpt>
      <trkpt lat="43.71365" lon="5.98613">
        <ele>360</ele>
        <time>2023-06-11T09:00:53Z</time>
      </trkpt>
      <trkpt lat="43.71365" lon="5.98612">
        <ele>359.9</ele>
        <time>2023-06-11T09:00:54Z</time>
      </trkpt>
      <trkpt lat="43.71366" lon="5.9861">
        <ele>359.9</ele>
        <time>2023-06-11T09:00:55Z</time>
      </trkpt>
      <trkpt lat="43.71367" lon="5.98609">
        <ele>360</ele>
        <time>2023-06-11T09:00:56Z</time>
      </trkpt>
      <trkpt lat="43.71368" lon="5.98607">
        <ele>360</ele>
        <time>2023-06-11T09:00:57Z</time>
      </trkpt>
      <trkpt lat="43.71369" lon="5.98605">
        <ele>359.9</ele>
        <time>2023-06-11T09:00:58Z</time>
      </trkpt>
      <trkpt lat="43.7137" lon="5.98604">
        <ele>359.9</ele>
        <time>2023-06-11T09:00:59Z</time>
      </trkpt>
      <trkpt lat="43.71371" lon="5.98602">
        <ele>359.9</ele>
        <time>2023-06-11T09:01:00Z</time>
      </trkpt>
      <trkpt lat="43.71372" lon="5.98601">
        <ele>359.9</ele>
        <time>2023-06-11T09:01:01Z</time>
      </trkpt>
      <trkpt lat="43.71373" lon="5.98599">
        <ele>359.9</ele>
        <time>2023-06-11T09:01:02Z</time>
      </trkpt>
      <trkpt lat="43.71374" lon="5.98597">
        <ele>360</ele>
        <time>2023-06-11T09:01:03Z</time>
      </trkpt>
      <trkpt lat="43.71374" lon="5.98595">
        <ele>359.9</ele>
        <time>2023-06-11T09:01:04Z</time>
      </trkpt>
      <trkpt lat="43.71375" lon="5.98594">
        <ele>359.9</ele>
        <time>2023-06-11T09:01:05Z</time>
      </trkpt>
      <trkpt lat="43.71376" lon="5.98592">
        <ele>359.9</ele>
        <time>2023-06-11T09:01:06Z</time>
      </trkpt>
      <trkpt lat="43.71377" lon="5.98591">
        <ele>359.9</ele>
        <time>2023-06-11T09:01:07Z</time>
      </trkpt>
      <trkpt lat="43.71378" lon="5.98589">
        <ele>359.9</ele>
        <time>2023-06-11T09:01:08Z</time>
      </trkpt>
      <trkpt lat="43.71379" lon="5.98587">
        <ele>359.9</ele>
        <time>2023-06-11T09:01:09Z</time>
      </trkpt>
      <trkpt lat="43.71379" lon="5.98586">
        <ele>359.9</ele>
        <time>2023-06-11T09:01:10Z</time>
      </trkpt>
      <trkpt lat="43.7138" lon="5.98584">
        <ele>360</ele>
        <time>2023-06-11T09:01:11Z</time>
      </trkpt>
      <trkpt lat="43.71381" lon="5.98582">
        <ele>360</ele>
        <time>2023-06-11T09:01:12Z</time>
      </trkpt>
      <trkpt lat="43.71382" lon="5.98581">
        <ele>360</ele>
        <time>2023-06-11T09:01:13Z</time>
      </trkpt>
      <trkpt lat="43.71383" lon="5.98579">
        <ele>360</ele>
        <time>2023-06-11T09:01:14Z</time>
      </trkpt>
      <trkpt lat="43.71384" lon="5.98577">
        <ele>360.1</ele>
        <time>2023-06-11T09:01:15Z</time>
      </trkpt>
      <trkpt lat="43.71385" lon="5.98575">
        <ele>360.1</ele>
        <time>2023-06-11T09:01:16Z</time>
      </trkpt>
      <trkpt lat="43.71385" lon="5.98574">
        <ele>360.1</ele>
        <time>2023-06-11T09:01:17Z</time>
      </trkpt>
      <trkpt lat="43.71386" lon="5.98572">
        <ele>360.1</ele>
        <time>2023-06-11T09:01:18Z</time>
      </trkpt>
      <trkpt lat="43.71387" lon="5.9857">
        <ele>360.1</ele>
        <time>2023-06-11T09:01:19Z</time>
      </trkpt>
      <trkpt lat="43.71388" lon="5.98569">
        <ele>360</ele>
        <time>2023-06-11T09:01:20Z</time>
      </trkpt>
      <trkpt lat="43.71389" lon="5.98567">
        <ele>359.9</ele>
        <time>2023-06-11T09:01:21Z</time>
      </trkpt>
      <trkpt lat="43.7139" lon="5.98566">
        <ele>359.8</ele>
        <time>2023-06-11T09:01:22Z</time>
      </trkpt>
      <trkpt lat="43.7139" lon="5.98564">
        <ele>359.8</ele>
        <time>2023-06-11T09:01:23Z</time>
      </trkpt>
      <trkpt lat="43.71391" lon="5.98562">
        <ele>359.7</ele>
        <time>2023-06-11T09:01:24Z</time>
      </trkpt>
      <trkpt lat="43.71392" lon="5.9856">
        <ele>359.7</ele>
        <time>2023-06-11T09:01:25Z</time>
      </trkpt>
      <trkpt lat="43.71392" lon="5.98558">
        <ele>359.7</ele>
        <time>2023-06-11T09:01:26Z</time>
      </trkpt>
      <trkpt lat="43.71393" lon="5.98557">
        <ele>359.7</ele>
        <time>2023-06-11T09:01:27Z</time>
      </trkpt>
      <trkpt lat="43.71394" lon="5.98555">
        <ele>359.7</ele>
        <time>2023-06-11T09:01:28Z</time>
      </trkpt>
      <trkpt lat="43.71395" lon="5.98553">
        <ele>359.7</ele>
        <time>2023-06-11T09:01:29Z</time>
      </trkpt>
      <trkpt lat="43.71396" lon="5.98552">
        <ele>359.7</ele>
        <time>2023-06-11T09:01:30Z</time>
      </trkpt>
      <trkpt lat="43.71396" lon="5.9855">
        <ele>359.7</ele>
        <time>2023-06-11T09:01:31Z</time>
      </trkpt>
      <trkpt lat="43.71397" lon="5.98548">
        <ele>359.8</ele>
        <time>2023-06-11T09:01:32Z</time>
      </trkpt>
      <trkpt lat="43.71398" lon="5.98547">
        <ele>359.8</ele>
        <time>2023-06-11T09:01:33Z</time>
      </trkpt>
      <trkpt lat="43.71399" lon="5.98545">
        <ele>359.9</ele>
        <time>2023-06-11T09:01:34Z</time>
      </trkpt>
      <trkpt lat="43.71399" lon="5.98543">
        <ele>359.9</ele>
        <time>2023-06-11T09:01:35Z</time>
      </trkpt>
      <trkpt lat="43.714" lon="5.98542">
        <ele>360</ele>
        <time>2023-06-11T09:01:36Z</time>
      </trkpt>
      <trkpt lat="43.71401" lon="5.9854">
        <ele>360</ele>
        <time>2023-06-11T09:01:37Z</time>
      </trkpt>
      <trkpt lat="43.71401" lon="5.98538">
        <ele>360</ele>
        <time>2023-06-11T09:01:38Z</time>
      </trkpt>
      <trkpt lat="43.71402" lon="5.98537">
        <ele>360</ele>
        <time>2023-06-11T09:01:39Z</time>
      </trkpt>
      <trkpt lat="43.71403" lon="5.98535">
        <ele>359.9</ele>
        <time>2023-06-11T09:01:40Z</time>
      </trkpt>
      <trkpt lat="43.71404" lon="5.98533">
        <ele>359.8</ele>
        <time>2023-06-11T09:01:41Z</time>
      </trkpt>
      <trkpt lat="43.71405" lon="5.98532">
        <ele>359.7</ele>
        <time>2023-06-11T09:01:42Z</time>
      </trkpt>
      <trkpt lat="43.71405" lon="5.9853">
        <ele>359.7</ele>
        <time>2023-06-11T09:01:43Z</time>
      </trkpt>
      <trkpt lat="43.71406" lon="5.98528">
        <ele>359.7</ele>
        <time>2023-06-11T09:01:44Z</time>
      </trkpt>
      <trkpt lat="43.71407" lon="5.98527">
        <ele>359.7</ele>
        <time>2023-06-11T09:01:45Z</time>
      </trkpt>
      <trkpt lat="43.71408" lon="5.98525">
        <ele>359.7</ele>
        <time>2023-06-11T09:01:46Z</time>
      </trkpt>
      <trkpt lat="43.71408" lon="5.98523">
        <ele>359.7</ele>
        <time>2023-06-11T09:01:47Z</time>
      </trkpt>
      <trkpt lat="43.71409" lon="5.98522">
        <ele>359.7</ele>
        <time>2023-06-11T09:01:48Z</time>
      </trkpt>
      <trkpt lat="43.7141" lon="5.9852">
        <ele>359.8</ele>
        <time>2023-06-11T09:01:49Z</time>
      </trkpt>
      <trkpt lat="43.71411" lon="5.98518">
        <ele>359.8</ele>
        <time>2023-06-11T09:01:50Z</time>
      </trkpt>
      <trkpt lat="43.71411" lon="5.98517">
        <ele>359.8</ele>
        <time>2023-06-11T09:01:51Z</time>
      </trkpt>
      <trkpt lat="43.71412" lon="5.98515">
        <ele>359.9</ele>
        <time>2023-06-11T09:01:52Z</time>
      </trkpt>
      <trkpt lat="43.71413" lon="5.98514">
        <ele>359.8</ele>
        <time>2023-06-11T09:01:53Z</time>
      </trkpt>
      <trkpt lat="43.71414" lon="5.98512">
        <ele>359.9</ele>
        <time>2023-06-11T09:01:54Z</time>
      </trkpt>
      <trkpt lat="43.71415" lon="5.9851">
        <ele>359.9</ele>
        <time>2023-06-11T09:01:55Z</time>
      </trkpt>
      <trkpt lat="43.71415" lon="5.98509">
        <ele>359.9</ele>
        <time>2023-06-11T09:01:56Z</time>
      </trkpt>
      <trkpt lat="43.71416" lon="5.98507">
        <ele>359.8</ele>
        <time>2023-06-11T09:01:57Z</time>
      </trkpt>
      <trkpt lat="43.71417" lon="5.98506">
        <ele>359.8</ele>
        <time>2023-06-11T09:01:58Z</time>
      </trkpt>
      <trkpt lat="43.71418" lon="5.98504">
        <ele>359.7</ele>
        <time>2023-06-11T09:01:59Z</time>
      </trkpt>
      <trkpt lat="43.71418" lon="5.98502">
        <ele>359.6</ele>
        <time>2023-06-11T09:02:00Z</time>
      </trkpt>
      <trkpt lat="43.71419" lon="5.98501">
        <ele>359.7</ele>
        <time>2023-06-11T09:02:01Z</time>
      </trkpt>
      <trkpt lat="43.7142" lon="5.98499">
        <ele>359.7</ele>
        <time>2023-06-11T09:02:02Z</time>
      </trkpt>
      <trkpt lat="43.71421" lon="5.98498">
        <ele>359.8</ele>
        <time>2023-06-11T09:02:03Z</time>
      </trkpt>
      <trkpt lat="43.71421" lon="5.98496">
        <ele>359.9</ele>
        <time>2023-06-11T09:02:04Z</time>
      </trkpt>
      <trkpt lat="43.71422" lon="5.98494">
        <ele>359.9</ele>
        <time>2023-06-11T09:02:05Z</time>
      </trkpt>
      <trkpt lat="43.71423" lon="5.98493">
        <ele>360</ele>
        <time>2023-06-11T09:02:06Z</time>
      </trkpt>
      <trkpt lat="43.71424" lon="5.98491">
        <ele>360</ele>
        <time>2023-06-11T09:02:07Z</time>
      </trkpt>
      <trkpt lat="43.71425" lon="5.9849">
        <ele>360</ele>
        <time>2023-06-11T09:02:08Z</time>
      </trkpt>
      <trkpt lat="43.71425" lon="5.98488">
        <ele>359.9</ele>
        <time>2023-06-11T09:02:09Z</time>
      </trkpt>
      <trkpt lat="43.71426" lon="5.98486">
        <ele>360</ele>
        <time>2023-06-11T09:02:10Z</time>
      </trkpt>
      <trkpt lat="43.71427" lon="5.98485">
        <ele>360</ele>
        <time>2023-06-11T09:02:11Z</time>
      </trkpt>
      <trkpt lat="43.71428" lon="5.98483">
        <ele>360</ele>
        <time>2023-06-11T09:02:12Z</time>
      </trkpt>
      <trkpt lat="43.71428" lon="5.98482">
        <ele>360</ele>
        <time>2023-06-11T09:02:13Z</time>
      </trkpt>
      <trkpt lat="43.71429" lon="5.9848">
        <ele>360</ele>
        <time>2023-06-11T09:02:14Z</time>
      </trkpt>
      <trkpt lat="43.7143" lon="5.98478">
        <ele>360</ele>
        <time>2023-06-11T09:02:15Z</time>
      </trkpt>
      <trkpt lat="43.71431" lon="5.98477">
        <ele>359.9</ele>
        <time>2023-06-11T09:02:16Z</time>
      </trkpt>
      <trkpt lat="43.71432" lon="5.98475">
        <ele>359.9</ele>
        <time>2023-06-11T09:02:17Z</time>
      </trkpt>
      <trkpt lat="43.71432" lon="5.98473">
        <ele>359.9</ele>
        <time>2023-06-11T09:02:18Z</time>
      </trkpt>
      <trkpt lat="43.71433" lon="5.98472">
        <ele>360</ele>
        <time>2023-06-11T09:02:19Z</time>
      </trkpt>
      <trkpt lat="43.71434" lon="5.9847">
        <ele>360.1</ele>
        <time>2023-06-11T09:02:20Z</time>
      </trkpt>
      <trkpt lat="43.71434" lon="5.98468">
        <ele>360.1</ele>
        <time>2023-06-11T09:02:21Z</time>
      </trkpt>
      <trkpt lat="43.71435" lon="5.98467">
        <ele>360.1</ele>
        <time>2023-06-11T09:02:22Z</time>
      </trkpt>
      <trkpt lat="43.71436" lon="5.98465">
        <ele>360.1</ele>
        <time>2023-06-11T09:02:23Z</time>
      </trkpt>
      <trkpt lat="43.71436" lon="5.98463">
        <ele>359.9</ele>
        <time>2023-06-11T09:02:24Z</time>
      </trkpt>
      <trkpt lat="43.71437" lon="5.98461">
        <ele>359.8</ele>
        <time>2023-06-11T09:02:25Z</time>
      </trkpt>
      <trkpt lat="43.71438" lon="5.9846">
        <ele>359.8</ele>
        <time>2023-06-11T09:02:26Z</time>
      </trkpt>
      <trkpt lat="43.71438" lon="5.98458">
        <ele>359.7</ele>
        <time>2023-06-11T09:02:27Z</time>
      </trkpt>
      <trkpt lat="43.71439" lon="5.98456">
        <ele>359.7</ele>
        <time>2023-06-11T09:02:28Z</time>
      </trkpt>
      <trkpt lat="43.7144" lon="5.98455">
        <ele>359.6</ele>
        <time>2023-06-11T09:02:29Z</time>
      </trkpt>
      <trkpt lat="43.71441" lon="5.98453">
        <ele>359.6</ele>
        <time>2023-06-11T09:02:30Z</time>
      </trkpt>
      <trkpt lat="43.71442" lon="5.98451">
        <ele>359.7</ele>
        <time>2023-06-11T09:02:31Z</time>
      </trkpt>
      <trkpt lat="43.71442" lon="5.9845">
        <ele>359.7</ele>
        <time>2023-06-11T09:02:32Z</time>
      </trkpt>
      <trkpt lat="43.71443" lon="5.98448">
        <ele>359.7</ele>
        <time>2023-06-11T09:02:33Z</time>
      </trkpt>
      <trkpt lat="43.71444" lon="5.98446">
        <ele>359.7</ele>
        <time>2023-06-11T09:02:34Z</time>
      </trkpt>
      <trkpt lat="43.71445" lon="5.98445">
        <ele>359.7</ele>
        <time>2023-06-11T09:02:35Z</time>
      </trkpt>
      <trkpt lat="43.71446" lon="5.98443">
        <ele>359.7</ele>
        <time>2023-06-11T09:02:36Z</time>
      </trkpt>
      <trkpt lat="43.71446" lon="5.98441">
        <ele>359.7</ele>
        <time>2023-06-11T09:02:37Z</time>
      </trkpt>
      <trkpt lat="43.71447" lon="5.9844">
        <ele>359.7</ele>
        <time>2023-06-11T09:02:38Z</time>
      </trkpt>
      <trkpt lat="43.71448" lon="5.98438">
        <ele>359.7</ele>
        <time>2023-06-11T09:02:39Z</time>
      </trkpt>
      <trkpt lat="43.71449" lon="5.98436">
        <ele>359.8</ele>
        <time>2023-06-11T09:02:40Z</time>
      </trkpt>
      <trkpt lat="43.7145" lon="5.98435">
        <ele>359.7</ele>
        <time>2023-06-11T09:02:41Z</time>
      </trkpt>
      <trkpt lat="43.7145" lon="5.98433">
        <ele>359.7</ele>
        <time>2023-06-11T09:02:42Z</time>
      </trkpt>
      <trkpt lat="43.71451" lon="5.98432">
        <ele>359.7</ele>
        <time>2023-06-11T09:02:43Z</time>
      </trkpt>
      <trkpt lat="43.71452" lon="5.9843">
        <ele>359.7</ele>
        <time>2023-06-11T09:02:44Z</time>
      </trkpt>
      <trkpt lat="43.71453" lon="5.98428">
        <ele>359.7</ele>
        <time>2023-06-11T09:02:45Z</time>
      </trkpt>
      <trkpt lat="43.71453" lon="5.98427">
        <ele>359.7</ele>
        <time>2023-06-11T09:02:46Z</time>
      </trkpt>
      <trkpt lat="43.71454" lon="5.98425">
        <ele>359.7</ele>
        <time>2023-06-11T09:02:47Z</time>
      </trkpt>
      <trkpt lat="43.71455" lon="5.98423">
        <ele>359.7</ele>
        <time>2023-06-11T09:02:48Z</time>
      </trkpt>
      <trkpt lat="43.71456" lon="5.98422">
        <ele>359.6</ele>
        <time>2023-06-11T09:02:49Z</time>
      </trkpt>
      <trkpt lat="43.71456" lon="5.9842">
        <ele>359.6</ele>
        <time>2023-06-11T09:02:50Z</time>
      </trkpt>
      <trkpt lat="43.71457" lon="5.98418">
        <ele>359.5</ele>
        <time>2023-06-11T09:02:51Z</time>
      </trkpt>
      <trkpt lat="43.71458" lon="5.98417">
        <ele>359.5</ele>
        <time>2023-06-11T09:02:52Z</time>
      </trkpt>
      <trkpt lat="43.71458" lon="5.98415">
        <ele>359.5</ele>
        <time>2023-06-11T09:02:53Z</time>
      </trkpt>
      <trkpt lat="43.71459" lon="5.98413">
        <ele>359.5</ele>
        <time>2023-06-11T09:02:54Z</time>
      </trkpt>
      <trkpt lat="43.7146" lon="5.98412">
        <ele>359.6</ele>
        <time>2023-06-11T09:02:55Z</time>
      </trkpt>
      <trkpt lat="43.7146" lon="5.9841">
        <ele>359.6</ele>
        <time>2023-06-11T09:02:56Z</time>
      </trkpt>
      <trkpt lat="43.71461" lon="5.98408">
        <ele>359.7</ele>
        <time>2023-06-11T09:02:57Z</time>
      </trkpt>
      <trkpt lat="43.71461" lon="5.98406">
        <ele>359.6</ele>
        <time>2023-06-11T09:02:58Z</time>
      </trkpt>
      <trkpt lat="43.71462" lon="5.98404">
        <ele>359.7</ele>
        <time>2023-06-11T09:02:59Z</time>
      </trkpt>
      <trkpt lat="43.71462" lon="5.98403">
        <ele>359.7</ele>
        <time>2023-06-11T09:03:00Z</time>
      </trkpt>
      <trkpt lat="43.71463" lon="5.98401">
        <ele>359.7</ele>
        <time>2023-06-11T09:03:01Z</time>
      </trkpt>
      <trkpt lat="43.71464" lon="5.98399">
        <ele>359.7</ele>
        <time>2023-06-11T09:03:02Z</time>
      </trkpt>
      <trkpt lat="43.71464" lon="5.98398">
        <ele>359.7</ele>
        <time>2023-06-11T09:03:03Z</time>
      </trkpt>
      <trkpt lat="43.71465" lon="5.98396">
        <ele>359.7</ele>
        <time>2023-06-11T09:03:04Z</time>
      </trkpt>
      <trkpt lat="43.71466" lon="5.98394">
        <ele>359.7</ele>
        <time>2023-06-11T09:03:05Z</time>
      </trkpt>
      <trkpt lat="43.71466" lon="5.98392">
        <ele>359.7</ele>
        <time>2023-06-11T09:03:06Z</time>
      </trkpt>
      <trkpt lat="43.71467" lon="5.98391">
        <ele>359.7</ele>
        <time>2023-06-11T09:03:07Z</time>
      </trkpt>
      <trkpt lat="43.71467" lon="5.98389">
        <ele>359.7</ele>
        <time>2023-06-11T09:03:08Z</time>
      </trkpt>
      <trkpt lat="43.71468" lon="5.98387">
        <ele>359.6</ele>
        <time>2023-06-11T09:03:09Z</time>
      </trkpt>
      <trkpt lat="43.71469" lon="5.98385">
        <ele>359.6</ele>
        <time>2023-06-11T09:03:10Z</time>
      </trkpt>
      <trkpt lat="43.71469" lon="5.98383">
        <ele>359.6</ele>
        <time>2023-06-11T09:03:11Z</time>
      </trkpt>
      <trkpt lat="43.7147" lon="5.98381">
        <ele>359.6</ele>
        <time>2023-06-11T09:03:12Z</time>
      </trkpt>
      <trkpt lat="43.7147" lon="5.9838">
        <ele>359.6</ele>
        <time>2023-06-11T09:03:13Z</time>
      </trkpt>
      <trkpt lat="43.71471" lon="5.98378">
        <ele>359.6</ele>
        <time>2023-06-11T09:03:14Z</time>
      </trkpt>
      <trkpt lat="43.71471" lon="5.98376">
        <ele>359.6</ele>
        <time>2023-06-11T09:03:15Z</time>
      </trkpt>
      <trkpt lat="43.71472" lon="5.98374">
        <ele>359.6</ele>
        <time>2023-06-11T09:03:16Z</time>
      </trkpt>
      <trkpt lat="43.71473" lon="5.98372">
        <ele>359.6</ele>
        <time>2023-06-11T09:03:17Z</time>
      </trkpt>
      <trkpt lat="43.71473" lon="5.98371">
        <ele>359.6</ele>
        <time>2023-06-11T09:03:18Z</time>
      </trkpt>
      <trkpt lat="43.71474" lon="5.98369">
        <ele>359.7</ele>
        <time>2023-06-11T09:03:19Z</time>
      </trkpt>
      <trkpt lat="43.71475" lon="5.98367">
        <ele>359.6</ele>
        <time>2023-06-11T09:03:20Z</time>
      </trkpt>
      <trkpt lat="43.71475" lon="5.98365">
        <ele>359.6</ele>
        <time>2023-06-11T09:03:21Z</time>
      </trkpt>
      <trkpt lat="43.71476" lon="5.98364">
        <ele>359.5</ele>
        <time>2023-06-11T09:03:22Z</time>
      </trkpt>
      <trkpt lat="43.71476" lon="5.98362">
        <ele>359.6</ele>
        <time>2023-06-11T09:03:23Z</time>
      </trkpt>
      <trkpt lat="43.71477" lon="5.9836">
        <ele>359.6</ele>
        <time>2023-06-11T09:03:24Z</time>
      </trkpt>
      <trkpt lat="43.71477" lon="5.98358">
        <ele>359.6</ele>
        <time>2023-06-11T09:03:25Z</time>
      </trkpt>
      <trkpt lat="43.71478" lon="5.98356">
        <ele>359.6</ele>
        <time>2023-06-11T09:03:26Z</time>
      </trkpt>
      <trkpt lat="43.71478" lon="5.98354">
        <ele>359.6</ele>
        <time>2023-06-11T09:03:27Z</time>
      </trkpt>
      <trkpt lat="43.71479" lon="5.98353">
        <ele>359.5</ele>
        <time>2023-06-11T09:03:28Z</time>
      </trkpt>
      <trkpt lat="43.71479" lon="5.98351">
        <ele>359.5</ele>
        <time>2023-06-11T09:03:29Z</time>
      </trkpt>
      <trkpt lat="43.71479" lon="5.98349">
        <ele>359.5</ele>
        <time>2023-06-11T09:03:30Z</time>
      </trkpt>
      <trkpt lat="43.7148" lon="5.98347">
        <ele>359.5</ele>
        <time>2023-06-11T09:03:31Z</time>
      </trkpt>
      <trkpt lat="43.7148" lon="5.98345">
        <ele>359.5</ele>
        <time>2023-06-11T09:03:32Z</time>
      </trkpt>
      <trkpt lat="43.71481" lon="5.98343">
        <ele>359.5</ele>
        <time>2023-06-11T09:03:33Z</time>
      </trkpt>
      <trkpt lat="43.71481" lon="5.98341">
        <ele>359.6</ele>
        <time>2023-06-11T09:03:34Z</time>
      </trkpt>
      <trkpt lat="43.71482" lon="5.98339">
        <ele>359.6</ele>
        <time>2023-06-11T09:03:35Z</time>
      </trkpt>
      <trkpt lat="43.71482" lon="5.98337">
        <ele>359.5</ele>
        <time>2023-06-11T09:03:36Z</time>
      </trkpt>
      <trkpt lat="43.71483" lon="5.98335">
        <ele>359.6</ele>
        <time>2023-06-11T09:03:37Z</time>
      </trkpt>
      <trkpt lat="43.71483" lon="5.98333">
        <ele>359.5</ele>
        <time>2023-06-11T09:03:38Z</time>
      </trkpt>
      <trkpt lat="43.71484" lon="5.98331">
        <ele>359.5</ele>
        <time>2023-06-11T09:03:39Z</time>
      </trkpt>
      <trkpt lat="43.71484" lon="5.9833">
        <ele>359.4</ele>
        <time>2023-06-11T09:03:40Z</time>
      </trkpt>
      <trkpt lat="43.71485" lon="5.98328">
        <ele>359.4</ele>
        <time>2023-06-11T09:03:41Z</time>
      </trkpt>
      <trkpt lat="43.71486" lon="5.98326">
        <ele>359.4</ele>
        <time>2023-06-11T09:03:42Z</time>
      </trkpt>
      <trkpt lat="43.71486" lon="5.98324">
        <ele>359.4</ele>
        <time>2023-06-11T09:03:43Z</time>
      </trkpt>
      <trkpt lat="43.71487" lon="5.98322">
        <ele>359.5</ele>
        <time>2023-06-11T09:03:44Z</time>
      </trkpt>
      <trkpt lat="43.71487" lon="5.9832">
        <ele>359.6</ele>
        <time>2023-06-11T09:03:45Z</time>
      </trkpt>
      <trkpt lat="43.71488" lon="5.98318">
        <ele>359.6</ele>
        <time>2023-06-11T09:03:46Z</time>
      </trkpt>
      <trkpt lat="43.71488" lon="5.98316">
        <ele>359.6</ele>
        <time>2023-06-11T09:03:47Z</time>
      </trkpt>
      <trkpt lat="43.71489" lon="5.98315">
        <ele>359.6</ele>
        <time>2023-06-11T09:03:48Z</time>
      </trkpt>
      <trkpt lat="43.71489" lon="5.98313">
        <ele>359.6</ele>
        <time>2023-06-11T09:03:49Z</time>
      </trkpt>
      <trkpt lat="43.7149" lon="5.98311">
        <ele>359.6</ele>
        <time>2023-06-11T09:03:50Z</time>
      </trkpt>
      <trkpt lat="43.7149" lon="5.98309">
        <ele>359.6</ele>
        <time>2023-06-11T09:03:51Z</time>
      </trkpt>
      <trkpt lat="43.71491" lon="5.98307">
        <ele>359.5</ele>
        <time>2023-06-11T09:03:52Z</time>
      </trkpt>
      <trkpt lat="43.71491" lon="5.98305">
        <ele>359.5</ele>
        <time>2023-06-11T09:03:53Z</time>
      </trkpt>
      <trkpt lat="43.71492" lon="5.98303">
        <ele>359.5</ele>
        <time>2023-06-11T09:03:54Z</time>
      </trkpt>
      <trkpt lat="43.71492" lon="5.98301">
        <ele>359.5</ele>
        <time>2023-06-11T09:03:55Z</time>
      </trkpt>
      <trkpt lat="43.71493" lon="5.983">
        <ele>359.5</ele>
        <time>2023-06-11T09:03:56Z</time>
      </trkpt>
      <trkpt lat="43.71493" lon="5.98298">
        <ele>359.5</ele>
        <time>2023-06-11T09:03:57Z</time>
      </trkpt>
      <trkpt lat="43.71494" lon="5.98296">
        <ele>359.5</ele>
        <time>2023-06-11T09:03:58Z</time>
      </trkpt>
      <trkpt lat="43.71494" lon="5.98294">
        <ele>359.5</ele>
        <time>2023-06-11T09:03:59Z</time>
      </trkpt>
      <trkpt lat="43.71495" lon="5.98292">
        <ele>359.5</ele>
        <time>2023-06-11T09:04:00Z</time>
      </trkpt>
      <trkpt lat="43.71496" lon="5.9829">
        <ele>359.6</ele>
        <time>2023-06-11T09:04:01Z</time>
      </trkpt>
      <trkpt lat="43.71496" lon="5.98288">
        <ele>359.5</ele>
        <time>2023-06-11T09:04:02Z</time>
      </trkpt>
      <trkpt lat="43.71497" lon="5.98287">
        <ele>359.6</ele>
        <time>2023-06-11T09:04:03Z</time>
      </trkpt>
      <trkpt lat="43.71497" lon="5.98285">
        <ele>359.6</ele>
        <time>2023-06-11T09:04:04Z</time>
      </trkpt>
      <trkpt lat="43.71498" lon="5.98283">
        <ele>359.6</ele>
        <time>2023-06-11T09:04:05Z</time>
      </trkpt>
      <trkpt lat="43.71499" lon="5.98281">
        <ele>359.7</ele>
        <time>2023-06-11T09:04:06Z</time>
      </trkpt>
      <trkpt lat="43.71499" lon="5.9828">
        <ele>359.7</ele>
        <time>2023-06-11T09:04:07Z</time>
      </trkpt>
      <trkpt lat="43.715" lon="5.98278">
        <ele>359.7</ele>
        <time>2023-06-11T09:04:08Z</time>
      </trkpt>
      <trkpt lat="43.71501" lon="5.98276">
        <ele>359.7</ele>
        <time>2023-06-11T09:04:09Z</time>
      </trkpt>
      <trkpt lat="43.71501" lon="5.98275">
        <ele>359.7</ele>
        <time>2023-06-11T09:04:10Z</time>
      </trkpt>
      <trkpt lat="43.71502" lon="5.98273">
        <ele>359.7</ele>
        <time>2023-06-11T09:04:11Z</time>
      </trkpt>
      <trkpt lat="43.71503" lon="5.98271">
        <ele>359.7</ele>
        <time>2023-06-11T09:04:12Z</time>
      </trkpt>
      <trkpt lat="43.71503" lon="5.98269">
        <ele>359.7</ele>
        <time>2023-06-11T09:04:13Z</time>
      </trkpt>
      <trkpt lat="43.71504" lon="5.98268">
        <ele>359.8</ele>
        <time>2023-06-11T09:04:14Z</time>
      </trkpt>
      <trkpt lat="43.71504" lon="5.98266">
        <ele>359.7</ele>
        <time>2023-06-11T09:04:15Z</time>
      </trkpt>
      <trkpt lat="43.71505" lon="5.98264">
        <ele>359.7</ele>
        <time>2023-06-11T09:04:16Z</time>
      </trkpt>
      <trkpt lat="43.71506" lon="5.98263">
        <ele>359.7</ele>
        <time>2023-06-11T09:04:17Z</time>
      </trkpt>
      <trkpt lat="43.71507" lon="5.98261">
        <ele>359.8</ele>
        <time>2023-06-11T09:04:18Z</time>
      </trkpt>
      <trkpt lat="43.71507" lon="5.98259">
        <ele>359.8</ele>
        <time>2023-06-11T09:04:19Z</time>
      </trkpt>
      <trkpt lat="43.71508" lon="5.98257">
        <ele>359.9</ele>
        <time>2023-06-11T09:04:20Z</time>
      </trkpt>
      <trkpt lat="43.71509" lon="5.98256">
        <ele>360</ele>
        <time>2023-06-11T09:04:21Z</time>
      </trkpt>
      <trkpt lat="43.7151" lon="5.98254">
        <ele>360</ele>
        <time>2023-06-11T09:04:22Z</time>
      </trkpt>
      <trkpt lat="43.7151" lon="5.98252">
        <ele>360</ele>
        <time>2023-06-11T09:04:23Z</time>
      </trkpt>
      <trkpt lat="43.71511" lon="5.9825">
        <ele>359.9</ele>
        <time>2023-06-11T09:04:24Z</time>
      </trkpt>
      <trkpt lat="43.71512" lon="5.98249">
        <ele>359.9</ele>
        <time>2023-06-11T09:04:25Z</time>
      </trkpt>
      <trkpt lat="43.71513" lon="5.98247">
        <ele>359.9</ele>
        <time>2023-06-11T09:04:26Z</time>
      </trkpt>
      <trkpt lat="43.71513" lon="5.98245">
        <ele>359.9</ele>
        <time>2023-06-11T09:04:27Z</time>
      </trkpt>
      <trkpt lat="43.71514" lon="5.98244">
        <ele>359.8</ele>
        <time>2023-06-11T09:04:28Z</time>
      </trkpt>
      <trkpt lat="43.71515" lon="5.98242">
        <ele>359.8</ele>
        <time>2023-06-11T09:04:29Z</time>
      </trkpt>
      <trkpt lat="43.71516" lon="5.9824">
        <ele>359.9</ele>
        <time>2023-06-11T09:04:30Z</time>
      </trkpt>
      <trkpt lat="43.71516" lon="5.98239">
        <ele>359.9</ele>
        <time>2023-06-11T09:04:31Z</time>
      </trkpt>
      <trkpt lat="43.71517" lon="5.98237">
        <ele>360</ele>
        <time>2023-06-11T09:04:32Z</time>
      </trkpt>
      <trkpt lat="43.71518" lon="5.98235">
        <ele>360</ele>
        <time>2023-06-11T09:04:33Z</time>
      </trkpt>
      <trkpt lat="43.71518" lon="5.98233">
        <ele>360</ele>
        <time>2023-06-11T09:04:34Z</time>
      </trkpt>
      <trkpt lat="43.71519" lon="5.98232">
        <ele>360</ele>
        <time>2023-06-11T09:04:35Z</time>
      </trkpt>
      <trkpt lat="43.7152" lon="5.9823">
        <ele>360.1</ele>
        <time>2023-06-11T09:04:36Z</time>
      </trkpt>
      <trkpt lat="43.71521" lon="5.98228">
        <ele>360.1</ele>
        <time>2023-06-11T09:04:37Z</time>
      </trkpt>
      <trkpt lat="43.71521" lon="5.98226">
        <ele>360.1</ele>
        <time>2023-06-11T09:04:38Z</time>
      </trkpt>
      <trkpt lat="43.71522" lon="5.98225">
        <ele>360.1</ele>
        <time>2023-06-11T09:04:39Z</time>
      </trkpt>
      <trkpt lat="43.71523" lon="5.98223">
        <ele>360.2</ele>
        <time>2023-06-11T09:04:40Z</time>
      </trkpt>
      <trkpt lat="43.71523" lon="5.98221">
        <ele>360.2</ele>
        <time>2023-06-11T09:04:41Z</time>
      </trkpt>
      <trkpt lat="43.71524" lon="5.98219">
        <ele>360.2</ele>
        <time>2023-06-11T09:04:42Z</time>
      </trkpt>
      <trkpt lat="43.71524" lon="5.98217">
        <ele>360.2</ele>
        <time>2023-06-11T09:04:43Z</time>
      </trkpt>
      <trkpt lat="43.71525" lon="5.98215">
        <ele>360.2</ele>
        <time>2023-06-11T09:04:44Z</time>
      </trkpt>
      <trkpt lat="43.71526" lon="5.98213">
        <ele>360.2</ele>
        <time>2023-06-11T09:04:45Z</time>
      </trkpt>
      <trkpt lat="43.71526" lon="5.98212">
        <ele>360.2</ele>
        <time>2023-06-11T09:04:46Z</time>
      </trkpt>
      <trkpt lat="43.71527" lon="5.9821">
        <ele>360.2</ele>
        <time>2023-06-11T09:04:47Z</time>
      </trkpt>
      <trkpt lat="43.71527" lon="5.98208">
        <ele>360.1</ele>
        <time>2023-06-11T09:04:48Z</time>
      </trkpt>
      <trkpt lat="43.71528" lon="5.98206">
        <ele>360</ele>
        <time>2023-06-11T09:04:49Z</time>
      </trkpt>
      <trkpt lat="43.71529" lon="5.98204">
        <ele>359.9</ele>
        <time>2023-06-11T09:04:50Z</time>
      </trkpt>
      <trkpt lat="43.71529" lon="5.98202">
        <ele>359.9</ele>
        <time>2023-06-11T09:04:51Z</time>
      </trkpt>
      <trkpt lat="43.7153" lon="5.982">
        <ele>359.9</ele>
        <time>2023-06-11T09:04:52Z</time>
      </trkpt>
      <trkpt lat="43.71531" lon="5.98199">
        <ele>359.9</ele>
        <time>2023-06-11T09:04:53Z</time>
      </trkpt>
      <trkpt lat="43.71531" lon="5.98197">
        <ele>359.9</ele>
        <time>2023-06-11T09:04:54Z</time>
      </trkpt>
      <trkpt lat="43.71532" lon="5.98195">
        <ele>359.9</ele>
        <time>2023-06-11T09:04:55Z</time>
      </trkpt>
      <trkpt lat="43.71532" lon="5.98193">
        <ele>360</ele>
        <time>2023-06-11T09:04:56Z</time>
      </trkpt>
      <trkpt lat="43.71533" lon="5.98191">
        <ele>360.1</ele>
        <time>2023-06-11T09:04:57Z</time>
      </trkpt>
      <trkpt lat="43.71533" lon="5.98189">
        <ele>360.1</ele>
        <time>2023-06-11T09:04:58Z</time>
      </trkpt>
      <trkpt lat="43.71534" lon="5.98187">
        <ele>360.1</ele>
        <time>2023-06-11T09:04:59Z</time>
      </trkpt>
      <trkpt lat="43.71534" lon="5.98185">
        <ele>360.2</ele>
        <time>2023-06-11T09:05:00Z</time>
      </trkpt>
      <trkpt lat="43.71535" lon="5.98184">
        <ele>360.2</ele>
        <time>2023-06-11T09:05:01Z</time>
      </trkpt>
      <trkpt lat="43.71535" lon="5.98182">
        <ele>360.2</ele>
        <time>2023-06-11T09:05:02Z</time>
      </trkpt>
      <trkpt lat="43.71536" lon="5.9818">
        <ele>360.2</ele>
        <time>2023-06-11T09:05:03Z</time>
      </trkpt>
      <trkpt lat="43.71536" lon="5.98178">
        <ele>360.3</ele>
        <time>2023-06-11T09:05:04Z</time>
      </trkpt>
      <trkpt lat="43.71537" lon="5.98176">
        <ele>360.3</ele>
        <time>2023-06-11T09:05:05Z</time>
      </trkpt>
      <trkpt lat="43.71537" lon="5.98174">
        <ele>360.3</ele>
        <time>2023-06-11T09:05:06Z</time>
      </trkpt>
      <trkpt lat="43.71537" lon="5.98172">
        <ele>360.3</ele>
        <time>2023-06-11T09:05:07Z</time>
      </trkpt>
      <trkpt lat="43.71538" lon="5.9817">
        <ele>360.3</ele>
        <time>2023-06-11T09:05:08Z</time>
      </trkpt>
      <trkpt lat="43.71538" lon="5.98168">
        <ele>360.3</ele>
        <time>2023-06-11T09:05:09Z</time>
      </trkpt>
      <trkpt lat="43.71539" lon="5.98167">
        <ele>360.3</ele>
        <time>2023-06-11T09:05:10Z</time>
      </trkpt>
      <trkpt lat="43.71539" lon="5.98165">
        <ele>360.2</ele>
        <time>2023-06-11T09:05:11Z</time>
      </trkpt>
      <trkpt lat="43.7154" lon="5.98163">
        <ele>360.2</ele>
        <time>2023-06-11T09:05:12Z</time>
      </trkpt>
      <trkpt lat="43.7154" lon="5.98161">
        <ele>360.1</ele>
        <time>2023-06-11T09:05:13Z</time>
      </trkpt>
      <trkpt lat="43.71541" lon="5.98159">
        <ele>360</ele>
        <time>2023-06-11T09:05:14Z</time>
      </trkpt>
      <trkpt lat="43.71541" lon="5.98157">
        <ele>359.9</ele>
        <time>2023-06-11T09:05:15Z</time>
      </trkpt>
      <trkpt lat="43.71541" lon="5.98156">
        <ele>359.9</ele>
        <time>2023-06-11T09:05:16Z</time>
      </trkpt>
      <trkpt lat="43.71542" lon="5.98154">
        <ele>359.9</ele>
        <time>2023-06-11T09:05:17Z</time>
      </trkpt>
      <trkpt lat="43.71542" lon="5.98152">
        <ele>359.8</ele>
        <time>2023-06-11T09:05:18Z</time>
      </trkpt>
      <trkpt lat="43.71543" lon="5.9815">
        <ele>359.8</ele>
        <time>2023-06-11T09:05:19Z</time>
      </trkpt>
      <trkpt lat="43.71543" lon="5.98148">
        <ele>359.7</ele>
        <time>2023-06-11T09:05:20Z</time>
      </trkpt>
      <trkpt lat="43.71544" lon="5.98146">
        <ele>359.7</ele>
        <time>2023-06-11T09:05:21Z</time>
      </trkpt>
      <trkpt lat="43.71545" lon="5.98144">
        <ele>359.7</ele>
        <time>2023-06-11T09:05:22Z</time>
      </trkpt>
      <trkpt lat="43.71545" lon="5.98143">
        <ele>359.7</ele>
        <time>2023-06-11T09:05:23Z</time>
      </trkpt>
      <trkpt lat="43.71546" lon="5.98141">
        <ele>359.7</ele>
        <time>2023-06-11T09:05:24Z</time>
      </trkpt>
      <trkpt lat="43.71547" lon="5.98139">
        <ele>359.7</ele>
        <time>2023-06-11T09:05:25Z</time>
      </trkpt>
      <trkpt lat="43.71547" lon="5.98137">
        <ele>359.7</ele>
        <time>2023-06-11T09:05:26Z</time>
      </trkpt>
      <trkpt lat="43.71548" lon="5.98135">
        <ele>359.6</ele>
        <time>2023-06-11T09:05:27Z</time>
      </trkpt>
      <trkpt lat="43.71548" lon="5.98134">
        <ele>359.5</ele>
        <time>2023-06-11T09:05:28Z</time>
      </trkpt>
      <trkpt lat="43.71549" lon="5.98132">
        <ele>359.6</ele>
        <time>2023-06-11T09:05:29Z</time>
      </trkpt>
      <trkpt lat="43.7155" lon="5.9813">
        <ele>359.6</ele>
        <time>2023-06-11T09:05:30Z</time>
      </trkpt>
      <trkpt lat="43.71551" lon="5.98129">
        <ele>359.6</ele>
        <time>2023-06-11T09:05:31Z</time>
      </trkpt>
      <trkpt lat="43.71551" lon="5.98127">
        <ele>359.6</ele>
        <time>2023-06-11T09:05:32Z</time>
      </trkpt>
      <trkpt lat="43.71552" lon="5.98126">
        <ele>359.6</ele>
        <time>2023-06-11T09:05:33Z</time>
      </trkpt>
      <trkpt lat="43.71553" lon="5.98124">
        <ele>359.6</ele>
        <time>2023-06-11T09:05:34Z</time>
      </trkpt>
      <trkpt lat="43.71554" lon="5.98122">
        <ele>359.6</ele>
        <time>2023-06-11T09:05:35Z</time>
      </trkpt>
      <trkpt lat="43.71554" lon="5.98121">
        <ele>359.6</ele>
        <time>2023-06-11T09:05:36Z</time>
      </trkpt>
      <trkpt lat="43.71555" lon="5.98119">
        <ele>359.6</ele>
        <time>2023-06-11T09:05:37Z</time>
      </trkpt>
      <trkpt lat="43.71556" lon="5.98118">
        <ele>359.7</ele>
        <time>2023-06-11T09:05:38Z</time>
      </trkpt>
      <trkpt lat="43.71556" lon="5.98116">
        <ele>359.7</ele>
        <time>2023-06-11T09:05:39Z</time>
      </trkpt>
      <trkpt lat="43.71557" lon="5.98114">
        <ele>359.8</ele>
        <time>2023-06-11T09:05:40Z</time>
      </trkpt>
      <trkpt lat="43.71558" lon="5.98113">
        <ele>359.8</ele>
        <time>2023-06-11T09:05:41Z</time>
      </trkpt>
      <trkpt lat="43.71558" lon="5.98111">
        <ele>359.9</ele>
        <time>2023-06-11T09:05:42Z</time>
      </trkpt>
      <trkpt lat="43.71559" lon="5.98109">
        <ele>359.8</ele>
        <time>2023-06-11T09:05:43Z</time>
      </trkpt>
      <trkpt lat="43.7156" lon="5.98108">
        <ele>359.9</ele>
        <time>2023-06-11T09:05:44Z</time>
      </trkpt>
      <trkpt lat="43.7156" lon="5.98106">
        <ele>359.9</ele>
        <time>2023-06-11T09:05:45Z</time>
      </trkpt>
      <trkpt lat="43.71561" lon="5.98104">
        <ele>359.9</ele>
        <time>2023-06-11T09:05:46Z</time>
      </trkpt>
      <trkpt lat="43.71562" lon="5.98103">
        <ele>359.9</ele>
        <time>2023-06-11T09:05:47Z</time>
      </trkpt>
      <trkpt lat="43.71562" lon="5.98101">
        <ele>359.8</ele>
        <time>2023-06-11T09:05:48Z</time>
      </trkpt>
      <trkpt lat="43.71563" lon="5.981">
        <ele>359.8</ele>
        <time>2023-06-11T09:05:49Z</time>
      </trkpt>
      <trkpt lat="43.71563" lon="5.98098">
        <ele>359.8</ele>
        <time>2023-06-11T09:05:50Z</time>
      </trkpt>
      <trkpt lat="43.71564" lon="5.98096">
        <ele>359.8</ele>
        <time>2023-06-11T09:05:51Z</time>
      </trkpt>
      <trkpt lat="43.71565" lon="5.98095">
        <ele>359.7</ele>
        <time>2023-06-11T09:05:52Z</time>
      </trkpt>
      <trkpt lat="43.71565" lon="5.98093">
        <ele>359.7</ele>
        <time>2023-06-11T09:05:53Z</time>
      </trkpt>
      <trkpt lat="43.71566" lon="5.98092">
        <ele>359.6</ele>
        <time>2023-06-11T09:05:54Z</time>
      </trkpt>
      <trkpt lat="43.71567" lon="5.9809">
        <ele>359.6</ele>
        <time>2023-06-11T09:05:55Z</time>
      </trkpt>
      <trkpt lat="43.71568" lon="5.98089">
        <ele>359.6</ele>
        <time>2023-06-11T09:05:56Z</time>
      </trkpt>
      <trkpt lat="43.71569" lon="5.98087">
        <ele>359.6</ele>
        <time>2023-06-11T09:05:57Z</time>
      </trkpt>
      <trkpt lat="43.71569" lon="5.98085">
        <ele>359.5</ele>
        <time>2023-06-11T09:05:58Z</time>
      </trkpt>
      <trkpt lat="43.71569" lon="5.98084">
        <ele>359.6</ele>
        <time>2023-06-11T09:05:59Z</time>
      </trkpt>
      <trkpt lat="43.7157" lon="5.98082">
        <ele>359.6</ele>
        <time>2023-06-11T09:06:00Z</time>
      </trkpt>
      <trkpt lat="43.71571" lon="5.98081">
        <ele>359.6</ele>
        <time>2023-06-11T09:06:01Z</time>
      </trkpt>
      <trkpt lat="43.71571" lon="5.98079">
        <ele>359.7</ele>
        <time>2023-06-11T09:06:02Z</time>
      </trkpt>
      <trkpt lat="43.71572" lon="5.98078">
        <ele>359.7</ele>
        <time>2023-06-11T09:06:03Z</time>
      </trkpt>
      <trkpt lat="43.71573" lon="5.98076">
        <ele>359.8</ele>
        <time>2023-06-11T09:06:04Z</time>
      </trkpt>
      <trkpt lat="43.71573" lon="5.98074">
        <ele>359.8</ele>
        <time>2023-06-11T09:06:05Z</time>
      </trkpt>
      <trkpt lat="43.71573" lon="5.98073">
        <ele>359.8</ele>
        <time>2023-06-11T09:06:06Z</time>
      </trkpt>
      <trkpt lat="43.71574" lon="5.98071">
        <ele>359.8</ele>
        <time>2023-06-11T09:06:07Z</time>
      </trkpt>
      <trkpt lat="43.71574" lon="5.9807">
        <ele>359.7</ele>
        <time>2023-06-11T09:06:08Z</time>
      </trkpt>
      <trkpt lat="43.71574" lon="5.98068">
        <ele>359.7</ele>
        <time>2023-06-11T09:06:09Z</time>
      </trkpt>
      <trkpt lat="43.71575" lon="5.98067">
        <ele>359.6</ele>
        <time>2023-06-11T09:06:10Z</time>
      </trkpt>
      <trkpt lat="43.71575" lon="5.98065">
        <ele>359.6</ele>
        <time>2023-06-11T09:06:11Z</time>
      </trkpt>
      <trkpt lat="43.71575" lon="5.98064">
        <ele>359.6</ele>
        <time>2023-06-11T09:06:12Z</time>
      </trkpt>
      <trkpt lat="43.71576" lon="5.98062">
        <ele>359.6</ele>
        <time>2023-06-11T09:06:13Z</time>
      </trkpt>
      <trkpt lat="43.71576" lon="5.9806">
        <ele>359.6</ele>
        <time>2023-06-11T09:06:14Z</time>
      </trkpt>
      <trkpt lat="43.71576" lon="5.98059">
        <ele>359.6</ele>
        <time>2023-06-11T09:06:15Z</time>
      </trkpt>
      <trkpt lat="43.71577" lon="5.98057">
        <ele>359.6</ele>
        <time>2023-06-11T09:06:16Z</time>
      </trkpt>
      <trkpt lat="43.71577" lon="5.98056">
        <ele>359.6</ele>
        <time>2023-06-11T09:06:17Z</time>
      </trkpt>
      <trkpt lat="43.71577" lon="5.98055">
        <ele>359.6</ele>
        <time>2023-06-11T09:06:18Z</time>
      </trkpt>
      <trkpt lat="43.71578" lon="5.98053">
        <ele>359.7</ele>
        <time>2023-06-11T09:06:19Z</time>
      </trkpt>
      <trkpt lat="43.71578" lon="5.98052">
        <ele>359.6</ele>
        <time>2023-06-11T09:06:20Z</time>
      </trkpt>
      <trkpt lat="43.71578" lon="5.98051">
        <ele>359.6</ele>
        <time>2023-06-11T09:06:21Z</time>
      </trkpt>
      <trkpt lat="43.71579" lon="5.9805">
        <ele>359.7</ele>
        <time>2023-06-11T09:06:22Z</time>
      </trkpt>
      <trkpt lat="43.71579" lon="5.98048">
        <ele>359.7</ele>
        <time>2023-06-11T09:06:23Z</time>
      </trkpt>
      <trkpt lat="43.71579" lon="5.98047">
        <ele>359.7</ele>
        <time>2023-06-11T09:06:24Z</time>
      </trkpt>
      <trkpt lat="43.7158" lon="5.98046">
        <ele>359.8</ele>
        <time>2023-06-11T09:06:25Z</time>
      </trkpt>
      <trkpt lat="43.7158" lon="5.98045">
        <ele>359.8</ele>
        <time>2023-06-11T09:06:26Z</time>
      </trkpt>
      <trkpt lat="43.7158" lon="5.98043">
        <ele>359.8</ele>
        <time>2023-06-11T09:06:27Z</time>
      </trkpt>
      <trkpt lat="43.71581" lon="5.98042">
        <ele>359.8</ele>
        <time>2023-06-11T09:06:28Z</time>
      </trkpt>
      <trkpt lat="43.71581" lon="5.98041">
        <ele>359.8</ele>
        <time>2023-06-11T09:06:29Z</time>
      </trkpt>
      <trkpt lat="43.71581" lon="5.9804">
        <ele>359.8</ele>
        <time>2023-06-11T09:06:30Z</time>
      </trkpt>
      <trkpt lat="43.71582" lon="5.98039">
        <ele>359.9</ele>
        <time>2023-06-11T09:06:31Z</time>
      </trkpt>
      <trkpt lat="43.71582" lon="5.98038">
        <ele>359.9</ele>
        <time>2023-06-11T09:06:32Z</time>
      </trkpt>
      <trkpt lat="43.71582" lon="5.98037">
        <ele>360</ele>
        <time>2023-06-11T09:06:33Z</time>
      </trkpt>
      <trkpt lat="43.71583" lon="5.98036">
        <ele>360</ele>
        <time>2023-06-11T09:06:34Z</time>
      </trkpt>
      <trkpt lat="43.71583" lon="5.98034">
        <ele>359.9</ele>
        <time>2023-06-11T09:06:35Z</time>
      </trkpt>
      <trkpt lat="43.71583" lon="5.98033">
        <ele>359.9</ele>
        <time>2023-06-11T09:06:36Z</time>
      </trkpt>
      <trkpt lat="43.71583" lon="5.98032">
        <ele>359.9</ele>
        <time>2023-06-11T09:06:37Z</time>
      </trkpt>
      <trkpt lat="43.71584" lon="5.98031">
        <ele>359.9</ele>
        <time>2023-06-11T09:06:38Z</time>
      </trkpt>
      <trkpt lat="43.71584" lon="5.9803">
        <ele>359.9</ele>
        <time>2023-06-11T09:06:39Z</time>
      </trkpt>
      <trkpt lat="43.71584" lon="5.9803">
        <ele>359.8</ele>
        <time>2023-06-11T09:06:40Z</time>
      </trkpt>
      <trkpt lat="43.71584" lon="5.98029">
        <ele>359.8</ele>
        <time>2023-06-11T09:06:41Z</time>
      </trkpt>
      <trkpt lat="43.71585" lon="5.98029">
        <ele>359.8</ele>
        <time>2023-06-11T09:06:42Z</time>
      </trkpt>
      <trkpt lat="43.71585" lon="5.98029">
        <ele>359.8</ele>
        <time>2023-06-11T09:06:43Z</time>
      </trkpt>
      <trkpt lat="43.71585" lon="5.98029">
        <ele>359.8</ele>
        <time>2023-06-11T09:06:44Z</time>
      </trkpt>
      <trkpt lat="43.71585" lon="5.98029">
        <ele>359.9</ele>
        <time>2023-06-11T09:06:45Z</time>
      </trkpt>
      <trkpt lat="43.71586" lon="5.98029">
        <ele>359.9</ele>
        <time>2023-06-11T09:06:46Z</time>
      </trkpt>
      <trkpt lat="43.71586" lon="5.98029">
        <ele>359.9</ele>
        <time>2023-06-11T09:06:47Z</time>
      </trkpt>
      <trkpt lat="43.71587" lon="5.98029">
        <ele>359.9</ele>
        <time>2023-06-11T09:06:48Z</time>
      </trkpt>
      <trkpt lat="43.71587" lon="5.98029">
        <ele>360</ele>
        <time>2023-06-11T09:06:49Z</time>
      </trkpt>
      <trkpt lat="43.71587" lon="5.98029">
        <ele>359.9</ele>
        <time>2023-06-11T09:06:50Z</time>
      </trkpt>
      <trkpt lat="43.71587" lon="5.98029">
        <ele>359.9</ele>
        <time>2023-06-11T09:06:51Z</time>
      </trkpt>
      <trkpt lat="43.71588" lon="5.98029">
        <ele>359.9</ele>
        <time>2023-06-11T09:06:52Z</time>
      </trkpt>
      <trkpt lat="43.71588" lon="5.98028">
        <ele>359.9</ele>
        <time>2023-06-11T09:06:53Z</time>
      </trkpt>
      <trkpt lat="43.71588" lon="5.98028">
        <ele>359.8</ele>
        <time>2023-06-11T09:06:54Z</time>
      </trkpt>
      <trkpt lat="43.71588" lon="5.98027">
        <ele>359.9</ele>
        <time>2023-06-11T09:06:55Z</time>
      </trkpt>
      <trkpt lat="43.71588" lon="5.98027">
        <ele>359.9</ele>
        <time>2023-06-11T09:06:56Z</time>
      </trkpt>
      <trkpt lat="43.71588" lon="5.98027">
        <ele>359.9</ele>
        <time>2023-06-11T09:06:57Z</time>
      </trkpt>
      <trkpt lat="43.71588" lon="5.98026">
        <ele>360</ele>
        <time>2023-06-11T09:06:58Z</time>
      </trkpt>
      <trkpt lat="43.71587" lon="5.98026">
        <ele>360</ele>
        <time>2023-06-11T09:06:59Z</time>
      </trkpt>
      <trkpt lat="43.71588" lon="5.98025">
        <ele>360.1</ele>
        <time>2023-06-11T09:07:00Z</time>
      </trkpt>
      <trkpt lat="43.71587" lon="5.98025">
        <ele>360.1</ele>
        <time>2023-06-11T09:07:01Z</time>
      </trkpt>
      <trkpt lat="43.71587" lon="5.98024">
        <ele>360.2</ele>
        <time>2023-06-11T09:07:02Z</time>
      </trkpt>
      <trkpt lat="43.71587" lon="5.98024">
        <ele>360.1</ele>
        <time>2023-06-11T09:07:03Z</time>
      </trkpt>
      <trkpt lat="43.71587" lon="5.98024">
        <ele>360.1</ele>
        <time>2023-06-11T09:07:04Z</time>
      </trkpt>
      <trkpt lat="43.71587" lon="5.98023">
        <ele>360.1</ele>
        <time>2023-06-11T09:07:05Z</time>
      </trkpt>
      <trkpt lat="43.71587" lon="5.98023">
        <ele>360</ele>
        <time>2023-06-11T09:07:06Z</time>
      </trkpt>
      <trkpt lat="43.71587" lon="5.98022">
        <ele>360</ele>
        <time>2023-06-11T09:07:07Z</time>
      </trkpt>
      <trkpt lat="43.71586" lon="5.98022">
        <ele>360</ele>
        <time>2023-06-11T09:07:08Z</time>
      </trkpt>
      <trkpt lat="43.71586" lon="5.98021">
        <ele>359.9</ele>
        <time>2023-06-11T09:07:09Z</time>
      </trkpt>
      <trkpt lat="43.71586" lon="5.98021">
        <ele>359.9</ele>
        <time>2023-06-11T09:07:10Z</time>
      </trkpt>
      <trkpt lat="43.71586" lon="5.9802">
        <ele>359.9</ele>
        <time>2023-06-11T09:07:11Z</time>
      </trkpt>
      <trkpt lat="43.71586" lon="5.9802">
        <ele>359.8</ele>
        <time>2023-06-11T09:07:12Z</time>
      </trkpt>
      <trkpt lat="43.71586" lon="5.9802">
        <ele>359.9</ele>
        <time>2023-06-11T09:07:13Z</time>
      </trkpt>
      <trkpt lat="43.71586" lon="5.98019">
        <ele>360</ele>
        <time>2023-06-11T09:07:14Z</time>
      </trkpt>
      <trkpt lat="43.71586" lon="5.98019">
        <ele>360</ele>
        <time>2023-06-11T09:07:15Z</time>
      </trkpt>
      <trkpt lat="43.71586" lon="5.98019">
        <ele>359.9</ele>
        <time>2023-06-11T09:07:16Z</time>
      </trkpt>
      <trkpt lat="43.71586" lon="5.98018">
        <ele>359.9</ele>
        <time>2023-06-11T09:07:17Z</time>
      </trkpt>
      <trkpt lat="43.71586" lon="5.98018">
        <ele>359.9</ele>
        <time>2023-06-11T09:07:18Z</time>
      </trkpt>
      <trkpt lat="43.71586" lon="5.98018">
        <ele>359.8</ele>
        <time>2023-06-11T09:07:19Z</time>
      </trkpt>
      <trkpt lat="43.71586" lon="5.98018">
        <ele>359.8</ele>
        <time>2023-06-11T09:07:20Z</time>
      </trkpt>
      <trkpt lat="43.71586" lon="5.98017">
        <ele>359.7</ele>
        <time>2023-06-11T09:07:21Z</time>
      </trkpt>
      <trkpt lat="43.71586" lon="5.98017">
        <ele>359.7</ele>
        <time>2023-06-11T09:07:22Z</time>
      </trkpt>
      <trkpt lat="43.71586" lon="5.98017">
        <ele>359.7</ele>
        <time>2023-06-11T09:07:23Z</time>
      </trkpt>
      <trkpt lat="43.71586" lon="5.98017">
        <ele>359.6</ele>
        <time>2023-06-11T09:07:24Z</time>
      </trkpt>
      <trkpt lat="43.71586" lon="5.98016">
        <ele>359.6</ele>
        <time>2023-06-11T09:07:25Z</time>
      </trkpt>
      <trkpt lat="43.71586" lon="5.98016">
        <ele>359.6</ele>
        <time>2023-06-11T09:07:26Z</time>
      </trkpt>
      <trkpt lat="43.71586" lon="5.98016">
        <ele>359.6</ele>
        <time>2023-06-11T09:07:27Z</time>
      </trkpt>
      <trkpt lat="43.71586" lon="5.98015">
        <ele>359.6</ele>
        <time>2023-06-11T09:07:28Z</time>
      </trkpt>
      <trkpt lat="43.71586" lon="5.98015">
        <ele>359.7</ele>
        <time>2023-06-11T09:07:29Z</time>
      </trkpt>
      <trkpt lat="43.71586" lon="5.98014">
        <ele>359.7</ele>
        <time>2023-06-11T09:07:30Z</time>
      </trkpt>
      <trkpt lat="43.71586" lon="5.98013">
        <ele>359.7</ele>
        <time>2023-06-11T09:07:31Z</time>
      </trkpt>
      <trkpt lat="43.71586" lon="5.98013">
        <ele>359.6</ele>
        <time>2023-06-11T09:07:32Z</time>
      </trkpt>
      <trkpt lat="43.71586" lon="5.98012">
        <ele>359.6</ele>
        <time>2023-06-11T09:07:33Z</time>
      </trkpt>
      <trkpt lat="43.71586" lon="5.98011">
        <ele>359.5</ele>
        <time>2023-06-11T09:07:34Z</time>
      </trkpt>
      <trkpt lat="43.71586" lon="5.9801">
        <ele>359.6</ele>
        <time>2023-06-11T09:07:35Z</time>
      </trkpt>
      <trkpt lat="43.71587" lon="5.98009">
        <ele>359.6</ele>
        <time>2023-06-11T09:07:36Z</time>
      </trkpt>
      <trkpt lat="43.71586" lon="5.98008">
        <ele>359.6</ele>
        <time>2023-06-11T09:07:37Z</time>
      </trkpt>
      <trkpt lat="43.71587" lon="5.98007">
        <ele>359.6</ele>
        <time>2023-06-11T09:07:38Z</time>
      </trkpt>
      <trkpt lat="43.71586" lon="5.98005">
        <ele>359.5</ele>
        <time>2023-06-11T09:07:39Z</time>
      </trkpt>
      <trkpt lat="43.71586" lon="5.98003">
        <ele>359.5</ele>
        <time>2023-06-11T09:07:40Z</time>
      </trkpt>
      <trkpt lat="43.71586" lon="5.98002">
        <ele>359.5</ele>
        <time>2023-06-11T09:07:41Z</time>
      </trkpt>
      <trkpt lat="43.71586" lon="5.98">
        <ele>359.6</ele>
        <time>2023-06-11T09:07:42Z</time>
      </trkpt>
      <trkpt lat="43.71586" lon="5.97999">
        <ele>359.6</ele>
        <time>2023-06-11T09:07:43Z</time>
      </trkpt>
      <trkpt lat="43.71586" lon="5.97997">
        <ele>359.6</ele>
        <time>2023-06-11T09:07:44Z</time>
      </trkpt>
      <trkpt lat="43.71586" lon="5.97995">
        <ele>359.6</ele>
        <time>2023-06-11T09:07:45Z</time>
      </trkpt>
      <trkpt lat="43.71586" lon="5.97994">
        <ele>359.6</ele>
        <time>2023-06-11T09:07:46Z</time>
      </trkpt>
      <trkpt lat="43.71586" lon="5.97992">
        <ele>359.6</ele>
        <time>2023-06-11T09:07:47Z</time>
      </trkpt>
      <trkpt lat="43.71586" lon="5.9799">
        <ele>359.7</ele>
        <time>2023-06-11T09:07:48Z</time>
      </trkpt>
      <trkpt lat="43.71586" lon="5.97988">
        <ele>359.7</ele>
        <time>2023-06-11T09:07:49Z</time>
      </trkpt>
      <trkpt lat="43.71586" lon="5.97986">
        <ele>359.6</ele>
        <time>2023-06-11T09:07:50Z</time>
      </trkpt>
      <trkpt lat="43.71586" lon="5.97984">
        <ele>359.5</ele>
        <time>2023-06-11T09:07:51Z</time>
      </trkpt>
      <trkpt lat="43.71586" lon="5.97982">
        <ele>359.5</ele>
        <time>2023-06-11T09:07:52Z</time>
      </trkpt>
      <trkpt lat="43.71586" lon="5.9798">
        <ele>359.5</ele>
        <time>2023-06-11T09:07:53Z</time>
      </trkpt>
      <trkpt lat="43.71586" lon="5.97978">
        <ele>359.5</ele>
        <time>2023-06-11T09:07:54Z</time>
      </trkpt>
      <trkpt lat="43.71586" lon="5.97976">
        <ele>359.6</ele>
        <time>2023-06-11T09:07:55Z</time>
      </trkpt>
      <trkpt lat="43.71586" lon="5.97974">
        <ele>359.7</ele>
        <time>2023-06-11T09:07:56Z</time>
      </trkpt>
      <trkpt lat="43.71586" lon="5.97972">
        <ele>359.7</ele>
        <time>2023-06-11T09:07:57Z</time>
      </trkpt>
      <trkpt lat="43.71586" lon="5.9797">
        <ele>359.8</ele>
        <time>2023-06-11T09:07:58Z</time>
      </trkpt>
      <trkpt lat="43.71586" lon="5.97968">
        <ele>359.8</ele>
        <time>2023-06-11T09:07:59Z</time>
      </trkpt>
      <trkpt lat="43.71586" lon="5.97966">
        <ele>359.8</ele>
        <time>2023-06-11T09:08:00Z</time>
      </trkpt>
      <trkpt lat="43.71586" lon="5.97964">
        <ele>359.9</ele>
        <time>2023-06-11T09:08:01Z</time>
      </trkpt>
      <trkpt lat="43.71586" lon="5.97962">
        <ele>359.7</ele>
        <time>2023-06-11T09:08:02Z</time>
      </trkpt>
      <trkpt lat="43.71586" lon="5.9796">
        <ele>359.7</ele>
        <time>2023-06-11T09:08:03Z</time>
      </trkpt>
      <trkpt lat="43.71585" lon="5.97958">
        <ele>359.7</ele>
        <time>2023-06-11T09:08:04Z</time>
      </trkpt>
      <trkpt lat="43.71585" lon="5.97956">
        <ele>359.8</ele>
        <time>2023-06-11T09:08:05Z</time>
      </trkpt>
      <trkpt lat="43.71585" lon="5.97955">
        <ele>359.8</ele>
        <time>2023-06-11T09:08:06Z</time>
      </trkpt>
      <trkpt lat="43.71585" lon="5.97953">
        <ele>359.8</ele>
        <time>2023-06-11T09:08:07Z</time>
      </trkpt>
      <trkpt lat="43.71584" lon="5.97952">
        <ele>359.8</ele>
        <time>2023-06-11T09:08:08Z</time>
      </trkpt>
      <trkpt lat="43.71584" lon="5.9795">
        <ele>359.8</ele>
        <time>2023-06-11T09:08:09Z</time>
      </trkpt>
      <trkpt lat="43.71584" lon="5.97948">
        <ele>359.8</ele>
        <time>2023-06-11T09:08:10Z</time>
      </trkpt>
      <trkpt lat="43.71583" lon="5.97946">
        <ele>359.9</ele>
        <time>2023-06-11T09:08:11Z</time>
      </trkpt>
      <trkpt lat="43.71583" lon="5.97944">
        <ele>359.8</ele>
        <time>2023-06-11T09:08:12Z</time>
      </trkpt>
      <trkpt lat="43.71583" lon="5.97943">
        <ele>359.7</ele>
        <time>2023-06-11T09:08:13Z</time>
      </trkpt>
      <trkpt lat="43.71583" lon="5.97941">
        <ele>359.7</ele>
        <time>2023-06-11T09:08:14Z</time>
      </trkpt>
      <trkpt lat="43.71582" lon="5.97939">
        <ele>359.7</ele>
        <time>2023-06-11T09:08:15Z</time>
      </trkpt>
      <trkpt lat="43.71582" lon="5.97938">
        <ele>359.7</ele>
        <time>2023-06-11T09:08:16Z</time>
      </trkpt>
      <trkpt lat="43.71582" lon="5.97936">
        <ele>359.8</ele>
        <time>2023-06-11T09:08:17Z</time>
      </trkpt>
      <trkpt lat="43.71582" lon="5.97935">
        <ele>359.7</ele>
        <time>2023-06-11T09:08:18Z</time>
      </trkpt>
      <trkpt lat="43.71582" lon="5.97933">
        <ele>359.7</ele>
        <time>2023-06-11T09:08:19Z</time>
      </trkpt>
      <trkpt lat="43.71582" lon="5.97931">
        <ele>359.7</ele>
        <time>2023-06-11T09:08:20Z</time>
      </trkpt>
      <trkpt lat="43.71582" lon="5.97929">
        <ele>359.7</ele>
        <time>2023-06-11T09:08:21Z</time>
      </trkpt>
      <trkpt lat="43.71581" lon="5.97927">
        <ele>359.7</ele>
        <time>2023-06-11T09:08:22Z</time>
      </trkpt>
      <trkpt lat="43.71581" lon="5.97926">
        <ele>359.6</ele>
        <time>2023-06-11T09:08:23Z</time>
      </trkpt>
      <trkpt lat="43.71581" lon="5.97924">
        <ele>359.6</ele>
        <time>2023-06-11T09:08:24Z</time>
      </trkpt>
      <trkpt lat="43.7158" lon="5.97922">
        <ele>359.6</ele>
        <time>2023-06-11T09:08:25Z</time>
      </trkpt>
      <trkpt lat="43.7158" lon="5.97921">
        <ele>359.7</ele>
        <time>2023-06-11T09:08:26Z</time>
      </trkpt>
      <trkpt lat="43.71579" lon="5.97919">
        <ele>359.7</ele>
        <time>2023-06-11T09:08:27Z</time>
      </trkpt>
      <trkpt lat="43.71579" lon="5.97918">
        <ele>359.7</ele>
        <time>2023-06-11T09:08:28Z</time>
      </trkpt>
      <trkpt lat="43.71579" lon="5.97916">
        <ele>359.7</ele>
        <time>2023-06-11T09:08:29Z</time>
      </trkpt>
      <trkpt lat="43.71578" lon="5.97915">
        <ele>359.7</ele>
        <time>2023-06-11T09:08:30Z</time>
      </trkpt>
      <trkpt lat="43.71578" lon="5.97913">
        <ele>359.8</ele>
        <time>2023-06-11T09:08:31Z</time>
      </trkpt>
      <trkpt lat="43.71578" lon="5.97912">
        <ele>359.8</ele>
        <time>2023-06-11T09:08:32Z</time>
      </trkpt>
      <trkpt lat="43.71577" lon="5.9791">
        <ele>359.9</ele>
        <time>2023-06-11T09:08:33Z</time>
      </trkpt>
      <trkpt lat="43.71577" lon="5.97909">
        <ele>359.8</ele>
        <time>2023-06-11T09:08:34Z</time>
      </trkpt>
      <trkpt lat="43.71577" lon="5.97907">
        <ele>359.8</ele>
        <time>2023-06-11T09:08:35Z</time>
      </trkpt>
      <trkpt lat="43.71577" lon="5.97906">
        <ele>359.7</ele>
        <time>2023-06-11T09:08:36Z</time>
      </trkpt>
      <trkpt lat="43.71576" lon="5.97905">
        <ele>359.7</ele>
        <time>2023-06-11T09:08:37Z</time>
      </trkpt>
      <trkpt lat="43.71576" lon="5.97904">
        <ele>359.7</ele>
        <time>2023-06-11T09:08:38Z</time>
      </trkpt>
      <trkpt lat="43.71576" lon="5.97903">
        <ele>359.7</ele>
        <time>2023-06-11T09:08:39Z</time>
      </trkpt>
      <trkpt lat="43.71576" lon="5.97902">
        <ele>359.7</ele>
        <time>2023-06-11T09:08:40Z</time>
      </trkpt>
      <trkpt lat="43.71575" lon="5.979">
        <ele>359.6</ele>
        <time>2023-06-11T09:08:41Z</time>
      </trkpt>
      <trkpt lat="43.71575" lon="5.979">
        <ele>359.6</ele>
        <time>2023-06-11T09:08:42Z</time>
      </trkpt>
      <trkpt lat="43.71575" lon="5.97899">
        <ele>359.6</ele>
        <time>2023-06-11T09:08:43Z</time>
      </trkpt>
      <trkpt lat="43.71575" lon="5.97898">
        <ele>359.6</ele>
        <time>2023-06-11T09:08:44Z</time>
      </trkpt>
      <trkpt lat="43.71574" lon="5.97897">
        <ele>359.6</ele>
        <time>2023-06-11T09:08:45Z</time>
      </trkpt>
      <trkpt lat="43.71574" lon="5.97897">
        <ele>359.6</ele>
        <time>2023-06-11T09:08:46Z</time>
      </trkpt>
      <trkpt lat="43.71573" lon="5.97896">
        <ele>359.7</ele>
        <time>2023-06-11T09:08:47Z</time>
      </trkpt>
      <trkpt lat="43.71573" lon="5.97895">
        <ele>359.7</ele>
        <time>2023-06-11T09:08:48Z</time>
      </trkpt>
      <trkpt lat="43.71572" lon="5.97893">
        <ele>359.6</ele>
        <time>2023-06-11T09:08:49Z</time>
      </trkpt>
      <trkpt lat="43.71572" lon="5.97892">
        <ele>359.7</ele>
        <time>2023-06-11T09:08:50Z</time>
      </trkpt>
      <trkpt lat="43.71572" lon="5.97891">
        <ele>359.7</ele>
        <time>2023-06-11T09:08:51Z</time>
      </trkpt>
      <trkpt lat="43.71571" lon="5.97889">
        <ele>359.7</ele>
        <time>2023-06-11T09:08:52Z</time>
      </trkpt>
      <trkpt lat="43.71571" lon="5.97888">
        <ele>359.7</ele>
        <time>2023-06-11T09:08:53Z</time>
      </trkpt>
      <trkpt lat="43.71571" lon="5.97886">
        <ele>359.7</ele>
        <time>2023-06-11T09:08:54Z</time>
      </trkpt>
      <trkpt lat="43.7157" lon="5.97884">
        <ele>359.8</ele>
        <time>2023-06-11T09:08:55Z</time>
      </trkpt>
      <trkpt lat="43.7157" lon="5.97883">
        <ele>359.8</ele>
        <time>2023-06-11T09:08:56Z</time>
      </trkpt>
      <trkpt lat="43.7157" lon="5.97881">
        <ele>359.8</ele>
        <time>2023-06-11T09:08:57Z</time>
      </trkpt>
      <trkpt lat="43.7157" lon="5.97879">
        <ele>359.7</ele>
        <time>2023-06-11T09:08:58Z</time>
      </trkpt>
      <trkpt lat="43.7157" lon="5.97877">
        <ele>359.8</ele>
        <time>2023-06-11T09:08:59Z</time>
      </trkpt>
      <trkpt lat="43.71569" lon="5.97875">
        <ele>359.8</ele>
        <time>2023-06-11T09:09:00Z</time>
      </trkpt>
      <trkpt lat="43.71569" lon="5.97873">
        <ele>359.8</ele>
        <time>2023-06-11T09:09:01Z</time>
      </trkpt>
      <trkpt lat="43.71569" lon="5.97871">
        <ele>359.7</ele>
        <time>2023-06-11T09:09:02Z</time>
      </trkpt>
      <trkpt lat="43.71569" lon="5.9787">
        <ele>359.6</ele>
        <time>2023-06-11T09:09:03Z</time>
      </trkpt>
      <trkpt lat="43.71568" lon="5.97868">
        <ele>359.6</ele>
        <time>2023-06-11T09:09:04Z</time>
      </trkpt>
      <trkpt lat="43.71568" lon="5.97866">
        <ele>359.6</ele>
        <time>2023-06-11T09:09:05Z</time>
      </trkpt>
      <trkpt lat="43.71568" lon="5.97864">
        <ele>359.7</ele>
        <time>2023-06-11T09:09:06Z</time>
      </trkpt>
      <trkpt lat="43.71567" lon="5.97862">
        <ele>359.7</ele>
        <time>2023-06-11T09:09:07Z</time>
      </trkpt>
      <trkpt lat="43.71567" lon="5.97861">
        <ele>359.7</ele>
        <time>2023-06-11T09:09:08Z</time>
      </trkpt>
      <trkpt lat="43.71567" lon="5.97859">
        <ele>359.7</ele>
        <time>2023-06-11T09:09:09Z</time>
      </trkpt>
      <trkpt lat="43.71566" lon="5.97857">
        <ele>359.7</ele>
        <time>2023-06-11T09:09:10Z</time>
      </trkpt>
      <trkpt lat="43.71566" lon="5.97855">
        <ele>359.7</ele>
        <time>2023-06-11T09:09:11Z</time>
      </trkpt>
      <trkpt lat="43.71566" lon="5.97853">
        <ele>359.7</ele>
        <time>2023-06-11T09:09:12Z</time>
      </trkpt>
      <trkpt lat="43.71565" lon="5.97851">
        <ele>359.7</ele>
        <time>2023-06-11T09:09:13Z</time>
      </trkpt>
      <trkpt lat="43.71565" lon="5.97849">
        <ele>359.7</ele>
        <time>2023-06-11T09:09:14Z</time>
      </trkpt>
      <trkpt lat="43.71565" lon="5.97847">
        <ele>359.7</ele>
        <time>2023-06-11T09:09:15Z</time>
      </trkpt>
      <trkpt lat="43.71564" lon="5.97845">
        <ele>359.7</ele>
        <time>2023-06-11T09:09:16Z</time>
      </trkpt>
      <trkpt lat="43.71563" lon="5.97843">
        <ele>359.7</ele>
        <time>2023-06-11T09:09:17Z</time>
      </trkpt>
      <trkpt lat="43.71563" lon="5.97841">
        <ele>359.7</ele>
        <time>2023-06-11T09:09:18Z</time>
      </trkpt>
      <trkpt lat="43.71561" lon="5.97839">
        <ele>359.7</ele>
        <time>2023-06-11T09:09:19Z</time>
      </trkpt>
      <trkpt lat="43.71561" lon="5.97837">
        <ele>359.8</ele>
        <time>2023-06-11T09:09:20Z</time>
      </trkpt>
      <trkpt lat="43.7156" lon="5.97835">
        <ele>359.8</ele>
        <time>2023-06-11T09:09:21Z</time>
      </trkpt>
      <trkpt lat="43.7156" lon="5.97833">
        <ele>359.8</ele>
        <time>2023-06-11T09:09:22Z</time>
      </trkpt>
      <trkpt lat="43.71559" lon="5.97832">
        <ele>359.9</ele>
        <time>2023-06-11T09:09:23Z</time>
      </trkpt>
      <trkpt lat="43.71559" lon="5.9783">
        <ele>359.9</ele>
        <time>2023-06-11T09:09:24Z</time>
      </trkpt>
      <trkpt lat="43.71558" lon="5.97828">
        <ele>360</ele>
        <time>2023-06-11T09:09:25Z</time>
      </trkpt>
      <trkpt lat="43.71557" lon="5.97826">
        <ele>360</ele>
        <time>2023-06-11T09:09:26Z</time>
      </trkpt>
      <trkpt lat="43.71556" lon="5.97824">
        <ele>360</ele>
        <time>2023-06-11T09:09:27Z</time>
      </trkpt>
      <trkpt lat="43.71556" lon="5.97822">
        <ele>360</ele>
        <time>2023-06-11T09:09:28Z</time>
      </trkpt>
      <trkpt lat="43.71555" lon="5.9782">
        <ele>360</ele>
        <time>2023-06-11T09:09:29Z</time>
      </trkpt>
      <trkpt lat="43.71554" lon="5.97818">
        <ele>360</ele>
        <time>2023-06-11T09:09:30Z</time>
      </trkpt>
      <trkpt lat="43.71553" lon="5.97817">
        <ele>360</ele>
        <time>2023-06-11T09:09:31Z</time>
      </trkpt>
      <trkpt lat="43.71552" lon="5.97815">
        <ele>359.9</ele>
        <time>2023-06-11T09:09:32Z</time>
      </trkpt>
      <trkpt lat="43.71551" lon="5.97813">
        <ele>360</ele>
        <time>2023-06-11T09:09:33Z</time>
      </trkpt>
      <trkpt lat="43.7155" lon="5.97811">
        <ele>360</ele>
        <time>2023-06-11T09:09:34Z</time>
      </trkpt>
      <trkpt lat="43.71549" lon="5.9781">
        <ele>360</ele>
        <time>2023-06-11T09:09:35Z</time>
      </trkpt>
      <trkpt lat="43.71548" lon="5.97808">
        <ele>360</ele>
        <time>2023-06-11T09:09:36Z</time>
      </trkpt>
      <trkpt lat="43.71546" lon="5.97806">
        <ele>359.9</ele>
        <time>2023-06-11T09:09:37Z</time>
      </trkpt>
      <trkpt lat="43.71546" lon="5.97804">
        <ele>360</ele>
        <time>2023-06-11T09:09:38Z</time>
      </trkpt>
      <trkpt lat="43.71545" lon="5.97802">
        <ele>360</ele>
        <time>2023-06-11T09:09:39Z</time>
      </trkpt>
      <trkpt lat="43.71544" lon="5.97801">
        <ele>360</ele>
        <time>2023-06-11T09:09:40Z</time>
      </trkpt>
      <trkpt lat="43.71544" lon="5.97799">
        <ele>360.1</ele>
        <time>2023-06-11T09:09:41Z</time>
      </trkpt>
      <trkpt lat="43.71543" lon="5.97797">
        <ele>360.1</ele>
        <time>2023-06-11T09:09:42Z</time>
      </trkpt>
      <trkpt lat="43.71542" lon="5.97795">
        <ele>360.1</ele>
        <time>2023-06-11T09:09:43Z</time>
      </trkpt>
      <trkpt lat="43.71542" lon="5.97793">
        <ele>360.1</ele>
        <time>2023-06-11T09:09:44Z</time>
      </trkpt>
      <trkpt lat="43.71541" lon="5.97791">
        <ele>360.1</ele>
        <time>2023-06-11T09:09:45Z</time>
      </trkpt>
      <trkpt lat="43.71541" lon="5.9779">
        <ele>360.1</ele>
        <time>2023-06-11T09:09:46Z</time>
      </trkpt>
      <trkpt lat="43.7154" lon="5.97788">
        <ele>360</ele>
        <time>2023-06-11T09:09:47Z</time>
      </trkpt>
      <trkpt lat="43.7154" lon="5.97786">
        <ele>359.9</ele>
        <time>2023-06-11T09:09:48Z</time>
      </trkpt>
      <trkpt lat="43.71539" lon="5.97784">
        <ele>359.9</ele>
        <time>2023-06-11T09:09:49Z</time>
      </trkpt>
      <trkpt lat="43.71539" lon="5.97782">
        <ele>359.9</ele>
        <time>2023-06-11T09:09:50Z</time>
      </trkpt>
      <trkpt lat="43.71538" lon="5.9778">
        <ele>359.8</ele>
        <time>2023-06-11T09:09:51Z</time>
      </trkpt>
      <trkpt lat="43.71538" lon="5.97779">
        <ele>359.7</ele>
        <time>2023-06-11T09:09:52Z</time>
      </trkpt>
      <trkpt lat="43.71537" lon="5.97777">
        <ele>359.7</ele>
        <time>2023-06-11T09:09:53Z</time>
      </trkpt>
      <trkpt lat="43.71537" lon="5.97775">
        <ele>359.7</ele>
        <time>2023-06-11T09:09:54Z</time>
      </trkpt>
      <trkpt lat="43.71537" lon="5.97773">
        <ele>359.7</ele>
        <time>2023-06-11T09:09:55Z</time>
      </trkpt>
      <trkpt lat="43.71536" lon="5.97771">
        <ele>359.8</ele>
        <time>2023-06-11T09:09:56Z</time>
      </trkpt>
      <trkpt lat="43.71536" lon="5.97769">
        <ele>359.8</ele>
        <time>2023-06-11T09:09:57Z</time>
      </trkpt>
      <trkpt lat="43.71536" lon="5.97767">
        <ele>359.9</ele>
        <time>2023-06-11T09:09:58Z</time>
      </trkpt>
      <trkpt lat="43.71535" lon="5.97766">
        <ele>359.9</ele>
        <time>2023-06-11T09:09:59Z</time>
      </trkpt>
      <trkpt lat="43.71535" lon="5.97764">
        <ele>359.9</ele>
        <time>2023-06-11T09:10:00Z</time>
      </trkpt>
      <trkpt lat="43.71534" lon="5.97762">
        <ele>359.9</ele>
        <time>2023-06-11T09:10:01Z</time>
      </trkpt>
      <trkpt lat="43.71534" lon="5.9776">
        <ele>359.9</ele>
        <time>2023-06-11T09:10:02Z</time>
      </trkpt>
      <trkpt lat="43.71534" lon="5.97758">
        <ele>359.9</ele>
        <time>2023-06-11T09:10:03Z</time>
      </trkpt>
      <trkpt lat="43.71533" lon="5.97756">
        <ele>359.9</ele>
        <time>2023-06-11T09:10:04Z</time>
      </trkpt>
      <trkpt lat="43.71533" lon="5.97754">
        <ele>359.9</ele>
        <time>2023-06-11T09:10:05Z</time>
      </trkpt>
      <trkpt lat="43.71532" lon="5.97752">
        <ele>360</ele>
        <time>2023-06-11T09:10:06Z</time>
      </trkpt>
      <trkpt lat="43.71532" lon="5.9775">
        <ele>360</ele>
        <time>2023-06-11T09:10:07Z</time>
      </trkpt>
      <trkpt lat="43.71531" lon="5.97749">
        <ele>360</ele>
        <time>2023-06-11T09:10:08Z</time>
      </trkpt>
      <trkpt lat="43.71531" lon="5.97747">
        <ele>360</ele>
        <time>2023-06-11T09:10:09Z</time>
      </trkpt>
      <trkpt lat="43.7153" lon="5.97745">
        <ele>360</ele>
        <time>2023-06-11T09:10:10Z</time>
      </trkpt>
      <trkpt lat="43.7153" lon="5.97743">
        <ele>360</ele>
        <time>2023-06-11T09:10:11Z</time>
      </trkpt>
      <trkpt lat="43.71529" lon="5.97741">
        <ele>360.1</ele>
        <time>2023-06-11T09:10:12Z</time>
      </trkpt>
      <trkpt lat="43.71529" lon="5.97739">
        <ele>360</ele>
        <time>2023-06-11T09:10:13Z</time>
      </trkpt>
      <trkpt lat="43.71528" lon="5.97737">
        <ele>360</ele>
        <time>2023-06-11T09:10:14Z</time>
      </trkpt>
      <trkpt lat="43.71528" lon="5.97735">
        <ele>360</ele>
        <time>2023-06-11T09:10:15Z</time>
      </trkpt>
      <trkpt lat="43.71528" lon="5.97734">
        <ele>359.9</ele>
        <time>2023-06-11T09:10:16Z</time>
      </trkpt>
      <trkpt lat="43.71527" lon="5.97732">
        <ele>360</ele>
        <time>2023-06-11T09:10:17Z</time>
      </trkpt>
      <trkpt lat="43.71527" lon="5.9773">
        <ele>360</ele>
        <time>2023-06-11T09:10:18Z</time>
      </trkpt>
      <trkpt lat="43.71527" lon="5.97728">
        <ele>360</ele>
        <time>2023-06-11T09:10:19Z</time>
      </trkpt>
      <trkpt lat="43.71527" lon="5.97726">
        <ele>360.1</ele>
        <time>2023-06-11T09:10:20Z</time>
      </trkpt>
      <trkpt lat="43.71527" lon="5.97724">
        <ele>360.2</ele>
        <time>2023-06-11T09:10:21Z</time>
      </trkpt>
      <trkpt lat="43.71527" lon="5.97722">
        <ele>360.3</ele>
        <time>2023-06-11T09:10:22Z</time>
      </trkpt>
      <trkpt lat="43.71526" lon="5.9772">
        <ele>360.3</ele>
        <time>2023-06-11T09:10:23Z</time>
      </trkpt>
      <trkpt lat="43.71526" lon="5.97718">
        <ele>360.3</ele>
        <time>2023-06-11T09:10:24Z</time>
      </trkpt>
      <trkpt lat="43.71526" lon="5.97716">
        <ele>360.3</ele>
        <time>2023-06-11T09:10:25Z</time>
      </trkpt>
      <trkpt lat="43.71526" lon="5.97714">
        <ele>360.3</ele>
        <time>2023-06-11T09:10:26Z</time>
      </trkpt>
      <trkpt lat="43.71526" lon="5.97712">
        <ele>360.3</ele>
        <time>2023-06-11T09:10:27Z</time>
      </trkpt>
      <trkpt lat="43.71526" lon="5.9771">
        <ele>360.2</ele>
        <time>2023-06-11T09:10:28Z</time>
      </trkpt>
      <trkpt lat="43.71525" lon="5.97708">
        <ele>360.2</ele>
        <time>2023-06-11T09:10:29Z</time>
      </trkpt>
      <trkpt lat="43.71525" lon="5.97706">
        <ele>360.3</ele>
        <time>2023-06-11T09:10:30Z</time>
      </trkpt>
      <trkpt lat="43.71525" lon="5.97704">
        <ele>360.4</ele>
        <time>2023-06-11T09:10:31Z</time>
      </trkpt>
      <trkpt lat="43.71525" lon="5.97702">
        <ele>360.4</ele>
        <time>2023-06-11T09:10:32Z</time>
      </trkpt>
      <trkpt lat="43.71524" lon="5.977">
        <ele>360.4</ele>
        <time>2023-06-11T09:10:33Z</time>
      </trkpt>
      <trkpt lat="43.71524" lon="5.97698">
        <ele>360.4</ele>
        <time>2023-06-11T09:10:34Z</time>
      </trkpt>
      <trkpt lat="43.71524" lon="5.97696">
        <ele>360.4</ele>
        <time>2023-06-11T09:10:35Z</time>
      </trkpt>
      <trkpt lat="43.71524" lon="5.97694">
        <ele>360.4</ele>
        <time>2023-06-11T09:10:36Z</time>
      </trkpt>
      <trkpt lat="43.71523" lon="5.97692">
        <ele>360.5</ele>
        <time>2023-06-11T09:10:37Z</time>
      </trkpt>
      <trkpt lat="43.71523" lon="5.9769">
        <ele>360.4</ele>
        <time>2023-06-11T09:10:38Z</time>
      </trkpt>
      <trkpt lat="43.71523" lon="5.97688">
        <ele>360.4</ele>
        <time>2023-06-11T09:10:39Z</time>
      </trkpt>
      <trkpt lat="43.71523" lon="5.97686">
        <ele>360.4</ele>
        <time>2023-06-11T09:10:40Z</time>
      </trkpt>
      <trkpt lat="43.71523" lon="5.97684">
        <ele>360.4</ele>
        <time>2023-06-11T09:10:41Z</time>
      </trkpt>
      <trkpt lat="43.71523" lon="5.97682">
        <ele>360.4</ele>
        <time>2023-06-11T09:10:42Z</time>
      </trkpt>
      <trkpt lat="43.71523" lon="5.9768">
        <ele>360.4</ele>
        <time>2023-06-11T09:10:43Z</time>
      </trkpt>
      <trkpt lat="43.71522" lon="5.97678">
        <ele>360.4</ele>
        <time>2023-06-11T09:10:44Z</time>
      </trkpt>
      <trkpt lat="43.71522" lon="5.97676">
        <ele>360.5</ele>
        <time>2023-06-11T09:10:45Z</time>
      </trkpt>
      <trkpt lat="43.71522" lon="5.97674">
        <ele>360.4</ele>
        <time>2023-06-11T09:10:46Z</time>
      </trkpt>
      <trkpt lat="43.71522" lon="5.97672">
        <ele>360.4</ele>
        <time>2023-06-11T09:10:47Z</time>
      </trkpt>
      <trkpt lat="43.71522" lon="5.9767">
        <ele>360.4</ele>
        <time>2023-06-11T09:10:48Z</time>
      </trkpt>
      <trkpt lat="43.71521" lon="5.97668">
        <ele>360.3</ele>
        <time>2023-06-11T09:10:49Z</time>
      </trkpt>
      <trkpt lat="43.71521" lon="5.97666">
        <ele>360.3</ele>
        <time>2023-06-11T09:10:50Z</time>
      </trkpt>
      <trkpt lat="43.71521" lon="5.97664">
        <ele>360.3</ele>
        <time>2023-06-11T09:10:51Z</time>
      </trkpt>
      <trkpt lat="43.71521" lon="5.97662">
        <ele>360.3</ele>
        <time>2023-06-11T09:10:52Z</time>
      </trkpt>
      <trkpt lat="43.71521" lon="5.9766">
        <ele>360.3</ele>
        <time>2023-06-11T09:10:53Z</time>
      </trkpt>
      <trkpt lat="43.71521" lon="5.97658">
        <ele>360.3</ele>
        <time>2023-06-11T09:10:54Z</time>
      </trkpt>
      <trkpt lat="43.71521" lon="5.97656">
        <ele>360.3</ele>
        <time>2023-06-11T09:10:55Z</time>
      </trkpt>
      <trkpt lat="43.71521" lon="5.97654">
        <ele>360.3</ele>
        <time>2023-06-11T09:10:56Z</time>
      </trkpt>
      <trkpt lat="43.71521" lon="5.97652">
        <ele>360.3</ele>
        <time>2023-06-11T09:10:57Z</time>
      </trkpt>
      <trkpt lat="43.71521" lon="5.9765">
        <ele>360.2</ele>
        <time>2023-06-11T09:10:58Z</time>
      </trkpt>
      <trkpt lat="43.7152" lon="5.97648">
        <ele>360.2</ele>
        <time>2023-06-11T09:10:59Z</time>
      </trkpt>
      <trkpt lat="43.7152" lon="5.97646">
        <ele>360.3</ele>
        <time>2023-06-11T09:11:00Z</time>
      </trkpt>
      <trkpt lat="43.7152" lon="5.97644">
        <ele>360.2</ele>
        <time>2023-06-11T09:11:01Z</time>
      </trkpt>
      <trkpt lat="43.7152" lon="5.97642">
        <ele>360.2</ele>
        <time>2023-06-11T09:11:02Z</time>
      </trkpt>
      <trkpt lat="43.7152" lon="5.9764">
        <ele>360.2</ele>
        <time>2023-06-11T09:11:03Z</time>
      </trkpt>
      <trkpt lat="43.7152" lon="5.97638">
        <ele>360.2</ele>
        <time>2023-06-11T09:11:04Z</time>
      </trkpt>
      <trkpt lat="43.7152" lon="5.97636">
        <ele>360.2</ele>
        <time>2023-06-11T09:11:05Z</time>
      </trkpt>
      <trkpt lat="43.7152" lon="5.97634">
        <ele>360.2</ele>
        <time>2023-06-11T09:11:06Z</time>
      </trkpt>
      <trkpt lat="43.7152" lon="5.97632">
        <ele>360.1</ele>
        <time>2023-06-11T09:11:07Z</time>
      </trkpt>
      <trkpt lat="43.7152" lon="5.9763">
        <ele>360.1</ele>
        <time>2023-06-11T09:11:08Z</time>
      </trkpt>
      <trkpt lat="43.7152" lon="5.97628">
        <ele>360</ele>
        <time>2023-06-11T09:11:09Z</time>
      </trkpt>
      <trkpt lat="43.71519" lon="5.97626">
        <ele>360</ele>
        <time>2023-06-11T09:11:10Z</time>
      </trkpt>
      <trkpt lat="43.71519" lon="5.97624">
        <ele>360.1</ele>
        <time>2023-06-11T09:11:11Z</time>
      </trkpt>
      <trkpt lat="43.71519" lon="5.97622">
        <ele>360</ele>
        <time>2023-06-11T09:11:12Z</time>
      </trkpt>
      <trkpt lat="43.71519" lon="5.9762">
        <ele>360.1</ele>
        <time>2023-06-11T09:11:13Z</time>
      </trkpt>
      <trkpt lat="43.71519" lon="5.97618">
        <ele>360</ele>
        <time>2023-06-11T09:11:14Z</time>
      </trkpt>
      <trkpt lat="43.71519" lon="5.97616">
        <ele>360</ele>
        <time>2023-06-11T09:11:15Z</time>
      </trkpt>
      <trkpt lat="43.71519" lon="5.97614">
        <ele>360</ele>
        <time>2023-06-11T09:11:16Z</time>
      </trkpt>
      <trkpt lat="43.71519" lon="5.97613">
        <ele>360</ele>
        <time>2023-06-11T09:11:17Z</time>
      </trkpt>
      <trkpt lat="43.71519" lon="5.97611">
        <ele>360</ele>
        <time>2023-06-11T09:11:18Z</time>
      </trkpt>
      <trkpt lat="43.71519" lon="5.97609">
        <ele>360</ele>
        <time>2023-06-11T09:11:19Z</time>
      </trkpt>
      <trkpt lat="43.71519" lon="5.97608">
        <ele>360</ele>
        <time>2023-06-11T09:11:20Z</time>
      </trkpt>
      <trkpt lat="43.71519" lon="5.97606">
        <ele>360</ele>
        <time>2023-06-11T09:11:21Z</time>
      </trkpt>
      <trkpt lat="43.7152" lon="5.97604">
        <ele>360</ele>
        <time>2023-06-11T09:11:22Z</time>
      </trkpt>
      <trkpt lat="43.7152" lon="5.97602">
        <ele>360</ele>
        <time>2023-06-11T09:11:23Z</time>
      </trkpt>
      <trkpt lat="43.7152" lon="5.97601">
        <ele>360</ele>
        <time>2023-06-11T09:11:24Z</time>
      </trkpt>
      <trkpt lat="43.7152" lon="5.97599">
        <ele>359.9</ele>
        <time>2023-06-11T09:11:25Z</time>
      </trkpt>
      <trkpt lat="43.7152" lon="5.97597">
        <ele>359.9</ele>
        <time>2023-06-11T09:11:26Z</time>
      </trkpt>
      <trkpt lat="43.7152" lon="5.97595">
        <ele>359.9</ele>
        <time>2023-06-11T09:11:27Z</time>
      </trkpt>
      <trkpt lat="43.7152" lon="5.97594">
        <ele>359.9</ele>
        <time>2023-06-11T09:11:28Z</time>
      </trkpt>
      <trkpt lat="43.7152" lon="5.97592">
        <ele>360</ele>
        <time>2023-06-11T09:11:29Z</time>
      </trkpt>
      <trkpt lat="43.7152" lon="5.9759">
        <ele>360</ele>
        <time>2023-06-11T09:11:30Z</time>
      </trkpt>
      <trkpt lat="43.7152" lon="5.97588">
        <ele>360</ele>
        <time>2023-06-11T09:11:31Z</time>
      </trkpt>
      <trkpt lat="43.7152" lon="5.97586">
        <ele>360</ele>
        <time>2023-06-11T09:11:32Z</time>
      </trkpt>
      <trkpt lat="43.7152" lon="5.97585">
        <ele>359.9</ele>
        <time>2023-06-11T09:11:33Z</time>
      </trkpt>
      <trkpt lat="43.7152" lon="5.97583">
        <ele>359.9</ele>
        <time>2023-06-11T09:11:34Z</time>
      </trkpt>
      <trkpt lat="43.71521" lon="5.97581">
        <ele>359.9</ele>
        <time>2023-06-11T09:11:35Z</time>
      </trkpt>
      <trkpt lat="43.71521" lon="5.97579">
        <ele>359.9</ele>
        <time>2023-06-11T09:11:36Z</time>
      </trkpt>
      <trkpt lat="43.71521" lon="5.97578">
        <ele>359.9</ele>
        <time>2023-06-11T09:11:37Z</time>
      </trkpt>
      <trkpt lat="43.71521" lon="5.97576">
        <ele>359.9</ele>
        <time>2023-06-11T09:11:38Z</time>
      </trkpt>
      <trkpt lat="43.71521" lon="5.97574">
        <ele>359.9</ele>
        <time>2023-06-11T09:11:39Z</time>
      </trkpt>
      <trkpt lat="43.71521" lon="5.97573">
        <ele>360</ele>
        <time>2023-06-11T09:11:40Z</time>
      </trkpt>
      <trkpt lat="43.71521" lon="5.97571">
        <ele>360</ele>
        <time>2023-06-11T09:11:41Z</time>
      </trkpt>
      <trkpt lat="43.71521" lon="5.9757">
        <ele>360</ele>
        <time>2023-06-11T09:11:42Z</time>
      </trkpt>
      <trkpt lat="43.71521" lon="5.97568">
        <ele>359.9</ele>
        <time>2023-06-11T09:11:43Z</time>
      </trkpt>
      <trkpt lat="43.71521" lon="5.97566">
        <ele>359.9</ele>
        <time>2023-06-11T09:11:44Z</time>
      </trkpt>
      <trkpt lat="43.71521" lon="5.97565">
        <ele>359.9</ele>
        <time>2023-06-11T09:11:45Z</time>
      </trkpt>
      <trkpt lat="43.71522" lon="5.97563">
        <ele>359.9</ele>
        <time>2023-06-11T09:11:46Z</time>
      </trkpt>
      <trkpt lat="43.71522" lon="5.97562">
        <ele>359.9</ele>
        <time>2023-06-11T09:11:47Z</time>
      </trkpt>
      <trkpt lat="43.71522" lon="5.9756">
        <ele>360</ele>
        <time>2023-06-11T09:11:48Z</time>
      </trkpt>
      <trkpt lat="43.71522" lon="5.97558">
        <ele>360</ele>
        <time>2023-06-11T09:11:49Z</time>
      </trkpt>
      <trkpt lat="43.71522" lon="5.97557">
        <ele>360</ele>
        <time>2023-06-11T09:11:50Z</time>
      </trkpt>
      <trkpt lat="43.71522" lon="5.97555">
        <ele>360</ele>
        <time>2023-06-11T09:11:51Z</time>
      </trkpt>
      <trkpt lat="43.71522" lon="5.97553">
        <ele>360</ele>
        <time>2023-06-11T09:11:52Z</time>
      </trkpt>
      <trkpt lat="43.71522" lon="5.97552">
        <ele>360</ele>
        <time>2023-06-11T09:11:53Z</time>
      </trkpt>
      <trkpt lat="43.71522" lon="5.9755">
        <ele>360.1</ele>
        <time>2023-06-11T09:11:54Z</time>
      </trkpt>
      <trkpt lat="43.71523" lon="5.97548">
        <ele>360.1</ele>
        <time>2023-06-11T09:11:55Z</time>
      </trkpt>
      <trkpt lat="43.71523" lon="5.97547">
        <ele>360.1</ele>
        <time>2023-06-11T09:11:56Z</time>
      </trkpt>
      <trkpt lat="43.71523" lon="5.97545">
        <ele>360.1</ele>
        <time>2023-06-11T09:11:57Z</time>
      </trkpt>
      <trkpt lat="43.71523" lon="5.97543">
        <ele>360.1</ele>
        <time>2023-06-11T09:11:58Z</time>
      </trkpt>
      <trkpt lat="43.71523" lon="5.97541">
        <ele>360.1</ele>
        <time>2023-06-11T09:11:59Z</time>
      </trkpt>
      <trkpt lat="43.71523" lon="5.9754">
        <ele>360.1</ele>
        <time>2023-06-11T09:12:00Z</time>
      </trkpt>
      <trkpt lat="43.71523" lon="5.97538">
        <ele>360.1</ele>
        <time>2023-06-11T09:12:01Z</time>
      </trkpt>
      <trkpt lat="43.71523" lon="5.97536">
        <ele>360.1</ele>
        <time>2023-06-11T09:12:02Z</time>
      </trkpt>
      <trkpt lat="43.71523" lon="5.97534">
        <ele>360.1</ele>
        <time>2023-06-11T09:12:03Z</time>
      </trkpt>
      <trkpt lat="43.71523" lon="5.97533">
        <ele>360.1</ele>
        <time>2023-06-11T09:12:04Z</time>
      </trkpt>
      <trkpt lat="43.71523" lon="5.97531">
        <ele>360.1</ele>
        <time>2023-06-11T09:12:05Z</time>
      </trkpt>
      <trkpt lat="43.71523" lon="5.97529">
        <ele>360.1</ele>
        <time>2023-06-11T09:12:06Z</time>
      </trkpt>
      <trkpt lat="43.71523" lon="5.97528">
        <ele>360.1</ele>
        <time>2023-06-11T09:12:07Z</time>
      </trkpt>
      <trkpt lat="43.71523" lon="5.97526">
        <ele>360.2</ele>
        <time>2023-06-11T09:12:08Z</time>
      </trkpt>
      <trkpt lat="43.71523" lon="5.97524">
        <ele>360.2</ele>
        <time>2023-06-11T09:12:09Z</time>
      </trkpt>
      <trkpt lat="43.71523" lon="5.97522">
        <ele>360.2</ele>
        <time>2023-06-11T09:12:10Z</time>
      </trkpt>
      <trkpt lat="43.71524" lon="5.97521">
        <ele>360.2</ele>
        <time>2023-06-11T09:12:11Z</time>
      </trkpt>
      <trkpt lat="43.71524" lon="5.97519">
        <ele>360.1</ele>
        <time>2023-06-11T09:12:12Z</time>
      </trkpt>
      <trkpt lat="43.71524" lon="5.97518">
        <ele>360</ele>
        <time>2023-06-11T09:12:13Z</time>
      </trkpt>
      <trkpt lat="43.71524" lon="5.97516">
        <ele>359.9</ele>
        <time>2023-06-11T09:12:14Z</time>
      </trkpt>
      <trkpt lat="43.71524" lon="5.97514">
        <ele>359.8</ele>
        <time>2023-06-11T09:12:15Z</time>
      </trkpt>
      <trkpt lat="43.71524" lon="5.97512">
        <ele>359.8</ele>
        <time>2023-06-11T09:12:16Z</time>
      </trkpt>
      <trkpt lat="43.71524" lon="5.97511">
        <ele>359.8</ele>
        <time>2023-06-11T09:12:17Z</time>
      </trkpt>
      <trkpt lat="43.71524" lon="5.97509">
        <ele>359.8</ele>
        <time>2023-06-11T09:12:18Z</time>
      </trkpt>
      <trkpt lat="43.71524" lon="5.97508">
        <ele>359.8</ele>
        <time>2023-06-11T09:12:19Z</time>
      </trkpt>
      <trkpt lat="43.71524" lon="5.97506">
        <ele>359.7</ele>
        <time>2023-06-11T09:12:20Z</time>
      </trkpt>
      <trkpt lat="43.71524" lon="5.97505">
        <ele>359.7</ele>
        <time>2023-06-11T09:12:21Z</time>
      </trkpt>
      <trkpt lat="43.71524" lon="5.97503">
        <ele>359.7</ele>
        <time>2023-06-11T09:12:22Z</time>
      </trkpt>
      <trkpt lat="43.71525" lon="5.97501">
        <ele>359.6</ele>
        <time>2023-06-11T09:12:23Z</time>
      </trkpt>
      <trkpt lat="43.71525" lon="5.975">
        <ele>359.6</ele>
        <time>2023-06-11T09:12:24Z</time>
      </trkpt>
      <trkpt lat="43.71525" lon="5.97498">
        <ele>359.6</ele>
        <time>2023-06-11T09:12:25Z</time>
      </trkpt>
      <trkpt lat="43.71525" lon="5.97496">
        <ele>359.7</ele>
        <time>2023-06-11T09:12:26Z</time>
      </trkpt>
      <trkpt lat="43.71525" lon="5.97495">
        <ele>359.6</ele>
        <time>2023-06-11T09:12:27Z</time>
      </trkpt>
      <trkpt lat="43.71525" lon="5.97493">
        <ele>359.6</ele>
        <time>2023-06-11T09:12:28Z</time>
      </trkpt>
      <trkpt lat="43.71525" lon="5.97492">
        <ele>359.6</ele>
        <time>2023-06-11T09:12:29Z</time>
      </trkpt>
      <trkpt lat="43.71525" lon="5.9749">
        <ele>359.7</ele>
        <time>2023-06-11T09:12:30Z</time>
      </trkpt>
      <trkpt lat="43.71525" lon="5.97489">
        <ele>359.7</ele>
        <time>2023-06-11T09:12:31Z</time>
      </trkpt>
      <trkpt lat="43.71525" lon="5.97487">
        <ele>359.6</ele>
        <time>2023-06-11T09:12:32Z</time>
      </trkpt>
      <trkpt lat="43.71525" lon="5.97486">
        <ele>359.6</ele>
        <time>2023-06-11T09:12:33Z</time>
      </trkpt>
      <trkpt lat="43.71525" lon="5.97484">
        <ele>359.7</ele>
        <time>2023-06-11T09:12:34Z</time>
      </trkpt>
      <trkpt lat="43.71526" lon="5.97483">
        <ele>359.7</ele>
        <time>2023-06-11T09:12:35Z</time>
      </trkpt>
      <trkpt lat="43.71526" lon="5.97482">
        <ele>359.8</ele>
        <time>2023-06-11T09:12:36Z</time>
      </trkpt>
      <trkpt lat="43.71526" lon="5.9748">
        <ele>359.8</ele>
        <time>2023-06-11T09:12:37Z</time>
      </trkpt>
      <trkpt lat="43.71526" lon="5.97479">
        <ele>359.9</ele>
        <time>2023-06-11T09:12:38Z</time>
      </trkpt>
      <trkpt lat="43.71526" lon="5.97477">
        <ele>359.9</ele>
        <time>2023-06-11T09:12:39Z</time>
      </trkpt>
      <trkpt lat="43.71526" lon="5.97476">
        <ele>359.9</ele>
        <time>2023-06-11T09:12:40Z</time>
      </trkpt>
      <trkpt lat="43.71526" lon="5.97474">
        <ele>359.9</ele>
        <time>2023-06-11T09:12:41Z</time>
      </trkpt>
      <trkpt lat="43.71526" lon="5.97473">
        <ele>359.9</ele>
        <time>2023-06-11T09:12:42Z</time>
      </trkpt>
      <trkpt lat="43.71526" lon="5.97471">
        <ele>359.9</ele>
        <time>2023-06-11T09:12:43Z</time>
      </trkpt>
      <trkpt lat="43.71526" lon="5.97469">
        <ele>359.9</ele>
        <time>2023-06-11T09:12:44Z</time>
      </trkpt>
      <trkpt lat="43.71527" lon="5.97468">
        <ele>359.9</ele>
        <time>2023-06-11T09:12:45Z</time>
      </trkpt>
      <trkpt lat="43.71527" lon="5.97466">
        <ele>359.9</ele>
        <time>2023-06-11T09:12:46Z</time>
      </trkpt>
      <trkpt lat="43.71527" lon="5.97464">
        <ele>359.9</ele>
        <time>2023-06-11T09:12:47Z</time>
      </trkpt>
      <trkpt lat="43.71527" lon="5.97462">
        <ele>359.9</ele>
        <time>2023-06-11T09:12:48Z</time>
      </trkpt>
      <trkpt lat="43.71527" lon="5.9746">
        <ele>359.9</ele>
        <time>2023-06-11T09:12:49Z</time>
      </trkpt>
      <trkpt lat="43.71527" lon="5.97458">
        <ele>359.9</ele>
        <time>2023-06-11T09:12:50Z</time>
      </trkpt>
      <trkpt lat="43.71526" lon="5.97456">
        <ele>359.9</ele>
        <time>2023-06-11T09:12:51Z</time>
      </trkpt>
      <trkpt lat="43.71526" lon="5.97454">
        <ele>359.8</ele>
        <time>2023-06-11T09:12:52Z</time>
      </trkpt>
      <trkpt lat="43.71526" lon="5.97452">
        <ele>359.8</ele>
        <time>2023-06-11T09:12:53Z</time>
      </trkpt>
      <trkpt lat="43.71526" lon="5.9745">
        <ele>359.7</ele>
        <time>2023-06-11T09:12:54Z</time>
      </trkpt>
      <trkpt lat="43.71526" lon="5.97448">
        <ele>359.7</ele>
        <time>2023-06-11T09:12:55Z</time>
      </trkpt>
      <trkpt lat="43.71526" lon="5.97446">
        <ele>359.7</ele>
        <time>2023-06-11T09:12:56Z</time>
      </trkpt>
      <trkpt lat="43.71526" lon="5.97444">
        <ele>359.7</ele>
        <time>2023-06-11T09:12:57Z</time>
      </trkpt>
      <trkpt lat="43.71526" lon="5.97442">
        <ele>359.7</ele>
        <time>2023-06-11T09:12:58Z</time>
      </trkpt>
      <trkpt lat="43.71526" lon="5.9744">
        <ele>359.8</ele>
        <time>2023-06-11T09:12:59Z</time>
      </trkpt>
      <trkpt lat="43.71526" lon="5.97438">
        <ele>359.8</ele>
        <time>2023-06-11T09:13:00Z</time>
      </trkpt>
      <trkpt lat="43.71526" lon="5.97436">
        <ele>359.8</ele>
        <time>2023-06-11T09:13:01Z</time>
      </trkpt>
      <trkpt lat="43.71525" lon="5.97434">
        <ele>359.8</ele>
        <time>2023-06-11T09:13:02Z</time>
      </trkpt>
      <trkpt lat="43.71525" lon="5.97432">
        <ele>359.8</ele>
        <time>2023-06-11T09:13:03Z</time>
      </trkpt>
      <trkpt lat="43.71525" lon="5.9743">
        <ele>359.7</ele>
        <time>2023-06-11T09:13:04Z</time>
      </trkpt>
      <trkpt lat="43.71525" lon="5.97428">
        <ele>359.7</ele>
        <time>2023-06-11T09:13:05Z</time>
      </trkpt>
      <trkpt lat="43.71524" lon="5.97426">
        <ele>359.8</ele>
        <time>2023-06-11T09:13:06Z</time>
      </trkpt>
      <trkpt lat="43.71524" lon="5.97424">
        <ele>359.8</ele>
        <time>2023-06-11T09:13:07Z</time>
      </trkpt>
      <trkpt lat="43.71524" lon="5.97422">
        <ele>359.8</ele>
        <time>2023-06-11T09:13:08Z</time>
      </trkpt>
      <trkpt lat="43.71524" lon="5.9742">
        <ele>359.8</ele>
        <time>2023-06-11T09:13:09Z</time>
      </trkpt>
      <trkpt lat="43.71524" lon="5.97418">
        <ele>359.8</ele>
        <time>2023-06-11T09:13:10Z</time>
      </trkpt>
      <trkpt lat="43.71524" lon="5.97416">
        <ele>359.8</ele>
        <time>2023-06-11T09:13:11Z</time>
      </trkpt>
      <trkpt lat="43.71524" lon="5.97414">
        <ele>359.9</ele>
        <time>2023-06-11T09:13:12Z</time>
      </trkpt>
      <trkpt lat="43.71524" lon="5.97412">
        <ele>359.9</ele>
        <time>2023-06-11T09:13:13Z</time>
      </trkpt>
      <trkpt lat="43.71524" lon="5.9741">
        <ele>359.9</ele>
        <time>2023-06-11T09:13:14Z</time>
      </trkpt>
      <trkpt lat="43.71525" lon="5.97409">
        <ele>359.9</ele>
        <time>2023-06-11T09:13:15Z</time>
      </trkpt>
      <trkpt lat="43.71525" lon="5.97407">
        <ele>360</ele>
        <time>2023-06-11T09:13:16Z</time>
      </trkpt>
      <trkpt lat="43.71526" lon="5.97405">
        <ele>360</ele>
        <time>2023-06-11T09:13:17Z</time>
      </trkpt>
      <trkpt lat="43.71527" lon="5.97404">
        <ele>359.9</ele>
        <time>2023-06-11T09:13:18Z</time>
      </trkpt>
      <trkpt lat="43.71528" lon="5.97403">
        <ele>360</ele>
        <time>2023-06-11T09:13:19Z</time>
      </trkpt>
      <trkpt lat="43.71529" lon="5.97402">
        <ele>360</ele>
        <time>2023-06-11T09:13:20Z</time>
      </trkpt>
      <trkpt lat="43.7153" lon="5.97401">
        <ele>360</ele>
        <time>2023-06-11T09:13:21Z</time>
      </trkpt>
      <trkpt lat="43.71531" lon="5.974">
        <ele>360.1</ele>
        <time>2023-06-11T09:13:22Z</time>
      </trkpt>
      <trkpt lat="43.71532" lon="5.97398">
        <ele>360.1</ele>
        <time>2023-06-11T09:13:23Z</time>
      </trkpt>
      <trkpt lat="43.71533" lon="5.97397">
        <ele>360</ele>
        <time>2023-06-11T09:13:24Z</time>
      </trkpt>
      <trkpt lat="43.71534" lon="5.97396">
        <ele>360</ele>
        <time>2023-06-11T09:13:25Z</time>
      </trkpt>
      <trkpt lat="43.71535" lon="5.97395">
        <ele>360</ele>
        <time>2023-06-11T09:13:26Z</time>
      </trkpt>
      <trkpt lat="43.71537" lon="5.97394">
        <ele>360.1</ele>
        <time>2023-06-11T09:13:27Z</time>
      </trkpt>
      <trkpt lat="43.71538" lon="5.97393">
        <ele>360.1</ele>
        <time>2023-06-11T09:13:28Z</time>
      </trkpt>
      <trkpt lat="43.71539" lon="5.97393">
        <ele>360.1</ele>
        <time>2023-06-11T09:13:29Z</time>
      </trkpt>
      <trkpt lat="43.7154" lon="5.97392">
        <ele>360.1</ele>
        <time>2023-06-11T09:13:30Z</time>
      </trkpt>
      <trkpt lat="43.71542" lon="5.97391">
        <ele>360.1</ele>
        <time>2023-06-11T09:13:31Z</time>
      </trkpt>
      <trkpt lat="43.71543" lon="5.9739">
        <ele>360.1</ele>
        <time>2023-06-11T09:13:32Z</time>
      </trkpt>
      <trkpt lat="43.71544" lon="5.97389">
        <ele>360.1</ele>
        <time>2023-06-11T09:13:33Z</time>
      </trkpt>
      <trkpt lat="43.71545" lon="5.97388">
        <ele>360.1</ele>
        <time>2023-06-11T09:13:34Z</time>
      </trkpt>
      <trkpt lat="43.71547" lon="5.97388">
        <ele>360.1</ele>
        <time>2023-06-11T09:13:35Z</time>
      </trkpt>
      <trkpt lat="43.71548" lon="5.97387">
        <ele>360.1</ele>
        <time>2023-06-11T09:13:36Z</time>
      </trkpt>
      <trkpt lat="43.7155" lon="5.97386">
        <ele>360.1</ele>
        <time>2023-06-11T09:13:37Z</time>
      </trkpt>
      <trkpt lat="43.71551" lon="5.97386">
        <ele>360.1</ele>
        <time>2023-06-11T09:13:38Z</time>
      </trkpt>
      <trkpt lat="43.71553" lon="5.97385">
        <ele>360.1</ele>
        <time>2023-06-11T09:13:39Z</time>
      </trkpt>
      <trkpt lat="43.71554" lon="5.97384">
        <ele>360.1</ele>
        <time>2023-06-11T09:13:40Z</time>
      </trkpt>
      <trkpt lat="43.71556" lon="5.97384">
        <ele>360.1</ele>
        <time>2023-06-11T09:13:41Z</time>
      </trkpt>
      <trkpt lat="43.71557" lon="5.97383">
        <ele>360.1</ele>
        <time>2023-06-11T09:13:42Z</time>
      </trkpt>
      <trkpt lat="43.71558" lon="5.97382">
        <ele>360.1</ele>
        <time>2023-06-11T09:13:43Z</time>
      </trkpt>
      <trkpt lat="43.7156" lon="5.97381">
        <ele>360.2</ele>
        <time>2023-06-11T09:13:44Z</time>
      </trkpt>
      <trkpt lat="43.71561" lon="5.9738">
        <ele>360.2</ele>
        <time>2023-06-11T09:13:45Z</time>
      </trkpt>
      <trkpt lat="43.71562" lon="5.97379">
        <ele>360.2</ele>
        <time>2023-06-11T09:13:46Z</time>
      </trkpt>
      <trkpt lat="43.71564" lon="5.97379">
        <ele>360.3</ele>
        <time>2023-06-11T09:13:47Z</time>
      </trkpt>
      <trkpt lat="43.71565" lon="5.97378">
        <ele>360.3</ele>
        <time>2023-06-11T09:13:48Z</time>
      </trkpt>
      <trkpt lat="43.71566" lon="5.97377">
        <ele>360.3</ele>
        <time>2023-06-11T09:13:49Z</time>
      </trkpt>
      <trkpt lat="43.71567" lon="5.97376">
        <ele>360.3</ele>
        <time>2023-06-11T09:13:50Z</time>
      </trkpt>
      <trkpt lat="43.71569" lon="5.97375">
        <ele>360.3</ele>
        <time>2023-06-11T09:13:51Z</time>
      </trkpt>
      <trkpt lat="43.7157" lon="5.97374">
        <ele>360.3</ele>
        <time>2023-06-11T09:13:52Z</time>
      </trkpt>
      <trkpt lat="43.71571" lon="5.97374">
        <ele>360.3</ele>
        <time>2023-06-11T09:13:53Z</time>
      </trkpt>
      <trkpt lat="43.71572" lon="5.97373">
        <ele>360.2</ele>
        <time>2023-06-11T09:13:54Z</time>
      </trkpt>
      <trkpt lat="43.71574" lon="5.97372">
        <ele>360.1</ele>
        <time>2023-06-11T09:13:55Z</time>
      </trkpt>
      <trkpt lat="43.71575" lon="5.97371">
        <ele>360.1</ele>
        <time>2023-06-11T09:13:56Z</time>
      </trkpt>
      <trkpt lat="43.71576" lon="5.9737">
        <ele>360.2</ele>
        <time>2023-06-11T09:13:57Z</time>
      </trkpt>
      <trkpt lat="43.71577" lon="5.97369">
        <ele>360.2</ele>
        <time>2023-06-11T09:13:58Z</time>
      </trkpt>
      <trkpt lat="43.71578" lon="5.97368">
        <ele>360.2</ele>
        <time>2023-06-11T09:13:59Z</time>
      </trkpt>
      <trkpt lat="43.7158" lon="5.97367">
        <ele>360.2</ele>
        <time>2023-06-11T09:14:00Z</time>
      </trkpt>
      <trkpt lat="43.71581" lon="5.97367">
        <ele>360.3</ele>
        <time>2023-06-11T09:14:01Z</time>
      </trkpt>
      <trkpt lat="43.71582" lon="5.97366">
        <ele>360.4</ele>
        <time>2023-06-11T09:14:02Z</time>
      </trkpt>
      <trkpt lat="43.71583" lon="5.97365">
        <ele>360.4</ele>
        <time>2023-06-11T09:14:03Z</time>
      </trkpt>
      <trkpt lat="43.71585" lon="5.97364">
        <ele>360.5</ele>
        <time>2023-06-11T09:14:04Z</time>
      </trkpt>
      <trkpt lat="43.71586" lon="5.97363">
        <ele>360.5</ele>
        <time>2023-06-11T09:14:05Z</time>
      </trkpt>
      <trkpt lat="43.71587" lon="5.97362">
        <ele>360.5</ele>
        <time>2023-06-11T09:14:06Z</time>
      </trkpt>
      <trkpt lat="43.71588" lon="5.97361">
        <ele>360.5</ele>
        <time>2023-06-11T09:14:07Z</time>
      </trkpt>
      <trkpt lat="43.7159" lon="5.9736">
        <ele>360.6</ele>
        <time>2023-06-11T09:14:08Z</time>
      </trkpt>
      <trkpt lat="43.71591" lon="5.97359">
        <ele>360.4</ele>
        <time>2023-06-11T09:14:09Z</time>
      </trkpt>
      <trkpt lat="43.71592" lon="5.97359">
        <ele>360.4</ele>
        <time>2023-06-11T09:14:10Z</time>
      </trkpt>
      <trkpt lat="43.71594" lon="5.97358">
        <ele>360.4</ele>
        <time>2023-06-11T09:14:11Z</time>
      </trkpt>
      <trkpt lat="43.71595" lon="5.97357">
        <ele>360.3</ele>
        <time>2023-06-11T09:14:12Z</time>
      </trkpt>
      <trkpt lat="43.71596" lon="5.97356">
        <ele>360.2</ele>
        <time>2023-06-11T09:14:13Z</time>
      </trkpt>
      <trkpt lat="43.71597" lon="5.97355">
        <ele>360.2</ele>
        <time>2023-06-11T09:14:14Z</time>
      </trkpt>
      <trkpt lat="43.71599" lon="5.97354">
        <ele>360.2</ele>
        <time>2023-06-11T09:14:15Z</time>
      </trkpt>
      <trkpt lat="43.716" lon="5.97353">
        <ele>360.2</ele>
        <time>2023-06-11T09:14:16Z</time>
      </trkpt>
      <trkpt lat="43.71601" lon="5.97352">
        <ele>360.2</ele>
        <time>2023-06-11T09:14:17Z</time>
      </trkpt>
      <trkpt lat="43.71602" lon="5.97352">
        <ele>360.1</ele>
        <time>2023-06-11T09:14:18Z</time>
      </trkpt>
      <trkpt lat="43.71604" lon="5.97351">
        <ele>360.1</ele>
        <time>2023-06-11T09:14:19Z</time>
      </trkpt>
      <trkpt lat="43.71605" lon="5.9735">
        <ele>360.1</ele>
        <time>2023-06-11T09:14:20Z</time>
      </trkpt>
      <trkpt lat="43.71606" lon="5.97349">
        <ele>360.1</ele>
        <time>2023-06-11T09:14:21Z</time>
      </trkpt>
      <trkpt lat="43.71608" lon="5.97348">
        <ele>360</ele>
        <time>2023-06-11T09:14:22Z</time>
      </trkpt>
      <trkpt lat="43.71609" lon="5.97347">
        <ele>360</ele>
        <time>2023-06-11T09:14:23Z</time>
      </trkpt>
      <trkpt lat="43.7161" lon="5.97346">
        <ele>360</ele>
        <time>2023-06-11T09:14:24Z</time>
      </trkpt>
      <trkpt lat="43.71611" lon="5.97345">
        <ele>360</ele>
        <time>2023-06-11T09:14:25Z</time>
      </trkpt>
      <trkpt lat="43.71613" lon="5.97345">
        <ele>359.9</ele>
        <time>2023-06-11T09:14:26Z</time>
      </trkpt>
      <trkpt lat="43.71614" lon="5.97344">
        <ele>359.9</ele>
        <time>2023-06-11T09:14:27Z</time>
      </trkpt>
      <trkpt lat="43.71615" lon="5.97343">
        <ele>359.8</ele>
        <time>2023-06-11T09:14:28Z</time>
      </trkpt>
      <trkpt lat="43.71617" lon="5.97342">
        <ele>359.8</ele>
        <time>2023-06-11T09:14:29Z</time>
      </trkpt>
      <trkpt lat="43.71618" lon="5.97341">
        <ele>359.8</ele>
        <time>2023-06-11T09:14:30Z</time>
      </trkpt>
      <trkpt lat="43.71619" lon="5.9734">
        <ele>359.8</ele>
        <time>2023-06-11T09:14:31Z</time>
      </trkpt>
      <trkpt lat="43.7162" lon="5.97339">
        <ele>359.8</ele>
        <time>2023-06-11T09:14:32Z</time>
      </trkpt>
      <trkpt lat="43.71622" lon="5.97339">
        <ele>359.8</ele>
        <time>2023-06-11T09:14:33Z</time>
      </trkpt>
      <trkpt lat="43.71623" lon="5.97338">
        <ele>359.8</ele>
        <time>2023-06-11T09:14:34Z</time>
      </trkpt>
      <trkpt lat="43.71624" lon="5.97337">
        <ele>359.8</ele>
        <time>2023-06-11T09:14:35Z</time>
      </trkpt>
      <trkpt lat="43.71625" lon="5.97336">
        <ele>359.7</ele>
        <time>2023-06-11T09:14:36Z</time>
      </trkpt>
      <trkpt lat="43.71627" lon="5.97335">
        <ele>359.7</ele>
        <time>2023-06-11T09:14:37Z</time>
      </trkpt>
      <trkpt lat="43.71628" lon="5.97334">
        <ele>359.7</ele>
        <time>2023-06-11T09:14:38Z</time>
      </trkpt>
      <trkpt lat="43.71629" lon="5.97333">
        <ele>359.8</ele>
        <time>2023-06-11T09:14:39Z</time>
      </trkpt>
      <trkpt lat="43.71631" lon="5.97333">
        <ele>359.8</ele>
        <time>2023-06-11T09:14:40Z</time>
      </trkpt>
      <trkpt lat="43.71632" lon="5.97332">
        <ele>359.9</ele>
        <time>2023-06-11T09:14:41Z</time>
      </trkpt>
      <trkpt lat="43.71633" lon="5.97331">
        <ele>359.9</ele>
        <time>2023-06-11T09:14:42Z</time>
      </trkpt>
      <trkpt lat="43.71635" lon="5.9733">
        <ele>359.8</ele>
        <time>2023-06-11T09:14:43Z</time>
      </trkpt>
      <trkpt lat="43.71636" lon="5.97329">
        <ele>359.8</ele>
        <time>2023-06-11T09:14:44Z</time>
      </trkpt>
      <trkpt lat="43.71637" lon="5.97329">
        <ele>359.8</ele>
        <time>2023-06-11T09:14:45Z</time>
      </trkpt>
      <trkpt lat="43.71638" lon="5.97328">
        <ele>359.8</ele>
        <time>2023-06-11T09:14:46Z</time>
      </trkpt>
      <trkpt lat="43.7164" lon="5.97327">
        <ele>359.8</ele>
        <time>2023-06-11T09:14:47Z</time>
      </trkpt>
      <trkpt lat="43.71641" lon="5.97326">
        <ele>359.9</ele>
        <time>2023-06-11T09:14:48Z</time>
      </trkpt>
      <trkpt lat="43.71642" lon="5.97325">
        <ele>359.9</ele>
        <time>2023-06-11T09:14:49Z</time>
      </trkpt>
      <trkpt lat="43.71643" lon="5.97324">
        <ele>360</ele>
        <time>2023-06-11T09:14:50Z</time>
      </trkpt>
      <trkpt lat="43.71644" lon="5.97323">
        <ele>360.1</ele>
        <time>2023-06-11T09:14:51Z</time>
      </trkpt>
      <trkpt lat="43.71645" lon="5.97322">
        <ele>360.2</ele>
        <time>2023-06-11T09:14:52Z</time>
      </trkpt>
      <trkpt lat="43.71647" lon="5.97321">
        <ele>360.1</ele>
        <time>2023-06-11T09:14:53Z</time>
      </trkpt>
      <trkpt lat="43.71648" lon="5.9732">
        <ele>360.1</ele>
        <time>2023-06-11T09:14:54Z</time>
      </trkpt>
      <trkpt lat="43.71649" lon="5.97319">
        <ele>360.1</ele>
        <time>2023-06-11T09:14:55Z</time>
      </trkpt>
      <trkpt lat="43.7165" lon="5.97319">
        <ele>360.1</ele>
        <time>2023-06-11T09:14:56Z</time>
      </trkpt>
      <trkpt lat="43.71651" lon="5.97318">
        <ele>360.1</ele>
        <time>2023-06-11T09:14:57Z</time>
      </trkpt>
      <trkpt lat="43.71653" lon="5.97317">
        <ele>360.2</ele>
        <time>2023-06-11T09:14:58Z</time>
      </trkpt>
      <trkpt lat="43.71654" lon="5.97316">
        <ele>360.2</ele>
        <time>2023-06-11T09:14:59Z</time>
      </trkpt>
      <trkpt lat="43.71655" lon="5.97316">
        <ele>360.3</ele>
        <time>2023-06-11T09:15:00Z</time>
      </trkpt>
      <trkpt lat="43.71657" lon="5.97315">
        <ele>360.3</ele>
        <time>2023-06-11T09:15:01Z</time>
      </trkpt>
      <trkpt lat="43.71658" lon="5.97314">
        <ele>360.4</ele>
        <time>2023-06-11T09:15:02Z</time>
      </trkpt>
      <trkpt lat="43.71659" lon="5.97314">
        <ele>360.4</ele>
        <time>2023-06-11T09:15:03Z</time>
      </trkpt>
      <trkpt lat="43.7166" lon="5.97313">
        <ele>360.3</ele>
        <time>2023-06-11T09:15:04Z</time>
      </trkpt>
      <trkpt lat="43.71662" lon="5.97312">
        <ele>360.3</ele>
        <time>2023-06-11T09:15:05Z</time>
      </trkpt>
      <trkpt lat="43.71663" lon="5.97312">
        <ele>360.3</ele>
        <time>2023-06-11T09:15:06Z</time>
      </trkpt>
      <trkpt lat="43.71664" lon="5.97311">
        <ele>360.3</ele>
        <time>2023-06-11T09:15:07Z</time>
      </trkpt>
      <trkpt lat="43.71666" lon="5.9731">
        <ele>360.3</ele>
        <time>2023-06-11T09:15:08Z</time>
      </trkpt>
      <trkpt lat="43.71667" lon="5.9731">
        <ele>360.3</ele>
        <time>2023-06-11T09:15:09Z</time>
      </trkpt>
      <trkpt lat="43.71668" lon="5.97309">
        <ele>360.3</ele>
        <time>2023-06-11T09:15:10Z</time>
      </trkpt>
      <trkpt lat="43.71669" lon="5.97308">
        <ele>360.4</ele>
        <time>2023-06-11T09:15:11Z</time>
      </trkpt>
      <trkpt lat="43.7167" lon="5.97308">
        <ele>360.4</ele>
        <time>2023-06-11T09:15:12Z</time>
      </trkpt>
      <trkpt lat="43.71671" lon="5.97307">
        <ele>360.3</ele>
        <time>2023-06-11T09:15:13Z</time>
      </trkpt>
      <trkpt lat="43.71672" lon="5.97306">
        <ele>360.2</ele>
        <time>2023-06-11T09:15:14Z</time>
      </trkpt>
      <trkpt lat="43.71673" lon="5.97305">
        <ele>360.1</ele>
        <time>2023-06-11T09:15:15Z</time>
      </trkpt>
      <trkpt lat="43.71673" lon="5.97305">
        <ele>360.1</ele>
        <time>2023-06-11T09:15:16Z</time>
      </trkpt>
      <trkpt lat="43.71674" lon="5.97304">
        <ele>360.1</ele>
        <time>2023-06-11T09:15:17Z</time>
      </trkpt>
      <trkpt lat="43.71675" lon="5.97304">
        <ele>360.1</ele>
        <time>2023-06-11T09:15:18Z</time>
      </trkpt>
      <trkpt lat="43.71675" lon="5.97304">
        <ele>360.1</ele>
        <time>2023-06-11T09:15:19Z</time>
      </trkpt>
      <trkpt lat="43.71676" lon="5.97303">
        <ele>360.1</ele>
        <time>2023-06-11T09:15:20Z</time>
      </trkpt>
      <trkpt lat="43.71677" lon="5.97303">
        <ele>360</ele>
        <time>2023-06-11T09:15:21Z</time>
      </trkpt>
      <trkpt lat="43.71677" lon="5.97302">
        <ele>359.9</ele>
        <time>2023-06-11T09:15:22Z</time>
      </trkpt>
      <trkpt lat="43.71678" lon="5.97302">
        <ele>359.9</ele>
        <time>2023-06-11T09:15:23Z</time>
      </trkpt>
      <trkpt lat="43.71678" lon="5.97301">
        <ele>360</ele>
        <time>2023-06-11T09:15:24Z</time>
      </trkpt>
      <trkpt lat="43.71678" lon="5.97301">
        <ele>360.1</ele>
        <time>2023-06-11T09:15:25Z</time>
      </trkpt>
      <trkpt lat="43.71679" lon="5.97301">
        <ele>360.2</ele>
        <time>2023-06-11T09:15:26Z</time>
      </trkpt>
      <trkpt lat="43.71679" lon="5.97301">
        <ele>360.3</ele>
        <time>2023-06-11T09:15:27Z</time>
      </trkpt>
      <trkpt lat="43.7168" lon="5.97301">
        <ele>360.3</ele>
        <time>2023-06-11T09:15:28Z</time>
      </trkpt>
      <trkpt lat="43.7168" lon="5.973">
        <ele>360.4</ele>
        <time>2023-06-11T09:15:29Z</time>
      </trkpt>
      <trkpt lat="43.71681" lon="5.973">
        <ele>360.3</ele>
        <time>2023-06-11T09:15:30Z</time>
      </trkpt>
      <trkpt lat="43.71681" lon="5.973">
        <ele>360.4</ele>
        <time>2023-06-11T09:15:31Z</time>
      </trkpt>
      <trkpt lat="43.71682" lon="5.97299">
        <ele>360.4</ele>
        <time>2023-06-11T09:15:32Z</time>
      </trkpt>
      <trkpt lat="43.71682" lon="5.97299">
        <ele>360.4</ele>
        <time>2023-06-11T09:15:33Z</time>
      </trkpt>
      <trkpt lat="43.71683" lon="5.97298">
        <ele>360.5</ele>
        <time>2023-06-11T09:15:34Z</time>
      </trkpt>
      <trkpt lat="43.71684" lon="5.97298">
        <ele>360.4</ele>
        <time>2023-06-11T09:15:35Z</time>
      </trkpt>
      <trkpt lat="43.71684" lon="5.97298">
        <ele>360.3</ele>
        <time>2023-06-11T09:15:36Z</time>
      </trkpt>
      <trkpt lat="43.71685" lon="5.97297">
        <ele>360.3</ele>
        <time>2023-06-11T09:15:37Z</time>
      </trkpt>
      <trkpt lat="43.71686" lon="5.97296">
        <ele>360.2</ele>
        <time>2023-06-11T09:15:38Z</time>
      </trkpt>
      <trkpt lat="43.71686" lon="5.97296">
        <ele>360.2</ele>
        <time>2023-06-11T09:15:39Z</time>
      </trkpt>
      <trkpt lat="43.71687" lon="5.97296">
        <ele>360.2</ele>
        <time>2023-06-11T09:15:40Z</time>
      </trkpt>
      <trkpt lat="43.71687" lon="5.97295">
        <ele>360.2</ele>
        <time>2023-06-11T09:15:41Z</time>
      </trkpt>
      <trkpt lat="43.71688" lon="5.97295">
        <ele>360.2</ele>
        <time>2023-06-11T09:15:42Z</time>
      </trkpt>
      <trkpt lat="43.71688" lon="5.97295">
        <ele>360.3</ele>
        <time>2023-06-11T09:15:43Z</time>
      </trkpt>
      <trkpt lat="43.71688" lon="5.97295">
        <ele>360.3</ele>
        <time>2023-06-11T09:15:44Z</time>
      </trkpt>
      <trkpt lat="43.71688" lon="5.97295">
        <ele>360.3</ele>
        <time>2023-06-11T09:15:45Z</time>
      </trkpt>
      <trkpt lat="43.71688" lon="5.97295">
        <ele>360.4</ele>
        <time>2023-06-11T09:15:46Z</time>
      </trkpt>
      <trkpt lat="43.71688" lon="5.97295">
        <ele>360.4</ele>
        <time>2023-06-11T09:15:47Z</time>
      </trkpt>
      <trkpt lat="43.71688" lon="5.97295">
        <ele>360.4</ele>
        <time>2023-06-11T09:15:48Z</time>
      </trkpt>
      <trkpt lat="43.71688" lon="5.97296">
        <ele>360.4</ele>
        <time>2023-06-11T09:15:49Z</time>
      </trkpt>
      <trkpt lat="43.71688" lon="5.97296">
        <ele>360.4</ele>
        <time>2023-06-11T09:15:50Z</time>
      </trkpt>
      <trkpt lat="43.71689" lon="5.97295">
        <ele>360.3</ele>
        <time>2023-06-11T09:15:51Z</time>
      </trkpt>
      <trkpt lat="43.71689" lon="5.97295">
        <ele>360.3</ele>
        <time>2023-06-11T09:15:52Z</time>
      </trkpt>
      <trkpt lat="43.7169" lon="5.97294">
        <ele>360.3</ele>
        <time>2023-06-11T09:15:53Z</time>
      </trkpt>
      <trkpt lat="43.7169" lon="5.97294">
        <ele>360.2</ele>
        <time>2023-06-11T09:15:54Z</time>
      </trkpt>
      <trkpt lat="43.7169" lon="5.97294">
        <ele>360.2</ele>
        <time>2023-06-11T09:15:55Z</time>
      </trkpt>
      <trkpt lat="43.71691" lon="5.97294">
        <ele>360.2</ele>
        <time>2023-06-11T09:15:56Z</time>
      </trkpt>
      <trkpt lat="43.71691" lon="5.97294">
        <ele>360.2</ele>
        <time>2023-06-11T09:15:57Z</time>
      </trkpt>
      <trkpt lat="43.71691" lon="5.97294">
        <ele>360.1</ele>
        <time>2023-06-11T09:15:58Z</time>
      </trkpt>
      <trkpt lat="43.71692" lon="5.97294">
        <ele>360.2</ele>
        <time>2023-06-11T09:15:59Z</time>
      </trkpt>
      <trkpt lat="43.71692" lon="5.97293">
        <ele>360.2</ele>
        <time>2023-06-11T09:16:00Z</time>
      </trkpt>
      <trkpt lat="43.71692" lon="5.97293">
        <ele>360.2</ele>
        <time>2023-06-11T09:16:01Z</time>
      </trkpt>
      <trkpt lat="43.71693" lon="5.97293">
        <ele>360.1</ele>
        <time>2023-06-11T09:16:02Z</time>
      </trkpt>
      <trkpt lat="43.71693" lon="5.97293">
        <ele>360.2</ele>
        <time>2023-06-11T09:16:03Z</time>
      </trkpt>
      <trkpt lat="43.71694" lon="5.97293">
        <ele>360.1</ele>
        <time>2023-06-11T09:16:04Z</time>
      </trkpt>
      <trkpt lat="43.71694" lon="5.97292">
        <ele>360.2</ele>
        <time>2023-06-11T09:16:05Z</time>
      </trkpt>
      <trkpt lat="43.71694" lon="5.97292">
        <ele>360.2</ele>
        <time>2023-06-11T09:16:06Z</time>
      </trkpt>
      <trkpt lat="43.71694" lon="5.97292">
        <ele>360.1</ele>
        <time>2023-06-11T09:16:07Z</time>
      </trkpt>
      <trkpt lat="43.71694" lon="5.97292">
        <ele>360.2</ele>
        <time>2023-06-11T09:16:08Z</time>
      </trkpt>
      <trkpt lat="43.71694" lon="5.97292">
        <ele>360.2</ele>
        <time>2023-06-11T09:16:09Z</time>
      </trkpt>
      <trkpt lat="43.71695" lon="5.97291">
        <ele>360.2</ele>
        <time>2023-06-11T09:16:10Z</time>
      </trkpt>
      <trkpt lat="43.71695" lon="5.97291">
        <ele>360.3</ele>
        <time>2023-06-11T09:16:11Z</time>
      </trkpt>
      <trkpt lat="43.71695" lon="5.97291">
        <ele>360.3</ele>
        <time>2023-06-11T09:16:12Z</time>
      </trkpt>
      <trkpt lat="43.71695" lon="5.97291">
        <ele>360.3</ele>
        <time>2023-06-11T09:16:13Z</time>
      </trkpt>
      <trkpt lat="43.71696" lon="5.9729">
        <ele>360.3</ele>
        <time>2023-06-11T09:16:14Z</time>
      </trkpt>
      <trkpt lat="43.71696" lon="5.9729">
        <ele>360.3</ele>
        <time>2023-06-11T09:16:15Z</time>
      </trkpt>
      <trkpt lat="43.71697" lon="5.9729">
        <ele>360.3</ele>
        <time>2023-06-11T09:16:16Z</time>
      </trkpt>
      <trkpt lat="43.71697" lon="5.97289">
        <ele>360.3</ele>
        <time>2023-06-11T09:16:17Z</time>
      </trkpt>
      <trkpt lat="43.71697" lon="5.97289">
        <ele>360.3</ele>
        <time>2023-06-11T09:16:18Z</time>
      </trkpt>
      <trkpt lat="43.71698" lon="5.97288">
        <ele>360.3</ele>
        <time>2023-06-11T09:16:19Z</time>
      </trkpt>
      <trkpt lat="43.71698" lon="5.97288">
        <ele>360.2</ele>
        <time>2023-06-11T09:16:20Z</time>
      </trkpt>
      <trkpt lat="43.71698" lon="5.97288">
        <ele>360.2</ele>
        <time>2023-06-11T09:16:21Z</time>
      </trkpt>
      <trkpt lat="43.71699" lon="5.97288">
        <ele>360.1</ele>
        <time>2023-06-11T09:16:22Z</time>
      </trkpt>
      <trkpt lat="43.71698" lon="5.97288">
        <ele>360</ele>
        <time>2023-06-11T09:16:23Z</time>
      </trkpt>
      <trkpt lat="43.71699" lon="5.97288">
        <ele>360</ele>
        <time>2023-06-11T09:16:24Z</time>
      </trkpt>
      <trkpt lat="43.71699" lon="5.97288">
        <ele>360.1</ele>
        <time>2023-06-11T09:16:25Z</time>
      </trkpt>
      <trkpt lat="43.71699" lon="5.97287">
        <ele>360.1</ele>
        <time>2023-06-11T09:16:26Z</time>
      </trkpt>
      <trkpt lat="43.71698" lon="5.97287">
        <ele>360.1</ele>
        <time>2023-06-11T09:16:27Z</time>
      </trkpt>
      <trkpt lat="43.71698" lon="5.97287">
        <ele>360.1</ele>
        <time>2023-06-11T09:16:28Z</time>
      </trkpt>
      <trkpt lat="43.71698" lon="5.97287">
        <ele>360.1</ele>
        <time>2023-06-11T09:16:29Z</time>
      </trkpt>
      <trkpt lat="43.71697" lon="5.97287">
        <ele>360.1</ele>
        <time>2023-06-11T09:16:30Z</time>
      </trkpt>
      <trkpt lat="43.71697" lon="5.97288">
        <ele>360.1</ele>
        <time>2023-06-11T09:16:31Z</time>
      </trkpt>
      <trkpt lat="43.71696" lon="5.97288">
        <ele>360.1</ele>
        <time>2023-06-11T09:16:32Z</time>
      </trkpt>
      <trkpt lat="43.71696" lon="5.97288">
        <ele>360.1</ele>
        <time>2023-06-11T09:16:33Z</time>
      </trkpt>
      <trkpt lat="43.71695" lon="5.97288">
        <ele>360.2</ele>
        <time>2023-06-11T09:16:34Z</time>
      </trkpt>
      <trkpt lat="43.71695" lon="5.97288">
        <ele>360</ele>
        <time>2023-06-11T09:16:35Z</time>
      </trkpt>
      <trkpt lat="43.71695" lon="5.97289">
        <ele>360.1</ele>
        <time>2023-06-11T09:16:36Z</time>
      </trkpt>
      <trkpt lat="43.71694" lon="5.97289">
        <ele>359.9</ele>
        <time>2023-06-11T09:16:37Z</time>
      </trkpt>
      <trkpt lat="43.71694" lon="5.97289">
        <ele>360</ele>
        <time>2023-06-11T09:16:38Z</time>
      </trkpt>
      <trkpt lat="43.71694" lon="5.97289">
        <ele>360.1</ele>
        <time>2023-06-11T09:16:39Z</time>
      </trkpt>
      <trkpt lat="43.71693" lon="5.97289">
        <ele>360.1</ele>
        <time>2023-06-11T09:16:40Z</time>
      </trkpt>
      <trkpt lat="43.71693" lon="5.9729">
        <ele>360</ele>
        <time>2023-06-11T09:16:41Z</time>
      </trkpt>
      <trkpt lat="43.71692" lon="5.9729">
        <ele>360</ele>
        <time>2023-06-11T09:16:42Z</time>
      </trkpt>
      <trkpt lat="43.71692" lon="5.9729">
        <ele>359.9</ele>
        <time>2023-06-11T09:16:43Z</time>
      </trkpt>
      <trkpt lat="43.71692" lon="5.9729">
        <ele>359.9</ele>
        <time>2023-06-11T09:16:44Z</time>
      </trkpt>
      <trkpt lat="43.71691" lon="5.9729">
        <ele>359.8</ele>
        <time>2023-06-11T09:16:45Z</time>
      </trkpt>
      <trkpt lat="43.71691" lon="5.97291">
        <ele>359.9</ele>
        <time>2023-06-11T09:16:46Z</time>
      </trkpt>
      <trkpt lat="43.71691" lon="5.97291">
        <ele>359.8</ele>
        <time>2023-06-11T09:16:47Z</time>
      </trkpt>
      <trkpt lat="43.71691" lon="5.9729">
        <ele>359.9</ele>
        <time>2023-06-11T09:16:48Z</time>
      </trkpt>
      <trkpt lat="43.7169" lon="5.9729">
        <ele>359.9</ele>
        <time>2023-06-11T09:16:49Z</time>
      </trkpt>
      <trkpt lat="43.7169" lon="5.9729">
        <ele>359.9</ele>
        <time>2023-06-11T09:16:50Z</time>
      </trkpt>
      <trkpt lat="43.71691" lon="5.9729">
        <ele>360</ele>
        <time>2023-06-11T09:16:51Z</time>
      </trkpt>
      <trkpt lat="43.71691" lon="5.97289">
        <ele>360</ele>
        <time>2023-06-11T09:16:52Z</time>
      </trkpt>
      <trkpt lat="43.71691" lon="5.97289">
        <ele>359.9</ele>
        <time>2023-06-11T09:16:53Z</time>
      </trkpt>
      <trkpt lat="43.71692" lon="5.97288">
        <ele>360</ele>
        <time>2023-06-11T09:16:54Z</time>
      </trkpt>
      <trkpt lat="43.71692" lon="5.97288">
        <ele>360</ele>
        <time>2023-06-11T09:16:55Z</time>
      </trkpt>
      <trkpt lat="43.71693" lon="5.97287">
        <ele>360</ele>
        <time>2023-06-11T09:16:56Z</time>
      </trkpt>
      <trkpt lat="43.71693" lon="5.97286">
        <ele>360</ele>
        <time>2023-06-11T09:16:57Z</time>
      </trkpt>
      <trkpt lat="43.71694" lon="5.97286">
        <ele>360</ele>
        <time>2023-06-11T09:16:58Z</time>
      </trkpt>
      <trkpt lat="43.71695" lon="5.97285">
        <ele>360.1</ele>
        <time>2023-06-11T09:16:59Z</time>
      </trkpt>
      <trkpt lat="43.71696" lon="5.97284">
        <ele>360</ele>
        <time>2023-06-11T09:17:00Z</time>
      </trkpt>
      <trkpt lat="43.71696" lon="5.97283">
        <ele>360</ele>
        <time>2023-06-11T09:17:01Z</time>
      </trkpt>
      <trkpt lat="43.71697" lon="5.97282">
        <ele>360.1</ele>
        <time>2023-06-11T09:17:02Z</time>
      </trkpt>
      <trkpt lat="43.71698" lon="5.97282">
        <ele>360.1</ele>
        <time>2023-06-11T09:17:03Z</time>
      </trkpt>
      <trkpt lat="43.71698" lon="5.97281">
        <ele>360.2</ele>
        <time>2023-06-11T09:17:04Z</time>
      </trkpt>
      <trkpt lat="43.71699" lon="5.97281">
        <ele>360.1</ele>
        <time>2023-06-11T09:17:05Z</time>
      </trkpt>
      <trkpt lat="43.71699" lon="5.9728">
        <ele>360</ele>
        <time>2023-06-11T09:17:06Z</time>
      </trkpt>
      <trkpt lat="43.71699" lon="5.9728">
        <ele>360</ele>
        <time>2023-06-11T09:17:07Z</time>
      </trkpt>
      <trkpt lat="43.717" lon="5.9728">
        <ele>360</ele>
        <time>2023-06-11T09:17:08Z</time>
      </trkpt>
      <trkpt lat="43.717" lon="5.97279">
        <ele>360</ele>
        <time>2023-06-11T09:17:09Z</time>
      </trkpt>
      <trkpt lat="43.717" lon="5.97279">
        <ele>360</ele>
        <time>2023-06-11T09:17:10Z</time>
      </trkpt>
      <trkpt lat="43.717" lon="5.97279">
        <ele>360</ele>
        <time>2023-06-11T09:17:11Z</time>
      </trkpt>
      <trkpt lat="43.717" lon="5.97279">
        <ele>360</ele>
        <time>2023-06-11T09:17:12Z</time>
      </trkpt>
      <trkpt lat="43.717" lon="5.97279">
        <ele>360</ele>
        <time>2023-06-11T09:17:13Z</time>
      </trkpt>
      <trkpt lat="43.717" lon="5.97279">
        <ele>360</ele>
        <time>2023-06-11T09:17:14Z</time>
      </trkpt>
      <trkpt lat="43.717" lon="5.97279">
        <ele>360</ele>
        <time>2023-06-11T09:17:15Z</time>
      </trkpt>
      <trkpt lat="43.717" lon="5.97279">
        <ele>360</ele>
        <time>2023-06-11T09:17:16Z</time>
      </trkpt>
      <trkpt lat="43.717" lon="5.97279">
        <ele>360</ele>
        <time>2023-06-11T09:17:17Z</time>
      </trkpt>
      <trkpt lat="43.717" lon="5.97279">
        <ele>360.1</ele>
        <time>2023-06-11T09:17:18Z</time>
      </trkpt>
      <trkpt lat="43.717" lon="5.9728">
        <ele>360.1</ele>
        <time>2023-06-11T09:17:19Z</time>
      </trkpt>
      <trkpt lat="43.71699" lon="5.9728">
        <ele>360.2</ele>
        <time>2023-06-11T09:17:20Z</time>
      </trkpt>
      <trkpt lat="43.71699" lon="5.9728">
        <ele>360.2</ele>
        <time>2023-06-11T09:17:21Z</time>
      </trkpt>
      <trkpt lat="43.71699" lon="5.9728">
        <ele>360.2</ele>
        <time>2023-06-11T09:17:22Z</time>
      </trkpt>
      <trkpt lat="43.71698" lon="5.9728">
        <ele>360.2</ele>
        <time>2023-06-11T09:17:23Z</time>
      </trkpt>
      <trkpt lat="43.71698" lon="5.97281">
        <ele>360.2</ele>
        <time>2023-06-11T09:17:24Z</time>
      </trkpt>
      <trkpt lat="43.71697" lon="5.97281">
        <ele>360.3</ele>
        <time>2023-06-11T09:17:25Z</time>
      </trkpt>
      <trkpt lat="43.71697" lon="5.97281">
        <ele>360.3</ele>
        <time>2023-06-11T09:17:26Z</time>
      </trkpt>
      <trkpt lat="43.71696" lon="5.97282">
        <ele>360.3</ele>
        <time>2023-06-11T09:17:27Z</time>
      </trkpt>
      <trkpt lat="43.71696" lon="5.97282">
        <ele>360.3</ele>
        <time>2023-06-11T09:17:28Z</time>
      </trkpt>
      <trkpt lat="43.71695" lon="5.97282">
        <ele>360.3</ele>
        <time>2023-06-11T09:17:29Z</time>
      </trkpt>
      <trkpt lat="43.71694" lon="5.97282">
        <ele>360.2</ele>
        <time>2023-06-11T09:17:30Z</time>
      </trkpt>
      <trkpt lat="43.71694" lon="5.97282">
        <ele>360.1</ele>
        <time>2023-06-11T09:17:31Z</time>
      </trkpt>
      <trkpt lat="43.71693" lon="5.97282">
        <ele>360.2</ele>
        <time>2023-06-11T09:17:32Z</time>
      </trkpt>
      <trkpt lat="43.71693" lon="5.97282">
        <ele>360.2</ele>
        <time>2023-06-11T09:17:33Z</time>
      </trkpt>
      <trkpt lat="43.71692" lon="5.97282">
        <ele>360.2</ele>
        <time>2023-06-11T09:17:34Z</time>
      </trkpt>
      <trkpt lat="43.71692" lon="5.97282">
        <ele>360.2</ele>
        <time>2023-06-11T09:17:35Z</time>
      </trkpt>
      <trkpt lat="43.71692" lon="5.97282">
        <ele>360.2</ele>
        <time>2023-06-11T09:17:36Z</time>
      </trkpt>
      <trkpt lat="43.71692" lon="5.97282">
        <ele>360.2</ele>
        <time>2023-06-11T09:17:37Z</time>
      </trkpt>
      <trkpt lat="43.71692" lon="5.97282">
        <ele>360.1</ele>
        <time>2023-06-11T09:17:38Z</time>
      </trkpt>
      <trkpt lat="43.71692" lon="5.97282">
        <ele>360.1</ele>
        <time>2023-06-11T09:17:39Z</time>
      </trkpt>
      <trkpt lat="43.71692" lon="5.97281">
        <ele>360</ele>
        <time>2023-06-11T09:17:40Z</time>
      </trkpt>
      <trkpt lat="43.71693" lon="5.97281">
        <ele>360</ele>
        <time>2023-06-11T09:17:41Z</time>
      </trkpt>
      <trkpt lat="43.71693" lon="5.97281">
        <ele>360</ele>
        <time>2023-06-11T09:17:42Z</time>
      </trkpt>
      <trkpt lat="43.71694" lon="5.97281">
        <ele>359.9</ele>
        <time>2023-06-11T09:17:43Z</time>
      </trkpt>
      <trkpt lat="43.71694" lon="5.97281">
        <ele>359.9</ele>
        <time>2023-06-11T09:17:44Z</time>
      </trkpt>
      <trkpt lat="43.71695" lon="5.9728">
        <ele>359.9</ele>
        <time>2023-06-11T09:17:45Z</time>
      </trkpt>
      <trkpt lat="43.71695" lon="5.9728">
        <ele>359.9</ele>
        <time>2023-06-11T09:17:46Z</time>
      </trkpt>
      <trkpt lat="43.71696" lon="5.9728">
        <ele>360</ele>
        <time>2023-06-11T09:17:47Z</time>
      </trkpt>
      <trkpt lat="43.71696" lon="5.97279">
        <ele>360.1</ele>
        <time>2023-06-11T09:17:48Z</time>
      </trkpt>
      <trkpt lat="43.71697" lon="5.97279">
        <ele>360</ele>
        <time>2023-06-11T09:17:49Z</time>
      </trkpt>
      <trkpt lat="43.71697" lon="5.97278">
        <ele>360</ele>
        <time>2023-06-11T09:17:50Z</time>
      </trkpt>
      <trkpt lat="43.71698" lon="5.97278">
        <ele>360.1</ele>
        <time>2023-06-11T09:17:51Z</time>
      </trkpt>
      <trkpt lat="43.71699" lon="5.97278">
        <ele>360.1</ele>
        <time>2023-06-11T09:17:52Z</time>
      </trkpt>
      <trkpt lat="43.71699" lon="5.97278">
        <ele>360.1</ele>
        <time>2023-06-11T09:17:53Z</time>
      </trkpt>
      <trkpt lat="43.717" lon="5.97278">
        <ele>360.1</ele>
        <time>2023-06-11T09:17:54Z</time>
      </trkpt>
      <trkpt lat="43.717" lon="5.97278">
        <ele>360.2</ele>
        <time>2023-06-11T09:17:55Z</time>
      </trkpt>
      <trkpt lat="43.71701" lon="5.97277">
        <ele>360.1</ele>
        <time>2023-06-11T09:17:56Z</time>
      </trkpt>
      <trkpt lat="43.71702" lon="5.97277">
        <ele>360.1</ele>
        <time>2023-06-11T09:17:57Z</time>
      </trkpt>
      <trkpt lat="43.71702" lon="5.97276">
        <ele>360</ele>
        <time>2023-06-11T09:17:58Z</time>
      </trkpt>
      <trkpt lat="43.71703" lon="5.97276">
        <ele>360</ele>
        <time>2023-06-11T09:17:59Z</time>
      </trkpt>
      <trkpt lat="43.71704" lon="5.97275">
        <ele>360</ele>
        <time>2023-06-11T09:18:00Z</time>
      </trkpt>
      <trkpt lat="43.71704" lon="5.97274">
        <ele>360.1</ele>
        <time>2023-06-11T09:18:01Z</time>
      </trkpt>
      <trkpt lat="43.71705" lon="5.97274">
        <ele>360.1</ele>
        <time>2023-06-11T09:18:02Z</time>
      </trkpt>
      <trkpt lat="43.71705" lon="5.97273">
        <ele>360.1</ele>
        <time>2023-06-11T09:18:03Z</time>
      </trkpt>
      <trkpt lat="43.71706" lon="5.97273">
        <ele>360.1</ele>
        <time>2023-06-11T09:18:04Z</time>
      </trkpt>
      <trkpt lat="43.71706" lon="5.97272">
        <ele>360</ele>
        <time>2023-06-11T09:18:05Z</time>
      </trkpt>
      <trkpt lat="43.71707" lon="5.97271">
        <ele>360</ele>
        <time>2023-06-11T09:18:06Z</time>
      </trkpt>
      <trkpt lat="43.71707" lon="5.97271">
        <ele>359.9</ele>
        <time>2023-06-11T09:18:07Z</time>
      </trkpt>
      <trkpt lat="43.71708" lon="5.9727">
        <ele>359.9</ele>
        <time>2023-06-11T09:18:08Z</time>
      </trkpt>
      <trkpt lat="43.71708" lon="5.9727">
        <ele>359.8</ele>
        <time>2023-06-11T09:18:09Z</time>
      </trkpt>
      <trkpt lat="43.71709" lon="5.97269">
        <ele>359.8</ele>
        <time>2023-06-11T09:18:10Z</time>
      </trkpt>
      <trkpt lat="43.71709" lon="5.97269">
        <ele>359.8</ele>
        <time>2023-06-11T09:18:11Z</time>
      </trkpt>
      <trkpt lat="43.7171" lon="5.97268">
        <ele>359.8</ele>
        <time>2023-06-11T09:18:12Z</time>
      </trkpt>
      <trkpt lat="43.7171" lon="5.97268">
        <ele>359.8</ele>
        <time>2023-06-11T09:18:13Z</time>
      </trkpt>
      <trkpt lat="43.71711" lon="5.97268">
        <ele>359.7</ele>
        <time>2023-06-11T09:18:14Z</time>
      </trkpt>
      <trkpt lat="43.71711" lon="5.97267">
        <ele>359.7</ele>
        <time>2023-06-11T09:18:15Z</time>
      </trkpt>
      <trkpt lat="43.71711" lon="5.97267">
        <ele>359.7</ele>
        <time>2023-06-11T09:18:16Z</time>
      </trkpt>
      <trkpt lat="43.71711" lon="5.97266">
        <ele>359.6</ele>
        <time>2023-06-11T09:18:17Z</time>
      </trkpt>
      <trkpt lat="43.71712" lon="5.97266">
        <ele>359.7</ele>
        <time>2023-06-11T09:18:18Z</time>
      </trkpt>
      <trkpt lat="43.71712" lon="5.97266">
        <ele>359.7</ele>
        <time>2023-06-11T09:18:19Z</time>
      </trkpt>
      <trkpt lat="43.71712" lon="5.97265">
        <ele>359.7</ele>
        <time>2023-06-11T09:18:20Z</time>
      </trkpt>
      <trkpt lat="43.71712" lon="5.97265">
        <ele>359.7</ele>
        <time>2023-06-11T09:18:21Z</time>
      </trkpt>
      <trkpt lat="43.71713" lon="5.97265">
        <ele>359.7</ele>
        <time>2023-06-11T09:18:22Z</time>
      </trkpt>
      <trkpt lat="43.71713" lon="5.97265">
        <ele>359.7</ele>
        <time>2023-06-11T09:18:23Z</time>
      </trkpt>
      <trkpt lat="43.71713" lon="5.97265">
        <ele>359.7</ele>
        <time>2023-06-11T09:18:24Z</time>
      </trkpt>
      <trkpt lat="43.71713" lon="5.97265">
        <ele>359.7</ele>
        <time>2023-06-11T09:18:25Z</time>
      </trkpt>
      <trkpt lat="43.71713" lon="5.97265">
        <ele>359.6</ele>
        <time>2023-06-11T09:18:26Z</time>
      </trkpt>
      <trkpt lat="43.71714" lon="5.97264">
        <ele>359.6</ele>
        <time>2023-06-11T09:18:27Z</time>
      </trkpt>
      <trkpt lat="43.71714" lon="5.97264">
        <ele>359.6</ele>
        <time>2023-06-11T09:18:28Z</time>
      </trkpt>
      <trkpt lat="43.71714" lon="5.97264">
        <ele>359.7</ele>
        <time>2023-06-11T09:18:29Z</time>
      </trkpt>
      <trkpt lat="43.71714" lon="5.97264">
        <ele>359.7</ele>
        <time>2023-06-11T09:18:30Z</time>
      </trkpt>
      <trkpt lat="43.71715" lon="5.97264">
        <ele>359.8</ele>
        <time>2023-06-11T09:18:31Z</time>
      </trkpt>
      <trkpt lat="43.71715" lon="5.97264">
        <ele>359.8</ele>
        <time>2023-06-11T09:18:32Z</time>
      </trkpt>
      <trkpt lat="43.71715" lon="5.97263">
        <ele>359.8</ele>
        <time>2023-06-11T09:18:33Z</time>
      </trkpt>
      <trkpt lat="43.71715" lon="5.97263">
        <ele>359.9</ele>
        <time>2023-06-11T09:18:34Z</time>
      </trkpt>
      <trkpt lat="43.71716" lon="5.97263">
        <ele>359.8</ele>
        <time>2023-06-11T09:18:35Z</time>
      </trkpt>
      <trkpt lat="43.71716" lon="5.97263">
        <ele>359.8</ele>
        <time>2023-06-11T09:18:36Z</time>
      </trkpt>
      <trkpt lat="43.71716" lon="5.97263">
        <ele>359.8</ele>
        <time>2023-06-11T09:18:37Z</time>
      </trkpt>
      <trkpt lat="43.71716" lon="5.97262">
        <ele>359.7</ele>
        <time>2023-06-11T09:18:38Z</time>
      </trkpt>
      <trkpt lat="43.71716" lon="5.97262">
        <ele>359.7</ele>
        <time>2023-06-11T09:18:39Z</time>
      </trkpt>
      <trkpt lat="43.71717" lon="5.97262">
        <ele>359.7</ele>
        <time>2023-06-11T09:18:40Z</time>
      </trkpt>
      <trkpt lat="43.71717" lon="5.97262">
        <ele>359.7</ele>
        <time>2023-06-11T09:18:41Z</time>
      </trkpt>
      <trkpt lat="43.71717" lon="5.97262">
        <ele>359.6</ele>
        <time>2023-06-11T09:18:42Z</time>
      </trkpt>
      <trkpt lat="43.71717" lon="5.97262">
        <ele>359.5</ele>
        <time>2023-06-11T09:18:43Z</time>
      </trkpt>
      <trkpt lat="43.71717" lon="5.97262">
        <ele>359.5</ele>
        <time>2023-06-11T09:18:44Z</time>
      </trkpt>
      <trkpt lat="43.71718" lon="5.97262">
        <ele>359.6</ele>
        <time>2023-06-11T09:18:45Z</time>
      </trkpt>
      <trkpt lat="43.71718" lon="5.97261">
        <ele>359.6</ele>
        <time>2023-06-11T09:18:46Z</time>
      </trkpt>
      <trkpt lat="43.71718" lon="5.97261">
        <ele>359.7</ele>
        <time>2023-06-11T09:18:47Z</time>
      </trkpt>
      <trkpt lat="43.71718" lon="5.97261">
        <ele>359.7</ele>
        <time>2023-06-11T09:18:48Z</time>
      </trkpt>
      <trkpt lat="43.71718" lon="5.97261">
        <ele>359.7</ele>
        <time>2023-06-11T09:18:49Z</time>
      </trkpt>
      <trkpt lat="43.71718" lon="5.97261">
        <ele>359.7</ele>
        <time>2023-06-11T09:18:50Z</time>
      </trkpt>
      <trkpt lat="43.71719" lon="5.97261">
        <ele>359.7</ele>
        <time>2023-06-11T09:18:51Z</time>
      </trkpt>
      <trkpt lat="43.71719" lon="5.97261">
        <ele>359.7</ele>
        <time>2023-06-11T09:18:52Z</time>
      </trkpt>
      <trkpt lat="43.71719" lon="5.9726">
        <ele>359.7</ele>
        <time>2023-06-11T09:18:53Z</time>
      </trkpt>
      <trkpt lat="43.71719" lon="5.9726">
        <ele>359.6</ele>
        <time>2023-06-11T09:18:54Z</time>
      </trkpt>
      <trkpt lat="43.7172" lon="5.9726">
        <ele>359.6</ele>
        <time>2023-06-11T09:18:55Z</time>
      </trkpt>
      <trkpt lat="43.71721" lon="5.9726">
        <ele>359.6</ele>
        <time>2023-06-11T09:18:56Z</time>
      </trkpt>
      <trkpt lat="43.71721" lon="5.97259">
        <ele>359.6</ele>
        <time>2023-06-11T09:18:57Z</time>
      </trkpt>
      <trkpt lat="43.71722" lon="5.97258">
        <ele>359.6</ele>
        <time>2023-06-11T09:18:58Z</time>
      </trkpt>
      <trkpt lat="43.71722" lon="5.97258">
        <ele>359.7</ele>
        <time>2023-06-11T09:18:59Z</time>
      </trkpt>
      <trkpt lat="43.71723" lon="5.97258">
        <ele>359.7</ele>
        <time>2023-06-11T09:19:00Z</time>
      </trkpt>
      <trkpt lat="43.71723" lon="5.97258">
        <ele>359.7</ele>
        <time>2023-06-11T09:19:01Z</time>
      </trkpt>
      <trkpt lat="43.71724" lon="5.97257">
        <ele>359.7</ele>
        <time>2023-06-11T09:19:02Z</time>
      </trkpt>
      <trkpt lat="43.71724" lon="5.97257">
        <ele>359.7</ele>
        <time>2023-06-11T09:19:03Z</time>
      </trkpt>
      <trkpt lat="43.71724" lon="5.97256">
        <ele>359.8</ele>
        <time>2023-06-11T09:19:04Z</time>
      </trkpt>
      <trkpt lat="43.71724" lon="5.97256">
        <ele>359.9</ele>
        <time>2023-06-11T09:19:05Z</time>
      </trkpt>
      <trkpt lat="43.71724" lon="5.97256">
        <ele>359.8</ele>
        <time>2023-06-11T09:19:06Z</time>
      </trkpt>
      <trkpt lat="43.71725" lon="5.97256">
        <ele>359.8</ele>
        <time>2023-06-11T09:19:07Z</time>
      </trkpt>
      <trkpt lat="43.71725" lon="5.97256">
        <ele>359.8</ele>
        <time>2023-06-11T09:19:08Z</time>
      </trkpt>
      <trkpt lat="43.71725" lon="5.97256">
        <ele>359.9</ele>
        <time>2023-06-11T09:19:09Z</time>
      </trkpt>
      <trkpt lat="43.71725" lon="5.97256">
        <ele>359.9</ele>
        <time>2023-06-11T09:19:10Z</time>
      </trkpt>
      <trkpt lat="43.71725" lon="5.97256">
        <ele>359.8</ele>
        <time>2023-06-11T09:19:11Z</time>
      </trkpt>
      <trkpt lat="43.71726" lon="5.97257">
        <ele>359.8</ele>
        <time>2023-06-11T09:19:12Z</time>
      </trkpt>
      <trkpt lat="43.71726" lon="5.97257">
        <ele>359.8</ele>
        <time>2023-06-11T09:19:13Z</time>
      </trkpt>
      <trkpt lat="43.71726" lon="5.97257">
        <ele>359.9</ele>
        <time>2023-06-11T09:19:14Z</time>
      </trkpt>
      <trkpt lat="43.71726" lon="5.97258">
        <ele>359.9</ele>
        <time>2023-06-11T09:19:15Z</time>
      </trkpt>
      <trkpt lat="43.71727" lon="5.97258">
        <ele>359.9</ele>
        <time>2023-06-11T09:19:16Z</time>
      </trkpt>
      <trkpt lat="43.71727" lon="5.97258">
        <ele>359.8</ele>
        <time>2023-06-11T09:19:17Z</time>
      </trkpt>
      <trkpt lat="43.71727" lon="5.97258">
        <ele>359.8</ele>
        <time>2023-06-11T09:19:18Z</time>
      </trkpt>
      <trkpt lat="43.71727" lon="5.97258">
        <ele>359.8</ele>
        <time>2023-06-11T09:19:19Z</time>
      </trkpt>
      <trkpt lat="43.71728" lon="5.97258">
        <ele>359.9</ele>
        <time>2023-06-11T09:19:20Z</time>
      </trkpt>
      <trkpt lat="43.71728" lon="5.97258">
        <ele>359.9</ele>
        <time>2023-06-11T09:19:21Z</time>
      </trkpt>
      <trkpt lat="43.71729" lon="5.97257">
        <ele>359.9</ele>
        <time>2023-06-11T09:19:22Z</time>
      </trkpt>
      <trkpt lat="43.71729" lon="5.97257">
        <ele>360</ele>
        <time>2023-06-11T09:19:23Z</time>
      </trkpt>
      <trkpt lat="43.71729" lon="5.97256">
        <ele>360</ele>
        <time>2023-06-11T09:19:24Z</time>
      </trkpt>
      <trkpt lat="43.7173" lon="5.97256">
        <ele>360</ele>
        <time>2023-06-11T09:19:25Z</time>
      </trkpt>
      <trkpt lat="43.7173" lon="5.97255">
        <ele>360</ele>
        <time>2023-06-11T09:19:26Z</time>
      </trkpt>
      <trkpt lat="43.7173" lon="5.97255">
        <ele>360</ele>
        <time>2023-06-11T09:19:27Z</time>
      </trkpt>
      <trkpt lat="43.7173" lon="5.97255">
        <ele>359.9</ele>
        <time>2023-06-11T09:19:28Z</time>
      </trkpt>
      <trkpt lat="43.7173" lon="5.97255">
        <ele>359.8</ele>
        <time>2023-06-11T09:19:29Z</time>
      </trkpt>
      <trkpt lat="43.7173" lon="5.97255">
        <ele>359.8</ele>
        <time>2023-06-11T09:19:30Z</time>
      </trkpt>
      <trkpt lat="43.7173" lon="5.97255">
        <ele>359.8</ele>
        <time>2023-06-11T09:19:31Z</time>
      </trkpt>
      <trkpt lat="43.7173" lon="5.97255">
        <ele>359.8</ele>
        <time>2023-06-11T09:19:32Z</time>
      </trkpt>
      <trkpt lat="43.71729" lon="5.97254">
        <ele>359.7</ele>
        <time>2023-06-11T09:19:33Z</time>
      </trkpt>
      <trkpt lat="43.71729" lon="5.97254">
        <ele>359.8</ele>
        <time>2023-06-11T09:19:34Z</time>
      </trkpt>
      <trkpt lat="43.71729" lon="5.97254">
        <ele>359.8</ele>
        <time>2023-06-11T09:19:35Z</time>
      </trkpt>
      <trkpt lat="43.71729" lon="5.97254">
        <ele>359.9</ele>
        <time>2023-06-11T09:19:36Z</time>
      </trkpt>
      <trkpt lat="43.71729" lon="5.97254">
        <ele>359.9</ele>
        <time>2023-06-11T09:19:37Z</time>
      </trkpt>
      <trkpt lat="43.71729" lon="5.97254">
        <ele>359.9</ele>
        <time>2023-06-11T09:19:38Z</time>
      </trkpt>
      <trkpt lat="43.71729" lon="5.97254">
        <ele>359.9</ele>
        <time>2023-06-11T09:19:39Z</time>
      </trkpt>
      <trkpt lat="43.71729" lon="5.97255">
        <ele>359.8</ele>
        <time>2023-06-11T09:19:40Z</time>
      </trkpt>
      <trkpt lat="43.71729" lon="5.97255">
        <ele>359.7</ele>
        <time>2023-06-11T09:19:41Z</time>
      </trkpt>
      <trkpt lat="43.71729" lon="5.97255">
        <ele>359.6</ele>
        <time>2023-06-11T09:19:42Z</time>
      </trkpt>
      <trkpt lat="43.71729" lon="5.97256">
        <ele>359.6</ele>
        <time>2023-06-11T09:19:43Z</time>
      </trkpt>
      <trkpt lat="43.71729" lon="5.97256">
        <ele>359.5</ele>
        <time>2023-06-11T09:19:44Z</time>
      </trkpt>
      <trkpt lat="43.71729" lon="5.97257">
        <ele>359.6</ele>
        <time>2023-06-11T09:19:45Z</time>
      </trkpt>
      <trkpt lat="43.71729" lon="5.97257">
        <ele>359.6</ele>
        <time>2023-06-11T09:19:46Z</time>
      </trkpt>
      <trkpt lat="43.71729" lon="5.97257">
        <ele>359.5</ele>
        <time>2023-06-11T09:19:47Z</time>
      </trkpt>
      <trkpt lat="43.71729" lon="5.97258">
        <ele>359.6</ele>
        <time>2023-06-11T09:19:48Z</time>
      </trkpt>
      <trkpt lat="43.71729" lon="5.97258">
        <ele>359.5</ele>
        <time>2023-06-11T09:19:49Z</time>
      </trkpt>
      <trkpt lat="43.71729" lon="5.97258">
        <ele>359.5</ele>
        <time>2023-06-11T09:19:50Z</time>
      </trkpt>
      <trkpt lat="43.71729" lon="5.97258">
        <ele>359.5</ele>
        <time>2023-06-11T09:19:51Z</time>
      </trkpt>
      <trkpt lat="43.71729" lon="5.97258">
        <ele>359.5</ele>
        <time>2023-06-11T09:19:52Z</time>
      </trkpt>
      <trkpt lat="43.71729" lon="5.97258">
        <ele>359.4</ele>
        <time>2023-06-11T09:19:53Z</time>
      </trkpt>
      <trkpt lat="43.71729" lon="5.97258">
        <ele>359.4</ele>
        <time>2023-06-11T09:19:54Z</time>
      </trkpt>
      <trkpt lat="43.71729" lon="5.97258">
        <ele>359.4</ele>
        <time>2023-06-11T09:19:55Z</time>
      </trkpt>
      <trkpt lat="43.71729" lon="5.97258">
        <ele>359.4</ele>
        <time>2023-06-11T09:19:56Z</time>
      </trkpt>
      <trkpt lat="43.71729" lon="5.97258">
        <ele>359.3</ele>
        <time>2023-06-11T09:19:57Z</time>
      </trkpt>
      <trkpt lat="43.71729" lon="5.97258">
        <ele>359.3</ele>
        <time>2023-06-11T09:19:58Z</time>
      </trkpt>
      <trkpt lat="43.71729" lon="5.97257">
        <ele>359.3</ele>
        <time>2023-06-11T09:19:59Z</time>
      </trkpt>
      <trkpt lat="43.7173" lon="5.97257">
        <ele>359.3</ele>
        <time>2023-06-11T09:20:00Z</time>
      </trkpt>
      <trkpt lat="43.7173" lon="5.97257">
        <ele>359.3</ele>
        <time>2023-06-11T09:20:01Z</time>
      </trkpt>
      <trkpt lat="43.7173" lon="5.97256">
        <ele>359.3</ele>
        <time>2023-06-11T09:20:02Z</time>
      </trkpt>
      <trkpt lat="43.7173" lon="5.97256">
        <ele>359.3</ele>
        <time>2023-06-11T09:20:03Z</time>
      </trkpt>
      <trkpt lat="43.71731" lon="5.97256">
        <ele>359.3</ele>
        <time>2023-06-11T09:20:04Z</time>
      </trkpt>
      <trkpt lat="43.71731" lon="5.97255">
        <ele>359.3</ele>
        <time>2023-06-11T09:20:05Z</time>
      </trkpt>
      <trkpt lat="43.71732" lon="5.97255">
        <ele>359.3</ele>
        <time>2023-06-11T09:20:06Z</time>
      </trkpt>
      <trkpt lat="43.71732" lon="5.97254">
        <ele>359.4</ele>
        <time>2023-06-11T09:20:07Z</time>
      </trkpt>
      <trkpt lat="43.71733" lon="5.97254">
        <ele>359.3</ele>
        <time>2023-06-11T09:20:08Z</time>
      </trkpt>
      <trkpt lat="43.71733" lon="5.97253">
        <ele>359.3</ele>
        <time>2023-06-11T09:20:09Z</time>
      </trkpt>
      <trkpt lat="43.71733" lon="5.97252">
        <ele>359.3</ele>
        <time>2023-06-11T09:20:10Z</time>
      </trkpt>
      <trkpt lat="43.71733" lon="5.97251">
        <ele>359.3</ele>
        <time>2023-06-11T09:20:11Z</time>
      </trkpt>
      <trkpt lat="43.71733" lon="5.9725">
        <ele>359.3</ele>
        <time>2023-06-11T09:20:12Z</time>
      </trkpt>
      <trkpt lat="43.71734" lon="5.97249">
        <ele>359.3</ele>
        <time>2023-06-11T09:20:13Z</time>
      </trkpt>
      <trkpt lat="43.71734" lon="5.97248">
        <ele>359.3</ele>
        <time>2023-06-11T09:20:14Z</time>
      </trkpt>
      <trkpt lat="43.71734" lon="5.97247">
        <ele>359.2</ele>
        <time>2023-06-11T09:20:15Z</time>
      </trkpt>
      <trkpt lat="43.71734" lon="5.97246">
        <ele>359.2</ele>
        <time>2023-06-11T09:20:16Z</time>
      </trkpt>
      <trkpt lat="43.71734" lon="5.97245">
        <ele>359.2</ele>
        <time>2023-06-11T09:20:17Z</time>
      </trkpt>
      <trkpt lat="43.71735" lon="5.97244">
        <ele>359.2</ele>
        <time>2023-06-11T09:20:18Z</time>
      </trkpt>
      <trkpt lat="43.71735" lon="5.97243">
        <ele>359.2</ele>
        <time>2023-06-11T09:20:19Z</time>
      </trkpt>
      <trkpt lat="43.71735" lon="5.97242">
        <ele>359.1</ele>
        <time>2023-06-11T09:20:20Z</time>
      </trkpt>
      <trkpt lat="43.71736" lon="5.97241">
        <ele>359.1</ele>
        <time>2023-06-11T09:20:21Z</time>
      </trkpt>
      <trkpt lat="43.71736" lon="5.9724">
        <ele>359</ele>
        <time>2023-06-11T09:20:22Z</time>
      </trkpt>
      <trkpt lat="43.71737" lon="5.97239">
        <ele>359.1</ele>
        <time>2023-06-11T09:20:23Z</time>
      </trkpt>
      <trkpt lat="43.71737" lon="5.97238">
        <ele>359.1</ele>
        <time>2023-06-11T09:20:24Z</time>
      </trkpt>
      <trkpt lat="43.71737" lon="5.97237">
        <ele>359.1</ele>
        <time>2023-06-11T09:20:25Z</time>
      </trkpt>
      <trkpt lat="43.71738" lon="5.97236">
        <ele>359.2</ele>
        <time>2023-06-11T09:20:26Z</time>
      </trkpt>
      <trkpt lat="43.71738" lon="5.97234">
        <ele>359.2</ele>
        <time>2023-06-11T09:20:27Z</time>
      </trkpt>
      <trkpt lat="43.71738" lon="5.97233">
        <ele>359.2</ele>
        <time>2023-06-11T09:20:28Z</time>
      </trkpt>
      <trkpt lat="43.71739" lon="5.97232">
        <ele>359.2</ele>
        <time>2023-06-11T09:20:29Z</time>
      </trkpt>
      <trkpt lat="43.71739" lon="5.97231">
        <ele>359.2</ele>
        <time>2023-06-11T09:20:30Z</time>
      </trkpt>
      <trkpt lat="43.71739" lon="5.97229">
        <ele>359.2</ele>
        <time>2023-06-11T09:20:31Z</time>
      </trkpt>
      <trkpt lat="43.7174" lon="5.97228">
        <ele>359.3</ele>
        <time>2023-06-11T09:20:32Z</time>
      </trkpt>
      <trkpt lat="43.7174" lon="5.97226">
        <ele>359.3</ele>
        <time>2023-06-11T09:20:33Z</time>
      </trkpt>
      <trkpt lat="43.7174" lon="5.97225">
        <ele>359.4</ele>
        <time>2023-06-11T09:20:34Z</time>
      </trkpt>
      <trkpt lat="43.71741" lon="5.97223">
        <ele>359.4</ele>
        <time>2023-06-11T09:20:35Z</time>
      </trkpt>
      <trkpt lat="43.71742" lon="5.97221">
        <ele>359.4</ele>
        <time>2023-06-11T09:20:36Z</time>
      </trkpt>
      <trkpt lat="43.71742" lon="5.9722">
        <ele>359.3</ele>
        <time>2023-06-11T09:20:37Z</time>
      </trkpt>
      <trkpt lat="43.71743" lon="5.97218">
        <ele>359.2</ele>
        <time>2023-06-11T09:20:38Z</time>
      </trkpt>
      <trkpt lat="43.71744" lon="5.97217">
        <ele>359.1</ele>
        <time>2023-06-11T09:20:39Z</time>
      </trkpt>
      <trkpt lat="43.71744" lon="5.97215">
        <ele>359.1</ele>
        <time>2023-06-11T09:20:40Z</time>
      </trkpt>
      <trkpt lat="43.71745" lon="5.97213">
        <ele>359.1</ele>
        <time>2023-06-11T09:20:41Z</time>
      </trkpt>
      <trkpt lat="43.71746" lon="5.97212">
        <ele>359.1</ele>
        <time>2023-06-11T09:20:42Z</time>
      </trkpt>
      <trkpt lat="43.71747" lon="5.9721">
        <ele>359.2</ele>
        <time>2023-06-11T09:20:43Z</time>
      </trkpt>
      <trkpt lat="43.71747" lon="5.97209">
        <ele>359.2</ele>
        <time>2023-06-11T09:20:44Z</time>
      </trkpt>
      <trkpt lat="43.71748" lon="5.97207">
        <ele>359.1</ele>
        <time>2023-06-11T09:20:45Z</time>
      </trkpt>
      <trkpt lat="43.71749" lon="5.97206">
        <ele>359</ele>
        <time>2023-06-11T09:20:46Z</time>
      </trkpt>
      <trkpt lat="43.7175" lon="5.97204">
        <ele>359</ele>
        <time>2023-06-11T09:20:47Z</time>
      </trkpt>
      <trkpt lat="43.71751" lon="5.97203">
        <ele>359</ele>
        <time>2023-06-11T09:20:48Z</time>
      </trkpt>
      <trkpt lat="43.71752" lon="5.97201">
        <ele>359</ele>
        <time>2023-06-11T09:20:49Z</time>
      </trkpt>
      <trkpt lat="43.71753" lon="5.972">
        <ele>359</ele>
        <time>2023-06-11T09:20:50Z</time>
      </trkpt>
      <trkpt lat="43.71754" lon="5.97199">
        <ele>358.9</ele>
        <time>2023-06-11T09:20:51Z</time>
      </trkpt>
      <trkpt lat="43.71755" lon="5.97197">
        <ele>358.9</ele>
        <time>2023-06-11T09:20:52Z</time>
      </trkpt>
      <trkpt lat="43.71756" lon="5.97196">
        <ele>358.8</ele>
        <time>2023-06-11T09:20:53Z</time>
      </trkpt>
      <trkpt lat="43.71757" lon="5.97194">
        <ele>358.9</ele>
        <time>2023-06-11T09:20:54Z</time>
      </trkpt>
      <trkpt lat="43.71758" lon="5.97193">
        <ele>358.9</ele>
        <time>2023-06-11T09:20:55Z</time>
      </trkpt>
      <trkpt lat="43.71759" lon="5.97191">
        <ele>358.9</ele>
        <time>2023-06-11T09:20:56Z</time>
      </trkpt>
      <trkpt lat="43.71759" lon="5.9719">
        <ele>358.9</ele>
        <time>2023-06-11T09:20:57Z</time>
      </trkpt>
      <trkpt lat="43.7176" lon="5.97188">
        <ele>358.9</ele>
        <time>2023-06-11T09:20:58Z</time>
      </trkpt>
      <trkpt lat="43.71761" lon="5.97186">
        <ele>358.9</ele>
        <time>2023-06-11T09:20:59Z</time>
      </trkpt>
      <trkpt lat="43.71762" lon="5.97185">
        <ele>358.9</ele>
        <time>2023-06-11T09:21:00Z</time>
      </trkpt>
      <trkpt lat="43.71763" lon="5.97183">
        <ele>358.9</ele>
        <time>2023-06-11T09:21:01Z</time>
      </trkpt>
      <trkpt lat="43.71764" lon="5.97182">
        <ele>358.9</ele>
        <time>2023-06-11T09:21:02Z</time>
      </trkpt>
      <trkpt lat="43.71765" lon="5.9718">
        <ele>358.9</ele>
        <time>2023-06-11T09:21:03Z</time>
      </trkpt>
      <trkpt lat="43.71766" lon="5.97179">
        <ele>358.9</ele>
        <time>2023-06-11T09:21:04Z</time>
      </trkpt>
      <trkpt lat="43.71767" lon="5.97177">
        <ele>358.8</ele>
        <time>2023-06-11T09:21:05Z</time>
      </trkpt>
      <trkpt lat="43.71768" lon="5.97176">
        <ele>358.8</ele>
        <time>2023-06-11T09:21:06Z</time>
      </trkpt>
      <trkpt lat="43.71769" lon="5.97174">
        <ele>358.7</ele>
        <time>2023-06-11T09:21:07Z</time>
      </trkpt>
      <trkpt lat="43.7177" lon="5.97173">
        <ele>358.7</ele>
        <time>2023-06-11T09:21:08Z</time>
      </trkpt>
      <trkpt lat="43.71771" lon="5.97171">
        <ele>358.8</ele>
        <time>2023-06-11T09:21:09Z</time>
      </trkpt>
      <trkpt lat="43.71772" lon="5.9717">
        <ele>358.9</ele>
        <time>2023-06-11T09:21:10Z</time>
      </trkpt>
      <trkpt lat="43.71773" lon="5.97168">
        <ele>359</ele>
        <time>2023-06-11T09:21:11Z</time>
      </trkpt>
      <trkpt lat="43.71774" lon="5.97167">
        <ele>359</ele>
        <time>2023-06-11T09:21:12Z</time>
      </trkpt>
      <trkpt lat="43.71775" lon="5.97166">
        <ele>359</ele>
        <time>2023-06-11T09:21:13Z</time>
      </trkpt>
      <trkpt lat="43.71776" lon="5.97165">
        <ele>359</ele>
        <time>2023-06-11T09:21:14Z</time>
      </trkpt>
      <trkpt lat="43.71777" lon="5.97164">
        <ele>359</ele>
        <time>2023-06-11T09:21:15Z</time>
      </trkpt>
      <trkpt lat="43.71778" lon="5.97163">
        <ele>358.9</ele>
        <time>2023-06-11T09:21:16Z</time>
      </trkpt>
      <trkpt lat="43.71779" lon="5.97161">
        <ele>358.9</ele>
        <time>2023-06-11T09:21:17Z</time>
      </trkpt>
      <trkpt lat="43.7178" lon="5.9716">
        <ele>358.8</ele>
        <time>2023-06-11T09:21:18Z</time>
      </trkpt>
      <trkpt lat="43.71781" lon="5.97159">
        <ele>358.8</ele>
        <time>2023-06-11T09:21:19Z</time>
      </trkpt>
      <trkpt lat="43.71782" lon="5.97158">
        <ele>358.8</ele>
        <time>2023-06-11T09:21:20Z</time>
      </trkpt>
      <trkpt lat="43.71783" lon="5.97157">
        <ele>358.8</ele>
        <time>2023-06-11T09:21:21Z</time>
      </trkpt>
      <trkpt lat="43.71784" lon="5.97156">
        <ele>358.8</ele>
        <time>2023-06-11T09:21:22Z</time>
      </trkpt>
      <trkpt lat="43.71785" lon="5.97156">
        <ele>358.8</ele>
        <time>2023-06-11T09:21:23Z</time>
      </trkpt>
      <trkpt lat="43.71787" lon="5.97155">
        <ele>358.8</ele>
        <time>2023-06-11T09:21:24Z</time>
      </trkpt>
      <trkpt lat="43.71788" lon="5.97154">
        <ele>358.7</ele>
        <time>2023-06-11T09:21:25Z</time>
      </trkpt>
      <trkpt lat="43.71789" lon="5.97153">
        <ele>358.7</ele>
        <time>2023-06-11T09:21:26Z</time>
      </trkpt>
      <trkpt lat="43.7179" lon="5.97152">
        <ele>358.8</ele>
        <time>2023-06-11T09:21:27Z</time>
      </trkpt>
      <trkpt lat="43.71791" lon="5.97151">
        <ele>358.8</ele>
        <time>2023-06-11T09:21:28Z</time>
      </trkpt>
      <trkpt lat="43.71792" lon="5.97149">
        <ele>358.8</ele>
        <time>2023-06-11T09:21:29Z</time>
      </trkpt>
      <trkpt lat="43.71793" lon="5.97148">
        <ele>358.9</ele>
        <time>2023-06-11T09:21:30Z</time>
      </trkpt>
      <trkpt lat="43.71794" lon="5.97147">
        <ele>359</ele>
        <time>2023-06-11T09:21:31Z</time>
      </trkpt>
      <trkpt lat="43.71795" lon="5.97146">
        <ele>359.1</ele>
        <time>2023-06-11T09:21:32Z</time>
      </trkpt>
      <trkpt lat="43.71797" lon="5.97145">
        <ele>359</ele>
        <time>2023-06-11T09:21:33Z</time>
      </trkpt>
      <trkpt lat="43.71798" lon="5.97144">
        <ele>359.1</ele>
        <time>2023-06-11T09:21:34Z</time>
      </trkpt>
      <trkpt lat="43.71799" lon="5.97142">
        <ele>359.1</ele>
        <time>2023-06-11T09:21:35Z</time>
      </trkpt>
      <trkpt lat="43.718" lon="5.97141">
        <ele>359</ele>
        <time>2023-06-11T09:21:36Z</time>
      </trkpt>
      <trkpt lat="43.71801" lon="5.9714">
        <ele>359</ele>
        <time>2023-06-11T09:21:37Z</time>
      </trkpt>
      <trkpt lat="43.71802" lon="5.97139">
        <ele>359.1</ele>
        <time>2023-06-11T09:21:38Z</time>
      </trkpt>
      <trkpt lat="43.71803" lon="5.97138">
        <ele>359.1</ele>
        <time>2023-06-11T09:21:39Z</time>
      </trkpt>
      <trkpt lat="43.71804" lon="5.97136">
        <ele>359.1</ele>
        <time>2023-06-11T09:21:40Z</time>
      </trkpt>
      <trkpt lat="43.71806" lon="5.97135">
        <ele>359.1</ele>
        <time>2023-06-11T09:21:41Z</time>
      </trkpt>
      <trkpt lat="43.71807" lon="5.97134">
        <ele>359.1</ele>
        <time>2023-06-11T09:21:42Z</time>
      </trkpt>
      <trkpt lat="43.71808" lon="5.97133">
        <ele>359.1</ele>
        <time>2023-06-11T09:21:43Z</time>
      </trkpt>
      <trkpt lat="43.71809" lon="5.97131">
        <ele>359.1</ele>
        <time>2023-06-11T09:21:44Z</time>
      </trkpt>
      <trkpt lat="43.7181" lon="5.9713">
        <ele>359.2</ele>
        <time>2023-06-11T09:21:45Z</time>
      </trkpt>
      <trkpt lat="43.71811" lon="5.97129">
        <ele>359.1</ele>
        <time>2023-06-11T09:21:46Z</time>
      </trkpt>
      <trkpt lat="43.71812" lon="5.97128">
        <ele>359</ele>
        <time>2023-06-11T09:21:47Z</time>
      </trkpt>
      <trkpt lat="43.71813" lon="5.97126">
        <ele>359</ele>
        <time>2023-06-11T09:21:48Z</time>
      </trkpt>
      <trkpt lat="43.71814" lon="5.97125">
        <ele>358.9</ele>
        <time>2023-06-11T09:21:49Z</time>
      </trkpt>
      <trkpt lat="43.71815" lon="5.97124">
        <ele>358.9</ele>
        <time>2023-06-11T09:21:50Z</time>
      </trkpt>
      <trkpt lat="43.71817" lon="5.97122">
        <ele>358.9</ele>
        <time>2023-06-11T09:21:51Z</time>
      </trkpt>
      <trkpt lat="43.71818" lon="5.97121">
        <ele>358.9</ele>
        <time>2023-06-11T09:21:52Z</time>
      </trkpt>
      <trkpt lat="43.71819" lon="5.9712">
        <ele>358.9</ele>
        <time>2023-06-11T09:21:53Z</time>
      </trkpt>
      <trkpt lat="43.7182" lon="5.97118">
        <ele>359</ele>
        <time>2023-06-11T09:21:54Z</time>
      </trkpt>
      <trkpt lat="43.71821" lon="5.97117">
        <ele>359</ele>
        <time>2023-06-11T09:21:55Z</time>
      </trkpt>
      <trkpt lat="43.71822" lon="5.97116">
        <ele>359.1</ele>
        <time>2023-06-11T09:21:56Z</time>
      </trkpt>
      <trkpt lat="43.71823" lon="5.97114">
        <ele>359.1</ele>
        <time>2023-06-11T09:21:57Z</time>
      </trkpt>
      <trkpt lat="43.71824" lon="5.97113">
        <ele>359.1</ele>
        <time>2023-06-11T09:21:58Z</time>
      </trkpt>
      <trkpt lat="43.71825" lon="5.97112">
        <ele>359.1</ele>
        <time>2023-06-11T09:21:59Z</time>
      </trkpt>
      <trkpt lat="43.71826" lon="5.97111">
        <ele>359</ele>
        <time>2023-06-11T09:22:00Z</time>
      </trkpt>
      <trkpt lat="43.71828" lon="5.97109">
        <ele>359</ele>
        <time>2023-06-11T09:22:01Z</time>
      </trkpt>
      <trkpt lat="43.71829" lon="5.97108">
        <ele>358.9</ele>
        <time>2023-06-11T09:22:02Z</time>
      </trkpt>
      <trkpt lat="43.7183" lon="5.97107">
        <ele>358.9</ele>
        <time>2023-06-11T09:22:03Z</time>
      </trkpt>
      <trkpt lat="43.71831" lon="5.97106">
        <ele>358.9</ele>
        <time>2023-06-11T09:22:04Z</time>
      </trkpt>
      <trkpt lat="43.71832" lon="5.97105">
        <ele>359</ele>
        <time>2023-06-11T09:22:05Z</time>
      </trkpt>
      <trkpt lat="43.71833" lon="5.97104">
        <ele>359.1</ele>
        <time>2023-06-11T09:22:06Z</time>
      </trkpt>
      <trkpt lat="43.71835" lon="5.97103">
        <ele>359.2</ele>
        <time>2023-06-11T09:22:07Z</time>
      </trkpt>
      <trkpt lat="43.71836" lon="5.97101">
        <ele>359.2</ele>
        <time>2023-06-11T09:22:08Z</time>
      </trkpt>
      <trkpt lat="43.71837" lon="5.971">
        <ele>359.2</ele>
        <time>2023-06-11T09:22:09Z</time>
      </trkpt>
      <trkpt lat="43.71838" lon="5.97099">
        <ele>359.2</ele>
        <time>2023-06-11T09:22:10Z</time>
      </trkpt>
      <trkpt lat="43.71839" lon="5.97098">
        <ele>359.3</ele>
        <time>2023-06-11T09:22:11Z</time>
      </trkpt>
      <trkpt lat="43.7184" lon="5.97096">
        <ele>359.3</ele>
        <time>2023-06-11T09:22:12Z</time>
      </trkpt>
      <trkpt lat="43.71841" lon="5.97095">
        <ele>359.3</ele>
        <time>2023-06-11T09:22:13Z</time>
      </trkpt>
      <trkpt lat="43.71842" lon="5.97094">
        <ele>359.3</ele>
        <time>2023-06-11T09:22:14Z</time>
      </trkpt>
      <trkpt lat="43.71844" lon="5.97093">
        <ele>359.2</ele>
        <time>2023-06-11T09:22:15Z</time>
      </trkpt>
      <trkpt lat="43.71845" lon="5.97092">
        <ele>359.2</ele>
        <time>2023-06-11T09:22:16Z</time>
      </trkpt>
      <trkpt lat="43.71846" lon="5.9709">
        <ele>359.1</ele>
        <time>2023-06-11T09:22:17Z</time>
      </trkpt>
      <trkpt lat="43.71847" lon="5.97089">
        <ele>359.1</ele>
        <time>2023-06-11T09:22:18Z</time>
      </trkpt>
      <trkpt lat="43.71848" lon="5.97088">
        <ele>359.1</ele>
        <time>2023-06-11T09:22:19Z</time>
      </trkpt>
      <trkpt lat="43.71849" lon="5.97087">
        <ele>359.1</ele>
        <time>2023-06-11T09:22:20Z</time>
      </trkpt>
      <trkpt lat="43.7185" lon="5.97085">
        <ele>359.1</ele>
        <time>2023-06-11T09:22:21Z</time>
      </trkpt>
      <trkpt lat="43.71851" lon="5.97084">
        <ele>359</ele>
        <time>2023-06-11T09:22:22Z</time>
      </trkpt>
      <trkpt lat="43.71852" lon="5.97082">
        <ele>359</ele>
        <time>2023-06-11T09:22:23Z</time>
      </trkpt>
      <trkpt lat="43.71853" lon="5.97081">
        <ele>359</ele>
        <time>2023-06-11T09:22:24Z</time>
      </trkpt>
      <trkpt lat="43.71854" lon="5.9708">
        <ele>359.2</ele>
        <time>2023-06-11T09:22:25Z</time>
      </trkpt>
      <trkpt lat="43.71855" lon="5.97078">
        <ele>359.2</ele>
        <time>2023-06-11T09:22:26Z</time>
      </trkpt>
      <trkpt lat="43.71856" lon="5.97077">
        <ele>359.2</ele>
        <time>2023-06-11T09:22:27Z</time>
      </trkpt>
      <trkpt lat="43.71857" lon="5.97075">
        <ele>359.3</ele>
        <time>2023-06-11T09:22:28Z</time>
      </trkpt>
      <trkpt lat="43.71858" lon="5.97074">
        <ele>359.3</ele>
        <time>2023-06-11T09:22:29Z</time>
      </trkpt>
      <trkpt lat="43.71859" lon="5.97073">
        <ele>359.4</ele>
        <time>2023-06-11T09:22:30Z</time>
      </trkpt>
      <trkpt lat="43.7186" lon="5.97071">
        <ele>359.4</ele>
        <time>2023-06-11T09:22:31Z</time>
      </trkpt>
      <trkpt lat="43.71861" lon="5.9707">
        <ele>359.5</ele>
        <time>2023-06-11T09:22:32Z</time>
      </trkpt>
      <trkpt lat="43.71863" lon="5.97069">
        <ele>359.5</ele>
        <time>2023-06-11T09:22:33Z</time>
      </trkpt>
      <trkpt lat="43.71864" lon="5.97068">
        <ele>359.5</ele>
        <time>2023-06-11T09:22:34Z</time>
      </trkpt>
      <trkpt lat="43.71865" lon="5.97067">
        <ele>359.4</ele>
        <time>2023-06-11T09:22:35Z</time>
      </trkpt>
      <trkpt lat="43.71866" lon="5.97065">
        <ele>359.4</ele>
        <time>2023-06-11T09:22:36Z</time>
      </trkpt>
      <trkpt lat="43.71867" lon="5.97064">
        <ele>359.4</ele>
        <time>2023-06-11T09:22:37Z</time>
      </trkpt>
      <trkpt lat="43.71868" lon="5.97063">
        <ele>359.5</ele>
        <time>2023-06-11T09:22:38Z</time>
      </trkpt>
      <trkpt lat="43.71869" lon="5.97062">
        <ele>359.5</ele>
        <time>2023-06-11T09:22:39Z</time>
      </trkpt>
      <trkpt lat="43.7187" lon="5.97061">
        <ele>359.5</ele>
        <time>2023-06-11T09:22:40Z</time>
      </trkpt>
      <trkpt lat="43.71871" lon="5.9706">
        <ele>359.5</ele>
        <time>2023-06-11T09:22:41Z</time>
      </trkpt>
      <trkpt lat="43.71873" lon="5.97059">
        <ele>359.5</ele>
        <time>2023-06-11T09:22:42Z</time>
      </trkpt>
      <trkpt lat="43.71874" lon="5.97058">
        <ele>359.4</ele>
        <time>2023-06-11T09:22:43Z</time>
      </trkpt>
      <trkpt lat="43.71875" lon="5.97057">
        <ele>359.4</ele>
        <time>2023-06-11T09:22:44Z</time>
      </trkpt>
      <trkpt lat="43.71876" lon="5.97056">
        <ele>359.4</ele>
        <time>2023-06-11T09:22:45Z</time>
      </trkpt>
      <trkpt lat="43.71877" lon="5.97055">
        <ele>359.3</ele>
        <time>2023-06-11T09:22:46Z</time>
      </trkpt>
      <trkpt lat="43.71878" lon="5.97055">
        <ele>359.3</ele>
        <time>2023-06-11T09:22:47Z</time>
      </trkpt>
      <trkpt lat="43.7188" lon="5.97054">
        <ele>359.3</ele>
        <time>2023-06-11T09:22:48Z</time>
      </trkpt>
      <trkpt lat="43.71881" lon="5.97053">
        <ele>359.4</ele>
        <time>2023-06-11T09:22:49Z</time>
      </trkpt>
      <trkpt lat="43.71882" lon="5.97052">
        <ele>359.5</ele>
        <time>2023-06-11T09:22:50Z</time>
      </trkpt>
      <trkpt lat="43.71883" lon="5.97051">
        <ele>359.4</ele>
        <time>2023-06-11T09:22:51Z</time>
      </trkpt>
      <trkpt lat="43.71884" lon="5.9705">
        <ele>359.4</ele>
        <time>2023-06-11T09:22:52Z</time>
      </trkpt>
      <trkpt lat="43.71885" lon="5.9705">
        <ele>359.3</ele>
        <time>2023-06-11T09:22:53Z</time>
      </trkpt>
      <trkpt lat="43.71887" lon="5.97049">
        <ele>359.3</ele>
        <time>2023-06-11T09:22:54Z</time>
      </trkpt>
      <trkpt lat="43.71888" lon="5.97048">
        <ele>359.3</ele>
        <time>2023-06-11T09:22:55Z</time>
      </trkpt>
      <trkpt lat="43.71889" lon="5.97047">
        <ele>359.4</ele>
        <time>2023-06-11T09:22:56Z</time>
      </trkpt>
      <trkpt lat="43.7189" lon="5.97046">
        <ele>359.5</ele>
        <time>2023-06-11T09:22:57Z</time>
      </trkpt>
      <trkpt lat="43.71891" lon="5.97046">
        <ele>359.5</ele>
        <time>2023-06-11T09:22:58Z</time>
      </trkpt>
      <trkpt lat="43.71892" lon="5.97045">
        <ele>359.4</ele>
        <time>2023-06-11T09:22:59Z</time>
      </trkpt>
      <trkpt lat="43.71893" lon="5.97044">
        <ele>359.4</ele>
        <time>2023-06-11T09:23:00Z</time>
      </trkpt>
      <trkpt lat="43.71894" lon="5.97043">
        <ele>359.4</ele>
        <time>2023-06-11T09:23:01Z</time>
      </trkpt>
      <trkpt lat="43.71896" lon="5.97042">
        <ele>359.4</ele>
        <time>2023-06-11T09:23:02Z</time>
      </trkpt>
      <trkpt lat="43.71897" lon="5.97041">
        <ele>359.4</ele>
        <time>2023-06-11T09:23:03Z</time>
      </trkpt>
      <trkpt lat="43.71898" lon="5.9704">
        <ele>359.4</ele>
        <time>2023-06-11T09:23:04Z</time>
      </trkpt>
      <trkpt lat="43.71899" lon="5.97039">
        <ele>359.4</ele>
        <time>2023-06-11T09:23:05Z</time>
      </trkpt>
      <trkpt lat="43.719" lon="5.97038">
        <ele>359.4</ele>
        <time>2023-06-11T09:23:06Z</time>
      </trkpt>
      <trkpt lat="43.71901" lon="5.97038">
        <ele>359.4</ele>
        <time>2023-06-11T09:23:07Z</time>
      </trkpt>
      <trkpt lat="43.71903" lon="5.97037">
        <ele>359.3</ele>
        <time>2023-06-11T09:23:08Z</time>
      </trkpt>
      <trkpt lat="43.71904" lon="5.97036">
        <ele>359.3</ele>
        <time>2023-06-11T09:23:09Z</time>
      </trkpt>
      <trkpt lat="43.71905" lon="5.97035">
        <ele>359.3</ele>
        <time>2023-06-11T09:23:10Z</time>
      </trkpt>
      <trkpt lat="43.71906" lon="5.97034">
        <ele>359.2</ele>
        <time>2023-06-11T09:23:11Z</time>
      </trkpt>
      <trkpt lat="43.71908" lon="5.97034">
        <ele>359.2</ele>
        <time>2023-06-11T09:23:12Z</time>
      </trkpt>
      <trkpt lat="43.71909" lon="5.97033">
        <ele>359.2</ele>
        <time>2023-06-11T09:23:13Z</time>
      </trkpt>
      <trkpt lat="43.7191" lon="5.97032">
        <ele>359.1</ele>
        <time>2023-06-11T09:23:14Z</time>
      </trkpt>
      <trkpt lat="43.71911" lon="5.97031">
        <ele>359.1</ele>
        <time>2023-06-11T09:23:15Z</time>
      </trkpt>
      <trkpt lat="43.71913" lon="5.9703">
        <ele>359.1</ele>
        <time>2023-06-11T09:23:16Z</time>
      </trkpt>
      <trkpt lat="43.71914" lon="5.97029">
        <ele>359.1</ele>
        <time>2023-06-11T09:23:17Z</time>
      </trkpt>
      <trkpt lat="43.71915" lon="5.97028">
        <ele>359.1</ele>
        <time>2023-06-11T09:23:18Z</time>
      </trkpt>
      <trkpt lat="43.71917" lon="5.97027">
        <ele>359.1</ele>
        <time>2023-06-11T09:23:19Z</time>
      </trkpt>
      <trkpt lat="43.71918" lon="5.97026">
        <ele>359.1</ele>
        <time>2023-06-11T09:23:20Z</time>
      </trkpt>
      <trkpt lat="43.71919" lon="5.97026">
        <ele>359.1</ele>
        <time>2023-06-11T09:23:21Z</time>
      </trkpt>
      <trkpt lat="43.71921" lon="5.97025">
        <ele>359.1</ele>
        <time>2023-06-11T09:23:22Z</time>
      </trkpt>
      <trkpt lat="43.71922" lon="5.97024">
        <ele>359.1</ele>
        <time>2023-06-11T09:23:23Z</time>
      </trkpt>
      <trkpt lat="43.71923" lon="5.97023">
        <ele>359.2</ele>
        <time>2023-06-11T09:23:24Z</time>
      </trkpt>
      <trkpt lat="43.71924" lon="5.97022">
        <ele>359.2</ele>
        <time>2023-06-11T09:23:25Z</time>
      </trkpt>
      <trkpt lat="43.71926" lon="5.97021">
        <ele>359.2</ele>
        <time>2023-06-11T09:23:26Z</time>
      </trkpt>
      <trkpt lat="43.71927" lon="5.97021">
        <ele>359.1</ele>
        <time>2023-06-11T09:23:27Z</time>
      </trkpt>
      <trkpt lat="43.71928" lon="5.9702">
        <ele>359.1</ele>
        <time>2023-06-11T09:23:28Z</time>
      </trkpt>
      <trkpt lat="43.71929" lon="5.97019">
        <ele>359.1</ele>
        <time>2023-06-11T09:23:29Z</time>
      </trkpt>
      <trkpt lat="43.71931" lon="5.97018">
        <ele>359.1</ele>
        <time>2023-06-11T09:23:30Z</time>
      </trkpt>
      <trkpt lat="43.71932" lon="5.97017">
        <ele>359.1</ele>
        <time>2023-06-11T09:23:31Z</time>
      </trkpt>
      <trkpt lat="43.71933" lon="5.97017">
        <ele>359.2</ele>
        <time>2023-06-11T09:23:32Z</time>
      </trkpt>
      <trkpt lat="43.71934" lon="5.97016">
        <ele>359.2</ele>
        <time>2023-06-11T09:23:33Z</time>
      </trkpt>
      <trkpt lat="43.71936" lon="5.97015">
        <ele>359.2</ele>
        <time>2023-06-11T09:23:34Z</time>
      </trkpt>
      <trkpt lat="43.71937" lon="5.97014">
        <ele>359.1</ele>
        <time>2023-06-11T09:23:35Z</time>
      </trkpt>
      <trkpt lat="43.71938" lon="5.97013">
        <ele>359.2</ele>
        <time>2023-06-11T09:23:36Z</time>
      </trkpt>
      <trkpt lat="43.71939" lon="5.97012">
        <ele>359.2</ele>
        <time>2023-06-11T09:23:37Z</time>
      </trkpt>
      <trkpt lat="43.71941" lon="5.97011">
        <ele>359.2</ele>
        <time>2023-06-11T09:23:38Z</time>
      </trkpt>
      <trkpt lat="43.71942" lon="5.97011">
        <ele>359.2</ele>
        <time>2023-06-11T09:23:39Z</time>
      </trkpt>
      <trkpt lat="43.71943" lon="5.9701">
        <ele>359.2</ele>
        <time>2023-06-11T09:23:40Z</time>
      </trkpt>
      <trkpt lat="43.71945" lon="5.97009">
        <ele>359.2</ele>
        <time>2023-06-11T09:23:41Z</time>
      </trkpt>
      <trkpt lat="43.71946" lon="5.97008">
        <ele>359.3</ele>
        <time>2023-06-11T09:23:42Z</time>
      </trkpt>
      <trkpt lat="43.71947" lon="5.97007">
        <ele>359.2</ele>
        <time>2023-06-11T09:23:43Z</time>
      </trkpt>
      <trkpt lat="43.71948" lon="5.97006">
        <ele>359.2</ele>
        <time>2023-06-11T09:23:44Z</time>
      </trkpt>
      <trkpt lat="43.7195" lon="5.97005">
        <ele>359.2</ele>
        <time>2023-06-11T09:23:45Z</time>
      </trkpt>
      <trkpt lat="43.71951" lon="5.97004">
        <ele>359.2</ele>
        <time>2023-06-11T09:23:46Z</time>
      </trkpt>
      <trkpt lat="43.71952" lon="5.97003">
        <ele>359.2</ele>
        <time>2023-06-11T09:23:47Z</time>
      </trkpt>
      <trkpt lat="43.71954" lon="5.97002">
        <ele>359.2</ele>
        <time>2023-06-11T09:23:48Z</time>
      </trkpt>
      <trkpt lat="43.71955" lon="5.97002">
        <ele>359.2</ele>
        <time>2023-06-11T09:23:49Z</time>
      </trkpt>
      <trkpt lat="43.71956" lon="5.97001">
        <ele>359.3</ele>
        <time>2023-06-11T09:23:50Z</time>
      </trkpt>
      <trkpt lat="43.71957" lon="5.97">
        <ele>359.3</ele>
        <time>2023-06-11T09:23:51Z</time>
      </trkpt>
      <trkpt lat="43.71959" lon="5.96999">
        <ele>359.3</ele>
        <time>2023-06-11T09:23:52Z</time>
      </trkpt>
      <trkpt lat="43.7196" lon="5.96998">
        <ele>359.3</ele>
        <time>2023-06-11T09:23:53Z</time>
      </trkpt>
      <trkpt lat="43.71961" lon="5.96997">
        <ele>359.3</ele>
        <time>2023-06-11T09:23:54Z</time>
      </trkpt>
      <trkpt lat="43.71962" lon="5.96996">
        <ele>359.3</ele>
        <time>2023-06-11T09:23:55Z</time>
      </trkpt>
      <trkpt lat="43.71964" lon="5.96995">
        <ele>359.4</ele>
        <time>2023-06-11T09:23:56Z</time>
      </trkpt>
      <trkpt lat="43.71965" lon="5.96994">
        <ele>359.4</ele>
        <time>2023-06-11T09:23:57Z</time>
      </trkpt>
      <trkpt lat="43.71966" lon="5.96994">
        <ele>359.4</ele>
        <time>2023-06-11T09:23:58Z</time>
      </trkpt>
      <trkpt lat="43.71968" lon="5.96993">
        <ele>359.4</ele>
        <time>2023-06-11T09:23:59Z</time>
      </trkpt>
      <trkpt lat="43.71969" lon="5.96992">
        <ele>359.3</ele>
        <time>2023-06-11T09:24:00Z</time>
      </trkpt>
      <trkpt lat="43.7197" lon="5.96991">
        <ele>359.2</ele>
        <time>2023-06-11T09:24:01Z</time>
      </trkpt>
      <trkpt lat="43.71972" lon="5.96991">
        <ele>359.2</ele>
        <time>2023-06-11T09:24:02Z</time>
      </trkpt>
      <trkpt lat="43.71973" lon="5.9699">
        <ele>359.2</ele>
        <time>2023-06-11T09:24:03Z</time>
      </trkpt>
      <trkpt lat="43.71974" lon="5.96989">
        <ele>359.1</ele>
        <time>2023-06-11T09:24:04Z</time>
      </trkpt>
      <trkpt lat="43.71976" lon="5.96988">
        <ele>359.1</ele>
        <time>2023-06-11T09:24:05Z</time>
      </trkpt>
      <trkpt lat="43.71977" lon="5.96987">
        <ele>359.1</ele>
        <time>2023-06-11T09:24:06Z</time>
      </trkpt>
      <trkpt lat="43.71978" lon="5.96987">
        <ele>359</ele>
        <time>2023-06-11T09:24:07Z</time>
      </trkpt>
      <trkpt lat="43.7198" lon="5.96986">
        <ele>358.9</ele>
        <time>2023-06-11T09:24:08Z</time>
      </trkpt>
      <trkpt lat="43.71981" lon="5.96985">
        <ele>358.9</ele>
        <time>2023-06-11T09:24:09Z</time>
      </trkpt>
      <trkpt lat="43.71982" lon="5.96985">
        <ele>358.9</ele>
        <time>2023-06-11T09:24:10Z</time>
      </trkpt>
      <trkpt lat="43.71983" lon="5.96984">
        <ele>359</ele>
        <time>2023-06-11T09:24:11Z</time>
      </trkpt>
      <trkpt lat="43.71984" lon="5.96983">
        <ele>359</ele>
        <time>2023-06-11T09:24:12Z</time>
      </trkpt>
      <trkpt lat="43.71985" lon="5.96982">
        <ele>359</ele>
        <time>2023-06-11T09:24:13Z</time>
      </trkpt>
      <trkpt lat="43.71987" lon="5.96981">
        <ele>359.1</ele>
        <time>2023-06-11T09:24:14Z</time>
      </trkpt>
      <trkpt lat="43.71988" lon="5.9698">
        <ele>359.1</ele>
        <time>2023-06-11T09:24:15Z</time>
      </trkpt>
      <trkpt lat="43.71989" lon="5.96979">
        <ele>359.1</ele>
        <time>2023-06-11T09:24:16Z</time>
      </trkpt>
      <trkpt lat="43.71991" lon="5.96979">
        <ele>359</ele>
        <time>2023-06-11T09:24:17Z</time>
      </trkpt>
      <trkpt lat="43.71992" lon="5.96978">
        <ele>359</ele>
        <time>2023-06-11T09:24:18Z</time>
      </trkpt>
      <trkpt lat="43.71994" lon="5.96977">
        <ele>359.1</ele>
        <time>2023-06-11T09:24:19Z</time>
      </trkpt>
      <trkpt lat="43.71995" lon="5.96976">
        <ele>359.1</ele>
        <time>2023-06-11T09:24:20Z</time>
      </trkpt>
      <trkpt lat="43.71996" lon="5.96975">
        <ele>359.2</ele>
        <time>2023-06-11T09:24:21Z</time>
      </trkpt>
      <trkpt lat="43.71998" lon="5.96974">
        <ele>359.2</ele>
        <time>2023-06-11T09:24:22Z</time>
      </trkpt>
      <trkpt lat="43.71999" lon="5.96973">
        <ele>359.2</ele>
        <time>2023-06-11T09:24:23Z</time>
      </trkpt>
      <trkpt lat="43.72" lon="5.96973">
        <ele>359.2</ele>
        <time>2023-06-11T09:24:24Z</time>
      </trkpt>
      <trkpt lat="43.72001" lon="5.96972">
        <ele>359.3</ele>
        <time>2023-06-11T09:24:25Z</time>
      </trkpt>
      <trkpt lat="43.72003" lon="5.96971">
        <ele>359.3</ele>
        <time>2023-06-11T09:24:26Z</time>
      </trkpt>
      <trkpt lat="43.72004" lon="5.9697">
        <ele>359.3</ele>
        <time>2023-06-11T09:24:27Z</time>
      </trkpt>
      <trkpt lat="43.72005" lon="5.96969">
        <ele>359.3</ele>
        <time>2023-06-11T09:24:28Z</time>
      </trkpt>
      <trkpt lat="43.72006" lon="5.96968">
        <ele>359.4</ele>
        <time>2023-06-11T09:24:29Z</time>
      </trkpt>
      <trkpt lat="43.72007" lon="5.96967">
        <ele>359.3</ele>
        <time>2023-06-11T09:24:30Z</time>
      </trkpt>
      <trkpt lat="43.72008" lon="5.96966">
        <ele>359.3</ele>
        <time>2023-06-11T09:24:31Z</time>
      </trkpt>
      <trkpt lat="43.7201" lon="5.96965">
        <ele>359.3</ele>
        <time>2023-06-11T09:24:32Z</time>
      </trkpt>
      <trkpt lat="43.72011" lon="5.96965">
        <ele>359.4</ele>
        <time>2023-06-11T09:24:33Z</time>
      </trkpt>
      <trkpt lat="43.72012" lon="5.96964">
        <ele>359.5</ele>
        <time>2023-06-11T09:24:34Z</time>
      </trkpt>
      <trkpt lat="43.72013" lon="5.96963">
        <ele>359.5</ele>
        <time>2023-06-11T09:24:35Z</time>
      </trkpt>
      <trkpt lat="43.72014" lon="5.96962">
        <ele>359.5</ele>
        <time>2023-06-11T09:24:36Z</time>
      </trkpt>
      <trkpt lat="43.72015" lon="5.96961">
        <ele>359.6</ele>
        <time>2023-06-11T09:24:37Z</time>
      </trkpt>
      <trkpt lat="43.72017" lon="5.9696">
        <ele>359.7</ele>
        <time>2023-06-11T09:24:38Z</time>
      </trkpt>
      <trkpt lat="43.72018" lon="5.96958">
        <ele>359.7</ele>
        <time>2023-06-11T09:24:39Z</time>
      </trkpt>
      <trkpt lat="43.72019" lon="5.96957">
        <ele>359.7</ele>
        <time>2023-06-11T09:24:40Z</time>
      </trkpt>
      <trkpt lat="43.7202" lon="5.96956">
        <ele>359.7</ele>
        <time>2023-06-11T09:24:41Z</time>
      </trkpt>
      <trkpt lat="43.72021" lon="5.96955">
        <ele>359.7</ele>
        <time>2023-06-11T09:24:42Z</time>
      </trkpt>
      <trkpt lat="43.72022" lon="5.96953">
        <ele>359.7</ele>
        <time>2023-06-11T09:24:43Z</time>
      </trkpt>
      <trkpt lat="43.72023" lon="5.96952">
        <ele>359.6</ele>
        <time>2023-06-11T09:24:44Z</time>
      </trkpt>
      <trkpt lat="43.72024" lon="5.96951">
        <ele>359.6</ele>
        <time>2023-06-11T09:24:45Z</time>
      </trkpt>
      <trkpt lat="43.72026" lon="5.9695">
        <ele>359.6</ele>
        <time>2023-06-11T09:24:46Z</time>
      </trkpt>
      <trkpt lat="43.72027" lon="5.96948">
        <ele>359.6</ele>
        <time>2023-06-11T09:24:47Z</time>
      </trkpt>
      <trkpt lat="43.72028" lon="5.96947">
        <ele>359.5</ele>
        <time>2023-06-11T09:24:48Z</time>
      </trkpt>
      <trkpt lat="43.72029" lon="5.96946">
        <ele>359.5</ele>
        <time>2023-06-11T09:24:49Z</time>
      </trkpt>
      <trkpt lat="43.7203" lon="5.96945">
        <ele>359.4</ele>
        <time>2023-06-11T09:24:50Z</time>
      </trkpt>
      <trkpt lat="43.72031" lon="5.96944">
        <ele>359.4</ele>
        <time>2023-06-11T09:24:51Z</time>
      </trkpt>
      <trkpt lat="43.72032" lon="5.96942">
        <ele>359.3</ele>
        <time>2023-06-11T09:24:52Z</time>
      </trkpt>
      <trkpt lat="43.72034" lon="5.96941">
        <ele>359.3</ele>
        <time>2023-06-11T09:24:53Z</time>
      </trkpt>
      <trkpt lat="43.72035" lon="5.9694">
        <ele>359.3</ele>
        <time>2023-06-11T09:24:54Z</time>
      </trkpt>
      <trkpt lat="43.72036" lon="5.96938">
        <ele>359.3</ele>
        <time>2023-06-11T09:24:55Z</time>
      </trkpt>
      <trkpt lat="43.72037" lon="5.96937">
        <ele>359.3</ele>
        <time>2023-06-11T09:24:56Z</time>
      </trkpt>
      <trkpt lat="43.72038" lon="5.96935">
        <ele>359.3</ele>
        <time>2023-06-11T09:24:57Z</time>
      </trkpt>
      <trkpt lat="43.72039" lon="5.96934">
        <ele>359.2</ele>
        <time>2023-06-11T09:24:58Z</time>
      </trkpt>
      <trkpt lat="43.7204" lon="5.96932">
        <ele>359.2</ele>
        <time>2023-06-11T09:24:59Z</time>
      </trkpt>
      <trkpt lat="43.72041" lon="5.96931">
        <ele>359.2</ele>
        <time>2023-06-11T09:25:00Z</time>
      </trkpt>
      <trkpt lat="43.72042" lon="5.96929">
        <ele>359.2</ele>
        <time>2023-06-11T09:25:01Z</time>
      </trkpt>
      <trkpt lat="43.72043" lon="5.96928">
        <ele>359.2</ele>
        <time>2023-06-11T09:25:02Z</time>
      </trkpt>
      <trkpt lat="43.72043" lon="5.96926">
        <ele>359.3</ele>
        <time>2023-06-11T09:25:03Z</time>
      </trkpt>
      <trkpt lat="43.72044" lon="5.96925">
        <ele>359.4</ele>
        <time>2023-06-11T09:25:04Z</time>
      </trkpt>
      <trkpt lat="43.72045" lon="5.96923">
        <ele>359.4</ele>
        <time>2023-06-11T09:25:05Z</time>
      </trkpt>
      <trkpt lat="43.72046" lon="5.96921">
        <ele>359.4</ele>
        <time>2023-06-11T09:25:06Z</time>
      </trkpt>
      <trkpt lat="43.72047" lon="5.9692">
        <ele>359.4</ele>
        <time>2023-06-11T09:25:07Z</time>
      </trkpt>
      <trkpt lat="43.72047" lon="5.96918">
        <ele>359.4</ele>
        <time>2023-06-11T09:25:08Z</time>
      </trkpt>
      <trkpt lat="43.72048" lon="5.96916">
        <ele>359.4</ele>
        <time>2023-06-11T09:25:09Z</time>
      </trkpt>
      <trkpt lat="43.72049" lon="5.96915">
        <ele>359.4</ele>
        <time>2023-06-11T09:25:10Z</time>
      </trkpt>
      <trkpt lat="43.7205" lon="5.96913">
        <ele>359.4</ele>
        <time>2023-06-11T09:25:11Z</time>
      </trkpt>
      <trkpt lat="43.72051" lon="5.96911">
        <ele>359.4</ele>
        <time>2023-06-11T09:25:12Z</time>
      </trkpt>
      <trkpt lat="43.72051" lon="5.9691">
        <ele>359.3</ele>
        <time>2023-06-11T09:25:13Z</time>
      </trkpt>
      <trkpt lat="43.72052" lon="5.96908">
        <ele>359.3</ele>
        <time>2023-06-11T09:25:14Z</time>
      </trkpt>
      <trkpt lat="43.72052" lon="5.96906">
        <ele>359.2</ele>
        <time>2023-06-11T09:25:15Z</time>
      </trkpt>
      <trkpt lat="43.72052" lon="5.96904">
        <ele>359.2</ele>
        <time>2023-06-11T09:25:16Z</time>
      </trkpt>
      <trkpt lat="43.72052" lon="5.96901">
        <ele>359.1</ele>
        <time>2023-06-11T09:25:17Z</time>
      </trkpt>
      <trkpt lat="43.72052" lon="5.96899">
        <ele>359.1</ele>
        <time>2023-06-11T09:25:18Z</time>
      </trkpt>
      <trkpt lat="43.72052" lon="5.96897">
        <ele>359.1</ele>
        <time>2023-06-11T09:25:19Z</time>
      </trkpt>
      <trkpt lat="43.72053" lon="5.96894">
        <ele>359.1</ele>
        <time>2023-06-11T09:25:20Z</time>
      </trkpt>
      <trkpt lat="43.72053" lon="5.96892">
        <ele>359</ele>
        <time>2023-06-11T09:25:21Z</time>
      </trkpt>
      <trkpt lat="43.72053" lon="5.96889">
        <ele>359</ele>
        <time>2023-06-11T09:25:22Z</time>
      </trkpt>
      <trkpt lat="43.72053" lon="5.96887">
        <ele>358.9</ele>
        <time>2023-06-11T09:25:23Z</time>
      </trkpt>
      <trkpt lat="43.72053" lon="5.96885">
        <ele>358.9</ele>
        <time>2023-06-11T09:25:24Z</time>
      </trkpt>
      <trkpt lat="43.72054" lon="5.96883">
        <ele>358.9</ele>
        <time>2023-06-11T09:25:25Z</time>
      </trkpt>
      <trkpt lat="43.72054" lon="5.9688">
        <ele>358.9</ele>
        <time>2023-06-11T09:25:26Z</time>
      </trkpt>
      <trkpt lat="43.72054" lon="5.96878">
        <ele>359</ele>
        <time>2023-06-11T09:25:27Z</time>
      </trkpt>
      <trkpt lat="43.72054" lon="5.96876">
        <ele>359</ele>
        <time>2023-06-11T09:25:28Z</time>
      </trkpt>
      <trkpt lat="43.72054" lon="5.96874">
        <ele>359</ele>
        <time>2023-06-11T09:25:29Z</time>
      </trkpt>
      <trkpt lat="43.72054" lon="5.96872">
        <ele>359</ele>
        <time>2023-06-11T09:25:30Z</time>
      </trkpt>
      <trkpt lat="43.72054" lon="5.9687">
        <ele>359</ele>
        <time>2023-06-11T09:25:31Z</time>
      </trkpt>
      <trkpt lat="43.72054" lon="5.96868">
        <ele>359.1</ele>
        <time>2023-06-11T09:25:32Z</time>
      </trkpt>
      <trkpt lat="43.72054" lon="5.96866">
        <ele>359.1</ele>
        <time>2023-06-11T09:25:33Z</time>
      </trkpt>
      <trkpt lat="43.72054" lon="5.96863">
        <ele>359.2</ele>
        <time>2023-06-11T09:25:34Z</time>
      </trkpt>
      <trkpt lat="43.72055" lon="5.96862">
        <ele>359.2</ele>
        <time>2023-06-11T09:25:35Z</time>
      </trkpt>
      <trkpt lat="43.72055" lon="5.9686">
        <ele>359.1</ele>
        <time>2023-06-11T09:25:36Z</time>
      </trkpt>
      <trkpt lat="43.72055" lon="5.96858">
        <ele>359.1</ele>
        <time>2023-06-11T09:25:37Z</time>
      </trkpt>
      <trkpt lat="43.72056" lon="5.96856">
        <ele>359.2</ele>
        <time>2023-06-11T09:25:38Z</time>
      </trkpt>
      <trkpt lat="43.72056" lon="5.96854">
        <ele>359.2</ele>
        <time>2023-06-11T09:25:39Z</time>
      </trkpt>
      <trkpt lat="43.72057" lon="5.96852">
        <ele>359.3</ele>
        <time>2023-06-11T09:25:40Z</time>
      </trkpt>
      <trkpt lat="43.72057" lon="5.9685">
        <ele>359.2</ele>
        <time>2023-06-11T09:25:41Z</time>
      </trkpt>
      <trkpt lat="43.72058" lon="5.96848">
        <ele>359.2</ele>
        <time>2023-06-11T09:25:42Z</time>
      </trkpt>
      <trkpt lat="43.72058" lon="5.96846">
        <ele>359.2</ele>
        <time>2023-06-11T09:25:43Z</time>
      </trkpt>
      <trkpt lat="43.72058" lon="5.96844">
        <ele>359.2</ele>
        <time>2023-06-11T09:25:44Z</time>
      </trkpt>
      <trkpt lat="43.72059" lon="5.96843">
        <ele>359.2</ele>
        <time>2023-06-11T09:25:45Z</time>
      </trkpt>
      <trkpt lat="43.72059" lon="5.96841">
        <ele>359.2</ele>
        <time>2023-06-11T09:25:46Z</time>
      </trkpt>
      <trkpt lat="43.72059" lon="5.96839">
        <ele>359.1</ele>
        <time>2023-06-11T09:25:47Z</time>
      </trkpt>
      <trkpt lat="43.7206" lon="5.96837">
        <ele>359</ele>
        <time>2023-06-11T09:25:48Z</time>
      </trkpt>
      <trkpt lat="43.7206" lon="5.96835">
        <ele>359</ele>
        <time>2023-06-11T09:25:49Z</time>
      </trkpt>
      <trkpt lat="43.7206" lon="5.96833">
        <ele>358.9</ele>
        <time>2023-06-11T09:25:50Z</time>
      </trkpt>
      <trkpt lat="43.7206" lon="5.96831">
        <ele>358.9</ele>
        <time>2023-06-11T09:25:51Z</time>
      </trkpt>
      <trkpt lat="43.72061" lon="5.96829">
        <ele>358.9</ele>
        <time>2023-06-11T09:25:52Z</time>
      </trkpt>
      <trkpt lat="43.72061" lon="5.96827">
        <ele>358.9</ele>
        <time>2023-06-11T09:25:53Z</time>
      </trkpt>
      <trkpt lat="43.72061" lon="5.96825">
        <ele>358.9</ele>
        <time>2023-06-11T09:25:54Z</time>
      </trkpt>
      <trkpt lat="43.72062" lon="5.96823">
        <ele>359</ele>
        <time>2023-06-11T09:25:55Z</time>
      </trkpt>
      <trkpt lat="43.72062" lon="5.96821">
        <ele>359</ele>
        <time>2023-06-11T09:25:56Z</time>
      </trkpt>
      <trkpt lat="43.72063" lon="5.96819">
        <ele>359</ele>
        <time>2023-06-11T09:25:57Z</time>
      </trkpt>
      <trkpt lat="43.72063" lon="5.96818">
        <ele>359.1</ele>
        <time>2023-06-11T09:25:58Z</time>
      </trkpt>
      <trkpt lat="43.72064" lon="5.96816">
        <ele>359.1</ele>
        <time>2023-06-11T09:25:59Z</time>
      </trkpt>
      <trkpt lat="43.72064" lon="5.96814">
        <ele>359.1</ele>
        <time>2023-06-11T09:26:00Z</time>
      </trkpt>
      <trkpt lat="43.72065" lon="5.96812">
        <ele>359.2</ele>
        <time>2023-06-11T09:26:01Z</time>
      </trkpt>
      <trkpt lat="43.72065" lon="5.9681">
        <ele>359.2</ele>
        <time>2023-06-11T09:26:02Z</time>
      </trkpt>
      <trkpt lat="43.72066" lon="5.96808">
        <ele>359.3</ele>
        <time>2023-06-11T09:26:03Z</time>
      </trkpt>
      <trkpt lat="43.72066" lon="5.96806">
        <ele>359.3</ele>
        <time>2023-06-11T09:26:04Z</time>
      </trkpt>
      <trkpt lat="43.72067" lon="5.96805">
        <ele>359.3</ele>
        <time>2023-06-11T09:26:05Z</time>
      </trkpt>
      <trkpt lat="43.72067" lon="5.96803">
        <ele>359.3</ele>
        <time>2023-06-11T09:26:06Z</time>
      </trkpt>
      <trkpt lat="43.72068" lon="5.96801">
        <ele>359.3</ele>
        <time>2023-06-11T09:26:07Z</time>
      </trkpt>
      <trkpt lat="43.72068" lon="5.96799">
        <ele>359.2</ele>
        <time>2023-06-11T09:26:08Z</time>
      </trkpt>
      <trkpt lat="43.72069" lon="5.96798">
        <ele>359.1</ele>
        <time>2023-06-11T09:26:09Z</time>
      </trkpt>
      <trkpt lat="43.7207" lon="5.96796">
        <ele>359.1</ele>
        <time>2023-06-11T09:26:10Z</time>
      </trkpt>
      <trkpt lat="43.7207" lon="5.96794">
        <ele>359</ele>
        <time>2023-06-11T09:26:11Z</time>
      </trkpt>
      <trkpt lat="43.72071" lon="5.96792">
        <ele>359</ele>
        <time>2023-06-11T09:26:12Z</time>
      </trkpt>
      <trkpt lat="43.72071" lon="5.96791">
        <ele>359</ele>
        <time>2023-06-11T09:26:13Z</time>
      </trkpt>
      <trkpt lat="43.72072" lon="5.96789">
        <ele>359</ele>
        <time>2023-06-11T09:26:14Z</time>
      </trkpt>
      <trkpt lat="43.72072" lon="5.96787">
        <ele>359.1</ele>
        <time>2023-06-11T09:26:15Z</time>
      </trkpt>
      <trkpt lat="43.72073" lon="5.96785">
        <ele>359.1</ele>
        <time>2023-06-11T09:26:16Z</time>
      </trkpt>
      <trkpt lat="43.72073" lon="5.96783">
        <ele>359.2</ele>
        <time>2023-06-11T09:26:17Z</time>
      </trkpt>
      <trkpt lat="43.72074" lon="5.96782">
        <ele>359.2</ele>
        <time>2023-06-11T09:26:18Z</time>
      </trkpt>
      <trkpt lat="43.72074" lon="5.9678">
        <ele>359.2</ele>
        <time>2023-06-11T09:26:19Z</time>
      </trkpt>
      <trkpt lat="43.72075" lon="5.96778">
        <ele>359.3</ele>
        <time>2023-06-11T09:26:20Z</time>
      </trkpt>
      <trkpt lat="43.72075" lon="5.96776">
        <ele>359.3</ele>
        <time>2023-06-11T09:26:21Z</time>
      </trkpt>
      <trkpt lat="43.72076" lon="5.96774">
        <ele>359.3</ele>
        <time>2023-06-11T09:26:22Z</time>
      </trkpt>
      <trkpt lat="43.72076" lon="5.96772">
        <ele>359.3</ele>
        <time>2023-06-11T09:26:23Z</time>
      </trkpt>
      <trkpt lat="43.72077" lon="5.96771">
        <ele>359.3</ele>
        <time>2023-06-11T09:26:24Z</time>
      </trkpt>
      <trkpt lat="43.72077" lon="5.96769">
        <ele>359.3</ele>
        <time>2023-06-11T09:26:25Z</time>
      </trkpt>
      <trkpt lat="43.72077" lon="5.96767">
        <ele>359.3</ele>
        <time>2023-06-11T09:26:26Z</time>
      </trkpt>
      <trkpt lat="43.72078" lon="5.96765">
        <ele>359.4</ele>
        <time>2023-06-11T09:26:27Z</time>
      </trkpt>
      <trkpt lat="43.72078" lon="5.96764">
        <ele>359.4</ele>
        <time>2023-06-11T09:26:28Z</time>
      </trkpt>
      <trkpt lat="43.72078" lon="5.96762">
        <ele>359.5</ele>
        <time>2023-06-11T09:26:29Z</time>
      </trkpt>
      <trkpt lat="43.72079" lon="5.9676">
        <ele>359.5</ele>
        <time>2023-06-11T09:26:30Z</time>
      </trkpt>
      <trkpt lat="43.7208" lon="5.96758">
        <ele>359.4</ele>
        <time>2023-06-11T09:26:31Z</time>
      </trkpt>
      <trkpt lat="43.7208" lon="5.96757">
        <ele>359.4</ele>
        <time>2023-06-11T09:26:32Z</time>
      </trkpt>
      <trkpt lat="43.72081" lon="5.96755">
        <ele>359.3</ele>
        <time>2023-06-11T09:26:33Z</time>
      </trkpt>
      <trkpt lat="43.72081" lon="5.96753">
        <ele>359.3</ele>
        <time>2023-06-11T09:26:34Z</time>
      </trkpt>
      <trkpt lat="43.72082" lon="5.96751">
        <ele>359.3</ele>
        <time>2023-06-11T09:26:35Z</time>
      </trkpt>
      <trkpt lat="43.72083" lon="5.9675">
        <ele>359.2</ele>
        <time>2023-06-11T09:26:36Z</time>
      </trkpt>
      <trkpt lat="43.72083" lon="5.96748">
        <ele>359.2</ele>
        <time>2023-06-11T09:26:37Z</time>
      </trkpt>
      <trkpt lat="43.72084" lon="5.96746">
        <ele>359.2</ele>
        <time>2023-06-11T09:26:38Z</time>
      </trkpt>
      <trkpt lat="43.72085" lon="5.96744">
        <ele>359.2</ele>
        <time>2023-06-11T09:26:39Z</time>
      </trkpt>
      <trkpt lat="43.72085" lon="5.96743">
        <ele>359.2</ele>
        <time>2023-06-11T09:26:40Z</time>
      </trkpt>
      <trkpt lat="43.72086" lon="5.96741">
        <ele>359.2</ele>
        <time>2023-06-11T09:26:41Z</time>
      </trkpt>
      <trkpt lat="43.72086" lon="5.96739">
        <ele>359.2</ele>
        <time>2023-06-11T09:26:42Z</time>
      </trkpt>
      <trkpt lat="43.72087" lon="5.96738">
        <ele>359.3</ele>
        <time>2023-06-11T09:26:43Z</time>
      </trkpt>
      <trkpt lat="43.72088" lon="5.96736">
        <ele>359.3</ele>
        <time>2023-06-11T09:26:44Z</time>
      </trkpt>
      <trkpt lat="43.72088" lon="5.96734">
        <ele>359.2</ele>
        <time>2023-06-11T09:26:45Z</time>
      </trkpt>
      <trkpt lat="43.72089" lon="5.96733">
        <ele>359.1</ele>
        <time>2023-06-11T09:26:46Z</time>
      </trkpt>
      <trkpt lat="43.7209" lon="5.96731">
        <ele>359.2</ele>
        <time>2023-06-11T09:26:47Z</time>
      </trkpt>
      <trkpt lat="43.7209" lon="5.96729">
        <ele>359.3</ele>
        <time>2023-06-11T09:26:48Z</time>
      </trkpt>
      <trkpt lat="43.72091" lon="5.96728">
        <ele>359.3</ele>
        <time>2023-06-11T09:26:49Z</time>
      </trkpt>
      <trkpt lat="43.72092" lon="5.96726">
        <ele>359.4</ele>
        <time>2023-06-11T09:26:50Z</time>
      </trkpt>
      <trkpt lat="43.72093" lon="5.96725">
        <ele>359.4</ele>
        <time>2023-06-11T09:26:51Z</time>
      </trkpt>
      <trkpt lat="43.72093" lon="5.96723">
        <ele>359.4</ele>
        <time>2023-06-11T09:26:52Z</time>
      </trkpt>
      <trkpt lat="43.72094" lon="5.96721">
        <ele>359.4</ele>
        <time>2023-06-11T09:26:53Z</time>
      </trkpt>
      <trkpt lat="43.72095" lon="5.9672">
        <ele>359.4</ele>
        <time>2023-06-11T09:26:54Z</time>
      </trkpt>
      <trkpt lat="43.72095" lon="5.96718">
        <ele>359.4</ele>
        <time>2023-06-11T09:26:55Z</time>
      </trkpt>
      <trkpt lat="43.72096" lon="5.96716">
        <ele>359.4</ele>
        <time>2023-06-11T09:26:56Z</time>
      </trkpt>
      <trkpt lat="43.72097" lon="5.96715">
        <ele>359.4</ele>
        <time>2023-06-11T09:26:57Z</time>
      </trkpt>
      <trkpt lat="43.72098" lon="5.96713">
        <ele>359.3</ele>
        <time>2023-06-11T09:26:58Z</time>
      </trkpt>
      <trkpt lat="43.72098" lon="5.96712">
        <ele>359.3</ele>
        <time>2023-06-11T09:26:59Z</time>
      </trkpt>
      <trkpt lat="43.72099" lon="5.96711">
        <ele>359.3</ele>
        <time>2023-06-11T09:27:00Z</time>
      </trkpt>
      <trkpt lat="43.721" lon="5.96709">
        <ele>359.3</ele>
        <time>2023-06-11T09:27:01Z</time>
      </trkpt>
      <trkpt lat="43.72101" lon="5.96708">
        <ele>359.2</ele>
        <time>2023-06-11T09:27:02Z</time>
      </trkpt>
      <trkpt lat="43.72102" lon="5.96706">
        <ele>359.2</ele>
        <time>2023-06-11T09:27:03Z</time>
      </trkpt>
      <trkpt lat="43.72103" lon="5.96705">
        <ele>359.2</ele>
        <time>2023-06-11T09:27:04Z</time>
      </trkpt>
      <trkpt lat="43.72104" lon="5.96703">
        <ele>359.2</ele>
        <time>2023-06-11T09:27:05Z</time>
      </trkpt>
      <trkpt lat="43.72105" lon="5.96702">
        <ele>359.2</ele>
        <time>2023-06-11T09:27:06Z</time>
      </trkpt>
      <trkpt lat="43.72106" lon="5.967">
        <ele>359.2</ele>
        <time>2023-06-11T09:27:07Z</time>
      </trkpt>
      <trkpt lat="43.72107" lon="5.96699">
        <ele>359.2</ele>
        <time>2023-06-11T09:27:08Z</time>
      </trkpt>
      <trkpt lat="43.72108" lon="5.96698">
        <ele>359.2</ele>
        <time>2023-06-11T09:27:09Z</time>
      </trkpt>
      <trkpt lat="43.72109" lon="5.96696">
        <ele>359.1</ele>
        <time>2023-06-11T09:27:10Z</time>
      </trkpt>
      <trkpt lat="43.7211" lon="5.96695">
        <ele>359.1</ele>
        <time>2023-06-11T09:27:11Z</time>
      </trkpt>
      <trkpt lat="43.72111" lon="5.96693">
        <ele>359.1</ele>
        <time>2023-06-11T09:27:12Z</time>
      </trkpt>
      <trkpt lat="43.72112" lon="5.96692">
        <ele>359.2</ele>
        <time>2023-06-11T09:27:13Z</time>
      </trkpt>
      <trkpt lat="43.72113" lon="5.96691">
        <ele>359.3</ele>
        <time>2023-06-11T09:27:14Z</time>
      </trkpt>
      <trkpt lat="43.72114" lon="5.96689">
        <ele>359.3</ele>
        <time>2023-06-11T09:27:15Z</time>
      </trkpt>
      <trkpt lat="43.72114" lon="5.96688">
        <ele>359.4</ele>
        <time>2023-06-11T09:27:16Z</time>
      </trkpt>
      <trkpt lat="43.72115" lon="5.96687">
        <ele>359.5</ele>
        <time>2023-06-11T09:27:17Z</time>
      </trkpt>
      <trkpt lat="43.72116" lon="5.96685">
        <ele>359.5</ele>
        <time>2023-06-11T09:27:18Z</time>
      </trkpt>
      <trkpt lat="43.72117" lon="5.96684">
        <ele>359.5</ele>
        <time>2023-06-11T09:27:19Z</time>
      </trkpt>
      <trkpt lat="43.72118" lon="5.96683">
        <ele>359.6</ele>
        <time>2023-06-11T09:27:20Z</time>
      </trkpt>
      <trkpt lat="43.72119" lon="5.96681">
        <ele>359.5</ele>
        <time>2023-06-11T09:27:21Z</time>
      </trkpt>
      <trkpt lat="43.7212" lon="5.9668">
        <ele>359.4</ele>
        <time>2023-06-11T09:27:22Z</time>
      </trkpt>
      <trkpt lat="43.72121" lon="5.96678">
        <ele>359.4</ele>
        <time>2023-06-11T09:27:23Z</time>
      </trkpt>
      <trkpt lat="43.72122" lon="5.96677">
        <ele>359.3</ele>
        <time>2023-06-11T09:27:24Z</time>
      </trkpt>
      <trkpt lat="43.72123" lon="5.96675">
        <ele>359.3</ele>
        <time>2023-06-11T09:27:25Z</time>
      </trkpt>
      <trkpt lat="43.72124" lon="5.96674">
        <ele>359.2</ele>
        <time>2023-06-11T09:27:26Z</time>
      </trkpt>
      <trkpt lat="43.72125" lon="5.96672">
        <ele>359.2</ele>
        <time>2023-06-11T09:27:27Z</time>
      </trkpt>
      <trkpt lat="43.72126" lon="5.96671">
        <ele>359.2</ele>
        <time>2023-06-11T09:27:28Z</time>
      </trkpt>
      <trkpt lat="43.72127" lon="5.9667">
        <ele>359.2</ele>
        <time>2023-06-11T09:27:29Z</time>
      </trkpt>
      <trkpt lat="43.72128" lon="5.96668">
        <ele>359.2</ele>
        <time>2023-06-11T09:27:30Z</time>
      </trkpt>
      <trkpt lat="43.72129" lon="5.96667">
        <ele>359.2</ele>
        <time>2023-06-11T09:27:31Z</time>
      </trkpt>
      <trkpt lat="43.7213" lon="5.96666">
        <ele>359.2</ele>
        <time>2023-06-11T09:27:32Z</time>
      </trkpt>
      <trkpt lat="43.72131" lon="5.96664">
        <ele>359.2</ele>
        <time>2023-06-11T09:27:33Z</time>
      </trkpt>
      <trkpt lat="43.72132" lon="5.96663">
        <ele>359.2</ele>
        <time>2023-06-11T09:27:34Z</time>
      </trkpt>
      <trkpt lat="43.72133" lon="5.96661">
        <ele>359.1</ele>
        <time>2023-06-11T09:27:35Z</time>
      </trkpt>
      <trkpt lat="43.72134" lon="5.9666">
        <ele>359.1</ele>
        <time>2023-06-11T09:27:36Z</time>
      </trkpt>
      <trkpt lat="43.72135" lon="5.96658">
        <ele>359.2</ele>
        <time>2023-06-11T09:27:37Z</time>
      </trkpt>
      <trkpt lat="43.72136" lon="5.96657">
        <ele>359.2</ele>
        <time>2023-06-11T09:27:38Z</time>
      </trkpt>
      <trkpt lat="43.72137" lon="5.96656">
        <ele>359.2</ele>
        <time>2023-06-11T09:27:39Z</time>
      </trkpt>
      <trkpt lat="43.72138" lon="5.96655">
        <ele>359.2</ele>
        <time>2023-06-11T09:27:40Z</time>
      </trkpt>
      <trkpt lat="43.72139" lon="5.96653">
        <ele>359.2</ele>
        <time>2023-06-11T09:27:41Z</time>
      </trkpt>
      <trkpt lat="43.7214" lon="5.96652">
        <ele>359.2</ele>
        <time>2023-06-11T09:27:42Z</time>
      </trkpt>
      <trkpt lat="43.72141" lon="5.96651">
        <ele>359.3</ele>
        <time>2023-06-11T09:27:43Z</time>
      </trkpt>
      <trkpt lat="43.72143" lon="5.9665">
        <ele>359.3</ele>
        <time>2023-06-11T09:27:44Z</time>
      </trkpt>
      <trkpt lat="43.72144" lon="5.96649">
        <ele>359.2</ele>
        <time>2023-06-11T09:27:45Z</time>
      </trkpt>
      <trkpt lat="43.72146" lon="5.96648">
        <ele>359.2</ele>
        <time>2023-06-11T09:27:46Z</time>
      </trkpt>
      <trkpt lat="43.72147" lon="5.96647">
        <ele>359.2</ele>
        <time>2023-06-11T09:27:47Z</time>
      </trkpt>
      <trkpt lat="43.72148" lon="5.96646">
        <ele>359.2</ele>
        <time>2023-06-11T09:27:48Z</time>
      </trkpt>
      <trkpt lat="43.72149" lon="5.96646">
        <ele>359.2</ele>
        <time>2023-06-11T09:27:49Z</time>
      </trkpt>
      <trkpt lat="43.72151" lon="5.96645">
        <ele>359.2</ele>
        <time>2023-06-11T09:27:50Z</time>
      </trkpt>
      <trkpt lat="43.72152" lon="5.96644">
        <ele>359.2</ele>
        <time>2023-06-11T09:27:51Z</time>
      </trkpt>
      <trkpt lat="43.72154" lon="5.96644">
        <ele>359.2</ele>
        <time>2023-06-11T09:27:52Z</time>
      </trkpt>
      <trkpt lat="43.72155" lon="5.96643">
        <ele>359.2</ele>
        <time>2023-06-11T09:27:53Z</time>
      </trkpt>
      <trkpt lat="43.72157" lon="5.96642">
        <ele>359.2</ele>
        <time>2023-06-11T09:27:54Z</time>
      </trkpt>
      <trkpt lat="43.72158" lon="5.96642">
        <ele>359.1</ele>
        <time>2023-06-11T09:27:55Z</time>
      </trkpt>
      <trkpt lat="43.72159" lon="5.96641">
        <ele>359.1</ele>
        <time>2023-06-11T09:27:56Z</time>
      </trkpt>
      <trkpt lat="43.72161" lon="5.9664">
        <ele>359</ele>
        <time>2023-06-11T09:27:57Z</time>
      </trkpt>
      <trkpt lat="43.72162" lon="5.96639">
        <ele>359</ele>
        <time>2023-06-11T09:27:58Z</time>
      </trkpt>
      <trkpt lat="43.72164" lon="5.96639">
        <ele>359.1</ele>
        <time>2023-06-11T09:27:59Z</time>
      </trkpt>
      <trkpt lat="43.72165" lon="5.96638">
        <ele>359.1</ele>
        <time>2023-06-11T09:28:00Z</time>
      </trkpt>
      <trkpt lat="43.72166" lon="5.96637">
        <ele>359.1</ele>
        <time>2023-06-11T09:28:01Z</time>
      </trkpt>
      <trkpt lat="43.72168" lon="5.96636">
        <ele>359</ele>
        <time>2023-06-11T09:28:02Z</time>
      </trkpt>
      <trkpt lat="43.72169" lon="5.96636">
        <ele>359.1</ele>
        <time>2023-06-11T09:28:03Z</time>
      </trkpt>
      <trkpt lat="43.7217" lon="5.96635">
        <ele>359.1</ele>
        <time>2023-06-11T09:28:04Z</time>
      </trkpt>
      <trkpt lat="43.72172" lon="5.96634">
        <ele>359.2</ele>
        <time>2023-06-11T09:28:05Z</time>
      </trkpt>
      <trkpt lat="43.72173" lon="5.96633">
        <ele>359.2</ele>
        <time>2023-06-11T09:28:06Z</time>
      </trkpt>
      <trkpt lat="43.72174" lon="5.96633">
        <ele>359.3</ele>
        <time>2023-06-11T09:28:07Z</time>
      </trkpt>
      <trkpt lat="43.72176" lon="5.96632">
        <ele>359.2</ele>
        <time>2023-06-11T09:28:08Z</time>
      </trkpt>
      <trkpt lat="43.72177" lon="5.96631">
        <ele>359.3</ele>
        <time>2023-06-11T09:28:09Z</time>
      </trkpt>
      <trkpt lat="43.72178" lon="5.9663">
        <ele>359.3</ele>
        <time>2023-06-11T09:28:10Z</time>
      </trkpt>
      <trkpt lat="43.7218" lon="5.96629">
        <ele>359.3</ele>
        <time>2023-06-11T09:28:11Z</time>
      </trkpt>
      <trkpt lat="43.72181" lon="5.96628">
        <ele>359.2</ele>
        <time>2023-06-11T09:28:12Z</time>
      </trkpt>
      <trkpt lat="43.72182" lon="5.96628">
        <ele>359.1</ele>
        <time>2023-06-11T09:28:13Z</time>
      </trkpt>
      <trkpt lat="43.72183" lon="5.96627">
        <ele>359</ele>
        <time>2023-06-11T09:28:14Z</time>
      </trkpt>
      <trkpt lat="43.72185" lon="5.96626">
        <ele>359</ele>
        <time>2023-06-11T09:28:15Z</time>
      </trkpt>
      <trkpt lat="43.72186" lon="5.96625">
        <ele>358.9</ele>
        <time>2023-06-11T09:28:16Z</time>
      </trkpt>
      <trkpt lat="43.72187" lon="5.96624">
        <ele>358.9</ele>
        <time>2023-06-11T09:28:17Z</time>
      </trkpt>
      <trkpt lat="43.72188" lon="5.96623">
        <ele>359</ele>
        <time>2023-06-11T09:28:18Z</time>
      </trkpt>
      <trkpt lat="43.7219" lon="5.96622">
        <ele>359</ele>
        <time>2023-06-11T09:28:19Z</time>
      </trkpt>
      <trkpt lat="43.72191" lon="5.96622">
        <ele>359</ele>
        <time>2023-06-11T09:28:20Z</time>
      </trkpt>
      <trkpt lat="43.72192" lon="5.96621">
        <ele>359.1</ele>
        <time>2023-06-11T09:28:21Z</time>
      </trkpt>
      <trkpt lat="43.72193" lon="5.9662">
        <ele>359.1</ele>
        <time>2023-06-11T09:28:22Z</time>
      </trkpt>
      <trkpt lat="43.72195" lon="5.96619">
        <ele>359.1</ele>
        <time>2023-06-11T09:28:23Z</time>
      </trkpt>
      <trkpt lat="43.72196" lon="5.96618">
        <ele>359.1</ele>
        <time>2023-06-11T09:28:24Z</time>
      </trkpt>
      <trkpt lat="43.72197" lon="5.96618">
        <ele>359.2</ele>
        <time>2023-06-11T09:28:25Z</time>
      </trkpt>
      <trkpt lat="43.72199" lon="5.96617">
        <ele>359.3</ele>
        <time>2023-06-11T09:28:26Z</time>
      </trkpt>
      <trkpt lat="43.722" lon="5.96616">
        <ele>359.4</ele>
        <time>2023-06-11T09:28:27Z</time>
      </trkpt>
      <trkpt lat="43.72201" lon="5.96615">
        <ele>359.4</ele>
        <time>2023-06-11T09:28:28Z</time>
      </trkpt>
      <trkpt lat="43.72203" lon="5.96615">
        <ele>359.4</ele>
        <time>2023-06-11T09:28:29Z</time>
      </trkpt>
      <trkpt lat="43.72204" lon="5.96614">
        <ele>359.4</ele>
        <time>2023-06-11T09:28:30Z</time>
      </trkpt>
      <trkpt lat="43.72205" lon="5.96613">
        <ele>359.5</ele>
        <time>2023-06-11T09:28:31Z</time>
      </trkpt>
      <trkpt lat="43.72207" lon="5.96612">
        <ele>359.5</ele>
        <time>2023-06-11T09:28:32Z</time>
      </trkpt>
      <trkpt lat="43.72208" lon="5.96611">
        <ele>359.4</ele>
        <time>2023-06-11T09:28:33Z</time>
      </trkpt>
      <trkpt lat="43.7221" lon="5.96611">
        <ele>359.4</ele>
        <time>2023-06-11T09:28:34Z</time>
      </trkpt>
      <trkpt lat="43.72211" lon="5.9661">
        <ele>359.3</ele>
        <time>2023-06-11T09:28:35Z</time>
      </trkpt>
      <trkpt lat="43.72212" lon="5.96609">
        <ele>359.3</ele>
        <time>2023-06-11T09:28:36Z</time>
      </trkpt>
      <trkpt lat="43.72214" lon="5.96608">
        <ele>359.3</ele>
        <time>2023-06-11T09:28:37Z</time>
      </trkpt>
      <trkpt lat="43.72215" lon="5.96607">
        <ele>359.2</ele>
        <time>2023-06-11T09:28:38Z</time>
      </trkpt>
      <trkpt lat="43.72216" lon="5.96607">
        <ele>359.2</ele>
        <time>2023-06-11T09:28:39Z</time>
      </trkpt>
      <trkpt lat="43.72218" lon="5.96606">
        <ele>359.2</ele>
        <time>2023-06-11T09:28:40Z</time>
      </trkpt>
      <trkpt lat="43.72219" lon="5.96605">
        <ele>359.2</ele>
        <time>2023-06-11T09:28:41Z</time>
      </trkpt>
      <trkpt lat="43.7222" lon="5.96605">
        <ele>359.2</ele>
        <time>2023-06-11T09:28:42Z</time>
      </trkpt>
      <trkpt lat="43.72222" lon="5.96604">
        <ele>359.2</ele>
        <time>2023-06-11T09:28:43Z</time>
      </trkpt>
      <trkpt lat="43.72223" lon="5.96603">
        <ele>359.2</ele>
        <time>2023-06-11T09:28:44Z</time>
      </trkpt>
      <trkpt lat="43.72224" lon="5.96602">
        <ele>359.1</ele>
        <time>2023-06-11T09:28:45Z</time>
      </trkpt>
      <trkpt lat="43.72226" lon="5.96602">
        <ele>359.1</ele>
        <time>2023-06-11T09:28:46Z</time>
      </trkpt>
      <trkpt lat="43.72227" lon="5.96601">
        <ele>359.1</ele>
        <time>2023-06-11T09:28:47Z</time>
      </trkpt>
      <trkpt lat="43.72228" lon="5.966">
        <ele>359</ele>
        <time>2023-06-11T09:28:48Z</time>
      </trkpt>
      <trkpt lat="43.7223" lon="5.96599">
        <ele>359</ele>
        <time>2023-06-11T09:28:49Z</time>
      </trkpt>
      <trkpt lat="43.72231" lon="5.96598">
        <ele>359</ele>
        <time>2023-06-11T09:28:50Z</time>
      </trkpt>
      <trkpt lat="43.72232" lon="5.96598">
        <ele>359</ele>
        <time>2023-06-11T09:28:51Z</time>
      </trkpt>
      <trkpt lat="43.72233" lon="5.96597">
        <ele>359.1</ele>
        <time>2023-06-11T09:28:52Z</time>
      </trkpt>
      <trkpt lat="43.72235" lon="5.96596">
        <ele>359.2</ele>
        <time>2023-06-11T09:28:53Z</time>
      </trkpt>
      <trkpt lat="43.72236" lon="5.96595">
        <ele>359.2</ele>
        <time>2023-06-11T09:28:54Z</time>
      </trkpt>
      <trkpt lat="43.72237" lon="5.96594">
        <ele>359.2</ele>
        <time>2023-06-11T09:28:55Z</time>
      </trkpt>
      <trkpt lat="43.72238" lon="5.96594">
        <ele>359.2</ele>
        <time>2023-06-11T09:28:56Z</time>
      </trkpt>
      <trkpt lat="43.7224" lon="5.96593">
        <ele>359.2</ele>
        <time>2023-06-11T09:28:57Z</time>
      </trkpt>
      <trkpt lat="43.72241" lon="5.96592">
        <ele>359.2</ele>
        <time>2023-06-11T09:28:58Z</time>
      </trkpt>
      <trkpt lat="43.72242" lon="5.96591">
        <ele>359.2</ele>
        <time>2023-06-11T09:28:59Z</time>
      </trkpt>
      <trkpt lat="43.72243" lon="5.9659">
        <ele>359.3</ele>
        <time>2023-06-11T09:29:00Z</time>
      </trkpt>
      <trkpt lat="43.72244" lon="5.9659">
        <ele>359.3</ele>
        <time>2023-06-11T09:29:01Z</time>
      </trkpt>
      <trkpt lat="43.72245" lon="5.96589">
        <ele>359.3</ele>
        <time>2023-06-11T09:29:02Z</time>
      </trkpt>
      <trkpt lat="43.72247" lon="5.96588">
        <ele>359.3</ele>
        <time>2023-06-11T09:29:03Z</time>
      </trkpt>
      <trkpt lat="43.72248" lon="5.96587">
        <ele>359.2</ele>
        <time>2023-06-11T09:29:04Z</time>
      </trkpt>
      <trkpt lat="43.72249" lon="5.96586">
        <ele>359.2</ele>
        <time>2023-06-11T09:29:05Z</time>
      </trkpt>
      <trkpt lat="43.7225" lon="5.96585">
        <ele>359.2</ele>
        <time>2023-06-11T09:29:06Z</time>
      </trkpt>
      <trkpt lat="43.72251" lon="5.96584">
        <ele>359.2</ele>
        <time>2023-06-11T09:29:07Z</time>
      </trkpt>
      <trkpt lat="43.72253" lon="5.96584">
        <ele>359.2</ele>
        <time>2023-06-11T09:29:08Z</time>
      </trkpt>
      <trkpt lat="43.72254" lon="5.96583">
        <ele>359.2</ele>
        <time>2023-06-11T09:29:09Z</time>
      </trkpt>
      <trkpt lat="43.72255" lon="5.96582">
        <ele>359.2</ele>
        <time>2023-06-11T09:29:10Z</time>
      </trkpt>
      <trkpt lat="43.72256" lon="5.96581">
        <ele>359.2</ele>
        <time>2023-06-11T09:29:11Z</time>
      </trkpt>
      <trkpt lat="43.72258" lon="5.96581">
        <ele>359.2</ele>
        <time>2023-06-11T09:29:12Z</time>
      </trkpt>
      <trkpt lat="43.72259" lon="5.9658">
        <ele>359.3</ele>
        <time>2023-06-11T09:29:13Z</time>
      </trkpt>
      <trkpt lat="43.7226" lon="5.96579">
        <ele>359.2</ele>
        <time>2023-06-11T09:29:14Z</time>
      </trkpt>
      <trkpt lat="43.72261" lon="5.96578">
        <ele>359.2</ele>
        <time>2023-06-11T09:29:15Z</time>
      </trkpt>
      <trkpt lat="43.72262" lon="5.96577">
        <ele>359.2</ele>
        <time>2023-06-11T09:29:16Z</time>
      </trkpt>
      <trkpt lat="43.72264" lon="5.96577">
        <ele>359.2</ele>
        <time>2023-06-11T09:29:17Z</time>
      </trkpt>
      <trkpt lat="43.72265" lon="5.96576">
        <ele>359.3</ele>
        <time>2023-06-11T09:29:18Z</time>
      </trkpt>
      <trkpt lat="43.72266" lon="5.96575">
        <ele>359.3</ele>
        <time>2023-06-11T09:29:19Z</time>
      </trkpt>
      <trkpt lat="43.72267" lon="5.96574">
        <ele>359.3</ele>
        <time>2023-06-11T09:29:20Z</time>
      </trkpt>
      <trkpt lat="43.72268" lon="5.96573">
        <ele>359.3</ele>
        <time>2023-06-11T09:29:21Z</time>
      </trkpt>
      <trkpt lat="43.72269" lon="5.96572">
        <ele>359.3</ele>
        <time>2023-06-11T09:29:22Z</time>
      </trkpt>
      <trkpt lat="43.72271" lon="5.96571">
        <ele>359.4</ele>
        <time>2023-06-11T09:29:23Z</time>
      </trkpt>
      <trkpt lat="43.72272" lon="5.96571">
        <ele>359.3</ele>
        <time>2023-06-11T09:29:24Z</time>
      </trkpt>
      <trkpt lat="43.72273" lon="5.9657">
        <ele>359.3</ele>
        <time>2023-06-11T09:29:25Z</time>
      </trkpt>
      <trkpt lat="43.72274" lon="5.96569">
        <ele>359.3</ele>
        <time>2023-06-11T09:29:26Z</time>
      </trkpt>
      <trkpt lat="43.72275" lon="5.96568">
        <ele>359.2</ele>
        <time>2023-06-11T09:29:27Z</time>
      </trkpt>
      <trkpt lat="43.72277" lon="5.96567">
        <ele>359.1</ele>
        <time>2023-06-11T09:29:28Z</time>
      </trkpt>
      <trkpt lat="43.72278" lon="5.96566">
        <ele>359.1</ele>
        <time>2023-06-11T09:29:29Z</time>
      </trkpt>
      <trkpt lat="43.72279" lon="5.96566">
        <ele>359</ele>
        <time>2023-06-11T09:29:30Z</time>
      </trkpt>
      <trkpt lat="43.7228" lon="5.96565">
        <ele>359</ele>
        <time>2023-06-11T09:29:31Z</time>
      </trkpt>
      <trkpt lat="43.72282" lon="5.96564">
        <ele>359</ele>
        <time>2023-06-11T09:29:32Z</time>
      </trkpt>
      <trkpt lat="43.72283" lon="5.96563">
        <ele>359</ele>
        <time>2023-06-11T09:29:33Z</time>
      </trkpt>
      <trkpt lat="43.72284" lon="5.96562">
        <ele>358.9</ele>
        <time>2023-06-11T09:29:34Z</time>
      </trkpt>
      <trkpt lat="43.72285" lon="5.96562">
        <ele>358.9</ele>
        <time>2023-06-11T09:29:35Z</time>
      </trkpt>
      <trkpt lat="43.72287" lon="5.96561">
        <ele>358.9</ele>
        <time>2023-06-11T09:29:36Z</time>
      </trkpt>
      <trkpt lat="43.72288" lon="5.9656">
        <ele>359</ele>
        <time>2023-06-11T09:29:37Z</time>
      </trkpt>
      <trkpt lat="43.72289" lon="5.96559">
        <ele>359</ele>
        <time>2023-06-11T09:29:38Z</time>
      </trkpt>
      <trkpt lat="43.7229" lon="5.96558">
        <ele>359</ele>
        <time>2023-06-11T09:29:39Z</time>
      </trkpt>
      <trkpt lat="43.72291" lon="5.96557">
        <ele>359.1</ele>
        <time>2023-06-11T09:29:40Z</time>
      </trkpt>
      <trkpt lat="43.72293" lon="5.96556">
        <ele>359.1</ele>
        <time>2023-06-11T09:29:41Z</time>
      </trkpt>
      <trkpt lat="43.72294" lon="5.96556">
        <ele>359.2</ele>
        <time>2023-06-11T09:29:42Z</time>
      </trkpt>
      <trkpt lat="43.72295" lon="5.96555">
        <ele>359.2</ele>
        <time>2023-06-11T09:29:43Z</time>
      </trkpt>
      <trkpt lat="43.72296" lon="5.96554">
        <ele>359.2</ele>
        <time>2023-06-11T09:29:44Z</time>
      </trkpt>
      <trkpt lat="43.72298" lon="5.96553">
        <ele>359.1</ele>
        <time>2023-06-11T09:29:45Z</time>
      </trkpt>
      <trkpt lat="43.72299" lon="5.96552">
        <ele>359.1</ele>
        <time>2023-06-11T09:29:46Z</time>
      </trkpt>
      <trkpt lat="43.723" lon="5.96551">
        <ele>359.1</ele>
        <time>2023-06-11T09:29:47Z</time>
      </trkpt>
      <trkpt lat="43.72301" lon="5.96551">
        <ele>359.1</ele>
        <time>2023-06-11T09:29:48Z</time>
      </trkpt>
      <trkpt lat="43.72303" lon="5.9655">
        <ele>359.1</ele>
        <time>2023-06-11T09:29:49Z</time>
      </trkpt>
      <trkpt lat="43.72304" lon="5.96549">
        <ele>359</ele>
        <time>2023-06-11T09:29:50Z</time>
      </trkpt>
      <trkpt lat="43.72305" lon="5.96548">
        <ele>358.9</ele>
        <time>2023-06-11T09:29:51Z</time>
      </trkpt>
      <trkpt lat="43.72307" lon="5.96548">
        <ele>358.9</ele>
        <time>2023-06-11T09:29:52Z</time>
      </trkpt>
      <trkpt lat="43.72308" lon="5.96547">
        <ele>358.9</ele>
        <time>2023-06-11T09:29:53Z</time>
      </trkpt>
      <trkpt lat="43.72309" lon="5.96546">
        <ele>358.8</ele>
        <time>2023-06-11T09:29:54Z</time>
      </trkpt>
      <trkpt lat="43.7231" lon="5.96546">
        <ele>358.9</ele>
        <time>2023-06-11T09:29:55Z</time>
      </trkpt>
      <trkpt lat="43.72312" lon="5.96545">
        <ele>358.9</ele>
        <time>2023-06-11T09:29:56Z</time>
      </trkpt>
      <trkpt lat="43.72313" lon="5.96544">
        <ele>359</ele>
        <time>2023-06-11T09:29:57Z</time>
      </trkpt>
      <trkpt lat="43.72314" lon="5.96544">
        <ele>359</ele>
        <time>2023-06-11T09:29:58Z</time>
      </trkpt>
      <trkpt lat="43.72315" lon="5.96543">
        <ele>359.1</ele>
        <time>2023-06-11T09:29:59Z</time>
      </trkpt>
      <trkpt lat="43.72317" lon="5.96542">
        <ele>359.2</ele>
        <time>2023-06-11T09:30:00Z</time>
      </trkpt>
      <trkpt lat="43.72318" lon="5.96542">
        <ele>359.2</ele>
        <time>2023-06-11T09:30:01Z</time>
      </trkpt>
      <trkpt lat="43.72319" lon="5.96541">
        <ele>359.3</ele>
        <time>2023-06-11T09:30:02Z</time>
      </trkpt>
      <trkpt lat="43.72321" lon="5.96541">
        <ele>359.3</ele>
        <time>2023-06-11T09:30:03Z</time>
      </trkpt>
      <trkpt lat="43.72322" lon="5.9654">
        <ele>359.3</ele>
        <time>2023-06-11T09:30:04Z</time>
      </trkpt>
      <trkpt lat="43.72323" lon="5.96539">
        <ele>359.3</ele>
        <time>2023-06-11T09:30:05Z</time>
      </trkpt>
      <trkpt lat="43.72324" lon="5.96539">
        <ele>359.4</ele>
        <time>2023-06-11T09:30:06Z</time>
      </trkpt>
      <trkpt lat="43.72326" lon="5.96538">
        <ele>359.4</ele>
        <time>2023-06-11T09:30:07Z</time>
      </trkpt>
      <trkpt lat="43.72327" lon="5.96538">
        <ele>359.5</ele>
        <time>2023-06-11T09:30:08Z</time>
      </trkpt>
      <trkpt lat="43.72328" lon="5.96537">
        <ele>359.5</ele>
        <time>2023-06-11T09:30:09Z</time>
      </trkpt>
      <trkpt lat="43.7233" lon="5.96536">
        <ele>359.6</ele>
        <time>2023-06-11T09:30:10Z</time>
      </trkpt>
      <trkpt lat="43.72331" lon="5.96536">
        <ele>359.6</ele>
        <time>2023-06-11T09:30:11Z</time>
      </trkpt>
      <trkpt lat="43.72332" lon="5.96535">
        <ele>359.6</ele>
        <time>2023-06-11T09:30:12Z</time>
      </trkpt>
      <trkpt lat="43.72334" lon="5.96534">
        <ele>359.6</ele>
        <time>2023-06-11T09:30:13Z</time>
      </trkpt>
      <trkpt lat="43.72335" lon="5.96534">
        <ele>359.6</ele>
        <time>2023-06-11T09:30:14Z</time>
      </trkpt>
      <trkpt lat="43.72336" lon="5.96533">
        <ele>359.6</ele>
        <time>2023-06-11T09:30:15Z</time>
      </trkpt>
      <trkpt lat="43.72338" lon="5.96533">
        <ele>359.6</ele>
        <time>2023-06-11T09:30:16Z</time>
      </trkpt>
      <trkpt lat="43.72339" lon="5.96532">
        <ele>359.6</ele>
        <time>2023-06-11T09:30:17Z</time>
      </trkpt>
      <trkpt lat="43.7234" lon="5.96532">
        <ele>359.6</ele>
        <time>2023-06-11T09:30:18Z</time>
      </trkpt>
      <trkpt lat="43.72342" lon="5.96531">
        <ele>359.6</ele>
        <time>2023-06-11T09:30:19Z</time>
      </trkpt>
      <trkpt lat="43.72343" lon="5.96531">
        <ele>359.6</ele>
        <time>2023-06-11T09:30:20Z</time>
      </trkpt>
      <trkpt lat="43.72344" lon="5.9653">
        <ele>359.6</ele>
        <time>2023-06-11T09:30:21Z</time>
      </trkpt>
      <trkpt lat="43.72346" lon="5.9653">
        <ele>359.5</ele>
        <time>2023-06-11T09:30:22Z</time>
      </trkpt>
      <trkpt lat="43.72347" lon="5.96529">
        <ele>359.5</ele>
        <time>2023-06-11T09:30:23Z</time>
      </trkpt>
      <trkpt lat="43.72348" lon="5.96529">
        <ele>359.4</ele>
        <time>2023-06-11T09:30:24Z</time>
      </trkpt>
      <trkpt lat="43.7235" lon="5.96528">
        <ele>359.4</ele>
        <time>2023-06-11T09:30:25Z</time>
      </trkpt>
      <trkpt lat="43.72351" lon="5.96527">
        <ele>359.4</ele>
        <time>2023-06-11T09:30:26Z</time>
      </trkpt>
      <trkpt lat="43.72352" lon="5.96527">
        <ele>359.3</ele>
        <time>2023-06-11T09:30:27Z</time>
      </trkpt>
      <trkpt lat="43.72354" lon="5.96526">
        <ele>359.3</ele>
        <time>2023-06-11T09:30:28Z</time>
      </trkpt>
      <trkpt lat="43.72355" lon="5.96525">
        <ele>359.3</ele>
        <time>2023-06-11T09:30:29Z</time>
      </trkpt>
      <trkpt lat="43.72356" lon="5.96525">
        <ele>359.2</ele>
        <time>2023-06-11T09:30:30Z</time>
      </trkpt>
      <trkpt lat="43.72357" lon="5.96524">
        <ele>359.3</ele>
        <time>2023-06-11T09:30:31Z</time>
      </trkpt>
      <trkpt lat="43.72359" lon="5.96523">
        <ele>359.3</ele>
        <time>2023-06-11T09:30:32Z</time>
      </trkpt>
      <trkpt lat="43.7236" lon="5.96523">
        <ele>359.3</ele>
        <time>2023-06-11T09:30:33Z</time>
      </trkpt>
      <trkpt lat="43.72361" lon="5.96522">
        <ele>359.2</ele>
        <time>2023-06-11T09:30:34Z</time>
      </trkpt>
      <trkpt lat="43.72363" lon="5.96521">
        <ele>359.2</ele>
        <time>2023-06-11T09:30:35Z</time>
      </trkpt>
      <trkpt lat="43.72364" lon="5.96521">
        <ele>359.2</ele>
        <time>2023-06-11T09:30:36Z</time>
      </trkpt>
      <trkpt lat="43.72365" lon="5.9652">
        <ele>359.1</ele>
        <time>2023-06-11T09:30:37Z</time>
      </trkpt>
      <trkpt lat="43.72367" lon="5.96519">
        <ele>359.1</ele>
        <time>2023-06-11T09:30:38Z</time>
      </trkpt>
      <trkpt lat="43.72368" lon="5.96518">
        <ele>359.1</ele>
        <time>2023-06-11T09:30:39Z</time>
      </trkpt>
      <trkpt lat="43.72369" lon="5.96517">
        <ele>359.1</ele>
        <time>2023-06-11T09:30:40Z</time>
      </trkpt>
      <trkpt lat="43.7237" lon="5.96517">
        <ele>359.1</ele>
        <time>2023-06-11T09:30:41Z</time>
      </trkpt>
      <trkpt lat="43.72372" lon="5.96516">
        <ele>359</ele>
        <time>2023-06-11T09:30:42Z</time>
      </trkpt>
      <trkpt lat="43.72373" lon="5.96515">
        <ele>358.9</ele>
        <time>2023-06-11T09:30:43Z</time>
      </trkpt>
      <trkpt lat="43.72374" lon="5.96514">
        <ele>358.9</ele>
        <time>2023-06-11T09:30:44Z</time>
      </trkpt>
      <trkpt lat="43.72375" lon="5.96513">
        <ele>358.9</ele>
        <time>2023-06-11T09:30:45Z</time>
      </trkpt>
      <trkpt lat="43.72377" lon="5.96512">
        <ele>359</ele>
        <time>2023-06-11T09:30:46Z</time>
      </trkpt>
      <trkpt lat="43.72378" lon="5.96511">
        <ele>359</ele>
        <time>2023-06-11T09:30:47Z</time>
      </trkpt>
      <trkpt lat="43.72379" lon="5.9651">
        <ele>359</ele>
        <time>2023-06-11T09:30:48Z</time>
      </trkpt>
      <trkpt lat="43.7238" lon="5.96509">
        <ele>359.1</ele>
        <time>2023-06-11T09:30:49Z</time>
      </trkpt>
      <trkpt lat="43.72381" lon="5.96509">
        <ele>359.1</ele>
        <time>2023-06-11T09:30:50Z</time>
      </trkpt>
      <trkpt lat="43.72383" lon="5.96508">
        <ele>359.1</ele>
        <time>2023-06-11T09:30:51Z</time>
      </trkpt>
      <trkpt lat="43.72384" lon="5.96507">
        <ele>359.2</ele>
        <time>2023-06-11T09:30:52Z</time>
      </trkpt>
      <trkpt lat="43.72385" lon="5.96506">
        <ele>359.2</ele>
        <time>2023-06-11T09:30:53Z</time>
      </trkpt>
      <trkpt lat="43.72386" lon="5.96505">
        <ele>359.1</ele>
        <time>2023-06-11T09:30:54Z</time>
      </trkpt>
      <trkpt lat="43.72387" lon="5.96504">
        <ele>359.2</ele>
        <time>2023-06-11T09:30:55Z</time>
      </trkpt>
      <trkpt lat="43.72388" lon="5.96503">
        <ele>359.2</ele>
        <time>2023-06-11T09:30:56Z</time>
      </trkpt>
      <trkpt lat="43.72389" lon="5.96502">
        <ele>359.2</ele>
        <time>2023-06-11T09:30:57Z</time>
      </trkpt>
      <trkpt lat="43.7239" lon="5.965">
        <ele>359.2</ele>
        <time>2023-06-11T09:30:58Z</time>
      </trkpt>
      <trkpt lat="43.72391" lon="5.96499">
        <ele>359.1</ele>
        <time>2023-06-11T09:30:59Z</time>
      </trkpt>
      <trkpt lat="43.72392" lon="5.96498">
        <ele>359</ele>
        <time>2023-06-11T09:31:00Z</time>
      </trkpt>
      <trkpt lat="43.72393" lon="5.96497">
        <ele>358.9</ele>
        <time>2023-06-11T09:31:01Z</time>
      </trkpt>
      <trkpt lat="43.72394" lon="5.96496">
        <ele>358.9</ele>
        <time>2023-06-11T09:31:02Z</time>
      </trkpt>
      <trkpt lat="43.72395" lon="5.96495">
        <ele>358.8</ele>
        <time>2023-06-11T09:31:03Z</time>
      </trkpt>
      <trkpt lat="43.72396" lon="5.96493">
        <ele>358.8</ele>
        <time>2023-06-11T09:31:04Z</time>
      </trkpt>
      <trkpt lat="43.72397" lon="5.96492">
        <ele>358.8</ele>
        <time>2023-06-11T09:31:05Z</time>
      </trkpt>
      <trkpt lat="43.72398" lon="5.96491">
        <ele>358.8</ele>
        <time>2023-06-11T09:31:06Z</time>
      </trkpt>
      <trkpt lat="43.72399" lon="5.96489">
        <ele>358.8</ele>
        <time>2023-06-11T09:31:07Z</time>
      </trkpt>
      <trkpt lat="43.724" lon="5.96488">
        <ele>358.9</ele>
        <time>2023-06-11T09:31:08Z</time>
      </trkpt>
      <trkpt lat="43.72401" lon="5.96487">
        <ele>358.8</ele>
        <time>2023-06-11T09:31:09Z</time>
      </trkpt>
      <trkpt lat="43.72402" lon="5.96486">
        <ele>358.7</ele>
        <time>2023-06-11T09:31:10Z</time>
      </trkpt>
      <trkpt lat="43.72403" lon="5.96484">
        <ele>358.8</ele>
        <time>2023-06-11T09:31:11Z</time>
      </trkpt>
      <trkpt lat="43.72404" lon="5.96483">
        <ele>358.8</ele>
        <time>2023-06-11T09:31:12Z</time>
      </trkpt>
      <trkpt lat="43.72405" lon="5.96482">
        <ele>358.8</ele>
        <time>2023-06-11T09:31:13Z</time>
      </trkpt>
      <trkpt lat="43.72406" lon="5.96481">
        <ele>358.7</ele>
        <time>2023-06-11T09:31:14Z</time>
      </trkpt>
      <trkpt lat="43.72407" lon="5.96479">
        <ele>358.7</ele>
        <time>2023-06-11T09:31:15Z</time>
      </trkpt>
      <trkpt lat="43.72408" lon="5.96478">
        <ele>358.7</ele>
        <time>2023-06-11T09:31:16Z</time>
      </trkpt>
      <trkpt lat="43.72409" lon="5.96477">
        <ele>358.7</ele>
        <time>2023-06-11T09:31:17Z</time>
      </trkpt>
      <trkpt lat="43.7241" lon="5.96476">
        <ele>358.6</ele>
        <time>2023-06-11T09:31:18Z</time>
      </trkpt>
      <trkpt lat="43.72411" lon="5.96475">
        <ele>358.6</ele>
        <time>2023-06-11T09:31:19Z</time>
      </trkpt>
      <trkpt lat="43.72412" lon="5.96473">
        <ele>358.5</ele>
        <time>2023-06-11T09:31:20Z</time>
      </trkpt>
      <trkpt lat="43.72413" lon="5.96472">
        <ele>358.5</ele>
        <time>2023-06-11T09:31:21Z</time>
      </trkpt>
      <trkpt lat="43.72414" lon="5.96471">
        <ele>358.6</ele>
        <time>2023-06-11T09:31:22Z</time>
      </trkpt>
      <trkpt lat="43.72415" lon="5.9647">
        <ele>358.6</ele>
        <time>2023-06-11T09:31:23Z</time>
      </trkpt>
      <trkpt lat="43.72416" lon="5.96468">
        <ele>358.6</ele>
        <time>2023-06-11T09:31:24Z</time>
      </trkpt>
      <trkpt lat="43.72418" lon="5.96467">
        <ele>358.6</ele>
        <time>2023-06-11T09:31:25Z</time>
      </trkpt>
      <trkpt lat="43.72419" lon="5.96466">
        <ele>358.6</ele>
        <time>2023-06-11T09:31:26Z</time>
      </trkpt>
      <trkpt lat="43.7242" lon="5.96465">
        <ele>358.6</ele>
        <time>2023-06-11T09:31:27Z</time>
      </trkpt>
      <trkpt lat="43.72421" lon="5.96464">
        <ele>358.6</ele>
        <time>2023-06-11T09:31:28Z</time>
      </trkpt>
      <trkpt lat="43.72423" lon="5.96463">
        <ele>358.7</ele>
        <time>2023-06-11T09:31:29Z</time>
      </trkpt>
      <trkpt lat="43.72424" lon="5.96462">
        <ele>358.7</ele>
        <time>2023-06-11T09:31:30Z</time>
      </trkpt>
      <trkpt lat="43.72425" lon="5.96462">
        <ele>358.7</ele>
        <time>2023-06-11T09:31:31Z</time>
      </trkpt>
      <trkpt lat="43.72427" lon="5.96461">
        <ele>358.7</ele>
        <time>2023-06-11T09:31:32Z</time>
      </trkpt>
      <trkpt lat="43.72428" lon="5.9646">
        <ele>358.7</ele>
        <time>2023-06-11T09:31:33Z</time>
      </trkpt>
      <trkpt lat="43.72429" lon="5.96459">
        <ele>358.7</ele>
        <time>2023-06-11T09:31:34Z</time>
      </trkpt>
      <trkpt lat="43.72431" lon="5.96458">
        <ele>358.8</ele>
        <time>2023-06-11T09:31:35Z</time>
      </trkpt>
      <trkpt lat="43.72432" lon="5.96457">
        <ele>358.8</ele>
        <time>2023-06-11T09:31:36Z</time>
      </trkpt>
      <trkpt lat="43.72433" lon="5.96456">
        <ele>358.8</ele>
        <time>2023-06-11T09:31:37Z</time>
      </trkpt>
      <trkpt lat="43.72434" lon="5.96455">
        <ele>358.8</ele>
        <time>2023-06-11T09:31:38Z</time>
      </trkpt>
      <trkpt lat="43.72436" lon="5.96454">
        <ele>358.8</ele>
        <time>2023-06-11T09:31:39Z</time>
      </trkpt>
      <trkpt lat="43.72437" lon="5.96454">
        <ele>358.8</ele>
        <time>2023-06-11T09:31:40Z</time>
      </trkpt>
      <trkpt lat="43.72439" lon="5.96453">
        <ele>358.8</ele>
        <time>2023-06-11T09:31:41Z</time>
      </trkpt>
      <trkpt lat="43.7244" lon="5.96452">
        <ele>358.8</ele>
        <time>2023-06-11T09:31:42Z</time>
      </trkpt>
      <trkpt lat="43.72441" lon="5.96451">
        <ele>358.7</ele>
        <time>2023-06-11T09:31:43Z</time>
      </trkpt>
      <trkpt lat="43.72442" lon="5.9645">
        <ele>358.6</ele>
        <time>2023-06-11T09:31:44Z</time>
      </trkpt>
      <trkpt lat="43.72444" lon="5.9645">
        <ele>358.7</ele>
        <time>2023-06-11T09:31:45Z</time>
      </trkpt>
      <trkpt lat="43.72445" lon="5.96449">
        <ele>358.7</ele>
        <time>2023-06-11T09:31:46Z</time>
      </trkpt>
      <trkpt lat="43.72446" lon="5.96448">
        <ele>358.7</ele>
        <time>2023-06-11T09:31:47Z</time>
      </trkpt>
      <trkpt lat="43.72447" lon="5.96447">
        <ele>358.7</ele>
        <time>2023-06-11T09:31:48Z</time>
      </trkpt>
      <trkpt lat="43.72448" lon="5.96446">
        <ele>358.8</ele>
        <time>2023-06-11T09:31:49Z</time>
      </trkpt>
      <trkpt lat="43.7245" lon="5.96445">
        <ele>358.8</ele>
        <time>2023-06-11T09:31:50Z</time>
      </trkpt>
      <trkpt lat="43.72451" lon="5.96444">
        <ele>358.9</ele>
        <time>2023-06-11T09:31:51Z</time>
      </trkpt>
      <trkpt lat="43.72452" lon="5.96443">
        <ele>358.9</ele>
        <time>2023-06-11T09:31:52Z</time>
      </trkpt>
      <trkpt lat="43.72453" lon="5.96442">
        <ele>358.9</ele>
        <time>2023-06-11T09:31:53Z</time>
      </trkpt>
      <trkpt lat="43.72454" lon="5.96441">
        <ele>359</ele>
        <time>2023-06-11T09:31:54Z</time>
      </trkpt>
      <trkpt lat="43.72455" lon="5.9644">
        <ele>359.1</ele>
        <time>2023-06-11T09:31:55Z</time>
      </trkpt>
      <trkpt lat="43.72457" lon="5.96439">
        <ele>359.2</ele>
        <time>2023-06-11T09:31:56Z</time>
      </trkpt>
      <trkpt lat="43.72458" lon="5.96438">
        <ele>359.2</ele>
        <time>2023-06-11T09:31:57Z</time>
      </trkpt>
      <trkpt lat="43.72459" lon="5.96437">
        <ele>359.2</ele>
        <time>2023-06-11T09:31:58Z</time>
      </trkpt>
      <trkpt lat="43.7246" lon="5.96436">
        <ele>359.2</ele>
        <time>2023-06-11T09:31:59Z</time>
      </trkpt>
      <trkpt lat="43.72461" lon="5.96435">
        <ele>359.3</ele>
        <time>2023-06-11T09:32:00Z</time>
      </trkpt>
      <trkpt lat="43.72463" lon="5.96433">
        <ele>359.3</ele>
        <time>2023-06-11T09:32:01Z</time>
      </trkpt>
      <trkpt lat="43.72464" lon="5.96432">
        <ele>359.3</ele>
        <time>2023-06-11T09:32:02Z</time>
      </trkpt>
      <trkpt lat="43.72465" lon="5.96431">
        <ele>359.3</ele>
        <time>2023-06-11T09:32:03Z</time>
      </trkpt>
      <trkpt lat="43.72466" lon="5.9643">
        <ele>359.3</ele>
        <time>2023-06-11T09:32:04Z</time>
      </trkpt>
      <trkpt lat="43.72467" lon="5.96429">
        <ele>359.4</ele>
        <time>2023-06-11T09:32:05Z</time>
      </trkpt>
      <trkpt lat="43.72469" lon="5.96428">
        <ele>359.4</ele>
        <time>2023-06-11T09:32:06Z</time>
      </trkpt>
      <trkpt lat="43.7247" lon="5.96427">
        <ele>359.6</ele>
        <time>2023-06-11T09:32:07Z</time>
      </trkpt>
      <trkpt lat="43.72471" lon="5.96426">
        <ele>359.7</ele>
        <time>2023-06-11T09:32:08Z</time>
      </trkpt>
      <trkpt lat="43.72472" lon="5.96425">
        <ele>359.8</ele>
        <time>2023-06-11T09:32:09Z</time>
      </trkpt>
      <trkpt lat="43.72473" lon="5.96424">
        <ele>359.8</ele>
        <time>2023-06-11T09:32:10Z</time>
      </trkpt>
      <trkpt lat="43.72474" lon="5.96423">
        <ele>359.7</ele>
        <time>2023-06-11T09:32:11Z</time>
      </trkpt>
      <trkpt lat="43.72475" lon="5.96422">
        <ele>359.7</ele>
        <time>2023-06-11T09:32:12Z</time>
      </trkpt>
      <trkpt lat="43.72477" lon="5.96421">
        <ele>359.7</ele>
        <time>2023-06-11T09:32:13Z</time>
      </trkpt>
      <trkpt lat="43.72478" lon="5.9642">
        <ele>359.6</ele>
        <time>2023-06-11T09:32:14Z</time>
      </trkpt>
      <trkpt lat="43.72479" lon="5.96419">
        <ele>359.5</ele>
        <time>2023-06-11T09:32:15Z</time>
      </trkpt>
      <trkpt lat="43.7248" lon="5.96418">
        <ele>359.4</ele>
        <time>2023-06-11T09:32:16Z</time>
      </trkpt>
      <trkpt lat="43.72482" lon="5.96418">
        <ele>359.4</ele>
        <time>2023-06-11T09:32:17Z</time>
      </trkpt>
      <trkpt lat="43.72483" lon="5.96417">
        <ele>359.3</ele>
        <time>2023-06-11T09:32:18Z</time>
      </trkpt>
      <trkpt lat="43.72484" lon="5.96416">
        <ele>359.3</ele>
        <time>2023-06-11T09:32:19Z</time>
      </trkpt>
      <trkpt lat="43.72485" lon="5.96415">
        <ele>359.2</ele>
        <time>2023-06-11T09:32:20Z</time>
      </trkpt>
      <trkpt lat="43.72487" lon="5.96414">
        <ele>359.2</ele>
        <time>2023-06-11T09:32:21Z</time>
      </trkpt>
      <trkpt lat="43.72488" lon="5.96413">
        <ele>359.1</ele>
        <time>2023-06-11T09:32:22Z</time>
      </trkpt>
      <trkpt lat="43.72489" lon="5.96413">
        <ele>359.1</ele>
        <time>2023-06-11T09:32:23Z</time>
      </trkpt>
      <trkpt lat="43.7249" lon="5.96412">
        <ele>359.1</ele>
        <time>2023-06-11T09:32:24Z</time>
      </trkpt>
      <trkpt lat="43.72492" lon="5.96411">
        <ele>359.1</ele>
        <time>2023-06-11T09:32:25Z</time>
      </trkpt>
      <trkpt lat="43.72493" lon="5.9641">
        <ele>359.1</ele>
        <time>2023-06-11T09:32:26Z</time>
      </trkpt>
      <trkpt lat="43.72494" lon="5.9641">
        <ele>359.1</ele>
        <time>2023-06-11T09:32:27Z</time>
      </trkpt>
      <trkpt lat="43.72495" lon="5.96409">
        <ele>359.1</ele>
        <time>2023-06-11T09:32:28Z</time>
      </trkpt>
      <trkpt lat="43.72496" lon="5.96408">
        <ele>359.1</ele>
        <time>2023-06-11T09:32:29Z</time>
      </trkpt>
      <trkpt lat="43.72498" lon="5.96408">
        <ele>358.9</ele>
        <time>2023-06-11T09:32:30Z</time>
      </trkpt>
      <trkpt lat="43.72499" lon="5.96407">
        <ele>358.9</ele>
        <time>2023-06-11T09:32:31Z</time>
      </trkpt>
      <trkpt lat="43.725" lon="5.96407">
        <ele>358.9</ele>
        <time>2023-06-11T09:32:32Z</time>
      </trkpt>
      <trkpt lat="43.72501" lon="5.96406">
        <ele>358.9</ele>
        <time>2023-06-11T09:32:33Z</time>
      </trkpt>
      <trkpt lat="43.72502" lon="5.96405">
        <ele>359</ele>
        <time>2023-06-11T09:32:34Z</time>
      </trkpt>
      <trkpt lat="43.72503" lon="5.96405">
        <ele>359</ele>
        <time>2023-06-11T09:32:35Z</time>
      </trkpt>
      <trkpt lat="43.72505" lon="5.96404">
        <ele>359</ele>
        <time>2023-06-11T09:32:36Z</time>
      </trkpt>
      <trkpt lat="43.72506" lon="5.96403">
        <ele>359</ele>
        <time>2023-06-11T09:32:37Z</time>
      </trkpt>
      <trkpt lat="43.72507" lon="5.96403">
        <ele>358.9</ele>
        <time>2023-06-11T09:32:38Z</time>
      </trkpt>
      <trkpt lat="43.72508" lon="5.96402">
        <ele>358.9</ele>
        <time>2023-06-11T09:32:39Z</time>
      </trkpt>
      <trkpt lat="43.72509" lon="5.96402">
        <ele>358.9</ele>
        <time>2023-06-11T09:32:40Z</time>
      </trkpt>
      <trkpt lat="43.7251" lon="5.96401">
        <ele>358.9</ele>
        <time>2023-06-11T09:32:41Z</time>
      </trkpt>
      <trkpt lat="43.72512" lon="5.964">
        <ele>358.9</ele>
        <time>2023-06-11T09:32:42Z</time>
      </trkpt>
      <trkpt lat="43.72513" lon="5.96399">
        <ele>358.9</ele>
        <time>2023-06-11T09:32:43Z</time>
      </trkpt>
      <trkpt lat="43.72514" lon="5.96399">
        <ele>359</ele>
        <time>2023-06-11T09:32:44Z</time>
      </trkpt>
      <trkpt lat="43.72515" lon="5.96398">
        <ele>359</ele>
        <time>2023-06-11T09:32:45Z</time>
      </trkpt>
      <trkpt lat="43.72517" lon="5.96397">
        <ele>359</ele>
        <time>2023-06-11T09:32:46Z</time>
      </trkpt>
      <trkpt lat="43.72518" lon="5.96396">
        <ele>359.1</ele>
        <time>2023-06-11T09:32:47Z</time>
      </trkpt>
      <trkpt lat="43.72519" lon="5.96395">
        <ele>359.1</ele>
        <time>2023-06-11T09:32:48Z</time>
      </trkpt>
      <trkpt lat="43.72521" lon="5.96394">
        <ele>359.1</ele>
        <time>2023-06-11T09:32:49Z</time>
      </trkpt>
      <trkpt lat="43.72522" lon="5.96394">
        <ele>359.1</ele>
        <time>2023-06-11T09:32:50Z</time>
      </trkpt>
      <trkpt lat="43.72523" lon="5.96393">
        <ele>359.1</ele>
        <time>2023-06-11T09:32:51Z</time>
      </trkpt>
      <trkpt lat="43.72524" lon="5.96392">
        <ele>359.2</ele>
        <time>2023-06-11T09:32:52Z</time>
      </trkpt>
      <trkpt lat="43.72526" lon="5.96391">
        <ele>359.2</ele>
        <time>2023-06-11T09:32:53Z</time>
      </trkpt>
      <trkpt lat="43.72527" lon="5.9639">
        <ele>359.2</ele>
        <time>2023-06-11T09:32:54Z</time>
      </trkpt>
      <trkpt lat="43.72528" lon="5.9639">
        <ele>359.2</ele>
        <time>2023-06-11T09:32:55Z</time>
      </trkpt>
      <trkpt lat="43.7253" lon="5.96389">
        <ele>359.1</ele>
        <time>2023-06-11T09:32:56Z</time>
      </trkpt>
      <trkpt lat="43.72531" lon="5.96388">
        <ele>359.1</ele>
        <time>2023-06-11T09:32:57Z</time>
      </trkpt>
      <trkpt lat="43.72532" lon="5.96388">
        <ele>359.1</ele>
        <time>2023-06-11T09:32:58Z</time>
      </trkpt>
      <trkpt lat="43.72534" lon="5.96387">
        <ele>359.1</ele>
        <time>2023-06-11T09:32:59Z</time>
      </trkpt>
      <trkpt lat="43.72535" lon="5.96386">
        <ele>359.1</ele>
        <time>2023-06-11T09:33:00Z</time>
      </trkpt>
      <trkpt lat="43.72536" lon="5.96385">
        <ele>359.1</ele>
        <time>2023-06-11T09:33:01Z</time>
      </trkpt>
      <trkpt lat="43.72538" lon="5.96385">
        <ele>359.1</ele>
        <time>2023-06-11T09:33:02Z</time>
      </trkpt>
      <trkpt lat="43.72539" lon="5.96384">
        <ele>359.1</ele>
        <time>2023-06-11T09:33:03Z</time>
      </trkpt>
      <trkpt lat="43.7254" lon="5.96383">
        <ele>359</ele>
        <time>2023-06-11T09:33:04Z</time>
      </trkpt>
      <trkpt lat="43.72542" lon="5.96383">
        <ele>359</ele>
        <time>2023-06-11T09:33:05Z</time>
      </trkpt>
      <trkpt lat="43.72543" lon="5.96382">
        <ele>359</ele>
        <time>2023-06-11T09:33:06Z</time>
      </trkpt>
      <trkpt lat="43.72545" lon="5.96382">
        <ele>359</ele>
        <time>2023-06-11T09:33:07Z</time>
      </trkpt>
      <trkpt lat="43.72546" lon="5.96381">
        <ele>358.9</ele>
        <time>2023-06-11T09:33:08Z</time>
      </trkpt>
      <trkpt lat="43.72547" lon="5.9638">
        <ele>358.8</ele>
        <time>2023-06-11T09:33:09Z</time>
      </trkpt>
      <trkpt lat="43.72549" lon="5.9638">
        <ele>358.9</ele>
        <time>2023-06-11T09:33:10Z</time>
      </trkpt>
      <trkpt lat="43.7255" lon="5.96379">
        <ele>358.9</ele>
        <time>2023-06-11T09:33:11Z</time>
      </trkpt>
      <trkpt lat="43.72552" lon="5.96378">
        <ele>358.9</ele>
        <time>2023-06-11T09:33:12Z</time>
      </trkpt>
      <trkpt lat="43.72553" lon="5.96378">
        <ele>358.9</ele>
        <time>2023-06-11T09:33:13Z</time>
      </trkpt>
      <trkpt lat="43.72554" lon="5.96377">
        <ele>359</ele>
        <time>2023-06-11T09:33:14Z</time>
      </trkpt>
      <trkpt lat="43.72556" lon="5.96377">
        <ele>359</ele>
        <time>2023-06-11T09:33:15Z</time>
      </trkpt>
      <trkpt lat="43.72557" lon="5.96376">
        <ele>358.9</ele>
        <time>2023-06-11T09:33:16Z</time>
      </trkpt>
      <trkpt lat="43.72559" lon="5.96376">
        <ele>358.9</ele>
        <time>2023-06-11T09:33:17Z</time>
      </trkpt>
      <trkpt lat="43.7256" lon="5.96375">
        <ele>358.9</ele>
        <time>2023-06-11T09:33:18Z</time>
      </trkpt>
      <trkpt lat="43.72561" lon="5.96375">
        <ele>358.8</ele>
        <time>2023-06-11T09:33:19Z</time>
      </trkpt>
      <trkpt lat="43.72563" lon="5.96374">
        <ele>358.8</ele>
        <time>2023-06-11T09:33:20Z</time>
      </trkpt>
      <trkpt lat="43.72564" lon="5.96374">
        <ele>358.8</ele>
        <time>2023-06-11T09:33:21Z</time>
      </trkpt>
      <trkpt lat="43.72565" lon="5.96373">
        <ele>358.7</ele>
        <time>2023-06-11T09:33:22Z</time>
      </trkpt>
      <trkpt lat="43.72567" lon="5.96373">
        <ele>358.8</ele>
        <time>2023-06-11T09:33:23Z</time>
      </trkpt>
      <trkpt lat="43.72568" lon="5.96372">
        <ele>358.8</ele>
        <time>2023-06-11T09:33:24Z</time>
      </trkpt>
      <trkpt lat="43.72569" lon="5.96372">
        <ele>358.9</ele>
        <time>2023-06-11T09:33:25Z</time>
      </trkpt>
      <trkpt lat="43.72571" lon="5.96371">
        <ele>358.9</ele>
        <time>2023-06-11T09:33:26Z</time>
      </trkpt>
      <trkpt lat="43.72572" lon="5.96371">
        <ele>358.9</ele>
        <time>2023-06-11T09:33:27Z</time>
      </trkpt>
      <trkpt lat="43.72573" lon="5.9637">
        <ele>358.9</ele>
        <time>2023-06-11T09:33:28Z</time>
      </trkpt>
      <trkpt lat="43.72575" lon="5.9637">
        <ele>358.9</ele>
        <time>2023-06-11T09:33:29Z</time>
      </trkpt>
      <trkpt lat="43.72576" lon="5.96369">
        <ele>359</ele>
        <time>2023-06-11T09:33:30Z</time>
      </trkpt>
      <trkpt lat="43.72578" lon="5.96369">
        <ele>358.9</ele>
        <time>2023-06-11T09:33:31Z</time>
      </trkpt>
      <trkpt lat="43.72579" lon="5.96368">
        <ele>358.9</ele>
        <time>2023-06-11T09:33:32Z</time>
      </trkpt>
      <trkpt lat="43.7258" lon="5.96368">
        <ele>358.9</ele>
        <time>2023-06-11T09:33:33Z</time>
      </trkpt>
      <trkpt lat="43.72581" lon="5.96367">
        <ele>358.8</ele>
        <time>2023-06-11T09:33:34Z</time>
      </trkpt>
      <trkpt lat="43.72583" lon="5.96367">
        <ele>358.8</ele>
        <time>2023-06-11T09:33:35Z</time>
      </trkpt>
      <trkpt lat="43.72584" lon="5.96367">
        <ele>358.8</ele>
        <time>2023-06-11T09:33:36Z</time>
      </trkpt>
      <trkpt lat="43.72585" lon="5.96366">
        <ele>358.7</ele>
        <time>2023-06-11T09:33:37Z</time>
      </trkpt>
      <trkpt lat="43.72587" lon="5.96366">
        <ele>358.7</ele>
        <time>2023-06-11T09:33:38Z</time>
      </trkpt>
      <trkpt lat="43.72588" lon="5.96366">
        <ele>358.7</ele>
        <time>2023-06-11T09:33:39Z</time>
      </trkpt>
      <trkpt lat="43.72589" lon="5.96365">
        <ele>358.8</ele>
        <time>2023-06-11T09:33:40Z</time>
      </trkpt>
      <trkpt lat="43.72591" lon="5.96365">
        <ele>358.8</ele>
        <time>2023-06-11T09:33:41Z</time>
      </trkpt>
      <trkpt lat="43.72592" lon="5.96365">
        <ele>358.8</ele>
        <time>2023-06-11T09:33:42Z</time>
      </trkpt>
      <trkpt lat="43.72594" lon="5.96364">
        <ele>358.9</ele>
        <time>2023-06-11T09:33:43Z</time>
      </trkpt>
      <trkpt lat="43.72595" lon="5.96364">
        <ele>359</ele>
        <time>2023-06-11T09:33:44Z</time>
      </trkpt>
      <trkpt lat="43.72596" lon="5.96364">
        <ele>358.9</ele>
        <time>2023-06-11T09:33:45Z</time>
      </trkpt>
      <trkpt lat="43.72598" lon="5.96363">
        <ele>358.9</ele>
        <time>2023-06-11T09:33:46Z</time>
      </trkpt>
      <trkpt lat="43.72599" lon="5.96363">
        <ele>358.9</ele>
        <time>2023-06-11T09:33:47Z</time>
      </trkpt>
      <trkpt lat="43.726" lon="5.96363">
        <ele>358.9</ele>
        <time>2023-06-11T09:33:48Z</time>
      </trkpt>
      <trkpt lat="43.72602" lon="5.96362">
        <ele>358.9</ele>
        <time>2023-06-11T09:33:49Z</time>
      </trkpt>
      <trkpt lat="43.72603" lon="5.96362">
        <ele>358.8</ele>
        <time>2023-06-11T09:33:50Z</time>
      </trkpt>
      <trkpt lat="43.72604" lon="5.96362">
        <ele>358.8</ele>
        <time>2023-06-11T09:33:51Z</time>
      </trkpt>
      <trkpt lat="43.72606" lon="5.96362">
        <ele>358.7</ele>
        <time>2023-06-11T09:33:52Z</time>
      </trkpt>
      <trkpt lat="43.72607" lon="5.96362">
        <ele>358.7</ele>
        <time>2023-06-11T09:33:53Z</time>
      </trkpt>
      <trkpt lat="43.72609" lon="5.96361">
        <ele>358.7</ele>
        <time>2023-06-11T09:33:54Z</time>
      </trkpt>
      <trkpt lat="43.7261" lon="5.96361">
        <ele>358.8</ele>
        <time>2023-06-11T09:33:55Z</time>
      </trkpt>
      <trkpt lat="43.72611" lon="5.96361">
        <ele>358.9</ele>
        <time>2023-06-11T09:33:56Z</time>
      </trkpt>
      <trkpt lat="43.72613" lon="5.96361">
        <ele>358.9</ele>
        <time>2023-06-11T09:33:57Z</time>
      </trkpt>
      <trkpt lat="43.72614" lon="5.9636">
        <ele>359</ele>
        <time>2023-06-11T09:33:58Z</time>
      </trkpt>
      <trkpt lat="43.72616" lon="5.9636">
        <ele>359</ele>
        <time>2023-06-11T09:33:59Z</time>
      </trkpt>
      <trkpt lat="43.72617" lon="5.9636">
        <ele>359</ele>
        <time>2023-06-11T09:34:00Z</time>
      </trkpt>
      <trkpt lat="43.72619" lon="5.96359">
        <ele>359</ele>
        <time>2023-06-11T09:34:01Z</time>
      </trkpt>
      <trkpt lat="43.7262" lon="5.96359">
        <ele>359.1</ele>
        <time>2023-06-11T09:34:02Z</time>
      </trkpt>
      <trkpt lat="43.72621" lon="5.96359">
        <ele>359.1</ele>
        <time>2023-06-11T09:34:03Z</time>
      </trkpt>
      <trkpt lat="43.72623" lon="5.96359">
        <ele>359.1</ele>
        <time>2023-06-11T09:34:04Z</time>
      </trkpt>
      <trkpt lat="43.72624" lon="5.96359">
        <ele>359.1</ele>
        <time>2023-06-11T09:34:05Z</time>
      </trkpt>
      <trkpt lat="43.72626" lon="5.96358">
        <ele>359.1</ele>
        <time>2023-06-11T09:34:06Z</time>
      </trkpt>
      <trkpt lat="43.72627" lon="5.96358">
        <ele>359.1</ele>
        <time>2023-06-11T09:34:07Z</time>
      </trkpt>
      <trkpt lat="43.72628" lon="5.96358">
        <ele>359.1</ele>
        <time>2023-06-11T09:34:08Z</time>
      </trkpt>
      <trkpt lat="43.7263" lon="5.96358">
        <ele>359.2</ele>
        <time>2023-06-11T09:34:09Z</time>
      </trkpt>
      <trkpt lat="43.72631" lon="5.96358">
        <ele>359.3</ele>
        <time>2023-06-11T09:34:10Z</time>
      </trkpt>
      <trkpt lat="43.72633" lon="5.96358">
        <ele>359.5</ele>
        <time>2023-06-11T09:34:11Z</time>
      </trkpt>
      <trkpt lat="43.72634" lon="5.96357">
        <ele>359.5</ele>
        <time>2023-06-11T09:34:12Z</time>
      </trkpt>
      <trkpt lat="43.72635" lon="5.96357">
        <ele>359.4</ele>
        <time>2023-06-11T09:34:13Z</time>
      </trkpt>
      <trkpt lat="43.72637" lon="5.96357">
        <ele>359.4</ele>
        <time>2023-06-11T09:34:14Z</time>
      </trkpt>
      <trkpt lat="43.72638" lon="5.96357">
        <ele>359.4</ele>
        <time>2023-06-11T09:34:15Z</time>
      </trkpt>
      <trkpt lat="43.7264" lon="5.96356">
        <ele>359.4</ele>
        <time>2023-06-11T09:34:16Z</time>
      </trkpt>
      <trkpt lat="43.72641" lon="5.96356">
        <ele>359.4</ele>
        <time>2023-06-11T09:34:17Z</time>
      </trkpt>
      <trkpt lat="43.72642" lon="5.96356">
        <ele>359.5</ele>
        <time>2023-06-11T09:34:18Z</time>
      </trkpt>
      <trkpt lat="43.72644" lon="5.96356">
        <ele>359.5</ele>
        <time>2023-06-11T09:34:19Z</time>
      </trkpt>
      <trkpt lat="43.72645" lon="5.96355">
        <ele>359.5</ele>
        <time>2023-06-11T09:34:20Z</time>
      </trkpt>
      <trkpt lat="43.72646" lon="5.96355">
        <ele>359.5</ele>
        <time>2023-06-11T09:34:21Z</time>
      </trkpt>
      <trkpt lat="43.72648" lon="5.96355">
        <ele>359.5</ele>
        <time>2023-06-11T09:34:22Z</time>
      </trkpt>
      <trkpt lat="43.72649" lon="5.96355">
        <ele>359.5</ele>
        <time>2023-06-11T09:34:23Z</time>
      </trkpt>
      <trkpt lat="43.72651" lon="5.96355">
        <ele>359.6</ele>
        <time>2023-06-11T09:34:24Z</time>
      </trkpt>
      <trkpt lat="43.72652" lon="5.96355">
        <ele>359.6</ele>
        <time>2023-06-11T09:34:25Z</time>
      </trkpt>
      <trkpt lat="43.72653" lon="5.96355">
        <ele>359.7</ele>
        <time>2023-06-11T09:34:26Z</time>
      </trkpt>
      <trkpt lat="43.72655" lon="5.96355">
        <ele>359.7</ele>
        <time>2023-06-11T09:34:27Z</time>
      </trkpt>
      <trkpt lat="43.72656" lon="5.96355">
        <ele>359.7</ele>
        <time>2023-06-11T09:34:28Z</time>
      </trkpt>
      <trkpt lat="43.72658" lon="5.96355">
        <ele>359.7</ele>
        <time>2023-06-11T09:34:29Z</time>
      </trkpt>
      <trkpt lat="43.72659" lon="5.96355">
        <ele>359.6</ele>
        <time>2023-06-11T09:34:30Z</time>
      </trkpt>
      <trkpt lat="43.7266" lon="5.96355">
        <ele>359.6</ele>
        <time>2023-06-11T09:34:31Z</time>
      </trkpt>
      <trkpt lat="43.72662" lon="5.96355">
        <ele>359.6</ele>
        <time>2023-06-11T09:34:32Z</time>
      </trkpt>
      <trkpt lat="43.72663" lon="5.96354">
        <ele>359.5</ele>
        <time>2023-06-11T09:34:33Z</time>
      </trkpt>
      <trkpt lat="43.72664" lon="5.96354">
        <ele>359.4</ele>
        <time>2023-06-11T09:34:34Z</time>
      </trkpt>
      <trkpt lat="43.72666" lon="5.96354">
        <ele>359.3</ele>
        <time>2023-06-11T09:34:35Z</time>
      </trkpt>
      <trkpt lat="43.72667" lon="5.96354">
        <ele>359.3</ele>
        <time>2023-06-11T09:34:36Z</time>
      </trkpt>
      <trkpt lat="43.72668" lon="5.96354">
        <ele>359.2</ele>
        <time>2023-06-11T09:34:37Z</time>
      </trkpt>
      <trkpt lat="43.7267" lon="5.96354">
        <ele>359.2</ele>
        <time>2023-06-11T09:34:38Z</time>
      </trkpt>
      <trkpt lat="43.72671" lon="5.96354">
        <ele>359.2</ele>
        <time>2023-06-11T09:34:39Z</time>
      </trkpt>
      <trkpt lat="43.72673" lon="5.96355">
        <ele>359.1</ele>
        <time>2023-06-11T09:34:40Z</time>
      </trkpt>
      <trkpt lat="43.72674" lon="5.96355">
        <ele>359.1</ele>
        <time>2023-06-11T09:34:41Z</time>
      </trkpt>
      <trkpt lat="43.72675" lon="5.96355">
        <ele>359.2</ele>
        <time>2023-06-11T09:34:42Z</time>
      </trkpt>
      <trkpt lat="43.72677" lon="5.96355">
        <ele>359.1</ele>
        <time>2023-06-11T09:34:43Z</time>
      </trkpt>
      <trkpt lat="43.72678" lon="5.96355">
        <ele>359</ele>
        <time>2023-06-11T09:34:44Z</time>
      </trkpt>
      <trkpt lat="43.72679" lon="5.96356">
        <ele>359</ele>
        <time>2023-06-11T09:34:45Z</time>
      </trkpt>
      <trkpt lat="43.7268" lon="5.96356">
        <ele>359</ele>
        <time>2023-06-11T09:34:46Z</time>
      </trkpt>
      <trkpt lat="43.72682" lon="5.96356">
        <ele>359</ele>
        <time>2023-06-11T09:34:47Z</time>
      </trkpt>
      <trkpt lat="43.72683" lon="5.96357">
        <ele>359</ele>
        <time>2023-06-11T09:34:48Z</time>
      </trkpt>
      <trkpt lat="43.72684" lon="5.96357">
        <ele>359</ele>
        <time>2023-06-11T09:34:49Z</time>
      </trkpt>
      <trkpt lat="43.72685" lon="5.96358">
        <ele>359</ele>
        <time>2023-06-11T09:34:50Z</time>
      </trkpt>
      <trkpt lat="43.72686" lon="5.96358">
        <ele>359</ele>
        <time>2023-06-11T09:34:51Z</time>
      </trkpt>
      <trkpt lat="43.72687" lon="5.96358">
        <ele>359</ele>
        <time>2023-06-11T09:34:52Z</time>
      </trkpt>
      <trkpt lat="43.72689" lon="5.96359">
        <ele>359</ele>
        <time>2023-06-11T09:34:53Z</time>
      </trkpt>
      <trkpt lat="43.7269" lon="5.96359">
        <ele>359</ele>
        <time>2023-06-11T09:34:54Z</time>
      </trkpt>
      <trkpt lat="43.72691" lon="5.9636">
        <ele>359</ele>
        <time>2023-06-11T09:34:55Z</time>
      </trkpt>
      <trkpt lat="43.72692" lon="5.9636">
        <ele>359</ele>
        <time>2023-06-11T09:34:56Z</time>
      </trkpt>
      <trkpt lat="43.72694" lon="5.9636">
        <ele>359</ele>
        <time>2023-06-11T09:34:57Z</time>
      </trkpt>
      <trkpt lat="43.72695" lon="5.9636">
        <ele>359</ele>
        <time>2023-06-11T09:34:58Z</time>
      </trkpt>
      <trkpt lat="43.72696" lon="5.96361">
        <ele>359.1</ele>
        <time>2023-06-11T09:34:59Z</time>
      </trkpt>
      <trkpt lat="43.72697" lon="5.96361">
        <ele>359.2</ele>
        <time>2023-06-11T09:35:00Z</time>
      </trkpt>
      <trkpt lat="43.72699" lon="5.96361">
        <ele>359.3</ele>
        <time>2023-06-11T09:35:01Z</time>
      </trkpt>
      <trkpt lat="43.727" lon="5.96362">
        <ele>359.3</ele>
        <time>2023-06-11T09:35:02Z</time>
      </trkpt>
      <trkpt lat="43.72701" lon="5.96362">
        <ele>359.3</ele>
        <time>2023-06-11T09:35:03Z</time>
      </trkpt>
      <trkpt lat="43.72702" lon="5.96362">
        <ele>359.3</ele>
        <time>2023-06-11T09:35:04Z</time>
      </trkpt>
      <trkpt lat="43.72704" lon="5.96363">
        <ele>359.3</ele>
        <time>2023-06-11T09:35:05Z</time>
      </trkpt>
      <trkpt lat="43.72705" lon="5.96363">
        <ele>359.2</ele>
        <time>2023-06-11T09:35:06Z</time>
      </trkpt>
      <trkpt lat="43.72706" lon="5.96363">
        <ele>359.1</ele>
        <time>2023-06-11T09:35:07Z</time>
      </trkpt>
      <trkpt lat="43.72707" lon="5.96363">
        <ele>359.1</ele>
        <time>2023-06-11T09:35:08Z</time>
      </trkpt>
      <trkpt lat="43.72709" lon="5.96364">
        <ele>359.2</ele>
        <time>2023-06-11T09:35:09Z</time>
      </trkpt>
      <trkpt lat="43.7271" lon="5.96364">
        <ele>359.3</ele>
        <time>2023-06-11T09:35:10Z</time>
      </trkpt>
      <trkpt lat="43.72711" lon="5.96364">
        <ele>359.3</ele>
        <time>2023-06-11T09:35:11Z</time>
      </trkpt>
      <trkpt lat="43.72712" lon="5.96365">
        <ele>359.3</ele>
        <time>2023-06-11T09:35:12Z</time>
      </trkpt>
      <trkpt lat="43.72714" lon="5.96365">
        <ele>359.3</ele>
        <time>2023-06-11T09:35:13Z</time>
      </trkpt>
      <trkpt lat="43.72715" lon="5.96365">
        <ele>359.3</ele>
        <time>2023-06-11T09:35:14Z</time>
      </trkpt>
      <trkpt lat="43.72716" lon="5.96365">
        <ele>359.4</ele>
        <time>2023-06-11T09:35:15Z</time>
      </trkpt>
      <trkpt lat="43.72717" lon="5.96365">
        <ele>359.4</ele>
        <time>2023-06-11T09:35:16Z</time>
      </trkpt>
      <trkpt lat="43.72719" lon="5.96366">
        <ele>359.4</ele>
        <time>2023-06-11T09:35:17Z</time>
      </trkpt>
      <trkpt lat="43.7272" lon="5.96366">
        <ele>359.4</ele>
        <time>2023-06-11T09:35:18Z</time>
      </trkpt>
      <trkpt lat="43.72721" lon="5.96366">
        <ele>359.4</ele>
        <time>2023-06-11T09:35:19Z</time>
      </trkpt>
      <trkpt lat="43.72722" lon="5.96366">
        <ele>359.4</ele>
        <time>2023-06-11T09:35:20Z</time>
      </trkpt>
      <trkpt lat="43.72724" lon="5.96367">
        <ele>359.4</ele>
        <time>2023-06-11T09:35:21Z</time>
      </trkpt>
      <trkpt lat="43.72725" lon="5.96367">
        <ele>359.4</ele>
        <time>2023-06-11T09:35:22Z</time>
      </trkpt>
      <trkpt lat="43.72726" lon="5.96367">
        <ele>359.4</ele>
        <time>2023-06-11T09:35:23Z</time>
      </trkpt>
      <trkpt lat="43.72728" lon="5.96367">
        <ele>359.4</ele>
        <time>2023-06-11T09:35:24Z</time>
      </trkpt>
      <trkpt lat="43.72729" lon="5.96368">
        <ele>359.4</ele>
        <time>2023-06-11T09:35:25Z</time>
      </trkpt>
      <trkpt lat="43.7273" lon="5.96368">
        <ele>359.4</ele>
        <time>2023-06-11T09:35:26Z</time>
      </trkpt>
      <trkpt lat="43.72731" lon="5.96368">
        <ele>359.3</ele>
        <time>2023-06-11T09:35:27Z</time>
      </trkpt>
      <trkpt lat="43.72733" lon="5.96368">
        <ele>359.3</ele>
        <time>2023-06-11T09:35:28Z</time>
      </trkpt>
      <trkpt lat="43.72734" lon="5.96369">
        <ele>359.3</ele>
        <time>2023-06-11T09:35:29Z</time>
      </trkpt>
      <trkpt lat="43.72735" lon="5.96369">
        <ele>359.3</ele>
        <time>2023-06-11T09:35:30Z</time>
      </trkpt>
      <trkpt lat="43.72737" lon="5.96369">
        <ele>359.2</ele>
        <time>2023-06-11T09:35:31Z</time>
      </trkpt>
      <trkpt lat="43.72738" lon="5.9637">
        <ele>359.2</ele>
        <time>2023-06-11T09:35:32Z</time>
      </trkpt>
      <trkpt lat="43.72739" lon="5.9637">
        <ele>359.2</ele>
        <time>2023-06-11T09:35:33Z</time>
      </trkpt>
      <trkpt lat="43.7274" lon="5.9637">
        <ele>359.2</ele>
        <time>2023-06-11T09:35:34Z</time>
      </trkpt>
      <trkpt lat="43.72742" lon="5.96371">
        <ele>359.2</ele>
        <time>2023-06-11T09:35:35Z</time>
      </trkpt>
      <trkpt lat="43.72743" lon="5.96371">
        <ele>359.2</ele>
        <time>2023-06-11T09:35:36Z</time>
      </trkpt>
      <trkpt lat="43.72744" lon="5.96372">
        <ele>359.2</ele>
        <time>2023-06-11T09:35:37Z</time>
      </trkpt>
      <trkpt lat="43.72745" lon="5.96372">
        <ele>359.1</ele>
        <time>2023-06-11T09:35:38Z</time>
      </trkpt>
      <trkpt lat="43.72746" lon="5.96373">
        <ele>359.1</ele>
        <time>2023-06-11T09:35:39Z</time>
      </trkpt>
      <trkpt lat="43.72747" lon="5.96373">
        <ele>359.1</ele>
        <time>2023-06-11T09:35:40Z</time>
      </trkpt>
      <trkpt lat="43.72749" lon="5.96374">
        <ele>359.1</ele>
        <time>2023-06-11T09:35:41Z</time>
      </trkpt>
      <trkpt lat="43.7275" lon="5.96374">
        <ele>359.1</ele>
        <time>2023-06-11T09:35:42Z</time>
      </trkpt>
      <trkpt lat="43.72751" lon="5.96374">
        <ele>359.2</ele>
        <time>2023-06-11T09:35:43Z</time>
      </trkpt>
      <trkpt lat="43.72752" lon="5.96375">
        <ele>359.1</ele>
        <time>2023-06-11T09:35:44Z</time>
      </trkpt>
      <trkpt lat="43.72753" lon="5.96375">
        <ele>359.1</ele>
        <time>2023-06-11T09:35:45Z</time>
      </trkpt>
      <trkpt lat="43.72755" lon="5.96376">
        <ele>359.1</ele>
        <time>2023-06-11T09:35:46Z</time>
      </trkpt>
      <trkpt lat="43.72756" lon="5.96376">
        <ele>359</ele>
        <time>2023-06-11T09:35:47Z</time>
      </trkpt>
      <trkpt lat="43.72757" lon="5.96377">
        <ele>359</ele>
        <time>2023-06-11T09:35:48Z</time>
      </trkpt>
      <trkpt lat="43.72758" lon="5.96377">
        <ele>359</ele>
        <time>2023-06-11T09:35:49Z</time>
      </trkpt>
      <trkpt lat="43.7276" lon="5.96377">
        <ele>359</ele>
        <time>2023-06-11T09:35:50Z</time>
      </trkpt>
      <trkpt lat="43.72761" lon="5.96378">
        <ele>359</ele>
        <time>2023-06-11T09:35:51Z</time>
      </trkpt>
      <trkpt lat="43.72762" lon="5.96378">
        <ele>359</ele>
        <time>2023-06-11T09:35:52Z</time>
      </trkpt>
      <trkpt lat="43.72763" lon="5.96378">
        <ele>359.1</ele>
        <time>2023-06-11T09:35:53Z</time>
      </trkpt>
      <trkpt lat="43.72764" lon="5.96379">
        <ele>359.1</ele>
        <time>2023-06-11T09:35:54Z</time>
      </trkpt>
      <trkpt lat="43.72766" lon="5.96379">
        <ele>359.1</ele>
        <time>2023-06-11T09:35:55Z</time>
      </trkpt>
      <trkpt lat="43.72767" lon="5.96379">
        <ele>359.2</ele>
        <time>2023-06-11T09:35:56Z</time>
      </trkpt>
      <trkpt lat="43.72768" lon="5.9638">
        <ele>359.3</ele>
        <time>2023-06-11T09:35:57Z</time>
      </trkpt>
      <trkpt lat="43.7277" lon="5.9638">
        <ele>359.3</ele>
        <time>2023-06-11T09:35:58Z</time>
      </trkpt>
      <trkpt lat="43.72771" lon="5.9638">
        <ele>359.4</ele>
        <time>2023-06-11T09:35:59Z</time>
      </trkpt>
      <trkpt lat="43.72772" lon="5.9638">
        <ele>359.4</ele>
        <time>2023-06-11T09:36:00Z</time>
      </trkpt>
      <trkpt lat="43.72773" lon="5.96381">
        <ele>359.4</ele>
        <time>2023-06-11T09:36:01Z</time>
      </trkpt>
      <trkpt lat="43.72775" lon="5.96381">
        <ele>359.4</ele>
        <time>2023-06-11T09:36:02Z</time>
      </trkpt>
      <trkpt lat="43.72776" lon="5.96381">
        <ele>359.3</ele>
        <time>2023-06-11T09:36:03Z</time>
      </trkpt>
      <trkpt lat="43.72777" lon="5.96381">
        <ele>359.3</ele>
        <time>2023-06-11T09:36:04Z</time>
      </trkpt>
      <trkpt lat="43.72779" lon="5.96382">
        <ele>359.3</ele>
        <time>2023-06-11T09:36:05Z</time>
      </trkpt>
      <trkpt lat="43.7278" lon="5.96382">
        <ele>359.3</ele>
        <time>2023-06-11T09:36:06Z</time>
      </trkpt>
      <trkpt lat="43.72781" lon="5.96382">
        <ele>359.3</ele>
        <time>2023-06-11T09:36:07Z</time>
      </trkpt>
      <trkpt lat="43.72783" lon="5.96382">
        <ele>359.3</ele>
        <time>2023-06-11T09:36:08Z</time>
      </trkpt>
      <trkpt lat="43.72784" lon="5.96383">
        <ele>359.4</ele>
        <time>2023-06-11T09:36:09Z</time>
      </trkpt>
      <trkpt lat="43.72785" lon="5.96383">
        <ele>359.4</ele>
        <time>2023-06-11T09:36:10Z</time>
      </trkpt>
      <trkpt lat="43.72786" lon="5.96384">
        <ele>359.4</ele>
        <time>2023-06-11T09:36:11Z</time>
      </trkpt>
      <trkpt lat="43.72788" lon="5.96384">
        <ele>359.3</ele>
        <time>2023-06-11T09:36:12Z</time>
      </trkpt>
      <trkpt lat="43.72789" lon="5.96385">
        <ele>359.3</ele>
        <time>2023-06-11T09:36:13Z</time>
      </trkpt>
      <trkpt lat="43.7279" lon="5.96385">
        <ele>359.3</ele>
        <time>2023-06-11T09:36:14Z</time>
      </trkpt>
      <trkpt lat="43.72792" lon="5.96386">
        <ele>359.3</ele>
        <time>2023-06-11T09:36:15Z</time>
      </trkpt>
      <trkpt lat="43.72793" lon="5.96387">
        <ele>359.3</ele>
        <time>2023-06-11T09:36:16Z</time>
      </trkpt>
      <trkpt lat="43.72794" lon="5.96387">
        <ele>359.2</ele>
        <time>2023-06-11T09:36:17Z</time>
      </trkpt>
      <trkpt lat="43.72795" lon="5.96388">
        <ele>359.2</ele>
        <time>2023-06-11T09:36:18Z</time>
      </trkpt>
      <trkpt lat="43.72797" lon="5.96389">
        <ele>359.2</ele>
        <time>2023-06-11T09:36:19Z</time>
      </trkpt>
      <trkpt lat="43.72798" lon="5.96389">
        <ele>359.2</ele>
        <time>2023-06-11T09:36:20Z</time>
      </trkpt>
      <trkpt lat="43.72799" lon="5.9639">
        <ele>359.1</ele>
        <time>2023-06-11T09:36:21Z</time>
      </trkpt>
      <trkpt lat="43.728" lon="5.9639">
        <ele>359.1</ele>
        <time>2023-06-11T09:36:22Z</time>
      </trkpt>
      <trkpt lat="43.72802" lon="5.96391">
        <ele>359.1</ele>
        <time>2023-06-11T09:36:23Z</time>
      </trkpt>
      <trkpt lat="43.72803" lon="5.96391">
        <ele>359</ele>
        <time>2023-06-11T09:36:24Z</time>
      </trkpt>
      <trkpt lat="43.72804" lon="5.96392">
        <ele>359</ele>
        <time>2023-06-11T09:36:25Z</time>
      </trkpt>
      <trkpt lat="43.72806" lon="5.96392">
        <ele>359</ele>
        <time>2023-06-11T09:36:26Z</time>
      </trkpt>
      <trkpt lat="43.72807" lon="5.96393">
        <ele>359</ele>
        <time>2023-06-11T09:36:27Z</time>
      </trkpt>
      <trkpt lat="43.72808" lon="5.96393">
        <ele>359</ele>
        <time>2023-06-11T09:36:28Z</time>
      </trkpt>
      <trkpt lat="43.72809" lon="5.96394">
        <ele>359</ele>
        <time>2023-06-11T09:36:29Z</time>
      </trkpt>
      <trkpt lat="43.7281" lon="5.96394">
        <ele>359</ele>
        <time>2023-06-11T09:36:30Z</time>
      </trkpt>
      <trkpt lat="43.72812" lon="5.96395">
        <ele>358.9</ele>
        <time>2023-06-11T09:36:31Z</time>
      </trkpt>
      <trkpt lat="43.72813" lon="5.96395">
        <ele>358.9</ele>
        <time>2023-06-11T09:36:32Z</time>
      </trkpt>
      <trkpt lat="43.72814" lon="5.96396">
        <ele>358.9</ele>
        <time>2023-06-11T09:36:33Z</time>
      </trkpt>
      <trkpt lat="43.72815" lon="5.96396">
        <ele>358.8</ele>
        <time>2023-06-11T09:36:34Z</time>
      </trkpt>
      <trkpt lat="43.72817" lon="5.96397">
        <ele>358.9</ele>
        <time>2023-06-11T09:36:35Z</time>
      </trkpt>
      <trkpt lat="43.72818" lon="5.96397">
        <ele>358.9</ele>
        <time>2023-06-11T09:36:36Z</time>
      </trkpt>
      <trkpt lat="43.72819" lon="5.96398">
        <ele>358.9</ele>
        <time>2023-06-11T09:36:37Z</time>
      </trkpt>
      <trkpt lat="43.72821" lon="5.96398">
        <ele>358.9</ele>
        <time>2023-06-11T09:36:38Z</time>
      </trkpt>
      <trkpt lat="43.72822" lon="5.96398">
        <ele>358.9</ele>
        <time>2023-06-11T09:36:39Z</time>
      </trkpt>
      <trkpt lat="43.72824" lon="5.96399">
        <ele>358.9</ele>
        <time>2023-06-11T09:36:40Z</time>
      </trkpt>
      <trkpt lat="43.72825" lon="5.96399">
        <ele>358.9</ele>
        <time>2023-06-11T09:36:41Z</time>
      </trkpt>
      <trkpt lat="43.72826" lon="5.96399">
        <ele>358.9</ele>
        <time>2023-06-11T09:36:42Z</time>
      </trkpt>
      <trkpt lat="43.72828" lon="5.964">
        <ele>358.9</ele>
        <time>2023-06-11T09:36:43Z</time>
      </trkpt>
      <trkpt lat="43.72829" lon="5.964">
        <ele>359</ele>
        <time>2023-06-11T09:36:44Z</time>
      </trkpt>
      <trkpt lat="43.72831" lon="5.964">
        <ele>359</ele>
        <time>2023-06-11T09:36:45Z</time>
      </trkpt>
      <trkpt lat="43.72832" lon="5.96401">
        <ele>359.1</ele>
        <time>2023-06-11T09:36:46Z</time>
      </trkpt>
      <trkpt lat="43.72834" lon="5.96401">
        <ele>359.1</ele>
        <time>2023-06-11T09:36:47Z</time>
      </trkpt>
      <trkpt lat="43.72835" lon="5.96401">
        <ele>359.1</ele>
        <time>2023-06-11T09:36:48Z</time>
      </trkpt>
      <trkpt lat="43.72837" lon="5.96401">
        <ele>359.2</ele>
        <time>2023-06-11T09:36:49Z</time>
      </trkpt>
      <trkpt lat="43.72838" lon="5.96401">
        <ele>359.2</ele>
        <time>2023-06-11T09:36:50Z</time>
      </trkpt>
      <trkpt lat="43.7284" lon="5.96401">
        <ele>359.3</ele>
        <time>2023-06-11T09:36:51Z</time>
      </trkpt>
      <trkpt lat="43.72841" lon="5.96401">
        <ele>359.3</ele>
        <time>2023-06-11T09:36:52Z</time>
      </trkpt>
      <trkpt lat="43.72843" lon="5.96401">
        <ele>359.2</ele>
        <time>2023-06-11T09:36:53Z</time>
      </trkpt>
      <trkpt lat="43.72844" lon="5.96401">
        <ele>359.2</ele>
        <time>2023-06-11T09:36:54Z</time>
      </trkpt>
      <trkpt lat="43.72846" lon="5.96401">
        <ele>359.3</ele>
        <time>2023-06-11T09:36:55Z</time>
      </trkpt>
      <trkpt lat="43.72847" lon="5.96401">
        <ele>359.3</ele>
        <time>2023-06-11T09:36:56Z</time>
      </trkpt>
      <trkpt lat="43.72848" lon="5.96401">
        <ele>359.3</ele>
        <time>2023-06-11T09:36:57Z</time>
      </trkpt>
      <trkpt lat="43.7285" lon="5.96401">
        <ele>359.3</ele>
        <time>2023-06-11T09:36:58Z</time>
      </trkpt>
      <trkpt lat="43.72851" lon="5.96401">
        <ele>359.2</ele>
        <time>2023-06-11T09:36:59Z</time>
      </trkpt>
      <trkpt lat="43.72853" lon="5.96401">
        <ele>359.2</ele>
        <time>2023-06-11T09:37:00Z</time>
      </trkpt>
      <trkpt lat="43.72854" lon="5.96401">
        <ele>359.2</ele>
        <time>2023-06-11T09:37:01Z</time>
      </trkpt>
      <trkpt lat="43.72856" lon="5.96401">
        <ele>359.3</ele>
        <time>2023-06-11T09:37:02Z</time>
      </trkpt>
      <trkpt lat="43.72857" lon="5.96401">
        <ele>359.3</ele>
        <time>2023-06-11T09:37:03Z</time>
      </trkpt>
      <trkpt lat="43.72859" lon="5.96401">
        <ele>359.3</ele>
        <time>2023-06-11T09:37:04Z</time>
      </trkpt>
      <trkpt lat="43.7286" lon="5.96401">
        <ele>359.3</ele>
        <time>2023-06-11T09:37:05Z</time>
      </trkpt>
      <trkpt lat="43.72861" lon="5.96401">
        <ele>359.2</ele>
        <time>2023-06-11T09:37:06Z</time>
      </trkpt>
      <trkpt lat="43.72863" lon="5.96401">
        <ele>359.3</ele>
        <time>2023-06-11T09:37:07Z</time>
      </trkpt>
      <trkpt lat="43.72864" lon="5.96401">
        <ele>359.4</ele>
        <time>2023-06-11T09:37:08Z</time>
      </trkpt>
      <trkpt lat="43.72866" lon="5.96401">
        <ele>359.4</ele>
        <time>2023-06-11T09:37:09Z</time>
      </trkpt>
      <trkpt lat="43.72867" lon="5.96401">
        <ele>359.4</ele>
        <time>2023-06-11T09:37:10Z</time>
      </trkpt>
      <trkpt lat="43.72868" lon="5.96401">
        <ele>359.4</ele>
        <time>2023-06-11T09:37:11Z</time>
      </trkpt>
      <trkpt lat="43.7287" lon="5.96401">
        <ele>359.4</ele>
        <time>2023-06-11T09:37:12Z</time>
      </trkpt>
      <trkpt lat="43.72871" lon="5.96401">
        <ele>359.4</ele>
        <time>2023-06-11T09:37:13Z</time>
      </trkpt>
      <trkpt lat="43.72872" lon="5.96401">
        <ele>359.4</ele>
        <time>2023-06-11T09:37:14Z</time>
      </trkpt>
      <trkpt lat="43.72874" lon="5.96401">
        <ele>359.4</ele>
        <time>2023-06-11T09:37:15Z</time>
      </trkpt>
      <trkpt lat="43.72875" lon="5.96402">
        <ele>359.4</ele>
        <time>2023-06-11T09:37:16Z</time>
      </trkpt>
      <trkpt lat="43.72877" lon="5.96402">
        <ele>359.5</ele>
        <time>2023-06-11T09:37:17Z</time>
      </trkpt>
      <trkpt lat="43.72878" lon="5.96402">
        <ele>359.5</ele>
        <time>2023-06-11T09:37:18Z</time>
      </trkpt>
      <trkpt lat="43.7288" lon="5.96402">
        <ele>359.5</ele>
        <time>2023-06-11T09:37:19Z</time>
      </trkpt>
      <trkpt lat="43.72881" lon="5.96402">
        <ele>359.5</ele>
        <time>2023-06-11T09:37:20Z</time>
      </trkpt>
      <trkpt lat="43.72882" lon="5.96402">
        <ele>359.4</ele>
        <time>2023-06-11T09:37:21Z</time>
      </trkpt>
      <trkpt lat="43.72884" lon="5.96402">
        <ele>359.5</ele>
        <time>2023-06-11T09:37:22Z</time>
      </trkpt>
      <trkpt lat="43.72885" lon="5.96402">
        <ele>359.5</ele>
        <time>2023-06-11T09:37:23Z</time>
      </trkpt>
      <trkpt lat="43.72887" lon="5.96402">
        <ele>359.5</ele>
        <time>2023-06-11T09:37:24Z</time>
      </trkpt>
      <trkpt lat="43.72888" lon="5.96402">
        <ele>359.5</ele>
        <time>2023-06-11T09:37:25Z</time>
      </trkpt>
      <trkpt lat="43.72889" lon="5.96402">
        <ele>359.6</ele>
        <time>2023-06-11T09:37:26Z</time>
      </trkpt>
      <trkpt lat="43.72891" lon="5.96402">
        <ele>359.6</ele>
        <time>2023-06-11T09:37:27Z</time>
      </trkpt>
      <trkpt lat="43.72892" lon="5.96401">
        <ele>359.6</ele>
        <time>2023-06-11T09:37:28Z</time>
      </trkpt>
      <trkpt lat="43.72893" lon="5.96401">
        <ele>359.6</ele>
        <time>2023-06-11T09:37:29Z</time>
      </trkpt>
      <trkpt lat="43.72895" lon="5.96401">
        <ele>359.5</ele>
        <time>2023-06-11T09:37:30Z</time>
      </trkpt>
      <trkpt lat="43.72896" lon="5.96401">
        <ele>359.4</ele>
        <time>2023-06-11T09:37:31Z</time>
      </trkpt>
      <trkpt lat="43.72897" lon="5.964">
        <ele>359.4</ele>
        <time>2023-06-11T09:37:32Z</time>
      </trkpt>
      <trkpt lat="43.72898" lon="5.964">
        <ele>359.4</ele>
        <time>2023-06-11T09:37:33Z</time>
      </trkpt>
      <trkpt lat="43.729" lon="5.964">
        <ele>359.3</ele>
        <time>2023-06-11T09:37:34Z</time>
      </trkpt>
      <trkpt lat="43.72901" lon="5.964">
        <ele>359.4</ele>
        <time>2023-06-11T09:37:35Z</time>
      </trkpt>
      <trkpt lat="43.72902" lon="5.964">
        <ele>359.4</ele>
        <time>2023-06-11T09:37:36Z</time>
      </trkpt>
      <trkpt lat="43.72904" lon="5.96399">
        <ele>359.4</ele>
        <time>2023-06-11T09:37:37Z</time>
      </trkpt>
      <trkpt lat="43.72905" lon="5.96399">
        <ele>359.4</ele>
        <time>2023-06-11T09:37:38Z</time>
      </trkpt>
      <trkpt lat="43.72906" lon="5.96399">
        <ele>359.4</ele>
        <time>2023-06-11T09:37:39Z</time>
      </trkpt>
      <trkpt lat="43.72908" lon="5.96399">
        <ele>359.4</ele>
        <time>2023-06-11T09:37:40Z</time>
      </trkpt>
      <trkpt lat="43.72909" lon="5.96399">
        <ele>359.4</ele>
        <time>2023-06-11T09:37:41Z</time>
      </trkpt>
      <trkpt lat="43.7291" lon="5.96399">
        <ele>359.4</ele>
        <time>2023-06-11T09:37:42Z</time>
      </trkpt>
      <trkpt lat="43.72912" lon="5.96398">
        <ele>359.4</ele>
        <time>2023-06-11T09:37:43Z</time>
      </trkpt>
      <trkpt lat="43.72913" lon="5.96398">
        <ele>359.4</ele>
        <time>2023-06-11T09:37:44Z</time>
      </trkpt>
      <trkpt lat="43.72914" lon="5.96398">
        <ele>359.4</ele>
        <time>2023-06-11T09:37:45Z</time>
      </trkpt>
      <trkpt lat="43.72916" lon="5.96398">
        <ele>359.3</ele>
        <time>2023-06-11T09:37:46Z</time>
      </trkpt>
      <trkpt lat="43.72917" lon="5.96398">
        <ele>359.2</ele>
        <time>2023-06-11T09:37:47Z</time>
      </trkpt>
      <trkpt lat="43.72918" lon="5.96397">
        <ele>359.2</ele>
        <time>2023-06-11T09:37:48Z</time>
      </trkpt>
      <trkpt lat="43.7292" lon="5.96397">
        <ele>359.3</ele>
        <time>2023-06-11T09:37:49Z</time>
      </trkpt>
      <trkpt lat="43.72921" lon="5.96397">
        <ele>359.3</ele>
        <time>2023-06-11T09:37:50Z</time>
      </trkpt>
      <trkpt lat="43.72923" lon="5.96397">
        <ele>359.3</ele>
        <time>2023-06-11T09:37:51Z</time>
      </trkpt>
      <trkpt lat="43.72924" lon="5.96397">
        <ele>359.4</ele>
        <time>2023-06-11T09:37:52Z</time>
      </trkpt>
      <trkpt lat="43.72925" lon="5.96397">
        <ele>359.4</ele>
        <time>2023-06-11T09:37:53Z</time>
      </trkpt>
      <trkpt lat="43.72927" lon="5.96397">
        <ele>359.4</ele>
        <time>2023-06-11T09:37:54Z</time>
      </trkpt>
      <trkpt lat="43.72928" lon="5.96397">
        <ele>359.4</ele>
        <time>2023-06-11T09:37:55Z</time>
      </trkpt>
      <trkpt lat="43.7293" lon="5.96396">
        <ele>359.4</ele>
        <time>2023-06-11T09:37:56Z</time>
      </trkpt>
      <trkpt lat="43.72931" lon="5.96396">
        <ele>359.4</ele>
        <time>2023-06-11T09:37:57Z</time>
      </trkpt>
      <trkpt lat="43.72932" lon="5.96396">
        <ele>359.5</ele>
        <time>2023-06-11T09:37:58Z</time>
      </trkpt>
      <trkpt lat="43.72934" lon="5.96396">
        <ele>359.5</ele>
        <time>2023-06-11T09:37:59Z</time>
      </trkpt>
      <trkpt lat="43.72935" lon="5.96396">
        <ele>359.5</ele>
        <time>2023-06-11T09:38:00Z</time>
      </trkpt>
      <trkpt lat="43.72936" lon="5.96396">
        <ele>359.5</ele>
        <time>2023-06-11T09:38:01Z</time>
      </trkpt>
      <trkpt lat="43.72938" lon="5.96396">
        <ele>359.5</ele>
        <time>2023-06-11T09:38:02Z</time>
      </trkpt>
      <trkpt lat="43.72939" lon="5.96396">
        <ele>359.5</ele>
        <time>2023-06-11T09:38:03Z</time>
      </trkpt>
      <trkpt lat="43.72941" lon="5.96396">
        <ele>359.5</ele>
        <time>2023-06-11T09:38:04Z</time>
      </trkpt>
      <trkpt lat="43.72942" lon="5.96396">
        <ele>359.5</ele>
        <time>2023-06-11T09:38:05Z</time>
      </trkpt>
      <trkpt lat="43.72943" lon="5.96396">
        <ele>359.5</ele>
        <time>2023-06-11T09:38:06Z</time>
      </trkpt>
      <trkpt lat="43.72945" lon="5.96396">
        <ele>359.5</ele>
        <time>2023-06-11T09:38:07Z</time>
      </trkpt>
      <trkpt lat="43.72946" lon="5.96396">
        <ele>359.5</ele>
        <time>2023-06-11T09:38:08Z</time>
      </trkpt>
      <trkpt lat="43.72948" lon="5.96396">
        <ele>359.5</ele>
        <time>2023-06-11T09:38:09Z</time>
      </trkpt>
      <trkpt lat="43.72949" lon="5.96396">
        <ele>359.4</ele>
        <time>2023-06-11T09:38:10Z</time>
      </trkpt>
      <trkpt lat="43.7295" lon="5.96396">
        <ele>359.4</ele>
        <time>2023-06-11T09:38:11Z</time>
      </trkpt>
      <trkpt lat="43.72952" lon="5.96396">
        <ele>359.4</ele>
        <time>2023-06-11T09:38:12Z</time>
      </trkpt>
      <trkpt lat="43.72953" lon="5.96396">
        <ele>359.4</ele>
        <time>2023-06-11T09:38:13Z</time>
      </trkpt>
      <trkpt lat="43.72955" lon="5.96396">
        <ele>359.2</ele>
        <time>2023-06-11T09:38:14Z</time>
      </trkpt>
      <trkpt lat="43.72956" lon="5.96396">
        <ele>359.3</ele>
        <time>2023-06-11T09:38:15Z</time>
      </trkpt>
      <trkpt lat="43.72957" lon="5.96397">
        <ele>359.4</ele>
        <time>2023-06-11T09:38:16Z</time>
      </trkpt>
      <trkpt lat="43.72959" lon="5.96397">
        <ele>359.3</ele>
        <time>2023-06-11T09:38:17Z</time>
      </trkpt>
      <trkpt lat="43.7296" lon="5.96397">
        <ele>359.4</ele>
        <time>2023-06-11T09:38:18Z</time>
      </trkpt>
      <trkpt lat="43.72962" lon="5.96397">
        <ele>359.3</ele>
        <time>2023-06-11T09:38:19Z</time>
      </trkpt>
      <trkpt lat="43.72963" lon="5.96397">
        <ele>359.3</ele>
        <time>2023-06-11T09:38:20Z</time>
      </trkpt>
      <trkpt lat="43.72965" lon="5.96398">
        <ele>359.3</ele>
        <time>2023-06-11T09:38:21Z</time>
      </trkpt>
      <trkpt lat="43.72966" lon="5.96398">
        <ele>359.2</ele>
        <time>2023-06-11T09:38:22Z</time>
      </trkpt>
      <trkpt lat="43.72968" lon="5.96398">
        <ele>359.3</ele>
        <time>2023-06-11T09:38:23Z</time>
      </trkpt>
      <trkpt lat="43.72969" lon="5.96398">
        <ele>359.3</ele>
        <time>2023-06-11T09:38:24Z</time>
      </trkpt>
      <trkpt lat="43.7297" lon="5.96398">
        <ele>359.3</ele>
        <time>2023-06-11T09:38:25Z</time>
      </trkpt>
      <trkpt lat="43.72972" lon="5.96399">
        <ele>359.3</ele>
        <time>2023-06-11T09:38:26Z</time>
      </trkpt>
      <trkpt lat="43.72973" lon="5.96399">
        <ele>359.2</ele>
        <time>2023-06-11T09:38:27Z</time>
      </trkpt>
      <trkpt lat="43.72975" lon="5.96399">
        <ele>359.2</ele>
        <time>2023-06-11T09:38:28Z</time>
      </trkpt>
      <trkpt lat="43.72976" lon="5.96399">
        <ele>359.1</ele>
        <time>2023-06-11T09:38:29Z</time>
      </trkpt>
      <trkpt lat="43.72978" lon="5.96399">
        <ele>359.1</ele>
        <time>2023-06-11T09:38:30Z</time>
      </trkpt>
      <trkpt lat="43.72979" lon="5.96399">
        <ele>359</ele>
        <time>2023-06-11T09:38:31Z</time>
      </trkpt>
      <trkpt lat="43.7298" lon="5.96399">
        <ele>359</ele>
        <time>2023-06-11T09:38:32Z</time>
      </trkpt>
      <trkpt lat="43.72982" lon="5.96399">
        <ele>359.1</ele>
        <time>2023-06-11T09:38:33Z</time>
      </trkpt>
      <trkpt lat="43.72983" lon="5.96399">
        <ele>359.1</ele>
        <time>2023-06-11T09:38:34Z</time>
      </trkpt>
      <trkpt lat="43.72985" lon="5.96399">
        <ele>359.1</ele>
        <time>2023-06-11T09:38:35Z</time>
      </trkpt>
      <trkpt lat="43.72986" lon="5.96399">
        <ele>359.1</ele>
        <time>2023-06-11T09:38:36Z</time>
      </trkpt>
      <trkpt lat="43.72987" lon="5.96399">
        <ele>359.1</ele>
        <time>2023-06-11T09:38:37Z</time>
      </trkpt>
      <trkpt lat="43.72989" lon="5.96399">
        <ele>359.1</ele>
        <time>2023-06-11T09:38:38Z</time>
      </trkpt>
      <trkpt lat="43.7299" lon="5.96399">
        <ele>359.1</ele>
        <time>2023-06-11T09:38:39Z</time>
      </trkpt>
      <trkpt lat="43.72992" lon="5.96399">
        <ele>359.1</ele>
        <time>2023-06-11T09:38:40Z</time>
      </trkpt>
      <trkpt lat="43.72993" lon="5.96399">
        <ele>359.2</ele>
        <time>2023-06-11T09:38:41Z</time>
      </trkpt>
      <trkpt lat="43.72994" lon="5.964">
        <ele>359.2</ele>
        <time>2023-06-11T09:38:42Z</time>
      </trkpt>
      <trkpt lat="43.72996" lon="5.964">
        <ele>359.3</ele>
        <time>2023-06-11T09:38:43Z</time>
      </trkpt>
      <trkpt lat="43.72997" lon="5.964">
        <ele>359.3</ele>
        <time>2023-06-11T09:38:44Z</time>
      </trkpt>
      <trkpt lat="43.72999" lon="5.964">
        <ele>359.4</ele>
        <time>2023-06-11T09:38:45Z</time>
      </trkpt>
      <trkpt lat="43.73" lon="5.964">
        <ele>359.3</ele>
        <time>2023-06-11T09:38:46Z</time>
      </trkpt>
      <trkpt lat="43.73002" lon="5.964">
        <ele>359.2</ele>
        <time>2023-06-11T09:38:47Z</time>
      </trkpt>
      <trkpt lat="43.73003" lon="5.964">
        <ele>359.1</ele>
        <time>2023-06-11T09:38:48Z</time>
      </trkpt>
      <trkpt lat="43.73004" lon="5.964">
        <ele>359.1</ele>
        <time>2023-06-11T09:38:49Z</time>
      </trkpt>
      <trkpt lat="43.73006" lon="5.964">
        <ele>359.2</ele>
        <time>2023-06-11T09:38:50Z</time>
      </trkpt>
      <trkpt lat="43.73007" lon="5.964">
        <ele>359.2</ele>
        <time>2023-06-11T09:38:51Z</time>
      </trkpt>
      <trkpt lat="43.73009" lon="5.96401">
        <ele>359.3</ele>
        <time>2023-06-11T09:38:52Z</time>
      </trkpt>
      <trkpt lat="43.7301" lon="5.96401">
        <ele>359.3</ele>
        <time>2023-06-11T09:38:53Z</time>
      </trkpt>
      <trkpt lat="43.73011" lon="5.96401">
        <ele>359.3</ele>
        <time>2023-06-11T09:38:54Z</time>
      </trkpt>
      <trkpt lat="43.73013" lon="5.96401">
        <ele>359.3</ele>
        <time>2023-06-11T09:38:55Z</time>
      </trkpt>
      <trkpt lat="43.73014" lon="5.96401">
        <ele>359.4</ele>
        <time>2023-06-11T09:38:56Z</time>
      </trkpt>
      <trkpt lat="43.73015" lon="5.96401">
        <ele>359.5</ele>
        <time>2023-06-11T09:38:57Z</time>
      </trkpt>
      <trkpt lat="43.73017" lon="5.96401">
        <ele>359.4</ele>
        <time>2023-06-11T09:38:58Z</time>
      </trkpt>
      <trkpt lat="43.73018" lon="5.96401">
        <ele>359.4</ele>
        <time>2023-06-11T09:38:59Z</time>
      </trkpt>
      <trkpt lat="43.7302" lon="5.96401">
        <ele>359.4</ele>
        <time>2023-06-11T09:39:00Z</time>
      </trkpt>
      <trkpt lat="43.73021" lon="5.96401">
        <ele>359.2</ele>
        <time>2023-06-11T09:39:01Z</time>
      </trkpt>
      <trkpt lat="43.73022" lon="5.96401">
        <ele>359.1</ele>
        <time>2023-06-11T09:39:02Z</time>
      </trkpt>
      <trkpt lat="43.73023" lon="5.96401">
        <ele>359</ele>
        <time>2023-06-11T09:39:03Z</time>
      </trkpt>
      <trkpt lat="43.73025" lon="5.96401">
        <ele>359</ele>
        <time>2023-06-11T09:39:04Z</time>
      </trkpt>
      <trkpt lat="43.73026" lon="5.96401">
        <ele>359</ele>
        <time>2023-06-11T09:39:05Z</time>
      </trkpt>
      <trkpt lat="43.73028" lon="5.96401">
        <ele>359.1</ele>
        <time>2023-06-11T09:39:06Z</time>
      </trkpt>
      <trkpt lat="43.73029" lon="5.96401">
        <ele>359</ele>
        <time>2023-06-11T09:39:07Z</time>
      </trkpt>
      <trkpt lat="43.7303" lon="5.96401">
        <ele>359</ele>
        <time>2023-06-11T09:39:08Z</time>
      </trkpt>
      <trkpt lat="43.73032" lon="5.96401">
        <ele>359</ele>
        <time>2023-06-11T09:39:09Z</time>
      </trkpt>
      <trkpt lat="43.73033" lon="5.96401">
        <ele>359.1</ele>
        <time>2023-06-11T09:39:10Z</time>
      </trkpt>
      <trkpt lat="43.73034" lon="5.96401">
        <ele>359.1</ele>
        <time>2023-06-11T09:39:11Z</time>
      </trkpt>
      <trkpt lat="43.73036" lon="5.96401">
        <ele>359</ele>
        <time>2023-06-11T09:39:12Z</time>
      </trkpt>
      <trkpt lat="43.73037" lon="5.964">
        <ele>359.1</ele>
        <time>2023-06-11T09:39:13Z</time>
      </trkpt>
      <trkpt lat="43.73038" lon="5.964">
        <ele>359.1</ele>
        <time>2023-06-11T09:39:14Z</time>
      </trkpt>
      <trkpt lat="43.73039" lon="5.96399">
        <ele>359.2</ele>
        <time>2023-06-11T09:39:15Z</time>
      </trkpt>
      <trkpt lat="43.73041" lon="5.96399">
        <ele>359.2</ele>
        <time>2023-06-11T09:39:16Z</time>
      </trkpt>
      <trkpt lat="43.73042" lon="5.96398">
        <ele>359.2</ele>
        <time>2023-06-11T09:39:17Z</time>
      </trkpt>
      <trkpt lat="43.73043" lon="5.96397">
        <ele>359.1</ele>
        <time>2023-06-11T09:39:18Z</time>
      </trkpt>
      <trkpt lat="43.73044" lon="5.96397">
        <ele>359.1</ele>
        <time>2023-06-11T09:39:19Z</time>
      </trkpt>
      <trkpt lat="43.73046" lon="5.96396">
        <ele>359.1</ele>
        <time>2023-06-11T09:39:20Z</time>
      </trkpt>
      <trkpt lat="43.73047" lon="5.96395">
        <ele>359</ele>
        <time>2023-06-11T09:39:21Z</time>
      </trkpt>
      <trkpt lat="43.73048" lon="5.96395">
        <ele>359</ele>
        <time>2023-06-11T09:39:22Z</time>
      </trkpt>
      <trkpt lat="43.73049" lon="5.96394">
        <ele>359.1</ele>
        <time>2023-06-11T09:39:23Z</time>
      </trkpt>
      <trkpt lat="43.73051" lon="5.96394">
        <ele>359.1</ele>
        <time>2023-06-11T09:39:24Z</time>
      </trkpt>
      <trkpt lat="43.73052" lon="5.96393">
        <ele>359.2</ele>
        <time>2023-06-11T09:39:25Z</time>
      </trkpt>
      <trkpt lat="43.73053" lon="5.96392">
        <ele>359.2</ele>
        <time>2023-06-11T09:39:26Z</time>
      </trkpt>
      <trkpt lat="43.73054" lon="5.96391">
        <ele>359.2</ele>
        <time>2023-06-11T09:39:27Z</time>
      </trkpt>
      <trkpt lat="43.73055" lon="5.9639">
        <ele>359.2</ele>
        <time>2023-06-11T09:39:28Z</time>
      </trkpt>
      <trkpt lat="43.73057" lon="5.96389">
        <ele>359.2</ele>
        <time>2023-06-11T09:39:29Z</time>
      </trkpt>
      <trkpt lat="43.73058" lon="5.96388">
        <ele>359.2</ele>
        <time>2023-06-11T09:39:30Z</time>
      </trkpt>
      <trkpt lat="43.73059" lon="5.96388">
        <ele>359.2</ele>
        <time>2023-06-11T09:39:31Z</time>
      </trkpt>
      <trkpt lat="43.7306" lon="5.96387">
        <ele>359.2</ele>
        <time>2023-06-11T09:39:32Z</time>
      </trkpt>
      <trkpt lat="43.73061" lon="5.96386">
        <ele>359.1</ele>
        <time>2023-06-11T09:39:33Z</time>
      </trkpt>
      <trkpt lat="43.73063" lon="5.96385">
        <ele>359.1</ele>
        <time>2023-06-11T09:39:34Z</time>
      </trkpt>
      <trkpt lat="43.73064" lon="5.96384">
        <ele>359</ele>
        <time>2023-06-11T09:39:35Z</time>
      </trkpt>
      <trkpt lat="43.73065" lon="5.96384">
        <ele>359.1</ele>
        <time>2023-06-11T09:39:36Z</time>
      </trkpt>
      <trkpt lat="43.73066" lon="5.96383">
        <ele>359.2</ele>
        <time>2023-06-11T09:39:37Z</time>
      </trkpt>
      <trkpt lat="43.73068" lon="5.96382">
        <ele>359.2</ele>
        <time>2023-06-11T09:39:38Z</time>
      </trkpt>
      <trkpt lat="43.73069" lon="5.96381">
        <ele>359.2</ele>
        <time>2023-06-11T09:39:39Z</time>
      </trkpt>
      <trkpt lat="43.7307" lon="5.9638">
        <ele>359.1</ele>
        <time>2023-06-11T09:39:40Z</time>
      </trkpt>
      <trkpt lat="43.73071" lon="5.96379">
        <ele>359</ele>
        <time>2023-06-11T09:39:41Z</time>
      </trkpt>
      <trkpt lat="43.73072" lon="5.96378">
        <ele>359</ele>
        <time>2023-06-11T09:39:42Z</time>
      </trkpt>
      <trkpt lat="43.73074" lon="5.96378">
        <ele>359.1</ele>
        <time>2023-06-11T09:39:43Z</time>
      </trkpt>
      <trkpt lat="43.73075" lon="5.96377">
        <ele>359.2</ele>
        <time>2023-06-11T09:39:44Z</time>
      </trkpt>
      <trkpt lat="43.73076" lon="5.96376">
        <ele>359.3</ele>
        <time>2023-06-11T09:39:45Z</time>
      </trkpt>
      <trkpt lat="43.73077" lon="5.96375">
        <ele>359.3</ele>
        <time>2023-06-11T09:39:46Z</time>
      </trkpt>
      <trkpt lat="43.73078" lon="5.96374">
        <ele>359.4</ele>
        <time>2023-06-11T09:39:47Z</time>
      </trkpt>
      <trkpt lat="43.7308" lon="5.96373">
        <ele>359.4</ele>
        <time>2023-06-11T09:39:48Z</time>
      </trkpt>
      <trkpt lat="43.73081" lon="5.96372">
        <ele>359.5</ele>
        <time>2023-06-11T09:39:49Z</time>
      </trkpt>
      <trkpt lat="43.73082" lon="5.96372">
        <ele>359.5</ele>
        <time>2023-06-11T09:39:50Z</time>
      </trkpt>
      <trkpt lat="43.73083" lon="5.96371">
        <ele>359.5</ele>
        <time>2023-06-11T09:39:51Z</time>
      </trkpt>
      <trkpt lat="43.73084" lon="5.9637">
        <ele>359.6</ele>
        <time>2023-06-11T09:39:52Z</time>
      </trkpt>
      <trkpt lat="43.73085" lon="5.96369">
        <ele>359.5</ele>
        <time>2023-06-11T09:39:53Z</time>
      </trkpt>
      <trkpt lat="43.73086" lon="5.96368">
        <ele>359.5</ele>
        <time>2023-06-11T09:39:54Z</time>
      </trkpt>
      <trkpt lat="43.73087" lon="5.96368">
        <ele>359.5</ele>
        <time>2023-06-11T09:39:55Z</time>
      </trkpt>
      <trkpt lat="43.73089" lon="5.96367">
        <ele>359.4</ele>
        <time>2023-06-11T09:39:56Z</time>
      </trkpt>
      <trkpt lat="43.7309" lon="5.96366">
        <ele>359.4</ele>
        <time>2023-06-11T09:39:57Z</time>
      </trkpt>
      <trkpt lat="43.73091" lon="5.96366">
        <ele>359.4</ele>
        <time>2023-06-11T09:39:58Z</time>
      </trkpt>
      <trkpt lat="43.73092" lon="5.96365">
        <ele>359.4</ele>
        <time>2023-06-11T09:39:59Z</time>
      </trkpt>
      <trkpt lat="43.73093" lon="5.96365">
        <ele>359.3</ele>
        <time>2023-06-11T09:40:00Z</time>
      </trkpt>
      <trkpt lat="43.73095" lon="5.96364">
        <ele>359.2</ele>
        <time>2023-06-11T09:40:01Z</time>
      </trkpt>
      <trkpt lat="43.73096" lon="5.96364">
        <ele>359.2</ele>
        <time>2023-06-11T09:40:02Z</time>
      </trkpt>
      <trkpt lat="43.73097" lon="5.96363">
        <ele>359.2</ele>
        <time>2023-06-11T09:40:03Z</time>
      </trkpt>
      <trkpt lat="43.73098" lon="5.96363">
        <ele>359.1</ele>
        <time>2023-06-11T09:40:04Z</time>
      </trkpt>
      <trkpt lat="43.73099" lon="5.96362">
        <ele>359.1</ele>
        <time>2023-06-11T09:40:05Z</time>
      </trkpt>
      <trkpt lat="43.731" lon="5.96362">
        <ele>359.1</ele>
        <time>2023-06-11T09:40:06Z</time>
      </trkpt>
      <trkpt lat="43.73101" lon="5.96361">
        <ele>359.1</ele>
        <time>2023-06-11T09:40:07Z</time>
      </trkpt>
      <trkpt lat="43.73103" lon="5.96361">
        <ele>359.1</ele>
        <time>2023-06-11T09:40:08Z</time>
      </trkpt>
      <trkpt lat="43.73104" lon="5.9636">
        <ele>359.1</ele>
        <time>2023-06-11T09:40:09Z</time>
      </trkpt>
      <trkpt lat="43.73105" lon="5.9636">
        <ele>359.2</ele>
        <time>2023-06-11T09:40:10Z</time>
      </trkpt>
      <trkpt lat="43.73106" lon="5.9636">
        <ele>359.1</ele>
        <time>2023-06-11T09:40:11Z</time>
      </trkpt>
      <trkpt lat="43.73107" lon="5.96359">
        <ele>359.1</ele>
        <time>2023-06-11T09:40:12Z</time>
      </trkpt>
      <trkpt lat="43.73108" lon="5.96359">
        <ele>359</ele>
        <time>2023-06-11T09:40:13Z</time>
      </trkpt>
      <trkpt lat="43.73109" lon="5.96359">
        <ele>359</ele>
        <time>2023-06-11T09:40:14Z</time>
      </trkpt>
      <trkpt lat="43.7311" lon="5.96358">
        <ele>359</ele>
        <time>2023-06-11T09:40:15Z</time>
      </trkpt>
      <trkpt lat="43.73111" lon="5.96358">
        <ele>358.9</ele>
        <time>2023-06-11T09:40:16Z</time>
      </trkpt>
      <trkpt lat="43.73113" lon="5.96358">
        <ele>358.9</ele>
        <time>2023-06-11T09:40:17Z</time>
      </trkpt>
      <trkpt lat="43.73114" lon="5.96357">
        <ele>358.9</ele>
        <time>2023-06-11T09:40:18Z</time>
      </trkpt>
      <trkpt lat="43.73115" lon="5.96357">
        <ele>358.9</ele>
        <time>2023-06-11T09:40:19Z</time>
      </trkpt>
      <trkpt lat="43.73116" lon="5.96357">
        <ele>359</ele>
        <time>2023-06-11T09:40:20Z</time>
      </trkpt>
      <trkpt lat="43.73117" lon="5.96356">
        <ele>359.1</ele>
        <time>2023-06-11T09:40:21Z</time>
      </trkpt>
      <trkpt lat="43.73118" lon="5.96356">
        <ele>359.1</ele>
        <time>2023-06-11T09:40:22Z</time>
      </trkpt>
      <trkpt lat="43.73119" lon="5.96356">
        <ele>359.1</ele>
        <time>2023-06-11T09:40:23Z</time>
      </trkpt>
      <trkpt lat="43.7312" lon="5.96356">
        <ele>359.1</ele>
        <time>2023-06-11T09:40:24Z</time>
      </trkpt>
      <trkpt lat="43.73121" lon="5.96356">
        <ele>359.1</ele>
        <time>2023-06-11T09:40:25Z</time>
      </trkpt>
      <trkpt lat="43.73122" lon="5.96356">
        <ele>359.1</ele>
        <time>2023-06-11T09:40:26Z</time>
      </trkpt>
      <trkpt lat="43.73123" lon="5.96356">
        <ele>359.1</ele>
        <time>2023-06-11T09:40:27Z</time>
      </trkpt>
      <trkpt lat="43.73125" lon="5.96356">
        <ele>359.1</ele>
        <time>2023-06-11T09:40:28Z</time>
      </trkpt>
      <trkpt lat="43.73126" lon="5.96356">
        <ele>359.2</ele>
        <time>2023-06-11T09:40:29Z</time>
      </trkpt>
      <trkpt lat="43.73127" lon="5.96357">
        <ele>359.2</ele>
        <time>2023-06-11T09:40:30Z</time>
      </trkpt>
      <trkpt lat="43.73128" lon="5.96357">
        <ele>359.2</ele>
        <time>2023-06-11T09:40:31Z</time>
      </trkpt>
      <trkpt lat="43.73129" lon="5.96357">
        <ele>359.2</ele>
        <time>2023-06-11T09:40:32Z</time>
      </trkpt>
      <trkpt lat="43.7313" lon="5.96357">
        <ele>359.2</ele>
        <time>2023-06-11T09:40:33Z</time>
      </trkpt>
      <trkpt lat="43.73131" lon="5.96357">
        <ele>359.1</ele>
        <time>2023-06-11T09:40:34Z</time>
      </trkpt>
      <trkpt lat="43.73132" lon="5.96357">
        <ele>359.1</ele>
        <time>2023-06-11T09:40:35Z</time>
      </trkpt>
      <trkpt lat="43.73132" lon="5.96358">
        <ele>359</ele>
        <time>2023-06-11T09:40:36Z</time>
      </trkpt>
      <trkpt lat="43.73133" lon="5.96358">
        <ele>359.1</ele>
        <time>2023-06-11T09:40:37Z</time>
      </trkpt>
      <trkpt lat="43.73134" lon="5.96358">
        <ele>359.1</ele>
        <time>2023-06-11T09:40:38Z</time>
      </trkpt>
      <trkpt lat="43.73135" lon="5.96358">
        <ele>359.2</ele>
        <time>2023-06-11T09:40:39Z</time>
      </trkpt>
      <trkpt lat="43.73135" lon="5.96358">
        <ele>359.2</ele>
        <time>2023-06-11T09:40:40Z</time>
      </trkpt>
      <trkpt lat="43.73136" lon="5.96358">
        <ele>359.2</ele>
        <time>2023-06-11T09:40:41Z</time>
      </trkpt>
      <trkpt lat="43.73137" lon="5.96358">
        <ele>359.2</ele>
        <time>2023-06-11T09:40:42Z</time>
      </trkpt>
      <trkpt lat="43.73138" lon="5.96358">
        <ele>359.1</ele>
        <time>2023-06-11T09:40:43Z</time>
      </trkpt>
      <trkpt lat="43.73138" lon="5.96359">
        <ele>359.1</ele>
        <time>2023-06-11T09:40:44Z</time>
      </trkpt>
      <trkpt lat="43.73139" lon="5.96359">
        <ele>359.2</ele>
        <time>2023-06-11T09:40:45Z</time>
      </trkpt>
      <trkpt lat="43.7314" lon="5.96359">
        <ele>359.2</ele>
        <time>2023-06-11T09:40:46Z</time>
      </trkpt>
      <trkpt lat="43.73141" lon="5.96359">
        <ele>359.2</ele>
        <time>2023-06-11T09:40:47Z</time>
      </trkpt>
      <trkpt lat="43.73141" lon="5.96359">
        <ele>359.1</ele>
        <time>2023-06-11T09:40:48Z</time>
      </trkpt>
      <trkpt lat="43.73142" lon="5.9636">
        <ele>359.1</ele>
        <time>2023-06-11T09:40:49Z</time>
      </trkpt>
      <trkpt lat="43.73142" lon="5.9636">
        <ele>359.1</ele>
        <time>2023-06-11T09:40:50Z</time>
      </trkpt>
      <trkpt lat="43.73143" lon="5.9636">
        <ele>359</ele>
        <time>2023-06-11T09:40:51Z</time>
      </trkpt>
      <trkpt lat="43.73144" lon="5.9636">
        <ele>359</ele>
        <time>2023-06-11T09:40:52Z</time>
      </trkpt>
      <trkpt lat="43.73144" lon="5.9636">
        <ele>359</ele>
        <time>2023-06-11T09:40:53Z</time>
      </trkpt>
      <trkpt lat="43.73145" lon="5.96361">
        <ele>359.1</ele>
        <time>2023-06-11T09:40:54Z</time>
      </trkpt>
      <trkpt lat="43.73145" lon="5.96361">
        <ele>359.1</ele>
        <time>2023-06-11T09:40:55Z</time>
      </trkpt>
      <trkpt lat="43.73146" lon="5.96361">
        <ele>359.1</ele>
        <time>2023-06-11T09:40:56Z</time>
      </trkpt>
      <trkpt lat="43.73146" lon="5.96361">
        <ele>359.1</ele>
        <time>2023-06-11T09:40:57Z</time>
      </trkpt>
      <trkpt lat="43.73147" lon="5.96361">
        <ele>359</ele>
        <time>2023-06-11T09:40:58Z</time>
      </trkpt>
      <trkpt lat="43.73147" lon="5.96362">
        <ele>359</ele>
        <time>2023-06-11T09:40:59Z</time>
      </trkpt>
      <trkpt lat="43.73148" lon="5.96362">
        <ele>358.9</ele>
        <time>2023-06-11T09:41:00Z</time>
      </trkpt>
      <trkpt lat="43.73148" lon="5.96362">
        <ele>358.9</ele>
        <time>2023-06-11T09:41:01Z</time>
      </trkpt>
      <trkpt lat="43.73148" lon="5.96361">
        <ele>358.9</ele>
        <time>2023-06-11T09:41:02Z</time>
      </trkpt>
      <trkpt lat="43.73149" lon="5.96362">
        <ele>359</ele>
        <time>2023-06-11T09:41:03Z</time>
      </trkpt>
      <trkpt lat="43.73149" lon="5.96362">
        <ele>359</ele>
        <time>2023-06-11T09:41:04Z</time>
      </trkpt>
      <trkpt lat="43.7315" lon="5.96362">
        <ele>359</ele>
        <time>2023-06-11T09:41:05Z</time>
      </trkpt>
      <trkpt lat="43.7315" lon="5.96363">
        <ele>359</ele>
        <time>2023-06-11T09:41:06Z</time>
      </trkpt>
      <trkpt lat="43.7315" lon="5.96363">
        <ele>359</ele>
        <time>2023-06-11T09:41:07Z</time>
      </trkpt>
      <trkpt lat="43.73151" lon="5.96363">
        <ele>359</ele>
        <time>2023-06-11T09:41:08Z</time>
      </trkpt>
      <trkpt lat="43.73151" lon="5.96363">
        <ele>359</ele>
        <time>2023-06-11T09:41:09Z</time>
      </trkpt>
      <trkpt lat="43.73151" lon="5.96363">
        <ele>359</ele>
        <time>2023-06-11T09:41:10Z</time>
      </trkpt>
      <trkpt lat="43.73151" lon="5.96363">
        <ele>359</ele>
        <time>2023-06-11T09:41:11Z</time>
      </trkpt>
      <trkpt lat="43.73151" lon="5.96363">
        <ele>359</ele>
        <time>2023-06-11T09:41:12Z</time>
      </trkpt>
      <trkpt lat="43.73152" lon="5.96363">
        <ele>358.9</ele>
        <time>2023-06-11T09:41:13Z</time>
      </trkpt>
      <trkpt lat="43.73152" lon="5.96364">
        <ele>358.9</ele>
        <time>2023-06-11T09:41:14Z</time>
      </trkpt>
      <trkpt lat="43.73152" lon="5.96364">
        <ele>358.9</ele>
        <time>2023-06-11T09:41:15Z</time>
      </trkpt>
      <trkpt lat="43.73152" lon="5.96364">
        <ele>358.9</ele>
        <time>2023-06-11T09:41:16Z</time>
      </trkpt>
      <trkpt lat="43.73152" lon="5.96364">
        <ele>358.9</ele>
        <time>2023-06-11T09:41:17Z</time>
      </trkpt>
      <trkpt lat="43.73152" lon="5.96364">
        <ele>358.9</ele>
        <time>2023-06-11T09:41:18Z</time>
      </trkpt>
      <trkpt lat="43.73153" lon="5.96364">
        <ele>358.9</ele>
        <time>2023-06-11T09:41:19Z</time>
      </trkpt>
      <trkpt lat="43.73153" lon="5.96364">
        <ele>359</ele>
        <time>2023-06-11T09:41:20Z</time>
      </trkpt>
      <trkpt lat="43.73153" lon="5.96364">
        <ele>359.1</ele>
        <time>2023-06-11T09:41:21Z</time>
      </trkpt>
      <trkpt lat="43.73153" lon="5.96364">
        <ele>359.2</ele>
        <time>2023-06-11T09:41:22Z</time>
      </trkpt>
      <trkpt lat="43.73153" lon="5.96364">
        <ele>359.2</ele>
        <time>2023-06-11T09:41:23Z</time>
      </trkpt>
      <trkpt lat="43.73153" lon="5.96364">
        <ele>359.3</ele>
        <time>2023-06-11T09:41:24Z</time>
      </trkpt>
      <trkpt lat="43.73154" lon="5.96364">
        <ele>359.4</ele>
        <time>2023-06-11T09:41:25Z</time>
      </trkpt>
      <trkpt lat="43.73154" lon="5.96364">
        <ele>359.4</ele>
        <time>2023-06-11T09:41:26Z</time>
      </trkpt>
      <trkpt lat="43.73154" lon="5.96364">
        <ele>359.4</ele>
        <time>2023-06-11T09:41:27Z</time>
      </trkpt>
      <trkpt lat="43.73154" lon="5.96363">
        <ele>359.4</ele>
        <time>2023-06-11T09:41:28Z</time>
      </trkpt>
      <trkpt lat="43.73154" lon="5.96363">
        <ele>359.4</ele>
        <time>2023-06-11T09:41:29Z</time>
      </trkpt>
      <trkpt lat="43.73154" lon="5.96363">
        <ele>359.4</ele>
        <time>2023-06-11T09:41:30Z</time>
      </trkpt>
      <trkpt lat="43.73154" lon="5.96362">
        <ele>359.4</ele>
        <time>2023-06-11T09:41:31Z</time>
      </trkpt>
      <trkpt lat="43.73154" lon="5.96362">
        <ele>359.3</ele>
        <time>2023-06-11T09:41:32Z</time>
      </trkpt>
      <trkpt lat="43.73155" lon="5.96362">
        <ele>359.4</ele>
        <time>2023-06-11T09:41:33Z</time>
      </trkpt>
      <trkpt lat="43.73155" lon="5.96362">
        <ele>359.4</ele>
        <time>2023-06-11T09:41:34Z</time>
      </trkpt>
      <trkpt lat="43.73155" lon="5.96362">
        <ele>359.4</ele>
        <time>2023-06-11T09:41:35Z</time>
      </trkpt>
      <trkpt lat="43.73155" lon="5.96362">
        <ele>359.4</ele>
        <time>2023-06-11T09:41:36Z</time>
      </trkpt>
      <trkpt lat="43.73155" lon="5.96362">
        <ele>359.4</ele>
        <time>2023-06-11T09:41:37Z</time>
      </trkpt>
      <trkpt lat="43.73155" lon="5.96362">
        <ele>359.4</ele>
        <time>2023-06-11T09:41:38Z</time>
      </trkpt>
      <trkpt lat="43.73156" lon="5.96362">
        <ele>359.4</ele>
        <time>2023-06-11T09:41:39Z</time>
      </trkpt>
      <trkpt lat="43.73156" lon="5.96362">
        <ele>359.4</ele>
        <time>2023-06-11T09:41:40Z</time>
      </trkpt>
      <trkpt lat="43.73156" lon="5.96362">
        <ele>359.4</ele>
        <time>2023-06-11T09:41:41Z</time>
      </trkpt>
      <trkpt lat="43.73156" lon="5.96362">
        <ele>359.3</ele>
        <time>2023-06-11T09:41:42Z</time>
      </trkpt>
      <trkpt lat="43.73156" lon="5.96362">
        <ele>359.3</ele>
        <time>2023-06-11T09:41:43Z</time>
      </trkpt>
      <trkpt lat="43.73156" lon="5.96361">
        <ele>359.2</ele>
        <time>2023-06-11T09:41:44Z</time>
      </trkpt>
      <trkpt lat="43.73157" lon="5.96361">
        <ele>359.1</ele>
        <time>2023-06-11T09:41:45Z</time>
      </trkpt>
      <trkpt lat="43.73157" lon="5.96361">
        <ele>359</ele>
        <time>2023-06-11T09:41:46Z</time>
      </trkpt>
      <trkpt lat="43.73157" lon="5.96361">
        <ele>359</ele>
        <time>2023-06-11T09:41:47Z</time>
      </trkpt>
      <trkpt lat="43.73157" lon="5.96361">
        <ele>359</ele>
        <time>2023-06-11T09:41:48Z</time>
      </trkpt>
      <trkpt lat="43.73157" lon="5.96361">
        <ele>359</ele>
        <time>2023-06-11T09:41:49Z</time>
      </trkpt>
      <trkpt lat="43.73157" lon="5.96361">
        <ele>359</ele>
        <time>2023-06-11T09:41:50Z</time>
      </trkpt>
      <trkpt lat="43.73157" lon="5.96361">
        <ele>359</ele>
        <time>2023-06-11T09:41:51Z</time>
      </trkpt>
      <trkpt lat="43.73157" lon="5.96361">
        <ele>358.9</ele>
        <time>2023-06-11T09:41:52Z</time>
      </trkpt>
      <trkpt lat="43.73157" lon="5.96361">
        <ele>358.9</ele>
        <time>2023-06-11T09:41:53Z</time>
      </trkpt>
      <trkpt lat="43.73157" lon="5.96362">
        <ele>358.9</ele>
        <time>2023-06-11T09:41:54Z</time>
      </trkpt>
      <trkpt lat="43.73157" lon="5.96362">
        <ele>358.9</ele>
        <time>2023-06-11T09:41:55Z</time>
      </trkpt>
      <trkpt lat="43.73157" lon="5.96362">
        <ele>358.9</ele>
        <time>2023-06-11T09:41:56Z</time>
      </trkpt>
      <trkpt lat="43.73157" lon="5.96362">
        <ele>358.9</ele>
        <time>2023-06-11T09:41:57Z</time>
      </trkpt>
      <trkpt lat="43.73157" lon="5.96362">
        <ele>358.9</ele>
        <time>2023-06-11T09:41:58Z</time>
      </trkpt>
      <trkpt lat="43.73157" lon="5.96362">
        <ele>358.9</ele>
        <time>2023-06-11T09:41:59Z</time>
      </trkpt>
      <trkpt lat="43.73157" lon="5.96363">
        <ele>359</ele>
        <time>2023-06-11T09:42:00Z</time>
      </trkpt>
      <trkpt lat="43.73157" lon="5.96363">
        <ele>359</ele>
        <time>2023-06-11T09:42:01Z</time>
      </trkpt>
      <trkpt lat="43.73157" lon="5.96363">
        <ele>358.9</ele>
        <time>2023-06-11T09:42:02Z</time>
      </trkpt>
      <trkpt lat="43.73157" lon="5.96363">
        <ele>358.9</ele>
        <time>2023-06-11T09:42:03Z</time>
      </trkpt>
      <trkpt lat="43.73157" lon="5.96363">
        <ele>359</ele>
        <time>2023-06-11T09:42:04Z</time>
      </trkpt>
      <trkpt lat="43.73157" lon="5.96362">
        <ele>359</ele>
        <time>2023-06-11T09:42:05Z</time>
      </trkpt>
      <trkpt lat="43.73157" lon="5.96362">
        <ele>359</ele>
        <time>2023-06-11T09:42:06Z</time>
      </trkpt>
      <trkpt lat="43.73157" lon="5.96362">
        <ele>359</ele>
        <time>2023-06-11T09:42:07Z</time>
      </trkpt>
      <trkpt lat="43.73157" lon="5.96362">
        <ele>359</ele>
        <time>2023-06-11T09:42:08Z</time>
      </trkpt>
      <trkpt lat="43.73157" lon="5.96361">
        <ele>358.9</ele>
        <time>2023-06-11T09:42:09Z</time>
      </trkpt>
      <trkpt lat="43.73157" lon="5.96361">
        <ele>358.9</ele>
        <time>2023-06-11T09:42:10Z</time>
      </trkpt>
      <trkpt lat="43.73157" lon="5.96361">
        <ele>358.9</ele>
        <time>2023-06-11T09:42:11Z</time>
      </trkpt>
      <trkpt lat="43.73157" lon="5.9636">
        <ele>358.9</ele>
        <time>2023-06-11T09:42:12Z</time>
      </trkpt>
      <trkpt lat="43.73157" lon="5.9636">
        <ele>358.8</ele>
        <time>2023-06-11T09:42:13Z</time>
      </trkpt>
      <trkpt lat="43.73157" lon="5.9636">
        <ele>358.9</ele>
        <time>2023-06-11T09:42:14Z</time>
      </trkpt>
      <trkpt lat="43.73157" lon="5.9636">
        <ele>358.9</ele>
        <time>2023-06-11T09:42:15Z</time>
      </trkpt>
      <trkpt lat="43.73157" lon="5.9636">
        <ele>358.9</ele>
        <time>2023-06-11T09:42:16Z</time>
      </trkpt>
      <trkpt lat="43.73157" lon="5.9636">
        <ele>359</ele>
        <time>2023-06-11T09:42:17Z</time>
      </trkpt>
      <trkpt lat="43.73157" lon="5.9636">
        <ele>359</ele>
        <time>2023-06-11T09:42:18Z</time>
      </trkpt>
      <trkpt lat="43.73157" lon="5.9636">
        <ele>359</ele>
        <time>2023-06-11T09:42:19Z</time>
      </trkpt>
      <trkpt lat="43.73158" lon="5.9636">
        <ele>359</ele>
        <time>2023-06-11T09:42:20Z</time>
      </trkpt>
      <trkpt lat="43.73158" lon="5.9636">
        <ele>359.1</ele>
        <time>2023-06-11T09:42:21Z</time>
      </trkpt>
      <trkpt lat="43.73158" lon="5.9636">
        <ele>359.1</ele>
        <time>2023-06-11T09:42:22Z</time>
      </trkpt>
      <trkpt lat="43.73158" lon="5.9636">
        <ele>359.1</ele>
        <time>2023-06-11T09:42:23Z</time>
      </trkpt>
      <trkpt lat="43.73158" lon="5.9636">
        <ele>359.1</ele>
        <time>2023-06-11T09:42:24Z</time>
      </trkpt>
      <trkpt lat="43.73158" lon="5.9636">
        <ele>359.1</ele>
        <time>2023-06-11T09:42:25Z</time>
      </trkpt>
      <trkpt lat="43.73157" lon="5.96361">
        <ele>359.1</ele>
        <time>2023-06-11T09:42:26Z</time>
      </trkpt>
      <trkpt lat="43.73157" lon="5.96361">
        <ele>359.1</ele>
        <time>2023-06-11T09:42:27Z</time>
      </trkpt>
      <trkpt lat="43.73157" lon="5.96361">
        <ele>359</ele>
        <time>2023-06-11T09:42:28Z</time>
      </trkpt>
      <trkpt lat="43.73157" lon="5.96361">
        <ele>359.1</ele>
        <time>2023-06-11T09:42:29Z</time>
      </trkpt>
      <trkpt lat="43.73157" lon="5.96361">
        <ele>359.1</ele>
        <time>2023-06-11T09:42:30Z</time>
      </trkpt>
      <trkpt lat="43.73157" lon="5.96361">
        <ele>359.2</ele>
        <time>2023-06-11T09:42:31Z</time>
      </trkpt>
      <trkpt lat="43.73157" lon="5.96361">
        <ele>359.2</ele>
        <time>2023-06-11T09:42:32Z</time>
      </trkpt>
      <trkpt lat="43.73157" lon="5.96361">
        <ele>359.3</ele>
        <time>2023-06-11T09:42:33Z</time>
      </trkpt>
      <trkpt lat="43.73157" lon="5.96361">
        <ele>359.3</ele>
        <time>2023-06-11T09:42:34Z</time>
      </trkpt>
      <trkpt lat="43.73156" lon="5.96361">
        <ele>359.3</ele>
        <time>2023-06-11T09:42:35Z</time>
      </trkpt>
      <trkpt lat="43.73156" lon="5.9636">
        <ele>359.3</ele>
        <time>2023-06-11T09:42:36Z</time>
      </trkpt>
      <trkpt lat="43.73156" lon="5.9636">
        <ele>359.2</ele>
        <time>2023-06-11T09:42:37Z</time>
      </trkpt>
      <trkpt lat="43.73156" lon="5.9636">
        <ele>359.3</ele>
        <time>2023-06-11T09:42:38Z</time>
      </trkpt>
      <trkpt lat="43.73156" lon="5.9636">
        <ele>359.2</ele>
        <time>2023-06-11T09:42:39Z</time>
      </trkpt>
      <trkpt lat="43.73156" lon="5.9636">
        <ele>359.2</ele>
        <time>2023-06-11T09:42:40Z</time>
      </trkpt>
      <trkpt lat="43.73156" lon="5.9636">
        <ele>359.2</ele>
        <time>2023-06-11T09:42:41Z</time>
      </trkpt>
      <trkpt lat="43.73156" lon="5.96359">
        <ele>359.3</ele>
        <time>2023-06-11T09:42:42Z</time>
      </trkpt>
      <trkpt lat="43.73156" lon="5.96359">
        <ele>359.3</ele>
        <time>2023-06-11T09:42:43Z</time>
      </trkpt>
      <trkpt lat="43.73156" lon="5.96359">
        <ele>359.3</ele>
        <time>2023-06-11T09:42:44Z</time>
      </trkpt>
      <trkpt lat="43.73156" lon="5.96359">
        <ele>359.3</ele>
        <time>2023-06-11T09:42:45Z</time>
      </trkpt>
      <trkpt lat="43.73156" lon="5.96359">
        <ele>359.3</ele>
        <time>2023-06-11T09:42:46Z</time>
      </trkpt>
      <trkpt lat="43.73156" lon="5.96359">
        <ele>359.3</ele>
        <time>2023-06-11T09:42:47Z</time>
      </trkpt>
      <trkpt lat="43.73156" lon="5.96359">
        <ele>359.4</ele>
        <time>2023-06-11T09:42:48Z</time>
      </trkpt>
      <trkpt lat="43.73156" lon="5.96359">
        <ele>359.3</ele>
        <time>2023-06-11T09:42:49Z</time>
      </trkpt>
      <trkpt lat="43.73156" lon="5.96359">
        <ele>359.4</ele>
        <time>2023-06-11T09:42:50Z</time>
      </trkpt>
      <trkpt lat="43.73156" lon="5.96359">
        <ele>359.3</ele>
        <time>2023-06-11T09:42:51Z</time>
      </trkpt>
      <trkpt lat="43.73156" lon="5.96358">
        <ele>359.3</ele>
        <time>2023-06-11T09:42:52Z</time>
      </trkpt>
      <trkpt lat="43.73157" lon="5.96359">
        <ele>359.2</ele>
        <time>2023-06-11T09:42:53Z</time>
      </trkpt>
      <trkpt lat="43.73157" lon="5.96359">
        <ele>359.1</ele>
        <time>2023-06-11T09:42:54Z</time>
      </trkpt>
      <trkpt lat="43.73157" lon="5.96359">
        <ele>359.1</ele>
        <time>2023-06-11T09:42:55Z</time>
      </trkpt>
      <trkpt lat="43.73158" lon="5.96359">
        <ele>359</ele>
        <time>2023-06-11T09:42:56Z</time>
      </trkpt>
      <trkpt lat="43.73158" lon="5.96359">
        <ele>359</ele>
        <time>2023-06-11T09:42:57Z</time>
      </trkpt>
      <trkpt lat="43.73158" lon="5.96359">
        <ele>359.1</ele>
        <time>2023-06-11T09:42:58Z</time>
      </trkpt>
      <trkpt lat="43.73158" lon="5.96359">
        <ele>359.1</ele>
        <time>2023-06-11T09:42:59Z</time>
      </trkpt>
      <trkpt lat="43.73158" lon="5.96359">
        <ele>359.1</ele>
        <time>2023-06-11T09:43:00Z</time>
      </trkpt>
      <trkpt lat="43.73158" lon="5.96359">
        <ele>359.1</ele>
        <time>2023-06-11T09:43:01Z</time>
      </trkpt>
      <trkpt lat="43.73158" lon="5.96359">
        <ele>359.1</ele>
        <time>2023-06-11T09:43:02Z</time>
      </trkpt>
      <trkpt lat="43.73158" lon="5.96359">
        <ele>359.1</ele>
        <time>2023-06-11T09:43:03Z</time>
      </trkpt>
      <trkpt lat="43.73158" lon="5.96359">
        <ele>359.1</ele>
        <time>2023-06-11T09:43:04Z</time>
      </trkpt>
      <trkpt lat="43.73158" lon="5.96359">
        <ele>359.2</ele>
        <time>2023-06-11T09:43:05Z</time>
      </trkpt>
      <trkpt lat="43.73158" lon="5.96359">
        <ele>359.2</ele>
        <time>2023-06-11T09:43:06Z</time>
      </trkpt>
      <trkpt lat="43.73158" lon="5.96359">
        <ele>359.2</ele>
        <time>2023-06-11T09:43:07Z</time>
      </trkpt>
      <trkpt lat="43.73158" lon="5.96359">
        <ele>359.3</ele>
        <time>2023-06-11T09:43:08Z</time>
      </trkpt>
      <trkpt lat="43.73158" lon="5.96359">
        <ele>359.4</ele>
        <time>2023-06-11T09:43:09Z</time>
      </trkpt>
      <trkpt lat="43.73158" lon="5.96359">
        <ele>359.4</ele>
        <time>2023-06-11T09:43:10Z</time>
      </trkpt>
      <trkpt lat="43.73158" lon="5.96358">
        <ele>359.4</ele>
        <time>2023-06-11T09:43:11Z</time>
      </trkpt>
      <trkpt lat="43.73158" lon="5.96358">
        <ele>359.4</ele>
        <time>2023-06-11T09:43:12Z</time>
      </trkpt>
      <trkpt lat="43.73158" lon="5.96358">
        <ele>359.4</ele>
        <time>2023-06-11T09:43:13Z</time>
      </trkpt>
      <trkpt lat="43.73158" lon="5.96358">
        <ele>359.4</ele>
        <time>2023-06-11T09:43:14Z</time>
      </trkpt>
      <trkpt lat="43.73159" lon="5.96358">
        <ele>359.4</ele>
        <time>2023-06-11T09:43:15Z</time>
      </trkpt>
      <trkpt lat="43.73159" lon="5.96358">
        <ele>359.4</ele>
        <time>2023-06-11T09:43:16Z</time>
      </trkpt>
      <trkpt lat="43.73159" lon="5.96358">
        <ele>359.3</ele>
        <time>2023-06-11T09:43:17Z</time>
      </trkpt>
      <trkpt lat="43.73159" lon="5.96358">
        <ele>359.3</ele>
        <time>2023-06-11T09:43:18Z</time>
      </trkpt>
      <trkpt lat="43.73159" lon="5.96358">
        <ele>359.3</ele>
        <time>2023-06-11T09:43:19Z</time>
      </trkpt>
      <trkpt lat="43.73159" lon="5.96358">
        <ele>359.3</ele>
        <time>2023-06-11T09:43:20Z</time>
      </trkpt>
      <trkpt lat="43.73159" lon="5.96358">
        <ele>359.3</ele>
        <time>2023-06-11T09:43:21Z</time>
      </trkpt>
      <trkpt lat="43.73159" lon="5.96358">
        <ele>359.3</ele>
        <time>2023-06-11T09:43:22Z</time>
      </trkpt>
      <trkpt lat="43.73159" lon="5.96358">
        <ele>359.3</ele>
        <time>2023-06-11T09:43:23Z</time>
      </trkpt>
      <trkpt lat="43.73159" lon="5.96358">
        <ele>359.2</ele>
        <time>2023-06-11T09:43:24Z</time>
      </trkpt>
      <trkpt lat="43.73159" lon="5.96358">
        <ele>359.2</ele>
        <time>2023-06-11T09:43:25Z</time>
      </trkpt>
      <trkpt lat="43.73159" lon="5.96358">
        <ele>359.2</ele>
        <time>2023-06-11T09:43:26Z</time>
      </trkpt>
      <trkpt lat="43.73159" lon="5.96358">
        <ele>359.2</ele>
        <time>2023-06-11T09:43:27Z</time>
      </trkpt>
      <trkpt lat="43.7316" lon="5.96358">
        <ele>359.2</ele>
        <time>2023-06-11T09:43:28Z</time>
      </trkpt>
      <trkpt lat="43.7316" lon="5.96358">
        <ele>359.2</ele>
        <time>2023-06-11T09:43:29Z</time>
      </trkpt>
      <trkpt lat="43.7316" lon="5.96358">
        <ele>359.1</ele>
        <time>2023-06-11T09:43:30Z</time>
      </trkpt>
      <trkpt lat="43.7316" lon="5.96358">
        <ele>359.1</ele>
        <time>2023-06-11T09:43:31Z</time>
      </trkpt>
      <trkpt lat="43.7316" lon="5.96358">
        <ele>359.1</ele>
        <time>2023-06-11T09:43:32Z</time>
      </trkpt>
      <trkpt lat="43.7316" lon="5.96358">
        <ele>359</ele>
        <time>2023-06-11T09:43:33Z</time>
      </trkpt>
      <trkpt lat="43.7316" lon="5.96357">
        <ele>359.1</ele>
        <time>2023-06-11T09:43:34Z</time>
      </trkpt>
      <trkpt lat="43.7316" lon="5.96357">
        <ele>359.2</ele>
        <time>2023-06-11T09:43:35Z</time>
      </trkpt>
      <trkpt lat="43.7316" lon="5.96357">
        <ele>359.2</ele>
        <time>2023-06-11T09:43:36Z</time>
      </trkpt>
      <trkpt lat="43.7316" lon="5.96357">
        <ele>359.3</ele>
        <time>2023-06-11T09:43:37Z</time>
      </trkpt>
      <trkpt lat="43.7316" lon="5.96357">
        <ele>359.4</ele>
        <time>2023-06-11T09:43:38Z</time>
      </trkpt>
      <trkpt lat="43.7316" lon="5.96357">
        <ele>359.4</ele>
        <time>2023-06-11T09:43:39Z</time>
      </trkpt>
      <trkpt lat="43.7316" lon="5.96357">
        <ele>359.3</ele>
        <time>2023-06-11T09:43:40Z</time>
      </trkpt>
      <trkpt lat="43.7316" lon="5.96357">
        <ele>359.2</ele>
        <time>2023-06-11T09:43:41Z</time>
      </trkpt>
      <trkpt lat="43.7316" lon="5.96357">
        <ele>359.1</ele>
        <time>2023-06-11T09:43:42Z</time>
      </trkpt>
      <trkpt lat="43.7316" lon="5.96357">
        <ele>359.1</ele>
        <time>2023-06-11T09:43:43Z</time>
      </trkpt>
      <trkpt lat="43.7316" lon="5.96357">
        <ele>359.1</ele>
        <time>2023-06-11T09:43:44Z</time>
      </trkpt>
      <trkpt lat="43.7316" lon="5.96357">
        <ele>359.1</ele>
        <time>2023-06-11T09:43:45Z</time>
      </trkpt>
      <trkpt lat="43.7316" lon="5.96357">
        <ele>359</ele>
        <time>2023-06-11T09:43:46Z</time>
      </trkpt>
      <trkpt lat="43.7316" lon="5.96357">
        <ele>359</ele>
        <time>2023-06-11T09:43:47Z</time>
      </trkpt>
      <trkpt lat="43.7316" lon="5.96357">
        <ele>359</ele>
        <time>2023-06-11T09:43:48Z</time>
      </trkpt>
      <trkpt lat="43.7316" lon="5.96357">
        <ele>359</ele>
        <time>2023-06-11T09:43:49Z</time>
      </trkpt>
      <trkpt lat="43.7316" lon="5.96357">
        <ele>359</ele>
        <time>2023-06-11T09:43:50Z</time>
      </trkpt>
      <trkpt lat="43.7316" lon="5.96357">
        <ele>359.1</ele>
        <time>2023-06-11T09:43:51Z</time>
      </trkpt>
      <trkpt lat="43.7316" lon="5.96357">
        <ele>359.1</ele>
        <time>2023-06-11T09:43:52Z</time>
      </trkpt>
      <trkpt lat="43.7316" lon="5.96357">
        <ele>359.1</ele>
        <time>2023-06-11T09:43:53Z</time>
      </trkpt>
      <trkpt lat="43.73161" lon="5.96357">
        <ele>359.1</ele>
        <time>2023-06-11T09:43:54Z</time>
      </trkpt>
      <trkpt lat="43.73161" lon="5.96357">
        <ele>359.1</ele>
        <time>2023-06-11T09:43:55Z</time>
      </trkpt>
      <trkpt lat="43.73161" lon="5.96357">
        <ele>359.1</ele>
        <time>2023-06-11T09:43:56Z</time>
      </trkpt>
      <trkpt lat="43.73161" lon="5.96357">
        <ele>359.1</ele>
        <time>2023-06-11T09:43:57Z</time>
      </trkpt>
      <trkpt lat="43.73161" lon="5.96357">
        <ele>359.1</ele>
        <time>2023-06-11T09:43:58Z</time>
      </trkpt>
      <trkpt lat="43.73161" lon="5.96357">
        <ele>359.2</ele>
        <time>2023-06-11T09:43:59Z</time>
      </trkpt>
      <trkpt lat="43.73161" lon="5.96356">
        <ele>359.1</ele>
        <time>2023-06-11T09:44:00Z</time>
      </trkpt>
      <trkpt lat="43.73161" lon="5.96356">
        <ele>359</ele>
        <time>2023-06-11T09:44:01Z</time>
      </trkpt>
      <trkpt lat="43.73161" lon="5.96357">
        <ele>359.1</ele>
        <time>2023-06-11T09:44:02Z</time>
      </trkpt>
      <trkpt lat="43.73161" lon="5.96357">
        <ele>359.1</ele>
        <time>2023-06-11T09:44:03Z</time>
      </trkpt>
      <trkpt lat="43.73161" lon="5.96356">
        <ele>359.1</ele>
        <time>2023-06-11T09:44:04Z</time>
      </trkpt>
      <trkpt lat="43.73161" lon="5.96356">
        <ele>359.1</ele>
        <time>2023-06-11T09:44:05Z</time>
      </trkpt>
      <trkpt lat="43.73161" lon="5.96357">
        <ele>359</ele>
        <time>2023-06-11T09:44:06Z</time>
      </trkpt>
      <trkpt lat="43.73161" lon="5.96357">
        <ele>359</ele>
        <time>2023-06-11T09:44:07Z</time>
      </trkpt>
      <trkpt lat="43.73161" lon="5.96357">
        <ele>359.1</ele>
        <time>2023-06-11T09:44:08Z</time>
      </trkpt>
      <trkpt lat="43.7316" lon="5.96357">
        <ele>359.1</ele>
        <time>2023-06-11T09:44:09Z</time>
      </trkpt>
      <trkpt lat="43.7316" lon="5.96357">
        <ele>359.1</ele>
        <time>2023-06-11T09:44:10Z</time>
      </trkpt>
      <trkpt lat="43.7316" lon="5.96357">
        <ele>359.1</ele>
        <time>2023-06-11T09:44:11Z</time>
      </trkpt>
      <trkpt lat="43.7316" lon="5.96357">
        <ele>359.1</ele>
        <time>2023-06-11T09:44:12Z</time>
      </trkpt>
      <trkpt lat="43.7316" lon="5.96357">
        <ele>359.1</ele>
        <time>2023-06-11T09:44:13Z</time>
      </trkpt>
      <trkpt lat="43.7316" lon="5.96357">
        <ele>359.1</ele>
        <time>2023-06-11T09:44:14Z</time>
      </trkpt>
      <trkpt lat="43.7316" lon="5.96357">
        <ele>359</ele>
        <time>2023-06-11T09:44:15Z</time>
      </trkpt>
      <trkpt lat="43.7316" lon="5.96357">
        <ele>359</ele>
        <time>2023-06-11T09:44:16Z</time>
      </trkpt>
      <trkpt lat="43.7316" lon="5.96357">
        <ele>359.1</ele>
        <time>2023-06-11T09:44:17Z</time>
      </trkpt>
      <trkpt lat="43.7316" lon="5.96357">
        <ele>359.1</ele>
        <time>2023-06-11T09:44:18Z</time>
      </trkpt>
      <trkpt lat="43.7316" lon="5.96357">
        <ele>359.2</ele>
        <time>2023-06-11T09:44:19Z</time>
      </trkpt>
      <trkpt lat="43.7316" lon="5.96357">
        <ele>359.2</ele>
        <time>2023-06-11T09:44:20Z</time>
      </trkpt>
      <trkpt lat="43.7316" lon="5.96357">
        <ele>359.2</ele>
        <time>2023-06-11T09:44:21Z</time>
      </trkpt>
      <trkpt lat="43.7316" lon="5.96357">
        <ele>359.1</ele>
        <time>2023-06-11T09:44:22Z</time>
      </trkpt>
      <trkpt lat="43.7316" lon="5.96357">
        <ele>359.1</ele>
        <time>2023-06-11T09:44:23Z</time>
      </trkpt>
      <trkpt lat="43.73161" lon="5.96357">
        <ele>359.2</ele>
        <time>2023-06-11T09:44:24Z</time>
      </trkpt>
      <trkpt lat="43.73161" lon="5.96357">
        <ele>359.2</ele>
        <time>2023-06-11T09:44:25Z</time>
      </trkpt>
      <trkpt lat="43.73161" lon="5.96357">
        <ele>359.2</ele>
        <time>2023-06-11T09:44:26Z</time>
      </trkpt>
      <trkpt lat="43.73161" lon="5.96356">
        <ele>359.3</ele>
        <time>2023-06-11T09:44:27Z</time>
      </trkpt>
      <trkpt lat="43.73161" lon="5.96356">
        <ele>359.2</ele>
        <time>2023-06-11T09:44:28Z</time>
      </trkpt>
      <trkpt lat="43.73161" lon="5.96356">
        <ele>359.4</ele>
        <time>2023-06-11T09:44:29Z</time>
      </trkpt>
      <trkpt lat="43.73161" lon="5.96357">
        <ele>359.5</ele>
        <time>2023-06-11T09:44:30Z</time>
      </trkpt>
      <trkpt lat="43.73161" lon="5.96357">
        <ele>359.5</ele>
        <time>2023-06-11T09:44:31Z</time>
      </trkpt>
      <trkpt lat="43.73161" lon="5.96357">
        <ele>359.5</ele>
        <time>2023-06-11T09:44:32Z</time>
      </trkpt>
      <trkpt lat="43.73161" lon="5.96357">
        <ele>359.6</ele>
        <time>2023-06-11T09:44:33Z</time>
      </trkpt>
      <trkpt lat="43.73162" lon="5.96358">
        <ele>359.8</ele>
        <time>2023-06-11T09:44:34Z</time>
      </trkpt>
      <trkpt lat="43.73161" lon="5.96358">
        <ele>359.8</ele>
        <time>2023-06-11T09:44:35Z</time>
      </trkpt>
      <trkpt lat="43.73162" lon="5.96358">
        <ele>359.8</ele>
        <time>2023-06-11T09:44:36Z</time>
      </trkpt>
      <trkpt lat="43.73162" lon="5.96359">
        <ele>359.8</ele>
        <time>2023-06-11T09:44:37Z</time>
      </trkpt>
      <trkpt lat="43.73163" lon="5.96359">
        <ele>359.8</ele>
        <time>2023-06-11T09:44:38Z</time>
      </trkpt>
      <trkpt lat="43.73163" lon="5.9636">
        <ele>359.9</ele>
        <time>2023-06-11T09:44:39Z</time>
      </trkpt>
      <trkpt lat="43.73163" lon="5.9636">
        <ele>359.9</ele>
        <time>2023-06-11T09:44:40Z</time>
      </trkpt>
      <trkpt lat="43.73163" lon="5.9636">
        <ele>359.9</ele>
        <time>2023-06-11T09:44:41Z</time>
      </trkpt>
      <trkpt lat="43.73163" lon="5.9636">
        <ele>359.9</ele>
        <time>2023-06-11T09:44:42Z</time>
      </trkpt>
      <trkpt lat="43.73162" lon="5.9636">
        <ele>359.8</ele>
        <time>2023-06-11T09:44:43Z</time>
      </trkpt>
      <trkpt lat="43.73162" lon="5.9636">
        <ele>359.8</ele>
        <time>2023-06-11T09:44:44Z</time>
      </trkpt>
      <trkpt lat="43.73162" lon="5.9636">
        <ele>359.8</ele>
        <time>2023-06-11T09:44:45Z</time>
      </trkpt>
      <trkpt lat="43.73163" lon="5.96359">
        <ele>359.7</ele>
        <time>2023-06-11T09:44:46Z</time>
      </trkpt>
      <trkpt lat="43.73163" lon="5.96359">
        <ele>359.7</ele>
        <time>2023-06-11T09:44:47Z</time>
      </trkpt>
      <trkpt lat="43.73163" lon="5.96359">
        <ele>359.7</ele>
        <time>2023-06-11T09:44:48Z</time>
      </trkpt>
      <trkpt lat="43.73163" lon="5.96359">
        <ele>359.7</ele>
        <time>2023-06-11T09:44:49Z</time>
      </trkpt>
      <trkpt lat="43.73163" lon="5.9636">
        <ele>359.7</ele>
        <time>2023-06-11T09:44:50Z</time>
      </trkpt>
      <trkpt lat="43.73164" lon="5.9636">
        <ele>359.7</ele>
        <time>2023-06-11T09:44:51Z</time>
      </trkpt>
      <trkpt lat="43.73164" lon="5.9636">
        <ele>359.5</ele>
        <time>2023-06-11T09:44:52Z</time>
      </trkpt>
      <trkpt lat="43.73164" lon="5.9636">
        <ele>359.4</ele>
        <time>2023-06-11T09:44:53Z</time>
      </trkpt>
      <trkpt lat="43.73164" lon="5.9636">
        <ele>359.4</ele>
        <time>2023-06-11T09:44:54Z</time>
      </trkpt>
      <trkpt lat="43.73164" lon="5.9636">
        <ele>359.3</ele>
        <time>2023-06-11T09:44:55Z</time>
      </trkpt>
      <trkpt lat="43.73164" lon="5.9636">
        <ele>359.3</ele>
        <time>2023-06-11T09:44:56Z</time>
      </trkpt>
      <trkpt lat="43.73164" lon="5.9636">
        <ele>359.2</ele>
        <time>2023-06-11T09:44:57Z</time>
      </trkpt>
      <trkpt lat="43.73164" lon="5.9636">
        <ele>359.3</ele>
        <time>2023-06-11T09:44:58Z</time>
      </trkpt>
      <trkpt lat="43.73164" lon="5.9636">
        <ele>359.3</ele>
        <time>2023-06-11T09:44:59Z</time>
      </trkpt>
      <trkpt lat="43.73164" lon="5.96361">
        <ele>359.4</ele>
        <time>2023-06-11T09:45:00Z</time>
      </trkpt>
      <trkpt lat="43.73165" lon="5.96361">
        <ele>359.4</ele>
        <time>2023-06-11T09:45:01Z</time>
      </trkpt>
      <trkpt lat="43.73165" lon="5.96361">
        <ele>359.4</ele>
        <time>2023-06-11T09:45:02Z</time>
      </trkpt>
      <trkpt lat="43.73165" lon="5.96361">
        <ele>359.4</ele>
        <time>2023-06-11T09:45:03Z</time>
      </trkpt>
      <trkpt lat="43.73165" lon="5.96361">
        <ele>359.4</ele>
        <time>2023-06-11T09:45:04Z</time>
      </trkpt>
      <trkpt lat="43.73165" lon="5.96361">
        <ele>359.3</ele>
        <time>2023-06-11T09:45:05Z</time>
      </trkpt>
      <trkpt lat="43.73166" lon="5.96361">
        <ele>359.3</ele>
        <time>2023-06-11T09:45:06Z</time>
      </trkpt>
      <trkpt lat="43.73166" lon="5.96361">
        <ele>359.3</ele>
        <time>2023-06-11T09:45:07Z</time>
      </trkpt>
      <trkpt lat="43.73166" lon="5.96361">
        <ele>359.4</ele>
        <time>2023-06-11T09:45:08Z</time>
      </trkpt>
      <trkpt lat="43.73166" lon="5.96361">
        <ele>359.3</ele>
        <time>2023-06-11T09:45:09Z</time>
      </trkpt>
      <trkpt lat="43.73166" lon="5.96361">
        <ele>359.3</ele>
        <time>2023-06-11T09:45:10Z</time>
      </trkpt>
      <trkpt lat="43.73166" lon="5.96361">
        <ele>359.3</ele>
        <time>2023-06-11T09:45:11Z</time>
      </trkpt>
      <trkpt lat="43.73166" lon="5.96361">
        <ele>359.3</ele>
        <time>2023-06-11T09:45:12Z</time>
      </trkpt>
      <trkpt lat="43.73166" lon="5.96361">
        <ele>359.3</ele>
        <time>2023-06-11T09:45:13Z</time>
      </trkpt>
      <trkpt lat="43.73166" lon="5.96361">
        <ele>359.2</ele>
        <time>2023-06-11T09:45:14Z</time>
      </trkpt>
      <trkpt lat="43.73165" lon="5.96361">
        <ele>359.2</ele>
        <time>2023-06-11T09:45:15Z</time>
      </trkpt>
      <trkpt lat="43.73165" lon="5.96361">
        <ele>359.2</ele>
        <time>2023-06-11T09:45:16Z</time>
      </trkpt>
      <trkpt lat="43.73165" lon="5.96361">
        <ele>359.2</ele>
        <time>2023-06-11T09:45:17Z</time>
      </trkpt>
      <trkpt lat="43.73165" lon="5.96361">
        <ele>359.3</ele>
        <time>2023-06-11T09:45:18Z</time>
      </trkpt>
      <trkpt lat="43.73165" lon="5.96361">
        <ele>359.3</ele>
        <time>2023-06-11T09:45:19Z</time>
      </trkpt>
      <trkpt lat="43.73165" lon="5.9636">
        <ele>359.4</ele>
        <time>2023-06-11T09:45:20Z</time>
      </trkpt>
      <trkpt lat="43.73165" lon="5.9636">
        <ele>359.4</ele>
        <time>2023-06-11T09:45:21Z</time>
      </trkpt>
      <trkpt lat="43.73165" lon="5.9636">
        <ele>359.5</ele>
        <time>2023-06-11T09:45:22Z</time>
      </trkpt>
      <trkpt lat="43.73165" lon="5.9636">
        <ele>359.5</ele>
        <time>2023-06-11T09:45:23Z</time>
      </trkpt>
      <trkpt lat="43.73165" lon="5.9636">
        <ele>359.5</ele>
        <time>2023-06-11T09:45:24Z</time>
      </trkpt>
      <trkpt lat="43.73165" lon="5.9636">
        <ele>359.5</ele>
        <time>2023-06-11T09:45:25Z</time>
      </trkpt>
      <trkpt lat="43.73165" lon="5.96361">
        <ele>359.5</ele>
        <time>2023-06-11T09:45:26Z</time>
      </trkpt>
      <trkpt lat="43.73165" lon="5.9636">
        <ele>359.5</ele>
        <time>2023-06-11T09:45:27Z</time>
      </trkpt>
      <trkpt lat="43.73165" lon="5.96361">
        <ele>359.5</ele>
        <time>2023-06-11T09:45:28Z</time>
      </trkpt>
      <trkpt lat="43.73165" lon="5.96361">
        <ele>359.4</ele>
        <time>2023-06-11T09:45:29Z</time>
      </trkpt>
      <trkpt lat="43.73166" lon="5.96361">
        <ele>359.3</ele>
        <time>2023-06-11T09:45:30Z</time>
      </trkpt>
      <trkpt lat="43.73166" lon="5.96361">
        <ele>359.4</ele>
        <time>2023-06-11T09:45:31Z</time>
      </trkpt>
      <trkpt lat="43.73166" lon="5.96361">
        <ele>359.4</ele>
        <time>2023-06-11T09:45:32Z</time>
      </trkpt>
      <trkpt lat="43.73166" lon="5.96361">
        <ele>359.4</ele>
        <time>2023-06-11T09:45:33Z</time>
      </trkpt>
      <trkpt lat="43.73166" lon="5.96361">
        <ele>359.4</ele>
        <time>2023-06-11T09:45:34Z</time>
      </trkpt>
      <trkpt lat="43.73166" lon="5.96361">
        <ele>359.3</ele>
        <time>2023-06-11T09:45:35Z</time>
      </trkpt>
      <trkpt lat="43.73166" lon="5.96361">
        <ele>359.3</ele>
        <time>2023-06-11T09:45:36Z</time>
      </trkpt>
      <trkpt lat="43.73165" lon="5.96361">
        <ele>359.3</ele>
        <time>2023-06-11T09:45:37Z</time>
      </trkpt>
      <trkpt lat="43.73165" lon="5.96361">
        <ele>359.3</ele>
        <time>2023-06-11T09:45:38Z</time>
      </trkpt>
      <trkpt lat="43.73165" lon="5.96361">
        <ele>359.3</ele>
        <time>2023-06-11T09:45:39Z</time>
      </trkpt>
      <trkpt lat="43.73165" lon="5.96362">
        <ele>359.3</ele>
        <time>2023-06-11T09:45:40Z</time>
      </trkpt>
      <trkpt lat="43.73166" lon="5.96362">
        <ele>359.3</ele>
        <time>2023-06-11T09:45:41Z</time>
      </trkpt>
      <trkpt lat="43.73166" lon="5.96362">
        <ele>359.3</ele>
        <time>2023-06-11T09:45:42Z</time>
      </trkpt>
      <trkpt lat="43.73166" lon="5.96362">
        <ele>359.3</ele>
        <time>2023-06-11T09:45:43Z</time>
      </trkpt>
      <trkpt lat="43.73166" lon="5.96362">
        <ele>359.4</ele>
        <time>2023-06-11T09:45:44Z</time>
      </trkpt>
      <trkpt lat="43.73166" lon="5.96362">
        <ele>359.4</ele>
        <time>2023-06-11T09:45:45Z</time>
      </trkpt>
      <trkpt lat="43.73166" lon="5.96362">
        <ele>359.5</ele>
        <time>2023-06-11T09:45:46Z</time>
      </trkpt>
      <trkpt lat="43.73166" lon="5.96362">
        <ele>359.6</ele>
        <time>2023-06-11T09:45:47Z</time>
      </trkpt>
      <trkpt lat="43.73166" lon="5.96363">
        <ele>359.5</ele>
        <time>2023-06-11T09:45:48Z</time>
      </trkpt>
      <trkpt lat="43.73166" lon="5.96363">
        <ele>359.5</ele>
        <time>2023-06-11T09:45:49Z</time>
      </trkpt>
      <trkpt lat="43.73166" lon="5.96363">
        <ele>359.5</ele>
        <time>2023-06-11T09:45:50Z</time>
      </trkpt>
      <trkpt lat="43.73166" lon="5.96363">
        <ele>359.5</ele>
        <time>2023-06-11T09:45:51Z</time>
      </trkpt>
      <trkpt lat="43.73166" lon="5.96363">
        <ele>359.5</ele>
        <time>2023-06-11T09:45:52Z</time>
      </trkpt>
      <trkpt lat="43.73166" lon="5.96363">
        <ele>359.5</ele>
        <time>2023-06-11T09:45:53Z</time>
      </trkpt>
      <trkpt lat="43.73166" lon="5.96363">
        <ele>359.5</ele>
        <time>2023-06-11T09:45:54Z</time>
      </trkpt>
      <trkpt lat="43.73166" lon="5.96363">
        <ele>359.5</ele>
        <time>2023-06-11T09:45:55Z</time>
      </trkpt>
      <trkpt lat="43.73166" lon="5.96363">
        <ele>359.5</ele>
        <time>2023-06-11T09:45:56Z</time>
      </trkpt>
      <trkpt lat="43.73166" lon="5.96363">
        <ele>359.6</ele>
        <time>2023-06-11T09:45:57Z</time>
      </trkpt>
      <trkpt lat="43.73166" lon="5.96362">
        <ele>359.7</ele>
        <time>2023-06-11T09:45:58Z</time>
      </trkpt>
      <trkpt lat="43.73166" lon="5.96362">
        <ele>359.7</ele>
        <time>2023-06-11T09:45:59Z</time>
      </trkpt>
      <trkpt lat="43.73166" lon="5.96362">
        <ele>359.7</ele>
        <time>2023-06-11T09:46:00Z</time>
      </trkpt>
      <trkpt lat="43.73166" lon="5.96363">
        <ele>359.7</ele>
        <time>2023-06-11T09:46:01Z</time>
      </trkpt>
      <trkpt lat="43.73165" lon="5.96362">
        <ele>359.6</ele>
        <time>2023-06-11T09:46:02Z</time>
      </trkpt>
      <trkpt lat="43.73165" lon="5.96362">
        <ele>359.6</ele>
        <time>2023-06-11T09:46:03Z</time>
      </trkpt>
      <trkpt lat="43.73165" lon="5.96362">
        <ele>359.6</ele>
        <time>2023-06-11T09:46:04Z</time>
      </trkpt>
      <trkpt lat="43.73165" lon="5.96362">
        <ele>359.6</ele>
        <time>2023-06-11T09:46:05Z</time>
      </trkpt>
      <trkpt lat="43.73165" lon="5.96362">
        <ele>359.5</ele>
        <time>2023-06-11T09:46:06Z</time>
      </trkpt>
      <trkpt lat="43.73165" lon="5.96362">
        <ele>359.5</ele>
        <time>2023-06-11T09:46:07Z</time>
      </trkpt>
      <trkpt lat="43.73165" lon="5.96362">
        <ele>359.4</ele>
        <time>2023-06-11T09:46:08Z</time>
      </trkpt>
      <trkpt lat="43.73165" lon="5.96362">
        <ele>359.3</ele>
        <time>2023-06-11T09:46:09Z</time>
      </trkpt>
      <trkpt lat="43.73165" lon="5.96362">
        <ele>359.4</ele>
        <time>2023-06-11T09:46:10Z</time>
      </trkpt>
      <trkpt lat="43.73165" lon="5.96362">
        <ele>359.3</ele>
        <time>2023-06-11T09:46:11Z</time>
      </trkpt>
      <trkpt lat="43.73165" lon="5.96362">
        <ele>359.2</ele>
        <time>2023-06-11T09:46:12Z</time>
      </trkpt>
      <trkpt lat="43.73165" lon="5.96362">
        <ele>359.3</ele>
        <time>2023-06-11T09:46:13Z</time>
      </trkpt>
      <trkpt lat="43.73165" lon="5.96362">
        <ele>359.3</ele>
        <time>2023-06-11T09:46:14Z</time>
      </trkpt>
      <trkpt lat="43.73165" lon="5.96362">
        <ele>359.4</ele>
        <time>2023-06-11T09:46:15Z</time>
      </trkpt>
      <trkpt lat="43.73165" lon="5.96363">
        <ele>359.4</ele>
        <time>2023-06-11T09:46:16Z</time>
      </trkpt>
      <trkpt lat="43.73165" lon="5.96363">
        <ele>359.4</ele>
        <time>2023-06-11T09:46:17Z</time>
      </trkpt>
      <trkpt lat="43.73165" lon="5.96363">
        <ele>359.4</ele>
        <time>2023-06-11T09:46:18Z</time>
      </trkpt>
      <trkpt lat="43.73165" lon="5.96363">
        <ele>359.4</ele>
        <time>2023-06-11T09:46:19Z</time>
      </trkpt>
      <trkpt lat="43.73165" lon="5.96363">
        <ele>359.5</ele>
        <time>2023-06-11T09:46:20Z</time>
      </trkpt>
      <trkpt lat="43.73165" lon="5.96363">
        <ele>359.5</ele>
        <time>2023-06-11T09:46:21Z</time>
      </trkpt>
      <trkpt lat="43.73165" lon="5.96363">
        <ele>359.6</ele>
        <time>2023-06-11T09:46:22Z</time>
      </trkpt>
      <trkpt lat="43.73165" lon="5.96363">
        <ele>359.6</ele>
        <time>2023-06-11T09:46:23Z</time>
      </trkpt>
      <trkpt lat="43.73165" lon="5.96363">
        <ele>359.6</ele>
        <time>2023-06-11T09:46:24Z</time>
      </trkpt>
      <trkpt lat="43.73165" lon="5.96363">
        <ele>359.6</ele>
        <time>2023-06-11T09:46:25Z</time>
      </trkpt>
      <trkpt lat="43.73165" lon="5.96363">
        <ele>359.6</ele>
        <time>2023-06-11T09:46:26Z</time>
      </trkpt>
      <trkpt lat="43.73165" lon="5.96363">
        <ele>359.5</ele>
        <time>2023-06-11T09:46:27Z</time>
      </trkpt>
      <trkpt lat="43.73165" lon="5.96363">
        <ele>359.5</ele>
        <time>2023-06-11T09:46:28Z</time>
      </trkpt>
      <trkpt lat="43.73164" lon="5.96363">
        <ele>359.5</ele>
        <time>2023-06-11T09:46:29Z</time>
      </trkpt>
      <trkpt lat="43.73164" lon="5.96363">
        <ele>359.6</ele>
        <time>2023-06-11T09:46:30Z</time>
      </trkpt>
      <trkpt lat="43.73164" lon="5.96362">
        <ele>359.6</ele>
        <time>2023-06-11T09:46:31Z</time>
      </trkpt>
      <trkpt lat="43.73164" lon="5.96362">
        <ele>359.5</ele>
        <time>2023-06-11T09:46:32Z</time>
      </trkpt>
      <trkpt lat="43.73164" lon="5.96362">
        <ele>359.5</ele>
        <time>2023-06-11T09:46:33Z</time>
      </trkpt>
      <trkpt lat="43.73164" lon="5.96362">
        <ele>359.5</ele>
        <time>2023-06-11T09:46:34Z</time>
      </trkpt>
      <trkpt lat="43.73164" lon="5.96362">
        <ele>359.4</ele>
        <time>2023-06-11T09:46:35Z</time>
      </trkpt>
      <trkpt lat="43.73164" lon="5.96362">
        <ele>359.5</ele>
        <time>2023-06-11T09:46:36Z</time>
      </trkpt>
      <trkpt lat="43.73164" lon="5.96362">
        <ele>359.6</ele>
        <time>2023-06-11T09:46:37Z</time>
      </trkpt>
      <trkpt lat="43.73164" lon="5.96362">
        <ele>359.5</ele>
        <time>2023-06-11T09:46:38Z</time>
      </trkpt>
      <trkpt lat="43.73164" lon="5.96362">
        <ele>359.5</ele>
        <time>2023-06-11T09:46:39Z</time>
      </trkpt>
      <trkpt lat="43.73164" lon="5.96362">
        <ele>359.5</ele>
        <time>2023-06-11T09:46:40Z</time>
      </trkpt>
      <trkpt lat="43.73164" lon="5.96363">
        <ele>359.5</ele>
        <time>2023-06-11T09:46:41Z</time>
      </trkpt>
      <trkpt lat="43.73164" lon="5.96363">
        <ele>359.5</ele>
        <time>2023-06-11T09:46:42Z</time>
      </trkpt>
      <trkpt lat="43.73164" lon="5.96363">
        <ele>359.5</ele>
        <time>2023-06-11T09:46:43Z</time>
      </trkpt>
      <trkpt lat="43.73164" lon="5.96363">
        <ele>359.6</ele>
        <time>2023-06-11T09:46:44Z</time>
      </trkpt>
      <trkpt lat="43.73164" lon="5.96363">
        <ele>359.6</ele>
        <time>2023-06-11T09:46:45Z</time>
      </trkpt>
      <trkpt lat="43.73164" lon="5.96363">
        <ele>359.6</ele>
        <time>2023-06-11T09:46:46Z</time>
      </trkpt>
      <trkpt lat="43.73164" lon="5.96363">
        <ele>359.6</ele>
        <time>2023-06-11T09:46:47Z</time>
      </trkpt>
      <trkpt lat="43.73164" lon="5.96363">
        <ele>359.6</ele>
        <time>2023-06-11T09:46:48Z</time>
      </trkpt>
      <trkpt lat="43.73164" lon="5.96363">
        <ele>359.5</ele>
        <time>2023-06-11T09:46:49Z</time>
      </trkpt>
      <trkpt lat="43.73164" lon="5.96363">
        <ele>359.5</ele>
        <time>2023-06-11T09:46:50Z</time>
      </trkpt>
      <trkpt lat="43.73164" lon="5.96363">
        <ele>359.5</ele>
        <time>2023-06-11T09:46:51Z</time>
      </trkpt>
      <trkpt lat="43.73164" lon="5.96363">
        <ele>359.4</ele>
        <time>2023-06-11T09:46:52Z</time>
      </trkpt>
      <trkpt lat="43.73164" lon="5.96363">
        <ele>359.4</ele>
        <time>2023-06-11T09:46:53Z</time>
      </trkpt>
      <trkpt lat="43.73164" lon="5.96363">
        <ele>359.4</ele>
        <time>2023-06-11T09:46:54Z</time>
      </trkpt>
      <trkpt lat="43.73164" lon="5.96363">
        <ele>359.3</ele>
        <time>2023-06-11T09:46:55Z</time>
      </trkpt>
      <trkpt lat="43.73164" lon="5.96363">
        <ele>359.4</ele>
        <time>2023-06-11T09:46:56Z</time>
      </trkpt>
      <trkpt lat="43.73164" lon="5.96363">
        <ele>359.5</ele>
        <time>2023-06-11T09:46:57Z</time>
      </trkpt>
      <trkpt lat="43.73165" lon="5.96363">
        <ele>359.5</ele>
        <time>2023-06-11T09:46:58Z</time>
      </trkpt>
      <trkpt lat="43.73165" lon="5.96363">
        <ele>359.5</ele>
        <time>2023-06-11T09:46:59Z</time>
      </trkpt>
      <trkpt lat="43.73165" lon="5.96363">
        <ele>359.5</ele>
        <time>2023-06-11T09:47:00Z</time>
      </trkpt>
      <trkpt lat="43.73165" lon="5.96363">
        <ele>359.5</ele>
        <time>2023-06-11T09:47:01Z</time>
      </trkpt>
      <trkpt lat="43.73165" lon="5.96363">
        <ele>359.5</ele>
        <time>2023-06-11T09:47:02Z</time>
      </trkpt>
      <trkpt lat="43.73165" lon="5.96363">
        <ele>359.5</ele>
        <time>2023-06-11T09:47:03Z</time>
      </trkpt>
      <trkpt lat="43.73165" lon="5.96363">
        <ele>359.5</ele>
        <time>2023-06-11T09:47:04Z</time>
      </trkpt>
      <trkpt lat="43.73165" lon="5.96363">
        <ele>359.5</ele>
        <time>2023-06-11T09:47:05Z</time>
      </trkpt>
      <trkpt lat="43.73165" lon="5.96363">
        <ele>359.5</ele>
        <time>2023-06-11T09:47:06Z</time>
      </trkpt>
      <trkpt lat="43.73165" lon="5.96362">
        <ele>359.5</ele>
        <time>2023-06-11T09:47:07Z</time>
      </trkpt>
      <trkpt lat="43.73165" lon="5.96362">
        <ele>359.6</ele>
        <time>2023-06-11T09:47:08Z</time>
      </trkpt>
      <trkpt lat="43.73165" lon="5.96362">
        <ele>359.6</ele>
        <time>2023-06-11T09:47:09Z</time>
      </trkpt>
      <trkpt lat="43.73165" lon="5.96362">
        <ele>359.6</ele>
        <time>2023-06-11T09:47:10Z</time>
      </trkpt>
      <trkpt lat="43.73165" lon="5.96362">
        <ele>359.5</ele>
        <time>2023-06-11T09:47:11Z</time>
      </trkpt>
      <trkpt lat="43.73165" lon="5.96362">
        <ele>359.4</ele>
        <time>2023-06-11T09:47:12Z</time>
      </trkpt>
      <trkpt lat="43.73165" lon="5.96362">
        <ele>359.4</ele>
        <time>2023-06-11T09:47:13Z</time>
      </trkpt>
      <trkpt lat="43.73165" lon="5.96362">
        <ele>359.3</ele>
        <time>2023-06-11T09:47:14Z</time>
      </trkpt>
      <trkpt lat="43.73165" lon="5.96362">
        <ele>359.3</ele>
        <time>2023-06-11T09:47:15Z</time>
      </trkpt>
      <trkpt lat="43.73165" lon="5.96362">
        <ele>359.3</ele>
        <time>2023-06-11T09:47:16Z</time>
      </trkpt>
      <trkpt lat="43.73165" lon="5.96362">
        <ele>359.3</ele>
        <time>2023-06-11T09:47:17Z</time>
      </trkpt>
      <trkpt lat="43.73165" lon="5.96361">
        <ele>359.3</ele>
        <time>2023-06-11T09:47:18Z</time>
      </trkpt>
      <trkpt lat="43.73165" lon="5.96361">
        <ele>359.2</ele>
        <time>2023-06-11T09:47:19Z</time>
      </trkpt>
      <trkpt lat="43.73165" lon="5.96361">
        <ele>359.1</ele>
        <time>2023-06-11T09:47:20Z</time>
      </trkpt>
      <trkpt lat="43.73165" lon="5.96361">
        <ele>359.2</ele>
        <time>2023-06-11T09:47:21Z</time>
      </trkpt>
      <trkpt lat="43.73165" lon="5.96361">
        <ele>359.1</ele>
        <time>2023-06-11T09:47:22Z</time>
      </trkpt>
      <trkpt lat="43.73165" lon="5.96361">
        <ele>359.1</ele>
        <time>2023-06-11T09:47:23Z</time>
      </trkpt>
      <trkpt lat="43.73165" lon="5.96361">
        <ele>359.2</ele>
        <time>2023-06-11T09:47:24Z</time>
      </trkpt>
      <trkpt lat="43.73165" lon="5.96361">
        <ele>359.2</ele>
        <time>2023-06-11T09:47:25Z</time>
      </trkpt>
      <trkpt lat="43.73165" lon="5.96361">
        <ele>359.1</ele>
        <time>2023-06-11T09:47:26Z</time>
      </trkpt>
      <trkpt lat="43.73165" lon="5.96361">
        <ele>359.2</ele>
        <time>2023-06-11T09:47:27Z</time>
      </trkpt>
      <trkpt lat="43.73165" lon="5.96361">
        <ele>359.2</ele>
        <time>2023-06-11T09:47:28Z</time>
      </trkpt>
      <trkpt lat="43.73165" lon="5.96361">
        <ele>359.2</ele>
        <time>2023-06-11T09:47:29Z</time>
      </trkpt>
      <trkpt lat="43.73165" lon="5.96361">
        <ele>359.2</ele>
        <time>2023-06-11T09:47:30Z</time>
      </trkpt>
      <trkpt lat="43.73165" lon="5.96361">
        <ele>359.2</ele>
        <time>2023-06-11T09:47:31Z</time>
      </trkpt>
      <trkpt lat="43.73165" lon="5.96361">
        <ele>359.3</ele>
        <time>2023-06-11T09:47:32Z</time>
      </trkpt>
      <trkpt lat="43.73165" lon="5.96361">
        <ele>359.3</ele>
        <time>2023-06-11T09:47:33Z</time>
      </trkpt>
      <trkpt lat="43.73165" lon="5.96361">
        <ele>359.3</ele>
        <time>2023-06-11T09:47:34Z</time>
      </trkpt>
      <trkpt lat="43.73165" lon="5.9636">
        <ele>359.4</ele>
        <time>2023-06-11T09:47:35Z</time>
      </trkpt>
      <trkpt lat="43.73165" lon="5.9636">
        <ele>359.4</ele>
        <time>2023-06-11T09:47:36Z</time>
      </trkpt>
      <trkpt lat="43.73165" lon="5.9636">
        <ele>359.4</ele>
        <time>2023-06-11T09:47:37Z</time>
      </trkpt>
      <trkpt lat="43.73165" lon="5.9636">
        <ele>359.4</ele>
        <time>2023-06-11T09:47:38Z</time>
      </trkpt>
      <trkpt lat="43.73165" lon="5.9636">
        <ele>359.3</ele>
        <time>2023-06-11T09:47:39Z</time>
      </trkpt>
      <trkpt lat="43.73165" lon="5.9636">
        <ele>359.3</ele>
        <time>2023-06-11T09:47:40Z</time>
      </trkpt>
      <trkpt lat="43.73165" lon="5.9636">
        <ele>359.3</ele>
        <time>2023-06-11T09:47:41Z</time>
      </trkpt>
      <trkpt lat="43.73165" lon="5.9636">
        <ele>359.2</ele>
        <time>2023-06-11T09:47:42Z</time>
      </trkpt>
      <trkpt lat="43.73165" lon="5.9636">
        <ele>359.2</ele>
        <time>2023-06-11T09:47:43Z</time>
      </trkpt>
      <trkpt lat="43.73165" lon="5.9636">
        <ele>359.2</ele>
        <time>2023-06-11T09:47:44Z</time>
      </trkpt>
      <trkpt lat="43.73165" lon="5.9636">
        <ele>359.2</ele>
        <time>2023-06-11T09:47:45Z</time>
      </trkpt>
      <trkpt lat="43.73165" lon="5.9636">
        <ele>359.1</ele>
        <time>2023-06-11T09:47:46Z</time>
      </trkpt>
      <trkpt lat="43.73165" lon="5.9636">
        <ele>359.1</ele>
        <time>2023-06-11T09:47:47Z</time>
      </trkpt>
      <trkpt lat="43.73165" lon="5.9636">
        <ele>359.2</ele>
        <time>2023-06-11T09:47:48Z</time>
      </trkpt>
      <trkpt lat="43.73165" lon="5.9636">
        <ele>359.2</ele>
        <time>2023-06-11T09:47:49Z</time>
      </trkpt>
      <trkpt lat="43.73165" lon="5.9636">
        <ele>359.2</ele>
        <time>2023-06-11T09:47:50Z</time>
      </trkpt>
      <trkpt lat="43.73165" lon="5.9636">
        <ele>359.3</ele>
        <time>2023-06-11T09:47:51Z</time>
      </trkpt>
      <trkpt lat="43.73165" lon="5.9636">
        <ele>359.3</ele>
        <time>2023-06-11T09:47:52Z</time>
      </trkpt>
      <trkpt lat="43.73165" lon="5.9636">
        <ele>359.3</ele>
        <time>2023-06-11T09:47:53Z</time>
      </trkpt>
      <trkpt lat="43.73166" lon="5.9636">
        <ele>359.2</ele>
        <time>2023-06-11T09:47:54Z</time>
      </trkpt>
      <trkpt lat="43.73166" lon="5.9636">
        <ele>359.2</ele>
        <time>2023-06-11T09:47:55Z</time>
      </trkpt>
      <trkpt lat="43.73166" lon="5.9636">
        <ele>359.2</ele>
        <time>2023-06-11T09:47:56Z</time>
      </trkpt>
      <trkpt lat="43.73166" lon="5.9636">
        <ele>359.2</ele>
        <time>2023-06-11T09:47:57Z</time>
      </trkpt>
      <trkpt lat="43.73166" lon="5.9636">
        <ele>359.3</ele>
        <time>2023-06-11T09:47:58Z</time>
      </trkpt>
      <trkpt lat="43.73166" lon="5.9636">
        <ele>359.3</ele>
        <time>2023-06-11T09:47:59Z</time>
      </trkpt>
      <trkpt lat="43.73166" lon="5.9636">
        <ele>359.3</ele>
        <time>2023-06-11T09:48:00Z</time>
      </trkpt>
      <trkpt lat="43.73166" lon="5.9636">
        <ele>359.3</ele>
        <time>2023-06-11T09:48:01Z</time>
      </trkpt>
      <trkpt lat="43.73166" lon="5.9636">
        <ele>359.2</ele>
        <time>2023-06-11T09:48:02Z</time>
      </trkpt>
      <trkpt lat="43.73166" lon="5.9636">
        <ele>359.2</ele>
        <time>2023-06-11T09:48:03Z</time>
      </trkpt>
      <trkpt lat="43.73165" lon="5.9636">
        <ele>359.2</ele>
        <time>2023-06-11T09:48:04Z</time>
      </trkpt>
      <trkpt lat="43.73165" lon="5.9636">
        <ele>359.2</ele>
        <time>2023-06-11T09:48:05Z</time>
      </trkpt>
      <trkpt lat="43.73165" lon="5.9636">
        <ele>359.2</ele>
        <time>2023-06-11T09:48:06Z</time>
      </trkpt>
      <trkpt lat="43.73165" lon="5.9636">
        <ele>359.3</ele>
        <time>2023-06-11T09:48:07Z</time>
      </trkpt>
      <trkpt lat="43.73165" lon="5.9636">
        <ele>359.3</ele>
        <time>2023-06-11T09:48:08Z</time>
      </trkpt>
      <trkpt lat="43.73165" lon="5.9636">
        <ele>359.4</ele>
        <time>2023-06-11T09:48:09Z</time>
      </trkpt>
      <trkpt lat="43.73165" lon="5.9636">
        <ele>359.4</ele>
        <time>2023-06-11T09:48:10Z</time>
      </trkpt>
      <trkpt lat="43.73165" lon="5.9636">
        <ele>359.4</ele>
        <time>2023-06-11T09:48:11Z</time>
      </trkpt>
      <trkpt lat="43.73166" lon="5.9636">
        <ele>359.3</ele>
        <time>2023-06-11T09:48:12Z</time>
      </trkpt>
      <trkpt lat="43.73166" lon="5.9636">
        <ele>359.3</ele>
        <time>2023-06-11T09:48:13Z</time>
      </trkpt>
      <trkpt lat="43.73166" lon="5.9636">
        <ele>359.2</ele>
        <time>2023-06-11T09:48:14Z</time>
      </trkpt>
      <trkpt lat="43.73166" lon="5.9636">
        <ele>359.2</ele>
        <time>2023-06-11T09:48:15Z</time>
      </trkpt>
      <trkpt lat="43.73166" lon="5.9636">
        <ele>359.2</ele>
        <time>2023-06-11T09:48:16Z</time>
      </trkpt>
      <trkpt lat="43.73166" lon="5.9636">
        <ele>359.2</ele>
        <time>2023-06-11T09:48:17Z</time>
      </trkpt>
      <trkpt lat="43.73166" lon="5.9636">
        <ele>359.2</ele>
        <time>2023-06-11T09:48:18Z</time>
      </trkpt>
      <trkpt lat="43.73166" lon="5.9636">
        <ele>359.3</ele>
        <time>2023-06-11T09:48:19Z</time>
      </trkpt>
      <trkpt lat="43.73166" lon="5.9636">
        <ele>359.2</ele>
        <time>2023-06-11T09:48:20Z</time>
      </trkpt>
      <trkpt lat="43.73166" lon="5.9636">
        <ele>359.2</ele>
        <time>2023-06-11T09:48:21Z</time>
      </trkpt>
      <trkpt lat="43.73166" lon="5.9636">
        <ele>359.2</ele>
        <time>2023-06-11T09:48:22Z</time>
      </trkpt>
      <trkpt lat="43.73166" lon="5.9636">
        <ele>359.2</ele>
        <time>2023-06-11T09:48:23Z</time>
      </trkpt>
      <trkpt lat="43.73166" lon="5.9636">
        <ele>359.2</ele>
        <time>2023-06-11T09:48:24Z</time>
      </trkpt>
      <trkpt lat="43.73166" lon="5.9636">
        <ele>359.3</ele>
        <time>2023-06-11T09:48:25Z</time>
      </trkpt>
      <trkpt lat="43.73166" lon="5.9636">
        <ele>359.3</ele>
        <time>2023-06-11T09:48:26Z</time>
      </trkpt>
      <trkpt lat="43.73166" lon="5.9636">
        <ele>359.3</ele>
        <time>2023-06-11T09:48:27Z</time>
      </trkpt>
      <trkpt lat="43.73166" lon="5.9636">
        <ele>359.3</ele>
        <time>2023-06-11T09:48:28Z</time>
      </trkpt>
      <trkpt lat="43.73166" lon="5.9636">
        <ele>359.4</ele>
        <time>2023-06-11T09:48:29Z</time>
      </trkpt>
      <trkpt lat="43.73166" lon="5.9636">
        <ele>359.4</ele>
        <time>2023-06-11T09:48:30Z</time>
      </trkpt>
      <trkpt lat="43.73166" lon="5.9636">
        <ele>359.4</ele>
        <time>2023-06-11T09:48:31Z</time>
      </trkpt>
      <trkpt lat="43.73165" lon="5.9636">
        <ele>359.4</ele>
        <time>2023-06-11T09:48:32Z</time>
      </trkpt>
      <trkpt lat="43.73165" lon="5.9636">
        <ele>359.3</ele>
        <time>2023-06-11T09:48:33Z</time>
      </trkpt>
      <trkpt lat="43.73165" lon="5.9636">
        <ele>359.3</ele>
        <time>2023-06-11T09:48:34Z</time>
      </trkpt>
      <trkpt lat="43.73165" lon="5.9636">
        <ele>359.3</ele>
        <time>2023-06-11T09:48:35Z</time>
      </trkpt>
      <trkpt lat="43.73165" lon="5.9636">
        <ele>359.3</ele>
        <time>2023-06-11T09:48:36Z</time>
      </trkpt>
      <trkpt lat="43.73165" lon="5.9636">
        <ele>359.2</ele>
        <time>2023-06-11T09:48:37Z</time>
      </trkpt>
      <trkpt lat="43.73165" lon="5.96359">
        <ele>359.3</ele>
        <time>2023-06-11T09:48:38Z</time>
      </trkpt>
      <trkpt lat="43.73165" lon="5.96359">
        <ele>359.3</ele>
        <time>2023-06-11T09:48:39Z</time>
      </trkpt>
      <trkpt lat="43.73165" lon="5.96359">
        <ele>359.3</ele>
        <time>2023-06-11T09:48:40Z</time>
      </trkpt>
      <trkpt lat="43.73165" lon="5.96359">
        <ele>359.3</ele>
        <time>2023-06-11T09:48:41Z</time>
      </trkpt>
      <trkpt lat="43.73165" lon="5.96359">
        <ele>359.3</ele>
        <time>2023-06-11T09:48:42Z</time>
      </trkpt>
      <trkpt lat="43.73165" lon="5.96359">
        <ele>359.2</ele>
        <time>2023-06-11T09:48:43Z</time>
      </trkpt>
      <trkpt lat="43.73165" lon="5.96359">
        <ele>359.2</ele>
        <time>2023-06-11T09:48:44Z</time>
      </trkpt>
      <trkpt lat="43.73165" lon="5.96359">
        <ele>359.2</ele>
        <time>2023-06-11T09:48:45Z</time>
      </trkpt>
      <trkpt lat="43.73165" lon="5.96359">
        <ele>359.3</ele>
        <time>2023-06-11T09:48:46Z</time>
      </trkpt>
      <trkpt lat="43.73165" lon="5.96359">
        <ele>359.3</ele>
        <time>2023-06-11T09:48:47Z</time>
      </trkpt>
      <trkpt lat="43.73165" lon="5.96359">
        <ele>359.4</ele>
        <time>2023-06-11T09:48:48Z</time>
      </trkpt>
      <trkpt lat="43.73165" lon="5.96359">
        <ele>359.4</ele>
        <time>2023-06-11T09:48:49Z</time>
      </trkpt>
      <trkpt lat="43.73165" lon="5.96359">
        <ele>359.5</ele>
        <time>2023-06-11T09:48:50Z</time>
      </trkpt>
      <trkpt lat="43.73165" lon="5.96359">
        <ele>359.5</ele>
        <time>2023-06-11T09:48:51Z</time>
      </trkpt>
      <trkpt lat="43.73165" lon="5.96359">
        <ele>359.5</ele>
        <time>2023-06-11T09:48:52Z</time>
      </trkpt>
      <trkpt lat="43.73165" lon="5.96359">
        <ele>359.4</ele>
        <time>2023-06-11T09:48:53Z</time>
      </trkpt>
      <trkpt lat="43.73165" lon="5.96359">
        <ele>359.3</ele>
        <time>2023-06-11T09:48:54Z</time>
      </trkpt>
      <trkpt lat="43.73165" lon="5.96359">
        <ele>359.4</ele>
        <time>2023-06-11T09:48:55Z</time>
      </trkpt>
      <trkpt lat="43.73165" lon="5.96359">
        <ele>359.4</ele>
        <time>2023-06-11T09:48:56Z</time>
      </trkpt>
      <trkpt lat="43.73165" lon="5.96359">
        <ele>359.4</ele>
        <time>2023-06-11T09:48:57Z</time>
      </trkpt>
      <trkpt lat="43.73165" lon="5.96359">
        <ele>359.4</ele>
        <time>2023-06-11T09:48:58Z</time>
      </trkpt>
      <trkpt lat="43.73165" lon="5.96359">
        <ele>359.4</ele>
        <time>2023-06-11T09:48:59Z</time>
      </trkpt>
      <trkpt lat="43.73165" lon="5.96359">
        <ele>359.4</ele>
        <time>2023-06-11T09:49:00Z</time>
      </trkpt>
      <trkpt lat="43.73165" lon="5.96359">
        <ele>359.4</ele>
        <time>2023-06-11T09:49:01Z</time>
      </trkpt>
      <trkpt lat="43.73165" lon="5.96359">
        <ele>359.4</ele>
        <time>2023-06-11T09:49:02Z</time>
      </trkpt>
      <trkpt lat="43.73165" lon="5.96359">
        <ele>359.4</ele>
        <time>2023-06-11T09:49:03Z</time>
      </trkpt>
      <trkpt lat="43.73165" lon="5.96359">
        <ele>359.5</ele>
        <time>2023-06-11T09:49:04Z</time>
      </trkpt>
      <trkpt lat="43.73165" lon="5.96359">
        <ele>359.4</ele>
        <time>2023-06-11T09:49:05Z</time>
      </trkpt>
      <trkpt lat="43.73165" lon="5.96359">
        <ele>359.4</ele>
        <time>2023-06-11T09:49:06Z</time>
      </trkpt>
      <trkpt lat="43.73165" lon="5.96359">
        <ele>359.5</ele>
        <time>2023-06-11T09:49:07Z</time>
      </trkpt>
      <trkpt lat="43.73165" lon="5.96359">
        <ele>359.5</ele>
        <time>2023-06-11T09:49:08Z</time>
      </trkpt>
      <trkpt lat="43.73165" lon="5.96359">
        <ele>359.5</ele>
        <time>2023-06-11T09:49:09Z</time>
      </trkpt>
      <trkpt lat="43.73165" lon="5.96359">
        <ele>359.5</ele>
        <time>2023-06-11T09:49:10Z</time>
      </trkpt>
      <trkpt lat="43.73165" lon="5.96359">
        <ele>359.5</ele>
        <time>2023-06-11T09:49:11Z</time>
      </trkpt>
      <trkpt lat="43.73165" lon="5.96359">
        <ele>359.6</ele>
        <time>2023-06-11T09:49:12Z</time>
      </trkpt>
      <trkpt lat="43.73165" lon="5.96359">
        <ele>359.7</ele>
        <time>2023-06-11T09:49:13Z</time>
      </trkpt>
      <trkpt lat="43.73165" lon="5.96359">
        <ele>359.7</ele>
        <time>2023-06-11T09:49:14Z</time>
      </trkpt>
      <trkpt lat="43.73165" lon="5.9636">
        <ele>359.8</ele>
        <time>2023-06-11T09:49:15Z</time>
      </trkpt>
      <trkpt lat="43.73165" lon="5.9636">
        <ele>359.8</ele>
        <time>2023-06-11T09:49:16Z</time>
      </trkpt>
      <trkpt lat="43.73165" lon="5.9636">
        <ele>359.8</ele>
        <time>2023-06-11T09:49:17Z</time>
      </trkpt>
      <trkpt lat="43.73165" lon="5.9636">
        <ele>359.8</ele>
        <time>2023-06-11T09:49:18Z</time>
      </trkpt>
      <trkpt lat="43.73165" lon="5.9636">
        <ele>359.8</ele>
        <time>2023-06-11T09:49:19Z</time>
      </trkpt>
      <trkpt lat="43.73165" lon="5.9636">
        <ele>359.7</ele>
        <time>2023-06-11T09:49:20Z</time>
      </trkpt>
      <trkpt lat="43.73164" lon="5.9636">
        <ele>359.7</ele>
        <time>2023-06-11T09:49:21Z</time>
      </trkpt>
      <trkpt lat="43.73164" lon="5.9636">
        <ele>359.7</ele>
        <time>2023-06-11T09:49:22Z</time>
      </trkpt>
      <trkpt lat="43.73164" lon="5.9636">
        <ele>359.7</ele>
        <time>2023-06-11T09:49:23Z</time>
      </trkpt>
      <trkpt lat="43.73164" lon="5.9636">
        <ele>359.6</ele>
        <time>2023-06-11T09:49:24Z</time>
      </trkpt>
      <trkpt lat="43.73164" lon="5.9636">
        <ele>359.6</ele>
        <time>2023-06-11T09:49:25Z</time>
      </trkpt>
      <trkpt lat="43.73164" lon="5.9636">
        <ele>359.6</ele>
        <time>2023-06-11T09:49:26Z</time>
      </trkpt>
      <trkpt lat="43.73164" lon="5.9636">
        <ele>359.6</ele>
        <time>2023-06-11T09:49:27Z</time>
      </trkpt>
      <trkpt lat="43.73164" lon="5.9636">
        <ele>359.5</ele>
        <time>2023-06-11T09:49:28Z</time>
      </trkpt>
      <trkpt lat="43.73164" lon="5.9636">
        <ele>359.7</ele>
        <time>2023-06-11T09:49:29Z</time>
      </trkpt>
      <trkpt lat="43.73164" lon="5.9636">
        <ele>359.7</ele>
        <time>2023-06-11T09:49:30Z</time>
      </trkpt>
      <trkpt lat="43.73164" lon="5.9636">
        <ele>359.8</ele>
        <time>2023-06-11T09:49:31Z</time>
      </trkpt>
      <trkpt lat="43.73164" lon="5.9636">
        <ele>359.6</ele>
        <time>2023-06-11T09:49:32Z</time>
      </trkpt>
      <trkpt lat="43.73164" lon="5.9636">
        <ele>359.6</ele>
        <time>2023-06-11T09:49:33Z</time>
      </trkpt>
      <trkpt lat="43.73164" lon="5.9636">
        <ele>359.5</ele>
        <time>2023-06-11T09:49:34Z</time>
      </trkpt>
      <trkpt lat="43.73164" lon="5.9636">
        <ele>359.4</ele>
        <time>2023-06-11T09:49:35Z</time>
      </trkpt>
      <trkpt lat="43.73164" lon="5.9636">
        <ele>359.4</ele>
        <time>2023-06-11T09:49:36Z</time>
      </trkpt>
      <trkpt lat="43.73164" lon="5.9636">
        <ele>359.4</ele>
        <time>2023-06-11T09:49:37Z</time>
      </trkpt>
      <trkpt lat="43.73164" lon="5.9636">
        <ele>359.4</ele>
        <time>2023-06-11T09:49:38Z</time>
      </trkpt>
      <trkpt lat="43.73164" lon="5.9636">
        <ele>359.4</ele>
        <time>2023-06-11T09:49:39Z</time>
      </trkpt>
      <trkpt lat="43.73164" lon="5.9636">
        <ele>359.4</ele>
        <time>2023-06-11T09:49:40Z</time>
      </trkpt>
      <trkpt lat="43.73164" lon="5.9636">
        <ele>359.4</ele>
        <time>2023-06-11T09:49:41Z</time>
      </trkpt>
      <trkpt lat="43.73164" lon="5.9636">
        <ele>359.4</ele>
        <time>2023-06-11T09:49:42Z</time>
      </trkpt>
      <trkpt lat="43.73164" lon="5.9636">
        <ele>359.4</ele>
        <time>2023-06-11T09:49:43Z</time>
      </trkpt>
      <trkpt lat="43.73164" lon="5.9636">
        <ele>359.3</ele>
        <time>2023-06-11T09:49:44Z</time>
      </trkpt>
      <trkpt lat="43.73164" lon="5.9636">
        <ele>359.4</ele>
        <time>2023-06-11T09:49:45Z</time>
      </trkpt>
      <trkpt lat="43.73164" lon="5.9636">
        <ele>359.4</ele>
        <time>2023-06-11T09:49:46Z</time>
      </trkpt>
      <trkpt lat="43.73164" lon="5.9636">
        <ele>359.4</ele>
        <time>2023-06-11T09:49:47Z</time>
      </trkpt>
      <trkpt lat="43.73165" lon="5.9636">
        <ele>359.4</ele>
        <time>2023-06-11T09:49:48Z</time>
      </trkpt>
      <trkpt lat="43.73165" lon="5.9636">
        <ele>359.4</ele>
        <time>2023-06-11T09:49:49Z</time>
      </trkpt>
      <trkpt lat="43.73165" lon="5.9636">
        <ele>359.4</ele>
        <time>2023-06-11T09:49:50Z</time>
      </trkpt>
      <trkpt lat="43.73165" lon="5.9636">
        <ele>359.4</ele>
        <time>2023-06-11T09:49:51Z</time>
      </trkpt>
      <trkpt lat="43.73165" lon="5.9636">
        <ele>359.4</ele>
        <time>2023-06-11T09:49:52Z</time>
      </trkpt>
      <trkpt lat="43.73165" lon="5.9636">
        <ele>359.4</ele>
        <time>2023-06-11T09:49:53Z</time>
      </trkpt>
      <trkpt lat="43.73165" lon="5.9636">
        <ele>359.3</ele>
        <time>2023-06-11T09:49:54Z</time>
      </trkpt>
      <trkpt lat="43.73165" lon="5.9636">
        <ele>359.4</ele>
        <time>2023-06-11T09:49:55Z</time>
      </trkpt>
      <trkpt lat="43.73165" lon="5.9636">
        <ele>359.4</ele>
        <time>2023-06-11T09:49:56Z</time>
      </trkpt>
      <trkpt lat="43.73165" lon="5.9636">
        <ele>359.5</ele>
        <time>2023-06-11T09:49:57Z</time>
      </trkpt>
      <trkpt lat="43.73165" lon="5.9636">
        <ele>359.5</ele>
        <time>2023-06-11T09:49:58Z</time>
      </trkpt>
      <trkpt lat="43.73165" lon="5.9636">
        <ele>359.6</ele>
        <time>2023-06-11T09:49:59Z</time>
      </trkpt>
      <trkpt lat="43.73165" lon="5.9636">
        <ele>359.6</ele>
        <time>2023-06-11T09:50:00Z</time>
      </trkpt>
      <trkpt lat="43.73165" lon="5.9636">
        <ele>359.5</ele>
        <time>2023-06-11T09:50:01Z</time>
      </trkpt>
      <trkpt lat="43.73165" lon="5.9636">
        <ele>359.6</ele>
        <time>2023-06-11T09:50:02Z</time>
      </trkpt>
      <trkpt lat="43.73165" lon="5.9636">
        <ele>359.5</ele>
        <time>2023-06-11T09:50:03Z</time>
      </trkpt>
      <trkpt lat="43.73165" lon="5.9636">
        <ele>359.5</ele>
        <time>2023-06-11T09:50:04Z</time>
      </trkpt>
      <trkpt lat="43.73164" lon="5.9636">
        <ele>359.5</ele>
        <time>2023-06-11T09:50:05Z</time>
      </trkpt>
      <trkpt lat="43.73164" lon="5.9636">
        <ele>359.6</ele>
        <time>2023-06-11T09:50:06Z</time>
      </trkpt>
      <trkpt lat="43.73164" lon="5.9636">
        <ele>359.6</ele>
        <time>2023-06-11T09:50:07Z</time>
      </trkpt>
      <trkpt lat="43.73164" lon="5.9636">
        <ele>359.6</ele>
        <time>2023-06-11T09:50:08Z</time>
      </trkpt>
      <trkpt lat="43.73164" lon="5.9636">
        <ele>359.6</ele>
        <time>2023-06-11T09:50:09Z</time>
      </trkpt>
      <trkpt lat="43.73164" lon="5.9636">
        <ele>359.6</ele>
        <time>2023-06-11T09:50:10Z</time>
      </trkpt>
      <trkpt lat="43.73164" lon="5.9636">
        <ele>359.7</ele>
        <time>2023-06-11T09:50:11Z</time>
      </trkpt>
      <trkpt lat="43.73164" lon="5.9636">
        <ele>359.7</ele>
        <time>2023-06-11T09:50:12Z</time>
      </trkpt>
      <trkpt lat="43.73164" lon="5.9636">
        <ele>359.7</ele>
        <time>2023-06-11T09:50:13Z</time>
      </trkpt>
      <trkpt lat="43.73165" lon="5.9636">
        <ele>359.7</ele>
        <time>2023-06-11T09:50:14Z</time>
      </trkpt>
      <trkpt lat="43.73165" lon="5.9636">
        <ele>359.7</ele>
        <time>2023-06-11T09:50:15Z</time>
      </trkpt>
      <trkpt lat="43.73165" lon="5.9636">
        <ele>359.7</ele>
        <time>2023-06-11T09:50:16Z</time>
      </trkpt>
      <trkpt lat="43.73165" lon="5.9636">
        <ele>359.6</ele>
        <time>2023-06-11T09:50:17Z</time>
      </trkpt>
      <trkpt lat="43.73165" lon="5.9636">
        <ele>359.5</ele>
        <time>2023-06-11T09:50:18Z</time>
      </trkpt>
      <trkpt lat="43.73165" lon="5.9636">
        <ele>359.5</ele>
        <time>2023-06-11T09:50:19Z</time>
      </trkpt>
      <trkpt lat="43.73165" lon="5.9636">
        <ele>359.6</ele>
        <time>2023-06-11T09:50:20Z</time>
      </trkpt>
      <trkpt lat="43.73165" lon="5.9636">
        <ele>359.6</ele>
        <time>2023-06-11T09:50:21Z</time>
      </trkpt>
      <trkpt lat="43.73165" lon="5.9636">
        <ele>359.6</ele>
        <time>2023-06-11T09:50:22Z</time>
      </trkpt>
      <trkpt lat="43.73165" lon="5.9636">
        <ele>359.6</ele>
        <time>2023-06-11T09:50:23Z</time>
      </trkpt>
      <trkpt lat="43.73165" lon="5.9636">
        <ele>359.6</ele>
        <time>2023-06-11T09:50:24Z</time>
      </trkpt>
      <trkpt lat="43.73165" lon="5.9636">
        <ele>359.6</ele>
        <time>2023-06-11T09:50:25Z</time>
      </trkpt>
      <trkpt lat="43.73165" lon="5.9636">
        <ele>359.6</ele>
        <time>2023-06-11T09:50:26Z</time>
      </trkpt>
      <trkpt lat="43.73165" lon="5.9636">
        <ele>359.7</ele>
        <time>2023-06-11T09:50:27Z</time>
      </trkpt>
      <trkpt lat="43.73165" lon="5.9636">
        <ele>359.6</ele>
        <time>2023-06-11T09:50:28Z</time>
      </trkpt>
      <trkpt lat="43.73165" lon="5.9636">
        <ele>359.6</ele>
        <time>2023-06-11T09:50:29Z</time>
      </trkpt>
      <trkpt lat="43.73165" lon="5.9636">
        <ele>359.6</ele>
        <time>2023-06-11T09:50:30Z</time>
      </trkpt>
      <trkpt lat="43.73165" lon="5.9636">
        <ele>359.6</ele>
        <time>2023-06-11T09:50:31Z</time>
      </trkpt>
      <trkpt lat="43.73165" lon="5.9636">
        <ele>359.6</ele>
        <time>2023-06-11T09:50:32Z</time>
      </trkpt>
      <trkpt lat="43.73165" lon="5.9636">
        <ele>359.6</ele>
        <time>2023-06-11T09:50:33Z</time>
      </trkpt>
      <trkpt lat="43.73165" lon="5.9636">
        <ele>359.6</ele>
        <time>2023-06-11T09:50:34Z</time>
      </trkpt>
      <trkpt lat="43.73165" lon="5.9636">
        <ele>359.6</ele>
        <time>2023-06-11T09:50:35Z</time>
      </trkpt>
      <trkpt lat="43.73164" lon="5.9636">
        <ele>359.6</ele>
        <time>2023-06-11T09:50:36Z</time>
      </trkpt>
      <trkpt lat="43.73164" lon="5.9636">
        <ele>359.6</ele>
        <time>2023-06-11T09:50:37Z</time>
      </trkpt>
      <trkpt lat="43.73165" lon="5.96361">
        <ele>359.5</ele>
        <time>2023-06-11T09:50:38Z</time>
      </trkpt>
      <trkpt lat="43.73165" lon="5.96361">
        <ele>359.5</ele>
        <time>2023-06-11T09:50:39Z</time>
      </trkpt>
      <trkpt lat="43.73165" lon="5.96361">
        <ele>359.5</ele>
        <time>2023-06-11T09:50:40Z</time>
      </trkpt>
      <trkpt lat="43.73165" lon="5.96361">
        <ele>359.5</ele>
        <time>2023-06-11T09:50:41Z</time>
      </trkpt>
      <trkpt lat="43.73165" lon="5.96361">
        <ele>359.5</ele>
        <time>2023-06-11T09:50:42Z</time>
      </trkpt>
      <trkpt lat="43.73165" lon="5.96361">
        <ele>359.5</ele>
        <time>2023-06-11T09:50:43Z</time>
      </trkpt>
      <trkpt lat="43.73164" lon="5.96361">
        <ele>359.5</ele>
        <time>2023-06-11T09:50:44Z</time>
      </trkpt>
      <trkpt lat="43.73164" lon="5.96362">
        <ele>359.5</ele>
        <time>2023-06-11T09:50:45Z</time>
      </trkpt>
      <trkpt lat="43.73164" lon="5.96362">
        <ele>359.5</ele>
        <time>2023-06-11T09:50:46Z</time>
      </trkpt>
      <trkpt lat="43.73164" lon="5.96362">
        <ele>359.5</ele>
        <time>2023-06-11T09:50:47Z</time>
      </trkpt>
      <trkpt lat="43.73164" lon="5.96362">
        <ele>359.5</ele>
        <time>2023-06-11T09:50:48Z</time>
      </trkpt>
      <trkpt lat="43.73164" lon="5.96362">
        <ele>359.5</ele>
        <time>2023-06-11T09:50:49Z</time>
      </trkpt>
      <trkpt lat="43.73164" lon="5.96362">
        <ele>359.5</ele>
        <time>2023-06-11T09:50:50Z</time>
      </trkpt>
      <trkpt lat="43.73164" lon="5.96363">
        <ele>359.5</ele>
        <time>2023-06-11T09:50:51Z</time>
      </trkpt>
      <trkpt lat="43.73164" lon="5.96363">
        <ele>359.4</ele>
        <time>2023-06-11T09:50:52Z</time>
      </trkpt>
      <trkpt lat="43.73164" lon="5.96363">
        <ele>359.3</ele>
        <time>2023-06-11T09:50:53Z</time>
      </trkpt>
      <trkpt lat="43.73164" lon="5.96363">
        <ele>359.4</ele>
        <time>2023-06-11T09:50:54Z</time>
      </trkpt>
      <trkpt lat="43.73164" lon="5.96363">
        <ele>359.5</ele>
        <time>2023-06-11T09:50:55Z</time>
      </trkpt>
      <trkpt lat="43.73164" lon="5.96363">
        <ele>359.5</ele>
        <time>2023-06-11T09:50:56Z</time>
      </trkpt>
      <trkpt lat="43.73164" lon="5.96363">
        <ele>359.4</ele>
        <time>2023-06-11T09:50:57Z</time>
      </trkpt>
      <trkpt lat="43.73164" lon="5.96364">
        <ele>359.4</ele>
        <time>2023-06-11T09:50:58Z</time>
      </trkpt>
      <trkpt lat="43.73164" lon="5.96364">
        <ele>359.3</ele>
        <time>2023-06-11T09:50:59Z</time>
      </trkpt>
      <trkpt lat="43.73164" lon="5.96363">
        <ele>359.3</ele>
        <time>2023-06-11T09:51:00Z</time>
      </trkpt>
      <trkpt lat="43.73164" lon="5.96364">
        <ele>359.4</ele>
        <time>2023-06-11T09:51:01Z</time>
      </trkpt>
      <trkpt lat="43.73164" lon="5.96364">
        <ele>359.6</ele>
        <time>2023-06-11T09:51:02Z</time>
      </trkpt>
      <trkpt lat="43.73164" lon="5.96365">
        <ele>359.7</ele>
        <time>2023-06-11T09:51:03Z</time>
      </trkpt>
      <trkpt lat="43.73165" lon="5.96365">
        <ele>359.7</ele>
        <time>2023-06-11T09:51:04Z</time>
      </trkpt>
      <trkpt lat="43.73165" lon="5.96366">
        <ele>359.8</ele>
        <time>2023-06-11T09:51:05Z</time>
      </trkpt>
      <trkpt lat="43.73165" lon="5.96366">
        <ele>359.8</ele>
        <time>2023-06-11T09:51:06Z</time>
      </trkpt>
      <trkpt lat="43.73166" lon="5.96366">
        <ele>359.8</ele>
        <time>2023-06-11T09:51:07Z</time>
      </trkpt>
      <trkpt lat="43.73166" lon="5.96366">
        <ele>359.9</ele>
        <time>2023-06-11T09:51:08Z</time>
      </trkpt>
      <trkpt lat="43.73165" lon="5.96365">
        <ele>359.9</ele>
        <time>2023-06-11T09:51:09Z</time>
      </trkpt>
      <trkpt lat="43.73165" lon="5.96366">
        <ele>359.9</ele>
        <time>2023-06-11T09:51:10Z</time>
      </trkpt>
      <trkpt lat="43.73165" lon="5.96366">
        <ele>359.9</ele>
        <time>2023-06-11T09:51:11Z</time>
      </trkpt>
      <trkpt lat="43.73165" lon="5.96366">
        <ele>359.9</ele>
        <time>2023-06-11T09:51:12Z</time>
      </trkpt>
      <trkpt lat="43.73165" lon="5.96366">
        <ele>359.8</ele>
        <time>2023-06-11T09:51:13Z</time>
      </trkpt>
      <trkpt lat="43.73165" lon="5.96366">
        <ele>359.7</ele>
        <time>2023-06-11T09:51:14Z</time>
      </trkpt>
      <trkpt lat="43.73165" lon="5.96366">
        <ele>359.6</ele>
        <time>2023-06-11T09:51:15Z</time>
      </trkpt>
      <trkpt lat="43.73165" lon="5.96366">
        <ele>359.6</ele>
        <time>2023-06-11T09:51:16Z</time>
      </trkpt>
      <trkpt lat="43.73165" lon="5.96366">
        <ele>359.7</ele>
        <time>2023-06-11T09:51:17Z</time>
      </trkpt>
      <trkpt lat="43.73165" lon="5.96366">
        <ele>359.7</ele>
        <time>2023-06-11T09:51:18Z</time>
      </trkpt>
      <trkpt lat="43.73165" lon="5.96366">
        <ele>359.6</ele>
        <time>2023-06-11T09:51:19Z</time>
      </trkpt>
      <trkpt lat="43.73165" lon="5.96366">
        <ele>359.6</ele>
        <time>2023-06-11T09:51:20Z</time>
      </trkpt>
      <trkpt lat="43.73165" lon="5.96366">
        <ele>359.6</ele>
        <time>2023-06-11T09:51:21Z</time>
      </trkpt>
      <trkpt lat="43.73165" lon="5.96366">
        <ele>359.7</ele>
        <time>2023-06-11T09:51:22Z</time>
      </trkpt>
      <trkpt lat="43.73164" lon="5.96366">
        <ele>359.6</ele>
        <time>2023-06-11T09:51:23Z</time>
      </trkpt>
      <trkpt lat="43.73164" lon="5.96366">
        <ele>359.6</ele>
        <time>2023-06-11T09:51:24Z</time>
      </trkpt>
      <trkpt lat="43.73164" lon="5.96366">
        <ele>359.6</ele>
        <time>2023-06-11T09:51:25Z</time>
      </trkpt>
      <trkpt lat="43.73164" lon="5.96366">
        <ele>359.6</ele>
        <time>2023-06-11T09:51:26Z</time>
      </trkpt>
      <trkpt lat="43.73163" lon="5.96366">
        <ele>359.6</ele>
        <time>2023-06-11T09:51:27Z</time>
      </trkpt>
      <trkpt lat="43.73163" lon="5.96366">
        <ele>359.7</ele>
        <time>2023-06-11T09:51:28Z</time>
      </trkpt>
      <trkpt lat="43.73163" lon="5.96366">
        <ele>359.7</ele>
        <time>2023-06-11T09:51:29Z</time>
      </trkpt>
      <trkpt lat="43.73163" lon="5.96365">
        <ele>359.7</ele>
        <time>2023-06-11T09:51:30Z</time>
      </trkpt>
      <trkpt lat="43.73162" lon="5.96365">
        <ele>359.8</ele>
        <time>2023-06-11T09:51:31Z</time>
      </trkpt>
      <trkpt lat="43.73162" lon="5.96365">
        <ele>359.8</ele>
        <time>2023-06-11T09:51:32Z</time>
      </trkpt>
      <trkpt lat="43.73162" lon="5.96365">
        <ele>359.7</ele>
        <time>2023-06-11T09:51:33Z</time>
      </trkpt>
      <trkpt lat="43.73162" lon="5.96365">
        <ele>359.6</ele>
        <time>2023-06-11T09:51:34Z</time>
      </trkpt>
      <trkpt lat="43.73162" lon="5.96366">
        <ele>359.7</ele>
        <time>2023-06-11T09:51:35Z</time>
      </trkpt>
      <trkpt lat="43.73162" lon="5.96366">
        <ele>359.7</ele>
        <time>2023-06-11T09:51:36Z</time>
      </trkpt>
      <trkpt lat="43.73162" lon="5.96366">
        <ele>359.7</ele>
        <time>2023-06-11T09:51:37Z</time>
      </trkpt>
      <trkpt lat="43.73162" lon="5.96366">
        <ele>359.8</ele>
        <time>2023-06-11T09:51:38Z</time>
      </trkpt>
      <trkpt lat="43.73162" lon="5.96366">
        <ele>359.7</ele>
        <time>2023-06-11T09:51:39Z</time>
      </trkpt>
      <trkpt lat="43.73162" lon="5.96366">
        <ele>359.7</ele>
        <time>2023-06-11T09:51:40Z</time>
      </trkpt>
      <trkpt lat="43.73162" lon="5.96366">
        <ele>359.7</ele>
        <time>2023-06-11T09:51:41Z</time>
      </trkpt>
      <trkpt lat="43.73162" lon="5.96367">
        <ele>359.7</ele>
        <time>2023-06-11T09:51:42Z</time>
      </trkpt>
      <trkpt lat="43.73162" lon="5.96367">
        <ele>359.7</ele>
        <time>2023-06-11T09:51:43Z</time>
      </trkpt>
      <trkpt lat="43.73162" lon="5.96367">
        <ele>359.7</ele>
        <time>2023-06-11T09:51:44Z</time>
      </trkpt>
      <trkpt lat="43.73162" lon="5.96366">
        <ele>359.7</ele>
        <time>2023-06-11T09:51:45Z</time>
      </trkpt>
      <trkpt lat="43.73161" lon="5.96366">
        <ele>359.7</ele>
        <time>2023-06-11T09:51:46Z</time>
      </trkpt>
      <trkpt lat="43.73161" lon="5.96366">
        <ele>359.7</ele>
        <time>2023-06-11T09:51:47Z</time>
      </trkpt>
      <trkpt lat="43.73161" lon="5.96366">
        <ele>359.7</ele>
        <time>2023-06-11T09:51:48Z</time>
      </trkpt>
      <trkpt lat="43.73161" lon="5.96366">
        <ele>359.8</ele>
        <time>2023-06-11T09:51:49Z</time>
      </trkpt>
      <trkpt lat="43.73161" lon="5.96366">
        <ele>359.7</ele>
        <time>2023-06-11T09:51:50Z</time>
      </trkpt>
      <trkpt lat="43.73161" lon="5.96366">
        <ele>359.7</ele>
        <time>2023-06-11T09:51:51Z</time>
      </trkpt>
      <trkpt lat="43.73161" lon="5.96366">
        <ele>359.7</ele>
        <time>2023-06-11T09:51:52Z</time>
      </trkpt>
      <trkpt lat="43.73161" lon="5.96366">
        <ele>359.7</ele>
        <time>2023-06-11T09:51:53Z</time>
      </trkpt>
      <trkpt lat="43.73161" lon="5.96366">
        <ele>359.8</ele>
        <time>2023-06-11T09:51:54Z</time>
      </trkpt>
      <trkpt lat="43.7316" lon="5.96366">
        <ele>359.8</ele>
        <time>2023-06-11T09:51:55Z</time>
      </trkpt>
      <trkpt lat="43.7316" lon="5.96365">
        <ele>359.8</ele>
        <time>2023-06-11T09:51:56Z</time>
      </trkpt>
      <trkpt lat="43.7316" lon="5.96365">
        <ele>359.9</ele>
        <time>2023-06-11T09:51:57Z</time>
      </trkpt>
      <trkpt lat="43.7316" lon="5.96365">
        <ele>359.9</ele>
        <time>2023-06-11T09:51:58Z</time>
      </trkpt>
      <trkpt lat="43.73159" lon="5.96365">
        <ele>359.9</ele>
        <time>2023-06-11T09:51:59Z</time>
      </trkpt>
      <trkpt lat="43.73159" lon="5.96364">
        <ele>359.9</ele>
        <time>2023-06-11T09:52:00Z</time>
      </trkpt>
      <trkpt lat="43.73159" lon="5.96363">
        <ele>359.7</ele>
        <time>2023-06-11T09:52:01Z</time>
      </trkpt>
      <trkpt lat="43.73159" lon="5.96363">
        <ele>359.7</ele>
        <time>2023-06-11T09:52:02Z</time>
      </trkpt>
      <trkpt lat="43.73159" lon="5.96361">
        <ele>359.7</ele>
        <time>2023-06-11T09:52:03Z</time>
      </trkpt>
      <trkpt lat="43.73159" lon="5.9636">
        <ele>359.7</ele>
        <time>2023-06-11T09:52:04Z</time>
      </trkpt>
      <trkpt lat="43.73159" lon="5.9636">
        <ele>359.7</ele>
        <time>2023-06-11T09:52:05Z</time>
      </trkpt>
      <trkpt lat="43.73159" lon="5.96359">
        <ele>359.6</ele>
        <time>2023-06-11T09:52:06Z</time>
      </trkpt>
      <trkpt lat="43.7316" lon="5.96359">
        <ele>359.5</ele>
        <time>2023-06-11T09:52:07Z</time>
      </trkpt>
      <trkpt lat="43.7316" lon="5.96358">
        <ele>359.5</ele>
        <time>2023-06-11T09:52:08Z</time>
      </trkpt>
      <trkpt lat="43.7316" lon="5.96358">
        <ele>359.6</ele>
        <time>2023-06-11T09:52:09Z</time>
      </trkpt>
      <trkpt lat="43.7316" lon="5.96358">
        <ele>359.6</ele>
        <time>2023-06-11T09:52:10Z</time>
      </trkpt>
      <trkpt lat="43.73161" lon="5.96358">
        <ele>359.6</ele>
        <time>2023-06-11T09:52:11Z</time>
      </trkpt>
      <trkpt lat="43.73161" lon="5.96357">
        <ele>359.5</ele>
        <time>2023-06-11T09:52:12Z</time>
      </trkpt>
      <trkpt lat="43.7316" lon="5.96357">
        <ele>359.5</ele>
        <time>2023-06-11T09:52:13Z</time>
      </trkpt>
      <trkpt lat="43.7316" lon="5.96357">
        <ele>359.5</ele>
        <time>2023-06-11T09:52:14Z</time>
      </trkpt>
      <trkpt lat="43.73161" lon="5.96357">
        <ele>359.6</ele>
        <time>2023-06-11T09:52:15Z</time>
      </trkpt>
      <trkpt lat="43.73162" lon="5.96358">
        <ele>359.6</ele>
        <time>2023-06-11T09:52:16Z</time>
      </trkpt>
      <trkpt lat="43.73162" lon="5.96358">
        <ele>359.7</ele>
        <time>2023-06-11T09:52:17Z</time>
      </trkpt>
      <trkpt lat="43.73162" lon="5.96358">
        <ele>359.7</ele>
        <time>2023-06-11T09:52:18Z</time>
      </trkpt>
      <trkpt lat="43.73161" lon="5.96357">
        <ele>359.6</ele>
        <time>2023-06-11T09:52:19Z</time>
      </trkpt>
      <trkpt lat="43.73161" lon="5.96357">
        <ele>359.6</ele>
        <time>2023-06-11T09:52:20Z</time>
      </trkpt>
      <trkpt lat="43.73161" lon="5.96358">
        <ele>359.6</ele>
        <time>2023-06-11T09:52:21Z</time>
      </trkpt>
      <trkpt lat="43.73161" lon="5.96358">
        <ele>359.6</ele>
        <time>2023-06-11T09:52:22Z</time>
      </trkpt>
      <trkpt lat="43.73161" lon="5.96358">
        <ele>359.6</ele>
        <time>2023-06-11T09:52:23Z</time>
      </trkpt>
      <trkpt lat="43.73161" lon="5.96357">
        <ele>359.5</ele>
        <time>2023-06-11T09:52:24Z</time>
      </trkpt>
      <trkpt lat="43.73161" lon="5.96357">
        <ele>359.5</ele>
        <time>2023-06-11T09:52:25Z</time>
      </trkpt>
      <trkpt lat="43.73161" lon="5.96357">
        <ele>359.4</ele>
        <time>2023-06-11T09:52:26Z</time>
      </trkpt>
      <trkpt lat="43.73161" lon="5.96357">
        <ele>359.5</ele>
        <time>2023-06-11T09:52:27Z</time>
      </trkpt>
      <trkpt lat="43.73161" lon="5.96356">
        <ele>359.5</ele>
        <time>2023-06-11T09:52:28Z</time>
      </trkpt>
      <trkpt lat="43.73161" lon="5.96356">
        <ele>359.5</ele>
        <time>2023-06-11T09:52:29Z</time>
      </trkpt>
      <trkpt lat="43.73161" lon="5.96356">
        <ele>359.5</ele>
        <time>2023-06-11T09:52:30Z</time>
      </trkpt>
      <trkpt lat="43.73161" lon="5.96356">
        <ele>359.5</ele>
        <time>2023-06-11T09:52:31Z</time>
      </trkpt>
      <trkpt lat="43.73162" lon="5.96355">
        <ele>359.4</ele>
        <time>2023-06-11T09:52:32Z</time>
      </trkpt>
      <trkpt lat="43.73162" lon="5.96355">
        <ele>359.4</ele>
        <time>2023-06-11T09:52:33Z</time>
      </trkpt>
      <trkpt lat="43.73162" lon="5.96355">
        <ele>359.4</ele>
        <time>2023-06-11T09:52:34Z</time>
      </trkpt>
      <trkpt lat="43.73161" lon="5.96355">
        <ele>359.4</ele>
        <time>2023-06-11T09:52:35Z</time>
      </trkpt>
      <trkpt lat="43.73161" lon="5.96355">
        <ele>359.4</ele>
        <time>2023-06-11T09:52:36Z</time>
      </trkpt>
      <trkpt lat="43.73161" lon="5.96355">
        <ele>359.4</ele>
        <time>2023-06-11T09:52:37Z</time>
      </trkpt>
      <trkpt lat="43.73161" lon="5.96355">
        <ele>359.4</ele>
        <time>2023-06-11T09:52:38Z</time>
      </trkpt>
      <trkpt lat="43.73161" lon="5.96355">
        <ele>359.4</ele>
        <time>2023-06-11T09:52:39Z</time>
      </trkpt>
      <trkpt lat="43.73161" lon="5.96355">
        <ele>359.4</ele>
        <time>2023-06-11T09:52:40Z</time>
      </trkpt>
      <trkpt lat="43.73161" lon="5.96354">
        <ele>359.4</ele>
        <time>2023-06-11T09:52:41Z</time>
      </trkpt>
      <trkpt lat="43.73161" lon="5.96354">
        <ele>359.4</ele>
        <time>2023-06-11T09:52:42Z</time>
      </trkpt>
      <trkpt lat="43.73161" lon="5.96354">
        <ele>359.4</ele>
        <time>2023-06-11T09:52:43Z</time>
      </trkpt>
      <trkpt lat="43.73161" lon="5.96354">
        <ele>359.4</ele>
        <time>2023-06-11T09:52:44Z</time>
      </trkpt>
      <trkpt lat="43.73161" lon="5.96354">
        <ele>359.4</ele>
        <time>2023-06-11T09:52:45Z</time>
      </trkpt>
      <trkpt lat="43.73161" lon="5.96354">
        <ele>359.4</ele>
        <time>2023-06-11T09:52:46Z</time>
      </trkpt>
      <trkpt lat="43.73161" lon="5.96354">
        <ele>359.4</ele>
        <time>2023-06-11T09:52:47Z</time>
      </trkpt>
      <trkpt lat="43.73161" lon="5.96354">
        <ele>359.5</ele>
        <time>2023-06-11T09:52:48Z</time>
      </trkpt>
      <trkpt lat="43.73161" lon="5.96354">
        <ele>359.5</ele>
        <time>2023-06-11T09:52:49Z</time>
      </trkpt>
      <trkpt lat="43.73161" lon="5.96354">
        <ele>359.5</ele>
        <time>2023-06-11T09:52:50Z</time>
      </trkpt>
      <trkpt lat="43.73161" lon="5.96354">
        <ele>359.5</ele>
        <time>2023-06-11T09:52:51Z</time>
      </trkpt>
      <trkpt lat="43.73161" lon="5.96354">
        <ele>359.4</ele>
        <time>2023-06-11T09:52:52Z</time>
      </trkpt>
      <trkpt lat="43.73161" lon="5.96354">
        <ele>359.4</ele>
        <time>2023-06-11T09:52:53Z</time>
      </trkpt>
      <trkpt lat="43.73161" lon="5.96354">
        <ele>359.4</ele>
        <time>2023-06-11T09:52:54Z</time>
      </trkpt>
      <trkpt lat="43.73161" lon="5.96354">
        <ele>359.4</ele>
        <time>2023-06-11T09:52:55Z</time>
      </trkpt>
      <trkpt lat="43.73161" lon="5.96354">
        <ele>359.4</ele>
        <time>2023-06-11T09:52:56Z</time>
      </trkpt>
      <trkpt lat="43.7316" lon="5.96354">
        <ele>359.5</ele>
        <time>2023-06-11T09:52:57Z</time>
      </trkpt>
      <trkpt lat="43.7316" lon="5.96354">
        <ele>359.6</ele>
        <time>2023-06-11T09:52:58Z</time>
      </trkpt>
      <trkpt lat="43.7316" lon="5.96353">
        <ele>359.6</ele>
        <time>2023-06-11T09:52:59Z</time>
      </trkpt>
      <trkpt lat="43.7316" lon="5.96353">
        <ele>359.6</ele>
        <time>2023-06-11T09:53:00Z</time>
      </trkpt>
      <trkpt lat="43.7316" lon="5.96353">
        <ele>359.6</ele>
        <time>2023-06-11T09:53:01Z</time>
      </trkpt>
      <trkpt lat="43.7316" lon="5.96353">
        <ele>359.5</ele>
        <time>2023-06-11T09:53:02Z</time>
      </trkpt>
      <trkpt lat="43.73159" lon="5.96353">
        <ele>359.5</ele>
        <time>2023-06-11T09:53:03Z</time>
      </trkpt>
      <trkpt lat="43.73159" lon="5.96353">
        <ele>359.4</ele>
        <time>2023-06-11T09:53:04Z</time>
      </trkpt>
      <trkpt lat="43.73159" lon="5.96353">
        <ele>359.5</ele>
        <time>2023-06-11T09:53:05Z</time>
      </trkpt>
      <trkpt lat="43.73159" lon="5.96353">
        <ele>359.6</ele>
        <time>2023-06-11T09:53:06Z</time>
      </trkpt>
      <trkpt lat="43.73159" lon="5.96354">
        <ele>359.6</ele>
        <time>2023-06-11T09:53:07Z</time>
      </trkpt>
      <trkpt lat="43.73159" lon="5.96354">
        <ele>359.6</ele>
        <time>2023-06-11T09:53:08Z</time>
      </trkpt>
      <trkpt lat="43.73159" lon="5.96354">
        <ele>359.6</ele>
        <time>2023-06-11T09:53:09Z</time>
      </trkpt>
      <trkpt lat="43.73159" lon="5.96354">
        <ele>359.6</ele>
        <time>2023-06-11T09:53:10Z</time>
      </trkpt>
      <trkpt lat="43.73159" lon="5.96354">
        <ele>359.6</ele>
        <time>2023-06-11T09:53:11Z</time>
      </trkpt>
      <trkpt lat="43.73159" lon="5.96353">
        <ele>359.7</ele>
        <time>2023-06-11T09:53:12Z</time>
      </trkpt>
      <trkpt lat="43.73159" lon="5.96353">
        <ele>359.7</ele>
        <time>2023-06-11T09:53:13Z</time>
      </trkpt>
      <trkpt lat="43.73159" lon="5.96353">
        <ele>359.7</ele>
        <time>2023-06-11T09:53:14Z</time>
      </trkpt>
      <trkpt lat="43.73159" lon="5.96353">
        <ele>359.6</ele>
        <time>2023-06-11T09:53:15Z</time>
      </trkpt>
      <trkpt lat="43.73159" lon="5.96353">
        <ele>359.5</ele>
        <time>2023-06-11T09:53:16Z</time>
      </trkpt>
      <trkpt lat="43.73159" lon="5.96353">
        <ele>359.5</ele>
        <time>2023-06-11T09:53:17Z</time>
      </trkpt>
      <trkpt lat="43.73159" lon="5.96353">
        <ele>359.4</ele>
        <time>2023-06-11T09:53:18Z</time>
      </trkpt>
      <trkpt lat="43.73159" lon="5.96353">
        <ele>359.4</ele>
        <time>2023-06-11T09:53:19Z</time>
      </trkpt>
      <trkpt lat="43.73158" lon="5.96353">
        <ele>359.4</ele>
        <time>2023-06-11T09:53:20Z</time>
      </trkpt>
      <trkpt lat="43.73158" lon="5.96353">
        <ele>359.4</ele>
        <time>2023-06-11T09:53:21Z</time>
      </trkpt>
      <trkpt lat="43.73158" lon="5.96353">
        <ele>359.4</ele>
        <time>2023-06-11T09:53:22Z</time>
      </trkpt>
      <trkpt lat="43.73158" lon="5.96353">
        <ele>359.4</ele>
        <time>2023-06-11T09:53:23Z</time>
      </trkpt>
      <trkpt lat="43.73158" lon="5.96353">
        <ele>359.4</ele>
        <time>2023-06-11T09:53:24Z</time>
      </trkpt>
      <trkpt lat="43.73158" lon="5.96353">
        <ele>359.4</ele>
        <time>2023-06-11T09:53:25Z</time>
      </trkpt>
      <trkpt lat="43.73157" lon="5.96353">
        <ele>359.4</ele>
        <time>2023-06-11T09:53:26Z</time>
      </trkpt>
      <trkpt lat="43.73157" lon="5.96353">
        <ele>359.4</ele>
        <time>2023-06-11T09:53:27Z</time>
      </trkpt>
      <trkpt lat="43.73157" lon="5.96353">
        <ele>359.4</ele>
        <time>2023-06-11T09:53:28Z</time>
      </trkpt>
      <trkpt lat="43.73157" lon="5.96353">
        <ele>359.4</ele>
        <time>2023-06-11T09:53:29Z</time>
      </trkpt>
      <trkpt lat="43.73157" lon="5.96353">
        <ele>359.4</ele>
        <time>2023-06-11T09:53:30Z</time>
      </trkpt>
      <trkpt lat="43.73157" lon="5.96353">
        <ele>359.4</ele>
        <time>2023-06-11T09:53:31Z</time>
      </trkpt>
      <trkpt lat="43.73157" lon="5.96353">
        <ele>359.4</ele>
        <time>2023-06-11T09:53:32Z</time>
      </trkpt>
      <trkpt lat="43.73157" lon="5.96353">
        <ele>359.4</ele>
        <time>2023-06-11T09:53:33Z</time>
      </trkpt>
      <trkpt lat="43.73156" lon="5.96353">
        <ele>359.2</ele>
        <time>2023-06-11T09:53:34Z</time>
      </trkpt>
      <trkpt lat="43.73156" lon="5.96353">
        <ele>359.2</ele>
        <time>2023-06-11T09:53:35Z</time>
      </trkpt>
      <trkpt lat="43.73157" lon="5.96353">
        <ele>359.2</ele>
        <time>2023-06-11T09:53:36Z</time>
      </trkpt>
      <trkpt lat="43.73157" lon="5.96353">
        <ele>359.2</ele>
        <time>2023-06-11T09:53:37Z</time>
      </trkpt>
      <trkpt lat="43.73157" lon="5.96353">
        <ele>359.2</ele>
        <time>2023-06-11T09:53:38Z</time>
      </trkpt>
      <trkpt lat="43.73157" lon="5.96353">
        <ele>359.3</ele>
        <time>2023-06-11T09:53:39Z</time>
      </trkpt>
      <trkpt lat="43.73156" lon="5.96353">
        <ele>359.3</ele>
        <time>2023-06-11T09:53:40Z</time>
      </trkpt>
      <trkpt lat="43.73156" lon="5.96353">
        <ele>359.3</ele>
        <time>2023-06-11T09:53:41Z</time>
      </trkpt>
      <trkpt lat="43.73157" lon="5.96353">
        <ele>359.3</ele>
        <time>2023-06-11T09:53:42Z</time>
      </trkpt>
      <trkpt lat="43.73157" lon="5.96353">
        <ele>359.3</ele>
        <time>2023-06-11T09:53:43Z</time>
      </trkpt>
      <trkpt lat="43.73157" lon="5.96353">
        <ele>359.3</ele>
        <time>2023-06-11T09:53:44Z</time>
      </trkpt>
      <trkpt lat="43.73157" lon="5.96353">
        <ele>359.1</ele>
        <time>2023-06-11T09:53:45Z</time>
      </trkpt>
      <trkpt lat="43.73156" lon="5.96353">
        <ele>359.1</ele>
        <time>2023-06-11T09:53:46Z</time>
      </trkpt>
      <trkpt lat="43.73156" lon="5.96353">
        <ele>359</ele>
        <time>2023-06-11T09:53:47Z</time>
      </trkpt>
      <trkpt lat="43.73156" lon="5.96353">
        <ele>359</ele>
        <time>2023-06-11T09:53:48Z</time>
      </trkpt>
      <trkpt lat="43.73156" lon="5.96353">
        <ele>359</ele>
        <time>2023-06-11T09:53:49Z</time>
      </trkpt>
      <trkpt lat="43.73156" lon="5.96354">
        <ele>359.1</ele>
        <time>2023-06-11T09:53:50Z</time>
      </trkpt>
      <trkpt lat="43.73156" lon="5.96354">
        <ele>359.1</ele>
        <time>2023-06-11T09:53:51Z</time>
      </trkpt>
      <trkpt lat="43.73156" lon="5.96354">
        <ele>359.1</ele>
        <time>2023-06-11T09:53:52Z</time>
      </trkpt>
      <trkpt lat="43.73156" lon="5.96354">
        <ele>359.2</ele>
        <time>2023-06-11T09:53:53Z</time>
      </trkpt>
      <trkpt lat="43.73156" lon="5.96354">
        <ele>359.2</ele>
        <time>2023-06-11T09:53:54Z</time>
      </trkpt>
      <trkpt lat="43.73156" lon="5.96355">
        <ele>359.2</ele>
        <time>2023-06-11T09:53:55Z</time>
      </trkpt>
      <trkpt lat="43.73156" lon="5.96355">
        <ele>359.2</ele>
        <time>2023-06-11T09:53:56Z</time>
      </trkpt>
      <trkpt lat="43.73156" lon="5.96355">
        <ele>359.2</ele>
        <time>2023-06-11T09:53:57Z</time>
      </trkpt>
      <trkpt lat="43.73156" lon="5.96355">
        <ele>359.2</ele>
        <time>2023-06-11T09:53:58Z</time>
      </trkpt>
      <trkpt lat="43.73156" lon="5.96355">
        <ele>359.2</ele>
        <time>2023-06-11T09:53:59Z</time>
      </trkpt>
      <trkpt lat="43.73156" lon="5.96355">
        <ele>359.2</ele>
        <time>2023-06-11T09:54:00Z</time>
      </trkpt>
      <trkpt lat="43.73156" lon="5.96356">
        <ele>359.3</ele>
        <time>2023-06-11T09:54:01Z</time>
      </trkpt>
      <trkpt lat="43.73156" lon="5.96356">
        <ele>359.3</ele>
        <time>2023-06-11T09:54:02Z</time>
      </trkpt>
      <trkpt lat="43.73156" lon="5.96356">
        <ele>359.2</ele>
        <time>2023-06-11T09:54:03Z</time>
      </trkpt>
      <trkpt lat="43.73156" lon="5.96356">
        <ele>359.3</ele>
        <time>2023-06-11T09:54:04Z</time>
      </trkpt>
      <trkpt lat="43.73156" lon="5.96356">
        <ele>359.3</ele>
        <time>2023-06-11T09:54:05Z</time>
      </trkpt>
      <trkpt lat="43.73156" lon="5.96356">
        <ele>359.4</ele>
        <time>2023-06-11T09:54:06Z</time>
      </trkpt>
      <trkpt lat="43.73156" lon="5.96356">
        <ele>359.4</ele>
        <time>2023-06-11T09:54:07Z</time>
      </trkpt>
      <trkpt lat="43.73156" lon="5.96356">
        <ele>359.4</ele>
        <time>2023-06-11T09:54:08Z</time>
      </trkpt>
      <trkpt lat="43.73156" lon="5.96357">
        <ele>359.4</ele>
        <time>2023-06-11T09:54:09Z</time>
      </trkpt>
      <trkpt lat="43.73156" lon="5.96357">
        <ele>359.4</ele>
        <time>2023-06-11T09:54:10Z</time>
      </trkpt>
      <trkpt lat="43.73157" lon="5.96357">
        <ele>359.4</ele>
        <time>2023-06-11T09:54:11Z</time>
      </trkpt>
      <trkpt lat="43.73156" lon="5.96357">
        <ele>359.4</ele>
        <time>2023-06-11T09:54:12Z</time>
      </trkpt>
      <trkpt lat="43.73156" lon="5.96357">
        <ele>359.4</ele>
        <time>2023-06-11T09:54:13Z</time>
      </trkpt>
      <trkpt lat="43.73156" lon="5.96357">
        <ele>359.4</ele>
        <time>2023-06-11T09:54:14Z</time>
      </trkpt>
      <trkpt lat="43.73156" lon="5.96357">
        <ele>359.4</ele>
        <time>2023-06-11T09:54:15Z</time>
      </trkpt>
      <trkpt lat="43.73156" lon="5.96357">
        <ele>359.3</ele>
        <time>2023-06-11T09:54:16Z</time>
      </trkpt>
      <trkpt lat="43.73156" lon="5.96357">
        <ele>359.3</ele>
        <time>2023-06-11T09:54:17Z</time>
      </trkpt>
      <trkpt lat="43.73156" lon="5.96357">
        <ele>359.3</ele>
        <time>2023-06-11T09:54:18Z</time>
      </trkpt>
      <trkpt lat="43.73156" lon="5.96357">
        <ele>359.4</ele>
        <time>2023-06-11T09:54:19Z</time>
      </trkpt>
      <trkpt lat="43.73156" lon="5.96357">
        <ele>359.4</ele>
        <time>2023-06-11T09:54:20Z</time>
      </trkpt>
      <trkpt lat="43.73156" lon="5.96357">
        <ele>359.5</ele>
        <time>2023-06-11T09:54:21Z</time>
      </trkpt>
      <trkpt lat="43.73156" lon="5.96357">
        <ele>359.4</ele>
        <time>2023-06-11T09:54:22Z</time>
      </trkpt>
      <trkpt lat="43.73156" lon="5.96357">
        <ele>359.3</ele>
        <time>2023-06-11T09:54:23Z</time>
      </trkpt>
      <trkpt lat="43.73156" lon="5.96357">
        <ele>359.3</ele>
        <time>2023-06-11T09:54:24Z</time>
      </trkpt>
      <trkpt lat="43.73156" lon="5.96356">
        <ele>359.2</ele>
        <time>2023-06-11T09:54:25Z</time>
      </trkpt>
      <trkpt lat="43.73156" lon="5.96356">
        <ele>359.1</ele>
        <time>2023-06-11T09:54:26Z</time>
      </trkpt>
      <trkpt lat="43.73156" lon="5.96356">
        <ele>359.1</ele>
        <time>2023-06-11T09:54:27Z</time>
      </trkpt>
      <trkpt lat="43.73156" lon="5.96356">
        <ele>359.2</ele>
        <time>2023-06-11T09:54:28Z</time>
      </trkpt>
      <trkpt lat="43.73156" lon="5.96356">
        <ele>359.2</ele>
        <time>2023-06-11T09:54:29Z</time>
      </trkpt>
      <trkpt lat="43.73156" lon="5.96356">
        <ele>359.2</ele>
        <time>2023-06-11T09:54:30Z</time>
      </trkpt>
      <trkpt lat="43.73156" lon="5.96356">
        <ele>359.2</ele>
        <time>2023-06-11T09:54:31Z</time>
      </trkpt>
      <trkpt lat="43.73156" lon="5.96356">
        <ele>359.2</ele>
        <time>2023-06-11T09:54:32Z</time>
      </trkpt>
      <trkpt lat="43.73156" lon="5.96356">
        <ele>359.2</ele>
        <time>2023-06-11T09:54:33Z</time>
      </trkpt>
      <trkpt lat="43.73156" lon="5.96356">
        <ele>359.2</ele>
        <time>2023-06-11T09:54:34Z</time>
      </trkpt>
      <trkpt lat="43.73156" lon="5.96356">
        <ele>359.3</ele>
        <time>2023-06-11T09:54:35Z</time>
      </trkpt>
      <trkpt lat="43.73156" lon="5.96356">
        <ele>359.3</ele>
        <time>2023-06-11T09:54:36Z</time>
      </trkpt>
      <trkpt lat="43.73156" lon="5.96356">
        <ele>359.3</ele>
        <time>2023-06-11T09:54:37Z</time>
      </trkpt>
      <trkpt lat="43.73156" lon="5.96356">
        <ele>359.3</ele>
        <time>2023-06-11T09:54:38Z</time>
      </trkpt>
      <trkpt lat="43.73156" lon="5.96356">
        <ele>359.4</ele>
        <time>2023-06-11T09:54:39Z</time>
      </trkpt>
      <trkpt lat="43.73156" lon="5.96356">
        <ele>359.3</ele>
        <time>2023-06-11T09:54:40Z</time>
      </trkpt>
      <trkpt lat="43.73156" lon="5.96356">
        <ele>359.2</ele>
        <time>2023-06-11T09:54:41Z</time>
      </trkpt>
      <trkpt lat="43.73156" lon="5.96356">
        <ele>359.3</ele>
        <time>2023-06-11T09:54:42Z</time>
      </trkpt>
      <trkpt lat="43.73156" lon="5.96356">
        <ele>359.3</ele>
        <time>2023-06-11T09:54:43Z</time>
      </trkpt>
      <trkpt lat="43.73156" lon="5.96356">
        <ele>359.3</ele>
        <time>2023-06-11T09:54:44Z</time>
      </trkpt>
      <trkpt lat="43.73157" lon="5.96356">
        <ele>359.3</ele>
        <time>2023-06-11T09:54:45Z</time>
      </trkpt>
      <trkpt lat="43.73157" lon="5.96356">
        <ele>359.3</ele>
        <time>2023-06-11T09:54:46Z</time>
      </trkpt>
      <trkpt lat="43.73157" lon="5.96356">
        <ele>359.3</ele>
        <time>2023-06-11T09:54:47Z</time>
      </trkpt>
      <trkpt lat="43.73157" lon="5.96356">
        <ele>359.3</ele>
        <time>2023-06-11T09:54:48Z</time>
      </trkpt>
      <trkpt lat="43.73157" lon="5.96356">
        <ele>359.3</ele>
        <time>2023-06-11T09:54:49Z</time>
      </trkpt>
      <trkpt lat="43.73157" lon="5.96356">
        <ele>359.3</ele>
        <time>2023-06-11T09:54:50Z</time>
      </trkpt>
      <trkpt lat="43.73157" lon="5.96357">
        <ele>359.2</ele>
        <time>2023-06-11T09:54:51Z</time>
      </trkpt>
      <trkpt lat="43.73157" lon="5.96357">
        <ele>359.1</ele>
        <time>2023-06-11T09:54:52Z</time>
      </trkpt>
      <trkpt lat="43.73157" lon="5.96355">
        <ele>359.3</ele>
        <time>2023-06-11T09:54:53Z</time>
      </trkpt>
      <trkpt lat="43.73157" lon="5.96355">
        <ele>359.3</ele>
        <time>2023-06-11T09:54:54Z</time>
      </trkpt>
      <trkpt lat="43.73158" lon="5.96355">
        <ele>359.2</ele>
        <time>2023-06-11T09:54:55Z</time>
      </trkpt>
      <trkpt lat="43.73158" lon="5.96356">
        <ele>359.2</ele>
        <time>2023-06-11T09:54:56Z</time>
      </trkpt>
      <trkpt lat="43.73157" lon="5.96355">
        <ele>359.2</ele>
        <time>2023-06-11T09:54:57Z</time>
      </trkpt>
      <trkpt lat="43.73157" lon="5.96355">
        <ele>359.2</ele>
        <time>2023-06-11T09:54:58Z</time>
      </trkpt>
      <trkpt lat="43.73157" lon="5.96355">
        <ele>359.1</ele>
        <time>2023-06-11T09:54:59Z</time>
      </trkpt>
      <trkpt lat="43.73158" lon="5.96355">
        <ele>359.1</ele>
        <time>2023-06-11T09:55:00Z</time>
      </trkpt>
      <trkpt lat="43.73158" lon="5.96355">
        <ele>359</ele>
        <time>2023-06-11T09:55:01Z</time>
      </trkpt>
      <trkpt lat="43.73158" lon="5.96355">
        <ele>359.1</ele>
        <time>2023-06-11T09:55:02Z</time>
      </trkpt>
      <trkpt lat="43.73159" lon="5.96355">
        <ele>359.1</ele>
        <time>2023-06-11T09:55:03Z</time>
      </trkpt>
      <trkpt lat="43.73159" lon="5.96354">
        <ele>359.1</ele>
        <time>2023-06-11T09:55:04Z</time>
      </trkpt>
      <trkpt lat="43.73159" lon="5.96355">
        <ele>359.1</ele>
        <time>2023-06-11T09:55:05Z</time>
      </trkpt>
      <trkpt lat="43.7316" lon="5.96355">
        <ele>359</ele>
        <time>2023-06-11T09:55:06Z</time>
      </trkpt>
      <trkpt lat="43.7316" lon="5.96355">
        <ele>359.1</ele>
        <time>2023-06-11T09:55:07Z</time>
      </trkpt>
      <trkpt lat="43.7316" lon="5.96355">
        <ele>359.1</ele>
        <time>2023-06-11T09:55:08Z</time>
      </trkpt>
      <trkpt lat="43.73161" lon="5.96355">
        <ele>359.2</ele>
        <time>2023-06-11T09:55:09Z</time>
      </trkpt>
      <trkpt lat="43.73161" lon="5.96355">
        <ele>359.1</ele>
        <time>2023-06-11T09:55:10Z</time>
      </trkpt>
      <trkpt lat="43.73162" lon="5.96355">
        <ele>359</ele>
        <time>2023-06-11T09:55:11Z</time>
      </trkpt>
      <trkpt lat="43.73162" lon="5.96355">
        <ele>359</ele>
        <time>2023-06-11T09:55:12Z</time>
      </trkpt>
      <trkpt lat="43.73162" lon="5.96355">
        <ele>358.9</ele>
        <time>2023-06-11T09:55:13Z</time>
      </trkpt>
      <trkpt lat="43.73162" lon="5.96355">
        <ele>358.9</ele>
        <time>2023-06-11T09:55:14Z</time>
      </trkpt>
      <trkpt lat="43.73162" lon="5.96355">
        <ele>358.9</ele>
        <time>2023-06-11T09:55:15Z</time>
      </trkpt>
      <trkpt lat="43.73162" lon="5.96355">
        <ele>358.8</ele>
        <time>2023-06-11T09:55:16Z</time>
      </trkpt>
      <trkpt lat="43.73162" lon="5.96355">
        <ele>358.8</ele>
        <time>2023-06-11T09:55:17Z</time>
      </trkpt>
      <trkpt lat="43.73163" lon="5.96355">
        <ele>358.8</ele>
        <time>2023-06-11T09:55:18Z</time>
      </trkpt>
      <trkpt lat="43.73163" lon="5.96355">
        <ele>358.8</ele>
        <time>2023-06-11T09:55:19Z</time>
      </trkpt>
      <trkpt lat="43.73163" lon="5.96355">
        <ele>358.8</ele>
        <time>2023-06-11T09:55:20Z</time>
      </trkpt>
      <trkpt lat="43.73164" lon="5.96355">
        <ele>358.8</ele>
        <time>2023-06-11T09:55:21Z</time>
      </trkpt>
      <trkpt lat="43.73164" lon="5.96355">
        <ele>358.9</ele>
        <time>2023-06-11T09:55:22Z</time>
      </trkpt>
      <trkpt lat="43.73164" lon="5.96355">
        <ele>358.9</ele>
        <time>2023-06-11T09:55:23Z</time>
      </trkpt>
      <trkpt lat="43.73164" lon="5.96355">
        <ele>358.9</ele>
        <time>2023-06-11T09:55:24Z</time>
      </trkpt>
      <trkpt lat="43.73164" lon="5.96355">
        <ele>358.8</ele>
        <time>2023-06-11T09:55:25Z</time>
      </trkpt>
      <trkpt lat="43.73164" lon="5.96355">
        <ele>358.8</ele>
        <time>2023-06-11T09:55:26Z</time>
      </trkpt>
      <trkpt lat="43.73164" lon="5.96355">
        <ele>358.8</ele>
        <time>2023-06-11T09:55:27Z</time>
      </trkpt>
      <trkpt lat="43.73164" lon="5.96356">
        <ele>358.8</ele>
        <time>2023-06-11T09:55:28Z</time>
      </trkpt>
      <trkpt lat="43.73164" lon="5.96356">
        <ele>358.8</ele>
        <time>2023-06-11T09:55:29Z</time>
      </trkpt>
      <trkpt lat="43.73164" lon="5.96356">
        <ele>358.9</ele>
        <time>2023-06-11T09:55:30Z</time>
      </trkpt>
      <trkpt lat="43.73163" lon="5.96356">
        <ele>358.9</ele>
        <time>2023-06-11T09:55:31Z</time>
      </trkpt>
      <trkpt lat="43.73163" lon="5.96356">
        <ele>358.9</ele>
        <time>2023-06-11T09:55:32Z</time>
      </trkpt>
      <trkpt lat="43.73163" lon="5.96356">
        <ele>359</ele>
        <time>2023-06-11T09:55:33Z</time>
      </trkpt>
      <trkpt lat="43.73162" lon="5.96356">
        <ele>359</ele>
        <time>2023-06-11T09:55:34Z</time>
      </trkpt>
      <trkpt lat="43.73162" lon="5.96357">
        <ele>359.1</ele>
        <time>2023-06-11T09:55:35Z</time>
      </trkpt>
      <trkpt lat="43.73162" lon="5.96357">
        <ele>359</ele>
        <time>2023-06-11T09:55:36Z</time>
      </trkpt>
      <trkpt lat="43.73163" lon="5.96358">
        <ele>359</ele>
        <time>2023-06-11T09:55:37Z</time>
      </trkpt>
      <trkpt lat="43.73163" lon="5.96359">
        <ele>359</ele>
        <time>2023-06-11T09:55:38Z</time>
      </trkpt>
      <trkpt lat="43.73162" lon="5.96359">
        <ele>359</ele>
        <time>2023-06-11T09:55:39Z</time>
      </trkpt>
      <trkpt lat="43.73162" lon="5.9636">
        <ele>358.9</ele>
        <time>2023-06-11T09:55:40Z</time>
      </trkpt>
      <trkpt lat="43.73162" lon="5.9636">
        <ele>358.9</ele>
        <time>2023-06-11T09:55:41Z</time>
      </trkpt>
      <trkpt lat="43.73162" lon="5.96361">
        <ele>358.9</ele>
        <time>2023-06-11T09:55:42Z</time>
      </trkpt>
      <trkpt lat="43.73162" lon="5.9636">
        <ele>358.9</ele>
        <time>2023-06-11T09:55:43Z</time>
      </trkpt>
      <trkpt lat="43.73162" lon="5.9636">
        <ele>358.9</ele>
        <time>2023-06-11T09:55:44Z</time>
      </trkpt>
      <trkpt lat="43.73162" lon="5.9636">
        <ele>358.9</ele>
        <time>2023-06-11T09:55:45Z</time>
      </trkpt>
      <trkpt lat="43.73162" lon="5.9636">
        <ele>358.9</ele>
        <time>2023-06-11T09:55:46Z</time>
      </trkpt>
      <trkpt lat="43.73162" lon="5.9636">
        <ele>358.8</ele>
        <time>2023-06-11T09:55:47Z</time>
      </trkpt>
      <trkpt lat="43.73163" lon="5.9636">
        <ele>358.9</ele>
        <time>2023-06-11T09:55:48Z</time>
      </trkpt>
      <trkpt lat="43.73163" lon="5.9636">
        <ele>358.9</ele>
        <time>2023-06-11T09:55:49Z</time>
      </trkpt>
      <trkpt lat="43.73163" lon="5.9636">
        <ele>358.9</ele>
        <time>2023-06-11T09:55:50Z</time>
      </trkpt>
      <trkpt lat="43.73163" lon="5.9636">
        <ele>358.9</ele>
        <time>2023-06-11T09:55:51Z</time>
      </trkpt>
      <trkpt lat="43.73162" lon="5.9636">
        <ele>358.9</ele>
        <time>2023-06-11T09:55:52Z</time>
      </trkpt>
      <trkpt lat="43.73163" lon="5.9636">
        <ele>358.9</ele>
        <time>2023-06-11T09:55:53Z</time>
      </trkpt>
      <trkpt lat="43.73163" lon="5.9636">
        <ele>358.9</ele>
        <time>2023-06-11T09:55:54Z</time>
      </trkpt>
      <trkpt lat="43.73163" lon="5.9636">
        <ele>359</ele>
        <time>2023-06-11T09:55:55Z</time>
      </trkpt>
      <trkpt lat="43.73162" lon="5.96361">
        <ele>359</ele>
        <time>2023-06-11T09:55:56Z</time>
      </trkpt>
      <trkpt lat="43.73162" lon="5.96361">
        <ele>359</ele>
        <time>2023-06-11T09:55:57Z</time>
      </trkpt>
      <trkpt lat="43.73162" lon="5.96361">
        <ele>359</ele>
        <time>2023-06-11T09:55:58Z</time>
      </trkpt>
      <trkpt lat="43.73162" lon="5.96361">
        <ele>359.1</ele>
        <time>2023-06-11T09:55:59Z</time>
      </trkpt>
      <trkpt lat="43.73162" lon="5.9636">
        <ele>359</ele>
        <time>2023-06-11T09:56:00Z</time>
      </trkpt>
      <trkpt lat="43.73162" lon="5.9636">
        <ele>358.9</ele>
        <time>2023-06-11T09:56:01Z</time>
      </trkpt>
      <trkpt lat="43.73162" lon="5.9636">
        <ele>358.9</ele>
        <time>2023-06-11T09:56:02Z</time>
      </trkpt>
      <trkpt lat="43.73162" lon="5.9636">
        <ele>358.8</ele>
        <time>2023-06-11T09:56:03Z</time>
      </trkpt>
      <trkpt lat="43.73162" lon="5.9636">
        <ele>358.8</ele>
        <time>2023-06-11T09:56:04Z</time>
      </trkpt>
      <trkpt lat="43.73162" lon="5.96359">
        <ele>358.9</ele>
        <time>2023-06-11T09:56:05Z</time>
      </trkpt>
      <trkpt lat="43.73161" lon="5.96359">
        <ele>359</ele>
        <time>2023-06-11T09:56:06Z</time>
      </trkpt>
      <trkpt lat="43.73161" lon="5.96359">
        <ele>359</ele>
        <time>2023-06-11T09:56:07Z</time>
      </trkpt>
      <trkpt lat="43.73161" lon="5.96359">
        <ele>359</ele>
        <time>2023-06-11T09:56:08Z</time>
      </trkpt>
      <trkpt lat="43.73161" lon="5.96359">
        <ele>359</ele>
        <time>2023-06-11T09:56:09Z</time>
      </trkpt>
      <trkpt lat="43.73161" lon="5.96359">
        <ele>359</ele>
        <time>2023-06-11T09:56:10Z</time>
      </trkpt>
      <trkpt lat="43.73161" lon="5.96358">
        <ele>359</ele>
        <time>2023-06-11T09:56:11Z</time>
      </trkpt>
      <trkpt lat="43.73161" lon="5.96358">
        <ele>359.1</ele>
        <time>2023-06-11T09:56:12Z</time>
      </trkpt>
      <trkpt lat="43.73162" lon="5.96358">
        <ele>359.1</ele>
        <time>2023-06-11T09:56:13Z</time>
      </trkpt>
      <trkpt lat="43.73161" lon="5.96358">
        <ele>359.1</ele>
        <time>2023-06-11T09:56:14Z</time>
      </trkpt>
      <trkpt lat="43.73161" lon="5.96358">
        <ele>359</ele>
        <time>2023-06-11T09:56:15Z</time>
      </trkpt>
      <trkpt lat="43.73161" lon="5.96358">
        <ele>359</ele>
        <time>2023-06-11T09:56:16Z</time>
      </trkpt>
      <trkpt lat="43.73161" lon="5.96357">
        <ele>359</ele>
        <time>2023-06-11T09:56:17Z</time>
      </trkpt>
      <trkpt lat="43.73162" lon="5.96357">
        <ele>358.9</ele>
        <time>2023-06-11T09:56:18Z</time>
      </trkpt>
      <trkpt lat="43.73162" lon="5.96357">
        <ele>358.9</ele>
        <time>2023-06-11T09:56:19Z</time>
      </trkpt>
      <trkpt lat="43.73162" lon="5.96357">
        <ele>358.9</ele>
        <time>2023-06-11T09:56:20Z</time>
      </trkpt>
      <trkpt lat="43.73162" lon="5.96357">
        <ele>359</ele>
        <time>2023-06-11T09:56:21Z</time>
      </trkpt>
      <trkpt lat="43.73161" lon="5.96357">
        <ele>359</ele>
        <time>2023-06-11T09:56:22Z</time>
      </trkpt>
      <trkpt lat="43.73161" lon="5.96357">
        <ele>359</ele>
        <time>2023-06-11T09:56:23Z</time>
      </trkpt>
      <trkpt lat="43.73161" lon="5.96357">
        <ele>359</ele>
        <time>2023-06-11T09:56:24Z</time>
      </trkpt>
      <trkpt lat="43.73161" lon="5.96357">
        <ele>359.1</ele>
        <time>2023-06-11T09:56:25Z</time>
      </trkpt>
      <trkpt lat="43.73161" lon="5.96357">
        <ele>359.1</ele>
        <time>2023-06-11T09:56:26Z</time>
      </trkpt>
      <trkpt lat="43.73161" lon="5.96358">
        <ele>359.1</ele>
        <time>2023-06-11T09:56:27Z</time>
      </trkpt>
      <trkpt lat="43.73161" lon="5.96358">
        <ele>359.1</ele>
        <time>2023-06-11T09:56:28Z</time>
      </trkpt>
      <trkpt lat="43.73161" lon="5.96358">
        <ele>359.1</ele>
        <time>2023-06-11T09:56:29Z</time>
      </trkpt>
      <trkpt lat="43.73161" lon="5.96358">
        <ele>359.1</ele>
        <time>2023-06-11T09:56:30Z</time>
      </trkpt>
      <trkpt lat="43.73161" lon="5.96358">
        <ele>359.1</ele>
        <time>2023-06-11T09:56:31Z</time>
      </trkpt>
      <trkpt lat="43.7316" lon="5.96357">
        <ele>359</ele>
        <time>2023-06-11T09:56:32Z</time>
      </trkpt>
      <trkpt lat="43.7316" lon="5.96357">
        <ele>359</ele>
        <time>2023-06-11T09:56:33Z</time>
      </trkpt>
      <trkpt lat="43.7316" lon="5.96357">
        <ele>358.9</ele>
        <time>2023-06-11T09:56:34Z</time>
      </trkpt>
      <trkpt lat="43.7316" lon="5.96357">
        <ele>358.9</ele>
        <time>2023-06-11T09:56:35Z</time>
      </trkpt>
      <trkpt lat="43.7316" lon="5.96357">
        <ele>358.9</ele>
        <time>2023-06-11T09:56:36Z</time>
      </trkpt>
      <trkpt lat="43.7316" lon="5.96356">
        <ele>358.9</ele>
        <time>2023-06-11T09:56:37Z</time>
      </trkpt>
      <trkpt lat="43.73161" lon="5.96357">
        <ele>358.9</ele>
        <time>2023-06-11T09:56:38Z</time>
      </trkpt>
      <trkpt lat="43.73161" lon="5.96357">
        <ele>358.9</ele>
        <time>2023-06-11T09:56:39Z</time>
      </trkpt>
      <trkpt lat="43.7316" lon="5.96357">
        <ele>359</ele>
        <time>2023-06-11T09:56:40Z</time>
      </trkpt>
      <trkpt lat="43.73159" lon="5.96357">
        <ele>359</ele>
        <time>2023-06-11T09:56:41Z</time>
      </trkpt>
      <trkpt lat="43.7316" lon="5.96357">
        <ele>359</ele>
        <time>2023-06-11T09:56:42Z</time>
      </trkpt>
      <trkpt lat="43.73159" lon="5.96358">
        <ele>359</ele>
        <time>2023-06-11T09:56:43Z</time>
      </trkpt>
      <trkpt lat="43.7316" lon="5.96358">
        <ele>359</ele>
        <time>2023-06-11T09:56:44Z</time>
      </trkpt>
      <trkpt lat="43.7316" lon="5.96359">
        <ele>359</ele>
        <time>2023-06-11T09:56:45Z</time>
      </trkpt>
      <trkpt lat="43.7316" lon="5.96359">
        <ele>358.9</ele>
        <time>2023-06-11T09:56:46Z</time>
      </trkpt>
      <trkpt lat="43.7316" lon="5.96359">
        <ele>358.8</ele>
        <time>2023-06-11T09:56:47Z</time>
      </trkpt>
      <trkpt lat="43.7316" lon="5.96359">
        <ele>358.8</ele>
        <time>2023-06-11T09:56:48Z</time>
      </trkpt>
      <trkpt lat="43.73161" lon="5.96359">
        <ele>358.8</ele>
        <time>2023-06-11T09:56:49Z</time>
      </trkpt>
      <trkpt lat="43.73161" lon="5.96359">
        <ele>358.7</ele>
        <time>2023-06-11T09:56:50Z</time>
      </trkpt>
      <trkpt lat="43.73161" lon="5.96359">
        <ele>358.7</ele>
        <time>2023-06-11T09:56:51Z</time>
      </trkpt>
      <trkpt lat="43.73161" lon="5.96359">
        <ele>358.7</ele>
        <time>2023-06-11T09:56:52Z</time>
      </trkpt>
      <trkpt lat="43.73161" lon="5.96358">
        <ele>358.7</ele>
        <time>2023-06-11T09:56:53Z</time>
      </trkpt>
      <trkpt lat="43.73162" lon="5.96358">
        <ele>358.7</ele>
        <time>2023-06-11T09:56:54Z</time>
      </trkpt>
      <trkpt lat="43.73162" lon="5.96358">
        <ele>358.6</ele>
        <time>2023-06-11T09:56:55Z</time>
      </trkpt>
      <trkpt lat="43.73162" lon="5.96358">
        <ele>358.6</ele>
        <time>2023-06-11T09:56:56Z</time>
      </trkpt>
      <trkpt lat="43.73163" lon="5.96358">
        <ele>358.7</ele>
        <time>2023-06-11T09:56:57Z</time>
      </trkpt>
      <trkpt lat="43.73163" lon="5.96358">
        <ele>358.7</ele>
        <time>2023-06-11T09:56:58Z</time>
      </trkpt>
      <trkpt lat="43.73163" lon="5.96358">
        <ele>358.7</ele>
        <time>2023-06-11T09:56:59Z</time>
      </trkpt>
      <trkpt lat="43.73163" lon="5.96358">
        <ele>358.7</ele>
        <time>2023-06-11T09:57:00Z</time>
      </trkpt>
      <trkpt lat="43.73163" lon="5.96358">
        <ele>358.7</ele>
        <time>2023-06-11T09:57:01Z</time>
      </trkpt>
      <trkpt lat="43.73163" lon="5.96358">
        <ele>358.7</ele>
        <time>2023-06-11T09:57:02Z</time>
      </trkpt>
      <trkpt lat="43.73164" lon="5.96358">
        <ele>358.6</ele>
        <time>2023-06-11T09:57:03Z</time>
      </trkpt>
      <trkpt lat="43.73164" lon="5.96358">
        <ele>358.6</ele>
        <time>2023-06-11T09:57:04Z</time>
      </trkpt>
      <trkpt lat="43.73164" lon="5.96358">
        <ele>358.6</ele>
        <time>2023-06-11T09:57:05Z</time>
      </trkpt>
      <trkpt lat="43.73164" lon="5.96358">
        <ele>358.7</ele>
        <time>2023-06-11T09:57:06Z</time>
      </trkpt>
      <trkpt lat="43.73164" lon="5.96358">
        <ele>358.7</ele>
        <time>2023-06-11T09:57:07Z</time>
      </trkpt>
      <trkpt lat="43.73164" lon="5.96358">
        <ele>358.7</ele>
        <time>2023-06-11T09:57:08Z</time>
      </trkpt>
      <trkpt lat="43.73164" lon="5.96357">
        <ele>358.6</ele>
        <time>2023-06-11T09:57:09Z</time>
      </trkpt>
      <trkpt lat="43.73164" lon="5.96357">
        <ele>358.6</ele>
        <time>2023-06-11T09:57:10Z</time>
      </trkpt>
      <trkpt lat="43.73164" lon="5.96357">
        <ele>358.6</ele>
        <time>2023-06-11T09:57:11Z</time>
      </trkpt>
      <trkpt lat="43.73164" lon="5.96357">
        <ele>358.5</ele>
        <time>2023-06-11T09:57:12Z</time>
      </trkpt>
      <trkpt lat="43.73164" lon="5.96357">
        <ele>358.4</ele>
        <time>2023-06-11T09:57:13Z</time>
      </trkpt>
      <trkpt lat="43.73164" lon="5.96357">
        <ele>358.4</ele>
        <time>2023-06-11T09:57:14Z</time>
      </trkpt>
      <trkpt lat="43.73163" lon="5.96358">
        <ele>358.4</ele>
        <time>2023-06-11T09:57:15Z</time>
      </trkpt>
      <trkpt lat="43.73163" lon="5.96358">
        <ele>358.5</ele>
        <time>2023-06-11T09:57:16Z</time>
      </trkpt>
      <trkpt lat="43.73163" lon="5.96358">
        <ele>358.5</ele>
        <time>2023-06-11T09:57:17Z</time>
      </trkpt>
      <trkpt lat="43.73163" lon="5.96358">
        <ele>358.6</ele>
        <time>2023-06-11T09:57:18Z</time>
      </trkpt>
      <trkpt lat="43.73163" lon="5.96358">
        <ele>358.6</ele>
        <time>2023-06-11T09:57:19Z</time>
      </trkpt>
      <trkpt lat="43.73163" lon="5.96358">
        <ele>358.6</ele>
        <time>2023-06-11T09:57:20Z</time>
      </trkpt>
      <trkpt lat="43.73163" lon="5.96358">
        <ele>358.7</ele>
        <time>2023-06-11T09:57:21Z</time>
      </trkpt>
      <trkpt lat="43.73163" lon="5.96358">
        <ele>358.7</ele>
        <time>2023-06-11T09:57:22Z</time>
      </trkpt>
      <trkpt lat="43.73163" lon="5.96358">
        <ele>358.7</ele>
        <time>2023-06-11T09:57:23Z</time>
      </trkpt>
      <trkpt lat="43.73163" lon="5.96358">
        <ele>358.7</ele>
        <time>2023-06-11T09:57:24Z</time>
      </trkpt>
      <trkpt lat="43.73163" lon="5.96358">
        <ele>358.7</ele>
        <time>2023-06-11T09:57:25Z</time>
      </trkpt>
      <trkpt lat="43.73163" lon="5.96358">
        <ele>358.7</ele>
        <time>2023-06-11T09:57:26Z</time>
      </trkpt>
      <trkpt lat="43.73164" lon="5.96357">
        <ele>358.6</ele>
        <time>2023-06-11T09:57:27Z</time>
      </trkpt>
      <trkpt lat="43.73164" lon="5.96357">
        <ele>358.5</ele>
        <time>2023-06-11T09:57:28Z</time>
      </trkpt>
      <trkpt lat="43.73164" lon="5.96357">
        <ele>358.5</ele>
        <time>2023-06-11T09:57:29Z</time>
      </trkpt>
      <trkpt lat="43.73164" lon="5.96357">
        <ele>358.5</ele>
        <time>2023-06-11T09:57:30Z</time>
      </trkpt>
      <trkpt lat="43.73164" lon="5.96357">
        <ele>358.4</ele>
        <time>2023-06-11T09:57:31Z</time>
      </trkpt>
      <trkpt lat="43.73164" lon="5.96357">
        <ele>358.4</ele>
        <time>2023-06-11T09:57:32Z</time>
      </trkpt>
      <trkpt lat="43.73163" lon="5.96357">
        <ele>358.4</ele>
        <time>2023-06-11T09:57:33Z</time>
      </trkpt>
      <trkpt lat="43.73164" lon="5.96357">
        <ele>358.4</ele>
        <time>2023-06-11T09:57:34Z</time>
      </trkpt>
      <trkpt lat="43.73163" lon="5.96357">
        <ele>358.4</ele>
        <time>2023-06-11T09:57:35Z</time>
      </trkpt>
      <trkpt lat="43.73164" lon="5.96357">
        <ele>358.4</ele>
        <time>2023-06-11T09:57:36Z</time>
      </trkpt>
      <trkpt lat="43.73163" lon="5.96357">
        <ele>358.4</ele>
        <time>2023-06-11T09:57:37Z</time>
      </trkpt>
      <trkpt lat="43.73163" lon="5.96357">
        <ele>358.4</ele>
        <time>2023-06-11T09:57:38Z</time>
      </trkpt>
      <trkpt lat="43.73163" lon="5.96357">
        <ele>358.4</ele>
        <time>2023-06-11T09:57:39Z</time>
      </trkpt>
      <trkpt lat="43.73163" lon="5.96357">
        <ele>358.4</ele>
        <time>2023-06-11T09:57:40Z</time>
      </trkpt>
      <trkpt lat="43.73162" lon="5.96358">
        <ele>358.4</ele>
        <time>2023-06-11T09:57:41Z</time>
      </trkpt>
      <trkpt lat="43.73162" lon="5.96358">
        <ele>358.4</ele>
        <time>2023-06-11T09:57:42Z</time>
      </trkpt>
      <trkpt lat="43.73162" lon="5.96358">
        <ele>358.3</ele>
        <time>2023-06-11T09:57:43Z</time>
      </trkpt>
      <trkpt lat="43.73162" lon="5.96358">
        <ele>358.3</ele>
        <time>2023-06-11T09:57:44Z</time>
      </trkpt>
      <trkpt lat="43.73162" lon="5.96358">
        <ele>358.4</ele>
        <time>2023-06-11T09:57:45Z</time>
      </trkpt>
      <trkpt lat="43.73162" lon="5.96358">
        <ele>358.4</ele>
        <time>2023-06-11T09:57:46Z</time>
      </trkpt>
      <trkpt lat="43.73162" lon="5.96358">
        <ele>358.4</ele>
        <time>2023-06-11T09:57:47Z</time>
      </trkpt>
      <trkpt lat="43.73162" lon="5.96358">
        <ele>358.4</ele>
        <time>2023-06-11T09:57:48Z</time>
      </trkpt>
      <trkpt lat="43.73162" lon="5.96358">
        <ele>358.4</ele>
        <time>2023-06-11T09:57:49Z</time>
      </trkpt>
      <trkpt lat="43.73163" lon="5.96358">
        <ele>358.5</ele>
        <time>2023-06-11T09:57:50Z</time>
      </trkpt>
      <trkpt lat="43.73163" lon="5.96358">
        <ele>358.5</ele>
        <time>2023-06-11T09:57:51Z</time>
      </trkpt>
      <trkpt lat="43.73164" lon="5.96358">
        <ele>358.6</ele>
        <time>2023-06-11T09:57:52Z</time>
      </trkpt>
      <trkpt lat="43.73164" lon="5.96359">
        <ele>358.5</ele>
        <time>2023-06-11T09:57:53Z</time>
      </trkpt>
      <trkpt lat="43.73164" lon="5.96359">
        <ele>358.6</ele>
        <time>2023-06-11T09:57:54Z</time>
      </trkpt>
      <trkpt lat="43.73164" lon="5.96359">
        <ele>358.6</ele>
        <time>2023-06-11T09:57:55Z</time>
      </trkpt>
      <trkpt lat="43.73164" lon="5.96359">
        <ele>358.5</ele>
        <time>2023-06-11T09:57:56Z</time>
      </trkpt>
      <trkpt lat="43.73164" lon="5.96359">
        <ele>358.5</ele>
        <time>2023-06-11T09:57:57Z</time>
      </trkpt>
      <trkpt lat="43.73165" lon="5.96359">
        <ele>358.5</ele>
        <time>2023-06-11T09:57:58Z</time>
      </trkpt>
      <trkpt lat="43.73165" lon="5.96359">
        <ele>358.5</ele>
        <time>2023-06-11T09:57:59Z</time>
      </trkpt>
      <trkpt lat="43.73165" lon="5.96359">
        <ele>358.5</ele>
        <time>2023-06-11T09:58:00Z</time>
      </trkpt>
      <trkpt lat="43.73165" lon="5.96359">
        <ele>358.5</ele>
        <time>2023-06-11T09:58:01Z</time>
      </trkpt>
      <trkpt lat="43.73165" lon="5.9636">
        <ele>358.5</ele>
        <time>2023-06-11T09:58:02Z</time>
      </trkpt>
      <trkpt lat="43.73165" lon="5.96359">
        <ele>358.5</ele>
        <time>2023-06-11T09:58:03Z</time>
      </trkpt>
      <trkpt lat="43.73165" lon="5.9636">
        <ele>358.5</ele>
        <time>2023-06-11T09:58:04Z</time>
      </trkpt>
      <trkpt lat="43.73166" lon="5.9636">
        <ele>358.5</ele>
        <time>2023-06-11T09:58:05Z</time>
      </trkpt>
      <trkpt lat="43.73166" lon="5.9636">
        <ele>358.5</ele>
        <time>2023-06-11T09:58:06Z</time>
      </trkpt>
      <trkpt lat="43.73166" lon="5.9636">
        <ele>358.5</ele>
        <time>2023-06-11T09:58:07Z</time>
      </trkpt>
      <trkpt lat="43.73166" lon="5.9636">
        <ele>358.5</ele>
        <time>2023-06-11T09:58:08Z</time>
      </trkpt>
      <trkpt lat="43.73167" lon="5.96361">
        <ele>358.5</ele>
        <time>2023-06-11T09:58:09Z</time>
      </trkpt>
      <trkpt lat="43.73167" lon="5.9636">
        <ele>358.5</ele>
        <time>2023-06-11T09:58:10Z</time>
      </trkpt>
      <trkpt lat="43.73167" lon="5.96361">
        <ele>358.5</ele>
        <time>2023-06-11T09:58:11Z</time>
      </trkpt>
      <trkpt lat="43.73167" lon="5.96361">
        <ele>358.5</ele>
        <time>2023-06-11T09:58:12Z</time>
      </trkpt>
      <trkpt lat="43.73168" lon="5.96361">
        <ele>358.6</ele>
        <time>2023-06-11T09:58:13Z</time>
      </trkpt>
      <trkpt lat="43.73168" lon="5.96361">
        <ele>358.6</ele>
        <time>2023-06-11T09:58:14Z</time>
      </trkpt>
      <trkpt lat="43.73168" lon="5.96362">
        <ele>358.6</ele>
        <time>2023-06-11T09:58:15Z</time>
      </trkpt>
      <trkpt lat="43.73169" lon="5.96362">
        <ele>358.6</ele>
        <time>2023-06-11T09:58:16Z</time>
      </trkpt>
      <trkpt lat="43.73169" lon="5.96362">
        <ele>358.6</ele>
        <time>2023-06-11T09:58:17Z</time>
      </trkpt>
      <trkpt lat="43.73169" lon="5.96363">
        <ele>358.6</ele>
        <time>2023-06-11T09:58:18Z</time>
      </trkpt>
      <trkpt lat="43.7317" lon="5.96363">
        <ele>358.7</ele>
        <time>2023-06-11T09:58:19Z</time>
      </trkpt>
      <trkpt lat="43.7317" lon="5.96363">
        <ele>358.7</ele>
        <time>2023-06-11T09:58:20Z</time>
      </trkpt>
      <trkpt lat="43.7317" lon="5.96363">
        <ele>358.7</ele>
        <time>2023-06-11T09:58:21Z</time>
      </trkpt>
      <trkpt lat="43.7317" lon="5.96363">
        <ele>358.6</ele>
        <time>2023-06-11T09:58:22Z</time>
      </trkpt>
      <trkpt lat="43.7317" lon="5.96363">
        <ele>358.5</ele>
        <time>2023-06-11T09:58:23Z</time>
      </trkpt>
      <trkpt lat="43.73171" lon="5.96363">
        <ele>358.5</ele>
        <time>2023-06-11T09:58:24Z</time>
      </trkpt>
      <trkpt lat="43.73171" lon="5.96363">
        <ele>358.4</ele>
        <time>2023-06-11T09:58:25Z</time>
      </trkpt>
      <trkpt lat="43.73171" lon="5.96363">
        <ele>358.4</ele>
        <time>2023-06-11T09:58:26Z</time>
      </trkpt>
      <trkpt lat="43.73171" lon="5.96363">
        <ele>358.4</ele>
        <time>2023-06-11T09:58:27Z</time>
      </trkpt>
      <trkpt lat="43.73171" lon="5.96362">
        <ele>358.4</ele>
        <time>2023-06-11T09:58:28Z</time>
      </trkpt>
      <trkpt lat="43.7317" lon="5.96362">
        <ele>358.4</ele>
        <time>2023-06-11T09:58:29Z</time>
      </trkpt>
      <trkpt lat="43.7317" lon="5.96362">
        <ele>358.5</ele>
        <time>2023-06-11T09:58:30Z</time>
      </trkpt>
      <trkpt lat="43.7317" lon="5.96361">
        <ele>358.5</ele>
        <time>2023-06-11T09:58:31Z</time>
      </trkpt>
      <trkpt lat="43.7317" lon="5.96361">
        <ele>358.5</ele>
        <time>2023-06-11T09:58:32Z</time>
      </trkpt>
      <trkpt lat="43.7317" lon="5.96361">
        <ele>358.5</ele>
        <time>2023-06-11T09:58:33Z</time>
      </trkpt>
      <trkpt lat="43.7317" lon="5.96361">
        <ele>358.6</ele>
        <time>2023-06-11T09:58:34Z</time>
      </trkpt>
      <trkpt lat="43.73171" lon="5.96361">
        <ele>358.5</ele>
        <time>2023-06-11T09:58:35Z</time>
      </trkpt>
      <trkpt lat="43.73171" lon="5.96361">
        <ele>358.5</ele>
        <time>2023-06-11T09:58:36Z</time>
      </trkpt>
      <trkpt lat="43.73171" lon="5.96361">
        <ele>358.5</ele>
        <time>2023-06-11T09:58:37Z</time>
      </trkpt>
      <trkpt lat="43.73171" lon="5.96361">
        <ele>358.5</ele>
        <time>2023-06-11T09:58:38Z</time>
      </trkpt>
      <trkpt lat="43.73171" lon="5.96361">
        <ele>358.6</ele>
        <time>2023-06-11T09:58:39Z</time>
      </trkpt>
      <trkpt lat="43.7317" lon="5.9636">
        <ele>358.5</ele>
        <time>2023-06-11T09:58:40Z</time>
      </trkpt>
      <trkpt lat="43.73171" lon="5.9636">
        <ele>358.5</ele>
        <time>2023-06-11T09:58:41Z</time>
      </trkpt>
      <trkpt lat="43.7317" lon="5.96361">
        <ele>358.5</ele>
        <time>2023-06-11T09:58:42Z</time>
      </trkpt>
      <trkpt lat="43.7317" lon="5.9636">
        <ele>358.5</ele>
        <time>2023-06-11T09:58:43Z</time>
      </trkpt>
      <trkpt lat="43.7317" lon="5.9636">
        <ele>358.5</ele>
        <time>2023-06-11T09:58:44Z</time>
      </trkpt>
      <trkpt lat="43.7317" lon="5.9636">
        <ele>358.6</ele>
        <time>2023-06-11T09:58:45Z</time>
      </trkpt>
      <trkpt lat="43.7317" lon="5.9636">
        <ele>358.6</ele>
        <time>2023-06-11T09:58:46Z</time>
      </trkpt>
      <trkpt lat="43.7317" lon="5.9636">
        <ele>358.6</ele>
        <time>2023-06-11T09:58:47Z</time>
      </trkpt>
      <trkpt lat="43.7317" lon="5.9636">
        <ele>358.7</ele>
        <time>2023-06-11T09:58:48Z</time>
      </trkpt>
      <trkpt lat="43.7317" lon="5.9636">
        <ele>358.6</ele>
        <time>2023-06-11T09:58:49Z</time>
      </trkpt>
      <trkpt lat="43.7317" lon="5.9636">
        <ele>358.6</ele>
        <time>2023-06-11T09:58:50Z</time>
      </trkpt>
      <trkpt lat="43.7317" lon="5.9636">
        <ele>358.6</ele>
        <time>2023-06-11T09:58:51Z</time>
      </trkpt>
      <trkpt lat="43.7317" lon="5.9636">
        <ele>358.6</ele>
        <time>2023-06-11T09:58:52Z</time>
      </trkpt>
      <trkpt lat="43.73169" lon="5.9636">
        <ele>358.6</ele>
        <time>2023-06-11T09:58:53Z</time>
      </trkpt>
      <trkpt lat="43.73169" lon="5.96361">
        <ele>358.6</ele>
        <time>2023-06-11T09:58:54Z</time>
      </trkpt>
      <trkpt lat="43.73169" lon="5.96361">
        <ele>358.6</ele>
        <time>2023-06-11T09:58:55Z</time>
      </trkpt>
      <trkpt lat="43.73169" lon="5.96361">
        <ele>358.6</ele>
        <time>2023-06-11T09:58:56Z</time>
      </trkpt>
      <trkpt lat="43.73169" lon="5.96361">
        <ele>358.6</ele>
        <time>2023-06-11T09:58:57Z</time>
      </trkpt>
      <trkpt lat="43.73169" lon="5.9636">
        <ele>358.6</ele>
        <time>2023-06-11T09:58:58Z</time>
      </trkpt>
      <trkpt lat="43.73169" lon="5.9636">
        <ele>358.6</ele>
        <time>2023-06-11T09:58:59Z</time>
      </trkpt>
      <trkpt lat="43.73169" lon="5.9636">
        <ele>358.6</ele>
        <time>2023-06-11T09:59:00Z</time>
      </trkpt>
      <trkpt lat="43.73169" lon="5.9636">
        <ele>358.5</ele>
        <time>2023-06-11T09:59:01Z</time>
      </trkpt>
      <trkpt lat="43.73169" lon="5.9636">
        <ele>358.5</ele>
        <time>2023-06-11T09:59:02Z</time>
      </trkpt>
      <trkpt lat="43.73169" lon="5.9636">
        <ele>358.5</ele>
        <time>2023-06-11T09:59:03Z</time>
      </trkpt>
      <trkpt lat="43.73169" lon="5.9636">
        <ele>358.4</ele>
        <time>2023-06-11T09:59:04Z</time>
      </trkpt>
      <trkpt lat="43.73169" lon="5.9636">
        <ele>358.4</ele>
        <time>2023-06-11T09:59:05Z</time>
      </trkpt>
      <trkpt lat="43.73169" lon="5.9636">
        <ele>358.5</ele>
        <time>2023-06-11T09:59:06Z</time>
      </trkpt>
      <trkpt lat="43.73169" lon="5.96361">
        <ele>358.6</ele>
        <time>2023-06-11T09:59:07Z</time>
      </trkpt>
      <trkpt lat="43.73169" lon="5.96361">
        <ele>358.6</ele>
        <time>2023-06-11T09:59:08Z</time>
      </trkpt>
      <trkpt lat="43.73169" lon="5.96361">
        <ele>358.6</ele>
        <time>2023-06-11T09:59:09Z</time>
      </trkpt>
      <trkpt lat="43.73169" lon="5.96361">
        <ele>358.6</ele>
        <time>2023-06-11T09:59:10Z</time>
      </trkpt>
      <trkpt lat="43.73169" lon="5.96361">
        <ele>358.6</ele>
        <time>2023-06-11T09:59:11Z</time>
      </trkpt>
      <trkpt lat="43.73169" lon="5.96361">
        <ele>358.6</ele>
        <time>2023-06-11T09:59:12Z</time>
      </trkpt>
      <trkpt lat="43.73169" lon="5.96361">
        <ele>358.6</ele>
        <time>2023-06-11T09:59:13Z</time>
      </trkpt>
      <trkpt lat="43.73169" lon="5.96361">
        <ele>358.6</ele>
        <time>2023-06-11T09:59:14Z</time>
      </trkpt>
      <trkpt lat="43.73169" lon="5.96361">
        <ele>358.6</ele>
        <time>2023-06-11T09:59:15Z</time>
      </trkpt>
      <trkpt lat="43.73169" lon="5.96361">
        <ele>358.6</ele>
        <time>2023-06-11T09:59:16Z</time>
      </trkpt>
      <trkpt lat="43.73169" lon="5.96362">
        <ele>358.6</ele>
        <time>2023-06-11T09:59:17Z</time>
      </trkpt>
      <trkpt lat="43.73169" lon="5.96361">
        <ele>358.5</ele>
        <time>2023-06-11T09:59:18Z</time>
      </trkpt>
      <trkpt lat="43.73169" lon="5.96362">
        <ele>358.5</ele>
        <time>2023-06-11T09:59:19Z</time>
      </trkpt>
      <trkpt lat="43.73168" lon="5.96361">
        <ele>358.6</ele>
        <time>2023-06-11T09:59:20Z</time>
      </trkpt>
      <trkpt lat="43.73168" lon="5.96361">
        <ele>358.6</ele>
        <time>2023-06-11T09:59:21Z</time>
      </trkpt>
      <trkpt lat="43.73168" lon="5.96361">
        <ele>358.6</ele>
        <time>2023-06-11T09:59:22Z</time>
      </trkpt>
      <trkpt lat="43.73168" lon="5.96361">
        <ele>358.6</ele>
        <time>2023-06-11T09:59:23Z</time>
      </trkpt>
      <trkpt lat="43.73168" lon="5.96361">
        <ele>358.5</ele>
        <time>2023-06-11T09:59:24Z</time>
      </trkpt>
      <trkpt lat="43.73168" lon="5.96361">
        <ele>358.5</ele>
        <time>2023-06-11T09:59:25Z</time>
      </trkpt>
      <trkpt lat="43.73168" lon="5.96361">
        <ele>358.5</ele>
        <time>2023-06-11T09:59:26Z</time>
      </trkpt>
      <trkpt lat="43.73168" lon="5.96361">
        <ele>358.5</ele>
        <time>2023-06-11T09:59:27Z</time>
      </trkpt>
      <trkpt lat="43.73168" lon="5.96361">
        <ele>358.5</ele>
        <time>2023-06-11T09:59:28Z</time>
      </trkpt>
      <trkpt lat="43.73168" lon="5.96361">
        <ele>358.5</ele>
        <time>2023-06-11T09:59:29Z</time>
      </trkpt>
      <trkpt lat="43.73168" lon="5.96361">
        <ele>358.4</ele>
        <time>2023-06-11T09:59:30Z</time>
      </trkpt>
      <trkpt lat="43.73168" lon="5.9636">
        <ele>358.4</ele>
        <time>2023-06-11T09:59:31Z</time>
      </trkpt>
      <trkpt lat="43.73168" lon="5.9636">
        <ele>358.5</ele>
        <time>2023-06-11T09:59:32Z</time>
      </trkpt>
      <trkpt lat="43.73168" lon="5.9636">
        <ele>358.5</ele>
        <time>2023-06-11T09:59:33Z</time>
      </trkpt>
      <trkpt lat="43.73168" lon="5.9636">
        <ele>358.5</ele>
        <time>2023-06-11T09:59:34Z</time>
      </trkpt>
      <trkpt lat="43.73168" lon="5.9636">
        <ele>358.5</ele>
        <time>2023-06-11T09:59:35Z</time>
      </trkpt>
      <trkpt lat="43.73168" lon="5.96361">
        <ele>358.5</ele>
        <time>2023-06-11T09:59:36Z</time>
      </trkpt>
      <trkpt lat="43.73168" lon="5.96361">
        <ele>358.4</ele>
        <time>2023-06-11T09:59:37Z</time>
      </trkpt>
      <trkpt lat="43.73168" lon="5.96361">
        <ele>358.4</ele>
        <time>2023-06-11T09:59:38Z</time>
      </trkpt>
      <trkpt lat="43.73168" lon="5.96361">
        <ele>358.4</ele>
        <time>2023-06-11T09:59:39Z</time>
      </trkpt>
      <trkpt lat="43.73168" lon="5.96361">
        <ele>358.3</ele>
        <time>2023-06-11T09:59:40Z</time>
      </trkpt>
      <trkpt lat="43.73168" lon="5.96361">
        <ele>358.4</ele>
        <time>2023-06-11T09:59:41Z</time>
      </trkpt>
      <trkpt lat="43.73168" lon="5.96361">
        <ele>358.4</ele>
        <time>2023-06-11T09:59:42Z</time>
      </trkpt>
      <trkpt lat="43.73168" lon="5.96361">
        <ele>358.5</ele>
        <time>2023-06-11T09:59:43Z</time>
      </trkpt>
      <trkpt lat="43.73168" lon="5.96361">
        <ele>358.6</ele>
        <time>2023-06-11T09:59:44Z</time>
      </trkpt>
      <trkpt lat="43.73168" lon="5.96361">
        <ele>358.6</ele>
        <time>2023-06-11T09:59:45Z</time>
      </trkpt>
      <trkpt lat="43.73168" lon="5.96361">
        <ele>358.7</ele>
        <time>2023-06-11T09:59:46Z</time>
      </trkpt>
      <trkpt lat="43.73168" lon="5.96361">
        <ele>358.8</ele>
        <time>2023-06-11T09:59:47Z</time>
      </trkpt>
      <trkpt lat="43.73168" lon="5.96361">
        <ele>358.9</ele>
        <time>2023-06-11T09:59:48Z</time>
      </trkpt>
      <trkpt lat="43.73168" lon="5.96361">
        <ele>358.8</ele>
        <time>2023-06-11T09:59:49Z</time>
      </trkpt>
      <trkpt lat="43.73168" lon="5.96361">
        <ele>358.8</ele>
        <time>2023-06-11T09:59:50Z</time>
      </trkpt>
      <trkpt lat="43.73167" lon="5.96361">
        <ele>358.8</ele>
        <time>2023-06-11T09:59:51Z</time>
      </trkpt>
      <trkpt lat="43.73167" lon="5.96361">
        <ele>358.8</ele>
        <time>2023-06-11T09:59:52Z</time>
      </trkpt>
      <trkpt lat="43.73167" lon="5.96361">
        <ele>358.8</ele>
        <time>2023-06-11T09:59:53Z</time>
      </trkpt>
      <trkpt lat="43.73167" lon="5.9636">
        <ele>358.8</ele>
        <time>2023-06-11T09:59:54Z</time>
      </trkpt>
      <trkpt lat="43.73167" lon="5.9636">
        <ele>358.8</ele>
        <time>2023-06-11T09:59:55Z</time>
      </trkpt>
      <trkpt lat="43.73167" lon="5.9636">
        <ele>358.7</ele>
        <time>2023-06-11T09:59:56Z</time>
      </trkpt>
      <trkpt lat="43.73167" lon="5.96359">
        <ele>358.6</ele>
        <time>2023-06-11T09:59:57Z</time>
      </trkpt>
      <trkpt lat="43.73167" lon="5.96359">
        <ele>358.6</ele>
        <time>2023-06-11T09:59:58Z</time>
      </trkpt>
      <trkpt lat="43.73167" lon="5.96359">
        <ele>358.6</ele>
        <time>2023-06-11T09:59:59Z</time>
      </trkpt>
      <trkpt lat="43.73166" lon="5.96359">
        <ele>358.6</ele>
        <time>2023-06-11T10:00:00Z</time>
      </trkpt>
      <trkpt lat="43.73166" lon="5.96359">
        <ele>358.6</ele>
        <time>2023-06-11T10:00:01Z</time>
      </trkpt>
      <trkpt lat="43.73166" lon="5.96359">
        <ele>358.6</ele>
        <time>2023-06-11T10:00:02Z</time>
      </trkpt>
      <trkpt lat="43.73166" lon="5.96358">
        <ele>358.6</ele>
        <time>2023-06-11T10:00:03Z</time>
      </trkpt>
      <trkpt lat="43.73166" lon="5.96358">
        <ele>358.6</ele>
        <time>2023-06-11T10:00:04Z</time>
      </trkpt>
      <trkpt lat="43.73165" lon="5.96358">
        <ele>358.6</ele>
        <time>2023-06-11T10:00:05Z</time>
      </trkpt>
      <trkpt lat="43.73165" lon="5.96358">
        <ele>358.6</ele>
        <time>2023-06-11T10:00:06Z</time>
      </trkpt>
      <trkpt lat="43.73165" lon="5.96357">
        <ele>358.7</ele>
        <time>2023-06-11T10:00:07Z</time>
      </trkpt>
      <trkpt lat="43.73165" lon="5.96357">
        <ele>358.7</ele>
        <time>2023-06-11T10:00:08Z</time>
      </trkpt>
      <trkpt lat="43.73164" lon="5.96357">
        <ele>358.7</ele>
        <time>2023-06-11T10:00:09Z</time>
      </trkpt>
      <trkpt lat="43.73164" lon="5.96357">
        <ele>358.7</ele>
        <time>2023-06-11T10:00:10Z</time>
      </trkpt>
      <trkpt lat="43.73164" lon="5.96356">
        <ele>358.7</ele>
        <time>2023-06-11T10:00:11Z</time>
      </trkpt>
      <trkpt lat="43.73164" lon="5.96356">
        <ele>358.7</ele>
        <time>2023-06-11T10:00:12Z</time>
      </trkpt>
      <trkpt lat="43.73164" lon="5.96356">
        <ele>358.7</ele>
        <time>2023-06-11T10:00:13Z</time>
      </trkpt>
      <trkpt lat="43.73164" lon="5.96356">
        <ele>358.7</ele>
        <time>2023-06-11T10:00:14Z</time>
      </trkpt>
      <trkpt lat="43.73164" lon="5.96356">
        <ele>358.7</ele>
        <time>2023-06-11T10:00:15Z</time>
      </trkpt>
      <trkpt lat="43.73164" lon="5.96356">
        <ele>358.7</ele>
        <time>2023-06-11T10:00:16Z</time>
      </trkpt>
      <trkpt lat="43.73164" lon="5.96357">
        <ele>358.6</ele>
        <time>2023-06-11T10:00:17Z</time>
      </trkpt>
      <trkpt lat="43.73164" lon="5.96357">
        <ele>358.6</ele>
        <time>2023-06-11T10:00:18Z</time>
      </trkpt>
      <trkpt lat="43.73164" lon="5.96357">
        <ele>358.6</ele>
        <time>2023-06-11T10:00:19Z</time>
      </trkpt>
      <trkpt lat="43.73164" lon="5.96357">
        <ele>358.6</ele>
        <time>2023-06-11T10:00:20Z</time>
      </trkpt>
      <trkpt lat="43.73164" lon="5.96357">
        <ele>358.7</ele>
        <time>2023-06-11T10:00:21Z</time>
      </trkpt>
      <trkpt lat="43.73164" lon="5.96357">
        <ele>358.7</ele>
        <time>2023-06-11T10:00:22Z</time>
      </trkpt>
      <trkpt lat="43.73164" lon="5.96357">
        <ele>358.7</ele>
        <time>2023-06-11T10:00:23Z</time>
      </trkpt>
      <trkpt lat="43.73164" lon="5.96357">
        <ele>358.6</ele>
        <time>2023-06-11T10:00:24Z</time>
      </trkpt>
      <trkpt lat="43.73164" lon="5.96357">
        <ele>358.6</ele>
        <time>2023-06-11T10:00:25Z</time>
      </trkpt>
      <trkpt lat="43.73164" lon="5.96357">
        <ele>358.5</ele>
        <time>2023-06-11T10:00:26Z</time>
      </trkpt>
      <trkpt lat="43.73164" lon="5.96357">
        <ele>358.5</ele>
        <time>2023-06-11T10:00:27Z</time>
      </trkpt>
      <trkpt lat="43.73164" lon="5.96357">
        <ele>358.5</ele>
        <time>2023-06-11T10:00:28Z</time>
      </trkpt>
      <trkpt lat="43.73164" lon="5.96357">
        <ele>358.5</ele>
        <time>2023-06-11T10:00:29Z</time>
      </trkpt>
      <trkpt lat="43.73164" lon="5.96356">
        <ele>358.5</ele>
        <time>2023-06-11T10:00:30Z</time>
      </trkpt>
      <trkpt lat="43.73164" lon="5.96356">
        <ele>358.5</ele>
        <time>2023-06-11T10:00:31Z</time>
      </trkpt>
      <trkpt lat="43.73164" lon="5.96356">
        <ele>358.6</ele>
        <time>2023-06-11T10:00:32Z</time>
      </trkpt>
      <trkpt lat="43.73164" lon="5.96356">
        <ele>358.5</ele>
        <time>2023-06-11T10:00:33Z</time>
      </trkpt>
      <trkpt lat="43.73164" lon="5.96355">
        <ele>358.4</ele>
        <time>2023-06-11T10:00:34Z</time>
      </trkpt>
      <trkpt lat="43.73164" lon="5.96355">
        <ele>358.4</ele>
        <time>2023-06-11T10:00:35Z</time>
      </trkpt>
      <trkpt lat="43.73164" lon="5.96355">
        <ele>358.5</ele>
        <time>2023-06-11T10:00:36Z</time>
      </trkpt>
      <trkpt lat="43.73164" lon="5.96355">
        <ele>358.6</ele>
        <time>2023-06-11T10:00:37Z</time>
      </trkpt>
      <trkpt lat="43.73164" lon="5.96355">
        <ele>358.7</ele>
        <time>2023-06-11T10:00:38Z</time>
      </trkpt>
      <trkpt lat="43.73165" lon="5.96355">
        <ele>358.7</ele>
        <time>2023-06-11T10:00:39Z</time>
      </trkpt>
      <trkpt lat="43.73165" lon="5.96355">
        <ele>358.8</ele>
        <time>2023-06-11T10:00:40Z</time>
      </trkpt>
      <trkpt lat="43.73165" lon="5.96355">
        <ele>358.8</ele>
        <time>2023-06-11T10:00:41Z</time>
      </trkpt>
      <trkpt lat="43.73164" lon="5.96355">
        <ele>358.8</ele>
        <time>2023-06-11T10:00:42Z</time>
      </trkpt>
      <trkpt lat="43.73164" lon="5.96355">
        <ele>358.7</ele>
        <time>2023-06-11T10:00:43Z</time>
      </trkpt>
      <trkpt lat="43.73164" lon="5.96354">
        <ele>358.7</ele>
        <time>2023-06-11T10:00:44Z</time>
      </trkpt>
      <trkpt lat="43.73164" lon="5.96354">
        <ele>358.7</ele>
        <time>2023-06-11T10:00:45Z</time>
      </trkpt>
      <trkpt lat="43.73164" lon="5.96354">
        <ele>358.7</ele>
        <time>2023-06-11T10:00:46Z</time>
      </trkpt>
      <trkpt lat="43.73164" lon="5.96355">
        <ele>358.7</ele>
        <time>2023-06-11T10:00:47Z</time>
      </trkpt>
      <trkpt lat="43.73164" lon="5.96355">
        <ele>358.8</ele>
        <time>2023-06-11T10:00:48Z</time>
      </trkpt>
      <trkpt lat="43.73164" lon="5.96355">
        <ele>358.8</ele>
        <time>2023-06-11T10:00:49Z</time>
      </trkpt>
      <trkpt lat="43.73164" lon="5.96356">
        <ele>358.8</ele>
        <time>2023-06-11T10:00:50Z</time>
      </trkpt>
      <trkpt lat="43.73164" lon="5.96356">
        <ele>358.9</ele>
        <time>2023-06-11T10:00:51Z</time>
      </trkpt>
      <trkpt lat="43.73164" lon="5.96357">
        <ele>358.9</ele>
        <time>2023-06-11T10:00:52Z</time>
      </trkpt>
      <trkpt lat="43.73164" lon="5.96357">
        <ele>358.8</ele>
        <time>2023-06-11T10:00:53Z</time>
      </trkpt>
      <trkpt lat="43.73164" lon="5.96357">
        <ele>358.8</ele>
        <time>2023-06-11T10:00:54Z</time>
      </trkpt>
      <trkpt lat="43.73165" lon="5.96358">
        <ele>358.8</ele>
        <time>2023-06-11T10:00:55Z</time>
      </trkpt>
      <trkpt lat="43.73164" lon="5.96359">
        <ele>358.8</ele>
        <time>2023-06-11T10:00:56Z</time>
      </trkpt>
      <trkpt lat="43.73164" lon="5.96359">
        <ele>358.7</ele>
        <time>2023-06-11T10:00:57Z</time>
      </trkpt>
      <trkpt lat="43.73164" lon="5.96359">
        <ele>358.6</ele>
        <time>2023-06-11T10:00:58Z</time>
      </trkpt>
      <trkpt lat="43.73164" lon="5.96359">
        <ele>358.6</ele>
        <time>2023-06-11T10:00:59Z</time>
      </trkpt>
      <trkpt lat="43.73164" lon="5.96359">
        <ele>358.7</ele>
        <time>2023-06-11T10:01:00Z</time>
      </trkpt>
      <trkpt lat="43.73164" lon="5.96359">
        <ele>358.7</ele>
        <time>2023-06-11T10:01:01Z</time>
      </trkpt>
      <trkpt lat="43.73164" lon="5.96359">
        <ele>358.6</ele>
        <time>2023-06-11T10:01:02Z</time>
      </trkpt>
      <trkpt lat="43.73164" lon="5.96358">
        <ele>358.6</ele>
        <time>2023-06-11T10:01:03Z</time>
      </trkpt>
      <trkpt lat="43.73164" lon="5.96359">
        <ele>358.6</ele>
        <time>2023-06-11T10:01:04Z</time>
      </trkpt>
      <trkpt lat="43.73164" lon="5.9636">
        <ele>358.7</ele>
        <time>2023-06-11T10:01:05Z</time>
      </trkpt>
      <trkpt lat="43.73164" lon="5.9636">
        <ele>358.7</ele>
        <time>2023-06-11T10:01:06Z</time>
      </trkpt>
      <trkpt lat="43.73164" lon="5.9636">
        <ele>358.7</ele>
        <time>2023-06-11T10:01:07Z</time>
      </trkpt>
      <trkpt lat="43.73164" lon="5.9636">
        <ele>358.7</ele>
        <time>2023-06-11T10:01:08Z</time>
      </trkpt>
      <trkpt lat="43.73164" lon="5.9636">
        <ele>358.7</ele>
        <time>2023-06-11T10:01:09Z</time>
      </trkpt>
      <trkpt lat="43.73164" lon="5.9636">
        <ele>358.7</ele>
        <time>2023-06-11T10:01:10Z</time>
      </trkpt>
      <trkpt lat="43.73164" lon="5.9636">
        <ele>358.7</ele>
        <time>2023-06-11T10:01:11Z</time>
      </trkpt>
      <trkpt lat="43.73164" lon="5.9636">
        <ele>358.7</ele>
        <time>2023-06-11T10:01:12Z</time>
      </trkpt>
      <trkpt lat="43.73164" lon="5.9636">
        <ele>358.7</ele>
        <time>2023-06-11T10:01:13Z</time>
      </trkpt>
      <trkpt lat="43.73164" lon="5.96361">
        <ele>358.6</ele>
        <time>2023-06-11T10:01:14Z</time>
      </trkpt>
      <trkpt lat="43.73164" lon="5.96361">
        <ele>358.6</ele>
        <time>2023-06-11T10:01:15Z</time>
      </trkpt>
      <trkpt lat="43.73164" lon="5.96361">
        <ele>358.6</ele>
        <time>2023-06-11T10:01:16Z</time>
      </trkpt>
      <trkpt lat="43.73164" lon="5.96361">
        <ele>358.6</ele>
        <time>2023-06-11T10:01:17Z</time>
      </trkpt>
      <trkpt lat="43.73164" lon="5.96361">
        <ele>358.5</ele>
        <time>2023-06-11T10:01:18Z</time>
      </trkpt>
      <trkpt lat="43.73164" lon="5.96361">
        <ele>358.5</ele>
        <time>2023-06-11T10:01:19Z</time>
      </trkpt>
      <trkpt lat="43.73164" lon="5.96362">
        <ele>358.5</ele>
        <time>2023-06-11T10:01:20Z</time>
      </trkpt>
      <trkpt lat="43.73164" lon="5.96362">
        <ele>358.5</ele>
        <time>2023-06-11T10:01:21Z</time>
      </trkpt>
      <trkpt lat="43.73164" lon="5.96362">
        <ele>358.5</ele>
        <time>2023-06-11T10:01:22Z</time>
      </trkpt>
      <trkpt lat="43.73164" lon="5.96362">
        <ele>358.5</ele>
        <time>2023-06-11T10:01:23Z</time>
      </trkpt>
      <trkpt lat="43.73164" lon="5.96362">
        <ele>358.5</ele>
        <time>2023-06-11T10:01:24Z</time>
      </trkpt>
      <trkpt lat="43.73164" lon="5.96362">
        <ele>358.5</ele>
        <time>2023-06-11T10:01:25Z</time>
      </trkpt>
      <trkpt lat="43.73164" lon="5.96362">
        <ele>358.5</ele>
        <time>2023-06-11T10:01:26Z</time>
      </trkpt>
      <trkpt lat="43.73165" lon="5.96362">
        <ele>358.5</ele>
        <time>2023-06-11T10:01:27Z</time>
      </trkpt>
      <trkpt lat="43.73165" lon="5.96362">
        <ele>358.5</ele>
        <time>2023-06-11T10:01:28Z</time>
      </trkpt>
      <trkpt lat="43.73165" lon="5.96362">
        <ele>358.5</ele>
        <time>2023-06-11T10:01:29Z</time>
      </trkpt>
      <trkpt lat="43.73165" lon="5.96362">
        <ele>358.5</ele>
        <time>2023-06-11T10:01:30Z</time>
      </trkpt>
      <trkpt lat="43.73165" lon="5.96362">
        <ele>358.5</ele>
        <time>2023-06-11T10:01:31Z</time>
      </trkpt>
      <trkpt lat="43.73165" lon="5.96362">
        <ele>358.5</ele>
        <time>2023-06-11T10:01:32Z</time>
      </trkpt>
      <trkpt lat="43.73165" lon="5.96362">
        <ele>358.5</ele>
        <time>2023-06-11T10:01:33Z</time>
      </trkpt>
      <trkpt lat="43.73165" lon="5.96362">
        <ele>358.5</ele>
        <time>2023-06-11T10:01:34Z</time>
      </trkpt>
      <trkpt lat="43.73165" lon="5.96362">
        <ele>358.5</ele>
        <time>2023-06-11T10:01:35Z</time>
      </trkpt>
      <trkpt lat="43.73165" lon="5.96362">
        <ele>358.5</ele>
        <time>2023-06-11T10:01:36Z</time>
      </trkpt>
      <trkpt lat="43.73165" lon="5.96362">
        <ele>358.5</ele>
        <time>2023-06-11T10:01:37Z</time>
      </trkpt>
      <trkpt lat="43.73165" lon="5.96362">
        <ele>358.5</ele>
        <time>2023-06-11T10:01:38Z</time>
      </trkpt>
      <trkpt lat="43.73165" lon="5.96362">
        <ele>358.5</ele>
        <time>2023-06-11T10:01:39Z</time>
      </trkpt>
      <trkpt lat="43.73165" lon="5.96362">
        <ele>358.5</ele>
        <time>2023-06-11T10:01:40Z</time>
      </trkpt>
      <trkpt lat="43.73165" lon="5.96362">
        <ele>358.6</ele>
        <time>2023-06-11T10:01:41Z</time>
      </trkpt>
      <trkpt lat="43.73165" lon="5.96362">
        <ele>358.6</ele>
        <time>2023-06-11T10:01:42Z</time>
      </trkpt>
      <trkpt lat="43.73165" lon="5.96362">
        <ele>358.7</ele>
        <time>2023-06-11T10:01:43Z</time>
      </trkpt>
      <trkpt lat="43.73166" lon="5.96362">
        <ele>358.8</ele>
        <time>2023-06-11T10:01:44Z</time>
      </trkpt>
      <trkpt lat="43.73166" lon="5.96362">
        <ele>358.8</ele>
        <time>2023-06-11T10:01:45Z</time>
      </trkpt>
      <trkpt lat="43.73166" lon="5.96362">
        <ele>358.8</ele>
        <time>2023-06-11T10:01:46Z</time>
      </trkpt>
      <trkpt lat="43.73166" lon="5.96362">
        <ele>358.8</ele>
        <time>2023-06-11T10:01:47Z</time>
      </trkpt>
      <trkpt lat="43.73166" lon="5.96362">
        <ele>358.8</ele>
        <time>2023-06-11T10:01:48Z</time>
      </trkpt>
      <trkpt lat="43.73166" lon="5.96362">
        <ele>358.8</ele>
        <time>2023-06-11T10:01:49Z</time>
      </trkpt>
      <trkpt lat="43.73166" lon="5.96362">
        <ele>358.8</ele>
        <time>2023-06-11T10:01:50Z</time>
      </trkpt>
      <trkpt lat="43.73166" lon="5.96362">
        <ele>358.7</ele>
        <time>2023-06-11T10:01:51Z</time>
      </trkpt>
      <trkpt lat="43.73166" lon="5.96363">
        <ele>358.6</ele>
        <time>2023-06-11T10:01:52Z</time>
      </trkpt>
      <trkpt lat="43.73166" lon="5.96363">
        <ele>358.6</ele>
        <time>2023-06-11T10:01:53Z</time>
      </trkpt>
      <trkpt lat="43.73166" lon="5.96363">
        <ele>358.6</ele>
        <time>2023-06-11T10:01:54Z</time>
      </trkpt>
      <trkpt lat="43.73166" lon="5.96363">
        <ele>358.6</ele>
        <time>2023-06-11T10:01:55Z</time>
      </trkpt>
      <trkpt lat="43.73166" lon="5.96363">
        <ele>358.6</ele>
        <time>2023-06-11T10:01:56Z</time>
      </trkpt>
      <trkpt lat="43.73166" lon="5.96363">
        <ele>358.6</ele>
        <time>2023-06-11T10:01:57Z</time>
      </trkpt>
      <trkpt lat="43.73166" lon="5.96363">
        <ele>358.5</ele>
        <time>2023-06-11T10:01:58Z</time>
      </trkpt>
      <trkpt lat="43.73166" lon="5.96363">
        <ele>358.5</ele>
        <time>2023-06-11T10:01:59Z</time>
      </trkpt>
      <trkpt lat="43.73166" lon="5.96363">
        <ele>358.5</ele>
        <time>2023-06-11T10:02:00Z</time>
      </trkpt>
      <trkpt lat="43.73166" lon="5.96363">
        <ele>358.5</ele>
        <time>2023-06-11T10:02:01Z</time>
      </trkpt>
      <trkpt lat="43.73166" lon="5.96363">
        <ele>358.6</ele>
        <time>2023-06-11T10:02:02Z</time>
      </trkpt>
      <trkpt lat="43.73167" lon="5.96363">
        <ele>358.7</ele>
        <time>2023-06-11T10:02:03Z</time>
      </trkpt>
      <trkpt lat="43.73167" lon="5.96363">
        <ele>358.7</ele>
        <time>2023-06-11T10:02:04Z</time>
      </trkpt>
      <trkpt lat="43.73167" lon="5.96363">
        <ele>358.8</ele>
        <time>2023-06-11T10:02:05Z</time>
      </trkpt>
      <trkpt lat="43.73167" lon="5.96363">
        <ele>358.7</ele>
        <time>2023-06-11T10:02:06Z</time>
      </trkpt>
      <trkpt lat="43.73167" lon="5.96363">
        <ele>358.7</ele>
        <time>2023-06-11T10:02:07Z</time>
      </trkpt>
      <trkpt lat="43.73167" lon="5.96363">
        <ele>358.7</ele>
        <time>2023-06-11T10:02:08Z</time>
      </trkpt>
      <trkpt lat="43.73167" lon="5.96363">
        <ele>358.6</ele>
        <time>2023-06-11T10:02:09Z</time>
      </trkpt>
      <trkpt lat="43.73167" lon="5.96363">
        <ele>358.6</ele>
        <time>2023-06-11T10:02:10Z</time>
      </trkpt>
      <trkpt lat="43.73167" lon="5.96363">
        <ele>358.8</ele>
        <time>2023-06-11T10:02:11Z</time>
      </trkpt>
      <trkpt lat="43.73167" lon="5.96363">
        <ele>358.7</ele>
        <time>2023-06-11T10:02:12Z</time>
      </trkpt>
      <trkpt lat="43.73168" lon="5.96363">
        <ele>358.7</ele>
        <time>2023-06-11T10:02:13Z</time>
      </trkpt>
      <trkpt lat="43.73168" lon="5.96363">
        <ele>358.7</ele>
        <time>2023-06-11T10:02:14Z</time>
      </trkpt>
      <trkpt lat="43.73168" lon="5.96363">
        <ele>358.7</ele>
        <time>2023-06-11T10:02:15Z</time>
      </trkpt>
      <trkpt lat="43.73167" lon="5.96363">
        <ele>358.6</ele>
        <time>2023-06-11T10:02:16Z</time>
      </trkpt>
      <trkpt lat="43.73167" lon="5.96363">
        <ele>358.6</ele>
        <time>2023-06-11T10:02:17Z</time>
      </trkpt>
      <trkpt lat="43.73167" lon="5.96363">
        <ele>358.6</ele>
        <time>2023-06-11T10:02:18Z</time>
      </trkpt>
      <trkpt lat="43.73168" lon="5.96363">
        <ele>358.6</ele>
        <time>2023-06-11T10:02:19Z</time>
      </trkpt>
      <trkpt lat="43.73168" lon="5.96363">
        <ele>358.6</ele>
        <time>2023-06-11T10:02:20Z</time>
      </trkpt>
      <trkpt lat="43.73168" lon="5.96363">
        <ele>358.6</ele>
        <time>2023-06-11T10:02:21Z</time>
      </trkpt>
      <trkpt lat="43.73168" lon="5.96363">
        <ele>358.6</ele>
        <time>2023-06-11T10:02:22Z</time>
      </trkpt>
      <trkpt lat="43.73168" lon="5.96363">
        <ele>358.6</ele>
        <time>2023-06-11T10:02:23Z</time>
      </trkpt>
      <trkpt lat="43.73168" lon="5.96363">
        <ele>358.6</ele>
        <time>2023-06-11T10:02:24Z</time>
      </trkpt>
      <trkpt lat="43.73168" lon="5.96363">
        <ele>358.6</ele>
        <time>2023-06-11T10:02:25Z</time>
      </trkpt>
      <trkpt lat="43.73168" lon="5.96363">
        <ele>358.6</ele>
        <time>2023-06-11T10:02:26Z</time>
      </trkpt>
      <trkpt lat="43.73168" lon="5.96362">
        <ele>358.6</ele>
        <time>2023-06-11T10:02:27Z</time>
      </trkpt>
      <trkpt lat="43.73168" lon="5.96362">
        <ele>358.6</ele>
        <time>2023-06-11T10:02:28Z</time>
      </trkpt>
      <trkpt lat="43.73168" lon="5.96363">
        <ele>358.6</ele>
        <time>2023-06-11T10:02:29Z</time>
      </trkpt>
      <trkpt lat="43.73168" lon="5.96363">
        <ele>358.6</ele>
        <time>2023-06-11T10:02:30Z</time>
      </trkpt>
      <trkpt lat="43.73168" lon="5.96363">
        <ele>358.6</ele>
        <time>2023-06-11T10:02:31Z</time>
      </trkpt>
      <trkpt lat="43.73168" lon="5.96363">
        <ele>358.6</ele>
        <time>2023-06-11T10:02:32Z</time>
      </trkpt>
      <trkpt lat="43.73168" lon="5.96363">
        <ele>358.6</ele>
        <time>2023-06-11T10:02:33Z</time>
      </trkpt>
      <trkpt lat="43.73168" lon="5.96362">
        <ele>358.6</ele>
        <time>2023-06-11T10:02:34Z</time>
      </trkpt>
      <trkpt lat="43.73168" lon="5.96362">
        <ele>358.5</ele>
        <time>2023-06-11T10:02:35Z</time>
      </trkpt>
      <trkpt lat="43.73168" lon="5.96362">
        <ele>358.5</ele>
        <time>2023-06-11T10:02:36Z</time>
      </trkpt>
      <trkpt lat="43.73168" lon="5.96362">
        <ele>358.5</ele>
        <time>2023-06-11T10:02:37Z</time>
      </trkpt>
      <trkpt lat="43.73168" lon="5.96362">
        <ele>358.5</ele>
        <time>2023-06-11T10:02:38Z</time>
      </trkpt>
      <trkpt lat="43.73168" lon="5.96362">
        <ele>358.5</ele>
        <time>2023-06-11T10:02:39Z</time>
      </trkpt>
      <trkpt lat="43.73168" lon="5.96362">
        <ele>358.5</ele>
        <time>2023-06-11T10:02:40Z</time>
      </trkpt>
      <trkpt lat="43.73168" lon="5.96362">
        <ele>358.5</ele>
        <time>2023-06-11T10:02:41Z</time>
      </trkpt>
      <trkpt lat="43.73168" lon="5.96362">
        <ele>358.5</ele>
        <time>2023-06-11T10:02:42Z</time>
      </trkpt>
      <trkpt lat="43.73168" lon="5.96363">
        <ele>358.6</ele>
        <time>2023-06-11T10:02:43Z</time>
      </trkpt>
      <trkpt lat="43.73168" lon="5.96362">
        <ele>358.6</ele>
        <time>2023-06-11T10:02:44Z</time>
      </trkpt>
      <trkpt lat="43.73168" lon="5.96362">
        <ele>358.7</ele>
        <time>2023-06-11T10:02:45Z</time>
      </trkpt>
      <trkpt lat="43.73168" lon="5.96362">
        <ele>358.7</ele>
        <time>2023-06-11T10:02:46Z</time>
      </trkpt>
      <trkpt lat="43.73168" lon="5.96362">
        <ele>358.8</ele>
        <time>2023-06-11T10:02:47Z</time>
      </trkpt>
      <trkpt lat="43.73168" lon="5.96362">
        <ele>358.8</ele>
        <time>2023-06-11T10:02:48Z</time>
      </trkpt>
      <trkpt lat="43.73168" lon="5.96362">
        <ele>358.9</ele>
        <time>2023-06-11T10:02:49Z</time>
      </trkpt>
      <trkpt lat="43.73168" lon="5.96362">
        <ele>358.9</ele>
        <time>2023-06-11T10:02:50Z</time>
      </trkpt>
      <trkpt lat="43.73168" lon="5.96362">
        <ele>358.9</ele>
        <time>2023-06-11T10:02:51Z</time>
      </trkpt>
      <trkpt lat="43.73168" lon="5.96362">
        <ele>358.9</ele>
        <time>2023-06-11T10:02:52Z</time>
      </trkpt>
      <trkpt lat="43.73168" lon="5.96362">
        <ele>358.8</ele>
        <time>2023-06-11T10:02:53Z</time>
      </trkpt>
      <trkpt lat="43.73168" lon="5.96362">
        <ele>358.8</ele>
        <time>2023-06-11T10:02:54Z</time>
      </trkpt>
      <trkpt lat="43.73168" lon="5.96362">
        <ele>358.8</ele>
        <time>2023-06-11T10:02:55Z</time>
      </trkpt>
      <trkpt lat="43.73168" lon="5.96362">
        <ele>358.8</ele>
        <time>2023-06-11T10:02:56Z</time>
      </trkpt>
      <trkpt lat="43.73168" lon="5.96362">
        <ele>358.7</ele>
        <time>2023-06-11T10:02:57Z</time>
      </trkpt>
      <trkpt lat="43.73168" lon="5.96362">
        <ele>358.7</ele>
        <time>2023-06-11T10:02:58Z</time>
      </trkpt>
      <trkpt lat="43.73167" lon="5.96362">
        <ele>358.7</ele>
        <time>2023-06-11T10:02:59Z</time>
      </trkpt>
      <trkpt lat="43.73167" lon="5.96362">
        <ele>358.7</ele>
        <time>2023-06-11T10:03:00Z</time>
      </trkpt>
      <trkpt lat="43.73167" lon="5.96362">
        <ele>358.6</ele>
        <time>2023-06-11T10:03:01Z</time>
      </trkpt>
      <trkpt lat="43.73167" lon="5.96362">
        <ele>358.6</ele>
        <time>2023-06-11T10:03:02Z</time>
      </trkpt>
      <trkpt lat="43.73167" lon="5.96362">
        <ele>358.6</ele>
        <time>2023-06-11T10:03:03Z</time>
      </trkpt>
      <trkpt lat="43.73167" lon="5.96362">
        <ele>358.6</ele>
        <time>2023-06-11T10:03:04Z</time>
      </trkpt>
      <trkpt lat="43.73167" lon="5.96362">
        <ele>358.6</ele>
        <time>2023-06-11T10:03:05Z</time>
      </trkpt>
      <trkpt lat="43.73167" lon="5.96362">
        <ele>358.6</ele>
        <time>2023-06-11T10:03:06Z</time>
      </trkpt>
      <trkpt lat="43.73167" lon="5.96362">
        <ele>358.6</ele>
        <time>2023-06-11T10:03:07Z</time>
      </trkpt>
      <trkpt lat="43.73166" lon="5.96362">
        <ele>358.6</ele>
        <time>2023-06-11T10:03:08Z</time>
      </trkpt>
      <trkpt lat="43.73166" lon="5.96362">
        <ele>358.7</ele>
        <time>2023-06-11T10:03:09Z</time>
      </trkpt>
      <trkpt lat="43.73167" lon="5.96362">
        <ele>358.7</ele>
        <time>2023-06-11T10:03:10Z</time>
      </trkpt>
      <trkpt lat="43.73167" lon="5.96362">
        <ele>358.7</ele>
        <time>2023-06-11T10:03:11Z</time>
      </trkpt>
      <trkpt lat="43.73167" lon="5.96362">
        <ele>358.7</ele>
        <time>2023-06-11T10:03:12Z</time>
      </trkpt>
      <trkpt lat="43.73167" lon="5.96362">
        <ele>358.6</ele>
        <time>2023-06-11T10:03:13Z</time>
      </trkpt>
      <trkpt lat="43.73167" lon="5.96362">
        <ele>358.6</ele>
        <time>2023-06-11T10:03:14Z</time>
      </trkpt>
      <trkpt lat="43.73167" lon="5.96362">
        <ele>358.7</ele>
        <time>2023-06-11T10:03:15Z</time>
      </trkpt>
      <trkpt lat="43.73167" lon="5.96361">
        <ele>358.7</ele>
        <time>2023-06-11T10:03:16Z</time>
      </trkpt>
      <trkpt lat="43.73167" lon="5.96361">
        <ele>358.7</ele>
        <time>2023-06-11T10:03:17Z</time>
      </trkpt>
      <trkpt lat="43.73167" lon="5.96361">
        <ele>358.7</ele>
        <time>2023-06-11T10:03:18Z</time>
      </trkpt>
      <trkpt lat="43.73167" lon="5.96361">
        <ele>358.6</ele>
        <time>2023-06-11T10:03:19Z</time>
      </trkpt>
      <trkpt lat="43.73167" lon="5.96361">
        <ele>358.6</ele>
        <time>2023-06-11T10:03:20Z</time>
      </trkpt>
      <trkpt lat="43.73167" lon="5.96361">
        <ele>358.6</ele>
        <time>2023-06-11T10:03:21Z</time>
      </trkpt>
      <trkpt lat="43.73167" lon="5.96361">
        <ele>358.6</ele>
        <time>2023-06-11T10:03:22Z</time>
      </trkpt>
      <trkpt lat="43.73167" lon="5.96361">
        <ele>358.5</ele>
        <time>2023-06-11T10:03:23Z</time>
      </trkpt>
      <trkpt lat="43.73167" lon="5.96361">
        <ele>358.6</ele>
        <time>2023-06-11T10:03:24Z</time>
      </trkpt>
      <trkpt lat="43.73167" lon="5.96361">
        <ele>358.6</ele>
        <time>2023-06-11T10:03:25Z</time>
      </trkpt>
      <trkpt lat="43.73167" lon="5.96361">
        <ele>358.6</ele>
        <time>2023-06-11T10:03:26Z</time>
      </trkpt>
      <trkpt lat="43.73167" lon="5.96361">
        <ele>358.6</ele>
        <time>2023-06-11T10:03:27Z</time>
      </trkpt>
      <trkpt lat="43.73167" lon="5.96361">
        <ele>358.6</ele>
        <time>2023-06-11T10:03:28Z</time>
      </trkpt>
      <trkpt lat="43.73167" lon="5.96361">
        <ele>358.7</ele>
        <time>2023-06-11T10:03:29Z</time>
      </trkpt>
      <trkpt lat="43.73168" lon="5.96361">
        <ele>358.7</ele>
        <time>2023-06-11T10:03:30Z</time>
      </trkpt>
      <trkpt lat="43.73168" lon="5.96361">
        <ele>358.6</ele>
        <time>2023-06-11T10:03:31Z</time>
      </trkpt>
      <trkpt lat="43.73168" lon="5.96361">
        <ele>358.7</ele>
        <time>2023-06-11T10:03:32Z</time>
      </trkpt>
      <trkpt lat="43.73168" lon="5.96361">
        <ele>358.7</ele>
        <time>2023-06-11T10:03:33Z</time>
      </trkpt>
      <trkpt lat="43.73168" lon="5.96361">
        <ele>358.7</ele>
        <time>2023-06-11T10:03:34Z</time>
      </trkpt>
      <trkpt lat="43.73168" lon="5.96361">
        <ele>358.7</ele>
        <time>2023-06-11T10:03:35Z</time>
      </trkpt>
      <trkpt lat="43.73168" lon="5.96361">
        <ele>358.6</ele>
        <time>2023-06-11T10:03:36Z</time>
      </trkpt>
      <trkpt lat="43.73168" lon="5.96361">
        <ele>358.7</ele>
        <time>2023-06-11T10:03:37Z</time>
      </trkpt>
      <trkpt lat="43.73168" lon="5.96361">
        <ele>358.7</ele>
        <time>2023-06-11T10:03:38Z</time>
      </trkpt>
      <trkpt lat="43.73168" lon="5.96362">
        <ele>358.8</ele>
        <time>2023-06-11T10:03:39Z</time>
      </trkpt>
      <trkpt lat="43.73168" lon="5.96362">
        <ele>358.8</ele>
        <time>2023-06-11T10:03:40Z</time>
      </trkpt>
      <trkpt lat="43.73168" lon="5.96362">
        <ele>358.8</ele>
        <time>2023-06-11T10:03:41Z</time>
      </trkpt>
      <trkpt lat="43.73168" lon="5.96362">
        <ele>358.8</ele>
        <time>2023-06-11T10:03:42Z</time>
      </trkpt>
      <trkpt lat="43.73168" lon="5.96362">
        <ele>358.7</ele>
        <time>2023-06-11T10:03:43Z</time>
      </trkpt>
      <trkpt lat="43.73169" lon="5.96362">
        <ele>358.7</ele>
        <time>2023-06-11T10:03:44Z</time>
      </trkpt>
      <trkpt lat="43.73169" lon="5.96362">
        <ele>358.7</ele>
        <time>2023-06-11T10:03:45Z</time>
      </trkpt>
      <trkpt lat="43.73169" lon="5.96362">
        <ele>358.6</ele>
        <time>2023-06-11T10:03:46Z</time>
      </trkpt>
      <trkpt lat="43.73169" lon="5.96362">
        <ele>358.5</ele>
        <time>2023-06-11T10:03:47Z</time>
      </trkpt>
      <trkpt lat="43.73169" lon="5.96362">
        <ele>358.5</ele>
        <time>2023-06-11T10:03:48Z</time>
      </trkpt>
      <trkpt lat="43.73169" lon="5.96362">
        <ele>358.5</ele>
        <time>2023-06-11T10:03:49Z</time>
      </trkpt>
      <trkpt lat="43.73169" lon="5.96362">
        <ele>358.5</ele>
        <time>2023-06-11T10:03:50Z</time>
      </trkpt>
      <trkpt lat="43.73169" lon="5.96362">
        <ele>358.5</ele>
        <time>2023-06-11T10:03:51Z</time>
      </trkpt>
      <trkpt lat="43.73169" lon="5.96362">
        <ele>358.5</ele>
        <time>2023-06-11T10:03:52Z</time>
      </trkpt>
      <trkpt lat="43.73169" lon="5.96362">
        <ele>358.5</ele>
        <time>2023-06-11T10:03:53Z</time>
      </trkpt>
      <trkpt lat="43.73169" lon="5.96362">
        <ele>358.5</ele>
        <time>2023-06-11T10:03:54Z</time>
      </trkpt>
      <trkpt lat="43.73169" lon="5.96362">
        <ele>358.4</ele>
        <time>2023-06-11T10:03:55Z</time>
      </trkpt>
      <trkpt lat="43.73169" lon="5.96362">
        <ele>358.4</ele>
        <time>2023-06-11T10:03:56Z</time>
      </trkpt>
      <trkpt lat="43.73169" lon="5.96362">
        <ele>358.4</ele>
        <time>2023-06-11T10:03:57Z</time>
      </trkpt>
      <trkpt lat="43.73169" lon="5.96362">
        <ele>358.3</ele>
        <time>2023-06-11T10:03:58Z</time>
      </trkpt>
      <trkpt lat="43.73169" lon="5.96362">
        <ele>358.3</ele>
        <time>2023-06-11T10:03:59Z</time>
      </trkpt>
      <trkpt lat="43.73169" lon="5.96362">
        <ele>358.3</ele>
        <time>2023-06-11T10:04:00Z</time>
      </trkpt>
      <trkpt lat="43.73169" lon="5.96362">
        <ele>358.3</ele>
        <time>2023-06-11T10:04:01Z</time>
      </trkpt>
      <trkpt lat="43.73169" lon="5.96362">
        <ele>358.4</ele>
        <time>2023-06-11T10:04:02Z</time>
      </trkpt>
      <trkpt lat="43.73169" lon="5.96362">
        <ele>358.3</ele>
        <time>2023-06-11T10:04:03Z</time>
      </trkpt>
      <trkpt lat="43.73169" lon="5.96362">
        <ele>358.3</ele>
        <time>2023-06-11T10:04:04Z</time>
      </trkpt>
      <trkpt lat="43.73168" lon="5.96362">
        <ele>358.4</ele>
        <time>2023-06-11T10:04:05Z</time>
      </trkpt>
      <trkpt lat="43.73168" lon="5.96362">
        <ele>358.4</ele>
        <time>2023-06-11T10:04:06Z</time>
      </trkpt>
      <trkpt lat="43.73168" lon="5.96362">
        <ele>358.4</ele>
        <time>2023-06-11T10:04:07Z</time>
      </trkpt>
      <trkpt lat="43.73168" lon="5.96362">
        <ele>358.5</ele>
        <time>2023-06-11T10:04:08Z</time>
      </trkpt>
      <trkpt lat="43.73168" lon="5.96362">
        <ele>358.5</ele>
        <time>2023-06-11T10:04:09Z</time>
      </trkpt>
      <trkpt lat="43.73168" lon="5.96362">
        <ele>358.5</ele>
        <time>2023-06-11T10:04:10Z</time>
      </trkpt>
      <trkpt lat="43.73167" lon="5.96362">
        <ele>358.5</ele>
        <time>2023-06-11T10:04:11Z</time>
      </trkpt>
      <trkpt lat="43.73167" lon="5.96362">
        <ele>358.5</ele>
        <time>2023-06-11T10:04:12Z</time>
      </trkpt>
      <trkpt lat="43.73167" lon="5.96362">
        <ele>358.6</ele>
        <time>2023-06-11T10:04:13Z</time>
      </trkpt>
      <trkpt lat="43.73167" lon="5.96362">
        <ele>358.6</ele>
        <time>2023-06-11T10:04:14Z</time>
      </trkpt>
      <trkpt lat="43.73167" lon="5.96362">
        <ele>358.6</ele>
        <time>2023-06-11T10:04:15Z</time>
      </trkpt>
      <trkpt lat="43.73167" lon="5.96362">
        <ele>358.6</ele>
        <time>2023-06-11T10:04:16Z</time>
      </trkpt>
      <trkpt lat="43.73167" lon="5.96362">
        <ele>358.6</ele>
        <time>2023-06-11T10:04:17Z</time>
      </trkpt>
      <trkpt lat="43.73167" lon="5.96362">
        <ele>358.6</ele>
        <time>2023-06-11T10:04:18Z</time>
      </trkpt>
      <trkpt lat="43.73167" lon="5.96362">
        <ele>358.6</ele>
        <time>2023-06-11T10:04:19Z</time>
      </trkpt>
      <trkpt lat="43.73167" lon="5.96361">
        <ele>358.5</ele>
        <time>2023-06-11T10:04:20Z</time>
      </trkpt>
      <trkpt lat="43.73167" lon="5.96361">
        <ele>358.4</ele>
        <time>2023-06-11T10:04:21Z</time>
      </trkpt>
      <trkpt lat="43.73167" lon="5.96361">
        <ele>358.4</ele>
        <time>2023-06-11T10:04:22Z</time>
      </trkpt>
      <trkpt lat="43.73167" lon="5.96362">
        <ele>358.4</ele>
        <time>2023-06-11T10:04:23Z</time>
      </trkpt>
      <trkpt lat="43.73167" lon="5.96362">
        <ele>358.4</ele>
        <time>2023-06-11T10:04:24Z</time>
      </trkpt>
      <trkpt lat="43.73167" lon="5.96362">
        <ele>358.4</ele>
        <time>2023-06-11T10:04:25Z</time>
      </trkpt>
      <trkpt lat="43.73167" lon="5.96361">
        <ele>358.5</ele>
        <time>2023-06-11T10:04:26Z</time>
      </trkpt>
      <trkpt lat="43.73167" lon="5.96361">
        <ele>358.5</ele>
        <time>2023-06-11T10:04:27Z</time>
      </trkpt>
      <trkpt lat="43.73167" lon="5.96362">
        <ele>358.5</ele>
        <time>2023-06-11T10:04:28Z</time>
      </trkpt>
      <trkpt lat="43.73167" lon="5.96361">
        <ele>358.5</ele>
        <time>2023-06-11T10:04:29Z</time>
      </trkpt>
      <trkpt lat="43.73166" lon="5.96361">
        <ele>358.5</ele>
        <time>2023-06-11T10:04:30Z</time>
      </trkpt>
      <trkpt lat="43.73166" lon="5.96361">
        <ele>358.4</ele>
        <time>2023-06-11T10:04:31Z</time>
      </trkpt>
      <trkpt lat="43.73166" lon="5.96361">
        <ele>358.4</ele>
        <time>2023-06-11T10:04:32Z</time>
      </trkpt>
      <trkpt lat="43.73166" lon="5.96361">
        <ele>358.4</ele>
        <time>2023-06-11T10:04:33Z</time>
      </trkpt>
      <trkpt lat="43.73166" lon="5.96361">
        <ele>358.5</ele>
        <time>2023-06-11T10:04:34Z</time>
      </trkpt>
      <trkpt lat="43.73166" lon="5.96361">
        <ele>358.5</ele>
        <time>2023-06-11T10:04:35Z</time>
      </trkpt>
      <trkpt lat="43.73166" lon="5.96361">
        <ele>358.6</ele>
        <time>2023-06-11T10:04:36Z</time>
      </trkpt>
      <trkpt lat="43.73166" lon="5.96361">
        <ele>358.6</ele>
        <time>2023-06-11T10:04:37Z</time>
      </trkpt>
      <trkpt lat="43.73166" lon="5.96361">
        <ele>358.7</ele>
        <time>2023-06-11T10:04:38Z</time>
      </trkpt>
      <trkpt lat="43.73166" lon="5.9636">
        <ele>358.7</ele>
        <time>2023-06-11T10:04:39Z</time>
      </trkpt>
      <trkpt lat="43.73166" lon="5.9636">
        <ele>358.8</ele>
        <time>2023-06-11T10:04:40Z</time>
      </trkpt>
      <trkpt lat="43.73166" lon="5.9636">
        <ele>358.8</ele>
        <time>2023-06-11T10:04:41Z</time>
      </trkpt>
      <trkpt lat="43.73166" lon="5.9636">
        <ele>358.7</ele>
        <time>2023-06-11T10:04:42Z</time>
      </trkpt>
      <trkpt lat="43.73166" lon="5.9636">
        <ele>358.7</ele>
        <time>2023-06-11T10:04:43Z</time>
      </trkpt>
      <trkpt lat="43.73166" lon="5.9636">
        <ele>358.7</ele>
        <time>2023-06-11T10:04:44Z</time>
      </trkpt>
      <trkpt lat="43.73166" lon="5.9636">
        <ele>358.7</ele>
        <time>2023-06-11T10:04:45Z</time>
      </trkpt>
      <trkpt lat="43.73166" lon="5.9636">
        <ele>358.8</ele>
        <time>2023-06-11T10:04:46Z</time>
      </trkpt>
      <trkpt lat="43.73166" lon="5.9636">
        <ele>358.8</ele>
        <time>2023-06-11T10:04:47Z</time>
      </trkpt>
      <trkpt lat="43.73166" lon="5.96359">
        <ele>358.7</ele>
        <time>2023-06-11T10:04:48Z</time>
      </trkpt>
      <trkpt lat="43.73166" lon="5.96359">
        <ele>358.7</ele>
        <time>2023-06-11T10:04:49Z</time>
      </trkpt>
      <trkpt lat="43.73166" lon="5.96359">
        <ele>358.7</ele>
        <time>2023-06-11T10:04:50Z</time>
      </trkpt>
      <trkpt lat="43.73166" lon="5.96359">
        <ele>358.7</ele>
        <time>2023-06-11T10:04:51Z</time>
      </trkpt>
      <trkpt lat="43.73166" lon="5.96359">
        <ele>358.7</ele>
        <time>2023-06-11T10:04:52Z</time>
      </trkpt>
      <trkpt lat="43.73166" lon="5.96359">
        <ele>358.7</ele>
        <time>2023-06-11T10:04:53Z</time>
      </trkpt>
      <trkpt lat="43.73166" lon="5.96359">
        <ele>358.7</ele>
        <time>2023-06-11T10:04:54Z</time>
      </trkpt>
      <trkpt lat="43.73166" lon="5.96359">
        <ele>358.8</ele>
        <time>2023-06-11T10:04:55Z</time>
      </trkpt>
      <trkpt lat="43.73166" lon="5.96359">
        <ele>358.7</ele>
        <time>2023-06-11T10:04:56Z</time>
      </trkpt>
      <trkpt lat="43.73166" lon="5.96359">
        <ele>358.8</ele>
        <time>2023-06-11T10:04:57Z</time>
      </trkpt>
      <trkpt lat="43.73166" lon="5.96359">
        <ele>358.7</ele>
        <time>2023-06-11T10:04:58Z</time>
      </trkpt>
      <trkpt lat="43.73166" lon="5.96359">
        <ele>358.7</ele>
        <time>2023-06-11T10:04:59Z</time>
      </trkpt>
      <trkpt lat="43.73166" lon="5.96359">
        <ele>358.7</ele>
        <time>2023-06-11T10:05:00Z</time>
      </trkpt>
      <trkpt lat="43.73166" lon="5.96359">
        <ele>358.8</ele>
        <time>2023-06-11T10:05:01Z</time>
      </trkpt>
      <trkpt lat="43.73166" lon="5.96359">
        <ele>358.8</ele>
        <time>2023-06-11T10:05:02Z</time>
      </trkpt>
      <trkpt lat="43.73166" lon="5.96359">
        <ele>358.9</ele>
        <time>2023-06-11T10:05:03Z</time>
      </trkpt>
      <trkpt lat="43.73166" lon="5.96359">
        <ele>358.8</ele>
        <time>2023-06-11T10:05:04Z</time>
      </trkpt>
      <trkpt lat="43.73166" lon="5.96359">
        <ele>358.9</ele>
        <time>2023-06-11T10:05:05Z</time>
      </trkpt>
      <trkpt lat="43.73166" lon="5.96359">
        <ele>358.9</ele>
        <time>2023-06-11T10:05:06Z</time>
      </trkpt>
      <trkpt lat="43.73166" lon="5.96359">
        <ele>358.9</ele>
        <time>2023-06-11T10:05:07Z</time>
      </trkpt>
      <trkpt lat="43.73166" lon="5.96359">
        <ele>358.9</ele>
        <time>2023-06-11T10:05:08Z</time>
      </trkpt>
      <trkpt lat="43.73167" lon="5.96359">
        <ele>358.9</ele>
        <time>2023-06-11T10:05:09Z</time>
      </trkpt>
      <trkpt lat="43.73167" lon="5.96359">
        <ele>358.9</ele>
        <time>2023-06-11T10:05:10Z</time>
      </trkpt>
      <trkpt lat="43.73167" lon="5.96359">
        <ele>358.9</ele>
        <time>2023-06-11T10:05:11Z</time>
      </trkpt>
      <trkpt lat="43.73167" lon="5.9636">
        <ele>358.9</ele>
        <time>2023-06-11T10:05:12Z</time>
      </trkpt>
      <trkpt lat="43.73167" lon="5.9636">
        <ele>358.9</ele>
        <time>2023-06-11T10:05:13Z</time>
      </trkpt>
      <trkpt lat="43.73167" lon="5.9636">
        <ele>358.9</ele>
        <time>2023-06-11T10:05:14Z</time>
      </trkpt>
      <trkpt lat="43.73167" lon="5.9636">
        <ele>358.8</ele>
        <time>2023-06-11T10:05:15Z</time>
      </trkpt>
      <trkpt lat="43.73167" lon="5.9636">
        <ele>358.8</ele>
        <time>2023-06-11T10:05:16Z</time>
      </trkpt>
      <trkpt lat="43.73167" lon="5.9636">
        <ele>358.8</ele>
        <time>2023-06-11T10:05:17Z</time>
      </trkpt>
      <trkpt lat="43.73167" lon="5.96361">
        <ele>358.8</ele>
        <time>2023-06-11T10:05:18Z</time>
      </trkpt>
      <trkpt lat="43.73167" lon="5.96361">
        <ele>358.8</ele>
        <time>2023-06-11T10:05:19Z</time>
      </trkpt>
      <trkpt lat="43.73168" lon="5.96361">
        <ele>358.8</ele>
        <time>2023-06-11T10:05:20Z</time>
      </trkpt>
      <trkpt lat="43.73168" lon="5.96361">
        <ele>358.7</ele>
        <time>2023-06-11T10:05:21Z</time>
      </trkpt>
      <trkpt lat="43.73168" lon="5.96361">
        <ele>358.7</ele>
        <time>2023-06-11T10:05:22Z</time>
      </trkpt>
      <trkpt lat="43.73168" lon="5.96361">
        <ele>358.7</ele>
        <time>2023-06-11T10:05:23Z</time>
      </trkpt>
      <trkpt lat="43.73168" lon="5.96361">
        <ele>358.7</ele>
        <time>2023-06-11T10:05:24Z</time>
      </trkpt>
      <trkpt lat="43.73168" lon="5.96361">
        <ele>358.8</ele>
        <time>2023-06-11T10:05:25Z</time>
      </trkpt>
      <trkpt lat="43.73168" lon="5.96361">
        <ele>358.8</ele>
        <time>2023-06-11T10:05:26Z</time>
      </trkpt>
      <trkpt lat="43.73168" lon="5.96361">
        <ele>358.8</ele>
        <time>2023-06-11T10:05:27Z</time>
      </trkpt>
      <trkpt lat="43.73168" lon="5.96361">
        <ele>358.8</ele>
        <time>2023-06-11T10:05:28Z</time>
      </trkpt>
      <trkpt lat="43.73168" lon="5.96361">
        <ele>358.7</ele>
        <time>2023-06-11T10:05:29Z</time>
      </trkpt>
      <trkpt lat="43.73168" lon="5.96361">
        <ele>358.7</ele>
        <time>2023-06-11T10:05:30Z</time>
      </trkpt>
      <trkpt lat="43.73168" lon="5.96361">
        <ele>358.7</ele>
        <time>2023-06-11T10:05:31Z</time>
      </trkpt>
      <trkpt lat="43.73169" lon="5.9636">
        <ele>358.8</ele>
        <time>2023-06-11T10:05:32Z</time>
      </trkpt>
      <trkpt lat="43.73169" lon="5.9636">
        <ele>358.8</ele>
        <time>2023-06-11T10:05:33Z</time>
      </trkpt>
      <trkpt lat="43.73169" lon="5.9636">
        <ele>358.8</ele>
        <time>2023-06-11T10:05:34Z</time>
      </trkpt>
      <trkpt lat="43.73169" lon="5.9636">
        <ele>358.8</ele>
        <time>2023-06-11T10:05:35Z</time>
      </trkpt>
      <trkpt lat="43.73169" lon="5.9636">
        <ele>358.8</ele>
        <time>2023-06-11T10:05:36Z</time>
      </trkpt>
      <trkpt lat="43.73169" lon="5.9636">
        <ele>358.7</ele>
        <time>2023-06-11T10:05:37Z</time>
      </trkpt>
      <trkpt lat="43.73169" lon="5.9636">
        <ele>358.7</ele>
        <time>2023-06-11T10:05:38Z</time>
      </trkpt>
      <trkpt lat="43.73169" lon="5.9636">
        <ele>358.7</ele>
        <time>2023-06-11T10:05:39Z</time>
      </trkpt>
      <trkpt lat="43.73169" lon="5.9636">
        <ele>358.7</ele>
        <time>2023-06-11T10:05:40Z</time>
      </trkpt>
      <trkpt lat="43.73169" lon="5.9636">
        <ele>358.8</ele>
        <time>2023-06-11T10:05:41Z</time>
      </trkpt>
      <trkpt lat="43.73169" lon="5.9636">
        <ele>358.8</ele>
        <time>2023-06-11T10:05:42Z</time>
      </trkpt>
      <trkpt lat="43.73169" lon="5.9636">
        <ele>358.8</ele>
        <time>2023-06-11T10:05:43Z</time>
      </trkpt>
      <trkpt lat="43.73169" lon="5.9636">
        <ele>358.9</ele>
        <time>2023-06-11T10:05:44Z</time>
      </trkpt>
      <trkpt lat="43.73169" lon="5.96359">
        <ele>359</ele>
        <time>2023-06-11T10:05:45Z</time>
      </trkpt>
      <trkpt lat="43.73169" lon="5.9636">
        <ele>359.1</ele>
        <time>2023-06-11T10:05:46Z</time>
      </trkpt>
      <trkpt lat="43.73169" lon="5.9636">
        <ele>359.1</ele>
        <time>2023-06-11T10:05:47Z</time>
      </trkpt>
      <trkpt lat="43.73169" lon="5.9636">
        <ele>359.1</ele>
        <time>2023-06-11T10:05:48Z</time>
      </trkpt>
      <trkpt lat="43.73169" lon="5.9636">
        <ele>359.1</ele>
        <time>2023-06-11T10:05:49Z</time>
      </trkpt>
      <trkpt lat="43.73169" lon="5.9636">
        <ele>359</ele>
        <time>2023-06-11T10:05:50Z</time>
      </trkpt>
      <trkpt lat="43.73169" lon="5.9636">
        <ele>359</ele>
        <time>2023-06-11T10:05:51Z</time>
      </trkpt>
      <trkpt lat="43.73169" lon="5.9636">
        <ele>358.9</ele>
        <time>2023-06-11T10:05:52Z</time>
      </trkpt>
      <trkpt lat="43.73169" lon="5.9636">
        <ele>359</ele>
        <time>2023-06-11T10:05:53Z</time>
      </trkpt>
      <trkpt lat="43.73169" lon="5.9636">
        <ele>359</ele>
        <time>2023-06-11T10:05:54Z</time>
      </trkpt>
      <trkpt lat="43.73169" lon="5.9636">
        <ele>358.9</ele>
        <time>2023-06-11T10:05:55Z</time>
      </trkpt>
      <trkpt lat="43.73169" lon="5.9636">
        <ele>358.9</ele>
        <time>2023-06-11T10:05:56Z</time>
      </trkpt>
      <trkpt lat="43.73168" lon="5.9636">
        <ele>358.8</ele>
        <time>2023-06-11T10:05:57Z</time>
      </trkpt>
      <trkpt lat="43.73168" lon="5.96361">
        <ele>358.9</ele>
        <time>2023-06-11T10:05:58Z</time>
      </trkpt>
      <trkpt lat="43.73169" lon="5.96361">
        <ele>358.9</ele>
        <time>2023-06-11T10:05:59Z</time>
      </trkpt>
      <trkpt lat="43.73169" lon="5.96361">
        <ele>358.9</ele>
        <time>2023-06-11T10:06:00Z</time>
      </trkpt>
      <trkpt lat="43.73168" lon="5.96361">
        <ele>358.9</ele>
        <time>2023-06-11T10:06:01Z</time>
      </trkpt>
      <trkpt lat="43.73168" lon="5.96361">
        <ele>358.8</ele>
        <time>2023-06-11T10:06:02Z</time>
      </trkpt>
      <trkpt lat="43.73169" lon="5.96362">
        <ele>358.8</ele>
        <time>2023-06-11T10:06:03Z</time>
      </trkpt>
      <trkpt lat="43.73169" lon="5.96362">
        <ele>358.8</ele>
        <time>2023-06-11T10:06:04Z</time>
      </trkpt>
      <trkpt lat="43.73169" lon="5.96361">
        <ele>358.8</ele>
        <time>2023-06-11T10:06:05Z</time>
      </trkpt>
      <trkpt lat="43.73169" lon="5.96361">
        <ele>358.8</ele>
        <time>2023-06-11T10:06:06Z</time>
      </trkpt>
      <trkpt lat="43.73169" lon="5.96361">
        <ele>358.8</ele>
        <time>2023-06-11T10:06:07Z</time>
      </trkpt>
      <trkpt lat="43.73169" lon="5.96361">
        <ele>358.8</ele>
        <time>2023-06-11T10:06:08Z</time>
      </trkpt>
      <trkpt lat="43.73169" lon="5.96361">
        <ele>358.8</ele>
        <time>2023-06-11T10:06:09Z</time>
      </trkpt>
      <trkpt lat="43.73169" lon="5.96361">
        <ele>358.8</ele>
        <time>2023-06-11T10:06:10Z</time>
      </trkpt>
      <trkpt lat="43.73168" lon="5.96361">
        <ele>358.8</ele>
        <time>2023-06-11T10:06:11Z</time>
      </trkpt>
      <trkpt lat="43.73168" lon="5.96361">
        <ele>358.8</ele>
        <time>2023-06-11T10:06:12Z</time>
      </trkpt>
      <trkpt lat="43.73168" lon="5.96361">
        <ele>358.8</ele>
        <time>2023-06-11T10:06:13Z</time>
      </trkpt>
      <trkpt lat="43.73168" lon="5.96361">
        <ele>358.8</ele>
        <time>2023-06-11T10:06:14Z</time>
      </trkpt>
      <trkpt lat="43.73168" lon="5.96361">
        <ele>358.8</ele>
        <time>2023-06-11T10:06:15Z</time>
      </trkpt>
      <trkpt lat="43.73168" lon="5.96361">
        <ele>358.8</ele>
        <time>2023-06-11T10:06:16Z</time>
      </trkpt>
      <trkpt lat="43.73168" lon="5.96361">
        <ele>358.9</ele>
        <time>2023-06-11T10:06:17Z</time>
      </trkpt>
      <trkpt lat="43.73168" lon="5.96361">
        <ele>358.9</ele>
        <time>2023-06-11T10:06:18Z</time>
      </trkpt>
      <trkpt lat="43.73168" lon="5.9636">
        <ele>358.8</ele>
        <time>2023-06-11T10:06:19Z</time>
      </trkpt>
      <trkpt lat="43.73168" lon="5.9636">
        <ele>358.8</ele>
        <time>2023-06-11T10:06:20Z</time>
      </trkpt>
      <trkpt lat="43.73167" lon="5.9636">
        <ele>358.8</ele>
        <time>2023-06-11T10:06:21Z</time>
      </trkpt>
      <trkpt lat="43.73167" lon="5.96359">
        <ele>358.9</ele>
        <time>2023-06-11T10:06:22Z</time>
      </trkpt>
      <trkpt lat="43.73167" lon="5.96359">
        <ele>358.8</ele>
        <time>2023-06-11T10:06:23Z</time>
      </trkpt>
      <trkpt lat="43.73167" lon="5.96359">
        <ele>358.8</ele>
        <time>2023-06-11T10:06:24Z</time>
      </trkpt>
      <trkpt lat="43.73167" lon="5.96359">
        <ele>358.7</ele>
        <time>2023-06-11T10:06:25Z</time>
      </trkpt>
      <trkpt lat="43.73167" lon="5.96359">
        <ele>358.7</ele>
        <time>2023-06-11T10:06:26Z</time>
      </trkpt>
      <trkpt lat="43.73167" lon="5.96359">
        <ele>358.7</ele>
        <time>2023-06-11T10:06:27Z</time>
      </trkpt>
      <trkpt lat="43.73167" lon="5.96359">
        <ele>358.7</ele>
        <time>2023-06-11T10:06:28Z</time>
      </trkpt>
      <trkpt lat="43.73167" lon="5.96359">
        <ele>358.7</ele>
        <time>2023-06-11T10:06:29Z</time>
      </trkpt>
      <trkpt lat="43.73166" lon="5.96359">
        <ele>358.6</ele>
        <time>2023-06-11T10:06:30Z</time>
      </trkpt>
      <trkpt lat="43.73166" lon="5.96359">
        <ele>358.6</ele>
        <time>2023-06-11T10:06:31Z</time>
      </trkpt>
      <trkpt lat="43.73166" lon="5.96359">
        <ele>358.6</ele>
        <time>2023-06-11T10:06:32Z</time>
      </trkpt>
      <trkpt lat="43.73166" lon="5.96359">
        <ele>358.6</ele>
        <time>2023-06-11T10:06:33Z</time>
      </trkpt>
      <trkpt lat="43.73166" lon="5.96359">
        <ele>358.6</ele>
        <time>2023-06-11T10:06:34Z</time>
      </trkpt>
      <trkpt lat="43.73166" lon="5.96359">
        <ele>358.6</ele>
        <time>2023-06-11T10:06:35Z</time>
      </trkpt>
      <trkpt lat="43.73166" lon="5.96359">
        <ele>358.6</ele>
        <time>2023-06-11T10:06:36Z</time>
      </trkpt>
      <trkpt lat="43.73166" lon="5.96359">
        <ele>358.6</ele>
        <time>2023-06-11T10:06:37Z</time>
      </trkpt>
      <trkpt lat="43.73166" lon="5.96359">
        <ele>358.6</ele>
        <time>2023-06-11T10:06:38Z</time>
      </trkpt>
      <trkpt lat="43.73166" lon="5.96359">
        <ele>358.6</ele>
        <time>2023-06-11T10:06:39Z</time>
      </trkpt>
      <trkpt lat="43.73166" lon="5.96359">
        <ele>358.6</ele>
        <time>2023-06-11T10:06:40Z</time>
      </trkpt>
      <trkpt lat="43.73166" lon="5.96359">
        <ele>358.6</ele>
        <time>2023-06-11T10:06:41Z</time>
      </trkpt>
      <trkpt lat="43.73166" lon="5.96359">
        <ele>358.6</ele>
        <time>2023-06-11T10:06:42Z</time>
      </trkpt>
      <trkpt lat="43.73166" lon="5.96359">
        <ele>358.7</ele>
        <time>2023-06-11T10:06:43Z</time>
      </trkpt>
      <trkpt lat="43.73166" lon="5.96359">
        <ele>358.6</ele>
        <time>2023-06-11T10:06:44Z</time>
      </trkpt>
      <trkpt lat="43.73166" lon="5.96359">
        <ele>358.6</ele>
        <time>2023-06-11T10:06:45Z</time>
      </trkpt>
      <trkpt lat="43.73166" lon="5.96359">
        <ele>358.6</ele>
        <time>2023-06-11T10:06:46Z</time>
      </trkpt>
      <trkpt lat="43.73166" lon="5.96359">
        <ele>358.6</ele>
        <time>2023-06-11T10:06:47Z</time>
      </trkpt>
      <trkpt lat="43.73166" lon="5.96359">
        <ele>358.6</ele>
        <time>2023-06-11T10:06:48Z</time>
      </trkpt>
      <trkpt lat="43.73166" lon="5.96359">
        <ele>358.6</ele>
        <time>2023-06-11T10:06:49Z</time>
      </trkpt>
      <trkpt lat="43.73166" lon="5.96359">
        <ele>358.6</ele>
        <time>2023-06-11T10:06:50Z</time>
      </trkpt>
      <trkpt lat="43.73166" lon="5.96359">
        <ele>358.7</ele>
        <time>2023-06-11T10:06:51Z</time>
      </trkpt>
      <trkpt lat="43.73166" lon="5.96359">
        <ele>358.7</ele>
        <time>2023-06-11T10:06:52Z</time>
      </trkpt>
      <trkpt lat="43.73166" lon="5.96359">
        <ele>358.6</ele>
        <time>2023-06-11T10:06:53Z</time>
      </trkpt>
      <trkpt lat="43.73166" lon="5.96358">
        <ele>358.5</ele>
        <time>2023-06-11T10:06:54Z</time>
      </trkpt>
      <trkpt lat="43.73166" lon="5.96358">
        <ele>358.6</ele>
        <time>2023-06-11T10:06:55Z</time>
      </trkpt>
      <trkpt lat="43.73166" lon="5.96358">
        <ele>358.6</ele>
        <time>2023-06-11T10:06:56Z</time>
      </trkpt>
      <trkpt lat="43.73166" lon="5.96358">
        <ele>358.6</ele>
        <time>2023-06-11T10:06:57Z</time>
      </trkpt>
      <trkpt lat="43.73166" lon="5.96358">
        <ele>358.6</ele>
        <time>2023-06-11T10:06:58Z</time>
      </trkpt>
      <trkpt lat="43.73166" lon="5.96358">
        <ele>358.6</ele>
        <time>2023-06-11T10:06:59Z</time>
      </trkpt>
      <trkpt lat="43.73166" lon="5.96358">
        <ele>358.7</ele>
        <time>2023-06-11T10:07:00Z</time>
      </trkpt>
      <trkpt lat="43.73166" lon="5.96358">
        <ele>358.7</ele>
        <time>2023-06-11T10:07:01Z</time>
      </trkpt>
      <trkpt lat="43.73166" lon="5.96358">
        <ele>358.7</ele>
        <time>2023-06-11T10:07:02Z</time>
      </trkpt>
      <trkpt lat="43.73166" lon="5.96358">
        <ele>358.7</ele>
        <time>2023-06-11T10:07:03Z</time>
      </trkpt>
      <trkpt lat="43.73166" lon="5.96358">
        <ele>358.7</ele>
        <time>2023-06-11T10:07:04Z</time>
      </trkpt>
      <trkpt lat="43.73166" lon="5.96358">
        <ele>358.6</ele>
        <time>2023-06-11T10:07:05Z</time>
      </trkpt>
      <trkpt lat="43.73166" lon="5.96358">
        <ele>358.6</ele>
        <time>2023-06-11T10:07:06Z</time>
      </trkpt>
      <trkpt lat="43.73166" lon="5.96358">
        <ele>358.6</ele>
        <time>2023-06-11T10:07:07Z</time>
      </trkpt>
      <trkpt lat="43.73166" lon="5.96358">
        <ele>358.6</ele>
        <time>2023-06-11T10:07:08Z</time>
      </trkpt>
      <trkpt lat="43.73166" lon="5.96358">
        <ele>358.7</ele>
        <time>2023-06-11T10:07:09Z</time>
      </trkpt>
      <trkpt lat="43.73167" lon="5.96358">
        <ele>358.7</ele>
        <time>2023-06-11T10:07:10Z</time>
      </trkpt>
      <trkpt lat="43.73167" lon="5.96358">
        <ele>358.7</ele>
        <time>2023-06-11T10:07:11Z</time>
      </trkpt>
      <trkpt lat="43.73167" lon="5.96358">
        <ele>358.7</ele>
        <time>2023-06-11T10:07:12Z</time>
      </trkpt>
      <trkpt lat="43.73167" lon="5.96358">
        <ele>358.7</ele>
        <time>2023-06-11T10:07:13Z</time>
      </trkpt>
      <trkpt lat="43.73167" lon="5.96359">
        <ele>358.7</ele>
        <time>2023-06-11T10:07:14Z</time>
      </trkpt>
      <trkpt lat="43.73167" lon="5.96359">
        <ele>358.6</ele>
        <time>2023-06-11T10:07:15Z</time>
      </trkpt>
      <trkpt lat="43.73167" lon="5.96359">
        <ele>358.6</ele>
        <time>2023-06-11T10:07:16Z</time>
      </trkpt>
      <trkpt lat="43.73167" lon="5.96359">
        <ele>358.6</ele>
        <time>2023-06-11T10:07:17Z</time>
      </trkpt>
      <trkpt lat="43.73168" lon="5.96359">
        <ele>358.7</ele>
        <time>2023-06-11T10:07:18Z</time>
      </trkpt>
      <trkpt lat="43.73168" lon="5.96359">
        <ele>358.8</ele>
        <time>2023-06-11T10:07:19Z</time>
      </trkpt>
      <trkpt lat="43.73168" lon="5.96359">
        <ele>358.8</ele>
        <time>2023-06-11T10:07:20Z</time>
      </trkpt>
      <trkpt lat="43.73168" lon="5.96359">
        <ele>358.9</ele>
        <time>2023-06-11T10:07:21Z</time>
      </trkpt>
      <trkpt lat="43.73168" lon="5.96359">
        <ele>359</ele>
        <time>2023-06-11T10:07:22Z</time>
      </trkpt>
      <trkpt lat="43.73168" lon="5.96359">
        <ele>359</ele>
        <time>2023-06-11T10:07:23Z</time>
      </trkpt>
      <trkpt lat="43.73168" lon="5.96359">
        <ele>359</ele>
        <time>2023-06-11T10:07:24Z</time>
      </trkpt>
      <trkpt lat="43.73168" lon="5.96359">
        <ele>359</ele>
        <time>2023-06-11T10:07:25Z</time>
      </trkpt>
      <trkpt lat="43.73168" lon="5.96359">
        <ele>359</ele>
        <time>2023-06-11T10:07:26Z</time>
      </trkpt>
      <trkpt lat="43.73168" lon="5.96359">
        <ele>359.1</ele>
        <time>2023-06-11T10:07:27Z</time>
      </trkpt>
      <trkpt lat="43.73168" lon="5.96359">
        <ele>359.2</ele>
        <time>2023-06-11T10:07:28Z</time>
      </trkpt>
      <trkpt lat="43.73168" lon="5.96359">
        <ele>359.2</ele>
        <time>2023-06-11T10:07:29Z</time>
      </trkpt>
      <trkpt lat="43.73168" lon="5.96359">
        <ele>359.2</ele>
        <time>2023-06-11T10:07:30Z</time>
      </trkpt>
      <trkpt lat="43.73168" lon="5.96359">
        <ele>359.1</ele>
        <time>2023-06-11T10:07:31Z</time>
      </trkpt>
      <trkpt lat="43.73168" lon="5.96359">
        <ele>359</ele>
        <time>2023-06-11T10:07:32Z</time>
      </trkpt>
      <trkpt lat="43.73168" lon="5.96359">
        <ele>359</ele>
        <time>2023-06-11T10:07:33Z</time>
      </trkpt>
      <trkpt lat="43.73168" lon="5.96359">
        <ele>359</ele>
        <time>2023-06-11T10:07:34Z</time>
      </trkpt>
      <trkpt lat="43.73168" lon="5.96359">
        <ele>359</ele>
        <time>2023-06-11T10:07:35Z</time>
      </trkpt>
      <trkpt lat="43.73168" lon="5.9636">
        <ele>359.1</ele>
        <time>2023-06-11T10:07:36Z</time>
      </trkpt>
      <trkpt lat="43.73168" lon="5.9636">
        <ele>359.1</ele>
        <time>2023-06-11T10:07:37Z</time>
      </trkpt>
      <trkpt lat="43.73168" lon="5.96359">
        <ele>359.1</ele>
        <time>2023-06-11T10:07:38Z</time>
      </trkpt>
      <trkpt lat="43.73168" lon="5.96359">
        <ele>359.1</ele>
        <time>2023-06-11T10:07:39Z</time>
      </trkpt>
      <trkpt lat="43.73168" lon="5.96359">
        <ele>359.1</ele>
        <time>2023-06-11T10:07:40Z</time>
      </trkpt>
      <trkpt lat="43.73168" lon="5.96359">
        <ele>359.1</ele>
        <time>2023-06-11T10:07:41Z</time>
      </trkpt>
      <trkpt lat="43.73168" lon="5.96359">
        <ele>359.1</ele>
        <time>2023-06-11T10:07:42Z</time>
      </trkpt>
      <trkpt lat="43.73168" lon="5.96359">
        <ele>359.2</ele>
        <time>2023-06-11T10:07:43Z</time>
      </trkpt>
      <trkpt lat="43.73168" lon="5.96359">
        <ele>359.3</ele>
        <time>2023-06-11T10:07:44Z</time>
      </trkpt>
      <trkpt lat="43.73169" lon="5.96359">
        <ele>359.3</ele>
        <time>2023-06-11T10:07:45Z</time>
      </trkpt>
      <trkpt lat="43.73169" lon="5.9636">
        <ele>359.3</ele>
        <time>2023-06-11T10:07:46Z</time>
      </trkpt>
      <trkpt lat="43.73169" lon="5.9636">
        <ele>359.2</ele>
        <time>2023-06-11T10:07:47Z</time>
      </trkpt>
      <trkpt lat="43.73169" lon="5.9636">
        <ele>359.1</ele>
        <time>2023-06-11T10:07:48Z</time>
      </trkpt>
      <trkpt lat="43.73169" lon="5.9636">
        <ele>359.1</ele>
        <time>2023-06-11T10:07:49Z</time>
      </trkpt>
      <trkpt lat="43.73169" lon="5.9636">
        <ele>359.1</ele>
        <time>2023-06-11T10:07:50Z</time>
      </trkpt>
      <trkpt lat="43.73169" lon="5.9636">
        <ele>359.1</ele>
        <time>2023-06-11T10:07:51Z</time>
      </trkpt>
      <trkpt lat="43.73168" lon="5.9636">
        <ele>359.1</ele>
        <time>2023-06-11T10:07:52Z</time>
      </trkpt>
      <trkpt lat="43.73168" lon="5.9636">
        <ele>359</ele>
        <time>2023-06-11T10:07:53Z</time>
      </trkpt>
      <trkpt lat="43.73168" lon="5.9636">
        <ele>359</ele>
        <time>2023-06-11T10:07:54Z</time>
      </trkpt>
      <trkpt lat="43.73168" lon="5.9636">
        <ele>359</ele>
        <time>2023-06-11T10:07:55Z</time>
      </trkpt>
      <trkpt lat="43.73168" lon="5.9636">
        <ele>358.9</ele>
        <time>2023-06-11T10:07:56Z</time>
      </trkpt>
      <trkpt lat="43.73168" lon="5.9636">
        <ele>358.8</ele>
        <time>2023-06-11T10:07:57Z</time>
      </trkpt>
      <trkpt lat="43.73168" lon="5.9636">
        <ele>358.8</ele>
        <time>2023-06-11T10:07:58Z</time>
      </trkpt>
      <trkpt lat="43.73168" lon="5.96361">
        <ele>358.8</ele>
        <time>2023-06-11T10:07:59Z</time>
      </trkpt>
      <trkpt lat="43.73168" lon="5.96361">
        <ele>358.8</ele>
        <time>2023-06-11T10:08:00Z</time>
      </trkpt>
      <trkpt lat="43.73168" lon="5.96361">
        <ele>358.8</ele>
        <time>2023-06-11T10:08:01Z</time>
      </trkpt>
      <trkpt lat="43.73168" lon="5.96361">
        <ele>358.9</ele>
        <time>2023-06-11T10:08:02Z</time>
      </trkpt>
      <trkpt lat="43.73168" lon="5.96361">
        <ele>358.8</ele>
        <time>2023-06-11T10:08:03Z</time>
      </trkpt>
      <trkpt lat="43.73168" lon="5.96361">
        <ele>358.8</ele>
        <time>2023-06-11T10:08:04Z</time>
      </trkpt>
      <trkpt lat="43.73168" lon="5.96361">
        <ele>358.8</ele>
        <time>2023-06-11T10:08:05Z</time>
      </trkpt>
      <trkpt lat="43.73168" lon="5.96361">
        <ele>358.7</ele>
        <time>2023-06-11T10:08:06Z</time>
      </trkpt>
      <trkpt lat="43.73168" lon="5.96361">
        <ele>358.7</ele>
        <time>2023-06-11T10:08:07Z</time>
      </trkpt>
      <trkpt lat="43.73167" lon="5.96361">
        <ele>358.7</ele>
        <time>2023-06-11T10:08:08Z</time>
      </trkpt>
      <trkpt lat="43.73167" lon="5.96361">
        <ele>358.7</ele>
        <time>2023-06-11T10:08:09Z</time>
      </trkpt>
      <trkpt lat="43.73167" lon="5.96361">
        <ele>358.7</ele>
        <time>2023-06-11T10:08:10Z</time>
      </trkpt>
      <trkpt lat="43.73167" lon="5.96361">
        <ele>358.7</ele>
        <time>2023-06-11T10:08:11Z</time>
      </trkpt>
      <trkpt lat="43.73167" lon="5.96361">
        <ele>358.7</ele>
        <time>2023-06-11T10:08:12Z</time>
      </trkpt>
      <trkpt lat="43.73167" lon="5.96361">
        <ele>358.8</ele>
        <time>2023-06-11T10:08:13Z</time>
      </trkpt>
      <trkpt lat="43.73167" lon="5.96361">
        <ele>358.7</ele>
        <time>2023-06-11T10:08:14Z</time>
      </trkpt>
      <trkpt lat="43.73167" lon="5.9636">
        <ele>358.7</ele>
        <time>2023-06-11T10:08:15Z</time>
      </trkpt>
      <trkpt lat="43.73167" lon="5.9636">
        <ele>358.7</ele>
        <time>2023-06-11T10:08:16Z</time>
      </trkpt>
      <trkpt lat="43.73167" lon="5.9636">
        <ele>358.7</ele>
        <time>2023-06-11T10:08:17Z</time>
      </trkpt>
      <trkpt lat="43.73167" lon="5.96361">
        <ele>358.8</ele>
        <time>2023-06-11T10:08:18Z</time>
      </trkpt>
      <trkpt lat="43.73167" lon="5.96361">
        <ele>358.8</ele>
        <time>2023-06-11T10:08:19Z</time>
      </trkpt>
      <trkpt lat="43.73167" lon="5.96361">
        <ele>358.8</ele>
        <time>2023-06-11T10:08:20Z</time>
      </trkpt>
      <trkpt lat="43.73167" lon="5.96361">
        <ele>358.8</ele>
        <time>2023-06-11T10:08:21Z</time>
      </trkpt>
      <trkpt lat="43.73167" lon="5.96361">
        <ele>358.8</ele>
        <time>2023-06-11T10:08:22Z</time>
      </trkpt>
      <trkpt lat="43.73167" lon="5.96361">
        <ele>358.8</ele>
        <time>2023-06-11T10:08:23Z</time>
      </trkpt>
      <trkpt lat="43.73167" lon="5.96361">
        <ele>358.8</ele>
        <time>2023-06-11T10:08:24Z</time>
      </trkpt>
      <trkpt lat="43.73167" lon="5.96361">
        <ele>358.8</ele>
        <time>2023-06-11T10:08:25Z</time>
      </trkpt>
      <trkpt lat="43.73167" lon="5.96361">
        <ele>358.8</ele>
        <time>2023-06-11T10:08:26Z</time>
      </trkpt>
      <trkpt lat="43.73167" lon="5.96361">
        <ele>358.8</ele>
        <time>2023-06-11T10:08:27Z</time>
      </trkpt>
      <trkpt lat="43.73167" lon="5.9636">
        <ele>358.8</ele>
        <time>2023-06-11T10:08:28Z</time>
      </trkpt>
      <trkpt lat="43.73167" lon="5.9636">
        <ele>358.8</ele>
        <time>2023-06-11T10:08:29Z</time>
      </trkpt>
      <trkpt lat="43.73167" lon="5.9636">
        <ele>358.8</ele>
        <time>2023-06-11T10:08:30Z</time>
      </trkpt>
      <trkpt lat="43.73167" lon="5.9636">
        <ele>358.8</ele>
        <time>2023-06-11T10:08:31Z</time>
      </trkpt>
      <trkpt lat="43.73167" lon="5.9636">
        <ele>358.8</ele>
        <time>2023-06-11T10:08:32Z</time>
      </trkpt>
      <trkpt lat="43.73167" lon="5.9636">
        <ele>358.8</ele>
        <time>2023-06-11T10:08:33Z</time>
      </trkpt>
      <trkpt lat="43.73167" lon="5.9636">
        <ele>358.8</ele>
        <time>2023-06-11T10:08:34Z</time>
      </trkpt>
      <trkpt lat="43.73167" lon="5.9636">
        <ele>358.8</ele>
        <time>2023-06-11T10:08:35Z</time>
      </trkpt>
      <trkpt lat="43.73167" lon="5.9636">
        <ele>358.8</ele>
        <time>2023-06-11T10:08:36Z</time>
      </trkpt>
      <trkpt lat="43.73167" lon="5.9636">
        <ele>358.7</ele>
        <time>2023-06-11T10:08:37Z</time>
      </trkpt>
      <trkpt lat="43.73167" lon="5.9636">
        <ele>358.7</ele>
        <time>2023-06-11T10:08:38Z</time>
      </trkpt>
      <trkpt lat="43.73167" lon="5.9636">
        <ele>358.7</ele>
        <time>2023-06-11T10:08:39Z</time>
      </trkpt>
      <trkpt lat="43.73167" lon="5.9636">
        <ele>358.7</ele>
        <time>2023-06-11T10:08:40Z</time>
      </trkpt>
      <trkpt lat="43.73167" lon="5.9636">
        <ele>358.7</ele>
        <time>2023-06-11T10:08:41Z</time>
      </trkpt>
      <trkpt lat="43.73167" lon="5.96361">
        <ele>358.7</ele>
        <time>2023-06-11T10:08:42Z</time>
      </trkpt>
      <trkpt lat="43.73167" lon="5.96361">
        <ele>358.7</ele>
        <time>2023-06-11T10:08:43Z</time>
      </trkpt>
      <trkpt lat="43.73167" lon="5.96361">
        <ele>358.7</ele>
        <time>2023-06-11T10:08:44Z</time>
      </trkpt>
      <trkpt lat="43.73167" lon="5.96361">
        <ele>358.7</ele>
        <time>2023-06-11T10:08:45Z</time>
      </trkpt>
      <trkpt lat="43.73168" lon="5.96361">
        <ele>358.7</ele>
        <time>2023-06-11T10:08:46Z</time>
      </trkpt>
      <trkpt lat="43.73168" lon="5.96361">
        <ele>358.6</ele>
        <time>2023-06-11T10:08:47Z</time>
      </trkpt>
      <trkpt lat="43.73167" lon="5.96361">
        <ele>358.7</ele>
        <time>2023-06-11T10:08:48Z</time>
      </trkpt>
      <trkpt lat="43.73167" lon="5.96361">
        <ele>358.8</ele>
        <time>2023-06-11T10:08:49Z</time>
      </trkpt>
      <trkpt lat="43.73167" lon="5.96362">
        <ele>358.8</ele>
        <time>2023-06-11T10:08:50Z</time>
      </trkpt>
      <trkpt lat="43.73168" lon="5.96362">
        <ele>358.8</ele>
        <time>2023-06-11T10:08:51Z</time>
      </trkpt>
      <trkpt lat="43.73168" lon="5.96362">
        <ele>358.9</ele>
        <time>2023-06-11T10:08:52Z</time>
      </trkpt>
      <trkpt lat="43.73168" lon="5.96362">
        <ele>358.9</ele>
        <time>2023-06-11T10:08:53Z</time>
      </trkpt>
      <trkpt lat="43.73167" lon="5.96362">
        <ele>358.9</ele>
        <time>2023-06-11T10:08:54Z</time>
      </trkpt>
      <trkpt lat="43.73167" lon="5.96362">
        <ele>358.9</ele>
        <time>2023-06-11T10:08:55Z</time>
      </trkpt>
      <trkpt lat="43.73167" lon="5.96362">
        <ele>358.9</ele>
        <time>2023-06-11T10:08:56Z</time>
      </trkpt>
      <trkpt lat="43.73167" lon="5.96362">
        <ele>358.8</ele>
        <time>2023-06-11T10:08:57Z</time>
      </trkpt>
      <trkpt lat="43.73167" lon="5.96362">
        <ele>358.8</ele>
        <time>2023-06-11T10:08:58Z</time>
      </trkpt>
      <trkpt lat="43.73167" lon="5.96362">
        <ele>358.8</ele>
        <time>2023-06-11T10:08:59Z</time>
      </trkpt>
      <trkpt lat="43.73167" lon="5.96362">
        <ele>358.8</ele>
        <time>2023-06-11T10:09:00Z</time>
      </trkpt>
      <trkpt lat="43.73167" lon="5.96362">
        <ele>358.9</ele>
        <time>2023-06-11T10:09:01Z</time>
      </trkpt>
      <trkpt lat="43.73167" lon="5.96362">
        <ele>358.9</ele>
        <time>2023-06-11T10:09:02Z</time>
      </trkpt>
      <trkpt lat="43.73167" lon="5.96362">
        <ele>359</ele>
        <time>2023-06-11T10:09:03Z</time>
      </trkpt>
      <trkpt lat="43.73167" lon="5.96363">
        <ele>358.9</ele>
        <time>2023-06-11T10:09:04Z</time>
      </trkpt>
      <trkpt lat="43.73167" lon="5.96363">
        <ele>358.9</ele>
        <time>2023-06-11T10:09:05Z</time>
      </trkpt>
      <trkpt lat="43.73167" lon="5.96362">
        <ele>358.9</ele>
        <time>2023-06-11T10:09:06Z</time>
      </trkpt>
      <trkpt lat="43.73167" lon="5.96362">
        <ele>358.8</ele>
        <time>2023-06-11T10:09:07Z</time>
      </trkpt>
      <trkpt lat="43.73167" lon="5.96362">
        <ele>358.8</ele>
        <time>2023-06-11T10:09:08Z</time>
      </trkpt>
      <trkpt lat="43.73167" lon="5.96362">
        <ele>358.8</ele>
        <time>2023-06-11T10:09:09Z</time>
      </trkpt>
      <trkpt lat="43.73167" lon="5.96362">
        <ele>358.8</ele>
        <time>2023-06-11T10:09:10Z</time>
      </trkpt>
      <trkpt lat="43.73166" lon="5.96362">
        <ele>358.8</ele>
        <time>2023-06-11T10:09:11Z</time>
      </trkpt>
      <trkpt lat="43.73166" lon="5.96362">
        <ele>358.8</ele>
        <time>2023-06-11T10:09:12Z</time>
      </trkpt>
      <trkpt lat="43.73166" lon="5.96362">
        <ele>358.8</ele>
        <time>2023-06-11T10:09:13Z</time>
      </trkpt>
      <trkpt lat="43.73166" lon="5.96362">
        <ele>358.8</ele>
        <time>2023-06-11T10:09:14Z</time>
      </trkpt>
      <trkpt lat="43.73166" lon="5.96362">
        <ele>358.8</ele>
        <time>2023-06-11T10:09:15Z</time>
      </trkpt>
      <trkpt lat="43.73166" lon="5.96361">
        <ele>358.8</ele>
        <time>2023-06-11T10:09:16Z</time>
      </trkpt>
      <trkpt lat="43.73167" lon="5.96361">
        <ele>358.8</ele>
        <time>2023-06-11T10:09:17Z</time>
      </trkpt>
      <trkpt lat="43.73167" lon="5.96361">
        <ele>358.8</ele>
        <time>2023-06-11T10:09:18Z</time>
      </trkpt>
      <trkpt lat="43.73167" lon="5.96361">
        <ele>358.7</ele>
        <time>2023-06-11T10:09:19Z</time>
      </trkpt>
      <trkpt lat="43.73167" lon="5.96361">
        <ele>358.7</ele>
        <time>2023-06-11T10:09:20Z</time>
      </trkpt>
      <trkpt lat="43.73167" lon="5.96361">
        <ele>358.7</ele>
        <time>2023-06-11T10:09:21Z</time>
      </trkpt>
      <trkpt lat="43.73167" lon="5.96361">
        <ele>358.8</ele>
        <time>2023-06-11T10:09:22Z</time>
      </trkpt>
      <trkpt lat="43.73167" lon="5.96361">
        <ele>358.8</ele>
        <time>2023-06-11T10:09:23Z</time>
      </trkpt>
      <trkpt lat="43.73167" lon="5.96361">
        <ele>358.8</ele>
        <time>2023-06-11T10:09:24Z</time>
      </trkpt>
      <trkpt lat="43.73167" lon="5.96361">
        <ele>358.8</ele>
        <time>2023-06-11T10:09:25Z</time>
      </trkpt>
      <trkpt lat="43.73167" lon="5.96361">
        <ele>358.8</ele>
        <time>2023-06-11T10:09:26Z</time>
      </trkpt>
      <trkpt lat="43.73167" lon="5.96361">
        <ele>358.7</ele>
        <time>2023-06-11T10:09:27Z</time>
      </trkpt>
      <trkpt lat="43.73167" lon="5.96361">
        <ele>358.7</ele>
        <time>2023-06-11T10:09:28Z</time>
      </trkpt>
      <trkpt lat="43.73167" lon="5.96361">
        <ele>358.6</ele>
        <time>2023-06-11T10:09:29Z</time>
      </trkpt>
      <trkpt lat="43.73167" lon="5.96361">
        <ele>358.6</ele>
        <time>2023-06-11T10:09:30Z</time>
      </trkpt>
      <trkpt lat="43.73167" lon="5.96361">
        <ele>358.6</ele>
        <time>2023-06-11T10:09:31Z</time>
      </trkpt>
      <trkpt lat="43.73167" lon="5.96361">
        <ele>358.6</ele>
        <time>2023-06-11T10:09:32Z</time>
      </trkpt>
      <trkpt lat="43.73167" lon="5.96361">
        <ele>358.6</ele>
        <time>2023-06-11T10:09:33Z</time>
      </trkpt>
      <trkpt lat="43.73167" lon="5.96361">
        <ele>358.6</ele>
        <time>2023-06-11T10:09:34Z</time>
      </trkpt>
      <trkpt lat="43.73167" lon="5.96361">
        <ele>358.5</ele>
        <time>2023-06-11T10:09:35Z</time>
      </trkpt>
      <trkpt lat="43.73167" lon="5.96361">
        <ele>358.5</ele>
        <time>2023-06-11T10:09:36Z</time>
      </trkpt>
      <trkpt lat="43.73167" lon="5.96361">
        <ele>358.5</ele>
        <time>2023-06-11T10:09:37Z</time>
      </trkpt>
      <trkpt lat="43.73167" lon="5.96361">
        <ele>358.6</ele>
        <time>2023-06-11T10:09:38Z</time>
      </trkpt>
      <trkpt lat="43.73167" lon="5.96361">
        <ele>358.7</ele>
        <time>2023-06-11T10:09:39Z</time>
      </trkpt>
      <trkpt lat="43.73167" lon="5.96361">
        <ele>358.6</ele>
        <time>2023-06-11T10:09:40Z</time>
      </trkpt>
      <trkpt lat="43.73167" lon="5.96361">
        <ele>358.6</ele>
        <time>2023-06-11T10:09:41Z</time>
      </trkpt>
      <trkpt lat="43.73167" lon="5.96361">
        <ele>358.6</ele>
        <time>2023-06-11T10:09:42Z</time>
      </trkpt>
      <trkpt lat="43.73167" lon="5.96361">
        <ele>358.6</ele>
        <time>2023-06-11T10:09:43Z</time>
      </trkpt>
      <trkpt lat="43.73167" lon="5.96361">
        <ele>358.6</ele>
        <time>2023-06-11T10:09:44Z</time>
      </trkpt>
      <trkpt lat="43.73167" lon="5.96361">
        <ele>358.6</ele>
        <time>2023-06-11T10:09:45Z</time>
      </trkpt>
      <trkpt lat="43.73167" lon="5.96361">
        <ele>358.6</ele>
        <time>2023-06-11T10:09:46Z</time>
      </trkpt>
      <trkpt lat="43.73167" lon="5.96361">
        <ele>358.7</ele>
        <time>2023-06-11T10:09:47Z</time>
      </trkpt>
      <trkpt lat="43.73167" lon="5.96361">
        <ele>358.6</ele>
        <time>2023-06-11T10:09:48Z</time>
      </trkpt>
      <trkpt lat="43.73167" lon="5.96361">
        <ele>358.6</ele>
        <time>2023-06-11T10:09:49Z</time>
      </trkpt>
      <trkpt lat="43.73167" lon="5.96361">
        <ele>358.6</ele>
        <time>2023-06-11T10:09:50Z</time>
      </trkpt>
      <trkpt lat="43.73167" lon="5.96361">
        <ele>358.6</ele>
        <time>2023-06-11T10:09:51Z</time>
      </trkpt>
      <trkpt lat="43.73167" lon="5.96361">
        <ele>358.6</ele>
        <time>2023-06-11T10:09:52Z</time>
      </trkpt>
      <trkpt lat="43.73167" lon="5.96361">
        <ele>358.6</ele>
        <time>2023-06-11T10:09:53Z</time>
      </trkpt>
      <trkpt lat="43.73167" lon="5.96361">
        <ele>358.6</ele>
        <time>2023-06-11T10:09:54Z</time>
      </trkpt>
      <trkpt lat="43.73167" lon="5.96361">
        <ele>358.6</ele>
        <time>2023-06-11T10:09:55Z</time>
      </trkpt>
      <trkpt lat="43.73166" lon="5.96361">
        <ele>358.6</ele>
        <time>2023-06-11T10:09:56Z</time>
      </trkpt>
      <trkpt lat="43.73166" lon="5.96361">
        <ele>358.5</ele>
        <time>2023-06-11T10:09:57Z</time>
      </trkpt>
      <trkpt lat="43.73166" lon="5.96361">
        <ele>358.5</ele>
        <time>2023-06-11T10:09:58Z</time>
      </trkpt>
      <trkpt lat="43.73166" lon="5.96361">
        <ele>358.5</ele>
        <time>2023-06-11T10:09:59Z</time>
      </trkpt>
      <trkpt lat="43.73166" lon="5.96361">
        <ele>358.5</ele>
        <time>2023-06-11T10:10:00Z</time>
      </trkpt>
      <trkpt lat="43.73166" lon="5.96361">
        <ele>358.5</ele>
        <time>2023-06-11T10:10:01Z</time>
      </trkpt>
      <trkpt lat="43.73166" lon="5.9636">
        <ele>358.5</ele>
        <time>2023-06-11T10:10:02Z</time>
      </trkpt>
      <trkpt lat="43.73166" lon="5.9636">
        <ele>358.5</ele>
        <time>2023-06-11T10:10:03Z</time>
      </trkpt>
      <trkpt lat="43.73166" lon="5.9636">
        <ele>358.5</ele>
        <time>2023-06-11T10:10:04Z</time>
      </trkpt>
      <trkpt lat="43.73166" lon="5.9636">
        <ele>358.5</ele>
        <time>2023-06-11T10:10:05Z</time>
      </trkpt>
      <trkpt lat="43.73166" lon="5.9636">
        <ele>358.5</ele>
        <time>2023-06-11T10:10:06Z</time>
      </trkpt>
      <trkpt lat="43.73166" lon="5.9636">
        <ele>358.6</ele>
        <time>2023-06-11T10:10:07Z</time>
      </trkpt>
      <trkpt lat="43.73166" lon="5.9636">
        <ele>358.6</ele>
        <time>2023-06-11T10:10:08Z</time>
      </trkpt>
      <trkpt lat="43.73166" lon="5.9636">
        <ele>358.6</ele>
        <time>2023-06-11T10:10:09Z</time>
      </trkpt>
      <trkpt lat="43.73166" lon="5.9636">
        <ele>358.6</ele>
        <time>2023-06-11T10:10:10Z</time>
      </trkpt>
      <trkpt lat="43.73166" lon="5.9636">
        <ele>358.6</ele>
        <time>2023-06-11T10:10:11Z</time>
      </trkpt>
      <trkpt lat="43.73166" lon="5.9636">
        <ele>358.6</ele>
        <time>2023-06-11T10:10:12Z</time>
      </trkpt>
      <trkpt lat="43.73166" lon="5.9636">
        <ele>358.7</ele>
        <time>2023-06-11T10:10:13Z</time>
      </trkpt>
      <trkpt lat="43.73166" lon="5.9636">
        <ele>358.7</ele>
        <time>2023-06-11T10:10:14Z</time>
      </trkpt>
      <trkpt lat="43.73166" lon="5.9636">
        <ele>358.7</ele>
        <time>2023-06-11T10:10:15Z</time>
      </trkpt>
      <trkpt lat="43.73166" lon="5.96359">
        <ele>358.7</ele>
        <time>2023-06-11T10:10:16Z</time>
      </trkpt>
      <trkpt lat="43.73166" lon="5.9636">
        <ele>358.7</ele>
        <time>2023-06-11T10:10:17Z</time>
      </trkpt>
      <trkpt lat="43.73166" lon="5.9636">
        <ele>358.7</ele>
        <time>2023-06-11T10:10:18Z</time>
      </trkpt>
      <trkpt lat="43.73166" lon="5.9636">
        <ele>358.6</ele>
        <time>2023-06-11T10:10:19Z</time>
      </trkpt>
      <trkpt lat="43.73166" lon="5.9636">
        <ele>358.6</ele>
        <time>2023-06-11T10:10:20Z</time>
      </trkpt>
      <trkpt lat="43.73166" lon="5.9636">
        <ele>358.6</ele>
        <time>2023-06-11T10:10:21Z</time>
      </trkpt>
      <trkpt lat="43.73166" lon="5.9636">
        <ele>358.7</ele>
        <time>2023-06-11T10:10:22Z</time>
      </trkpt>
      <trkpt lat="43.73166" lon="5.9636">
        <ele>358.7</ele>
        <time>2023-06-11T10:10:23Z</time>
      </trkpt>
      <trkpt lat="43.73166" lon="5.9636">
        <ele>358.7</ele>
        <time>2023-06-11T10:10:24Z</time>
      </trkpt>
      <trkpt lat="43.73166" lon="5.9636">
        <ele>358.8</ele>
        <time>2023-06-11T10:10:25Z</time>
      </trkpt>
      <trkpt lat="43.73166" lon="5.9636">
        <ele>358.8</ele>
        <time>2023-06-11T10:10:26Z</time>
      </trkpt>
      <trkpt lat="43.73166" lon="5.9636">
        <ele>358.8</ele>
        <time>2023-06-11T10:10:27Z</time>
      </trkpt>
      <trkpt lat="43.73166" lon="5.9636">
        <ele>358.7</ele>
        <time>2023-06-11T10:10:28Z</time>
      </trkpt>
      <trkpt lat="43.73166" lon="5.9636">
        <ele>358.7</ele>
        <time>2023-06-11T10:10:29Z</time>
      </trkpt>
      <trkpt lat="43.73166" lon="5.9636">
        <ele>358.7</ele>
        <time>2023-06-11T10:10:30Z</time>
      </trkpt>
      <trkpt lat="43.73166" lon="5.9636">
        <ele>358.7</ele>
        <time>2023-06-11T10:10:31Z</time>
      </trkpt>
      <trkpt lat="43.73166" lon="5.96361">
        <ele>358.7</ele>
        <time>2023-06-11T10:10:32Z</time>
      </trkpt>
      <trkpt lat="43.73166" lon="5.96361">
        <ele>358.6</ele>
        <time>2023-06-11T10:10:33Z</time>
      </trkpt>
      <trkpt lat="43.73166" lon="5.96361">
        <ele>358.6</ele>
        <time>2023-06-11T10:10:34Z</time>
      </trkpt>
      <trkpt lat="43.73166" lon="5.96361">
        <ele>358.6</ele>
        <time>2023-06-11T10:10:35Z</time>
      </trkpt>
      <trkpt lat="43.73166" lon="5.96361">
        <ele>358.7</ele>
        <time>2023-06-11T10:10:36Z</time>
      </trkpt>
      <trkpt lat="43.73166" lon="5.96361">
        <ele>358.7</ele>
        <time>2023-06-11T10:10:37Z</time>
      </trkpt>
      <trkpt lat="43.73166" lon="5.96361">
        <ele>358.7</ele>
        <time>2023-06-11T10:10:38Z</time>
      </trkpt>
      <trkpt lat="43.73166" lon="5.96361">
        <ele>358.7</ele>
        <time>2023-06-11T10:10:39Z</time>
      </trkpt>
      <trkpt lat="43.73166" lon="5.96361">
        <ele>358.7</ele>
        <time>2023-06-11T10:10:40Z</time>
      </trkpt>
      <trkpt lat="43.73166" lon="5.9636">
        <ele>358.7</ele>
        <time>2023-06-11T10:10:41Z</time>
      </trkpt>
      <trkpt lat="43.73166" lon="5.9636">
        <ele>358.6</ele>
        <time>2023-06-11T10:10:42Z</time>
      </trkpt>
      <trkpt lat="43.73166" lon="5.9636">
        <ele>358.6</ele>
        <time>2023-06-11T10:10:43Z</time>
      </trkpt>
      <trkpt lat="43.73166" lon="5.9636">
        <ele>358.6</ele>
        <time>2023-06-11T10:10:44Z</time>
      </trkpt>
      <trkpt lat="43.73166" lon="5.9636">
        <ele>358.6</ele>
        <time>2023-06-11T10:10:45Z</time>
      </trkpt>
      <trkpt lat="43.73166" lon="5.9636">
        <ele>358.6</ele>
        <time>2023-06-11T10:10:46Z</time>
      </trkpt>
      <trkpt lat="43.73166" lon="5.9636">
        <ele>358.7</ele>
        <time>2023-06-11T10:10:47Z</time>
      </trkpt>
      <trkpt lat="43.73166" lon="5.9636">
        <ele>358.8</ele>
        <time>2023-06-11T10:10:48Z</time>
      </trkpt>
      <trkpt lat="43.73166" lon="5.9636">
        <ele>358.9</ele>
        <time>2023-06-11T10:10:49Z</time>
      </trkpt>
      <trkpt lat="43.73166" lon="5.9636">
        <ele>358.9</ele>
        <time>2023-06-11T10:10:50Z</time>
      </trkpt>
      <trkpt lat="43.73166" lon="5.9636">
        <ele>358.9</ele>
        <time>2023-06-11T10:10:51Z</time>
      </trkpt>
      <trkpt lat="43.73166" lon="5.9636">
        <ele>359</ele>
        <time>2023-06-11T10:10:52Z</time>
      </trkpt>
      <trkpt lat="43.73166" lon="5.9636">
        <ele>359</ele>
        <time>2023-06-11T10:10:53Z</time>
      </trkpt>
      <trkpt lat="43.73166" lon="5.9636">
        <ele>359.1</ele>
        <time>2023-06-11T10:10:54Z</time>
      </trkpt>
      <trkpt lat="43.73166" lon="5.96361">
        <ele>359.1</ele>
        <time>2023-06-11T10:10:55Z</time>
      </trkpt>
      <trkpt lat="43.73166" lon="5.96361">
        <ele>359.1</ele>
        <time>2023-06-11T10:10:56Z</time>
      </trkpt>
      <trkpt lat="43.73165" lon="5.96361">
        <ele>359.1</ele>
        <time>2023-06-11T10:10:57Z</time>
      </trkpt>
      <trkpt lat="43.73165" lon="5.96361">
        <ele>359.1</ele>
        <time>2023-06-11T10:10:58Z</time>
      </trkpt>
      <trkpt lat="43.73165" lon="5.96361">
        <ele>359.1</ele>
        <time>2023-06-11T10:10:59Z</time>
      </trkpt>
      <trkpt lat="43.73165" lon="5.96361">
        <ele>359.1</ele>
        <time>2023-06-11T10:11:00Z</time>
      </trkpt>
      <trkpt lat="43.73165" lon="5.96361">
        <ele>359</ele>
        <time>2023-06-11T10:11:01Z</time>
      </trkpt>
      <trkpt lat="43.73165" lon="5.96361">
        <ele>359</ele>
        <time>2023-06-11T10:11:02Z</time>
      </trkpt>
      <trkpt lat="43.73165" lon="5.96361">
        <ele>359</ele>
        <time>2023-06-11T10:11:03Z</time>
      </trkpt>
      <trkpt lat="43.73165" lon="5.96362">
        <ele>359</ele>
        <time>2023-06-11T10:11:04Z</time>
      </trkpt>
      <trkpt lat="43.73165" lon="5.96362">
        <ele>359</ele>
        <time>2023-06-11T10:11:05Z</time>
      </trkpt>
      <trkpt lat="43.73165" lon="5.96362">
        <ele>359</ele>
        <time>2023-06-11T10:11:06Z</time>
      </trkpt>
      <trkpt lat="43.73165" lon="5.96362">
        <ele>359</ele>
        <time>2023-06-11T10:11:07Z</time>
      </trkpt>
      <trkpt lat="43.73165" lon="5.96362">
        <ele>359</ele>
        <time>2023-06-11T10:11:08Z</time>
      </trkpt>
      <trkpt lat="43.73165" lon="5.96362">
        <ele>359</ele>
        <time>2023-06-11T10:11:09Z</time>
      </trkpt>
      <trkpt lat="43.73165" lon="5.96362">
        <ele>359</ele>
        <time>2023-06-11T10:11:10Z</time>
      </trkpt>
      <trkpt lat="43.73165" lon="5.96362">
        <ele>359</ele>
        <time>2023-06-11T10:11:11Z</time>
      </trkpt>
      <trkpt lat="43.73165" lon="5.96361">
        <ele>359</ele>
        <time>2023-06-11T10:11:12Z</time>
      </trkpt>
      <trkpt lat="43.73165" lon="5.96361">
        <ele>359</ele>
        <time>2023-06-11T10:11:13Z</time>
      </trkpt>
      <trkpt lat="43.73165" lon="5.96361">
        <ele>359</ele>
        <time>2023-06-11T10:11:14Z</time>
      </trkpt>
      <trkpt lat="43.73165" lon="5.96361">
        <ele>359</ele>
        <time>2023-06-11T10:11:15Z</time>
      </trkpt>
      <trkpt lat="43.73165" lon="5.96361">
        <ele>359</ele>
        <time>2023-06-11T10:11:16Z</time>
      </trkpt>
      <trkpt lat="43.73166" lon="5.9636">
        <ele>359</ele>
        <time>2023-06-11T10:11:17Z</time>
      </trkpt>
      <trkpt lat="43.73166" lon="5.9636">
        <ele>359</ele>
        <time>2023-06-11T10:11:18Z</time>
      </trkpt>
      <trkpt lat="43.73166" lon="5.9636">
        <ele>359</ele>
        <time>2023-06-11T10:11:19Z</time>
      </trkpt>
      <trkpt lat="43.73166" lon="5.9636">
        <ele>359</ele>
        <time>2023-06-11T10:11:20Z</time>
      </trkpt>
      <trkpt lat="43.73166" lon="5.9636">
        <ele>359</ele>
        <time>2023-06-11T10:11:21Z</time>
      </trkpt>
      <trkpt lat="43.73166" lon="5.9636">
        <ele>359</ele>
        <time>2023-06-11T10:11:22Z</time>
      </trkpt>
      <trkpt lat="43.73166" lon="5.9636">
        <ele>359</ele>
        <time>2023-06-11T10:11:23Z</time>
      </trkpt>
      <trkpt lat="43.73166" lon="5.9636">
        <ele>359</ele>
        <time>2023-06-11T10:11:24Z</time>
      </trkpt>
      <trkpt lat="43.73166" lon="5.9636">
        <ele>358.9</ele>
        <time>2023-06-11T10:11:25Z</time>
      </trkpt>
      <trkpt lat="43.73166" lon="5.9636">
        <ele>358.9</ele>
        <time>2023-06-11T10:11:26Z</time>
      </trkpt>
      <trkpt lat="43.73166" lon="5.9636">
        <ele>358.8</ele>
        <time>2023-06-11T10:11:27Z</time>
      </trkpt>
      <trkpt lat="43.73166" lon="5.9636">
        <ele>358.8</ele>
        <time>2023-06-11T10:11:28Z</time>
      </trkpt>
      <trkpt lat="43.73166" lon="5.9636">
        <ele>358.8</ele>
        <time>2023-06-11T10:11:29Z</time>
      </trkpt>
      <trkpt lat="43.73166" lon="5.9636">
        <ele>358.7</ele>
        <time>2023-06-11T10:11:30Z</time>
      </trkpt>
      <trkpt lat="43.73166" lon="5.9636">
        <ele>358.7</ele>
        <time>2023-06-11T10:11:31Z</time>
      </trkpt>
      <trkpt lat="43.73166" lon="5.9636">
        <ele>358.7</ele>
        <time>2023-06-11T10:11:32Z</time>
      </trkpt>
      <trkpt lat="43.73166" lon="5.96359">
        <ele>358.7</ele>
        <time>2023-06-11T10:11:33Z</time>
      </trkpt>
      <trkpt lat="43.73166" lon="5.96359">
        <ele>358.7</ele>
        <time>2023-06-11T10:11:34Z</time>
      </trkpt>
      <trkpt lat="43.73166" lon="5.96359">
        <ele>358.7</ele>
        <time>2023-06-11T10:11:35Z</time>
      </trkpt>
      <trkpt lat="43.73166" lon="5.96359">
        <ele>358.7</ele>
        <time>2023-06-11T10:11:36Z</time>
      </trkpt>
      <trkpt lat="43.73166" lon="5.96359">
        <ele>358.7</ele>
        <time>2023-06-11T10:11:37Z</time>
      </trkpt>
      <trkpt lat="43.73166" lon="5.96359">
        <ele>358.7</ele>
        <time>2023-06-11T10:11:38Z</time>
      </trkpt>
      <trkpt lat="43.73166" lon="5.96359">
        <ele>358.7</ele>
        <time>2023-06-11T10:11:39Z</time>
      </trkpt>
      <trkpt lat="43.73166" lon="5.96359">
        <ele>358.7</ele>
        <time>2023-06-11T10:11:40Z</time>
      </trkpt>
      <trkpt lat="43.73166" lon="5.96359">
        <ele>358.7</ele>
        <time>2023-06-11T10:11:41Z</time>
      </trkpt>
      <trkpt lat="43.73166" lon="5.96359">
        <ele>358.8</ele>
        <time>2023-06-11T10:11:42Z</time>
      </trkpt>
      <trkpt lat="43.73166" lon="5.96359">
        <ele>358.8</ele>
        <time>2023-06-11T10:11:43Z</time>
      </trkpt>
      <trkpt lat="43.73166" lon="5.96359">
        <ele>358.7</ele>
        <time>2023-06-11T10:11:44Z</time>
      </trkpt>
      <trkpt lat="43.73166" lon="5.96359">
        <ele>358.7</ele>
        <time>2023-06-11T10:11:45Z</time>
      </trkpt>
      <trkpt lat="43.73167" lon="5.96359">
        <ele>358.7</ele>
        <time>2023-06-11T10:11:46Z</time>
      </trkpt>
      <trkpt lat="43.73167" lon="5.96359">
        <ele>358.8</ele>
        <time>2023-06-11T10:11:47Z</time>
      </trkpt>
      <trkpt lat="43.73167" lon="5.96359">
        <ele>358.8</ele>
        <time>2023-06-11T10:11:48Z</time>
      </trkpt>
      <trkpt lat="43.73167" lon="5.9636">
        <ele>358.8</ele>
        <time>2023-06-11T10:11:49Z</time>
      </trkpt>
      <trkpt lat="43.73167" lon="5.9636">
        <ele>358.8</ele>
        <time>2023-06-11T10:11:50Z</time>
      </trkpt>
      <trkpt lat="43.73168" lon="5.9636">
        <ele>358.9</ele>
        <time>2023-06-11T10:11:51Z</time>
      </trkpt>
      <trkpt lat="43.73168" lon="5.9636">
        <ele>359</ele>
        <time>2023-06-11T10:11:52Z</time>
      </trkpt>
      <trkpt lat="43.73168" lon="5.9636">
        <ele>359</ele>
        <time>2023-06-11T10:11:53Z</time>
      </trkpt>
      <trkpt lat="43.73168" lon="5.9636">
        <ele>359</ele>
        <time>2023-06-11T10:11:54Z</time>
      </trkpt>
      <trkpt lat="43.73168" lon="5.9636">
        <ele>359</ele>
        <time>2023-06-11T10:11:55Z</time>
      </trkpt>
      <trkpt lat="43.73168" lon="5.9636">
        <ele>358.9</ele>
        <time>2023-06-11T10:11:56Z</time>
      </trkpt>
      <trkpt lat="43.73168" lon="5.9636">
        <ele>358.9</ele>
        <time>2023-06-11T10:11:57Z</time>
      </trkpt>
      <trkpt lat="43.73168" lon="5.9636">
        <ele>358.9</ele>
        <time>2023-06-11T10:11:58Z</time>
      </trkpt>
      <trkpt lat="43.73168" lon="5.9636">
        <ele>358.9</ele>
        <time>2023-06-11T10:11:59Z</time>
      </trkpt>
      <trkpt lat="43.73168" lon="5.9636">
        <ele>358.8</ele>
        <time>2023-06-11T10:12:00Z</time>
      </trkpt>
      <trkpt lat="43.73168" lon="5.9636">
        <ele>358.8</ele>
        <time>2023-06-11T10:12:01Z</time>
      </trkpt>
      <trkpt lat="43.73168" lon="5.9636">
        <ele>358.8</ele>
        <time>2023-06-11T10:12:02Z</time>
      </trkpt>
      <trkpt lat="43.73168" lon="5.9636">
        <ele>358.8</ele>
        <time>2023-06-11T10:12:03Z</time>
      </trkpt>
      <trkpt lat="43.73168" lon="5.9636">
        <ele>358.8</ele>
        <time>2023-06-11T10:12:04Z</time>
      </trkpt>
      <trkpt lat="43.73168" lon="5.9636">
        <ele>358.8</ele>
        <time>2023-06-11T10:12:05Z</time>
      </trkpt>
      <trkpt lat="43.73168" lon="5.9636">
        <ele>359</ele>
        <time>2023-06-11T10:12:06Z</time>
      </trkpt>
      <trkpt lat="43.73168" lon="5.9636">
        <ele>359</ele>
        <time>2023-06-11T10:12:07Z</time>
      </trkpt>
      <trkpt lat="43.73168" lon="5.9636">
        <ele>358.9</ele>
        <time>2023-06-11T10:12:08Z</time>
      </trkpt>
      <trkpt lat="43.73168" lon="5.9636">
        <ele>358.9</ele>
        <time>2023-06-11T10:12:09Z</time>
      </trkpt>
      <trkpt lat="43.73168" lon="5.9636">
        <ele>358.9</ele>
        <time>2023-06-11T10:12:10Z</time>
      </trkpt>
      <trkpt lat="43.73168" lon="5.9636">
        <ele>358.9</ele>
        <time>2023-06-11T10:12:11Z</time>
      </trkpt>
      <trkpt lat="43.73168" lon="5.9636">
        <ele>358.9</ele>
        <time>2023-06-11T10:12:12Z</time>
      </trkpt>
      <trkpt lat="43.73168" lon="5.9636">
        <ele>359</ele>
        <time>2023-06-11T10:12:13Z</time>
      </trkpt>
      <trkpt lat="43.73168" lon="5.9636">
        <ele>359</ele>
        <time>2023-06-11T10:12:14Z</time>
      </trkpt>
      <trkpt lat="43.73168" lon="5.9636">
        <ele>359</ele>
        <time>2023-06-11T10:12:15Z</time>
      </trkpt>
      <trkpt lat="43.73168" lon="5.9636">
        <ele>359</ele>
        <time>2023-06-11T10:12:16Z</time>
      </trkpt>
      <trkpt lat="43.73168" lon="5.9636">
        <ele>359.1</ele>
        <time>2023-06-11T10:12:17Z</time>
      </trkpt>
      <trkpt lat="43.73168" lon="5.96361">
        <ele>359.1</ele>
        <time>2023-06-11T10:12:18Z</time>
      </trkpt>
      <trkpt lat="43.73168" lon="5.9636">
        <ele>359.1</ele>
        <time>2023-06-11T10:12:19Z</time>
      </trkpt>
      <trkpt lat="43.73168" lon="5.9636">
        <ele>359.1</ele>
        <time>2023-06-11T10:12:20Z</time>
      </trkpt>
      <trkpt lat="43.73168" lon="5.9636">
        <ele>359.1</ele>
        <time>2023-06-11T10:12:21Z</time>
      </trkpt>
      <trkpt lat="43.73168" lon="5.9636">
        <ele>359.1</ele>
        <time>2023-06-11T10:12:22Z</time>
      </trkpt>
      <trkpt lat="43.73168" lon="5.9636">
        <ele>359.1</ele>
        <time>2023-06-11T10:12:23Z</time>
      </trkpt>
      <trkpt lat="43.73168" lon="5.9636">
        <ele>359.1</ele>
        <time>2023-06-11T10:12:24Z</time>
      </trkpt>
      <trkpt lat="43.73168" lon="5.9636">
        <ele>359.1</ele>
        <time>2023-06-11T10:12:25Z</time>
      </trkpt>
      <trkpt lat="43.73168" lon="5.9636">
        <ele>359.1</ele>
        <time>2023-06-11T10:12:26Z</time>
      </trkpt>
      <trkpt lat="43.73168" lon="5.9636">
        <ele>359.1</ele>
        <time>2023-06-11T10:12:27Z</time>
      </trkpt>
      <trkpt lat="43.73168" lon="5.9636">
        <ele>359.1</ele>
        <time>2023-06-11T10:12:28Z</time>
      </trkpt>
      <trkpt lat="43.73168" lon="5.9636">
        <ele>359</ele>
        <time>2023-06-11T10:12:29Z</time>
      </trkpt>
      <trkpt lat="43.73168" lon="5.9636">
        <ele>359</ele>
        <time>2023-06-11T10:12:30Z</time>
      </trkpt>
      <trkpt lat="43.73167" lon="5.9636">
        <ele>359</ele>
        <time>2023-06-11T10:12:31Z</time>
      </trkpt>
      <trkpt lat="43.73167" lon="5.9636">
        <ele>359</ele>
        <time>2023-06-11T10:12:32Z</time>
      </trkpt>
      <trkpt lat="43.73167" lon="5.9636">
        <ele>359</ele>
        <time>2023-06-11T10:12:33Z</time>
      </trkpt>
      <trkpt lat="43.73167" lon="5.9636">
        <ele>359</ele>
        <time>2023-06-11T10:12:34Z</time>
      </trkpt>
      <trkpt lat="43.73167" lon="5.9636">
        <ele>359.1</ele>
        <time>2023-06-11T10:12:35Z</time>
      </trkpt>
      <trkpt lat="43.73167" lon="5.9636">
        <ele>359</ele>
        <time>2023-06-11T10:12:36Z</time>
      </trkpt>
      <trkpt lat="43.73167" lon="5.9636">
        <ele>359</ele>
        <time>2023-06-11T10:12:37Z</time>
      </trkpt>
      <trkpt lat="43.73167" lon="5.9636">
        <ele>359</ele>
        <time>2023-06-11T10:12:38Z</time>
      </trkpt>
      <trkpt lat="43.73167" lon="5.96359">
        <ele>358.9</ele>
        <time>2023-06-11T10:12:39Z</time>
      </trkpt>
      <trkpt lat="43.73166" lon="5.96359">
        <ele>358.9</ele>
        <time>2023-06-11T10:12:40Z</time>
      </trkpt>
      <trkpt lat="43.73166" lon="5.96359">
        <ele>359</ele>
        <time>2023-06-11T10:12:41Z</time>
      </trkpt>
      <trkpt lat="43.73166" lon="5.96359">
        <ele>359</ele>
        <time>2023-06-11T10:12:42Z</time>
      </trkpt>
      <trkpt lat="43.73166" lon="5.96359">
        <ele>359</ele>
        <time>2023-06-11T10:12:43Z</time>
      </trkpt>
      <trkpt lat="43.73166" lon="5.96359">
        <ele>359.1</ele>
        <time>2023-06-11T10:12:44Z</time>
      </trkpt>
      <trkpt lat="43.73166" lon="5.96359">
        <ele>359.1</ele>
        <time>2023-06-11T10:12:45Z</time>
      </trkpt>
      <trkpt lat="43.73166" lon="5.96359">
        <ele>359.1</ele>
        <time>2023-06-11T10:12:46Z</time>
      </trkpt>
      <trkpt lat="43.73166" lon="5.96359">
        <ele>359.1</ele>
        <time>2023-06-11T10:12:47Z</time>
      </trkpt>
      <trkpt lat="43.73166" lon="5.96359">
        <ele>359</ele>
        <time>2023-06-11T10:12:48Z</time>
      </trkpt>
      <trkpt lat="43.73167" lon="5.96359">
        <ele>359.1</ele>
        <time>2023-06-11T10:12:49Z</time>
      </trkpt>
      <trkpt lat="43.73167" lon="5.96359">
        <ele>359.1</ele>
        <time>2023-06-11T10:12:50Z</time>
      </trkpt>
      <trkpt lat="43.73167" lon="5.96359">
        <ele>359</ele>
        <time>2023-06-11T10:12:51Z</time>
      </trkpt>
      <trkpt lat="43.73167" lon="5.96358">
        <ele>359</ele>
        <time>2023-06-11T10:12:52Z</time>
      </trkpt>
      <trkpt lat="43.73167" lon="5.96358">
        <ele>359</ele>
        <time>2023-06-11T10:12:53Z</time>
      </trkpt>
      <trkpt lat="43.73167" lon="5.96358">
        <ele>358.9</ele>
        <time>2023-06-11T10:12:54Z</time>
      </trkpt>
      <trkpt lat="43.73167" lon="5.96358">
        <ele>358.9</ele>
        <time>2023-06-11T10:12:55Z</time>
      </trkpt>
      <trkpt lat="43.73167" lon="5.96358">
        <ele>358.8</ele>
        <time>2023-06-11T10:12:56Z</time>
      </trkpt>
      <trkpt lat="43.73167" lon="5.96358">
        <ele>358.8</ele>
        <time>2023-06-11T10:12:57Z</time>
      </trkpt>
      <trkpt lat="43.73167" lon="5.96358">
        <ele>358.7</ele>
        <time>2023-06-11T10:12:58Z</time>
      </trkpt>
      <trkpt lat="43.73167" lon="5.96358">
        <ele>358.7</ele>
        <time>2023-06-11T10:12:59Z</time>
      </trkpt>
      <trkpt lat="43.73167" lon="5.96357">
        <ele>358.7</ele>
        <time>2023-06-11T10:13:00Z</time>
      </trkpt>
      <trkpt lat="43.73167" lon="5.96357">
        <ele>358.6</ele>
        <time>2023-06-11T10:13:01Z</time>
      </trkpt>
      <trkpt lat="43.73167" lon="5.96357">
        <ele>358.6</ele>
        <time>2023-06-11T10:13:02Z</time>
      </trkpt>
      <trkpt lat="43.73167" lon="5.96357">
        <ele>358.6</ele>
        <time>2023-06-11T10:13:03Z</time>
      </trkpt>
      <trkpt lat="43.73167" lon="5.96357">
        <ele>358.6</ele>
        <time>2023-06-11T10:13:04Z</time>
      </trkpt>
      <trkpt lat="43.73167" lon="5.96357">
        <ele>358.6</ele>
        <time>2023-06-11T10:13:05Z</time>
      </trkpt>
      <trkpt lat="43.73167" lon="5.96357">
        <ele>358.6</ele>
        <time>2023-06-11T10:13:06Z</time>
      </trkpt>
      <trkpt lat="43.73167" lon="5.96357">
        <ele>358.6</ele>
        <time>2023-06-11T10:13:07Z</time>
      </trkpt>
      <trkpt lat="43.73167" lon="5.96357">
        <ele>358.6</ele>
        <time>2023-06-11T10:13:08Z</time>
      </trkpt>
      <trkpt lat="43.73167" lon="5.96357">
        <ele>358.6</ele>
        <time>2023-06-11T10:13:09Z</time>
      </trkpt>
      <trkpt lat="43.73167" lon="5.96357">
        <ele>358.6</ele>
        <time>2023-06-11T10:13:10Z</time>
      </trkpt>
      <trkpt lat="43.73167" lon="5.96357">
        <ele>358.6</ele>
        <time>2023-06-11T10:13:11Z</time>
      </trkpt>
      <trkpt lat="43.73167" lon="5.96357">
        <ele>358.6</ele>
        <time>2023-06-11T10:13:12Z</time>
      </trkpt>
      <trkpt lat="43.73167" lon="5.96356">
        <ele>358.7</ele>
        <time>2023-06-11T10:13:13Z</time>
      </trkpt>
      <trkpt lat="43.73167" lon="5.96356">
        <ele>358.7</ele>
        <time>2023-06-11T10:13:14Z</time>
      </trkpt>
      <trkpt lat="43.73167" lon="5.96356">
        <ele>358.7</ele>
        <time>2023-06-11T10:13:15Z</time>
      </trkpt>
      <trkpt lat="43.73167" lon="5.96356">
        <ele>358.7</ele>
        <time>2023-06-11T10:13:16Z</time>
      </trkpt>
      <trkpt lat="43.73167" lon="5.96356">
        <ele>358.7</ele>
        <time>2023-06-11T10:13:17Z</time>
      </trkpt>
      <trkpt lat="43.73167" lon="5.96356">
        <ele>358.7</ele>
        <time>2023-06-11T10:13:18Z</time>
      </trkpt>
      <trkpt lat="43.73167" lon="5.96356">
        <ele>358.7</ele>
        <time>2023-06-11T10:13:19Z</time>
      </trkpt>
      <trkpt lat="43.73167" lon="5.96356">
        <ele>358.8</ele>
        <time>2023-06-11T10:13:20Z</time>
      </trkpt>
      <trkpt lat="43.73167" lon="5.96356">
        <ele>358.8</ele>
        <time>2023-06-11T10:13:21Z</time>
      </trkpt>
      <trkpt lat="43.73167" lon="5.96356">
        <ele>358.8</ele>
        <time>2023-06-11T10:13:22Z</time>
      </trkpt>
      <trkpt lat="43.73167" lon="5.96356">
        <ele>358.8</ele>
        <time>2023-06-11T10:13:23Z</time>
      </trkpt>
      <trkpt lat="43.73167" lon="5.96356">
        <ele>358.8</ele>
        <time>2023-06-11T10:13:24Z</time>
      </trkpt>
      <trkpt lat="43.73167" lon="5.96356">
        <ele>358.7</ele>
        <time>2023-06-11T10:13:25Z</time>
      </trkpt>
      <trkpt lat="43.73167" lon="5.96356">
        <ele>358.7</ele>
        <time>2023-06-11T10:13:26Z</time>
      </trkpt>
      <trkpt lat="43.73167" lon="5.96356">
        <ele>358.6</ele>
        <time>2023-06-11T10:13:27Z</time>
      </trkpt>
      <trkpt lat="43.73167" lon="5.96356">
        <ele>358.6</ele>
        <time>2023-06-11T10:13:28Z</time>
      </trkpt>
      <trkpt lat="43.73167" lon="5.96356">
        <ele>358.6</ele>
        <time>2023-06-11T10:13:29Z</time>
      </trkpt>
      <trkpt lat="43.73167" lon="5.96356">
        <ele>358.6</ele>
        <time>2023-06-11T10:13:30Z</time>
      </trkpt>
      <trkpt lat="43.73167" lon="5.96356">
        <ele>358.7</ele>
        <time>2023-06-11T10:13:31Z</time>
      </trkpt>
      <trkpt lat="43.73167" lon="5.96356">
        <ele>358.8</ele>
        <time>2023-06-11T10:13:32Z</time>
      </trkpt>
      <trkpt lat="43.73167" lon="5.96356">
        <ele>358.8</ele>
        <time>2023-06-11T10:13:33Z</time>
      </trkpt>
      <trkpt lat="43.73167" lon="5.96356">
        <ele>358.8</ele>
        <time>2023-06-11T10:13:34Z</time>
      </trkpt>
      <trkpt lat="43.73167" lon="5.96356">
        <ele>358.8</ele>
        <time>2023-06-11T10:13:35Z</time>
      </trkpt>
      <trkpt lat="43.73167" lon="5.96356">
        <ele>358.8</ele>
        <time>2023-06-11T10:13:36Z</time>
      </trkpt>
      <trkpt lat="43.73167" lon="5.96356">
        <ele>358.8</ele>
        <time>2023-06-11T10:13:37Z</time>
      </trkpt>
      <trkpt lat="43.73167" lon="5.96356">
        <ele>358.8</ele>
        <time>2023-06-11T10:13:38Z</time>
      </trkpt>
      <trkpt lat="43.73167" lon="5.96356">
        <ele>358.8</ele>
        <time>2023-06-11T10:13:39Z</time>
      </trkpt>
      <trkpt lat="43.73167" lon="5.96356">
        <ele>358.8</ele>
        <time>2023-06-11T10:13:40Z</time>
      </trkpt>
      <trkpt lat="43.73167" lon="5.96356">
        <ele>358.9</ele>
        <time>2023-06-11T10:13:41Z</time>
      </trkpt>
      <trkpt lat="43.73167" lon="5.96356">
        <ele>358.9</ele>
        <time>2023-06-11T10:13:42Z</time>
      </trkpt>
      <trkpt lat="43.73167" lon="5.96356">
        <ele>359</ele>
        <time>2023-06-11T10:13:43Z</time>
      </trkpt>
      <trkpt lat="43.73167" lon="5.96356">
        <ele>359</ele>
        <time>2023-06-11T10:13:44Z</time>
      </trkpt>
      <trkpt lat="43.73167" lon="5.96356">
        <ele>359</ele>
        <time>2023-06-11T10:13:45Z</time>
      </trkpt>
      <trkpt lat="43.73167" lon="5.96356">
        <ele>358.9</ele>
        <time>2023-06-11T10:13:46Z</time>
      </trkpt>
      <trkpt lat="43.73167" lon="5.96356">
        <ele>358.9</ele>
        <time>2023-06-11T10:13:47Z</time>
      </trkpt>
      <trkpt lat="43.73168" lon="5.96356">
        <ele>358.9</ele>
        <time>2023-06-11T10:13:48Z</time>
      </trkpt>
      <trkpt lat="43.73168" lon="5.96356">
        <ele>358.9</ele>
        <time>2023-06-11T10:13:49Z</time>
      </trkpt>
      <trkpt lat="43.73168" lon="5.96356">
        <ele>359</ele>
        <time>2023-06-11T10:13:50Z</time>
      </trkpt>
      <trkpt lat="43.73168" lon="5.96356">
        <ele>358.9</ele>
        <time>2023-06-11T10:13:51Z</time>
      </trkpt>
      <trkpt lat="43.73167" lon="5.96356">
        <ele>358.9</ele>
        <time>2023-06-11T10:13:52Z</time>
      </trkpt>
      <trkpt lat="43.73168" lon="5.96356">
        <ele>358.8</ele>
        <time>2023-06-11T10:13:53Z</time>
      </trkpt>
      <trkpt lat="43.73168" lon="5.96356">
        <ele>358.8</ele>
        <time>2023-06-11T10:13:54Z</time>
      </trkpt>
      <trkpt lat="43.73168" lon="5.96356">
        <ele>358.9</ele>
        <time>2023-06-11T10:13:55Z</time>
      </trkpt>
      <trkpt lat="43.73168" lon="5.96356">
        <ele>359</ele>
        <time>2023-06-11T10:13:56Z</time>
      </trkpt>
      <trkpt lat="43.73168" lon="5.96356">
        <ele>359</ele>
        <time>2023-06-11T10:13:57Z</time>
      </trkpt>
      <trkpt lat="43.73168" lon="5.96356">
        <ele>359</ele>
        <time>2023-06-11T10:13:58Z</time>
      </trkpt>
      <trkpt lat="43.73168" lon="5.96356">
        <ele>359</ele>
        <time>2023-06-11T10:13:59Z</time>
      </trkpt>
      <trkpt lat="43.73168" lon="5.96356">
        <ele>359</ele>
        <time>2023-06-11T10:14:00Z</time>
      </trkpt>
      <trkpt lat="43.73168" lon="5.96356">
        <ele>359</ele>
        <time>2023-06-11T10:14:01Z</time>
      </trkpt>
      <trkpt lat="43.73168" lon="5.96356">
        <ele>359</ele>
        <time>2023-06-11T10:14:02Z</time>
      </trkpt>
      <trkpt lat="43.73168" lon="5.96356">
        <ele>359.1</ele>
        <time>2023-06-11T10:14:03Z</time>
      </trkpt>
      <trkpt lat="43.73168" lon="5.96356">
        <ele>359</ele>
        <time>2023-06-11T10:14:04Z</time>
      </trkpt>
      <trkpt lat="43.73168" lon="5.96356">
        <ele>359</ele>
        <time>2023-06-11T10:14:05Z</time>
      </trkpt>
      <trkpt lat="43.73168" lon="5.96356">
        <ele>359</ele>
        <time>2023-06-11T10:14:06Z</time>
      </trkpt>
      <trkpt lat="43.73168" lon="5.96356">
        <ele>359</ele>
        <time>2023-06-11T10:14:07Z</time>
      </trkpt>
      <trkpt lat="43.73168" lon="5.96356">
        <ele>359.1</ele>
        <time>2023-06-11T10:14:08Z</time>
      </trkpt>
      <trkpt lat="43.73168" lon="5.96356">
        <ele>359.1</ele>
        <time>2023-06-11T10:14:09Z</time>
      </trkpt>
      <trkpt lat="43.73168" lon="5.96356">
        <ele>359.2</ele>
        <time>2023-06-11T10:14:10Z</time>
      </trkpt>
      <trkpt lat="43.73168" lon="5.96356">
        <ele>359.2</ele>
        <time>2023-06-11T10:14:11Z</time>
      </trkpt>
      <trkpt lat="43.73168" lon="5.96356">
        <ele>359.3</ele>
        <time>2023-06-11T10:14:12Z</time>
      </trkpt>
      <trkpt lat="43.73168" lon="5.96356">
        <ele>359.3</ele>
        <time>2023-06-11T10:14:13Z</time>
      </trkpt>
      <trkpt lat="43.73168" lon="5.96356">
        <ele>359.3</ele>
        <time>2023-06-11T10:14:14Z</time>
      </trkpt>
      <trkpt lat="43.73168" lon="5.96356">
        <ele>359.3</ele>
        <time>2023-06-11T10:14:15Z</time>
      </trkpt>
      <trkpt lat="43.73168" lon="5.96356">
        <ele>359.2</ele>
        <time>2023-06-11T10:14:16Z</time>
      </trkpt>
      <trkpt lat="43.73168" lon="5.96356">
        <ele>359.1</ele>
        <time>2023-06-11T10:14:17Z</time>
      </trkpt>
      <trkpt lat="43.73168" lon="5.96356">
        <ele>359.1</ele>
        <time>2023-06-11T10:14:18Z</time>
      </trkpt>
      <trkpt lat="43.73168" lon="5.96356">
        <ele>359.1</ele>
        <time>2023-06-11T10:14:19Z</time>
      </trkpt>
      <trkpt lat="43.73168" lon="5.96357">
        <ele>359.1</ele>
        <time>2023-06-11T10:14:20Z</time>
      </trkpt>
      <trkpt lat="43.73168" lon="5.96357">
        <ele>359</ele>
        <time>2023-06-11T10:14:21Z</time>
      </trkpt>
      <trkpt lat="43.73168" lon="5.96357">
        <ele>359</ele>
        <time>2023-06-11T10:14:22Z</time>
      </trkpt>
      <trkpt lat="43.73168" lon="5.96357">
        <ele>359</ele>
        <time>2023-06-11T10:14:23Z</time>
      </trkpt>
      <trkpt lat="43.73168" lon="5.96357">
        <ele>359.1</ele>
        <time>2023-06-11T10:14:24Z</time>
      </trkpt>
      <trkpt lat="43.73168" lon="5.96357">
        <ele>359.1</ele>
        <time>2023-06-11T10:14:25Z</time>
      </trkpt>
      <trkpt lat="43.73168" lon="5.96357">
        <ele>359.2</ele>
        <time>2023-06-11T10:14:26Z</time>
      </trkpt>
      <trkpt lat="43.73167" lon="5.96357">
        <ele>359.1</ele>
        <time>2023-06-11T10:14:27Z</time>
      </trkpt>
      <trkpt lat="43.73167" lon="5.96357">
        <ele>359.1</ele>
        <time>2023-06-11T10:14:28Z</time>
      </trkpt>
      <trkpt lat="43.73167" lon="5.96357">
        <ele>359.1</ele>
        <time>2023-06-11T10:14:29Z</time>
      </trkpt>
      <trkpt lat="43.73167" lon="5.96357">
        <ele>359</ele>
        <time>2023-06-11T10:14:30Z</time>
      </trkpt>
      <trkpt lat="43.73167" lon="5.96357">
        <ele>359</ele>
        <time>2023-06-11T10:14:31Z</time>
      </trkpt>
      <trkpt lat="43.73167" lon="5.96357">
        <ele>359</ele>
        <time>2023-06-11T10:14:32Z</time>
      </trkpt>
      <trkpt lat="43.73167" lon="5.96357">
        <ele>359</ele>
        <time>2023-06-11T10:14:33Z</time>
      </trkpt>
      <trkpt lat="43.73167" lon="5.96357">
        <ele>359</ele>
        <time>2023-06-11T10:14:34Z</time>
      </trkpt>
      <trkpt lat="43.73167" lon="5.96357">
        <ele>359</ele>
        <time>2023-06-11T10:14:35Z</time>
      </trkpt>
      <trkpt lat="43.73167" lon="5.96357">
        <ele>359.1</ele>
        <time>2023-06-11T10:14:36Z</time>
      </trkpt>
      <trkpt lat="43.73167" lon="5.96357">
        <ele>359.1</ele>
        <time>2023-06-11T10:14:37Z</time>
      </trkpt>
      <trkpt lat="43.73167" lon="5.96357">
        <ele>359.2</ele>
        <time>2023-06-11T10:14:38Z</time>
      </trkpt>
      <trkpt lat="43.73167" lon="5.96357">
        <ele>359.3</ele>
        <time>2023-06-11T10:14:39Z</time>
      </trkpt>
      <trkpt lat="43.73167" lon="5.96357">
        <ele>359.3</ele>
        <time>2023-06-11T10:14:40Z</time>
      </trkpt>
      <trkpt lat="43.73167" lon="5.96357">
        <ele>359.3</ele>
        <time>2023-06-11T10:14:41Z</time>
      </trkpt>
      <trkpt lat="43.73167" lon="5.96357">
        <ele>359.3</ele>
        <time>2023-06-11T10:14:42Z</time>
      </trkpt>
      <trkpt lat="43.73167" lon="5.96357">
        <ele>359.3</ele>
        <time>2023-06-11T10:14:43Z</time>
      </trkpt>
      <trkpt lat="43.73167" lon="5.96357">
        <ele>359.3</ele>
        <time>2023-06-11T10:14:44Z</time>
      </trkpt>
      <trkpt lat="43.73167" lon="5.96357">
        <ele>359.3</ele>
        <time>2023-06-11T10:14:45Z</time>
      </trkpt>
      <trkpt lat="43.73167" lon="5.96357">
        <ele>359.3</ele>
        <time>2023-06-11T10:14:46Z</time>
      </trkpt>
      <trkpt lat="43.73167" lon="5.96357">
        <ele>359.3</ele>
        <time>2023-06-11T10:14:47Z</time>
      </trkpt>
      <trkpt lat="43.73167" lon="5.96357">
        <ele>359.3</ele>
        <time>2023-06-11T10:14:48Z</time>
      </trkpt>
      <trkpt lat="43.73167" lon="5.96357">
        <ele>359.3</ele>
        <time>2023-06-11T10:14:49Z</time>
      </trkpt>
      <trkpt lat="43.73167" lon="5.96357">
        <ele>359.3</ele>
        <time>2023-06-11T10:14:50Z</time>
      </trkpt>
      <trkpt lat="43.73167" lon="5.96357">
        <ele>359.3</ele>
        <time>2023-06-11T10:14:51Z</time>
      </trkpt>
      <trkpt lat="43.73167" lon="5.96357">
        <ele>359.3</ele>
        <time>2023-06-11T10:14:52Z</time>
      </trkpt>
      <trkpt lat="43.73167" lon="5.96357">
        <ele>359.2</ele>
        <time>2023-06-11T10:14:53Z</time>
      </trkpt>
      <trkpt lat="43.73167" lon="5.96357">
        <ele>359.2</ele>
        <time>2023-06-11T10:14:54Z</time>
      </trkpt>
      <trkpt lat="43.73167" lon="5.96357">
        <ele>359.2</ele>
        <time>2023-06-11T10:14:55Z</time>
      </trkpt>
      <trkpt lat="43.73167" lon="5.96357">
        <ele>359.3</ele>
        <time>2023-06-11T10:14:56Z</time>
      </trkpt>
      <trkpt lat="43.73166" lon="5.96357">
        <ele>359.3</ele>
        <time>2023-06-11T10:14:57Z</time>
      </trkpt>
      <trkpt lat="43.73166" lon="5.96357">
        <ele>359.3</ele>
        <time>2023-06-11T10:14:58Z</time>
      </trkpt>
      <trkpt lat="43.73166" lon="5.96357">
        <ele>359.2</ele>
        <time>2023-06-11T10:14:59Z</time>
      </trkpt>
      <trkpt lat="43.73166" lon="5.96357">
        <ele>359.2</ele>
        <time>2023-06-11T10:15:00Z</time>
      </trkpt>
      <trkpt lat="43.73166" lon="5.96357">
        <ele>359.2</ele>
        <time>2023-06-11T10:15:01Z</time>
      </trkpt>
      <trkpt lat="43.73166" lon="5.96357">
        <ele>359.2</ele>
        <time>2023-06-11T10:15:02Z</time>
      </trkpt>
      <trkpt lat="43.73166" lon="5.96357">
        <ele>359.2</ele>
        <time>2023-06-11T10:15:03Z</time>
      </trkpt>
      <trkpt lat="43.73166" lon="5.96357">
        <ele>359.2</ele>
        <time>2023-06-11T10:15:04Z</time>
      </trkpt>
      <trkpt lat="43.73166" lon="5.96357">
        <ele>359.2</ele>
        <time>2023-06-11T10:15:05Z</time>
      </trkpt>
      <trkpt lat="43.73166" lon="5.96357">
        <ele>359.2</ele>
        <time>2023-06-11T10:15:06Z</time>
      </trkpt>
      <trkpt lat="43.73166" lon="5.96357">
        <ele>359.2</ele>
        <time>2023-06-11T10:15:07Z</time>
      </trkpt>
      <trkpt lat="43.73166" lon="5.96357">
        <ele>359.2</ele>
        <time>2023-06-11T10:15:08Z</time>
      </trkpt>
      <trkpt lat="43.73166" lon="5.96357">
        <ele>359.2</ele>
        <time>2023-06-11T10:15:09Z</time>
      </trkpt>
      <trkpt lat="43.73166" lon="5.96357">
        <ele>359.3</ele>
        <time>2023-06-11T10:15:10Z</time>
      </trkpt>
      <trkpt lat="43.73166" lon="5.96357">
        <ele>359.3</ele>
        <time>2023-06-11T10:15:11Z</time>
      </trkpt>
      <trkpt lat="43.73166" lon="5.96357">
        <ele>359.3</ele>
        <time>2023-06-11T10:15:12Z</time>
      </trkpt>
      <trkpt lat="43.73166" lon="5.96357">
        <ele>359.3</ele>
        <time>2023-06-11T10:15:13Z</time>
      </trkpt>
      <trkpt lat="43.73166" lon="5.96357">
        <ele>359.3</ele>
        <time>2023-06-11T10:15:14Z</time>
      </trkpt>
      <trkpt lat="43.73166" lon="5.96357">
        <ele>359.3</ele>
        <time>2023-06-11T10:15:15Z</time>
      </trkpt>
      <trkpt lat="43.73166" lon="5.96357">
        <ele>359.2</ele>
        <time>2023-06-11T10:15:16Z</time>
      </trkpt>
      <trkpt lat="43.73166" lon="5.96357">
        <ele>359.1</ele>
        <time>2023-06-11T10:15:17Z</time>
      </trkpt>
      <trkpt lat="43.73166" lon="5.96357">
        <ele>359.1</ele>
        <time>2023-06-11T10:15:18Z</time>
      </trkpt>
      <trkpt lat="43.73165" lon="5.96357">
        <ele>359.1</ele>
        <time>2023-06-11T10:15:19Z</time>
      </trkpt>
      <trkpt lat="43.73165" lon="5.96357">
        <ele>359.1</ele>
        <time>2023-06-11T10:15:20Z</time>
      </trkpt>
      <trkpt lat="43.73165" lon="5.96357">
        <ele>359.1</ele>
        <time>2023-06-11T10:15:21Z</time>
      </trkpt>
      <trkpt lat="43.73165" lon="5.96357">
        <ele>359.1</ele>
        <time>2023-06-11T10:15:22Z</time>
      </trkpt>
      <trkpt lat="43.73165" lon="5.96357">
        <ele>359.1</ele>
        <time>2023-06-11T10:15:23Z</time>
      </trkpt>
      <trkpt lat="43.73165" lon="5.96357">
        <ele>359.2</ele>
        <time>2023-06-11T10:15:24Z</time>
      </trkpt>
      <trkpt lat="43.73165" lon="5.96357">
        <ele>359.2</ele>
        <time>2023-06-11T10:15:25Z</time>
      </trkpt>
      <trkpt lat="43.73165" lon="5.96357">
        <ele>359.1</ele>
        <time>2023-06-11T10:15:26Z</time>
      </trkpt>
      <trkpt lat="43.73165" lon="5.96356">
        <ele>359.1</ele>
        <time>2023-06-11T10:15:27Z</time>
      </trkpt>
      <trkpt lat="43.73165" lon="5.96356">
        <ele>359</ele>
        <time>2023-06-11T10:15:28Z</time>
      </trkpt>
      <trkpt lat="43.73165" lon="5.96356">
        <ele>359.1</ele>
        <time>2023-06-11T10:15:29Z</time>
      </trkpt>
      <trkpt lat="43.73165" lon="5.96356">
        <ele>359.1</ele>
        <time>2023-06-11T10:15:30Z</time>
      </trkpt>
      <trkpt lat="43.73165" lon="5.96356">
        <ele>359.1</ele>
        <time>2023-06-11T10:15:31Z</time>
      </trkpt>
      <trkpt lat="43.73165" lon="5.96356">
        <ele>359.2</ele>
        <time>2023-06-11T10:15:32Z</time>
      </trkpt>
      <trkpt lat="43.73165" lon="5.96356">
        <ele>359.2</ele>
        <time>2023-06-11T10:15:33Z</time>
      </trkpt>
      <trkpt lat="43.73165" lon="5.96356">
        <ele>359.2</ele>
        <time>2023-06-11T10:15:34Z</time>
      </trkpt>
      <trkpt lat="43.73165" lon="5.96356">
        <ele>359.2</ele>
        <time>2023-06-11T10:15:35Z</time>
      </trkpt>
      <trkpt lat="43.73165" lon="5.96356">
        <ele>359.1</ele>
        <time>2023-06-11T10:15:36Z</time>
      </trkpt>
      <trkpt lat="43.73165" lon="5.96356">
        <ele>359.1</ele>
        <time>2023-06-11T10:15:37Z</time>
      </trkpt>
      <trkpt lat="43.73165" lon="5.96356">
        <ele>359.1</ele>
        <time>2023-06-11T10:15:38Z</time>
      </trkpt>
      <trkpt lat="43.73165" lon="5.96356">
        <ele>359.1</ele>
        <time>2023-06-11T10:15:39Z</time>
      </trkpt>
      <trkpt lat="43.73165" lon="5.96356">
        <ele>359.1</ele>
        <time>2023-06-11T10:15:40Z</time>
      </trkpt>
      <trkpt lat="43.73165" lon="5.96356">
        <ele>359.1</ele>
        <time>2023-06-11T10:15:41Z</time>
      </trkpt>
      <trkpt lat="43.73165" lon="5.96356">
        <ele>359</ele>
        <time>2023-06-11T10:15:42Z</time>
      </trkpt>
      <trkpt lat="43.73165" lon="5.96356">
        <ele>359</ele>
        <time>2023-06-11T10:15:43Z</time>
      </trkpt>
      <trkpt lat="43.73165" lon="5.96356">
        <ele>359</ele>
        <time>2023-06-11T10:15:44Z</time>
      </trkpt>
      <trkpt lat="43.73165" lon="5.96356">
        <ele>359</ele>
        <time>2023-06-11T10:15:45Z</time>
      </trkpt>
      <trkpt lat="43.73165" lon="5.96357">
        <ele>359</ele>
        <time>2023-06-11T10:15:46Z</time>
      </trkpt>
      <trkpt lat="43.73165" lon="5.96357">
        <ele>358.9</ele>
        <time>2023-06-11T10:15:47Z</time>
      </trkpt>
      <trkpt lat="43.73165" lon="5.96357">
        <ele>358.8</ele>
        <time>2023-06-11T10:15:48Z</time>
      </trkpt>
      <trkpt lat="43.73165" lon="5.96357">
        <ele>358.7</ele>
        <time>2023-06-11T10:15:49Z</time>
      </trkpt>
      <trkpt lat="43.73165" lon="5.96357">
        <ele>358.7</ele>
        <time>2023-06-11T10:15:50Z</time>
      </trkpt>
      <trkpt lat="43.73165" lon="5.96357">
        <ele>358.7</ele>
        <time>2023-06-11T10:15:51Z</time>
      </trkpt>
      <trkpt lat="43.73165" lon="5.96357">
        <ele>358.8</ele>
        <time>2023-06-11T10:15:52Z</time>
      </trkpt>
      <trkpt lat="43.73165" lon="5.96357">
        <ele>359</ele>
        <time>2023-06-11T10:15:53Z</time>
      </trkpt>
      <trkpt lat="43.73166" lon="5.96357">
        <ele>359</ele>
        <time>2023-06-11T10:15:54Z</time>
      </trkpt>
      <trkpt lat="43.73166" lon="5.96357">
        <ele>359.2</ele>
        <time>2023-06-11T10:15:55Z</time>
      </trkpt>
      <trkpt lat="43.73166" lon="5.96357">
        <ele>359.2</ele>
        <time>2023-06-11T10:15:56Z</time>
      </trkpt>
      <trkpt lat="43.73166" lon="5.96357">
        <ele>359.2</ele>
        <time>2023-06-11T10:15:57Z</time>
      </trkpt>
      <trkpt lat="43.73166" lon="5.96357">
        <ele>359.3</ele>
        <time>2023-06-11T10:15:58Z</time>
      </trkpt>
      <trkpt lat="43.73166" lon="5.96357">
        <ele>359.3</ele>
        <time>2023-06-11T10:15:59Z</time>
      </trkpt>
      <trkpt lat="43.73166" lon="5.96357">
        <ele>359.3</ele>
        <time>2023-06-11T10:16:00Z</time>
      </trkpt>
      <trkpt lat="43.73166" lon="5.96357">
        <ele>359.4</ele>
        <time>2023-06-11T10:16:01Z</time>
      </trkpt>
      <trkpt lat="43.73166" lon="5.96358">
        <ele>359.4</ele>
        <time>2023-06-11T10:16:02Z</time>
      </trkpt>
      <trkpt lat="43.73166" lon="5.96358">
        <ele>359.4</ele>
        <time>2023-06-11T10:16:03Z</time>
      </trkpt>
      <trkpt lat="43.73166" lon="5.96358">
        <ele>359.4</ele>
        <time>2023-06-11T10:16:04Z</time>
      </trkpt>
      <trkpt lat="43.73166" lon="5.96358">
        <ele>359.3</ele>
        <time>2023-06-11T10:16:05Z</time>
      </trkpt>
      <trkpt lat="43.73167" lon="5.96358">
        <ele>359.3</ele>
        <time>2023-06-11T10:16:06Z</time>
      </trkpt>
      <trkpt lat="43.73167" lon="5.96358">
        <ele>359.3</ele>
        <time>2023-06-11T10:16:07Z</time>
      </trkpt>
      <trkpt lat="43.73167" lon="5.96358">
        <ele>359.2</ele>
        <time>2023-06-11T10:16:08Z</time>
      </trkpt>
      <trkpt lat="43.73167" lon="5.96358">
        <ele>359.2</ele>
        <time>2023-06-11T10:16:09Z</time>
      </trkpt>
      <trkpt lat="43.73167" lon="5.96358">
        <ele>359.2</ele>
        <time>2023-06-11T10:16:10Z</time>
      </trkpt>
      <trkpt lat="43.73167" lon="5.96358">
        <ele>359.2</ele>
        <time>2023-06-11T10:16:11Z</time>
      </trkpt>
      <trkpt lat="43.73167" lon="5.96358">
        <ele>359.2</ele>
        <time>2023-06-11T10:16:12Z</time>
      </trkpt>
      <trkpt lat="43.73167" lon="5.96358">
        <ele>359.2</ele>
        <time>2023-06-11T10:16:13Z</time>
      </trkpt>
      <trkpt lat="43.73167" lon="5.96358">
        <ele>359.2</ele>
        <time>2023-06-11T10:16:14Z</time>
      </trkpt>
      <trkpt lat="43.73167" lon="5.96358">
        <ele>359.3</ele>
        <time>2023-06-11T10:16:15Z</time>
      </trkpt>
      <trkpt lat="43.73168" lon="5.96358">
        <ele>359.3</ele>
        <time>2023-06-11T10:16:16Z</time>
      </trkpt>
      <trkpt lat="43.73168" lon="5.96358">
        <ele>359.4</ele>
        <time>2023-06-11T10:16:17Z</time>
      </trkpt>
      <trkpt lat="43.73168" lon="5.96359">
        <ele>359.5</ele>
        <time>2023-06-11T10:16:18Z</time>
      </trkpt>
      <trkpt lat="43.73168" lon="5.96359">
        <ele>359.5</ele>
        <time>2023-06-11T10:16:19Z</time>
      </trkpt>
      <trkpt lat="43.73168" lon="5.96359">
        <ele>359.5</ele>
        <time>2023-06-11T10:16:20Z</time>
      </trkpt>
      <trkpt lat="43.73168" lon="5.96359">
        <ele>359.5</ele>
        <time>2023-06-11T10:16:21Z</time>
      </trkpt>
      <trkpt lat="43.73169" lon="5.96359">
        <ele>359.5</ele>
        <time>2023-06-11T10:16:22Z</time>
      </trkpt>
      <trkpt lat="43.73169" lon="5.96359">
        <ele>359.5</ele>
        <time>2023-06-11T10:16:23Z</time>
      </trkpt>
      <trkpt lat="43.73169" lon="5.96359">
        <ele>359.6</ele>
        <time>2023-06-11T10:16:24Z</time>
      </trkpt>
      <trkpt lat="43.73169" lon="5.96359">
        <ele>359.6</ele>
        <time>2023-06-11T10:16:25Z</time>
      </trkpt>
      <trkpt lat="43.73169" lon="5.96359">
        <ele>359.6</ele>
        <time>2023-06-11T10:16:26Z</time>
      </trkpt>
      <trkpt lat="43.73169" lon="5.9636">
        <ele>359.6</ele>
        <time>2023-06-11T10:16:27Z</time>
      </trkpt>
      <trkpt lat="43.73169" lon="5.9636">
        <ele>359.6</ele>
        <time>2023-06-11T10:16:28Z</time>
      </trkpt>
      <trkpt lat="43.7317" lon="5.9636">
        <ele>359.6</ele>
        <time>2023-06-11T10:16:29Z</time>
      </trkpt>
      <trkpt lat="43.7317" lon="5.9636">
        <ele>359.6</ele>
        <time>2023-06-11T10:16:30Z</time>
      </trkpt>
      <trkpt lat="43.7317" lon="5.9636">
        <ele>359.6</ele>
        <time>2023-06-11T10:16:31Z</time>
      </trkpt>
      <trkpt lat="43.7317" lon="5.9636">
        <ele>359.6</ele>
        <time>2023-06-11T10:16:32Z</time>
      </trkpt>
      <trkpt lat="43.7317" lon="5.9636">
        <ele>359.5</ele>
        <time>2023-06-11T10:16:33Z</time>
      </trkpt>
      <trkpt lat="43.7317" lon="5.9636">
        <ele>359.5</ele>
        <time>2023-06-11T10:16:34Z</time>
      </trkpt>
      <trkpt lat="43.7317" lon="5.9636">
        <ele>359.5</ele>
        <time>2023-06-11T10:16:35Z</time>
      </trkpt>
      <trkpt lat="43.7317" lon="5.9636">
        <ele>359.5</ele>
        <time>2023-06-11T10:16:36Z</time>
      </trkpt>
      <trkpt lat="43.7317" lon="5.9636">
        <ele>359.5</ele>
        <time>2023-06-11T10:16:37Z</time>
      </trkpt>
      <trkpt lat="43.7317" lon="5.9636">
        <ele>359.5</ele>
        <time>2023-06-11T10:16:38Z</time>
      </trkpt>
      <trkpt lat="43.7317" lon="5.9636">
        <ele>359.5</ele>
        <time>2023-06-11T10:16:39Z</time>
      </trkpt>
      <trkpt lat="43.7317" lon="5.9636">
        <ele>359.4</ele>
        <time>2023-06-11T10:16:40Z</time>
      </trkpt>
      <trkpt lat="43.7317" lon="5.9636">
        <ele>359.4</ele>
        <time>2023-06-11T10:16:41Z</time>
      </trkpt>
      <trkpt lat="43.73171" lon="5.9636">
        <ele>359.5</ele>
        <time>2023-06-11T10:16:42Z</time>
      </trkpt>
      <trkpt lat="43.73171" lon="5.9636">
        <ele>359.6</ele>
        <time>2023-06-11T10:16:43Z</time>
      </trkpt>
      <trkpt lat="43.73171" lon="5.9636">
        <ele>359.6</ele>
        <time>2023-06-11T10:16:44Z</time>
      </trkpt>
      <trkpt lat="43.73171" lon="5.9636">
        <ele>359.6</ele>
        <time>2023-06-11T10:16:45Z</time>
      </trkpt>
      <trkpt lat="43.73171" lon="5.9636">
        <ele>359.6</ele>
        <time>2023-06-11T10:16:46Z</time>
      </trkpt>
      <trkpt lat="43.73171" lon="5.9636">
        <ele>359.6</ele>
        <time>2023-06-11T10:16:47Z</time>
      </trkpt>
      <trkpt lat="43.73171" lon="5.9636">
        <ele>359.6</ele>
        <time>2023-06-11T10:16:48Z</time>
      </trkpt>
      <trkpt lat="43.73171" lon="5.9636">
        <ele>359.5</ele>
        <time>2023-06-11T10:16:49Z</time>
      </trkpt>
      <trkpt lat="43.73171" lon="5.96361">
        <ele>359.6</ele>
        <time>2023-06-11T10:16:50Z</time>
      </trkpt>
      <trkpt lat="43.73172" lon="5.96361">
        <ele>359.6</ele>
        <time>2023-06-11T10:16:51Z</time>
      </trkpt>
      <trkpt lat="43.73172" lon="5.96361">
        <ele>359.6</ele>
        <time>2023-06-11T10:16:52Z</time>
      </trkpt>
      <trkpt lat="43.73172" lon="5.96361">
        <ele>359.6</ele>
        <time>2023-06-11T10:16:53Z</time>
      </trkpt>
      <trkpt lat="43.73172" lon="5.96361">
        <ele>359.5</ele>
        <time>2023-06-11T10:16:54Z</time>
      </trkpt>
      <trkpt lat="43.73172" lon="5.96361">
        <ele>359.5</ele>
        <time>2023-06-11T10:16:55Z</time>
      </trkpt>
      <trkpt lat="43.73172" lon="5.96361">
        <ele>359.4</ele>
        <time>2023-06-11T10:16:56Z</time>
      </trkpt>
      <trkpt lat="43.73172" lon="5.96361">
        <ele>359.3</ele>
        <time>2023-06-11T10:16:57Z</time>
      </trkpt>
      <trkpt lat="43.73172" lon="5.96361">
        <ele>359.4</ele>
        <time>2023-06-11T10:16:58Z</time>
      </trkpt>
      <trkpt lat="43.73172" lon="5.96361">
        <ele>359.4</ele>
        <time>2023-06-11T10:16:59Z</time>
      </trkpt>
      <trkpt lat="43.73172" lon="5.96361">
        <ele>359.3</ele>
        <time>2023-06-11T10:17:00Z</time>
      </trkpt>
      <trkpt lat="43.73172" lon="5.96361">
        <ele>359.3</ele>
        <time>2023-06-11T10:17:01Z</time>
      </trkpt>
      <trkpt lat="43.73172" lon="5.96361">
        <ele>359.3</ele>
        <time>2023-06-11T10:17:02Z</time>
      </trkpt>
      <trkpt lat="43.73172" lon="5.96361">
        <ele>359.3</ele>
        <time>2023-06-11T10:17:03Z</time>
      </trkpt>
      <trkpt lat="43.73172" lon="5.96361">
        <ele>359.4</ele>
        <time>2023-06-11T10:17:04Z</time>
      </trkpt>
      <trkpt lat="43.73172" lon="5.96361">
        <ele>359.4</ele>
        <time>2023-06-11T10:17:05Z</time>
      </trkpt>
      <trkpt lat="43.73172" lon="5.96361">
        <ele>359.4</ele>
        <time>2023-06-11T10:17:06Z</time>
      </trkpt>
      <trkpt lat="43.73172" lon="5.96361">
        <ele>359.4</ele>
        <time>2023-06-11T10:17:07Z</time>
      </trkpt>
      <trkpt lat="43.73172" lon="5.96361">
        <ele>359.4</ele>
        <time>2023-06-11T10:17:08Z</time>
      </trkpt>
      <trkpt lat="43.73172" lon="5.96361">
        <ele>359.4</ele>
        <time>2023-06-11T10:17:09Z</time>
      </trkpt>
      <trkpt lat="43.73172" lon="5.96361">
        <ele>359.4</ele>
        <time>2023-06-11T10:17:10Z</time>
      </trkpt>
      <trkpt lat="43.73172" lon="5.96361">
        <ele>359.5</ele>
        <time>2023-06-11T10:17:11Z</time>
      </trkpt>
      <trkpt lat="43.73172" lon="5.96361">
        <ele>359.5</ele>
        <time>2023-06-11T10:17:12Z</time>
      </trkpt>
      <trkpt lat="43.73172" lon="5.96361">
        <ele>359.5</ele>
        <time>2023-06-11T10:17:13Z</time>
      </trkpt>
      <trkpt lat="43.73172" lon="5.96361">
        <ele>359.5</ele>
        <time>2023-06-11T10:17:14Z</time>
      </trkpt>
      <trkpt lat="43.73172" lon="5.96361">
        <ele>359.5</ele>
        <time>2023-06-11T10:17:15Z</time>
      </trkpt>
      <trkpt lat="43.73172" lon="5.96361">
        <ele>359.4</ele>
        <time>2023-06-11T10:17:16Z</time>
      </trkpt>
      <trkpt lat="43.73172" lon="5.96361">
        <ele>359.4</ele>
        <time>2023-06-11T10:17:17Z</time>
      </trkpt>
      <trkpt lat="43.73172" lon="5.96361">
        <ele>359.4</ele>
        <time>2023-06-11T10:17:18Z</time>
      </trkpt>
      <trkpt lat="43.73172" lon="5.96362">
        <ele>359.3</ele>
        <time>2023-06-11T10:17:19Z</time>
      </trkpt>
      <trkpt lat="43.73172" lon="5.96362">
        <ele>359.4</ele>
        <time>2023-06-11T10:17:20Z</time>
      </trkpt>
      <trkpt lat="43.73172" lon="5.96362">
        <ele>359.4</ele>
        <time>2023-06-11T10:17:21Z</time>
      </trkpt>
      <trkpt lat="43.73172" lon="5.96362">
        <ele>359.5</ele>
        <time>2023-06-11T10:17:22Z</time>
      </trkpt>
      <trkpt lat="43.73172" lon="5.96362">
        <ele>359.5</ele>
        <time>2023-06-11T10:17:23Z</time>
      </trkpt>
      <trkpt lat="43.73172" lon="5.96362">
        <ele>359.5</ele>
        <time>2023-06-11T10:17:24Z</time>
      </trkpt>
      <trkpt lat="43.73172" lon="5.96362">
        <ele>359.5</ele>
        <time>2023-06-11T10:17:25Z</time>
      </trkpt>
      <trkpt lat="43.73171" lon="5.96362">
        <ele>359.5</ele>
        <time>2023-06-11T10:17:26Z</time>
      </trkpt>
      <trkpt lat="43.73171" lon="5.96362">
        <ele>359.5</ele>
        <time>2023-06-11T10:17:27Z</time>
      </trkpt>
      <trkpt lat="43.73171" lon="5.96362">
        <ele>359.4</ele>
        <time>2023-06-11T10:17:28Z</time>
      </trkpt>
      <trkpt lat="43.73171" lon="5.96362">
        <ele>359.3</ele>
        <time>2023-06-11T10:17:29Z</time>
      </trkpt>
      <trkpt lat="43.73171" lon="5.96362">
        <ele>359.3</ele>
        <time>2023-06-11T10:17:30Z</time>
      </trkpt>
      <trkpt lat="43.73171" lon="5.96362">
        <ele>359.3</ele>
        <time>2023-06-11T10:17:31Z</time>
      </trkpt>
      <trkpt lat="43.73171" lon="5.96362">
        <ele>359.3</ele>
        <time>2023-06-11T10:17:32Z</time>
      </trkpt>
      <trkpt lat="43.73171" lon="5.96362">
        <ele>359.3</ele>
        <time>2023-06-11T10:17:33Z</time>
      </trkpt>
      <trkpt lat="43.73171" lon="5.96362">
        <ele>359.3</ele>
        <time>2023-06-11T10:17:34Z</time>
      </trkpt>
      <trkpt lat="43.73171" lon="5.96362">
        <ele>359.3</ele>
        <time>2023-06-11T10:17:35Z</time>
      </trkpt>
      <trkpt lat="43.73171" lon="5.96362">
        <ele>359.3</ele>
        <time>2023-06-11T10:17:36Z</time>
      </trkpt>
      <trkpt lat="43.73171" lon="5.96362">
        <ele>359.4</ele>
        <time>2023-06-11T10:17:37Z</time>
      </trkpt>
      <trkpt lat="43.73171" lon="5.96362">
        <ele>359.3</ele>
        <time>2023-06-11T10:17:38Z</time>
      </trkpt>
      <trkpt lat="43.73171" lon="5.96362">
        <ele>359.3</ele>
        <time>2023-06-11T10:17:39Z</time>
      </trkpt>
      <trkpt lat="43.73171" lon="5.96362">
        <ele>359.3</ele>
        <time>2023-06-11T10:17:40Z</time>
      </trkpt>
      <trkpt lat="43.73171" lon="5.96362">
        <ele>359.3</ele>
        <time>2023-06-11T10:17:41Z</time>
      </trkpt>
      <trkpt lat="43.73171" lon="5.96362">
        <ele>359.3</ele>
        <time>2023-06-11T10:17:42Z</time>
      </trkpt>
      <trkpt lat="43.73171" lon="5.96362">
        <ele>359.3</ele>
        <time>2023-06-11T10:17:43Z</time>
      </trkpt>
      <trkpt lat="43.73171" lon="5.96362">
        <ele>359.3</ele>
        <time>2023-06-11T10:17:44Z</time>
      </trkpt>
      <trkpt lat="43.7317" lon="5.96362">
        <ele>359.3</ele>
        <time>2023-06-11T10:17:45Z</time>
      </trkpt>
      <trkpt lat="43.7317" lon="5.96362">
        <ele>359.3</ele>
        <time>2023-06-11T10:17:46Z</time>
      </trkpt>
      <trkpt lat="43.7317" lon="5.96362">
        <ele>359.4</ele>
        <time>2023-06-11T10:17:47Z</time>
      </trkpt>
      <trkpt lat="43.7317" lon="5.96362">
        <ele>359.5</ele>
        <time>2023-06-11T10:17:48Z</time>
      </trkpt>
      <trkpt lat="43.7317" lon="5.96362">
        <ele>359.6</ele>
        <time>2023-06-11T10:17:49Z</time>
      </trkpt>
      <trkpt lat="43.7317" lon="5.96362">
        <ele>359.5</ele>
        <time>2023-06-11T10:17:50Z</time>
      </trkpt>
      <trkpt lat="43.7317" lon="5.96362">
        <ele>359.5</ele>
        <time>2023-06-11T10:17:51Z</time>
      </trkpt>
      <trkpt lat="43.7317" lon="5.96362">
        <ele>359.5</ele>
        <time>2023-06-11T10:17:52Z</time>
      </trkpt>
      <trkpt lat="43.7317" lon="5.96362">
        <ele>359.6</ele>
        <time>2023-06-11T10:17:53Z</time>
      </trkpt>
      <trkpt lat="43.7317" lon="5.96362">
        <ele>359.5</ele>
        <time>2023-06-11T10:17:54Z</time>
      </trkpt>
      <trkpt lat="43.7317" lon="5.96362">
        <ele>359.5</ele>
        <time>2023-06-11T10:17:55Z</time>
      </trkpt>
      <trkpt lat="43.7317" lon="5.96362">
        <ele>359.5</ele>
        <time>2023-06-11T10:17:56Z</time>
      </trkpt>
      <trkpt lat="43.7317" lon="5.96362">
        <ele>359.6</ele>
        <time>2023-06-11T10:17:57Z</time>
      </trkpt>
      <trkpt lat="43.7317" lon="5.96362">
        <ele>359.6</ele>
        <time>2023-06-11T10:17:58Z</time>
      </trkpt>
      <trkpt lat="43.7317" lon="5.96362">
        <ele>359.6</ele>
        <time>2023-06-11T10:17:59Z</time>
      </trkpt>
      <trkpt lat="43.7317" lon="5.96362">
        <ele>359.6</ele>
        <time>2023-06-11T10:18:00Z</time>
      </trkpt>
      <trkpt lat="43.7317" lon="5.96362">
        <ele>359.6</ele>
        <time>2023-06-11T10:18:01Z</time>
      </trkpt>
      <trkpt lat="43.73169" lon="5.96362">
        <ele>359.6</ele>
        <time>2023-06-11T10:18:02Z</time>
      </trkpt>
      <trkpt lat="43.73169" lon="5.96362">
        <ele>359.6</ele>
        <time>2023-06-11T10:18:03Z</time>
      </trkpt>
      <trkpt lat="43.73169" lon="5.96362">
        <ele>359.6</ele>
        <time>2023-06-11T10:18:04Z</time>
      </trkpt>
      <trkpt lat="43.73169" lon="5.96362">
        <ele>359.7</ele>
        <time>2023-06-11T10:18:05Z</time>
      </trkpt>
      <trkpt lat="43.73168" lon="5.96363">
        <ele>359.6</ele>
        <time>2023-06-11T10:18:06Z</time>
      </trkpt>
      <trkpt lat="43.73168" lon="5.96363">
        <ele>359.6</ele>
        <time>2023-06-11T10:18:07Z</time>
      </trkpt>
      <trkpt lat="43.73168" lon="5.96363">
        <ele>359.6</ele>
        <time>2023-06-11T10:18:08Z</time>
      </trkpt>
      <trkpt lat="43.73168" lon="5.96363">
        <ele>359.5</ele>
        <time>2023-06-11T10:18:09Z</time>
      </trkpt>
      <trkpt lat="43.73168" lon="5.96363">
        <ele>359.5</ele>
        <time>2023-06-11T10:18:10Z</time>
      </trkpt>
      <trkpt lat="43.73168" lon="5.96363">
        <ele>359.5</ele>
        <time>2023-06-11T10:18:11Z</time>
      </trkpt>
      <trkpt lat="43.73168" lon="5.96363">
        <ele>359.5</ele>
        <time>2023-06-11T10:18:12Z</time>
      </trkpt>
      <trkpt lat="43.73168" lon="5.96363">
        <ele>359.5</ele>
        <time>2023-06-11T10:18:13Z</time>
      </trkpt>
      <trkpt lat="43.73168" lon="5.96363">
        <ele>359.4</ele>
        <time>2023-06-11T10:18:14Z</time>
      </trkpt>
      <trkpt lat="43.73168" lon="5.96363">
        <ele>359.4</ele>
        <time>2023-06-11T10:18:15Z</time>
      </trkpt>
      <trkpt lat="43.73168" lon="5.96363">
        <ele>359.3</ele>
        <time>2023-06-11T10:18:16Z</time>
      </trkpt>
      <trkpt lat="43.73169" lon="5.96363">
        <ele>359.4</ele>
        <time>2023-06-11T10:18:17Z</time>
      </trkpt>
      <trkpt lat="43.73169" lon="5.96362">
        <ele>359.4</ele>
        <time>2023-06-11T10:18:18Z</time>
      </trkpt>
      <trkpt lat="43.73169" lon="5.96362">
        <ele>359.4</ele>
        <time>2023-06-11T10:18:19Z</time>
      </trkpt>
      <trkpt lat="43.73169" lon="5.96362">
        <ele>359.5</ele>
        <time>2023-06-11T10:18:20Z</time>
      </trkpt>
      <trkpt lat="43.73169" lon="5.96362">
        <ele>359.3</ele>
        <time>2023-06-11T10:18:21Z</time>
      </trkpt>
      <trkpt lat="43.73169" lon="5.96362">
        <ele>359.3</ele>
        <time>2023-06-11T10:18:22Z</time>
      </trkpt>
      <trkpt lat="43.73169" lon="5.96362">
        <ele>359.3</ele>
        <time>2023-06-11T10:18:23Z</time>
      </trkpt>
      <trkpt lat="43.73169" lon="5.96362">
        <ele>359.3</ele>
        <time>2023-06-11T10:18:24Z</time>
      </trkpt>
      <trkpt lat="43.73169" lon="5.96362">
        <ele>359.3</ele>
        <time>2023-06-11T10:18:25Z</time>
      </trkpt>
      <trkpt lat="43.73169" lon="5.96362">
        <ele>359.4</ele>
        <time>2023-06-11T10:18:26Z</time>
      </trkpt>
      <trkpt lat="43.73169" lon="5.96362">
        <ele>359.5</ele>
        <time>2023-06-11T10:18:27Z</time>
      </trkpt>
      <trkpt lat="43.73169" lon="5.96362">
        <ele>359.5</ele>
        <time>2023-06-11T10:18:28Z</time>
      </trkpt>
      <trkpt lat="43.73169" lon="5.96362">
        <ele>359.5</ele>
        <time>2023-06-11T10:18:29Z</time>
      </trkpt>
      <trkpt lat="43.73169" lon="5.96362">
        <ele>359.5</ele>
        <time>2023-06-11T10:18:30Z</time>
      </trkpt>
      <trkpt lat="43.73169" lon="5.96362">
        <ele>359.5</ele>
        <time>2023-06-11T10:18:31Z</time>
      </trkpt>
      <trkpt lat="43.73169" lon="5.96362">
        <ele>359.6</ele>
        <time>2023-06-11T10:18:32Z</time>
      </trkpt>
      <trkpt lat="43.73169" lon="5.96362">
        <ele>359.6</ele>
        <time>2023-06-11T10:18:33Z</time>
      </trkpt>
      <trkpt lat="43.73169" lon="5.96362">
        <ele>359.6</ele>
        <time>2023-06-11T10:18:34Z</time>
      </trkpt>
      <trkpt lat="43.73169" lon="5.96362">
        <ele>359.6</ele>
        <time>2023-06-11T10:18:35Z</time>
      </trkpt>
      <trkpt lat="43.73169" lon="5.96362">
        <ele>359.6</ele>
        <time>2023-06-11T10:18:36Z</time>
      </trkpt>
      <trkpt lat="43.73169" lon="5.96362">
        <ele>359.4</ele>
        <time>2023-06-11T10:18:37Z</time>
      </trkpt>
      <trkpt lat="43.73169" lon="5.96362">
        <ele>359.4</ele>
        <time>2023-06-11T10:18:38Z</time>
      </trkpt>
      <trkpt lat="43.7317" lon="5.96362">
        <ele>359.3</ele>
        <time>2023-06-11T10:18:39Z</time>
      </trkpt>
      <trkpt lat="43.7317" lon="5.96362">
        <ele>359.4</ele>
        <time>2023-06-11T10:18:40Z</time>
      </trkpt>
      <trkpt lat="43.7317" lon="5.96363">
        <ele>359.5</ele>
        <time>2023-06-11T10:18:41Z</time>
      </trkpt>
      <trkpt lat="43.7317" lon="5.96363">
        <ele>359.5</ele>
        <time>2023-06-11T10:18:42Z</time>
      </trkpt>
      <trkpt lat="43.7317" lon="5.96363">
        <ele>359.5</ele>
        <time>2023-06-11T10:18:43Z</time>
      </trkpt>
      <trkpt lat="43.7317" lon="5.96363">
        <ele>359.5</ele>
        <time>2023-06-11T10:18:44Z</time>
      </trkpt>
      <trkpt lat="43.7317" lon="5.96363">
        <ele>359.6</ele>
        <time>2023-06-11T10:18:45Z</time>
      </trkpt>
      <trkpt lat="43.7317" lon="5.96363">
        <ele>359.6</ele>
        <time>2023-06-11T10:18:46Z</time>
      </trkpt>
      <trkpt lat="43.7317" lon="5.96363">
        <ele>359.5</ele>
        <time>2023-06-11T10:18:47Z</time>
      </trkpt>
      <trkpt lat="43.7317" lon="5.96363">
        <ele>359.4</ele>
        <time>2023-06-11T10:18:48Z</time>
      </trkpt>
      <trkpt lat="43.7317" lon="5.96363">
        <ele>359.5</ele>
        <time>2023-06-11T10:18:49Z</time>
      </trkpt>
      <trkpt lat="43.7317" lon="5.96363">
        <ele>359.6</ele>
        <time>2023-06-11T10:18:50Z</time>
      </trkpt>
      <trkpt lat="43.7317" lon="5.96363">
        <ele>359.6</ele>
        <time>2023-06-11T10:18:51Z</time>
      </trkpt>
      <trkpt lat="43.7317" lon="5.96362">
        <ele>359.7</ele>
        <time>2023-06-11T10:18:52Z</time>
      </trkpt>
      <trkpt lat="43.7317" lon="5.96362">
        <ele>359.6</ele>
        <time>2023-06-11T10:18:53Z</time>
      </trkpt>
      <trkpt lat="43.7317" lon="5.96362">
        <ele>359.6</ele>
        <time>2023-06-11T10:18:54Z</time>
      </trkpt>
      <trkpt lat="43.7317" lon="5.96362">
        <ele>359.6</ele>
        <time>2023-06-11T10:18:55Z</time>
      </trkpt>
      <trkpt lat="43.7317" lon="5.96362">
        <ele>359.6</ele>
        <time>2023-06-11T10:18:56Z</time>
      </trkpt>
      <trkpt lat="43.7317" lon="5.96362">
        <ele>359.6</ele>
        <time>2023-06-11T10:18:57Z</time>
      </trkpt>
      <trkpt lat="43.7317" lon="5.96362">
        <ele>359.6</ele>
        <time>2023-06-11T10:18:58Z</time>
      </trkpt>
      <trkpt lat="43.7317" lon="5.96362">
        <ele>359.6</ele>
        <time>2023-06-11T10:18:59Z</time>
      </trkpt>
      <trkpt lat="43.7317" lon="5.96362">
        <ele>359.5</ele>
        <time>2023-06-11T10:19:00Z</time>
      </trkpt>
      <trkpt lat="43.73169" lon="5.96362">
        <ele>359.5</ele>
        <time>2023-06-11T10:19:01Z</time>
      </trkpt>
      <trkpt lat="43.73169" lon="5.96362">
        <ele>359.4</ele>
        <time>2023-06-11T10:19:02Z</time>
      </trkpt>
      <trkpt lat="43.73169" lon="5.96362">
        <ele>359.3</ele>
        <time>2023-06-11T10:19:03Z</time>
      </trkpt>
      <trkpt lat="43.73169" lon="5.96362">
        <ele>359.3</ele>
        <time>2023-06-11T10:19:04Z</time>
      </trkpt>
      <trkpt lat="43.73169" lon="5.96362">
        <ele>359.3</ele>
        <time>2023-06-11T10:19:05Z</time>
      </trkpt>
      <trkpt lat="43.73169" lon="5.96362">
        <ele>359.3</ele>
        <time>2023-06-11T10:19:06Z</time>
      </trkpt>
      <trkpt lat="43.73169" lon="5.96362">
        <ele>359.2</ele>
        <time>2023-06-11T10:19:07Z</time>
      </trkpt>
      <trkpt lat="43.73169" lon="5.96362">
        <ele>359.2</ele>
        <time>2023-06-11T10:19:08Z</time>
      </trkpt>
      <trkpt lat="43.73169" lon="5.96362">
        <ele>359.2</ele>
        <time>2023-06-11T10:19:09Z</time>
      </trkpt>
      <trkpt lat="43.73169" lon="5.96362">
        <ele>359.3</ele>
        <time>2023-06-11T10:19:10Z</time>
      </trkpt>
      <trkpt lat="43.73169" lon="5.96362">
        <ele>359.3</ele>
        <time>2023-06-11T10:19:11Z</time>
      </trkpt>
      <trkpt lat="43.73169" lon="5.96362">
        <ele>359.3</ele>
        <time>2023-06-11T10:19:12Z</time>
      </trkpt>
      <trkpt lat="43.73169" lon="5.96362">
        <ele>359.3</ele>
        <time>2023-06-11T10:19:13Z</time>
      </trkpt>
      <trkpt lat="43.73169" lon="5.96362">
        <ele>359.3</ele>
        <time>2023-06-11T10:19:14Z</time>
      </trkpt>
      <trkpt lat="43.73169" lon="5.96362">
        <ele>359.3</ele>
        <time>2023-06-11T10:19:15Z</time>
      </trkpt>
      <trkpt lat="43.73169" lon="5.96362">
        <ele>359.2</ele>
        <time>2023-06-11T10:19:16Z</time>
      </trkpt>
      <trkpt lat="43.73168" lon="5.96362">
        <ele>359.2</ele>
        <time>2023-06-11T10:19:17Z</time>
      </trkpt>
      <trkpt lat="43.73168" lon="5.96362">
        <ele>359.2</ele>
        <time>2023-06-11T10:19:18Z</time>
      </trkpt>
      <trkpt lat="43.73168" lon="5.96362">
        <ele>359.2</ele>
        <time>2023-06-11T10:19:19Z</time>
      </trkpt>
      <trkpt lat="43.73168" lon="5.96362">
        <ele>359.2</ele>
        <time>2023-06-11T10:19:20Z</time>
      </trkpt>
      <trkpt lat="43.73168" lon="5.96362">
        <ele>359.2</ele>
        <time>2023-06-11T10:19:21Z</time>
      </trkpt>
      <trkpt lat="43.73168" lon="5.96362">
        <ele>359.3</ele>
        <time>2023-06-11T10:19:22Z</time>
      </trkpt>
      <trkpt lat="43.73168" lon="5.96362">
        <ele>359.3</ele>
        <time>2023-06-11T10:19:23Z</time>
      </trkpt>
      <trkpt lat="43.73168" lon="5.96362">
        <ele>359.3</ele>
        <time>2023-06-11T10:19:24Z</time>
      </trkpt>
      <trkpt lat="43.73168" lon="5.96362">
        <ele>359.3</ele>
        <time>2023-06-11T10:19:25Z</time>
      </trkpt>
      <trkpt lat="43.73167" lon="5.96362">
        <ele>359.2</ele>
        <time>2023-06-11T10:19:26Z</time>
      </trkpt>
      <trkpt lat="43.73167" lon="5.96362">
        <ele>359.2</ele>
        <time>2023-06-11T10:19:27Z</time>
      </trkpt>
      <trkpt lat="43.73167" lon="5.96362">
        <ele>359.1</ele>
        <time>2023-06-11T10:19:28Z</time>
      </trkpt>
      <trkpt lat="43.73167" lon="5.96362">
        <ele>359.1</ele>
        <time>2023-06-11T10:19:29Z</time>
      </trkpt>
      <trkpt lat="43.73167" lon="5.96362">
        <ele>359</ele>
        <time>2023-06-11T10:19:30Z</time>
      </trkpt>
      <trkpt lat="43.73167" lon="5.96362">
        <ele>359</ele>
        <time>2023-06-11T10:19:31Z</time>
      </trkpt>
      <trkpt lat="43.73167" lon="5.96362">
        <ele>359</ele>
        <time>2023-06-11T10:19:32Z</time>
      </trkpt>
      <trkpt lat="43.73167" lon="5.96362">
        <ele>359.1</ele>
        <time>2023-06-11T10:19:33Z</time>
      </trkpt>
      <trkpt lat="43.73166" lon="5.96362">
        <ele>359.2</ele>
        <time>2023-06-11T10:19:34Z</time>
      </trkpt>
      <trkpt lat="43.73166" lon="5.96362">
        <ele>359.2</ele>
        <time>2023-06-11T10:19:35Z</time>
      </trkpt>
      <trkpt lat="43.73166" lon="5.96362">
        <ele>359.2</ele>
        <time>2023-06-11T10:19:36Z</time>
      </trkpt>
      <trkpt lat="43.73166" lon="5.96362">
        <ele>359.2</ele>
        <time>2023-06-11T10:19:37Z</time>
      </trkpt>
      <trkpt lat="43.73166" lon="5.96362">
        <ele>359.2</ele>
        <time>2023-06-11T10:19:38Z</time>
      </trkpt>
      <trkpt lat="43.73166" lon="5.96361">
        <ele>359.1</ele>
        <time>2023-06-11T10:19:39Z</time>
      </trkpt>
      <trkpt lat="43.73166" lon="5.96361">
        <ele>359.1</ele>
        <time>2023-06-11T10:19:40Z</time>
      </trkpt>
      <trkpt lat="43.73166" lon="5.96361">
        <ele>359.1</ele>
        <time>2023-06-11T10:19:41Z</time>
      </trkpt>
      <trkpt lat="43.73165" lon="5.96361">
        <ele>359.1</ele>
        <time>2023-06-11T10:19:42Z</time>
      </trkpt>
      <trkpt lat="43.73165" lon="5.96361">
        <ele>359.2</ele>
        <time>2023-06-11T10:19:43Z</time>
      </trkpt>
      <trkpt lat="43.73165" lon="5.96361">
        <ele>359.2</ele>
        <time>2023-06-11T10:19:44Z</time>
      </trkpt>
      <trkpt lat="43.73165" lon="5.96361">
        <ele>359.3</ele>
        <time>2023-06-11T10:19:45Z</time>
      </trkpt>
      <trkpt lat="43.73165" lon="5.96361">
        <ele>359.3</ele>
        <time>2023-06-11T10:19:46Z</time>
      </trkpt>
      <trkpt lat="43.73165" lon="5.96361">
        <ele>359.4</ele>
        <time>2023-06-11T10:19:47Z</time>
      </trkpt>
      <trkpt lat="43.73165" lon="5.96361">
        <ele>359.4</ele>
        <time>2023-06-11T10:19:48Z</time>
      </trkpt>
      <trkpt lat="43.73165" lon="5.96361">
        <ele>359.4</ele>
        <time>2023-06-11T10:19:49Z</time>
      </trkpt>
      <trkpt lat="43.73165" lon="5.96361">
        <ele>359.5</ele>
        <time>2023-06-11T10:19:50Z</time>
      </trkpt>
      <trkpt lat="43.73165" lon="5.96361">
        <ele>359.5</ele>
        <time>2023-06-11T10:19:51Z</time>
      </trkpt>
      <trkpt lat="43.73165" lon="5.96361">
        <ele>359.5</ele>
        <time>2023-06-11T10:19:52Z</time>
      </trkpt>
      <trkpt lat="43.73165" lon="5.96361">
        <ele>359.5</ele>
        <time>2023-06-11T10:19:53Z</time>
      </trkpt>
      <trkpt lat="43.73165" lon="5.96361">
        <ele>359.5</ele>
        <time>2023-06-11T10:19:54Z</time>
      </trkpt>
      <trkpt lat="43.73165" lon="5.96361">
        <ele>359.5</ele>
        <time>2023-06-11T10:19:55Z</time>
      </trkpt>
      <trkpt lat="43.73166" lon="5.96361">
        <ele>359.5</ele>
        <time>2023-06-11T10:19:56Z</time>
      </trkpt>
      <trkpt lat="43.73166" lon="5.96361">
        <ele>359.5</ele>
        <time>2023-06-11T10:19:57Z</time>
      </trkpt>
      <trkpt lat="43.73166" lon="5.96361">
        <ele>359.5</ele>
        <time>2023-06-11T10:19:58Z</time>
      </trkpt>
      <trkpt lat="43.73166" lon="5.96361">
        <ele>359.5</ele>
        <time>2023-06-11T10:19:59Z</time>
      </trkpt>
      <trkpt lat="43.73166" lon="5.96361">
        <ele>359.4</ele>
        <time>2023-06-11T10:20:00Z</time>
      </trkpt>
      <trkpt lat="43.73166" lon="5.96361">
        <ele>359.4</ele>
        <time>2023-06-11T10:20:01Z</time>
      </trkpt>
      <trkpt lat="43.73166" lon="5.96361">
        <ele>359.4</ele>
        <time>2023-06-11T10:20:02Z</time>
      </trkpt>
      <trkpt lat="43.73166" lon="5.96361">
        <ele>359.4</ele>
        <time>2023-06-11T10:20:03Z</time>
      </trkpt>
      <trkpt lat="43.73166" lon="5.96361">
        <ele>359.4</ele>
        <time>2023-06-11T10:20:04Z</time>
      </trkpt>
      <trkpt lat="43.73166" lon="5.96361">
        <ele>359.4</ele>
        <time>2023-06-11T10:20:05Z</time>
      </trkpt>
      <trkpt lat="43.73166" lon="5.96361">
        <ele>359.5</ele>
        <time>2023-06-11T10:20:06Z</time>
      </trkpt>
      <trkpt lat="43.73166" lon="5.96361">
        <ele>359.5</ele>
        <time>2023-06-11T10:20:07Z</time>
      </trkpt>
      <trkpt lat="43.73166" lon="5.96361">
        <ele>359.6</ele>
        <time>2023-06-11T10:20:08Z</time>
      </trkpt>
      <trkpt lat="43.73166" lon="5.96361">
        <ele>359.7</ele>
        <time>2023-06-11T10:20:09Z</time>
      </trkpt>
      <trkpt lat="43.73167" lon="5.96361">
        <ele>359.8</ele>
        <time>2023-06-11T10:20:10Z</time>
      </trkpt>
      <trkpt lat="43.73166" lon="5.96361">
        <ele>359.8</ele>
        <time>2023-06-11T10:20:11Z</time>
      </trkpt>
      <trkpt lat="43.73167" lon="5.96361">
        <ele>359.8</ele>
        <time>2023-06-11T10:20:12Z</time>
      </trkpt>
      <trkpt lat="43.73167" lon="5.96361">
        <ele>359.9</ele>
        <time>2023-06-11T10:20:13Z</time>
      </trkpt>
      <trkpt lat="43.73167" lon="5.96361">
        <ele>359.9</ele>
        <time>2023-06-11T10:20:14Z</time>
      </trkpt>
      <trkpt lat="43.73167" lon="5.96361">
        <ele>359.9</ele>
        <time>2023-06-11T10:20:15Z</time>
      </trkpt>
      <trkpt lat="43.73167" lon="5.96361">
        <ele>359.9</ele>
        <time>2023-06-11T10:20:16Z</time>
      </trkpt>
      <trkpt lat="43.73167" lon="5.96361">
        <ele>359.9</ele>
        <time>2023-06-11T10:20:17Z</time>
      </trkpt>
      <trkpt lat="43.73167" lon="5.96361">
        <ele>360</ele>
        <time>2023-06-11T10:20:18Z</time>
      </trkpt>
      <trkpt lat="43.73167" lon="5.96361">
        <ele>360</ele>
        <time>2023-06-11T10:20:19Z</time>
      </trkpt>
      <trkpt lat="43.73167" lon="5.96361">
        <ele>360</ele>
        <time>2023-06-11T10:20:20Z</time>
      </trkpt>
      <trkpt lat="43.73167" lon="5.96361">
        <ele>360</ele>
        <time>2023-06-11T10:20:21Z</time>
      </trkpt>
      <trkpt lat="43.73166" lon="5.96361">
        <ele>359.9</ele>
        <time>2023-06-11T10:20:22Z</time>
      </trkpt>
      <trkpt lat="43.73167" lon="5.96361">
        <ele>359.9</ele>
        <time>2023-06-11T10:20:23Z</time>
      </trkpt>
      <trkpt lat="43.73167" lon="5.96361">
        <ele>359.8</ele>
        <time>2023-06-11T10:20:24Z</time>
      </trkpt>
      <trkpt lat="43.73166" lon="5.96361">
        <ele>359.9</ele>
        <time>2023-06-11T10:20:25Z</time>
      </trkpt>
      <trkpt lat="43.73166" lon="5.96361">
        <ele>359.9</ele>
        <time>2023-06-11T10:20:26Z</time>
      </trkpt>
      <trkpt lat="43.73166" lon="5.96361">
        <ele>359.7</ele>
        <time>2023-06-11T10:20:27Z</time>
      </trkpt>
      <trkpt lat="43.73166" lon="5.96361">
        <ele>359.7</ele>
        <time>2023-06-11T10:20:28Z</time>
      </trkpt>
      <trkpt lat="43.73166" lon="5.96361">
        <ele>359.7</ele>
        <time>2023-06-11T10:20:29Z</time>
      </trkpt>
      <trkpt lat="43.73166" lon="5.96361">
        <ele>359.7</ele>
        <time>2023-06-11T10:20:30Z</time>
      </trkpt>
      <trkpt lat="43.73166" lon="5.96361">
        <ele>359.6</ele>
        <time>2023-06-11T10:20:31Z</time>
      </trkpt>
      <trkpt lat="43.73166" lon="5.96361">
        <ele>359.6</ele>
        <time>2023-06-11T10:20:32Z</time>
      </trkpt>
      <trkpt lat="43.73166" lon="5.96361">
        <ele>359.6</ele>
        <time>2023-06-11T10:20:33Z</time>
      </trkpt>
      <trkpt lat="43.73166" lon="5.9636">
        <ele>359.6</ele>
        <time>2023-06-11T10:20:34Z</time>
      </trkpt>
      <trkpt lat="43.73166" lon="5.9636">
        <ele>359.7</ele>
        <time>2023-06-11T10:20:35Z</time>
      </trkpt>
      <trkpt lat="43.73166" lon="5.9636">
        <ele>359.6</ele>
        <time>2023-06-11T10:20:36Z</time>
      </trkpt>
      <trkpt lat="43.73166" lon="5.9636">
        <ele>359.6</ele>
        <time>2023-06-11T10:20:37Z</time>
      </trkpt>
      <trkpt lat="43.73166" lon="5.9636">
        <ele>359.5</ele>
        <time>2023-06-11T10:20:38Z</time>
      </trkpt>
      <trkpt lat="43.73166" lon="5.9636">
        <ele>359.5</ele>
        <time>2023-06-11T10:20:39Z</time>
      </trkpt>
      <trkpt lat="43.73166" lon="5.96359">
        <ele>359.4</ele>
        <time>2023-06-11T10:20:40Z</time>
      </trkpt>
      <trkpt lat="43.73166" lon="5.96359">
        <ele>359.6</ele>
        <time>2023-06-11T10:20:41Z</time>
      </trkpt>
      <trkpt lat="43.73166" lon="5.96359">
        <ele>359.6</ele>
        <time>2023-06-11T10:20:42Z</time>
      </trkpt>
      <trkpt lat="43.73166" lon="5.96359">
        <ele>359.6</ele>
        <time>2023-06-11T10:20:43Z</time>
      </trkpt>
      <trkpt lat="43.73166" lon="5.96359">
        <ele>359.6</ele>
        <time>2023-06-11T10:20:44Z</time>
      </trkpt>
      <trkpt lat="43.73166" lon="5.96359">
        <ele>359.6</ele>
        <time>2023-06-11T10:20:45Z</time>
      </trkpt>
      <trkpt lat="43.73166" lon="5.96359">
        <ele>359.6</ele>
        <time>2023-06-11T10:20:46Z</time>
      </trkpt>
      <trkpt lat="43.73166" lon="5.96359">
        <ele>359.6</ele>
        <time>2023-06-11T10:20:47Z</time>
      </trkpt>
      <trkpt lat="43.73166" lon="5.96359">
        <ele>359.6</ele>
        <time>2023-06-11T10:20:48Z</time>
      </trkpt>
      <trkpt lat="43.73166" lon="5.96359">
        <ele>359.6</ele>
        <time>2023-06-11T10:20:49Z</time>
      </trkpt>
      <trkpt lat="43.73166" lon="5.96359">
        <ele>359.5</ele>
        <time>2023-06-11T10:20:50Z</time>
      </trkpt>
      <trkpt lat="43.73167" lon="5.96359">
        <ele>359.6</ele>
        <time>2023-06-11T10:20:51Z</time>
      </trkpt>
      <trkpt lat="43.73167" lon="5.96359">
        <ele>359.6</ele>
        <time>2023-06-11T10:20:52Z</time>
      </trkpt>
      <trkpt lat="43.73167" lon="5.96359">
        <ele>359.6</ele>
        <time>2023-06-11T10:20:53Z</time>
      </trkpt>
      <trkpt lat="43.73167" lon="5.96359">
        <ele>359.6</ele>
        <time>2023-06-11T10:20:54Z</time>
      </trkpt>
      <trkpt lat="43.73167" lon="5.96359">
        <ele>359.6</ele>
        <time>2023-06-11T10:20:55Z</time>
      </trkpt>
      <trkpt lat="43.73167" lon="5.96359">
        <ele>359.6</ele>
        <time>2023-06-11T10:20:56Z</time>
      </trkpt>
      <trkpt lat="43.73167" lon="5.96359">
        <ele>359.7</ele>
        <time>2023-06-11T10:20:57Z</time>
      </trkpt>
      <trkpt lat="43.73167" lon="5.96359">
        <ele>359.7</ele>
        <time>2023-06-11T10:20:58Z</time>
      </trkpt>
      <trkpt lat="43.73167" lon="5.96359">
        <ele>359.7</ele>
        <time>2023-06-11T10:20:59Z</time>
      </trkpt>
      <trkpt lat="43.73167" lon="5.96359">
        <ele>359.7</ele>
        <time>2023-06-11T10:21:00Z</time>
      </trkpt>
      <trkpt lat="43.73167" lon="5.96359">
        <ele>359.7</ele>
        <time>2023-06-11T10:21:01Z</time>
      </trkpt>
      <trkpt lat="43.73167" lon="5.96359">
        <ele>359.7</ele>
        <time>2023-06-11T10:21:02Z</time>
      </trkpt>
      <trkpt lat="43.73167" lon="5.96359">
        <ele>359.6</ele>
        <time>2023-06-11T10:21:03Z</time>
      </trkpt>
      <trkpt lat="43.73167" lon="5.96359">
        <ele>359.6</ele>
        <time>2023-06-11T10:21:04Z</time>
      </trkpt>
      <trkpt lat="43.73167" lon="5.96359">
        <ele>359.6</ele>
        <time>2023-06-11T10:21:05Z</time>
      </trkpt>
      <trkpt lat="43.73167" lon="5.96359">
        <ele>359.6</ele>
        <time>2023-06-11T10:21:06Z</time>
      </trkpt>
      <trkpt lat="43.73167" lon="5.96358">
        <ele>359.5</ele>
        <time>2023-06-11T10:21:07Z</time>
      </trkpt>
      <trkpt lat="43.73167" lon="5.96358">
        <ele>359.5</ele>
        <time>2023-06-11T10:21:08Z</time>
      </trkpt>
      <trkpt lat="43.73167" lon="5.96358">
        <ele>359.5</ele>
        <time>2023-06-11T10:21:09Z</time>
      </trkpt>
      <trkpt lat="43.73167" lon="5.96358">
        <ele>359.5</ele>
        <time>2023-06-11T10:21:10Z</time>
      </trkpt>
      <trkpt lat="43.73167" lon="5.96358">
        <ele>359.4</ele>
        <time>2023-06-11T10:21:11Z</time>
      </trkpt>
      <trkpt lat="43.73167" lon="5.96358">
        <ele>359.5</ele>
        <time>2023-06-11T10:21:12Z</time>
      </trkpt>
      <trkpt lat="43.73167" lon="5.96359">
        <ele>359.6</ele>
        <time>2023-06-11T10:21:13Z</time>
      </trkpt>
      <trkpt lat="43.73167" lon="5.96358">
        <ele>359.6</ele>
        <time>2023-06-11T10:21:14Z</time>
      </trkpt>
      <trkpt lat="43.73167" lon="5.96358">
        <ele>359.7</ele>
        <time>2023-06-11T10:21:15Z</time>
      </trkpt>
      <trkpt lat="43.73167" lon="5.96359">
        <ele>359.8</ele>
        <time>2023-06-11T10:21:16Z</time>
      </trkpt>
      <trkpt lat="43.73167" lon="5.96359">
        <ele>359.7</ele>
        <time>2023-06-11T10:21:17Z</time>
      </trkpt>
      <trkpt lat="43.73167" lon="5.96359">
        <ele>359.8</ele>
        <time>2023-06-11T10:21:18Z</time>
      </trkpt>
      <trkpt lat="43.73167" lon="5.96359">
        <ele>359.7</ele>
        <time>2023-06-11T10:21:19Z</time>
      </trkpt>
      <trkpt lat="43.73167" lon="5.96359">
        <ele>359.7</ele>
        <time>2023-06-11T10:21:20Z</time>
      </trkpt>
      <trkpt lat="43.73167" lon="5.96359">
        <ele>359.7</ele>
        <time>2023-06-11T10:21:21Z</time>
      </trkpt>
      <trkpt lat="43.73167" lon="5.96359">
        <ele>359.8</ele>
        <time>2023-06-11T10:21:22Z</time>
      </trkpt>
      <trkpt lat="43.73167" lon="5.96359">
        <ele>359.8</ele>
        <time>2023-06-11T10:21:23Z</time>
      </trkpt>
      <trkpt lat="43.73167" lon="5.96359">
        <ele>359.7</ele>
        <time>2023-06-11T10:21:24Z</time>
      </trkpt>
      <trkpt lat="43.73167" lon="5.96359">
        <ele>359.7</ele>
        <time>2023-06-11T10:21:25Z</time>
      </trkpt>
      <trkpt lat="43.73167" lon="5.96359">
        <ele>359.7</ele>
        <time>2023-06-11T10:21:26Z</time>
      </trkpt>
      <trkpt lat="43.73167" lon="5.96359">
        <ele>359.8</ele>
        <time>2023-06-11T10:21:27Z</time>
      </trkpt>
      <trkpt lat="43.73167" lon="5.96359">
        <ele>359.8</ele>
        <time>2023-06-11T10:21:28Z</time>
      </trkpt>
      <trkpt lat="43.73168" lon="5.96359">
        <ele>359.8</ele>
        <time>2023-06-11T10:21:29Z</time>
      </trkpt>
      <trkpt lat="43.73168" lon="5.96359">
        <ele>359.8</ele>
        <time>2023-06-11T10:21:30Z</time>
      </trkpt>
      <trkpt lat="43.73168" lon="5.96359">
        <ele>359.8</ele>
        <time>2023-06-11T10:21:31Z</time>
      </trkpt>
      <trkpt lat="43.73168" lon="5.96359">
        <ele>359.8</ele>
        <time>2023-06-11T10:21:32Z</time>
      </trkpt>
      <trkpt lat="43.73168" lon="5.96359">
        <ele>359.8</ele>
        <time>2023-06-11T10:21:33Z</time>
      </trkpt>
      <trkpt lat="43.73168" lon="5.96359">
        <ele>359.8</ele>
        <time>2023-06-11T10:21:34Z</time>
      </trkpt>
      <trkpt lat="43.73168" lon="5.96359">
        <ele>359.8</ele>
        <time>2023-06-11T10:21:35Z</time>
      </trkpt>
      <trkpt lat="43.73168" lon="5.96359">
        <ele>359.8</ele>
        <time>2023-06-11T10:21:36Z</time>
      </trkpt>
      <trkpt lat="43.73168" lon="5.96359">
        <ele>359.7</ele>
        <time>2023-06-11T10:21:37Z</time>
      </trkpt>
      <trkpt lat="43.73168" lon="5.96359">
        <ele>359.7</ele>
        <time>2023-06-11T10:21:38Z</time>
      </trkpt>
      <trkpt lat="43.73168" lon="5.96359">
        <ele>359.8</ele>
        <time>2023-06-11T10:21:39Z</time>
      </trkpt>
      <trkpt lat="43.73168" lon="5.96359">
        <ele>359.7</ele>
        <time>2023-06-11T10:21:40Z</time>
      </trkpt>
      <trkpt lat="43.73168" lon="5.96359">
        <ele>359.7</ele>
        <time>2023-06-11T10:21:41Z</time>
      </trkpt>
      <trkpt lat="43.73168" lon="5.96359">
        <ele>359.7</ele>
        <time>2023-06-11T10:21:42Z</time>
      </trkpt>
      <trkpt lat="43.73168" lon="5.96359">
        <ele>359.7</ele>
        <time>2023-06-11T10:21:43Z</time>
      </trkpt>
      <trkpt lat="43.73168" lon="5.96359">
        <ele>359.8</ele>
        <time>2023-06-11T10:21:44Z</time>
      </trkpt>
      <trkpt lat="43.73168" lon="5.96359">
        <ele>359.8</ele>
        <time>2023-06-11T10:21:45Z</time>
      </trkpt>
      <trkpt lat="43.73168" lon="5.96359">
        <ele>359.8</ele>
        <time>2023-06-11T10:21:46Z</time>
      </trkpt>
      <trkpt lat="43.73168" lon="5.96359">
        <ele>359.8</ele>
        <time>2023-06-11T10:21:47Z</time>
      </trkpt>
      <trkpt lat="43.73168" lon="5.96359">
        <ele>359.8</ele>
        <time>2023-06-11T10:21:48Z</time>
      </trkpt>
      <trkpt lat="43.73168" lon="5.96359">
        <ele>359.7</ele>
        <time>2023-06-11T10:21:49Z</time>
      </trkpt>
      <trkpt lat="43.73168" lon="5.96359">
        <ele>359.7</ele>
        <time>2023-06-11T10:21:50Z</time>
      </trkpt>
      <trkpt lat="43.73167" lon="5.96359">
        <ele>359.7</ele>
        <time>2023-06-11T10:21:51Z</time>
      </trkpt>
      <trkpt lat="43.73167" lon="5.96359">
        <ele>359.6</ele>
        <time>2023-06-11T10:21:52Z</time>
      </trkpt>
      <trkpt lat="43.73167" lon="5.96359">
        <ele>359.6</ele>
        <time>2023-06-11T10:21:53Z</time>
      </trkpt>
      <trkpt lat="43.73167" lon="5.9636">
        <ele>359.6</ele>
        <time>2023-06-11T10:21:54Z</time>
      </trkpt>
      <trkpt lat="43.73167" lon="5.9636">
        <ele>359.6</ele>
        <time>2023-06-11T10:21:55Z</time>
      </trkpt>
      <trkpt lat="43.73167" lon="5.9636">
        <ele>359.6</ele>
        <time>2023-06-11T10:21:56Z</time>
      </trkpt>
      <trkpt lat="43.73167" lon="5.9636">
        <ele>359.5</ele>
        <time>2023-06-11T10:21:57Z</time>
      </trkpt>
      <trkpt lat="43.73167" lon="5.9636">
        <ele>359.5</ele>
        <time>2023-06-11T10:21:58Z</time>
      </trkpt>
      <trkpt lat="43.73167" lon="5.9636">
        <ele>359.4</ele>
        <time>2023-06-11T10:21:59Z</time>
      </trkpt>
      <trkpt lat="43.73167" lon="5.9636">
        <ele>359.4</ele>
        <time>2023-06-11T10:22:00Z</time>
      </trkpt>
      <trkpt lat="43.73167" lon="5.9636">
        <ele>359.3</ele>
        <time>2023-06-11T10:22:01Z</time>
      </trkpt>
      <trkpt lat="43.73167" lon="5.9636">
        <ele>359.4</ele>
        <time>2023-06-11T10:22:02Z</time>
      </trkpt>
      <trkpt lat="43.73166" lon="5.9636">
        <ele>359.4</ele>
        <time>2023-06-11T10:22:03Z</time>
      </trkpt>
      <trkpt lat="43.73166" lon="5.9636">
        <ele>359.4</ele>
        <time>2023-06-11T10:22:04Z</time>
      </trkpt>
      <trkpt lat="43.73166" lon="5.9636">
        <ele>359.4</ele>
        <time>2023-06-11T10:22:05Z</time>
      </trkpt>
      <trkpt lat="43.73166" lon="5.9636">
        <ele>359.4</ele>
        <time>2023-06-11T10:22:06Z</time>
      </trkpt>
      <trkpt lat="43.73166" lon="5.9636">
        <ele>359.5</ele>
        <time>2023-06-11T10:22:07Z</time>
      </trkpt>
      <trkpt lat="43.73166" lon="5.9636">
        <ele>359.4</ele>
        <time>2023-06-11T10:22:08Z</time>
      </trkpt>
      <trkpt lat="43.73166" lon="5.9636">
        <ele>359.4</ele>
        <time>2023-06-11T10:22:09Z</time>
      </trkpt>
      <trkpt lat="43.73166" lon="5.9636">
        <ele>359.3</ele>
        <time>2023-06-11T10:22:10Z</time>
      </trkpt>
      <trkpt lat="43.73166" lon="5.9636">
        <ele>359.3</ele>
        <time>2023-06-11T10:22:11Z</time>
      </trkpt>
      <trkpt lat="43.73166" lon="5.9636">
        <ele>359.3</ele>
        <time>2023-06-11T10:22:12Z</time>
      </trkpt>
      <trkpt lat="43.73166" lon="5.96361">
        <ele>359.3</ele>
        <time>2023-06-11T10:22:13Z</time>
      </trkpt>
      <trkpt lat="43.73166" lon="5.96361">
        <ele>359.4</ele>
        <time>2023-06-11T10:22:14Z</time>
      </trkpt>
      <trkpt lat="43.73166" lon="5.96361">
        <ele>359.5</ele>
        <time>2023-06-11T10:22:15Z</time>
      </trkpt>
      <trkpt lat="43.73166" lon="5.96361">
        <ele>359.5</ele>
        <time>2023-06-11T10:22:16Z</time>
      </trkpt>
      <trkpt lat="43.73166" lon="5.96361">
        <ele>359.5</ele>
        <time>2023-06-11T10:22:17Z</time>
      </trkpt>
      <trkpt lat="43.73166" lon="5.96361">
        <ele>359.6</ele>
        <time>2023-06-11T10:22:18Z</time>
      </trkpt>
      <trkpt lat="43.73166" lon="5.96361">
        <ele>359.6</ele>
        <time>2023-06-11T10:22:19Z</time>
      </trkpt>
      <trkpt lat="43.73166" lon="5.96361">
        <ele>359.6</ele>
        <time>2023-06-11T10:22:20Z</time>
      </trkpt>
      <trkpt lat="43.73165" lon="5.96361">
        <ele>359.6</ele>
        <time>2023-06-11T10:22:21Z</time>
      </trkpt>
      <trkpt lat="43.73166" lon="5.96361">
        <ele>359.6</ele>
        <time>2023-06-11T10:22:22Z</time>
      </trkpt>
      <trkpt lat="43.73166" lon="5.96361">
        <ele>359.6</ele>
        <time>2023-06-11T10:22:23Z</time>
      </trkpt>
      <trkpt lat="43.73166" lon="5.96361">
        <ele>359.6</ele>
        <time>2023-06-11T10:22:24Z</time>
      </trkpt>
      <trkpt lat="43.73165" lon="5.96361">
        <ele>359.5</ele>
        <time>2023-06-11T10:22:25Z</time>
      </trkpt>
      <trkpt lat="43.73165" lon="5.96361">
        <ele>359.6</ele>
        <time>2023-06-11T10:22:26Z</time>
      </trkpt>
      <trkpt lat="43.73165" lon="5.96361">
        <ele>359.6</ele>
        <time>2023-06-11T10:22:27Z</time>
      </trkpt>
      <trkpt lat="43.73165" lon="5.96361">
        <ele>359.6</ele>
        <time>2023-06-11T10:22:28Z</time>
      </trkpt>
      <trkpt lat="43.73165" lon="5.96361">
        <ele>359.6</ele>
        <time>2023-06-11T10:22:29Z</time>
      </trkpt>
      <trkpt lat="43.73165" lon="5.96361">
        <ele>359.6</ele>
        <time>2023-06-11T10:22:30Z</time>
      </trkpt>
      <trkpt lat="43.73165" lon="5.96361">
        <ele>359.5</ele>
        <time>2023-06-11T10:22:31Z</time>
      </trkpt>
      <trkpt lat="43.73165" lon="5.96361">
        <ele>359.6</ele>
        <time>2023-06-11T10:22:32Z</time>
      </trkpt>
      <trkpt lat="43.73165" lon="5.96361">
        <ele>359.6</ele>
        <time>2023-06-11T10:22:33Z</time>
      </trkpt>
      <trkpt lat="43.73165" lon="5.96361">
        <ele>359.6</ele>
        <time>2023-06-11T10:22:34Z</time>
      </trkpt>
      <trkpt lat="43.73165" lon="5.96361">
        <ele>359.5</ele>
        <time>2023-06-11T10:22:35Z</time>
      </trkpt>
      <trkpt lat="43.73165" lon="5.96361">
        <ele>359.6</ele>
        <time>2023-06-11T10:22:36Z</time>
      </trkpt>
      <trkpt lat="43.73165" lon="5.96361">
        <ele>359.7</ele>
        <time>2023-06-11T10:22:37Z</time>
      </trkpt>
      <trkpt lat="43.73165" lon="5.96361">
        <ele>359.7</ele>
        <time>2023-06-11T10:22:38Z</time>
      </trkpt>
      <trkpt lat="43.73165" lon="5.9636">
        <ele>359.7</ele>
        <time>2023-06-11T10:22:39Z</time>
      </trkpt>
      <trkpt lat="43.73165" lon="5.9636">
        <ele>359.8</ele>
        <time>2023-06-11T10:22:40Z</time>
      </trkpt>
      <trkpt lat="43.73165" lon="5.9636">
        <ele>359.8</ele>
        <time>2023-06-11T10:22:41Z</time>
      </trkpt>
      <trkpt lat="43.73165" lon="5.9636">
        <ele>359.7</ele>
        <time>2023-06-11T10:22:42Z</time>
      </trkpt>
      <trkpt lat="43.73165" lon="5.9636">
        <ele>359.8</ele>
        <time>2023-06-11T10:22:43Z</time>
      </trkpt>
      <trkpt lat="43.73165" lon="5.9636">
        <ele>359.7</ele>
        <time>2023-06-11T10:22:44Z</time>
      </trkpt>
      <trkpt lat="43.73165" lon="5.9636">
        <ele>359.7</ele>
        <time>2023-06-11T10:22:45Z</time>
      </trkpt>
      <trkpt lat="43.73165" lon="5.9636">
        <ele>359.6</ele>
        <time>2023-06-11T10:22:46Z</time>
      </trkpt>
      <trkpt lat="43.73165" lon="5.9636">
        <ele>359.7</ele>
        <time>2023-06-11T10:22:47Z</time>
      </trkpt>
      <trkpt lat="43.73165" lon="5.9636">
        <ele>359.8</ele>
        <time>2023-06-11T10:22:48Z</time>
      </trkpt>
      <trkpt lat="43.73165" lon="5.9636">
        <ele>359.8</ele>
        <time>2023-06-11T10:22:49Z</time>
      </trkpt>
      <trkpt lat="43.73166" lon="5.9636">
        <ele>359.9</ele>
        <time>2023-06-11T10:22:50Z</time>
      </trkpt>
      <trkpt lat="43.73166" lon="5.9636">
        <ele>359.9</ele>
        <time>2023-06-11T10:22:51Z</time>
      </trkpt>
      <trkpt lat="43.73166" lon="5.96359">
        <ele>359.9</ele>
        <time>2023-06-11T10:22:52Z</time>
      </trkpt>
      <trkpt lat="43.73166" lon="5.96359">
        <ele>359.9</ele>
        <time>2023-06-11T10:22:53Z</time>
      </trkpt>
      <trkpt lat="43.73166" lon="5.96359">
        <ele>359.9</ele>
        <time>2023-06-11T10:22:54Z</time>
      </trkpt>
      <trkpt lat="43.73166" lon="5.96359">
        <ele>359.9</ele>
        <time>2023-06-11T10:22:55Z</time>
      </trkpt>
      <trkpt lat="43.73166" lon="5.96359">
        <ele>359.9</ele>
        <time>2023-06-11T10:22:56Z</time>
      </trkpt>
      <trkpt lat="43.73166" lon="5.96359">
        <ele>359.9</ele>
        <time>2023-06-11T10:22:57Z</time>
      </trkpt>
      <trkpt lat="43.73166" lon="5.96359">
        <ele>359.9</ele>
        <time>2023-06-11T10:22:58Z</time>
      </trkpt>
      <trkpt lat="43.73166" lon="5.96359">
        <ele>359.9</ele>
        <time>2023-06-11T10:22:59Z</time>
      </trkpt>
      <trkpt lat="43.73166" lon="5.96359">
        <ele>360</ele>
        <time>2023-06-11T10:23:00Z</time>
      </trkpt>
      <trkpt lat="43.73166" lon="5.96359">
        <ele>359.9</ele>
        <time>2023-06-11T10:23:01Z</time>
      </trkpt>
      <trkpt lat="43.73166" lon="5.96359">
        <ele>359.9</ele>
        <time>2023-06-11T10:23:02Z</time>
      </trkpt>
      <trkpt lat="43.73166" lon="5.96359">
        <ele>359.8</ele>
        <time>2023-06-11T10:23:03Z</time>
      </trkpt>
      <trkpt lat="43.73166" lon="5.96359">
        <ele>359.8</ele>
        <time>2023-06-11T10:23:04Z</time>
      </trkpt>
      <trkpt lat="43.73166" lon="5.96359">
        <ele>359.8</ele>
        <time>2023-06-11T10:23:05Z</time>
      </trkpt>
      <trkpt lat="43.73166" lon="5.96359">
        <ele>359.8</ele>
        <time>2023-06-11T10:23:06Z</time>
      </trkpt>
      <trkpt lat="43.73166" lon="5.9636">
        <ele>359.7</ele>
        <time>2023-06-11T10:23:07Z</time>
      </trkpt>
      <trkpt lat="43.73166" lon="5.9636">
        <ele>359.6</ele>
        <time>2023-06-11T10:23:08Z</time>
      </trkpt>
      <trkpt lat="43.73165" lon="5.9636">
        <ele>359.6</ele>
        <time>2023-06-11T10:23:09Z</time>
      </trkpt>
      <trkpt lat="43.73165" lon="5.9636">
        <ele>359.5</ele>
        <time>2023-06-11T10:23:10Z</time>
      </trkpt>
      <trkpt lat="43.73165" lon="5.9636">
        <ele>359.6</ele>
        <time>2023-06-11T10:23:11Z</time>
      </trkpt>
      <trkpt lat="43.73165" lon="5.9636">
        <ele>359.6</ele>
        <time>2023-06-11T10:23:12Z</time>
      </trkpt>
      <trkpt lat="43.73165" lon="5.9636">
        <ele>359.7</ele>
        <time>2023-06-11T10:23:13Z</time>
      </trkpt>
      <trkpt lat="43.73165" lon="5.9636">
        <ele>359.7</ele>
        <time>2023-06-11T10:23:14Z</time>
      </trkpt>
      <trkpt lat="43.73165" lon="5.9636">
        <ele>359.7</ele>
        <time>2023-06-11T10:23:15Z</time>
      </trkpt>
      <trkpt lat="43.73165" lon="5.9636">
        <ele>359.8</ele>
        <time>2023-06-11T10:23:16Z</time>
      </trkpt>
      <trkpt lat="43.73165" lon="5.9636">
        <ele>359.8</ele>
        <time>2023-06-11T10:23:17Z</time>
      </trkpt>
      <trkpt lat="43.73165" lon="5.9636">
        <ele>359.7</ele>
        <time>2023-06-11T10:23:18Z</time>
      </trkpt>
      <trkpt lat="43.73165" lon="5.9636">
        <ele>359.7</ele>
        <time>2023-06-11T10:23:19Z</time>
      </trkpt>
      <trkpt lat="43.73165" lon="5.9636">
        <ele>359.8</ele>
        <time>2023-06-11T10:23:20Z</time>
      </trkpt>
      <trkpt lat="43.73165" lon="5.9636">
        <ele>359.8</ele>
        <time>2023-06-11T10:23:21Z</time>
      </trkpt>
      <trkpt lat="43.73165" lon="5.9636">
        <ele>359.8</ele>
        <time>2023-06-11T10:23:22Z</time>
      </trkpt>
      <trkpt lat="43.73165" lon="5.9636">
        <ele>359.8</ele>
        <time>2023-06-11T10:23:23Z</time>
      </trkpt>
      <trkpt lat="43.73165" lon="5.9636">
        <ele>359.8</ele>
        <time>2023-06-11T10:23:24Z</time>
      </trkpt>
      <trkpt lat="43.73165" lon="5.9636">
        <ele>359.8</ele>
        <time>2023-06-11T10:23:25Z</time>
      </trkpt>
      <trkpt lat="43.73165" lon="5.9636">
        <ele>359.8</ele>
        <time>2023-06-11T10:23:26Z</time>
      </trkpt>
      <trkpt lat="43.73165" lon="5.9636">
        <ele>359.8</ele>
        <time>2023-06-11T10:23:27Z</time>
      </trkpt>
      <trkpt lat="43.73165" lon="5.9636">
        <ele>359.8</ele>
        <time>2023-06-11T10:23:28Z</time>
      </trkpt>
      <trkpt lat="43.73165" lon="5.9636">
        <ele>359.8</ele>
        <time>2023-06-11T10:23:29Z</time>
      </trkpt>
      <trkpt lat="43.73165" lon="5.9636">
        <ele>359.8</ele>
        <time>2023-06-11T10:23:30Z</time>
      </trkpt>
      <trkpt lat="43.73166" lon="5.9636">
        <ele>359.8</ele>
        <time>2023-06-11T10:23:31Z</time>
      </trkpt>
      <trkpt lat="43.73165" lon="5.9636">
        <ele>359.8</ele>
        <time>2023-06-11T10:23:32Z</time>
      </trkpt>
      <trkpt lat="43.73165" lon="5.9636">
        <ele>359.7</ele>
        <time>2023-06-11T10:23:33Z</time>
      </trkpt>
      <trkpt lat="43.73165" lon="5.9636">
        <ele>359.7</ele>
        <time>2023-06-11T10:23:34Z</time>
      </trkpt>
      <trkpt lat="43.73165" lon="5.9636">
        <ele>359.6</ele>
        <time>2023-06-11T10:23:35Z</time>
      </trkpt>
      <trkpt lat="43.73165" lon="5.9636">
        <ele>359.7</ele>
        <time>2023-06-11T10:23:36Z</time>
      </trkpt>
      <trkpt lat="43.73165" lon="5.9636">
        <ele>359.7</ele>
        <time>2023-06-11T10:23:37Z</time>
      </trkpt>
      <trkpt lat="43.73165" lon="5.9636">
        <ele>359.7</ele>
        <time>2023-06-11T10:23:38Z</time>
      </trkpt>
      <trkpt lat="43.73165" lon="5.9636">
        <ele>359.8</ele>
        <time>2023-06-11T10:23:39Z</time>
      </trkpt>
      <trkpt lat="43.73165" lon="5.9636">
        <ele>359.8</ele>
        <time>2023-06-11T10:23:40Z</time>
      </trkpt>
      <trkpt lat="43.73165" lon="5.9636">
        <ele>359.9</ele>
        <time>2023-06-11T10:23:41Z</time>
      </trkpt>
      <trkpt lat="43.73165" lon="5.9636">
        <ele>359.9</ele>
        <time>2023-06-11T10:23:42Z</time>
      </trkpt>
      <trkpt lat="43.73165" lon="5.9636">
        <ele>360</ele>
        <time>2023-06-11T10:23:43Z</time>
      </trkpt>
      <trkpt lat="43.73165" lon="5.9636">
        <ele>360.1</ele>
        <time>2023-06-11T10:23:44Z</time>
      </trkpt>
      <trkpt lat="43.73165" lon="5.9636">
        <ele>360</ele>
        <time>2023-06-11T10:23:45Z</time>
      </trkpt>
      <trkpt lat="43.73165" lon="5.9636">
        <ele>360</ele>
        <time>2023-06-11T10:23:46Z</time>
      </trkpt>
      <trkpt lat="43.73165" lon="5.9636">
        <ele>360</ele>
        <time>2023-06-11T10:23:47Z</time>
      </trkpt>
      <trkpt lat="43.73165" lon="5.9636">
        <ele>359.9</ele>
        <time>2023-06-11T10:23:48Z</time>
      </trkpt>
      <trkpt lat="43.73165" lon="5.9636">
        <ele>360</ele>
        <time>2023-06-11T10:23:49Z</time>
      </trkpt>
      <trkpt lat="43.73166" lon="5.9636">
        <ele>359.9</ele>
        <time>2023-06-11T10:23:50Z</time>
      </trkpt>
      <trkpt lat="43.73165" lon="5.9636">
        <ele>359.9</ele>
        <time>2023-06-11T10:23:51Z</time>
      </trkpt>
      <trkpt lat="43.73165" lon="5.96361">
        <ele>359.8</ele>
        <time>2023-06-11T10:23:52Z</time>
      </trkpt>
      <trkpt lat="43.73165" lon="5.96361">
        <ele>359.8</ele>
        <time>2023-06-11T10:23:53Z</time>
      </trkpt>
      <trkpt lat="43.73165" lon="5.96361">
        <ele>359.8</ele>
        <time>2023-06-11T10:23:54Z</time>
      </trkpt>
      <trkpt lat="43.73165" lon="5.9636">
        <ele>359.8</ele>
        <time>2023-06-11T10:23:55Z</time>
      </trkpt>
      <trkpt lat="43.73165" lon="5.9636">
        <ele>359.8</ele>
        <time>2023-06-11T10:23:56Z</time>
      </trkpt>
      <trkpt lat="43.73165" lon="5.9636">
        <ele>359.8</ele>
        <time>2023-06-11T10:23:57Z</time>
      </trkpt>
      <trkpt lat="43.73165" lon="5.9636">
        <ele>359.7</ele>
        <time>2023-06-11T10:23:58Z</time>
      </trkpt>
      <trkpt lat="43.73165" lon="5.9636">
        <ele>359.6</ele>
        <time>2023-06-11T10:23:59Z</time>
      </trkpt>
      <trkpt lat="43.73165" lon="5.9636">
        <ele>359.6</ele>
        <time>2023-06-11T10:24:00Z</time>
      </trkpt>
      <trkpt lat="43.73165" lon="5.9636">
        <ele>359.6</ele>
        <time>2023-06-11T10:24:01Z</time>
      </trkpt>
      <trkpt lat="43.73165" lon="5.9636">
        <ele>359.5</ele>
        <time>2023-06-11T10:24:02Z</time>
      </trkpt>
      <trkpt lat="43.73165" lon="5.9636">
        <ele>359.4</ele>
        <time>2023-06-11T10:24:03Z</time>
      </trkpt>
      <trkpt lat="43.73165" lon="5.96361">
        <ele>359.4</ele>
        <time>2023-06-11T10:24:04Z</time>
      </trkpt>
      <trkpt lat="43.73165" lon="5.96361">
        <ele>359.5</ele>
        <time>2023-06-11T10:24:05Z</time>
      </trkpt>
      <trkpt lat="43.73165" lon="5.96361">
        <ele>359.5</ele>
        <time>2023-06-11T10:24:06Z</time>
      </trkpt>
      <trkpt lat="43.73165" lon="5.96361">
        <ele>359.5</ele>
        <time>2023-06-11T10:24:07Z</time>
      </trkpt>
      <trkpt lat="43.73165" lon="5.96361">
        <ele>359.6</ele>
        <time>2023-06-11T10:24:08Z</time>
      </trkpt>
      <trkpt lat="43.73165" lon="5.96361">
        <ele>359.6</ele>
        <time>2023-06-11T10:24:09Z</time>
      </trkpt>
      <trkpt lat="43.73165" lon="5.96361">
        <ele>359.6</ele>
        <time>2023-06-11T10:24:10Z</time>
      </trkpt>
      <trkpt lat="43.73165" lon="5.96361">
        <ele>359.6</ele>
        <time>2023-06-11T10:24:11Z</time>
      </trkpt>
      <trkpt lat="43.73166" lon="5.96361">
        <ele>359.5</ele>
        <time>2023-06-11T10:24:12Z</time>
      </trkpt>
      <trkpt lat="43.73166" lon="5.96361">
        <ele>359.5</ele>
        <time>2023-06-11T10:24:13Z</time>
      </trkpt>
      <trkpt lat="43.73166" lon="5.96361">
        <ele>359.4</ele>
        <time>2023-06-11T10:24:14Z</time>
      </trkpt>
      <trkpt lat="43.73166" lon="5.96361">
        <ele>359.5</ele>
        <time>2023-06-11T10:24:15Z</time>
      </trkpt>
      <trkpt lat="43.73166" lon="5.96361">
        <ele>359.5</ele>
        <time>2023-06-11T10:24:16Z</time>
      </trkpt>
      <trkpt lat="43.73166" lon="5.96361">
        <ele>359.5</ele>
        <time>2023-06-11T10:24:17Z</time>
      </trkpt>
      <trkpt lat="43.73166" lon="5.96361">
        <ele>359.6</ele>
        <time>2023-06-11T10:24:18Z</time>
      </trkpt>
      <trkpt lat="43.73166" lon="5.96361">
        <ele>359.6</ele>
        <time>2023-06-11T10:24:19Z</time>
      </trkpt>
      <trkpt lat="43.73166" lon="5.96361">
        <ele>359.6</ele>
        <time>2023-06-11T10:24:20Z</time>
      </trkpt>
      <trkpt lat="43.73166" lon="5.96361">
        <ele>359.6</ele>
        <time>2023-06-11T10:24:21Z</time>
      </trkpt>
      <trkpt lat="43.73166" lon="5.96361">
        <ele>359.6</ele>
        <time>2023-06-11T10:24:22Z</time>
      </trkpt>
      <trkpt lat="43.73166" lon="5.96361">
        <ele>359.6</ele>
        <time>2023-06-11T10:24:23Z</time>
      </trkpt>
      <trkpt lat="43.73166" lon="5.96361">
        <ele>359.6</ele>
        <time>2023-06-11T10:24:24Z</time>
      </trkpt>
      <trkpt lat="43.73166" lon="5.96361">
        <ele>359.6</ele>
        <time>2023-06-11T10:24:25Z</time>
      </trkpt>
      <trkpt lat="43.73166" lon="5.96361">
        <ele>359.6</ele>
        <time>2023-06-11T10:24:26Z</time>
      </trkpt>
      <trkpt lat="43.73166" lon="5.96361">
        <ele>359.7</ele>
        <time>2023-06-11T10:24:27Z</time>
      </trkpt>
      <trkpt lat="43.73166" lon="5.96361">
        <ele>359.7</ele>
        <time>2023-06-11T10:24:28Z</time>
      </trkpt>
      <trkpt lat="43.73166" lon="5.96361">
        <ele>359.7</ele>
        <time>2023-06-11T10:24:29Z</time>
      </trkpt>
      <trkpt lat="43.73166" lon="5.96361">
        <ele>359.8</ele>
        <time>2023-06-11T10:24:30Z</time>
      </trkpt>
      <trkpt lat="43.73166" lon="5.96361">
        <ele>359.7</ele>
        <time>2023-06-11T10:24:31Z</time>
      </trkpt>
      <trkpt lat="43.73166" lon="5.96362">
        <ele>359.8</ele>
        <time>2023-06-11T10:24:32Z</time>
      </trkpt>
      <trkpt lat="43.73166" lon="5.96362">
        <ele>359.8</ele>
        <time>2023-06-11T10:24:33Z</time>
      </trkpt>
      <trkpt lat="43.73166" lon="5.96362">
        <ele>359.8</ele>
        <time>2023-06-11T10:24:34Z</time>
      </trkpt>
      <trkpt lat="43.73166" lon="5.96362">
        <ele>359.8</ele>
        <time>2023-06-11T10:24:35Z</time>
      </trkpt>
      <trkpt lat="43.73166" lon="5.96362">
        <ele>359.8</ele>
        <time>2023-06-11T10:24:36Z</time>
      </trkpt>
      <trkpt lat="43.73166" lon="5.96362">
        <ele>359.8</ele>
        <time>2023-06-11T10:24:37Z</time>
      </trkpt>
      <trkpt lat="43.73166" lon="5.96362">
        <ele>359.8</ele>
        <time>2023-06-11T10:24:38Z</time>
      </trkpt>
      <trkpt lat="43.73166" lon="5.96362">
        <ele>359.9</ele>
        <time>2023-06-11T10:24:39Z</time>
      </trkpt>
      <trkpt lat="43.73166" lon="5.96362">
        <ele>359.8</ele>
        <time>2023-06-11T10:24:40Z</time>
      </trkpt>
      <trkpt lat="43.73166" lon="5.96362">
        <ele>359.8</ele>
        <time>2023-06-11T10:24:41Z</time>
      </trkpt>
      <trkpt lat="43.73166" lon="5.96362">
        <ele>359.7</ele>
        <time>2023-06-11T10:24:42Z</time>
      </trkpt>
      <trkpt lat="43.73166" lon="5.96362">
        <ele>359.7</ele>
        <time>2023-06-11T10:24:43Z</time>
      </trkpt>
      <trkpt lat="43.73166" lon="5.96362">
        <ele>359.6</ele>
        <time>2023-06-11T10:24:44Z</time>
      </trkpt>
      <trkpt lat="43.73166" lon="5.96362">
        <ele>359.6</ele>
        <time>2023-06-11T10:24:45Z</time>
      </trkpt>
      <trkpt lat="43.73166" lon="5.96362">
        <ele>359.6</ele>
        <time>2023-06-11T10:24:46Z</time>
      </trkpt>
      <trkpt lat="43.73166" lon="5.96362">
        <ele>359.5</ele>
        <time>2023-06-11T10:24:47Z</time>
      </trkpt>
      <trkpt lat="43.73166" lon="5.96362">
        <ele>359.5</ele>
        <time>2023-06-11T10:24:48Z</time>
      </trkpt>
      <trkpt lat="43.73166" lon="5.96362">
        <ele>359.5</ele>
        <time>2023-06-11T10:24:49Z</time>
      </trkpt>
      <trkpt lat="43.73166" lon="5.96362">
        <ele>359.5</ele>
        <time>2023-06-11T10:24:50Z</time>
      </trkpt>
      <trkpt lat="43.73166" lon="5.96362">
        <ele>359.5</ele>
        <time>2023-06-11T10:24:51Z</time>
      </trkpt>
      <trkpt lat="43.73166" lon="5.96361">
        <ele>359.6</ele>
        <time>2023-06-11T10:24:52Z</time>
      </trkpt>
      <trkpt lat="43.73166" lon="5.96361">
        <ele>359.5</ele>
        <time>2023-06-11T10:24:53Z</time>
      </trkpt>
      <trkpt lat="43.73166" lon="5.96361">
        <ele>359.5</ele>
        <time>2023-06-11T10:24:54Z</time>
      </trkpt>
      <trkpt lat="43.73166" lon="5.96361">
        <ele>359.6</ele>
        <time>2023-06-11T10:24:55Z</time>
      </trkpt>
      <trkpt lat="43.73166" lon="5.96361">
        <ele>359.6</ele>
        <time>2023-06-11T10:24:56Z</time>
      </trkpt>
      <trkpt lat="43.73166" lon="5.96361">
        <ele>359.6</ele>
        <time>2023-06-11T10:24:57Z</time>
      </trkpt>
      <trkpt lat="43.73166" lon="5.96361">
        <ele>359.6</ele>
        <time>2023-06-11T10:24:58Z</time>
      </trkpt>
      <trkpt lat="43.73166" lon="5.96361">
        <ele>359.6</ele>
        <time>2023-06-11T10:24:59Z</time>
      </trkpt>
      <trkpt lat="43.73166" lon="5.96361">
        <ele>359.6</ele>
        <time>2023-06-11T10:25:00Z</time>
      </trkpt>
      <trkpt lat="43.73166" lon="5.96361">
        <ele>359.7</ele>
        <time>2023-06-11T10:25:01Z</time>
      </trkpt>
      <trkpt lat="43.73166" lon="5.96361">
        <ele>359.7</ele>
        <time>2023-06-11T10:25:02Z</time>
      </trkpt>
      <trkpt lat="43.73166" lon="5.96362">
        <ele>359.7</ele>
        <time>2023-06-11T10:25:03Z</time>
      </trkpt>
      <trkpt lat="43.73166" lon="5.96362">
        <ele>359.7</ele>
        <time>2023-06-11T10:25:04Z</time>
      </trkpt>
      <trkpt lat="43.73166" lon="5.96362">
        <ele>359.7</ele>
        <time>2023-06-11T10:25:05Z</time>
      </trkpt>
      <trkpt lat="43.73166" lon="5.96362">
        <ele>359.6</ele>
        <time>2023-06-11T10:25:06Z</time>
      </trkpt>
      <trkpt lat="43.73166" lon="5.96362">
        <ele>359.6</ele>
        <time>2023-06-11T10:25:07Z</time>
      </trkpt>
      <trkpt lat="43.73166" lon="5.96362">
        <ele>359.5</ele>
        <time>2023-06-11T10:25:08Z</time>
      </trkpt>
      <trkpt lat="43.73166" lon="5.96362">
        <ele>359.5</ele>
        <time>2023-06-11T10:25:09Z</time>
      </trkpt>
      <trkpt lat="43.73166" lon="5.96362">
        <ele>359.6</ele>
        <time>2023-06-11T10:25:10Z</time>
      </trkpt>
      <trkpt lat="43.73166" lon="5.96362">
        <ele>359.6</ele>
        <time>2023-06-11T10:25:11Z</time>
      </trkpt>
      <trkpt lat="43.73166" lon="5.96362">
        <ele>359.6</ele>
        <time>2023-06-11T10:25:12Z</time>
      </trkpt>
      <trkpt lat="43.73167" lon="5.96362">
        <ele>359.6</ele>
        <time>2023-06-11T10:25:13Z</time>
      </trkpt>
      <trkpt lat="43.73167" lon="5.96362">
        <ele>359.6</ele>
        <time>2023-06-11T10:25:14Z</time>
      </trkpt>
      <trkpt lat="43.73167" lon="5.96362">
        <ele>359.7</ele>
        <time>2023-06-11T10:25:15Z</time>
      </trkpt>
      <trkpt lat="43.73167" lon="5.96362">
        <ele>359.6</ele>
        <time>2023-06-11T10:25:16Z</time>
      </trkpt>
      <trkpt lat="43.73167" lon="5.96362">
        <ele>359.7</ele>
        <time>2023-06-11T10:25:17Z</time>
      </trkpt>
      <trkpt lat="43.73167" lon="5.96362">
        <ele>359.7</ele>
        <time>2023-06-11T10:25:18Z</time>
      </trkpt>
      <trkpt lat="43.73167" lon="5.96363">
        <ele>359.7</ele>
        <time>2023-06-11T10:25:19Z</time>
      </trkpt>
      <trkpt lat="43.73167" lon="5.96363">
        <ele>359.8</ele>
        <time>2023-06-11T10:25:20Z</time>
      </trkpt>
      <trkpt lat="43.73167" lon="5.96363">
        <ele>359.8</ele>
        <time>2023-06-11T10:25:21Z</time>
      </trkpt>
      <trkpt lat="43.73167" lon="5.96363">
        <ele>359.7</ele>
        <time>2023-06-11T10:25:22Z</time>
      </trkpt>
      <trkpt lat="43.73167" lon="5.96363">
        <ele>359.7</ele>
        <time>2023-06-11T10:25:23Z</time>
      </trkpt>
      <trkpt lat="43.73167" lon="5.96362">
        <ele>359.8</ele>
        <time>2023-06-11T10:25:24Z</time>
      </trkpt>
      <trkpt lat="43.73167" lon="5.96362">
        <ele>359.8</ele>
        <time>2023-06-11T10:25:25Z</time>
      </trkpt>
      <trkpt lat="43.73167" lon="5.96362">
        <ele>359.9</ele>
        <time>2023-06-11T10:25:26Z</time>
      </trkpt>
      <trkpt lat="43.73167" lon="5.96362">
        <ele>359.9</ele>
        <time>2023-06-11T10:25:27Z</time>
      </trkpt>
      <trkpt lat="43.73167" lon="5.96362">
        <ele>359.8</ele>
        <time>2023-06-11T10:25:28Z</time>
      </trkpt>
      <trkpt lat="43.73167" lon="5.96362">
        <ele>359.8</ele>
        <time>2023-06-11T10:25:29Z</time>
      </trkpt>
      <trkpt lat="43.73168" lon="5.96362">
        <ele>359.9</ele>
        <time>2023-06-11T10:25:30Z</time>
      </trkpt>
      <trkpt lat="43.73168" lon="5.96362">
        <ele>359.9</ele>
        <time>2023-06-11T10:25:31Z</time>
      </trkpt>
      <trkpt lat="43.73168" lon="5.96361">
        <ele>359.9</ele>
        <time>2023-06-11T10:25:32Z</time>
      </trkpt>
      <trkpt lat="43.73167" lon="5.96361">
        <ele>359.9</ele>
        <time>2023-06-11T10:25:33Z</time>
      </trkpt>
      <trkpt lat="43.73167" lon="5.96361">
        <ele>359.9</ele>
        <time>2023-06-11T10:25:34Z</time>
      </trkpt>
      <trkpt lat="43.73167" lon="5.96361">
        <ele>359.9</ele>
        <time>2023-06-11T10:25:35Z</time>
      </trkpt>
      <trkpt lat="43.73167" lon="5.96361">
        <ele>360</ele>
        <time>2023-06-11T10:25:36Z</time>
      </trkpt>
      <trkpt lat="43.73167" lon="5.9636">
        <ele>360</ele>
        <time>2023-06-11T10:25:37Z</time>
      </trkpt>
      <trkpt lat="43.73167" lon="5.96361">
        <ele>360.1</ele>
        <time>2023-06-11T10:25:38Z</time>
      </trkpt>
      <trkpt lat="43.73167" lon="5.96361">
        <ele>360.1</ele>
        <time>2023-06-11T10:25:39Z</time>
      </trkpt>
      <trkpt lat="43.73167" lon="5.96361">
        <ele>360.1</ele>
        <time>2023-06-11T10:25:40Z</time>
      </trkpt>
      <trkpt lat="43.73167" lon="5.96361">
        <ele>360.1</ele>
        <time>2023-06-11T10:25:41Z</time>
      </trkpt>
      <trkpt lat="43.73167" lon="5.96361">
        <ele>360.1</ele>
        <time>2023-06-11T10:25:42Z</time>
      </trkpt>
      <trkpt lat="43.73167" lon="5.96361">
        <ele>360.1</ele>
        <time>2023-06-11T10:25:43Z</time>
      </trkpt>
      <trkpt lat="43.73168" lon="5.96361">
        <ele>360.2</ele>
        <time>2023-06-11T10:25:44Z</time>
      </trkpt>
      <trkpt lat="43.73168" lon="5.96361">
        <ele>360.2</ele>
        <time>2023-06-11T10:25:45Z</time>
      </trkpt>
      <trkpt lat="43.73168" lon="5.96361">
        <ele>360.2</ele>
        <time>2023-06-11T10:25:46Z</time>
      </trkpt>
      <trkpt lat="43.73168" lon="5.96361">
        <ele>360.2</ele>
        <time>2023-06-11T10:25:47Z</time>
      </trkpt>
      <trkpt lat="43.73168" lon="5.96362">
        <ele>360.1</ele>
        <time>2023-06-11T10:25:48Z</time>
      </trkpt>
      <trkpt lat="43.73168" lon="5.96362">
        <ele>360.1</ele>
        <time>2023-06-11T10:25:49Z</time>
      </trkpt>
      <trkpt lat="43.73168" lon="5.96362">
        <ele>360.1</ele>
        <time>2023-06-11T10:25:50Z</time>
      </trkpt>
      <trkpt lat="43.73168" lon="5.96362">
        <ele>360.1</ele>
        <time>2023-06-11T10:25:51Z</time>
      </trkpt>
      <trkpt lat="43.73168" lon="5.96362">
        <ele>360.1</ele>
        <time>2023-06-11T10:25:52Z</time>
      </trkpt>
      <trkpt lat="43.73168" lon="5.96362">
        <ele>360.1</ele>
        <time>2023-06-11T10:25:53Z</time>
      </trkpt>
      <trkpt lat="43.73168" lon="5.96362">
        <ele>360.1</ele>
        <time>2023-06-11T10:25:54Z</time>
      </trkpt>
      <trkpt lat="43.73168" lon="5.96362">
        <ele>360.1</ele>
        <time>2023-06-11T10:25:55Z</time>
      </trkpt>
      <trkpt lat="43.73168" lon="5.96362">
        <ele>360.2</ele>
        <time>2023-06-11T10:25:56Z</time>
      </trkpt>
      <trkpt lat="43.73168" lon="5.96362">
        <ele>360.1</ele>
        <time>2023-06-11T10:25:57Z</time>
      </trkpt>
      <trkpt lat="43.73168" lon="5.96362">
        <ele>360</ele>
        <time>2023-06-11T10:25:58Z</time>
      </trkpt>
      <trkpt lat="43.73168" lon="5.96362">
        <ele>360</ele>
        <time>2023-06-11T10:25:59Z</time>
      </trkpt>
      <trkpt lat="43.73168" lon="5.96362">
        <ele>359.9</ele>
        <time>2023-06-11T10:26:00Z</time>
      </trkpt>
      <trkpt lat="43.73168" lon="5.96362">
        <ele>359.8</ele>
        <time>2023-06-11T10:26:01Z</time>
      </trkpt>
      <trkpt lat="43.73168" lon="5.96362">
        <ele>359.8</ele>
        <time>2023-06-11T10:26:02Z</time>
      </trkpt>
      <trkpt lat="43.73168" lon="5.96362">
        <ele>359.8</ele>
        <time>2023-06-11T10:26:03Z</time>
      </trkpt>
      <trkpt lat="43.73168" lon="5.96362">
        <ele>359.8</ele>
        <time>2023-06-11T10:26:04Z</time>
      </trkpt>
      <trkpt lat="43.73168" lon="5.96362">
        <ele>359.8</ele>
        <time>2023-06-11T10:26:05Z</time>
      </trkpt>
      <trkpt lat="43.73169" lon="5.96362">
        <ele>359.8</ele>
        <time>2023-06-11T10:26:06Z</time>
      </trkpt>
      <trkpt lat="43.73169" lon="5.96362">
        <ele>359.9</ele>
        <time>2023-06-11T10:26:07Z</time>
      </trkpt>
      <trkpt lat="43.73169" lon="5.96362">
        <ele>359.9</ele>
        <time>2023-06-11T10:26:08Z</time>
      </trkpt>
      <trkpt lat="43.73169" lon="5.96362">
        <ele>359.9</ele>
        <time>2023-06-11T10:26:09Z</time>
      </trkpt>
      <trkpt lat="43.73169" lon="5.96362">
        <ele>359.9</ele>
        <time>2023-06-11T10:26:10Z</time>
      </trkpt>
      <trkpt lat="43.73169" lon="5.96363">
        <ele>359.9</ele>
        <time>2023-06-11T10:26:11Z</time>
      </trkpt>
      <trkpt lat="43.73169" lon="5.96363">
        <ele>359.9</ele>
        <time>2023-06-11T10:26:12Z</time>
      </trkpt>
      <trkpt lat="43.73169" lon="5.96363">
        <ele>359.9</ele>
        <time>2023-06-11T10:26:13Z</time>
      </trkpt>
      <trkpt lat="43.73168" lon="5.96363">
        <ele>359.9</ele>
        <time>2023-06-11T10:26:14Z</time>
      </trkpt>
      <trkpt lat="43.73168" lon="5.96363">
        <ele>359.9</ele>
        <time>2023-06-11T10:26:15Z</time>
      </trkpt>
      <trkpt lat="43.73168" lon="5.96363">
        <ele>359.9</ele>
        <time>2023-06-11T10:26:16Z</time>
      </trkpt>
      <trkpt lat="43.73168" lon="5.96363">
        <ele>359.8</ele>
        <time>2023-06-11T10:26:17Z</time>
      </trkpt>
      <trkpt lat="43.73168" lon="5.96363">
        <ele>359.8</ele>
        <time>2023-06-11T10:26:18Z</time>
      </trkpt>
      <trkpt lat="43.73168" lon="5.96363">
        <ele>359.8</ele>
        <time>2023-06-11T10:26:19Z</time>
      </trkpt>
      <trkpt lat="43.73168" lon="5.96363">
        <ele>359.7</ele>
        <time>2023-06-11T10:26:20Z</time>
      </trkpt>
      <trkpt lat="43.73168" lon="5.96363">
        <ele>359.7</ele>
        <time>2023-06-11T10:26:21Z</time>
      </trkpt>
      <trkpt lat="43.73168" lon="5.96363">
        <ele>359.7</ele>
        <time>2023-06-11T10:26:22Z</time>
      </trkpt>
      <trkpt lat="43.73168" lon="5.96363">
        <ele>359.6</ele>
        <time>2023-06-11T10:26:23Z</time>
      </trkpt>
      <trkpt lat="43.73168" lon="5.96363">
        <ele>359.6</ele>
        <time>2023-06-11T10:26:24Z</time>
      </trkpt>
      <trkpt lat="43.73168" lon="5.96363">
        <ele>359.7</ele>
        <time>2023-06-11T10:26:25Z</time>
      </trkpt>
      <trkpt lat="43.73168" lon="5.96363">
        <ele>359.8</ele>
        <time>2023-06-11T10:26:26Z</time>
      </trkpt>
      <trkpt lat="43.73168" lon="5.96363">
        <ele>359.9</ele>
        <time>2023-06-11T10:26:27Z</time>
      </trkpt>
      <trkpt lat="43.73168" lon="5.96363">
        <ele>359.9</ele>
        <time>2023-06-11T10:26:28Z</time>
      </trkpt>
      <trkpt lat="43.73168" lon="5.96364">
        <ele>360</ele>
        <time>2023-06-11T10:26:29Z</time>
      </trkpt>
      <trkpt lat="43.73168" lon="5.96364">
        <ele>360</ele>
        <time>2023-06-11T10:26:30Z</time>
      </trkpt>
      <trkpt lat="43.73168" lon="5.96364">
        <ele>360</ele>
        <time>2023-06-11T10:26:31Z</time>
      </trkpt>
      <trkpt lat="43.73168" lon="5.96364">
        <ele>360</ele>
        <time>2023-06-11T10:26:32Z</time>
      </trkpt>
      <trkpt lat="43.73168" lon="5.96363">
        <ele>360</ele>
        <time>2023-06-11T10:26:33Z</time>
      </trkpt>
      <trkpt lat="43.73168" lon="5.96363">
        <ele>359.9</ele>
        <time>2023-06-11T10:26:34Z</time>
      </trkpt>
      <trkpt lat="43.73168" lon="5.96364">
        <ele>359.9</ele>
        <time>2023-06-11T10:26:35Z</time>
      </trkpt>
      <trkpt lat="43.73168" lon="5.96363">
        <ele>359.9</ele>
        <time>2023-06-11T10:26:36Z</time>
      </trkpt>
      <trkpt lat="43.73168" lon="5.96363">
        <ele>360</ele>
        <time>2023-06-11T10:26:37Z</time>
      </trkpt>
      <trkpt lat="43.73168" lon="5.96363">
        <ele>360</ele>
        <time>2023-06-11T10:26:38Z</time>
      </trkpt>
      <trkpt lat="43.73168" lon="5.96363">
        <ele>360</ele>
        <time>2023-06-11T10:26:39Z</time>
      </trkpt>
      <trkpt lat="43.73168" lon="5.96363">
        <ele>360</ele>
        <time>2023-06-11T10:26:40Z</time>
      </trkpt>
      <trkpt lat="43.73168" lon="5.96363">
        <ele>360</ele>
        <time>2023-06-11T10:26:41Z</time>
      </trkpt>
      <trkpt lat="43.73168" lon="5.96363">
        <ele>360</ele>
        <time>2023-06-11T10:26:42Z</time>
      </trkpt>
      <trkpt lat="43.73168" lon="5.96363">
        <ele>359.9</ele>
        <time>2023-06-11T10:26:43Z</time>
      </trkpt>
      <trkpt lat="43.73168" lon="5.96363">
        <ele>359.9</ele>
        <time>2023-06-11T10:26:44Z</time>
      </trkpt>
      <trkpt lat="43.73169" lon="5.96363">
        <ele>359.9</ele>
        <time>2023-06-11T10:26:45Z</time>
      </trkpt>
      <trkpt lat="43.73169" lon="5.96363">
        <ele>359.9</ele>
        <time>2023-06-11T10:26:46Z</time>
      </trkpt>
      <trkpt lat="43.73169" lon="5.96363">
        <ele>359.9</ele>
        <time>2023-06-11T10:26:47Z</time>
      </trkpt>
      <trkpt lat="43.73169" lon="5.96363">
        <ele>359.9</ele>
        <time>2023-06-11T10:26:48Z</time>
      </trkpt>
      <trkpt lat="43.73169" lon="5.96363">
        <ele>359.9</ele>
        <time>2023-06-11T10:26:49Z</time>
      </trkpt>
      <trkpt lat="43.73169" lon="5.96363">
        <ele>359.9</ele>
        <time>2023-06-11T10:26:50Z</time>
      </trkpt>
      <trkpt lat="43.73169" lon="5.96363">
        <ele>359.9</ele>
        <time>2023-06-11T10:26:51Z</time>
      </trkpt>
      <trkpt lat="43.73169" lon="5.96363">
        <ele>360</ele>
        <time>2023-06-11T10:26:52Z</time>
      </trkpt>
      <trkpt lat="43.73169" lon="5.96363">
        <ele>360</ele>
        <time>2023-06-11T10:26:53Z</time>
      </trkpt>
      <trkpt lat="43.73169" lon="5.96363">
        <ele>360.1</ele>
        <time>2023-06-11T10:26:54Z</time>
      </trkpt>
      <trkpt lat="43.73169" lon="5.96363">
        <ele>360.1</ele>
        <time>2023-06-11T10:26:55Z</time>
      </trkpt>
      <trkpt lat="43.73169" lon="5.96362">
        <ele>360.1</ele>
        <time>2023-06-11T10:26:56Z</time>
      </trkpt>
      <trkpt lat="43.73169" lon="5.96362">
        <ele>360.1</ele>
        <time>2023-06-11T10:26:57Z</time>
      </trkpt>
      <trkpt lat="43.73169" lon="5.96362">
        <ele>360.1</ele>
        <time>2023-06-11T10:26:58Z</time>
      </trkpt>
      <trkpt lat="43.73169" lon="5.96362">
        <ele>360.1</ele>
        <time>2023-06-11T10:26:59Z</time>
      </trkpt>
      <trkpt lat="43.73169" lon="5.96362">
        <ele>360</ele>
        <time>2023-06-11T10:27:00Z</time>
      </trkpt>
      <trkpt lat="43.73169" lon="5.96363">
        <ele>360</ele>
        <time>2023-06-11T10:27:01Z</time>
      </trkpt>
      <trkpt lat="43.73169" lon="5.96363">
        <ele>359.9</ele>
        <time>2023-06-11T10:27:02Z</time>
      </trkpt>
      <trkpt lat="43.73169" lon="5.96363">
        <ele>359.9</ele>
        <time>2023-06-11T10:27:03Z</time>
      </trkpt>
      <trkpt lat="43.73169" lon="5.96363">
        <ele>359.8</ele>
        <time>2023-06-11T10:27:04Z</time>
      </trkpt>
      <trkpt lat="43.73169" lon="5.96363">
        <ele>359.8</ele>
        <time>2023-06-11T10:27:05Z</time>
      </trkpt>
      <trkpt lat="43.73169" lon="5.96363">
        <ele>359.7</ele>
        <time>2023-06-11T10:27:06Z</time>
      </trkpt>
      <trkpt lat="43.73169" lon="5.96363">
        <ele>359.8</ele>
        <time>2023-06-11T10:27:07Z</time>
      </trkpt>
      <trkpt lat="43.73169" lon="5.96363">
        <ele>359.7</ele>
        <time>2023-06-11T10:27:08Z</time>
      </trkpt>
      <trkpt lat="43.73169" lon="5.96363">
        <ele>359.7</ele>
        <time>2023-06-11T10:27:09Z</time>
      </trkpt>
      <trkpt lat="43.73169" lon="5.96363">
        <ele>359.6</ele>
        <time>2023-06-11T10:27:10Z</time>
      </trkpt>
      <trkpt lat="43.73169" lon="5.96363">
        <ele>359.7</ele>
        <time>2023-06-11T10:27:11Z</time>
      </trkpt>
      <trkpt lat="43.73169" lon="5.96363">
        <ele>359.7</ele>
        <time>2023-06-11T10:27:12Z</time>
      </trkpt>
      <trkpt lat="43.73169" lon="5.96363">
        <ele>359.7</ele>
        <time>2023-06-11T10:27:13Z</time>
      </trkpt>
      <trkpt lat="43.73169" lon="5.96363">
        <ele>359.7</ele>
        <time>2023-06-11T10:27:14Z</time>
      </trkpt>
      <trkpt lat="43.73169" lon="5.96363">
        <ele>359.7</ele>
        <time>2023-06-11T10:27:15Z</time>
      </trkpt>
      <trkpt lat="43.73169" lon="5.96364">
        <ele>359.8</ele>
        <time>2023-06-11T10:27:16Z</time>
      </trkpt>
      <trkpt lat="43.73169" lon="5.96364">
        <ele>359.7</ele>
        <time>2023-06-11T10:27:17Z</time>
      </trkpt>
      <trkpt lat="43.73169" lon="5.96364">
        <ele>359.7</ele>
        <time>2023-06-11T10:27:18Z</time>
      </trkpt>
      <trkpt lat="43.73169" lon="5.96364">
        <ele>359.7</ele>
        <time>2023-06-11T10:27:19Z</time>
      </trkpt>
      <trkpt lat="43.73169" lon="5.96364">
        <ele>359.7</ele>
        <time>2023-06-11T10:27:20Z</time>
      </trkpt>
      <trkpt lat="43.73169" lon="5.96364">
        <ele>359.8</ele>
        <time>2023-06-11T10:27:21Z</time>
      </trkpt>
      <trkpt lat="43.73169" lon="5.96364">
        <ele>359.8</ele>
        <time>2023-06-11T10:27:22Z</time>
      </trkpt>
      <trkpt lat="43.73169" lon="5.96364">
        <ele>359.7</ele>
        <time>2023-06-11T10:27:23Z</time>
      </trkpt>
      <trkpt lat="43.73169" lon="5.96364">
        <ele>359.7</ele>
        <time>2023-06-11T10:27:24Z</time>
      </trkpt>
      <trkpt lat="43.73169" lon="5.96364">
        <ele>359.7</ele>
        <time>2023-06-11T10:27:25Z</time>
      </trkpt>
      <trkpt lat="43.73169" lon="5.96364">
        <ele>359.7</ele>
        <time>2023-06-11T10:27:26Z</time>
      </trkpt>
      <trkpt lat="43.73169" lon="5.96364">
        <ele>359.7</ele>
        <time>2023-06-11T10:27:27Z</time>
      </trkpt>
      <trkpt lat="43.73169" lon="5.96364">
        <ele>359.7</ele>
        <time>2023-06-11T10:27:28Z</time>
      </trkpt>
      <trkpt lat="43.73169" lon="5.96364">
        <ele>359.7</ele>
        <time>2023-06-11T10:27:29Z</time>
      </trkpt>
      <trkpt lat="43.73169" lon="5.96364">
        <ele>359.8</ele>
        <time>2023-06-11T10:27:30Z</time>
      </trkpt>
      <trkpt lat="43.73169" lon="5.96364">
        <ele>359.9</ele>
        <time>2023-06-11T10:27:31Z</time>
      </trkpt>
      <trkpt lat="43.73169" lon="5.96364">
        <ele>359.9</ele>
        <time>2023-06-11T10:27:32Z</time>
      </trkpt>
      <trkpt lat="43.73169" lon="5.96364">
        <ele>359.9</ele>
        <time>2023-06-11T10:27:33Z</time>
      </trkpt>
      <trkpt lat="43.73169" lon="5.96364">
        <ele>360</ele>
        <time>2023-06-11T10:27:34Z</time>
      </trkpt>
      <trkpt lat="43.73169" lon="5.96364">
        <ele>360</ele>
        <time>2023-06-11T10:27:35Z</time>
      </trkpt>
      <trkpt lat="43.73169" lon="5.96364">
        <ele>359.9</ele>
        <time>2023-06-11T10:27:36Z</time>
      </trkpt>
      <trkpt lat="43.73169" lon="5.96364">
        <ele>359.9</ele>
        <time>2023-06-11T10:27:37Z</time>
      </trkpt>
      <trkpt lat="43.73169" lon="5.96364">
        <ele>359.9</ele>
        <time>2023-06-11T10:27:38Z</time>
      </trkpt>
      <trkpt lat="43.73168" lon="5.96364">
        <ele>359.9</ele>
        <time>2023-06-11T10:27:39Z</time>
      </trkpt>
      <trkpt lat="43.73168" lon="5.96364">
        <ele>359.9</ele>
        <time>2023-06-11T10:27:40Z</time>
      </trkpt>
      <trkpt lat="43.73168" lon="5.96365">
        <ele>359.9</ele>
        <time>2023-06-11T10:27:41Z</time>
      </trkpt>
      <trkpt lat="43.73168" lon="5.96365">
        <ele>359.8</ele>
        <time>2023-06-11T10:27:42Z</time>
      </trkpt>
      <trkpt lat="43.73168" lon="5.96365">
        <ele>359.8</ele>
        <time>2023-06-11T10:27:43Z</time>
      </trkpt>
      <trkpt lat="43.73168" lon="5.96365">
        <ele>359.8</ele>
        <time>2023-06-11T10:27:44Z</time>
      </trkpt>
      <trkpt lat="43.73168" lon="5.96365">
        <ele>359.8</ele>
        <time>2023-06-11T10:27:45Z</time>
      </trkpt>
      <trkpt lat="43.73168" lon="5.96365">
        <ele>359.8</ele>
        <time>2023-06-11T10:27:46Z</time>
      </trkpt>
      <trkpt lat="43.73168" lon="5.96365">
        <ele>359.8</ele>
        <time>2023-06-11T10:27:47Z</time>
      </trkpt>
      <trkpt lat="43.73168" lon="5.96365">
        <ele>359.9</ele>
        <time>2023-06-11T10:27:48Z</time>
      </trkpt>
      <trkpt lat="43.73168" lon="5.96365">
        <ele>359.9</ele>
        <time>2023-06-11T10:27:49Z</time>
      </trkpt>
      <trkpt lat="43.73168" lon="5.96365">
        <ele>359.9</ele>
        <time>2023-06-11T10:27:50Z</time>
      </trkpt>
      <trkpt lat="43.73168" lon="5.96365">
        <ele>359.8</ele>
        <time>2023-06-11T10:27:51Z</time>
      </trkpt>
      <trkpt lat="43.73168" lon="5.96365">
        <ele>359.8</ele>
        <time>2023-06-11T10:27:52Z</time>
      </trkpt>
      <trkpt lat="43.73168" lon="5.96365">
        <ele>359.8</ele>
        <time>2023-06-11T10:27:53Z</time>
      </trkpt>
      <trkpt lat="43.73168" lon="5.96365">
        <ele>359.8</ele>
        <time>2023-06-11T10:27:54Z</time>
      </trkpt>
      <trkpt lat="43.73168" lon="5.96365">
        <ele>359.8</ele>
        <time>2023-06-11T10:27:55Z</time>
      </trkpt>
      <trkpt lat="43.73168" lon="5.96365">
        <ele>359.8</ele>
        <time>2023-06-11T10:27:56Z</time>
      </trkpt>
      <trkpt lat="43.73168" lon="5.96365">
        <ele>359.8</ele>
        <time>2023-06-11T10:27:57Z</time>
      </trkpt>
      <trkpt lat="43.73168" lon="5.96365">
        <ele>359.8</ele>
        <time>2023-06-11T10:27:58Z</time>
      </trkpt>
      <trkpt lat="43.73168" lon="5.96365">
        <ele>359.7</ele>
        <time>2023-06-11T10:27:59Z</time>
      </trkpt>
      <trkpt lat="43.73168" lon="5.96365">
        <ele>359.7</ele>
        <time>2023-06-11T10:28:00Z</time>
      </trkpt>
      <trkpt lat="43.73168" lon="5.96365">
        <ele>359.7</ele>
        <time>2023-06-11T10:28:01Z</time>
      </trkpt>
      <trkpt lat="43.73168" lon="5.96365">
        <ele>359.7</ele>
        <time>2023-06-11T10:28:02Z</time>
      </trkpt>
      <trkpt lat="43.73168" lon="5.96366">
        <ele>359.8</ele>
        <time>2023-06-11T10:28:03Z</time>
      </trkpt>
      <trkpt lat="43.73168" lon="5.96366">
        <ele>359.8</ele>
        <time>2023-06-11T10:28:04Z</time>
      </trkpt>
      <trkpt lat="43.73168" lon="5.96366">
        <ele>359.8</ele>
        <time>2023-06-11T10:28:05Z</time>
      </trkpt>
      <trkpt lat="43.73168" lon="5.96366">
        <ele>359.9</ele>
        <time>2023-06-11T10:28:06Z</time>
      </trkpt>
      <trkpt lat="43.73168" lon="5.96366">
        <ele>359.8</ele>
        <time>2023-06-11T10:28:07Z</time>
      </trkpt>
      <trkpt lat="43.73168" lon="5.96366">
        <ele>359.9</ele>
        <time>2023-06-11T10:28:08Z</time>
      </trkpt>
      <trkpt lat="43.73168" lon="5.96366">
        <ele>359.9</ele>
        <time>2023-06-11T10:28:09Z</time>
      </trkpt>
      <trkpt lat="43.73169" lon="5.96366">
        <ele>360</ele>
        <time>2023-06-11T10:28:10Z</time>
      </trkpt>
      <trkpt lat="43.73169" lon="5.96366">
        <ele>360</ele>
        <time>2023-06-11T10:28:11Z</time>
      </trkpt>
      <trkpt lat="43.73169" lon="5.96366">
        <ele>360</ele>
        <time>2023-06-11T10:28:12Z</time>
      </trkpt>
      <trkpt lat="43.73169" lon="5.96366">
        <ele>360</ele>
        <time>2023-06-11T10:28:13Z</time>
      </trkpt>
      <trkpt lat="43.73169" lon="5.96366">
        <ele>360</ele>
        <time>2023-06-11T10:28:14Z</time>
      </trkpt>
      <trkpt lat="43.73169" lon="5.96366">
        <ele>360</ele>
        <time>2023-06-11T10:28:15Z</time>
      </trkpt>
      <trkpt lat="43.73169" lon="5.96366">
        <ele>360</ele>
        <time>2023-06-11T10:28:16Z</time>
      </trkpt>
      <trkpt lat="43.73169" lon="5.96366">
        <ele>360</ele>
        <time>2023-06-11T10:28:17Z</time>
      </trkpt>
      <trkpt lat="43.73169" lon="5.96366">
        <ele>360</ele>
        <time>2023-06-11T10:28:18Z</time>
      </trkpt>
      <trkpt lat="43.73169" lon="5.96366">
        <ele>359.9</ele>
        <time>2023-06-11T10:28:19Z</time>
      </trkpt>
      <trkpt lat="43.73169" lon="5.96366">
        <ele>359.9</ele>
        <time>2023-06-11T10:28:20Z</time>
      </trkpt>
      <trkpt lat="43.73169" lon="5.96366">
        <ele>359.9</ele>
        <time>2023-06-11T10:28:21Z</time>
      </trkpt>
      <trkpt lat="43.73169" lon="5.96366">
        <ele>359.9</ele>
        <time>2023-06-11T10:28:22Z</time>
      </trkpt>
      <trkpt lat="43.73169" lon="5.96366">
        <ele>359.9</ele>
        <time>2023-06-11T10:28:23Z</time>
      </trkpt>
      <trkpt lat="43.73169" lon="5.96366">
        <ele>360</ele>
        <time>2023-06-11T10:28:24Z</time>
      </trkpt>
      <trkpt lat="43.73169" lon="5.96366">
        <ele>360.1</ele>
        <time>2023-06-11T10:28:25Z</time>
      </trkpt>
      <trkpt lat="43.73169" lon="5.96366">
        <ele>360.1</ele>
        <time>2023-06-11T10:28:26Z</time>
      </trkpt>
      <trkpt lat="43.73169" lon="5.96366">
        <ele>360.1</ele>
        <time>2023-06-11T10:28:27Z</time>
      </trkpt>
      <trkpt lat="43.73169" lon="5.96366">
        <ele>360.1</ele>
        <time>2023-06-11T10:28:28Z</time>
      </trkpt>
      <trkpt lat="43.73169" lon="5.96366">
        <ele>360</ele>
        <time>2023-06-11T10:28:29Z</time>
      </trkpt>
      <trkpt lat="43.73169" lon="5.96366">
        <ele>359.9</ele>
        <time>2023-06-11T10:28:30Z</time>
      </trkpt>
      <trkpt lat="43.73169" lon="5.96366">
        <ele>359.9</ele>
        <time>2023-06-11T10:28:31Z</time>
      </trkpt>
      <trkpt lat="43.73169" lon="5.96366">
        <ele>359.9</ele>
        <time>2023-06-11T10:28:32Z</time>
      </trkpt>
      <trkpt lat="43.73169" lon="5.96366">
        <ele>359.9</ele>
        <time>2023-06-11T10:28:33Z</time>
      </trkpt>
      <trkpt lat="43.73169" lon="5.96366">
        <ele>359.9</ele>
        <time>2023-06-11T10:28:34Z</time>
      </trkpt>
      <trkpt lat="43.73169" lon="5.96366">
        <ele>359.9</ele>
        <time>2023-06-11T10:28:35Z</time>
      </trkpt>
      <trkpt lat="43.73169" lon="5.96366">
        <ele>359.9</ele>
        <time>2023-06-11T10:28:36Z</time>
      </trkpt>
      <trkpt lat="43.73169" lon="5.96366">
        <ele>359.8</ele>
        <time>2023-06-11T10:28:37Z</time>
      </trkpt>
      <trkpt lat="43.73169" lon="5.96366">
        <ele>359.7</ele>
        <time>2023-06-11T10:28:38Z</time>
      </trkpt>
      <trkpt lat="43.73169" lon="5.96366">
        <ele>359.6</ele>
        <time>2023-06-11T10:28:39Z</time>
      </trkpt>
      <trkpt lat="43.73169" lon="5.96366">
        <ele>359.5</ele>
        <time>2023-06-11T10:28:40Z</time>
      </trkpt>
      <trkpt lat="43.73169" lon="5.96366">
        <ele>359.5</ele>
        <time>2023-06-11T10:28:41Z</time>
      </trkpt>
      <trkpt lat="43.73169" lon="5.96365">
        <ele>359.4</ele>
        <time>2023-06-11T10:28:42Z</time>
      </trkpt>
      <trkpt lat="43.73169" lon="5.96365">
        <ele>359.4</ele>
        <time>2023-06-11T10:28:43Z</time>
      </trkpt>
      <trkpt lat="43.73169" lon="5.96365">
        <ele>359.4</ele>
        <time>2023-06-11T10:28:44Z</time>
      </trkpt>
      <trkpt lat="43.73169" lon="5.96365">
        <ele>359.5</ele>
        <time>2023-06-11T10:28:45Z</time>
      </trkpt>
      <trkpt lat="43.73169" lon="5.96365">
        <ele>359.5</ele>
        <time>2023-06-11T10:28:46Z</time>
      </trkpt>
      <trkpt lat="43.73169" lon="5.96365">
        <ele>359.5</ele>
        <time>2023-06-11T10:28:47Z</time>
      </trkpt>
      <trkpt lat="43.73169" lon="5.96365">
        <ele>359.5</ele>
        <time>2023-06-11T10:28:48Z</time>
      </trkpt>
      <trkpt lat="43.73169" lon="5.96365">
        <ele>359.5</ele>
        <time>2023-06-11T10:28:49Z</time>
      </trkpt>
      <trkpt lat="43.73169" lon="5.96365">
        <ele>359.5</ele>
        <time>2023-06-11T10:28:50Z</time>
      </trkpt>
      <trkpt lat="43.73169" lon="5.96365">
        <ele>359.6</ele>
        <time>2023-06-11T10:28:51Z</time>
      </trkpt>
      <trkpt lat="43.73169" lon="5.96365">
        <ele>359.6</ele>
        <time>2023-06-11T10:28:52Z</time>
      </trkpt>
      <trkpt lat="43.7317" lon="5.96365">
        <ele>359.7</ele>
        <time>2023-06-11T10:28:53Z</time>
      </trkpt>
      <trkpt lat="43.7317" lon="5.96364">
        <ele>359.7</ele>
        <time>2023-06-11T10:28:54Z</time>
      </trkpt>
      <trkpt lat="43.7317" lon="5.96364">
        <ele>359.7</ele>
        <time>2023-06-11T10:28:55Z</time>
      </trkpt>
      <trkpt lat="43.7317" lon="5.96364">
        <ele>359.7</ele>
        <time>2023-06-11T10:28:56Z</time>
      </trkpt>
      <trkpt lat="43.73169" lon="5.96364">
        <ele>359.7</ele>
        <time>2023-06-11T10:28:57Z</time>
      </trkpt>
      <trkpt lat="43.73169" lon="5.96363">
        <ele>359.7</ele>
        <time>2023-06-11T10:28:58Z</time>
      </trkpt>
      <trkpt lat="43.73169" lon="5.96363">
        <ele>359.7</ele>
        <time>2023-06-11T10:28:59Z</time>
      </trkpt>
      <trkpt lat="43.73169" lon="5.96363">
        <ele>359.7</ele>
        <time>2023-06-11T10:29:00Z</time>
      </trkpt>
      <trkpt lat="43.73169" lon="5.96363">
        <ele>359.7</ele>
        <time>2023-06-11T10:29:01Z</time>
      </trkpt>
      <trkpt lat="43.73169" lon="5.96363">
        <ele>359.6</ele>
        <time>2023-06-11T10:29:02Z</time>
      </trkpt>
      <trkpt lat="43.7317" lon="5.96363">
        <ele>359.6</ele>
        <time>2023-06-11T10:29:03Z</time>
      </trkpt>
      <trkpt lat="43.7317" lon="5.96363">
        <ele>359.6</ele>
        <time>2023-06-11T10:29:04Z</time>
      </trkpt>
      <trkpt lat="43.73169" lon="5.96363">
        <ele>359.5</ele>
        <time>2023-06-11T10:29:05Z</time>
      </trkpt>
      <trkpt lat="43.73169" lon="5.96362">
        <ele>359.5</ele>
        <time>2023-06-11T10:29:06Z</time>
      </trkpt>
      <trkpt lat="43.73169" lon="5.96362">
        <ele>359.5</ele>
        <time>2023-06-11T10:29:07Z</time>
      </trkpt>
      <trkpt lat="43.73169" lon="5.96362">
        <ele>359.4</ele>
        <time>2023-06-11T10:29:08Z</time>
      </trkpt>
      <trkpt lat="43.73169" lon="5.96362">
        <ele>359.5</ele>
        <time>2023-06-11T10:29:09Z</time>
      </trkpt>
      <trkpt lat="43.73169" lon="5.96362">
        <ele>359.5</ele>
        <time>2023-06-11T10:29:10Z</time>
      </trkpt>
      <trkpt lat="43.73169" lon="5.96362">
        <ele>359.5</ele>
        <time>2023-06-11T10:29:11Z</time>
      </trkpt>
      <trkpt lat="43.73169" lon="5.96362">
        <ele>359.5</ele>
        <time>2023-06-11T10:29:12Z</time>
      </trkpt>
      <trkpt lat="43.73169" lon="5.96361">
        <ele>359.5</ele>
        <time>2023-06-11T10:29:13Z</time>
      </trkpt>
      <trkpt lat="43.73169" lon="5.96361">
        <ele>359.5</ele>
        <time>2023-06-11T10:29:14Z</time>
      </trkpt>
      <trkpt lat="43.73169" lon="5.96361">
        <ele>359.5</ele>
        <time>2023-06-11T10:29:15Z</time>
      </trkpt>
      <trkpt lat="43.73169" lon="5.96361">
        <ele>359.6</ele>
        <time>2023-06-11T10:29:16Z</time>
      </trkpt>
      <trkpt lat="43.73169" lon="5.96361">
        <ele>359.6</ele>
        <time>2023-06-11T10:29:17Z</time>
      </trkpt>
      <trkpt lat="43.73169" lon="5.96361">
        <ele>359.6</ele>
        <time>2023-06-11T10:29:18Z</time>
      </trkpt>
      <trkpt lat="43.73169" lon="5.96361">
        <ele>359.7</ele>
        <time>2023-06-11T10:29:19Z</time>
      </trkpt>
      <trkpt lat="43.73169" lon="5.96361">
        <ele>359.7</ele>
        <time>2023-06-11T10:29:20Z</time>
      </trkpt>
      <trkpt lat="43.73169" lon="5.96361">
        <ele>359.7</ele>
        <time>2023-06-11T10:29:21Z</time>
      </trkpt>
      <trkpt lat="43.73169" lon="5.96361">
        <ele>359.6</ele>
        <time>2023-06-11T10:29:22Z</time>
      </trkpt>
      <trkpt lat="43.73169" lon="5.96361">
        <ele>359.6</ele>
        <time>2023-06-11T10:29:23Z</time>
      </trkpt>
      <trkpt lat="43.73169" lon="5.96361">
        <ele>359.5</ele>
        <time>2023-06-11T10:29:24Z</time>
      </trkpt>
      <trkpt lat="43.73169" lon="5.96361">
        <ele>359.5</ele>
        <time>2023-06-11T10:29:25Z</time>
      </trkpt>
      <trkpt lat="43.73169" lon="5.96361">
        <ele>359.5</ele>
        <time>2023-06-11T10:29:26Z</time>
      </trkpt>
      <trkpt lat="43.73169" lon="5.96361">
        <ele>359.6</ele>
        <time>2023-06-11T10:29:27Z</time>
      </trkpt>
      <trkpt lat="43.73169" lon="5.96361">
        <ele>359.6</ele>
        <time>2023-06-11T10:29:28Z</time>
      </trkpt>
      <trkpt lat="43.73169" lon="5.96361">
        <ele>359.6</ele>
        <time>2023-06-11T10:29:29Z</time>
      </trkpt>
      <trkpt lat="43.73169" lon="5.96361">
        <ele>359.6</ele>
        <time>2023-06-11T10:29:30Z</time>
      </trkpt>
      <trkpt lat="43.73169" lon="5.96361">
        <ele>359.7</ele>
        <time>2023-06-11T10:29:31Z</time>
      </trkpt>
      <trkpt lat="43.73169" lon="5.96361">
        <ele>359.8</ele>
        <time>2023-06-11T10:29:32Z</time>
      </trkpt>
      <trkpt lat="43.73169" lon="5.96361">
        <ele>359.8</ele>
        <time>2023-06-11T10:29:33Z</time>
      </trkpt>
      <trkpt lat="43.73169" lon="5.96361">
        <ele>359.8</ele>
        <time>2023-06-11T10:29:34Z</time>
      </trkpt>
      <trkpt lat="43.73169" lon="5.96361">
        <ele>359.8</ele>
        <time>2023-06-11T10:29:35Z</time>
      </trkpt>
      <trkpt lat="43.73169" lon="5.9636">
        <ele>359.8</ele>
        <time>2023-06-11T10:29:36Z</time>
      </trkpt>
      <trkpt lat="43.73169" lon="5.9636">
        <ele>359.7</ele>
        <time>2023-06-11T10:29:37Z</time>
      </trkpt>
      <trkpt lat="43.73169" lon="5.9636">
        <ele>359.7</ele>
        <time>2023-06-11T10:29:38Z</time>
      </trkpt>
      <trkpt lat="43.73169" lon="5.9636">
        <ele>359.7</ele>
        <time>2023-06-11T10:29:39Z</time>
      </trkpt>
      <trkpt lat="43.73169" lon="5.9636">
        <ele>359.7</ele>
        <time>2023-06-11T10:29:40Z</time>
      </trkpt>
      <trkpt lat="43.73169" lon="5.9636">
        <ele>359.7</ele>
        <time>2023-06-11T10:29:41Z</time>
      </trkpt>
      <trkpt lat="43.73169" lon="5.9636">
        <ele>359.7</ele>
        <time>2023-06-11T10:29:42Z</time>
      </trkpt>
      <trkpt lat="43.73169" lon="5.9636">
        <ele>359.8</ele>
        <time>2023-06-11T10:29:43Z</time>
      </trkpt>
      <trkpt lat="43.73169" lon="5.9636">
        <ele>359.8</ele>
        <time>2023-06-11T10:29:44Z</time>
      </trkpt>
      <trkpt lat="43.73169" lon="5.9636">
        <ele>359.8</ele>
        <time>2023-06-11T10:29:45Z</time>
      </trkpt>
      <trkpt lat="43.73169" lon="5.9636">
        <ele>359.8</ele>
        <time>2023-06-11T10:29:46Z</time>
      </trkpt>
      <trkpt lat="43.73169" lon="5.96361">
        <ele>359.7</ele>
        <time>2023-06-11T10:29:47Z</time>
      </trkpt>
      <trkpt lat="43.73169" lon="5.96361">
        <ele>359.7</ele>
        <time>2023-06-11T10:29:48Z</time>
      </trkpt>
      <trkpt lat="43.73169" lon="5.9636">
        <ele>359.8</ele>
        <time>2023-06-11T10:29:49Z</time>
      </trkpt>
      <trkpt lat="43.73169" lon="5.9636">
        <ele>359.7</ele>
        <time>2023-06-11T10:29:50Z</time>
      </trkpt>
      <trkpt lat="43.73169" lon="5.9636">
        <ele>359.7</ele>
        <time>2023-06-11T10:29:51Z</time>
      </trkpt>
      <trkpt lat="43.73169" lon="5.96361">
        <ele>359.7</ele>
        <time>2023-06-11T10:29:52Z</time>
      </trkpt>
      <trkpt lat="43.73169" lon="5.96361">
        <ele>359.7</ele>
        <time>2023-06-11T10:29:53Z</time>
      </trkpt>
      <trkpt lat="43.73169" lon="5.96361">
        <ele>359.8</ele>
        <time>2023-06-11T10:29:54Z</time>
      </trkpt>
      <trkpt lat="43.73169" lon="5.96361">
        <ele>359.7</ele>
        <time>2023-06-11T10:29:55Z</time>
      </trkpt>
      <trkpt lat="43.73169" lon="5.96361">
        <ele>359.7</ele>
        <time>2023-06-11T10:29:56Z</time>
      </trkpt>
      <trkpt lat="43.73169" lon="5.96361">
        <ele>359.7</ele>
        <time>2023-06-11T10:29:57Z</time>
      </trkpt>
      <trkpt lat="43.73169" lon="5.96361">
        <ele>359.6</ele>
        <time>2023-06-11T10:29:58Z</time>
      </trkpt>
      <trkpt lat="43.73169" lon="5.96361">
        <ele>359.6</ele>
        <time>2023-06-11T10:29:59Z</time>
      </trkpt>
      <trkpt lat="43.73169" lon="5.96361">
        <ele>359.7</ele>
        <time>2023-06-11T10:30:00Z</time>
      </trkpt>
      <trkpt lat="43.73169" lon="5.96361">
        <ele>359.7</ele>
        <time>2023-06-11T10:30:01Z</time>
      </trkpt>
      <trkpt lat="43.73169" lon="5.96362">
        <ele>359.7</ele>
        <time>2023-06-11T10:30:02Z</time>
      </trkpt>
      <trkpt lat="43.73169" lon="5.96362">
        <ele>359.7</ele>
        <time>2023-06-11T10:30:03Z</time>
      </trkpt>
      <trkpt lat="43.73169" lon="5.96362">
        <ele>359.7</ele>
        <time>2023-06-11T10:30:04Z</time>
      </trkpt>
      <trkpt lat="43.73169" lon="5.96362">
        <ele>359.7</ele>
        <time>2023-06-11T10:30:05Z</time>
      </trkpt>
      <trkpt lat="43.73169" lon="5.96363">
        <ele>359.7</ele>
        <time>2023-06-11T10:30:06Z</time>
      </trkpt>
      <trkpt lat="43.73169" lon="5.96363">
        <ele>359.6</ele>
        <time>2023-06-11T10:30:07Z</time>
      </trkpt>
      <trkpt lat="43.73169" lon="5.96363">
        <ele>359.6</ele>
        <time>2023-06-11T10:30:08Z</time>
      </trkpt>
      <trkpt lat="43.73169" lon="5.96363">
        <ele>359.6</ele>
        <time>2023-06-11T10:30:09Z</time>
      </trkpt>
      <trkpt lat="43.73169" lon="5.96363">
        <ele>359.6</ele>
        <time>2023-06-11T10:30:10Z</time>
      </trkpt>
      <trkpt lat="43.73169" lon="5.96363">
        <ele>359.6</ele>
        <time>2023-06-11T10:30:11Z</time>
      </trkpt>
      <trkpt lat="43.73169" lon="5.96363">
        <ele>359.6</ele>
        <time>2023-06-11T10:30:12Z</time>
      </trkpt>
      <trkpt lat="43.7317" lon="5.96364">
        <ele>359.6</ele>
        <time>2023-06-11T10:30:13Z</time>
      </trkpt>
      <trkpt lat="43.73169" lon="5.96364">
        <ele>359.6</ele>
        <time>2023-06-11T10:30:14Z</time>
      </trkpt>
      <trkpt lat="43.73169" lon="5.96364">
        <ele>359.5</ele>
        <time>2023-06-11T10:30:15Z</time>
      </trkpt>
      <trkpt lat="43.73169" lon="5.96364">
        <ele>359.5</ele>
        <time>2023-06-11T10:30:16Z</time>
      </trkpt>
      <trkpt lat="43.73169" lon="5.96364">
        <ele>359.5</ele>
        <time>2023-06-11T10:30:17Z</time>
      </trkpt>
      <trkpt lat="43.73169" lon="5.96364">
        <ele>359.5</ele>
        <time>2023-06-11T10:30:18Z</time>
      </trkpt>
      <trkpt lat="43.73169" lon="5.96364">
        <ele>359.6</ele>
        <time>2023-06-11T10:30:19Z</time>
      </trkpt>
      <trkpt lat="43.73169" lon="5.96364">
        <ele>359.6</ele>
        <time>2023-06-11T10:30:20Z</time>
      </trkpt>
      <trkpt lat="43.73169" lon="5.96365">
        <ele>359.6</ele>
        <time>2023-06-11T10:30:21Z</time>
      </trkpt>
      <trkpt lat="43.73169" lon="5.96365">
        <ele>359.6</ele>
        <time>2023-06-11T10:30:22Z</time>
      </trkpt>
      <trkpt lat="43.73169" lon="5.96365">
        <ele>359.6</ele>
        <time>2023-06-11T10:30:23Z</time>
      </trkpt>
      <trkpt lat="43.73169" lon="5.96365">
        <ele>359.6</ele>
        <time>2023-06-11T10:30:24Z</time>
      </trkpt>
      <trkpt lat="43.73169" lon="5.96365">
        <ele>359.6</ele>
        <time>2023-06-11T10:30:25Z</time>
      </trkpt>
      <trkpt lat="43.73169" lon="5.96365">
        <ele>359.6</ele>
        <time>2023-06-11T10:30:26Z</time>
      </trkpt>
      <trkpt lat="43.73169" lon="5.96365">
        <ele>359.6</ele>
        <time>2023-06-11T10:30:27Z</time>
      </trkpt>
      <trkpt lat="43.73169" lon="5.96365">
        <ele>359.6</ele>
        <time>2023-06-11T10:30:28Z</time>
      </trkpt>
      <trkpt lat="43.73169" lon="5.96365">
        <ele>359.6</ele>
        <time>2023-06-11T10:30:29Z</time>
      </trkpt>
      <trkpt lat="43.73169" lon="5.96365">
        <ele>359.6</ele>
        <time>2023-06-11T10:30:30Z</time>
      </trkpt>
      <trkpt lat="43.73169" lon="5.96365">
        <ele>359.7</ele>
        <time>2023-06-11T10:30:31Z</time>
      </trkpt>
      <trkpt lat="43.73169" lon="5.96365">
        <ele>359.7</ele>
        <time>2023-06-11T10:30:32Z</time>
      </trkpt>
      <trkpt lat="43.73169" lon="5.96365">
        <ele>359.7</ele>
        <time>2023-06-11T10:30:33Z</time>
      </trkpt>
      <trkpt lat="43.73169" lon="5.96365">
        <ele>359.7</ele>
        <time>2023-06-11T10:30:34Z</time>
      </trkpt>
      <trkpt lat="43.73169" lon="5.96365">
        <ele>359.7</ele>
        <time>2023-06-11T10:30:35Z</time>
      </trkpt>
      <trkpt lat="43.73169" lon="5.96364">
        <ele>359.6</ele>
        <time>2023-06-11T10:30:36Z</time>
      </trkpt>
      <trkpt lat="43.73169" lon="5.96364">
        <ele>359.6</ele>
        <time>2023-06-11T10:30:37Z</time>
      </trkpt>
      <trkpt lat="43.73169" lon="5.96364">
        <ele>359.6</ele>
        <time>2023-06-11T10:30:38Z</time>
      </trkpt>
      <trkpt lat="43.73169" lon="5.96364">
        <ele>359.5</ele>
        <time>2023-06-11T10:30:39Z</time>
      </trkpt>
      <trkpt lat="43.73169" lon="5.96364">
        <ele>359.5</ele>
        <time>2023-06-11T10:30:40Z</time>
      </trkpt>
      <trkpt lat="43.73169" lon="5.96364">
        <ele>359.6</ele>
        <time>2023-06-11T10:30:41Z</time>
      </trkpt>
      <trkpt lat="43.73169" lon="5.96364">
        <ele>359.6</ele>
        <time>2023-06-11T10:30:42Z</time>
      </trkpt>
      <trkpt lat="43.73169" lon="5.96364">
        <ele>359.6</ele>
        <time>2023-06-11T10:30:43Z</time>
      </trkpt>
      <trkpt lat="43.73169" lon="5.96364">
        <ele>359.6</ele>
        <time>2023-06-11T10:30:44Z</time>
      </trkpt>
      <trkpt lat="43.73169" lon="5.96364">
        <ele>359.6</ele>
        <time>2023-06-11T10:30:45Z</time>
      </trkpt>
      <trkpt lat="43.73169" lon="5.96364">
        <ele>359.7</ele>
        <time>2023-06-11T10:30:46Z</time>
      </trkpt>
      <trkpt lat="43.73169" lon="5.96363">
        <ele>359.7</ele>
        <time>2023-06-11T10:30:47Z</time>
      </trkpt>
      <trkpt lat="43.73169" lon="5.96363">
        <ele>359.7</ele>
        <time>2023-06-11T10:30:48Z</time>
      </trkpt>
      <trkpt lat="43.73169" lon="5.96363">
        <ele>359.7</ele>
        <time>2023-06-11T10:30:49Z</time>
      </trkpt>
      <trkpt lat="43.73169" lon="5.96363">
        <ele>359.7</ele>
        <time>2023-06-11T10:30:50Z</time>
      </trkpt>
      <trkpt lat="43.73169" lon="5.96363">
        <ele>359.7</ele>
        <time>2023-06-11T10:30:51Z</time>
      </trkpt>
      <trkpt lat="43.73169" lon="5.96363">
        <ele>359.7</ele>
        <time>2023-06-11T10:30:52Z</time>
      </trkpt>
      <trkpt lat="43.73169" lon="5.96363">
        <ele>359.7</ele>
        <time>2023-06-11T10:30:53Z</time>
      </trkpt>
      <trkpt lat="43.73169" lon="5.96363">
        <ele>359.7</ele>
        <time>2023-06-11T10:30:54Z</time>
      </trkpt>
      <trkpt lat="43.73169" lon="5.96363">
        <ele>359.7</ele>
        <time>2023-06-11T10:30:55Z</time>
      </trkpt>
      <trkpt lat="43.73169" lon="5.96363">
        <ele>359.7</ele>
        <time>2023-06-11T10:30:56Z</time>
      </trkpt>
      <trkpt lat="43.73169" lon="5.96362">
        <ele>359.7</ele>
        <time>2023-06-11T10:30:57Z</time>
      </trkpt>
      <trkpt lat="43.73169" lon="5.96362">
        <ele>359.8</ele>
        <time>2023-06-11T10:30:58Z</time>
      </trkpt>
      <trkpt lat="43.73169" lon="5.96362">
        <ele>359.7</ele>
        <time>2023-06-11T10:30:59Z</time>
      </trkpt>
      <trkpt lat="43.73169" lon="5.96362">
        <ele>359.7</ele>
        <time>2023-06-11T10:31:00Z</time>
      </trkpt>
      <trkpt lat="43.73169" lon="5.96362">
        <ele>359.6</ele>
        <time>2023-06-11T10:31:01Z</time>
      </trkpt>
      <trkpt lat="43.73169" lon="5.96362">
        <ele>359.6</ele>
        <time>2023-06-11T10:31:02Z</time>
      </trkpt>
      <trkpt lat="43.73169" lon="5.96362">
        <ele>359.5</ele>
        <time>2023-06-11T10:31:03Z</time>
      </trkpt>
      <trkpt lat="43.73169" lon="5.96362">
        <ele>359.5</ele>
        <time>2023-06-11T10:31:04Z</time>
      </trkpt>
      <trkpt lat="43.73169" lon="5.96362">
        <ele>359.5</ele>
        <time>2023-06-11T10:31:05Z</time>
      </trkpt>
      <trkpt lat="43.73169" lon="5.96361">
        <ele>359.5</ele>
        <time>2023-06-11T10:31:06Z</time>
      </trkpt>
      <trkpt lat="43.73169" lon="5.96362">
        <ele>359.6</ele>
        <time>2023-06-11T10:31:07Z</time>
      </trkpt>
      <trkpt lat="43.73169" lon="5.96361">
        <ele>359.6</ele>
        <time>2023-06-11T10:31:08Z</time>
      </trkpt>
      <trkpt lat="43.73169" lon="5.96361">
        <ele>359.6</ele>
        <time>2023-06-11T10:31:09Z</time>
      </trkpt>
      <trkpt lat="43.73169" lon="5.96361">
        <ele>359.6</ele>
        <time>2023-06-11T10:31:10Z</time>
      </trkpt>
      <trkpt lat="43.73169" lon="5.96361">
        <ele>359.6</ele>
        <time>2023-06-11T10:31:11Z</time>
      </trkpt>
      <trkpt lat="43.73169" lon="5.96361">
        <ele>359.6</ele>
        <time>2023-06-11T10:31:12Z</time>
      </trkpt>
      <trkpt lat="43.73169" lon="5.96361">
        <ele>359.5</ele>
        <time>2023-06-11T10:31:13Z</time>
      </trkpt>
      <trkpt lat="43.73169" lon="5.96361">
        <ele>359.5</ele>
        <time>2023-06-11T10:31:14Z</time>
      </trkpt>
      <trkpt lat="43.73169" lon="5.96361">
        <ele>359.5</ele>
        <time>2023-06-11T10:31:15Z</time>
      </trkpt>
      <trkpt lat="43.73169" lon="5.96361">
        <ele>359.5</ele>
        <time>2023-06-11T10:31:16Z</time>
      </trkpt>
      <trkpt lat="43.73169" lon="5.96361">
        <ele>359.5</ele>
        <time>2023-06-11T10:31:17Z</time>
      </trkpt>
      <trkpt lat="43.73169" lon="5.96361">
        <ele>359.5</ele>
        <time>2023-06-11T10:31:18Z</time>
      </trkpt>
      <trkpt lat="43.73169" lon="5.96361">
        <ele>359.5</ele>
        <time>2023-06-11T10:31:19Z</time>
      </trkpt>
      <trkpt lat="43.73169" lon="5.96361">
        <ele>359.5</ele>
        <time>2023-06-11T10:31:20Z</time>
      </trkpt>
      <trkpt lat="43.73169" lon="5.96361">
        <ele>359.5</ele>
        <time>2023-06-11T10:31:21Z</time>
      </trkpt>
      <trkpt lat="43.73169" lon="5.96362">
        <ele>359.5</ele>
        <time>2023-06-11T10:31:22Z</time>
      </trkpt>
      <trkpt lat="43.73169" lon="5.96361">
        <ele>359.5</ele>
        <time>2023-06-11T10:31:23Z</time>
      </trkpt>
      <trkpt lat="43.73169" lon="5.96361">
        <ele>359.5</ele>
        <time>2023-06-11T10:31:24Z</time>
      </trkpt>
      <trkpt lat="43.73169" lon="5.96361">
        <ele>359.5</ele>
        <time>2023-06-11T10:31:25Z</time>
      </trkpt>
      <trkpt lat="43.73169" lon="5.96361">
        <ele>359.6</ele>
        <time>2023-06-11T10:31:26Z</time>
      </trkpt>
      <trkpt lat="43.73169" lon="5.96361">
        <ele>359.5</ele>
        <time>2023-06-11T10:31:27Z</time>
      </trkpt>
      <trkpt lat="43.73169" lon="5.96361">
        <ele>359.5</ele>
        <time>2023-06-11T10:31:28Z</time>
      </trkpt>
      <trkpt lat="43.73169" lon="5.96361">
        <ele>359.5</ele>
        <time>2023-06-11T10:31:29Z</time>
      </trkpt>
      <trkpt lat="43.73169" lon="5.96361">
        <ele>359.5</ele>
        <time>2023-06-11T10:31:30Z</time>
      </trkpt>
      <trkpt lat="43.73168" lon="5.96361">
        <ele>359.5</ele>
        <time>2023-06-11T10:31:31Z</time>
      </trkpt>
      <trkpt lat="43.73168" lon="5.96361">
        <ele>359.5</ele>
        <time>2023-06-11T10:31:32Z</time>
      </trkpt>
      <trkpt lat="43.73168" lon="5.96361">
        <ele>359.5</ele>
        <time>2023-06-11T10:31:33Z</time>
      </trkpt>
      <trkpt lat="43.73168" lon="5.96361">
        <ele>359.5</ele>
        <time>2023-06-11T10:31:34Z</time>
      </trkpt>
      <trkpt lat="43.73168" lon="5.96361">
        <ele>359.5</ele>
        <time>2023-06-11T10:31:35Z</time>
      </trkpt>
      <trkpt lat="43.73168" lon="5.96361">
        <ele>359.6</ele>
        <time>2023-06-11T10:31:36Z</time>
      </trkpt>
      <trkpt lat="43.73168" lon="5.96361">
        <ele>359.6</ele>
        <time>2023-06-11T10:31:37Z</time>
      </trkpt>
      <trkpt lat="43.73168" lon="5.96361">
        <ele>359.6</ele>
        <time>2023-06-11T10:31:38Z</time>
      </trkpt>
      <trkpt lat="43.73168" lon="5.96361">
        <ele>359.5</ele>
        <time>2023-06-11T10:31:39Z</time>
      </trkpt>
      <trkpt lat="43.73168" lon="5.96361">
        <ele>359.5</ele>
        <time>2023-06-11T10:31:40Z</time>
      </trkpt>
      <trkpt lat="43.73168" lon="5.96361">
        <ele>359.5</ele>
        <time>2023-06-11T10:31:41Z</time>
      </trkpt>
      <trkpt lat="43.73168" lon="5.96361">
        <ele>359.5</ele>
        <time>2023-06-11T10:31:42Z</time>
      </trkpt>
      <trkpt lat="43.73168" lon="5.96361">
        <ele>359.4</ele>
        <time>2023-06-11T10:31:43Z</time>
      </trkpt>
      <trkpt lat="43.73168" lon="5.96361">
        <ele>359.5</ele>
        <time>2023-06-11T10:31:44Z</time>
      </trkpt>
      <trkpt lat="43.73168" lon="5.96361">
        <ele>359.5</ele>
        <time>2023-06-11T10:31:45Z</time>
      </trkpt>
      <trkpt lat="43.73168" lon="5.96361">
        <ele>359.6</ele>
        <time>2023-06-11T10:31:46Z</time>
      </trkpt>
      <trkpt lat="43.73168" lon="5.96361">
        <ele>359.6</ele>
        <time>2023-06-11T10:31:47Z</time>
      </trkpt>
      <trkpt lat="43.73168" lon="5.96361">
        <ele>359.6</ele>
        <time>2023-06-11T10:31:48Z</time>
      </trkpt>
      <trkpt lat="43.73168" lon="5.96361">
        <ele>359.5</ele>
        <time>2023-06-11T10:31:49Z</time>
      </trkpt>
      <trkpt lat="43.73168" lon="5.96361">
        <ele>359.5</ele>
        <time>2023-06-11T10:31:50Z</time>
      </trkpt>
      <trkpt lat="43.73168" lon="5.96361">
        <ele>359.5</ele>
        <time>2023-06-11T10:31:51Z</time>
      </trkpt>
      <trkpt lat="43.73168" lon="5.96361">
        <ele>359.5</ele>
        <time>2023-06-11T10:31:52Z</time>
      </trkpt>
      <trkpt lat="43.73168" lon="5.96361">
        <ele>359.6</ele>
        <time>2023-06-11T10:31:53Z</time>
      </trkpt>
      <trkpt lat="43.73168" lon="5.96361">
        <ele>359.6</ele>
        <time>2023-06-11T10:31:54Z</time>
      </trkpt>
      <trkpt lat="43.73168" lon="5.96361">
        <ele>359.6</ele>
        <time>2023-06-11T10:31:55Z</time>
      </trkpt>
      <trkpt lat="43.73168" lon="5.96361">
        <ele>359.6</ele>
        <time>2023-06-11T10:31:56Z</time>
      </trkpt>
      <trkpt lat="43.73168" lon="5.96361">
        <ele>359.6</ele>
        <time>2023-06-11T10:31:57Z</time>
      </trkpt>
      <trkpt lat="43.73168" lon="5.96362">
        <ele>359.7</ele>
        <time>2023-06-11T10:31:58Z</time>
      </trkpt>
      <trkpt lat="43.73168" lon="5.96362">
        <ele>359.7</ele>
        <time>2023-06-11T10:31:59Z</time>
      </trkpt>
      <trkpt lat="43.73168" lon="5.96362">
        <ele>359.7</ele>
        <time>2023-06-11T10:32:00Z</time>
      </trkpt>
      <trkpt lat="43.73168" lon="5.96362">
        <ele>359.7</ele>
        <time>2023-06-11T10:32:01Z</time>
      </trkpt>
      <trkpt lat="43.73168" lon="5.96362">
        <ele>359.7</ele>
        <time>2023-06-11T10:32:02Z</time>
      </trkpt>
      <trkpt lat="43.73168" lon="5.96362">
        <ele>359.7</ele>
        <time>2023-06-11T10:32:03Z</time>
      </trkpt>
      <trkpt lat="43.73168" lon="5.96362">
        <ele>359.8</ele>
        <time>2023-06-11T10:32:04Z</time>
      </trkpt>
      <trkpt lat="43.73168" lon="5.96362">
        <ele>359.8</ele>
        <time>2023-06-11T10:32:05Z</time>
      </trkpt>
      <trkpt lat="43.73168" lon="5.96362">
        <ele>359.7</ele>
        <time>2023-06-11T10:32:06Z</time>
      </trkpt>
      <trkpt lat="43.73168" lon="5.96362">
        <ele>359.7</ele>
        <time>2023-06-11T10:32:07Z</time>
      </trkpt>
      <trkpt lat="43.73168" lon="5.96362">
        <ele>359.7</ele>
        <time>2023-06-11T10:32:08Z</time>
      </trkpt>
      <trkpt lat="43.73168" lon="5.96362">
        <ele>359.7</ele>
        <time>2023-06-11T10:32:09Z</time>
      </trkpt>
      <trkpt lat="43.73168" lon="5.96362">
        <ele>359.7</ele>
        <time>2023-06-11T10:32:10Z</time>
      </trkpt>
      <trkpt lat="43.73168" lon="5.96362">
        <ele>359.7</ele>
        <time>2023-06-11T10:32:11Z</time>
      </trkpt>
      <trkpt lat="43.73168" lon="5.96362">
        <ele>359.7</ele>
        <time>2023-06-11T10:32:12Z</time>
      </trkpt>
      <trkpt lat="43.73168" lon="5.96362">
        <ele>359.7</ele>
        <time>2023-06-11T10:32:13Z</time>
      </trkpt>
      <trkpt lat="43.73168" lon="5.96362">
        <ele>359.6</ele>
        <time>2023-06-11T10:32:14Z</time>
      </trkpt>
      <trkpt lat="43.73168" lon="5.96362">
        <ele>359.6</ele>
        <time>2023-06-11T10:32:15Z</time>
      </trkpt>
      <trkpt lat="43.73168" lon="5.96362">
        <ele>359.6</ele>
        <time>2023-06-11T10:32:16Z</time>
      </trkpt>
      <trkpt lat="43.73168" lon="5.96362">
        <ele>359.6</ele>
        <time>2023-06-11T10:32:17Z</time>
      </trkpt>
      <trkpt lat="43.73168" lon="5.96362">
        <ele>359.6</ele>
        <time>2023-06-11T10:32:18Z</time>
      </trkpt>
      <trkpt lat="43.73168" lon="5.96362">
        <ele>359.7</ele>
        <time>2023-06-11T10:32:19Z</time>
      </trkpt>
      <trkpt lat="43.73168" lon="5.96362">
        <ele>359.7</ele>
        <time>2023-06-11T10:32:20Z</time>
      </trkpt>
      <trkpt lat="43.73168" lon="5.96362">
        <ele>359.6</ele>
        <time>2023-06-11T10:32:21Z</time>
      </trkpt>
      <trkpt lat="43.73168" lon="5.96362">
        <ele>359.5</ele>
        <time>2023-06-11T10:32:22Z</time>
      </trkpt>
      <trkpt lat="43.73168" lon="5.96362">
        <ele>359.5</ele>
        <time>2023-06-11T10:32:23Z</time>
      </trkpt>
      <trkpt lat="43.73168" lon="5.96362">
        <ele>359.4</ele>
        <time>2023-06-11T10:32:24Z</time>
      </trkpt>
      <trkpt lat="43.73168" lon="5.96362">
        <ele>359.4</ele>
        <time>2023-06-11T10:32:25Z</time>
      </trkpt>
      <trkpt lat="43.73168" lon="5.96362">
        <ele>359.4</ele>
        <time>2023-06-11T10:32:26Z</time>
      </trkpt>
      <trkpt lat="43.73168" lon="5.96363">
        <ele>359.5</ele>
        <time>2023-06-11T10:32:27Z</time>
      </trkpt>
      <trkpt lat="43.73168" lon="5.96363">
        <ele>359.5</ele>
        <time>2023-06-11T10:32:28Z</time>
      </trkpt>
      <trkpt lat="43.73168" lon="5.96363">
        <ele>359.5</ele>
        <time>2023-06-11T10:32:29Z</time>
      </trkpt>
      <trkpt lat="43.73168" lon="5.96363">
        <ele>359.5</ele>
        <time>2023-06-11T10:32:30Z</time>
      </trkpt>
      <trkpt lat="43.73168" lon="5.96363">
        <ele>359.5</ele>
        <time>2023-06-11T10:32:31Z</time>
      </trkpt>
      <trkpt lat="43.73168" lon="5.96363">
        <ele>359.5</ele>
        <time>2023-06-11T10:32:32Z</time>
      </trkpt>
      <trkpt lat="43.73168" lon="5.96363">
        <ele>359.5</ele>
        <time>2023-06-11T10:32:33Z</time>
      </trkpt>
      <trkpt lat="43.73168" lon="5.96363">
        <ele>359.5</ele>
        <time>2023-06-11T10:32:34Z</time>
      </trkpt>
      <trkpt lat="43.73168" lon="5.96363">
        <ele>359.5</ele>
        <time>2023-06-11T10:32:35Z</time>
      </trkpt>
      <trkpt lat="43.73168" lon="5.96363">
        <ele>359.5</ele>
        <time>2023-06-11T10:32:36Z</time>
      </trkpt>
      <trkpt lat="43.73168" lon="5.96363">
        <ele>359.5</ele>
        <time>2023-06-11T10:32:37Z</time>
      </trkpt>
      <trkpt lat="43.73168" lon="5.96363">
        <ele>359.6</ele>
        <time>2023-06-11T10:32:38Z</time>
      </trkpt>
      <trkpt lat="43.73168" lon="5.96363">
        <ele>359.5</ele>
        <time>2023-06-11T10:32:39Z</time>
      </trkpt>
      <trkpt lat="43.73168" lon="5.96363">
        <ele>359.5</ele>
        <time>2023-06-11T10:32:40Z</time>
      </trkpt>
      <trkpt lat="43.73168" lon="5.96363">
        <ele>359.5</ele>
        <time>2023-06-11T10:32:41Z</time>
      </trkpt>
      <trkpt lat="43.73168" lon="5.96363">
        <ele>359.5</ele>
        <time>2023-06-11T10:32:42Z</time>
      </trkpt>
      <trkpt lat="43.73168" lon="5.96363">
        <ele>359.5</ele>
        <time>2023-06-11T10:32:43Z</time>
      </trkpt>
      <trkpt lat="43.73168" lon="5.96362">
        <ele>359.5</ele>
        <time>2023-06-11T10:32:44Z</time>
      </trkpt>
      <trkpt lat="43.73168" lon="5.96363">
        <ele>359.6</ele>
        <time>2023-06-11T10:32:45Z</time>
      </trkpt>
      <trkpt lat="43.73169" lon="5.96363">
        <ele>359.6</ele>
        <time>2023-06-11T10:32:46Z</time>
      </trkpt>
      <trkpt lat="43.73169" lon="5.96363">
        <ele>359.6</ele>
        <time>2023-06-11T10:32:47Z</time>
      </trkpt>
      <trkpt lat="43.73169" lon="5.96363">
        <ele>359.6</ele>
        <time>2023-06-11T10:32:48Z</time>
      </trkpt>
      <trkpt lat="43.73169" lon="5.96363">
        <ele>359.7</ele>
        <time>2023-06-11T10:32:49Z</time>
      </trkpt>
      <trkpt lat="43.73169" lon="5.96363">
        <ele>359.8</ele>
        <time>2023-06-11T10:32:50Z</time>
      </trkpt>
      <trkpt lat="43.73169" lon="5.96363">
        <ele>359.8</ele>
        <time>2023-06-11T10:32:51Z</time>
      </trkpt>
      <trkpt lat="43.73169" lon="5.96363">
        <ele>359.9</ele>
        <time>2023-06-11T10:32:52Z</time>
      </trkpt>
      <trkpt lat="43.73169" lon="5.96363">
        <ele>359.9</ele>
        <time>2023-06-11T10:32:53Z</time>
      </trkpt>
      <trkpt lat="43.73169" lon="5.96363">
        <ele>359.9</ele>
        <time>2023-06-11T10:32:54Z</time>
      </trkpt>
      <trkpt lat="43.73169" lon="5.96363">
        <ele>359.9</ele>
        <time>2023-06-11T10:32:55Z</time>
      </trkpt>
      <trkpt lat="43.73169" lon="5.96363">
        <ele>359.9</ele>
        <time>2023-06-11T10:32:56Z</time>
      </trkpt>
      <trkpt lat="43.73169" lon="5.96363">
        <ele>359.9</ele>
        <time>2023-06-11T10:32:57Z</time>
      </trkpt>
      <trkpt lat="43.73169" lon="5.96362">
        <ele>359.9</ele>
        <time>2023-06-11T10:32:58Z</time>
      </trkpt>
      <trkpt lat="43.73169" lon="5.96362">
        <ele>359.9</ele>
        <time>2023-06-11T10:32:59Z</time>
      </trkpt>
      <trkpt lat="43.73169" lon="5.96362">
        <ele>360</ele>
        <time>2023-06-11T10:33:00Z</time>
      </trkpt>
      <trkpt lat="43.73169" lon="5.96362">
        <ele>360</ele>
        <time>2023-06-11T10:33:01Z</time>
      </trkpt>
      <trkpt lat="43.73169" lon="5.96362">
        <ele>359.9</ele>
        <time>2023-06-11T10:33:02Z</time>
      </trkpt>
      <trkpt lat="43.73169" lon="5.96362">
        <ele>360</ele>
        <time>2023-06-11T10:33:03Z</time>
      </trkpt>
      <trkpt lat="43.73169" lon="5.96362">
        <ele>360.1</ele>
        <time>2023-06-11T10:33:04Z</time>
      </trkpt>
      <trkpt lat="43.73169" lon="5.96362">
        <ele>360.2</ele>
        <time>2023-06-11T10:33:05Z</time>
      </trkpt>
      <trkpt lat="43.73169" lon="5.96362">
        <ele>360</ele>
        <time>2023-06-11T10:33:06Z</time>
      </trkpt>
      <trkpt lat="43.73169" lon="5.96362">
        <ele>360</ele>
        <time>2023-06-11T10:33:07Z</time>
      </trkpt>
      <trkpt lat="43.73169" lon="5.96362">
        <ele>360</ele>
        <time>2023-06-11T10:33:08Z</time>
      </trkpt>
      <trkpt lat="43.73169" lon="5.96362">
        <ele>360</ele>
        <time>2023-06-11T10:33:09Z</time>
      </trkpt>
      <trkpt lat="43.73169" lon="5.96362">
        <ele>360</ele>
        <time>2023-06-11T10:33:10Z</time>
      </trkpt>
      <trkpt lat="43.73169" lon="5.96362">
        <ele>360</ele>
        <time>2023-06-11T10:33:11Z</time>
      </trkpt>
      <trkpt lat="43.73169" lon="5.96362">
        <ele>360</ele>
        <time>2023-06-11T10:33:12Z</time>
      </trkpt>
      <trkpt lat="43.73169" lon="5.96362">
        <ele>360.1</ele>
        <time>2023-06-11T10:33:13Z</time>
      </trkpt>
      <trkpt lat="43.73169" lon="5.96362">
        <ele>360.1</ele>
        <time>2023-06-11T10:33:14Z</time>
      </trkpt>
      <trkpt lat="43.73169" lon="5.96362">
        <ele>360.1</ele>
        <time>2023-06-11T10:33:15Z</time>
      </trkpt>
      <trkpt lat="43.73169" lon="5.96362">
        <ele>360.1</ele>
        <time>2023-06-11T10:33:16Z</time>
      </trkpt>
      <trkpt lat="43.73169" lon="5.96362">
        <ele>360.1</ele>
        <time>2023-06-11T10:33:17Z</time>
      </trkpt>
      <trkpt lat="43.73169" lon="5.96362">
        <ele>360</ele>
        <time>2023-06-11T10:33:18Z</time>
      </trkpt>
      <trkpt lat="43.73169" lon="5.96362">
        <ele>360</ele>
        <time>2023-06-11T10:33:19Z</time>
      </trkpt>
      <trkpt lat="43.73169" lon="5.96362">
        <ele>360</ele>
        <time>2023-06-11T10:33:20Z</time>
      </trkpt>
      <trkpt lat="43.73169" lon="5.96362">
        <ele>360</ele>
        <time>2023-06-11T10:33:21Z</time>
      </trkpt>
      <trkpt lat="43.73168" lon="5.96362">
        <ele>359.9</ele>
        <time>2023-06-11T10:33:22Z</time>
      </trkpt>
      <trkpt lat="43.73168" lon="5.96362">
        <ele>359.9</ele>
        <time>2023-06-11T10:33:23Z</time>
      </trkpt>
      <trkpt lat="43.73168" lon="5.96362">
        <ele>359.9</ele>
        <time>2023-06-11T10:33:24Z</time>
      </trkpt>
      <trkpt lat="43.73168" lon="5.96362">
        <ele>359.9</ele>
        <time>2023-06-11T10:33:25Z</time>
      </trkpt>
      <trkpt lat="43.73168" lon="5.96362">
        <ele>359.9</ele>
        <time>2023-06-11T10:33:26Z</time>
      </trkpt>
      <trkpt lat="43.73168" lon="5.96362">
        <ele>359.8</ele>
        <time>2023-06-11T10:33:27Z</time>
      </trkpt>
      <trkpt lat="43.73168" lon="5.96362">
        <ele>359.8</ele>
        <time>2023-06-11T10:33:28Z</time>
      </trkpt>
      <trkpt lat="43.73168" lon="5.96362">
        <ele>359.8</ele>
        <time>2023-06-11T10:33:29Z</time>
      </trkpt>
      <trkpt lat="43.73168" lon="5.96362">
        <ele>359.8</ele>
        <time>2023-06-11T10:33:30Z</time>
      </trkpt>
      <trkpt lat="43.73168" lon="5.96362">
        <ele>359.8</ele>
        <time>2023-06-11T10:33:31Z</time>
      </trkpt>
      <trkpt lat="43.73168" lon="5.96362">
        <ele>359.8</ele>
        <time>2023-06-11T10:33:32Z</time>
      </trkpt>
      <trkpt lat="43.73168" lon="5.96362">
        <ele>359.8</ele>
        <time>2023-06-11T10:33:33Z</time>
      </trkpt>
      <trkpt lat="43.73168" lon="5.96362">
        <ele>359.7</ele>
        <time>2023-06-11T10:33:34Z</time>
      </trkpt>
      <trkpt lat="43.73168" lon="5.96363">
        <ele>359.7</ele>
        <time>2023-06-11T10:33:35Z</time>
      </trkpt>
      <trkpt lat="43.73168" lon="5.96363">
        <ele>359.7</ele>
        <time>2023-06-11T10:33:36Z</time>
      </trkpt>
      <trkpt lat="43.73169" lon="5.96363">
        <ele>359.7</ele>
        <time>2023-06-11T10:33:37Z</time>
      </trkpt>
      <trkpt lat="43.73169" lon="5.96363">
        <ele>359.7</ele>
        <time>2023-06-11T10:33:38Z</time>
      </trkpt>
      <trkpt lat="43.73169" lon="5.96363">
        <ele>359.7</ele>
        <time>2023-06-11T10:33:39Z</time>
      </trkpt>
      <trkpt lat="43.73169" lon="5.96363">
        <ele>359.6</ele>
        <time>2023-06-11T10:33:40Z</time>
      </trkpt>
      <trkpt lat="43.73169" lon="5.96363">
        <ele>359.6</ele>
        <time>2023-06-11T10:33:41Z</time>
      </trkpt>
      <trkpt lat="43.73169" lon="5.96363">
        <ele>359.6</ele>
        <time>2023-06-11T10:33:42Z</time>
      </trkpt>
      <trkpt lat="43.73169" lon="5.96363">
        <ele>359.6</ele>
        <time>2023-06-11T10:33:43Z</time>
      </trkpt>
      <trkpt lat="43.73168" lon="5.96363">
        <ele>359.5</ele>
        <time>2023-06-11T10:33:44Z</time>
      </trkpt>
      <trkpt lat="43.73168" lon="5.96363">
        <ele>359.6</ele>
        <time>2023-06-11T10:33:45Z</time>
      </trkpt>
      <trkpt lat="43.73168" lon="5.96363">
        <ele>359.6</ele>
        <time>2023-06-11T10:33:46Z</time>
      </trkpt>
      <trkpt lat="43.73168" lon="5.96363">
        <ele>359.6</ele>
        <time>2023-06-11T10:33:47Z</time>
      </trkpt>
      <trkpt lat="43.73168" lon="5.96363">
        <ele>359.7</ele>
        <time>2023-06-11T10:33:48Z</time>
      </trkpt>
      <trkpt lat="43.73168" lon="5.96362">
        <ele>359.7</ele>
        <time>2023-06-11T10:33:49Z</time>
      </trkpt>
      <trkpt lat="43.73168" lon="5.96362">
        <ele>359.7</ele>
        <time>2023-06-11T10:33:50Z</time>
      </trkpt>
      <trkpt lat="43.73168" lon="5.96362">
        <ele>359.7</ele>
        <time>2023-06-11T10:33:51Z</time>
      </trkpt>
      <trkpt lat="43.73168" lon="5.96362">
        <ele>359.7</ele>
        <time>2023-06-11T10:33:52Z</time>
      </trkpt>
      <trkpt lat="43.73168" lon="5.96362">
        <ele>359.7</ele>
        <time>2023-06-11T10:33:53Z</time>
      </trkpt>
      <trkpt lat="43.73168" lon="5.96362">
        <ele>359.8</ele>
        <time>2023-06-11T10:33:54Z</time>
      </trkpt>
      <trkpt lat="43.73168" lon="5.96362">
        <ele>359.8</ele>
        <time>2023-06-11T10:33:55Z</time>
      </trkpt>
      <trkpt lat="43.73168" lon="5.96362">
        <ele>359.8</ele>
        <time>2023-06-11T10:33:56Z</time>
      </trkpt>
      <trkpt lat="43.73168" lon="5.96362">
        <ele>359.7</ele>
        <time>2023-06-11T10:33:57Z</time>
      </trkpt>
      <trkpt lat="43.73168" lon="5.96362">
        <ele>359.7</ele>
        <time>2023-06-11T10:33:58Z</time>
      </trkpt>
      <trkpt lat="43.73168" lon="5.96362">
        <ele>359.7</ele>
        <time>2023-06-11T10:33:59Z</time>
      </trkpt>
      <trkpt lat="43.73168" lon="5.96362">
        <ele>359.7</ele>
        <time>2023-06-11T10:34:00Z</time>
      </trkpt>
      <trkpt lat="43.73168" lon="5.96362">
        <ele>359.7</ele>
        <time>2023-06-11T10:34:01Z</time>
      </trkpt>
      <trkpt lat="43.73168" lon="5.96362">
        <ele>359.7</ele>
        <time>2023-06-11T10:34:02Z</time>
      </trkpt>
      <trkpt lat="43.73168" lon="5.96362">
        <ele>359.7</ele>
        <time>2023-06-11T10:34:03Z</time>
      </trkpt>
      <trkpt lat="43.73168" lon="5.96362">
        <ele>359.7</ele>
        <time>2023-06-11T10:34:04Z</time>
      </trkpt>
      <trkpt lat="43.73168" lon="5.96362">
        <ele>359.6</ele>
        <time>2023-06-11T10:34:05Z</time>
      </trkpt>
      <trkpt lat="43.73168" lon="5.96362">
        <ele>359.6</ele>
        <time>2023-06-11T10:34:06Z</time>
      </trkpt>
      <trkpt lat="43.73168" lon="5.96361">
        <ele>359.6</ele>
        <time>2023-06-11T10:34:07Z</time>
      </trkpt>
      <trkpt lat="43.73168" lon="5.96361">
        <ele>359.6</ele>
        <time>2023-06-11T10:34:08Z</time>
      </trkpt>
      <trkpt lat="43.73168" lon="5.96361">
        <ele>359.5</ele>
        <time>2023-06-11T10:34:09Z</time>
      </trkpt>
      <trkpt lat="43.73169" lon="5.96361">
        <ele>359.5</ele>
        <time>2023-06-11T10:34:10Z</time>
      </trkpt>
      <trkpt lat="43.73168" lon="5.96361">
        <ele>359.5</ele>
        <time>2023-06-11T10:34:11Z</time>
      </trkpt>
      <trkpt lat="43.73169" lon="5.96361">
        <ele>359.5</ele>
        <time>2023-06-11T10:34:12Z</time>
      </trkpt>
      <trkpt lat="43.73169" lon="5.96361">
        <ele>359.5</ele>
        <time>2023-06-11T10:34:13Z</time>
      </trkpt>
      <trkpt lat="43.73169" lon="5.96361">
        <ele>359.5</ele>
        <time>2023-06-11T10:34:14Z</time>
      </trkpt>
      <trkpt lat="43.73168" lon="5.96361">
        <ele>359.5</ele>
        <time>2023-06-11T10:34:15Z</time>
      </trkpt>
      <trkpt lat="43.73168" lon="5.96361">
        <ele>359.6</ele>
        <time>2023-06-11T10:34:16Z</time>
      </trkpt>
      <trkpt lat="43.73168" lon="5.96361">
        <ele>359.6</ele>
        <time>2023-06-11T10:34:17Z</time>
      </trkpt>
      <trkpt lat="43.73168" lon="5.96361">
        <ele>359.7</ele>
        <time>2023-06-11T10:34:18Z</time>
      </trkpt>
      <trkpt lat="43.73168" lon="5.96361">
        <ele>359.6</ele>
        <time>2023-06-11T10:34:19Z</time>
      </trkpt>
      <trkpt lat="43.73168" lon="5.96361">
        <ele>359.6</ele>
        <time>2023-06-11T10:34:20Z</time>
      </trkpt>
      <trkpt lat="43.73168" lon="5.9636">
        <ele>359.6</ele>
        <time>2023-06-11T10:34:21Z</time>
      </trkpt>
      <trkpt lat="43.73168" lon="5.96361">
        <ele>359.7</ele>
        <time>2023-06-11T10:34:22Z</time>
      </trkpt>
      <trkpt lat="43.73168" lon="5.96361">
        <ele>359.8</ele>
        <time>2023-06-11T10:34:23Z</time>
      </trkpt>
      <trkpt lat="43.73168" lon="5.96361">
        <ele>359.9</ele>
        <time>2023-06-11T10:34:24Z</time>
      </trkpt>
      <trkpt lat="43.73168" lon="5.96361">
        <ele>359.9</ele>
        <time>2023-06-11T10:34:25Z</time>
      </trkpt>
      <trkpt lat="43.73168" lon="5.96361">
        <ele>359.9</ele>
        <time>2023-06-11T10:34:26Z</time>
      </trkpt>
      <trkpt lat="43.73168" lon="5.96361">
        <ele>359.8</ele>
        <time>2023-06-11T10:34:27Z</time>
      </trkpt>
      <trkpt lat="43.73168" lon="5.96361">
        <ele>359.8</ele>
        <time>2023-06-11T10:34:28Z</time>
      </trkpt>
      <trkpt lat="43.73168" lon="5.96361">
        <ele>359.9</ele>
        <time>2023-06-11T10:34:29Z</time>
      </trkpt>
      <trkpt lat="43.73168" lon="5.96361">
        <ele>359.9</ele>
        <time>2023-06-11T10:34:30Z</time>
      </trkpt>
      <trkpt lat="43.73168" lon="5.96361">
        <ele>359.8</ele>
        <time>2023-06-11T10:34:31Z</time>
      </trkpt>
      <trkpt lat="43.73168" lon="5.96361">
        <ele>359.8</ele>
        <time>2023-06-11T10:34:32Z</time>
      </trkpt>
      <trkpt lat="43.73168" lon="5.96361">
        <ele>359.7</ele>
        <time>2023-06-11T10:34:33Z</time>
      </trkpt>
      <trkpt lat="43.73168" lon="5.96361">
        <ele>359.7</ele>
        <time>2023-06-11T10:34:34Z</time>
      </trkpt>
      <trkpt lat="43.73168" lon="5.96361">
        <ele>359.8</ele>
        <time>2023-06-11T10:34:35Z</time>
      </trkpt>
      <trkpt lat="43.73168" lon="5.96361">
        <ele>359.8</ele>
        <time>2023-06-11T10:34:36Z</time>
      </trkpt>
      <trkpt lat="43.73168" lon="5.96361">
        <ele>359.8</ele>
        <time>2023-06-11T10:34:37Z</time>
      </trkpt>
      <trkpt lat="43.73168" lon="5.96361">
        <ele>359.8</ele>
        <time>2023-06-11T10:34:38Z</time>
      </trkpt>
      <trkpt lat="43.73168" lon="5.96361">
        <ele>359.7</ele>
        <time>2023-06-11T10:34:39Z</time>
      </trkpt>
      <trkpt lat="43.73168" lon="5.96361">
        <ele>359.8</ele>
        <time>2023-06-11T10:34:40Z</time>
      </trkpt>
      <trkpt lat="43.73168" lon="5.96361">
        <ele>359.8</ele>
        <time>2023-06-11T10:34:41Z</time>
      </trkpt>
      <trkpt lat="43.73168" lon="5.96361">
        <ele>359.8</ele>
        <time>2023-06-11T10:34:42Z</time>
      </trkpt>
      <trkpt lat="43.73168" lon="5.96361">
        <ele>359.8</ele>
        <time>2023-06-11T10:34:43Z</time>
      </trkpt>
      <trkpt lat="43.73168" lon="5.96361">
        <ele>359.9</ele>
        <time>2023-06-11T10:34:44Z</time>
      </trkpt>
      <trkpt lat="43.73168" lon="5.96361">
        <ele>360</ele>
        <time>2023-06-11T10:34:45Z</time>
      </trkpt>
      <trkpt lat="43.73168" lon="5.96361">
        <ele>360</ele>
        <time>2023-06-11T10:34:46Z</time>
      </trkpt>
      <trkpt lat="43.73168" lon="5.96361">
        <ele>360</ele>
        <time>2023-06-11T10:34:47Z</time>
      </trkpt>
      <trkpt lat="43.73168" lon="5.96361">
        <ele>360.1</ele>
        <time>2023-06-11T10:34:48Z</time>
      </trkpt>
      <trkpt lat="43.73168" lon="5.96361">
        <ele>360</ele>
        <time>2023-06-11T10:34:49Z</time>
      </trkpt>
      <trkpt lat="43.73168" lon="5.96361">
        <ele>360</ele>
        <time>2023-06-11T10:34:50Z</time>
      </trkpt>
      <trkpt lat="43.73168" lon="5.96361">
        <ele>359.9</ele>
        <time>2023-06-11T10:34:51Z</time>
      </trkpt>
      <trkpt lat="43.73168" lon="5.96361">
        <ele>360</ele>
        <time>2023-06-11T10:34:52Z</time>
      </trkpt>
      <trkpt lat="43.73168" lon="5.96361">
        <ele>360</ele>
        <time>2023-06-11T10:34:53Z</time>
      </trkpt>
      <trkpt lat="43.73168" lon="5.96361">
        <ele>360</ele>
        <time>2023-06-11T10:34:54Z</time>
      </trkpt>
      <trkpt lat="43.73168" lon="5.96361">
        <ele>360</ele>
        <time>2023-06-11T10:34:55Z</time>
      </trkpt>
      <trkpt lat="43.73168" lon="5.96361">
        <ele>360</ele>
        <time>2023-06-11T10:34:56Z</time>
      </trkpt>
      <trkpt lat="43.73168" lon="5.96362">
        <ele>360</ele>
        <time>2023-06-11T10:34:57Z</time>
      </trkpt>
      <trkpt lat="43.73168" lon="5.96361">
        <ele>360.1</ele>
        <time>2023-06-11T10:34:58Z</time>
      </trkpt>
      <trkpt lat="43.73168" lon="5.96361">
        <ele>360.1</ele>
        <time>2023-06-11T10:34:59Z</time>
      </trkpt>
      <trkpt lat="43.73168" lon="5.96361">
        <ele>360.2</ele>
        <time>2023-06-11T10:35:00Z</time>
      </trkpt>
      <trkpt lat="43.73168" lon="5.96361">
        <ele>360.2</ele>
        <time>2023-06-11T10:35:01Z</time>
      </trkpt>
      <trkpt lat="43.73168" lon="5.96361">
        <ele>360.2</ele>
        <time>2023-06-11T10:35:02Z</time>
      </trkpt>
      <trkpt lat="43.73168" lon="5.96361">
        <ele>360.2</ele>
        <time>2023-06-11T10:35:03Z</time>
      </trkpt>
      <trkpt lat="43.73168" lon="5.96361">
        <ele>360.1</ele>
        <time>2023-06-11T10:35:04Z</time>
      </trkpt>
      <trkpt lat="43.73168" lon="5.96361">
        <ele>360</ele>
        <time>2023-06-11T10:35:05Z</time>
      </trkpt>
      <trkpt lat="43.73168" lon="5.96361">
        <ele>360</ele>
        <time>2023-06-11T10:35:06Z</time>
      </trkpt>
      <trkpt lat="43.73168" lon="5.96361">
        <ele>360</ele>
        <time>2023-06-11T10:35:07Z</time>
      </trkpt>
      <trkpt lat="43.73169" lon="5.96361">
        <ele>360</ele>
        <time>2023-06-11T10:35:08Z</time>
      </trkpt>
      <trkpt lat="43.73168" lon="5.96361">
        <ele>360</ele>
        <time>2023-06-11T10:35:09Z</time>
      </trkpt>
      <trkpt lat="43.73168" lon="5.96361">
        <ele>359.9</ele>
        <time>2023-06-11T10:35:10Z</time>
      </trkpt>
      <trkpt lat="43.73168" lon="5.96362">
        <ele>359.9</ele>
        <time>2023-06-11T10:35:11Z</time>
      </trkpt>
      <trkpt lat="43.73169" lon="5.96362">
        <ele>359.9</ele>
        <time>2023-06-11T10:35:12Z</time>
      </trkpt>
      <trkpt lat="43.73169" lon="5.96362">
        <ele>359.9</ele>
        <time>2023-06-11T10:35:13Z</time>
      </trkpt>
      <trkpt lat="43.73169" lon="5.96362">
        <ele>359.9</ele>
        <time>2023-06-11T10:35:14Z</time>
      </trkpt>
      <trkpt lat="43.73169" lon="5.96362">
        <ele>359.9</ele>
        <time>2023-06-11T10:35:15Z</time>
      </trkpt>
      <trkpt lat="43.73169" lon="5.96362">
        <ele>359.9</ele>
        <time>2023-06-11T10:35:16Z</time>
      </trkpt>
      <trkpt lat="43.73169" lon="5.96362">
        <ele>359.9</ele>
        <time>2023-06-11T10:35:17Z</time>
      </trkpt>
      <trkpt lat="43.73169" lon="5.96363">
        <ele>359.8</ele>
        <time>2023-06-11T10:35:18Z</time>
      </trkpt>
      <trkpt lat="43.73169" lon="5.96363">
        <ele>359.9</ele>
        <time>2023-06-11T10:35:19Z</time>
      </trkpt>
      <trkpt lat="43.73169" lon="5.96363">
        <ele>359.9</ele>
        <time>2023-06-11T10:35:20Z</time>
      </trkpt>
      <trkpt lat="43.73169" lon="5.96363">
        <ele>359.8</ele>
        <time>2023-06-11T10:35:21Z</time>
      </trkpt>
      <trkpt lat="43.73169" lon="5.96363">
        <ele>359.8</ele>
        <time>2023-06-11T10:35:22Z</time>
      </trkpt>
      <trkpt lat="43.73169" lon="5.96363">
        <ele>359.8</ele>
        <time>2023-06-11T10:35:23Z</time>
      </trkpt>
      <trkpt lat="43.73169" lon="5.96363">
        <ele>359.7</ele>
        <time>2023-06-11T10:35:24Z</time>
      </trkpt>
      <trkpt lat="43.73169" lon="5.96363">
        <ele>359.7</ele>
        <time>2023-06-11T10:35:25Z</time>
      </trkpt>
      <trkpt lat="43.73169" lon="5.96363">
        <ele>359.7</ele>
        <time>2023-06-11T10:35:26Z</time>
      </trkpt>
      <trkpt lat="43.73169" lon="5.96364">
        <ele>359.7</ele>
        <time>2023-06-11T10:35:27Z</time>
      </trkpt>
      <trkpt lat="43.73169" lon="5.96364">
        <ele>359.8</ele>
        <time>2023-06-11T10:35:28Z</time>
      </trkpt>
      <trkpt lat="43.73169" lon="5.96364">
        <ele>359.7</ele>
        <time>2023-06-11T10:35:29Z</time>
      </trkpt>
      <trkpt lat="43.73169" lon="5.96364">
        <ele>359.7</ele>
        <time>2023-06-11T10:35:30Z</time>
      </trkpt>
      <trkpt lat="43.73169" lon="5.96364">
        <ele>359.7</ele>
        <time>2023-06-11T10:35:31Z</time>
      </trkpt>
      <trkpt lat="43.73169" lon="5.96364">
        <ele>359.7</ele>
        <time>2023-06-11T10:35:32Z</time>
      </trkpt>
      <trkpt lat="43.73169" lon="5.96364">
        <ele>359.7</ele>
        <time>2023-06-11T10:35:33Z</time>
      </trkpt>
      <trkpt lat="43.73169" lon="5.96364">
        <ele>359.6</ele>
        <time>2023-06-11T10:35:34Z</time>
      </trkpt>
      <trkpt lat="43.73169" lon="5.96364">
        <ele>359.6</ele>
        <time>2023-06-11T10:35:35Z</time>
      </trkpt>
      <trkpt lat="43.73169" lon="5.96364">
        <ele>359.7</ele>
        <time>2023-06-11T10:35:36Z</time>
      </trkpt>
      <trkpt lat="43.73169" lon="5.96364">
        <ele>359.7</ele>
        <time>2023-06-11T10:35:37Z</time>
      </trkpt>
      <trkpt lat="43.73169" lon="5.96364">
        <ele>359.8</ele>
        <time>2023-06-11T10:35:38Z</time>
      </trkpt>
      <trkpt lat="43.73169" lon="5.96364">
        <ele>359.7</ele>
        <time>2023-06-11T10:35:39Z</time>
      </trkpt>
      <trkpt lat="43.73169" lon="5.96364">
        <ele>359.8</ele>
        <time>2023-06-11T10:35:40Z</time>
      </trkpt>
      <trkpt lat="43.73169" lon="5.96364">
        <ele>359.8</ele>
        <time>2023-06-11T10:35:41Z</time>
      </trkpt>
      <trkpt lat="43.73169" lon="5.96364">
        <ele>359.8</ele>
        <time>2023-06-11T10:35:42Z</time>
      </trkpt>
      <trkpt lat="43.73169" lon="5.96364">
        <ele>359.8</ele>
        <time>2023-06-11T10:35:43Z</time>
      </trkpt>
      <trkpt lat="43.73168" lon="5.96364">
        <ele>359.8</ele>
        <time>2023-06-11T10:35:44Z</time>
      </trkpt>
      <trkpt lat="43.73168" lon="5.96364">
        <ele>359.7</ele>
        <time>2023-06-11T10:35:45Z</time>
      </trkpt>
      <trkpt lat="43.73168" lon="5.96364">
        <ele>359.8</ele>
        <time>2023-06-11T10:35:46Z</time>
      </trkpt>
      <trkpt lat="43.73168" lon="5.96364">
        <ele>359.8</ele>
        <time>2023-06-11T10:35:47Z</time>
      </trkpt>
      <trkpt lat="43.73168" lon="5.96364">
        <ele>359.9</ele>
        <time>2023-06-11T10:35:48Z</time>
      </trkpt>
      <trkpt lat="43.73168" lon="5.96364">
        <ele>359.8</ele>
        <time>2023-06-11T10:35:49Z</time>
      </trkpt>
      <trkpt lat="43.73168" lon="5.96364">
        <ele>359.7</ele>
        <time>2023-06-11T10:35:50Z</time>
      </trkpt>
      <trkpt lat="43.73168" lon="5.96364">
        <ele>359.7</ele>
        <time>2023-06-11T10:35:51Z</time>
      </trkpt>
      <trkpt lat="43.73168" lon="5.96364">
        <ele>359.7</ele>
        <time>2023-06-11T10:35:52Z</time>
      </trkpt>
      <trkpt lat="43.73168" lon="5.96364">
        <ele>359.6</ele>
        <time>2023-06-11T10:35:53Z</time>
      </trkpt>
      <trkpt lat="43.73168" lon="5.96364">
        <ele>359.6</ele>
        <time>2023-06-11T10:35:54Z</time>
      </trkpt>
      <trkpt lat="43.73168" lon="5.96364">
        <ele>359.5</ele>
        <time>2023-06-11T10:35:55Z</time>
      </trkpt>
      <trkpt lat="43.73168" lon="5.96364">
        <ele>359.6</ele>
        <time>2023-06-11T10:35:56Z</time>
      </trkpt>
      <trkpt lat="43.73168" lon="5.96364">
        <ele>359.6</ele>
        <time>2023-06-11T10:35:57Z</time>
      </trkpt>
      <trkpt lat="43.73168" lon="5.96364">
        <ele>359.5</ele>
        <time>2023-06-11T10:35:58Z</time>
      </trkpt>
      <trkpt lat="43.73168" lon="5.96364">
        <ele>359.5</ele>
        <time>2023-06-11T10:35:59Z</time>
      </trkpt>
      <trkpt lat="43.73168" lon="5.96364">
        <ele>359.5</ele>
        <time>2023-06-11T10:36:00Z</time>
      </trkpt>
      <trkpt lat="43.73169" lon="5.96364">
        <ele>359.5</ele>
        <time>2023-06-11T10:36:01Z</time>
      </trkpt>
      <trkpt lat="43.73169" lon="5.96364">
        <ele>359.5</ele>
        <time>2023-06-11T10:36:02Z</time>
      </trkpt>
      <trkpt lat="43.73169" lon="5.96364">
        <ele>359.5</ele>
        <time>2023-06-11T10:36:03Z</time>
      </trkpt>
      <trkpt lat="43.73169" lon="5.96364">
        <ele>359.5</ele>
        <time>2023-06-11T10:36:04Z</time>
      </trkpt>
      <trkpt lat="43.73169" lon="5.96364">
        <ele>359.5</ele>
        <time>2023-06-11T10:36:05Z</time>
      </trkpt>
      <trkpt lat="43.73168" lon="5.96364">
        <ele>359.5</ele>
        <time>2023-06-11T10:36:06Z</time>
      </trkpt>
      <trkpt lat="43.73168" lon="5.96364">
        <ele>359.6</ele>
        <time>2023-06-11T10:36:07Z</time>
      </trkpt>
      <trkpt lat="43.73168" lon="5.96364">
        <ele>359.6</ele>
        <time>2023-06-11T10:36:08Z</time>
      </trkpt>
      <trkpt lat="43.73168" lon="5.96364">
        <ele>359.6</ele>
        <time>2023-06-11T10:36:09Z</time>
      </trkpt>
      <trkpt lat="43.73168" lon="5.96364">
        <ele>359.5</ele>
        <time>2023-06-11T10:36:10Z</time>
      </trkpt>
      <trkpt lat="43.73168" lon="5.96364">
        <ele>359.5</ele>
        <time>2023-06-11T10:36:11Z</time>
      </trkpt>
      <trkpt lat="43.73168" lon="5.96364">
        <ele>359.5</ele>
        <time>2023-06-11T10:36:12Z</time>
      </trkpt>
      <trkpt lat="43.73168" lon="5.96364">
        <ele>359.5</ele>
        <time>2023-06-11T10:36:13Z</time>
      </trkpt>
      <trkpt lat="43.73168" lon="5.96364">
        <ele>359.5</ele>
        <time>2023-06-11T10:36:14Z</time>
      </trkpt>
      <trkpt lat="43.73169" lon="5.96364">
        <ele>359.5</ele>
        <time>2023-06-11T10:36:15Z</time>
      </trkpt>
      <trkpt lat="43.73169" lon="5.96364">
        <ele>359.6</ele>
        <time>2023-06-11T10:36:16Z</time>
      </trkpt>
      <trkpt lat="43.73168" lon="5.96364">
        <ele>359.7</ele>
        <time>2023-06-11T10:36:17Z</time>
      </trkpt>
      <trkpt lat="43.73168" lon="5.96364">
        <ele>359.7</ele>
        <time>2023-06-11T10:36:18Z</time>
      </trkpt>
      <trkpt lat="43.73168" lon="5.96364">
        <ele>359.7</ele>
        <time>2023-06-11T10:36:19Z</time>
      </trkpt>
      <trkpt lat="43.73168" lon="5.96364">
        <ele>359.7</ele>
        <time>2023-06-11T10:36:20Z</time>
      </trkpt>
      <trkpt lat="43.73168" lon="5.96364">
        <ele>359.7</ele>
        <time>2023-06-11T10:36:21Z</time>
      </trkpt>
      <trkpt lat="43.73168" lon="5.96364">
        <ele>359.7</ele>
        <time>2023-06-11T10:36:22Z</time>
      </trkpt>
      <trkpt lat="43.73168" lon="5.96364">
        <ele>359.6</ele>
        <time>2023-06-11T10:36:23Z</time>
      </trkpt>
      <trkpt lat="43.73168" lon="5.96364">
        <ele>359.6</ele>
        <time>2023-06-11T10:36:24Z</time>
      </trkpt>
      <trkpt lat="43.73168" lon="5.96364">
        <ele>359.7</ele>
        <time>2023-06-11T10:36:25Z</time>
      </trkpt>
      <trkpt lat="43.73168" lon="5.96364">
        <ele>359.8</ele>
        <time>2023-06-11T10:36:26Z</time>
      </trkpt>
      <trkpt lat="43.73168" lon="5.96364">
        <ele>359.8</ele>
        <time>2023-06-11T10:36:27Z</time>
      </trkpt>
      <trkpt lat="43.73168" lon="5.96364">
        <ele>359.9</ele>
        <time>2023-06-11T10:36:28Z</time>
      </trkpt>
      <trkpt lat="43.73168" lon="5.96364">
        <ele>359.8</ele>
        <time>2023-06-11T10:36:29Z</time>
      </trkpt>
      <trkpt lat="43.73168" lon="5.96364">
        <ele>359.8</ele>
        <time>2023-06-11T10:36:30Z</time>
      </trkpt>
      <trkpt lat="43.73168" lon="5.96364">
        <ele>359.7</ele>
        <time>2023-06-11T10:36:31Z</time>
      </trkpt>
      <trkpt lat="43.73168" lon="5.96364">
        <ele>359.7</ele>
        <time>2023-06-11T10:36:32Z</time>
      </trkpt>
      <trkpt lat="43.73168" lon="5.96364">
        <ele>359.7</ele>
        <time>2023-06-11T10:36:33Z</time>
      </trkpt>
      <trkpt lat="43.73168" lon="5.96364">
        <ele>359.8</ele>
        <time>2023-06-11T10:36:34Z</time>
      </trkpt>
      <trkpt lat="43.73168" lon="5.96364">
        <ele>359.8</ele>
        <time>2023-06-11T10:36:35Z</time>
      </trkpt>
      <trkpt lat="43.73168" lon="5.96364">
        <ele>359.8</ele>
        <time>2023-06-11T10:36:36Z</time>
      </trkpt>
      <trkpt lat="43.73168" lon="5.96364">
        <ele>359.9</ele>
        <time>2023-06-11T10:36:37Z</time>
      </trkpt>
      <trkpt lat="43.73168" lon="5.96363">
        <ele>359.9</ele>
        <time>2023-06-11T10:36:38Z</time>
      </trkpt>
      <trkpt lat="43.73168" lon="5.96363">
        <ele>359.9</ele>
        <time>2023-06-11T10:36:39Z</time>
      </trkpt>
      <trkpt lat="43.73168" lon="5.96363">
        <ele>359.9</ele>
        <time>2023-06-11T10:36:40Z</time>
      </trkpt>
      <trkpt lat="43.73168" lon="5.96363">
        <ele>359.9</ele>
        <time>2023-06-11T10:36:41Z</time>
      </trkpt>
      <trkpt lat="43.73168" lon="5.96363">
        <ele>359.9</ele>
        <time>2023-06-11T10:36:42Z</time>
      </trkpt>
      <trkpt lat="43.73168" lon="5.96362">
        <ele>359.9</ele>
        <time>2023-06-11T10:36:43Z</time>
      </trkpt>
      <trkpt lat="43.73168" lon="5.96362">
        <ele>359.9</ele>
        <time>2023-06-11T10:36:44Z</time>
      </trkpt>
      <trkpt lat="43.73168" lon="5.96362">
        <ele>359.9</ele>
        <time>2023-06-11T10:36:45Z</time>
      </trkpt>
      <trkpt lat="43.73168" lon="5.96362">
        <ele>359.8</ele>
        <time>2023-06-11T10:36:46Z</time>
      </trkpt>
      <trkpt lat="43.73168" lon="5.96362">
        <ele>359.8</ele>
        <time>2023-06-11T10:36:47Z</time>
      </trkpt>
      <trkpt lat="43.73168" lon="5.96362">
        <ele>359.7</ele>
        <time>2023-06-11T10:36:48Z</time>
      </trkpt>
      <trkpt lat="43.73168" lon="5.96362">
        <ele>359.7</ele>
        <time>2023-06-11T10:36:49Z</time>
      </trkpt>
      <trkpt lat="43.73168" lon="5.96362">
        <ele>359.7</ele>
        <time>2023-06-11T10:36:50Z</time>
      </trkpt>
      <trkpt lat="43.73168" lon="5.96362">
        <ele>359.8</ele>
        <time>2023-06-11T10:36:51Z</time>
      </trkpt>
      <trkpt lat="43.73168" lon="5.96362">
        <ele>359.8</ele>
        <time>2023-06-11T10:36:52Z</time>
      </trkpt>
      <trkpt lat="43.73168" lon="5.96362">
        <ele>359.8</ele>
        <time>2023-06-11T10:36:53Z</time>
      </trkpt>
      <trkpt lat="43.73167" lon="5.96362">
        <ele>359.8</ele>
        <time>2023-06-11T10:36:54Z</time>
      </trkpt>
      <trkpt lat="43.73167" lon="5.96362">
        <ele>359.8</ele>
        <time>2023-06-11T10:36:55Z</time>
      </trkpt>
      <trkpt lat="43.73167" lon="5.96362">
        <ele>359.8</ele>
        <time>2023-06-11T10:36:56Z</time>
      </trkpt>
      <trkpt lat="43.73167" lon="5.96363">
        <ele>359.9</ele>
        <time>2023-06-11T10:36:57Z</time>
      </trkpt>
      <trkpt lat="43.73167" lon="5.96363">
        <ele>359.9</ele>
        <time>2023-06-11T10:36:58Z</time>
      </trkpt>
      <trkpt lat="43.73167" lon="5.96363">
        <ele>360</ele>
        <time>2023-06-11T10:36:59Z</time>
      </trkpt>
      <trkpt lat="43.73167" lon="5.96363">
        <ele>360</ele>
        <time>2023-06-11T10:37:00Z</time>
      </trkpt>
      <trkpt lat="43.73167" lon="5.96363">
        <ele>359.9</ele>
        <time>2023-06-11T10:37:01Z</time>
      </trkpt>
      <trkpt lat="43.73167" lon="5.96363">
        <ele>359.9</ele>
        <time>2023-06-11T10:37:02Z</time>
      </trkpt>
      <trkpt lat="43.73167" lon="5.96363">
        <ele>359.9</ele>
        <time>2023-06-11T10:37:03Z</time>
      </trkpt>
      <trkpt lat="43.73167" lon="5.96362">
        <ele>359.9</ele>
        <time>2023-06-11T10:37:04Z</time>
      </trkpt>
      <trkpt lat="43.73167" lon="5.96363">
        <ele>360</ele>
        <time>2023-06-11T10:37:05Z</time>
      </trkpt>
      <trkpt lat="43.73167" lon="5.96363">
        <ele>360</ele>
        <time>2023-06-11T10:37:06Z</time>
      </trkpt>
      <trkpt lat="43.73167" lon="5.96363">
        <ele>360</ele>
        <time>2023-06-11T10:37:07Z</time>
      </trkpt>
      <trkpt lat="43.73167" lon="5.96363">
        <ele>360</ele>
        <time>2023-06-11T10:37:08Z</time>
      </trkpt>
      <trkpt lat="43.73167" lon="5.96363">
        <ele>360</ele>
        <time>2023-06-11T10:37:09Z</time>
      </trkpt>
      <trkpt lat="43.73167" lon="5.96363">
        <ele>360.1</ele>
        <time>2023-06-11T10:37:10Z</time>
      </trkpt>
      <trkpt lat="43.73167" lon="5.96363">
        <ele>360.1</ele>
        <time>2023-06-11T10:37:11Z</time>
      </trkpt>
      <trkpt lat="43.73167" lon="5.96362">
        <ele>360</ele>
        <time>2023-06-11T10:37:12Z</time>
      </trkpt>
      <trkpt lat="43.73167" lon="5.96362">
        <ele>360</ele>
        <time>2023-06-11T10:37:13Z</time>
      </trkpt>
      <trkpt lat="43.73167" lon="5.96362">
        <ele>360</ele>
        <time>2023-06-11T10:37:14Z</time>
      </trkpt>
      <trkpt lat="43.73167" lon="5.96362">
        <ele>360</ele>
        <time>2023-06-11T10:37:15Z</time>
      </trkpt>
      <trkpt lat="43.73167" lon="5.96362">
        <ele>360</ele>
        <time>2023-06-11T10:37:16Z</time>
      </trkpt>
      <trkpt lat="43.73167" lon="5.96362">
        <ele>360</ele>
        <time>2023-06-11T10:37:17Z</time>
      </trkpt>
      <trkpt lat="43.73166" lon="5.96362">
        <ele>360</ele>
        <time>2023-06-11T10:37:18Z</time>
      </trkpt>
      <trkpt lat="43.73166" lon="5.96362">
        <ele>359.9</ele>
        <time>2023-06-11T10:37:19Z</time>
      </trkpt>
      <trkpt lat="43.73166" lon="5.96362">
        <ele>360</ele>
        <time>2023-06-11T10:37:20Z</time>
      </trkpt>
      <trkpt lat="43.73166" lon="5.96362">
        <ele>359.9</ele>
        <time>2023-06-11T10:37:21Z</time>
      </trkpt>
      <trkpt lat="43.73166" lon="5.96362">
        <ele>360</ele>
        <time>2023-06-11T10:37:22Z</time>
      </trkpt>
      <trkpt lat="43.73166" lon="5.96362">
        <ele>360</ele>
        <time>2023-06-11T10:37:23Z</time>
      </trkpt>
      <trkpt lat="43.73166" lon="5.96362">
        <ele>360</ele>
        <time>2023-06-11T10:37:24Z</time>
      </trkpt>
      <trkpt lat="43.73166" lon="5.96362">
        <ele>360</ele>
        <time>2023-06-11T10:37:25Z</time>
      </trkpt>
      <trkpt lat="43.73166" lon="5.96362">
        <ele>360</ele>
        <time>2023-06-11T10:37:26Z</time>
      </trkpt>
      <trkpt lat="43.73166" lon="5.96362">
        <ele>359.9</ele>
        <time>2023-06-11T10:37:27Z</time>
      </trkpt>
      <trkpt lat="43.73166" lon="5.96362">
        <ele>359.8</ele>
        <time>2023-06-11T10:37:28Z</time>
      </trkpt>
      <trkpt lat="43.73166" lon="5.96362">
        <ele>359.8</ele>
        <time>2023-06-11T10:37:29Z</time>
      </trkpt>
      <trkpt lat="43.73166" lon="5.96362">
        <ele>359.8</ele>
        <time>2023-06-11T10:37:30Z</time>
      </trkpt>
      <trkpt lat="43.73166" lon="5.96362">
        <ele>359.7</ele>
        <time>2023-06-11T10:37:31Z</time>
      </trkpt>
      <trkpt lat="43.73166" lon="5.96362">
        <ele>359.7</ele>
        <time>2023-06-11T10:37:32Z</time>
      </trkpt>
      <trkpt lat="43.73166" lon="5.96362">
        <ele>359.7</ele>
        <time>2023-06-11T10:37:33Z</time>
      </trkpt>
      <trkpt lat="43.73166" lon="5.96361">
        <ele>359.7</ele>
        <time>2023-06-11T10:37:34Z</time>
      </trkpt>
      <trkpt lat="43.73166" lon="5.96361">
        <ele>359.8</ele>
        <time>2023-06-11T10:37:35Z</time>
      </trkpt>
      <trkpt lat="43.73166" lon="5.96361">
        <ele>359.8</ele>
        <time>2023-06-11T10:37:36Z</time>
      </trkpt>
      <trkpt lat="43.73166" lon="5.96361">
        <ele>359.8</ele>
        <time>2023-06-11T10:37:37Z</time>
      </trkpt>
      <trkpt lat="43.73166" lon="5.96361">
        <ele>359.8</ele>
        <time>2023-06-11T10:37:38Z</time>
      </trkpt>
      <trkpt lat="43.73166" lon="5.96361">
        <ele>359.8</ele>
        <time>2023-06-11T10:37:39Z</time>
      </trkpt>
      <trkpt lat="43.73166" lon="5.96361">
        <ele>359.9</ele>
        <time>2023-06-11T10:37:40Z</time>
      </trkpt>
      <trkpt lat="43.73166" lon="5.96361">
        <ele>359.9</ele>
        <time>2023-06-11T10:37:41Z</time>
      </trkpt>
      <trkpt lat="43.73166" lon="5.96361">
        <ele>359.9</ele>
        <time>2023-06-11T10:37:42Z</time>
      </trkpt>
      <trkpt lat="43.73166" lon="5.96361">
        <ele>359.9</ele>
        <time>2023-06-11T10:37:43Z</time>
      </trkpt>
      <trkpt lat="43.73166" lon="5.96361">
        <ele>359.9</ele>
        <time>2023-06-11T10:37:44Z</time>
      </trkpt>
      <trkpt lat="43.73166" lon="5.96361">
        <ele>359.8</ele>
        <time>2023-06-11T10:37:45Z</time>
      </trkpt>
      <trkpt lat="43.73166" lon="5.96361">
        <ele>359.8</ele>
        <time>2023-06-11T10:37:46Z</time>
      </trkpt>
      <trkpt lat="43.73166" lon="5.96361">
        <ele>359.8</ele>
        <time>2023-06-11T10:37:47Z</time>
      </trkpt>
      <trkpt lat="43.73166" lon="5.96361">
        <ele>359.9</ele>
        <time>2023-06-11T10:37:48Z</time>
      </trkpt>
      <trkpt lat="43.73166" lon="5.96361">
        <ele>359.9</ele>
        <time>2023-06-11T10:37:49Z</time>
      </trkpt>
      <trkpt lat="43.73166" lon="5.96361">
        <ele>359.9</ele>
        <time>2023-06-11T10:37:50Z</time>
      </trkpt>
      <trkpt lat="43.73166" lon="5.96361">
        <ele>359.9</ele>
        <time>2023-06-11T10:37:51Z</time>
      </trkpt>
      <trkpt lat="43.73166" lon="5.96361">
        <ele>359.9</ele>
        <time>2023-06-11T10:37:52Z</time>
      </trkpt>
      <trkpt lat="43.73166" lon="5.96361">
        <ele>359.8</ele>
        <time>2023-06-11T10:37:53Z</time>
      </trkpt>
      <trkpt lat="43.73166" lon="5.96362">
        <ele>359.8</ele>
        <time>2023-06-11T10:37:54Z</time>
      </trkpt>
      <trkpt lat="43.73166" lon="5.96362">
        <ele>359.8</ele>
        <time>2023-06-11T10:37:55Z</time>
      </trkpt>
      <trkpt lat="43.73166" lon="5.96362">
        <ele>359.9</ele>
        <time>2023-06-11T10:37:56Z</time>
      </trkpt>
      <trkpt lat="43.73166" lon="5.96362">
        <ele>359.9</ele>
        <time>2023-06-11T10:37:57Z</time>
      </trkpt>
      <trkpt lat="43.73166" lon="5.96362">
        <ele>360</ele>
        <time>2023-06-11T10:37:58Z</time>
      </trkpt>
      <trkpt lat="43.73166" lon="5.96362">
        <ele>360</ele>
        <time>2023-06-11T10:37:59Z</time>
      </trkpt>
      <trkpt lat="43.73166" lon="5.96362">
        <ele>359.9</ele>
        <time>2023-06-11T10:38:00Z</time>
      </trkpt>
      <trkpt lat="43.73166" lon="5.96362">
        <ele>359.9</ele>
        <time>2023-06-11T10:38:01Z</time>
      </trkpt>
      <trkpt lat="43.73166" lon="5.96362">
        <ele>359.9</ele>
        <time>2023-06-11T10:38:02Z</time>
      </trkpt>
      <trkpt lat="43.73166" lon="5.96362">
        <ele>359.9</ele>
        <time>2023-06-11T10:38:03Z</time>
      </trkpt>
      <trkpt lat="43.73166" lon="5.96362">
        <ele>359.8</ele>
        <time>2023-06-11T10:38:04Z</time>
      </trkpt>
      <trkpt lat="43.73166" lon="5.96362">
        <ele>359.8</ele>
        <time>2023-06-11T10:38:05Z</time>
      </trkpt>
      <trkpt lat="43.73166" lon="5.96362">
        <ele>359.8</ele>
        <time>2023-06-11T10:38:06Z</time>
      </trkpt>
      <trkpt lat="43.73166" lon="5.96362">
        <ele>359.8</ele>
        <time>2023-06-11T10:38:07Z</time>
      </trkpt>
      <trkpt lat="43.73166" lon="5.96362">
        <ele>359.8</ele>
        <time>2023-06-11T10:38:08Z</time>
      </trkpt>
      <trkpt lat="43.73166" lon="5.96362">
        <ele>359.8</ele>
        <time>2023-06-11T10:38:09Z</time>
      </trkpt>
      <trkpt lat="43.73166" lon="5.96361">
        <ele>359.8</ele>
        <time>2023-06-11T10:38:10Z</time>
      </trkpt>
      <trkpt lat="43.73166" lon="5.96361">
        <ele>359.8</ele>
        <time>2023-06-11T10:38:11Z</time>
      </trkpt>
      <trkpt lat="43.73166" lon="5.96361">
        <ele>359.8</ele>
        <time>2023-06-11T10:38:12Z</time>
      </trkpt>
      <trkpt lat="43.73166" lon="5.96361">
        <ele>359.8</ele>
        <time>2023-06-11T10:38:13Z</time>
      </trkpt>
      <trkpt lat="43.73165" lon="5.96361">
        <ele>359.9</ele>
        <time>2023-06-11T10:38:14Z</time>
      </trkpt>
      <trkpt lat="43.73165" lon="5.96361">
        <ele>359.9</ele>
        <time>2023-06-11T10:38:15Z</time>
      </trkpt>
      <trkpt lat="43.73165" lon="5.96361">
        <ele>359.9</ele>
        <time>2023-06-11T10:38:16Z</time>
      </trkpt>
      <trkpt lat="43.73165" lon="5.96361">
        <ele>359.9</ele>
        <time>2023-06-11T10:38:17Z</time>
      </trkpt>
      <trkpt lat="43.73165" lon="5.96361">
        <ele>359.9</ele>
        <time>2023-06-11T10:38:18Z</time>
      </trkpt>
      <trkpt lat="43.73165" lon="5.9636">
        <ele>359.8</ele>
        <time>2023-06-11T10:38:19Z</time>
      </trkpt>
      <trkpt lat="43.73165" lon="5.9636">
        <ele>359.8</ele>
        <time>2023-06-11T10:38:20Z</time>
      </trkpt>
      <trkpt lat="43.73165" lon="5.9636">
        <ele>359.8</ele>
        <time>2023-06-11T10:38:21Z</time>
      </trkpt>
      <trkpt lat="43.73165" lon="5.9636">
        <ele>359.9</ele>
        <time>2023-06-11T10:38:22Z</time>
      </trkpt>
      <trkpt lat="43.73165" lon="5.9636">
        <ele>359.9</ele>
        <time>2023-06-11T10:38:23Z</time>
      </trkpt>
      <trkpt lat="43.73165" lon="5.9636">
        <ele>359.9</ele>
        <time>2023-06-11T10:38:24Z</time>
      </trkpt>
      <trkpt lat="43.73165" lon="5.9636">
        <ele>359.9</ele>
        <time>2023-06-11T10:38:25Z</time>
      </trkpt>
      <trkpt lat="43.73165" lon="5.9636">
        <ele>359.8</ele>
        <time>2023-06-11T10:38:26Z</time>
      </trkpt>
      <trkpt lat="43.73165" lon="5.9636">
        <ele>359.8</ele>
        <time>2023-06-11T10:38:27Z</time>
      </trkpt>
      <trkpt lat="43.73164" lon="5.9636">
        <ele>359.8</ele>
        <time>2023-06-11T10:38:28Z</time>
      </trkpt>
      <trkpt lat="43.73164" lon="5.9636">
        <ele>359.8</ele>
        <time>2023-06-11T10:38:29Z</time>
      </trkpt>
      <trkpt lat="43.73164" lon="5.9636">
        <ele>359.8</ele>
        <time>2023-06-11T10:38:30Z</time>
      </trkpt>
      <trkpt lat="43.73164" lon="5.9636">
        <ele>359.9</ele>
        <time>2023-06-11T10:38:31Z</time>
      </trkpt>
      <trkpt lat="43.73164" lon="5.96359">
        <ele>359.8</ele>
        <time>2023-06-11T10:38:32Z</time>
      </trkpt>
      <trkpt lat="43.73164" lon="5.96359">
        <ele>359.8</ele>
        <time>2023-06-11T10:38:33Z</time>
      </trkpt>
      <trkpt lat="43.73164" lon="5.96359">
        <ele>359.8</ele>
        <time>2023-06-11T10:38:34Z</time>
      </trkpt>
      <trkpt lat="43.73164" lon="5.96359">
        <ele>359.8</ele>
        <time>2023-06-11T10:38:35Z</time>
      </trkpt>
      <trkpt lat="43.73164" lon="5.96359">
        <ele>359.8</ele>
        <time>2023-06-11T10:38:36Z</time>
      </trkpt>
      <trkpt lat="43.73164" lon="5.96359">
        <ele>359.8</ele>
        <time>2023-06-11T10:38:37Z</time>
      </trkpt>
      <trkpt lat="43.73164" lon="5.96359">
        <ele>359.8</ele>
        <time>2023-06-11T10:38:38Z</time>
      </trkpt>
      <trkpt lat="43.73164" lon="5.96359">
        <ele>359.9</ele>
        <time>2023-06-11T10:38:39Z</time>
      </trkpt>
      <trkpt lat="43.73164" lon="5.96359">
        <ele>359.8</ele>
        <time>2023-06-11T10:38:40Z</time>
      </trkpt>
      <trkpt lat="43.73164" lon="5.96359">
        <ele>359.8</ele>
        <time>2023-06-11T10:38:41Z</time>
      </trkpt>
      <trkpt lat="43.73164" lon="5.96359">
        <ele>359.7</ele>
        <time>2023-06-11T10:38:42Z</time>
      </trkpt>
      <trkpt lat="43.73164" lon="5.96359">
        <ele>359.7</ele>
        <time>2023-06-11T10:38:43Z</time>
      </trkpt>
      <trkpt lat="43.73164" lon="5.96359">
        <ele>359.7</ele>
        <time>2023-06-11T10:38:44Z</time>
      </trkpt>
      <trkpt lat="43.73164" lon="5.96359">
        <ele>359.7</ele>
        <time>2023-06-11T10:38:45Z</time>
      </trkpt>
      <trkpt lat="43.73164" lon="5.96359">
        <ele>359.8</ele>
        <time>2023-06-11T10:38:46Z</time>
      </trkpt>
      <trkpt lat="43.73164" lon="5.96359">
        <ele>359.8</ele>
        <time>2023-06-11T10:38:47Z</time>
      </trkpt>
      <trkpt lat="43.73164" lon="5.96359">
        <ele>359.7</ele>
        <time>2023-06-11T10:38:48Z</time>
      </trkpt>
      <trkpt lat="43.73164" lon="5.96359">
        <ele>359.7</ele>
        <time>2023-06-11T10:38:49Z</time>
      </trkpt>
      <trkpt lat="43.73164" lon="5.96359">
        <ele>359.6</ele>
        <time>2023-06-11T10:38:50Z</time>
      </trkpt>
      <trkpt lat="43.73164" lon="5.96359">
        <ele>359.6</ele>
        <time>2023-06-11T10:38:51Z</time>
      </trkpt>
      <trkpt lat="43.73164" lon="5.96359">
        <ele>359.6</ele>
        <time>2023-06-11T10:38:52Z</time>
      </trkpt>
      <trkpt lat="43.73164" lon="5.96359">
        <ele>359.7</ele>
        <time>2023-06-11T10:38:53Z</time>
      </trkpt>
      <trkpt lat="43.73164" lon="5.96359">
        <ele>359.8</ele>
        <time>2023-06-11T10:38:54Z</time>
      </trkpt>
      <trkpt lat="43.73164" lon="5.96359">
        <ele>359.8</ele>
        <time>2023-06-11T10:38:55Z</time>
      </trkpt>
      <trkpt lat="43.73164" lon="5.96359">
        <ele>359.8</ele>
        <time>2023-06-11T10:38:56Z</time>
      </trkpt>
      <trkpt lat="43.73164" lon="5.96359">
        <ele>359.9</ele>
        <time>2023-06-11T10:38:57Z</time>
      </trkpt>
      <trkpt lat="43.73164" lon="5.96359">
        <ele>359.9</ele>
        <time>2023-06-11T10:38:58Z</time>
      </trkpt>
      <trkpt lat="43.73165" lon="5.96359">
        <ele>359.8</ele>
        <time>2023-06-11T10:38:59Z</time>
      </trkpt>
      <trkpt lat="43.73165" lon="5.96359">
        <ele>359.7</ele>
        <time>2023-06-11T10:39:00Z</time>
      </trkpt>
      <trkpt lat="43.73165" lon="5.96359">
        <ele>359.7</ele>
        <time>2023-06-11T10:39:01Z</time>
      </trkpt>
      <trkpt lat="43.73165" lon="5.96359">
        <ele>359.7</ele>
        <time>2023-06-11T10:39:02Z</time>
      </trkpt>
      <trkpt lat="43.73165" lon="5.96359">
        <ele>359.7</ele>
        <time>2023-06-11T10:39:03Z</time>
      </trkpt>
      <trkpt lat="43.73165" lon="5.96359">
        <ele>359.7</ele>
        <time>2023-06-11T10:39:04Z</time>
      </trkpt>
      <trkpt lat="43.73165" lon="5.96359">
        <ele>359.7</ele>
        <time>2023-06-11T10:39:05Z</time>
      </trkpt>
      <trkpt lat="43.73165" lon="5.96359">
        <ele>359.7</ele>
        <time>2023-06-11T10:39:06Z</time>
      </trkpt>
      <trkpt lat="43.73165" lon="5.96359">
        <ele>359.7</ele>
        <time>2023-06-11T10:39:07Z</time>
      </trkpt>
      <trkpt lat="43.73165" lon="5.96359">
        <ele>359.8</ele>
        <time>2023-06-11T10:39:08Z</time>
      </trkpt>
      <trkpt lat="43.73165" lon="5.96359">
        <ele>359.8</ele>
        <time>2023-06-11T10:39:09Z</time>
      </trkpt>
      <trkpt lat="43.73165" lon="5.96359">
        <ele>359.8</ele>
        <time>2023-06-11T10:39:10Z</time>
      </trkpt>
      <trkpt lat="43.73165" lon="5.96359">
        <ele>359.9</ele>
        <time>2023-06-11T10:39:11Z</time>
      </trkpt>
      <trkpt lat="43.73165" lon="5.96359">
        <ele>359.9</ele>
        <time>2023-06-11T10:39:12Z</time>
      </trkpt>
      <trkpt lat="43.73165" lon="5.96359">
        <ele>359.9</ele>
        <time>2023-06-11T10:39:13Z</time>
      </trkpt>
      <trkpt lat="43.73165" lon="5.96359">
        <ele>359.9</ele>
        <time>2023-06-11T10:39:14Z</time>
      </trkpt>
      <trkpt lat="43.73165" lon="5.96359">
        <ele>359.9</ele>
        <time>2023-06-11T10:39:15Z</time>
      </trkpt>
      <trkpt lat="43.73165" lon="5.96359">
        <ele>359.8</ele>
        <time>2023-06-11T10:39:16Z</time>
      </trkpt>
      <trkpt lat="43.73165" lon="5.96359">
        <ele>359.8</ele>
        <time>2023-06-11T10:39:17Z</time>
      </trkpt>
      <trkpt lat="43.73165" lon="5.96359">
        <ele>359.7</ele>
        <time>2023-06-11T10:39:18Z</time>
      </trkpt>
      <trkpt lat="43.73165" lon="5.96359">
        <ele>359.8</ele>
        <time>2023-06-11T10:39:19Z</time>
      </trkpt>
      <trkpt lat="43.73165" lon="5.9636">
        <ele>359.9</ele>
        <time>2023-06-11T10:39:20Z</time>
      </trkpt>
      <trkpt lat="43.73165" lon="5.9636">
        <ele>359.8</ele>
        <time>2023-06-11T10:39:21Z</time>
      </trkpt>
      <trkpt lat="43.73165" lon="5.9636">
        <ele>359.8</ele>
        <time>2023-06-11T10:39:22Z</time>
      </trkpt>
      <trkpt lat="43.73165" lon="5.9636">
        <ele>359.8</ele>
        <time>2023-06-11T10:39:23Z</time>
      </trkpt>
      <trkpt lat="43.73165" lon="5.9636">
        <ele>359.8</ele>
        <time>2023-06-11T10:39:24Z</time>
      </trkpt>
      <trkpt lat="43.73165" lon="5.9636">
        <ele>359.7</ele>
        <time>2023-06-11T10:39:25Z</time>
      </trkpt>
      <trkpt lat="43.73165" lon="5.9636">
        <ele>359.8</ele>
        <time>2023-06-11T10:39:26Z</time>
      </trkpt>
      <trkpt lat="43.73165" lon="5.9636">
        <ele>359.8</ele>
        <time>2023-06-11T10:39:27Z</time>
      </trkpt>
      <trkpt lat="43.73165" lon="5.9636">
        <ele>359.8</ele>
        <time>2023-06-11T10:39:28Z</time>
      </trkpt>
      <trkpt lat="43.73165" lon="5.96359">
        <ele>359.8</ele>
        <time>2023-06-11T10:39:29Z</time>
      </trkpt>
      <trkpt lat="43.73165" lon="5.96359">
        <ele>359.8</ele>
        <time>2023-06-11T10:39:30Z</time>
      </trkpt>
      <trkpt lat="43.73165" lon="5.96359">
        <ele>359.8</ele>
        <time>2023-06-11T10:39:31Z</time>
      </trkpt>
      <trkpt lat="43.73165" lon="5.96359">
        <ele>359.9</ele>
        <time>2023-06-11T10:39:32Z</time>
      </trkpt>
      <trkpt lat="43.73165" lon="5.96359">
        <ele>359.9</ele>
        <time>2023-06-11T10:39:33Z</time>
      </trkpt>
      <trkpt lat="43.73165" lon="5.9636">
        <ele>359.9</ele>
        <time>2023-06-11T10:39:34Z</time>
      </trkpt>
      <trkpt lat="43.73165" lon="5.9636">
        <ele>359.9</ele>
        <time>2023-06-11T10:39:35Z</time>
      </trkpt>
      <trkpt lat="43.73165" lon="5.9636">
        <ele>359.9</ele>
        <time>2023-06-11T10:39:36Z</time>
      </trkpt>
      <trkpt lat="43.73165" lon="5.9636">
        <ele>360</ele>
        <time>2023-06-11T10:39:37Z</time>
      </trkpt>
      <trkpt lat="43.73165" lon="5.9636">
        <ele>360</ele>
        <time>2023-06-11T10:39:38Z</time>
      </trkpt>
      <trkpt lat="43.73165" lon="5.9636">
        <ele>360</ele>
        <time>2023-06-11T10:39:39Z</time>
      </trkpt>
      <trkpt lat="43.73165" lon="5.96359">
        <ele>360</ele>
        <time>2023-06-11T10:39:40Z</time>
      </trkpt>
      <trkpt lat="43.73165" lon="5.96359">
        <ele>360</ele>
        <time>2023-06-11T10:39:41Z</time>
      </trkpt>
      <trkpt lat="43.73165" lon="5.96359">
        <ele>360</ele>
        <time>2023-06-11T10:39:42Z</time>
      </trkpt>
      <trkpt lat="43.73165" lon="5.9636">
        <ele>360</ele>
        <time>2023-06-11T10:39:43Z</time>
      </trkpt>
      <trkpt lat="43.73165" lon="5.9636">
        <ele>360</ele>
        <time>2023-06-11T10:39:44Z</time>
      </trkpt>
      <trkpt lat="43.73165" lon="5.9636">
        <ele>360.1</ele>
        <time>2023-06-11T10:39:45Z</time>
      </trkpt>
      <trkpt lat="43.73165" lon="5.96359">
        <ele>360.1</ele>
        <time>2023-06-11T10:39:46Z</time>
      </trkpt>
      <trkpt lat="43.73165" lon="5.9636">
        <ele>360.1</ele>
        <time>2023-06-11T10:39:47Z</time>
      </trkpt>
      <trkpt lat="43.73165" lon="5.9636">
        <ele>360.1</ele>
        <time>2023-06-11T10:39:48Z</time>
      </trkpt>
      <trkpt lat="43.73165" lon="5.9636">
        <ele>360</ele>
        <time>2023-06-11T10:39:49Z</time>
      </trkpt>
      <trkpt lat="43.73165" lon="5.9636">
        <ele>359.9</ele>
        <time>2023-06-11T10:39:50Z</time>
      </trkpt>
      <trkpt lat="43.73165" lon="5.9636">
        <ele>359.9</ele>
        <time>2023-06-11T10:39:51Z</time>
      </trkpt>
      <trkpt lat="43.73165" lon="5.9636">
        <ele>359.8</ele>
        <time>2023-06-11T10:39:52Z</time>
      </trkpt>
      <trkpt lat="43.73165" lon="5.9636">
        <ele>359.8</ele>
        <time>2023-06-11T10:39:53Z</time>
      </trkpt>
      <trkpt lat="43.73165" lon="5.9636">
        <ele>359.8</ele>
        <time>2023-06-11T10:39:54Z</time>
      </trkpt>
      <trkpt lat="43.73165" lon="5.9636">
        <ele>359.8</ele>
        <time>2023-06-11T10:39:55Z</time>
      </trkpt>
      <trkpt lat="43.73165" lon="5.9636">
        <ele>359.7</ele>
        <time>2023-06-11T10:39:56Z</time>
      </trkpt>
      <trkpt lat="43.73165" lon="5.9636">
        <ele>359.7</ele>
        <time>2023-06-11T10:39:57Z</time>
      </trkpt>
      <trkpt lat="43.73165" lon="5.9636">
        <ele>359.6</ele>
        <time>2023-06-11T10:39:58Z</time>
      </trkpt>
      <trkpt lat="43.73165" lon="5.9636">
        <ele>359.6</ele>
        <time>2023-06-11T10:39:59Z</time>
      </trkpt>
      <trkpt lat="43.73165" lon="5.9636">
        <ele>359.5</ele>
        <time>2023-06-11T10:40:00Z</time>
      </trkpt>
      <trkpt lat="43.73165" lon="5.9636">
        <ele>359.4</ele>
        <time>2023-06-11T10:40:01Z</time>
      </trkpt>
      <trkpt lat="43.73165" lon="5.9636">
        <ele>359.4</ele>
        <time>2023-06-11T10:40:02Z</time>
      </trkpt>
      <trkpt lat="43.73165" lon="5.9636">
        <ele>359.4</ele>
        <time>2023-06-11T10:40:03Z</time>
      </trkpt>
      <trkpt lat="43.73165" lon="5.9636">
        <ele>359.3</ele>
        <time>2023-06-11T10:40:04Z</time>
      </trkpt>
      <trkpt lat="43.73165" lon="5.9636">
        <ele>359.3</ele>
        <time>2023-06-11T10:40:05Z</time>
      </trkpt>
      <trkpt lat="43.73165" lon="5.9636">
        <ele>359.3</ele>
        <time>2023-06-11T10:40:06Z</time>
      </trkpt>
      <trkpt lat="43.73166" lon="5.9636">
        <ele>359.3</ele>
        <time>2023-06-11T10:40:07Z</time>
      </trkpt>
      <trkpt lat="43.73166" lon="5.9636">
        <ele>359.2</ele>
        <time>2023-06-11T10:40:08Z</time>
      </trkpt>
      <trkpt lat="43.73166" lon="5.9636">
        <ele>359.2</ele>
        <time>2023-06-11T10:40:09Z</time>
      </trkpt>
      <trkpt lat="43.73166" lon="5.9636">
        <ele>359.3</ele>
        <time>2023-06-11T10:40:10Z</time>
      </trkpt>
      <trkpt lat="43.73165" lon="5.9636">
        <ele>359.3</ele>
        <time>2023-06-11T10:40:11Z</time>
      </trkpt>
      <trkpt lat="43.73165" lon="5.9636">
        <ele>359.4</ele>
        <time>2023-06-11T10:40:12Z</time>
      </trkpt>
      <trkpt lat="43.73165" lon="5.9636">
        <ele>359.4</ele>
        <time>2023-06-11T10:40:13Z</time>
      </trkpt>
      <trkpt lat="43.73165" lon="5.9636">
        <ele>359.4</ele>
        <time>2023-06-11T10:40:14Z</time>
      </trkpt>
      <trkpt lat="43.73165" lon="5.96361">
        <ele>359.4</ele>
        <time>2023-06-11T10:40:15Z</time>
      </trkpt>
      <trkpt lat="43.73165" lon="5.96361">
        <ele>359.6</ele>
        <time>2023-06-11T10:40:16Z</time>
      </trkpt>
      <trkpt lat="43.73165" lon="5.96361">
        <ele>359.6</ele>
        <time>2023-06-11T10:40:17Z</time>
      </trkpt>
      <trkpt lat="43.73165" lon="5.96361">
        <ele>359.7</ele>
        <time>2023-06-11T10:40:18Z</time>
      </trkpt>
      <trkpt lat="43.73165" lon="5.96361">
        <ele>359.7</ele>
        <time>2023-06-11T10:40:19Z</time>
      </trkpt>
      <trkpt lat="43.73165" lon="5.96361">
        <ele>359.8</ele>
        <time>2023-06-11T10:40:20Z</time>
      </trkpt>
      <trkpt lat="43.73165" lon="5.96361">
        <ele>359.8</ele>
        <time>2023-06-11T10:40:21Z</time>
      </trkpt>
      <trkpt lat="43.73165" lon="5.96361">
        <ele>359.8</ele>
        <time>2023-06-11T10:40:22Z</time>
      </trkpt>
      <trkpt lat="43.73165" lon="5.96361">
        <ele>359.9</ele>
        <time>2023-06-11T10:40:23Z</time>
      </trkpt>
      <trkpt lat="43.73165" lon="5.96361">
        <ele>359.9</ele>
        <time>2023-06-11T10:40:24Z</time>
      </trkpt>
      <trkpt lat="43.73165" lon="5.96361">
        <ele>359.9</ele>
        <time>2023-06-11T10:40:25Z</time>
      </trkpt>
      <trkpt lat="43.73165" lon="5.96361">
        <ele>359.8</ele>
        <time>2023-06-11T10:40:26Z</time>
      </trkpt>
      <trkpt lat="43.73165" lon="5.96361">
        <ele>359.7</ele>
        <time>2023-06-11T10:40:27Z</time>
      </trkpt>
      <trkpt lat="43.73165" lon="5.96361">
        <ele>359.7</ele>
        <time>2023-06-11T10:40:28Z</time>
      </trkpt>
      <trkpt lat="43.73165" lon="5.96361">
        <ele>359.7</ele>
        <time>2023-06-11T10:40:29Z</time>
      </trkpt>
      <trkpt lat="43.73165" lon="5.96361">
        <ele>359.7</ele>
        <time>2023-06-11T10:40:30Z</time>
      </trkpt>
      <trkpt lat="43.73165" lon="5.96361">
        <ele>359.7</ele>
        <time>2023-06-11T10:40:31Z</time>
      </trkpt>
      <trkpt lat="43.73165" lon="5.96361">
        <ele>359.7</ele>
        <time>2023-06-11T10:40:32Z</time>
      </trkpt>
      <trkpt lat="43.73165" lon="5.96361">
        <ele>359.8</ele>
        <time>2023-06-11T10:40:33Z</time>
      </trkpt>
      <trkpt lat="43.73165" lon="5.96361">
        <ele>359.8</ele>
        <time>2023-06-11T10:40:34Z</time>
      </trkpt>
      <trkpt lat="43.73165" lon="5.96361">
        <ele>359.8</ele>
        <time>2023-06-11T10:40:35Z</time>
      </trkpt>
      <trkpt lat="43.73165" lon="5.96361">
        <ele>359.8</ele>
        <time>2023-06-11T10:40:36Z</time>
      </trkpt>
      <trkpt lat="43.73165" lon="5.96361">
        <ele>359.9</ele>
        <time>2023-06-11T10:40:37Z</time>
      </trkpt>
      <trkpt lat="43.73165" lon="5.96361">
        <ele>359.9</ele>
        <time>2023-06-11T10:40:38Z</time>
      </trkpt>
      <trkpt lat="43.73165" lon="5.96361">
        <ele>359.9</ele>
        <time>2023-06-11T10:40:39Z</time>
      </trkpt>
      <trkpt lat="43.73165" lon="5.96361">
        <ele>360</ele>
        <time>2023-06-11T10:40:40Z</time>
      </trkpt>
      <trkpt lat="43.73165" lon="5.96361">
        <ele>360</ele>
        <time>2023-06-11T10:40:41Z</time>
      </trkpt>
      <trkpt lat="43.73165" lon="5.96361">
        <ele>360</ele>
        <time>2023-06-11T10:40:42Z</time>
      </trkpt>
      <trkpt lat="43.73165" lon="5.96361">
        <ele>360</ele>
        <time>2023-06-11T10:40:43Z</time>
      </trkpt>
      <trkpt lat="43.73165" lon="5.96362">
        <ele>360.1</ele>
        <time>2023-06-11T10:40:44Z</time>
      </trkpt>
      <trkpt lat="43.73165" lon="5.96362">
        <ele>360.1</ele>
        <time>2023-06-11T10:40:45Z</time>
      </trkpt>
      <trkpt lat="43.73165" lon="5.96362">
        <ele>360.1</ele>
        <time>2023-06-11T10:40:46Z</time>
      </trkpt>
      <trkpt lat="43.73165" lon="5.96362">
        <ele>360.2</ele>
        <time>2023-06-11T10:40:47Z</time>
      </trkpt>
      <trkpt lat="43.73165" lon="5.96362">
        <ele>360.2</ele>
        <time>2023-06-11T10:40:48Z</time>
      </trkpt>
      <trkpt lat="43.73165" lon="5.96362">
        <ele>360.3</ele>
        <time>2023-06-11T10:40:49Z</time>
      </trkpt>
      <trkpt lat="43.73165" lon="5.96362">
        <ele>360.3</ele>
        <time>2023-06-11T10:40:50Z</time>
      </trkpt>
      <trkpt lat="43.73165" lon="5.96362">
        <ele>360.3</ele>
        <time>2023-06-11T10:40:51Z</time>
      </trkpt>
      <trkpt lat="43.73165" lon="5.96362">
        <ele>360.3</ele>
        <time>2023-06-11T10:40:52Z</time>
      </trkpt>
      <trkpt lat="43.73165" lon="5.96362">
        <ele>360.3</ele>
        <time>2023-06-11T10:40:53Z</time>
      </trkpt>
      <trkpt lat="43.73165" lon="5.96362">
        <ele>360.2</ele>
        <time>2023-06-11T10:40:54Z</time>
      </trkpt>
      <trkpt lat="43.73165" lon="5.96362">
        <ele>360.2</ele>
        <time>2023-06-11T10:40:55Z</time>
      </trkpt>
      <trkpt lat="43.73165" lon="5.96362">
        <ele>360.2</ele>
        <time>2023-06-11T10:40:56Z</time>
      </trkpt>
      <trkpt lat="43.73165" lon="5.96363">
        <ele>360.1</ele>
        <time>2023-06-11T10:40:57Z</time>
      </trkpt>
      <trkpt lat="43.73165" lon="5.96363">
        <ele>360</ele>
        <time>2023-06-11T10:40:58Z</time>
      </trkpt>
      <trkpt lat="43.73165" lon="5.96363">
        <ele>359.9</ele>
        <time>2023-06-11T10:40:59Z</time>
      </trkpt>
      <trkpt lat="43.73165" lon="5.96363">
        <ele>359.9</ele>
        <time>2023-06-11T10:41:00Z</time>
      </trkpt>
      <trkpt lat="43.73165" lon="5.96363">
        <ele>360</ele>
        <time>2023-06-11T10:41:01Z</time>
      </trkpt>
      <trkpt lat="43.73165" lon="5.96363">
        <ele>359.9</ele>
        <time>2023-06-11T10:41:02Z</time>
      </trkpt>
      <trkpt lat="43.73165" lon="5.96363">
        <ele>359.9</ele>
        <time>2023-06-11T10:41:03Z</time>
      </trkpt>
      <trkpt lat="43.73166" lon="5.96363">
        <ele>360</ele>
        <time>2023-06-11T10:41:04Z</time>
      </trkpt>
      <trkpt lat="43.73166" lon="5.96363">
        <ele>360</ele>
        <time>2023-06-11T10:41:05Z</time>
      </trkpt>
      <trkpt lat="43.73166" lon="5.96363">
        <ele>360.1</ele>
        <time>2023-06-11T10:41:06Z</time>
      </trkpt>
      <trkpt lat="43.73166" lon="5.96363">
        <ele>360.1</ele>
        <time>2023-06-11T10:41:07Z</time>
      </trkpt>
      <trkpt lat="43.73166" lon="5.96363">
        <ele>360.1</ele>
        <time>2023-06-11T10:41:08Z</time>
      </trkpt>
      <trkpt lat="43.73166" lon="5.96363">
        <ele>360</ele>
        <time>2023-06-11T10:41:09Z</time>
      </trkpt>
      <trkpt lat="43.73166" lon="5.96363">
        <ele>360</ele>
        <time>2023-06-11T10:41:10Z</time>
      </trkpt>
      <trkpt lat="43.73166" lon="5.96363">
        <ele>360</ele>
        <time>2023-06-11T10:41:11Z</time>
      </trkpt>
      <trkpt lat="43.73166" lon="5.96363">
        <ele>360.1</ele>
        <time>2023-06-11T10:41:12Z</time>
      </trkpt>
      <trkpt lat="43.73166" lon="5.96364">
        <ele>360</ele>
        <time>2023-06-11T10:41:13Z</time>
      </trkpt>
      <trkpt lat="43.73166" lon="5.96364">
        <ele>359.9</ele>
        <time>2023-06-11T10:41:14Z</time>
      </trkpt>
      <trkpt lat="43.73166" lon="5.96363">
        <ele>359.9</ele>
        <time>2023-06-11T10:41:15Z</time>
      </trkpt>
      <trkpt lat="43.73166" lon="5.96363">
        <ele>360</ele>
        <time>2023-06-11T10:41:16Z</time>
      </trkpt>
      <trkpt lat="43.73166" lon="5.96363">
        <ele>360</ele>
        <time>2023-06-11T10:41:17Z</time>
      </trkpt>
      <trkpt lat="43.73166" lon="5.96363">
        <ele>360</ele>
        <time>2023-06-11T10:41:18Z</time>
      </trkpt>
      <trkpt lat="43.73166" lon="5.96363">
        <ele>359.9</ele>
        <time>2023-06-11T10:41:19Z</time>
      </trkpt>
      <trkpt lat="43.73166" lon="5.96363">
        <ele>359.9</ele>
        <time>2023-06-11T10:41:20Z</time>
      </trkpt>
      <trkpt lat="43.73166" lon="5.96363">
        <ele>359.9</ele>
        <time>2023-06-11T10:41:21Z</time>
      </trkpt>
      <trkpt lat="43.73166" lon="5.96363">
        <ele>359.9</ele>
        <time>2023-06-11T10:41:22Z</time>
      </trkpt>
      <trkpt lat="43.73166" lon="5.96363">
        <ele>360</ele>
        <time>2023-06-11T10:41:23Z</time>
      </trkpt>
      <trkpt lat="43.73166" lon="5.96363">
        <ele>360</ele>
        <time>2023-06-11T10:41:24Z</time>
      </trkpt>
      <trkpt lat="43.73166" lon="5.96363">
        <ele>360</ele>
        <time>2023-06-11T10:41:25Z</time>
      </trkpt>
      <trkpt lat="43.73166" lon="5.96363">
        <ele>360</ele>
        <time>2023-06-11T10:41:26Z</time>
      </trkpt>
      <trkpt lat="43.73166" lon="5.96363">
        <ele>360</ele>
        <time>2023-06-11T10:41:27Z</time>
      </trkpt>
      <trkpt lat="43.73166" lon="5.96363">
        <ele>360</ele>
        <time>2023-06-11T10:41:28Z</time>
      </trkpt>
      <trkpt lat="43.73166" lon="5.96363">
        <ele>360</ele>
        <time>2023-06-11T10:41:29Z</time>
      </trkpt>
      <trkpt lat="43.73167" lon="5.96363">
        <ele>360</ele>
        <time>2023-06-11T10:41:30Z</time>
      </trkpt>
      <trkpt lat="43.73167" lon="5.96363">
        <ele>359.9</ele>
        <time>2023-06-11T10:41:31Z</time>
      </trkpt>
      <trkpt lat="43.73167" lon="5.96363">
        <ele>359.9</ele>
        <time>2023-06-11T10:41:32Z</time>
      </trkpt>
      <trkpt lat="43.73167" lon="5.96363">
        <ele>359.8</ele>
        <time>2023-06-11T10:41:33Z</time>
      </trkpt>
      <trkpt lat="43.73167" lon="5.96363">
        <ele>359.8</ele>
        <time>2023-06-11T10:41:34Z</time>
      </trkpt>
      <trkpt lat="43.73167" lon="5.96363">
        <ele>359.8</ele>
        <time>2023-06-11T10:41:35Z</time>
      </trkpt>
      <trkpt lat="43.73167" lon="5.96363">
        <ele>359.9</ele>
        <time>2023-06-11T10:41:36Z</time>
      </trkpt>
      <trkpt lat="43.73167" lon="5.96363">
        <ele>359.9</ele>
        <time>2023-06-11T10:41:37Z</time>
      </trkpt>
      <trkpt lat="43.73167" lon="5.96363">
        <ele>359.9</ele>
        <time>2023-06-11T10:41:38Z</time>
      </trkpt>
      <trkpt lat="43.73167" lon="5.96363">
        <ele>359.9</ele>
        <time>2023-06-11T10:41:39Z</time>
      </trkpt>
      <trkpt lat="43.73167" lon="5.96363">
        <ele>359.9</ele>
        <time>2023-06-11T10:41:40Z</time>
      </trkpt>
      <trkpt lat="43.73167" lon="5.96363">
        <ele>359.9</ele>
        <time>2023-06-11T10:41:41Z</time>
      </trkpt>
      <trkpt lat="43.73167" lon="5.96363">
        <ele>359.9</ele>
        <time>2023-06-11T10:41:42Z</time>
      </trkpt>
      <trkpt lat="43.73167" lon="5.96363">
        <ele>360</ele>
        <time>2023-06-11T10:41:43Z</time>
      </trkpt>
      <trkpt lat="43.73167" lon="5.96362">
        <ele>360.1</ele>
        <time>2023-06-11T10:41:44Z</time>
      </trkpt>
      <trkpt lat="43.73167" lon="5.96362">
        <ele>360</ele>
        <time>2023-06-11T10:41:45Z</time>
      </trkpt>
      <trkpt lat="43.73167" lon="5.96362">
        <ele>360.1</ele>
        <time>2023-06-11T10:41:46Z</time>
      </trkpt>
      <trkpt lat="43.73167" lon="5.96362">
        <ele>360</ele>
        <time>2023-06-11T10:41:47Z</time>
      </trkpt>
      <trkpt lat="43.73167" lon="5.96362">
        <ele>360</ele>
        <time>2023-06-11T10:41:48Z</time>
      </trkpt>
      <trkpt lat="43.73167" lon="5.96361">
        <ele>359.9</ele>
        <time>2023-06-11T10:41:49Z</time>
      </trkpt>
      <trkpt lat="43.73167" lon="5.96361">
        <ele>359.9</ele>
        <time>2023-06-11T10:41:50Z</time>
      </trkpt>
      <trkpt lat="43.73167" lon="5.96361">
        <ele>359.9</ele>
        <time>2023-06-11T10:41:51Z</time>
      </trkpt>
      <trkpt lat="43.73167" lon="5.96361">
        <ele>359.9</ele>
        <time>2023-06-11T10:41:52Z</time>
      </trkpt>
      <trkpt lat="43.73167" lon="5.96361">
        <ele>359.9</ele>
        <time>2023-06-11T10:41:53Z</time>
      </trkpt>
      <trkpt lat="43.73167" lon="5.96362">
        <ele>359.8</ele>
        <time>2023-06-11T10:41:54Z</time>
      </trkpt>
      <trkpt lat="43.73167" lon="5.96362">
        <ele>359.8</ele>
        <time>2023-06-11T10:41:55Z</time>
      </trkpt>
      <trkpt lat="43.73167" lon="5.96362">
        <ele>359.8</ele>
        <time>2023-06-11T10:41:56Z</time>
      </trkpt>
      <trkpt lat="43.73167" lon="5.96361">
        <ele>359.8</ele>
        <time>2023-06-11T10:41:57Z</time>
      </trkpt>
      <trkpt lat="43.73167" lon="5.96361">
        <ele>359.9</ele>
        <time>2023-06-11T10:41:58Z</time>
      </trkpt>
      <trkpt lat="43.73167" lon="5.96361">
        <ele>359.8</ele>
        <time>2023-06-11T10:41:59Z</time>
      </trkpt>
      <trkpt lat="43.73167" lon="5.96361">
        <ele>359.8</ele>
        <time>2023-06-11T10:42:00Z</time>
      </trkpt>
      <trkpt lat="43.73167" lon="5.96361">
        <ele>359.8</ele>
        <time>2023-06-11T10:42:01Z</time>
      </trkpt>
      <trkpt lat="43.73167" lon="5.96361">
        <ele>359.8</ele>
        <time>2023-06-11T10:42:02Z</time>
      </trkpt>
      <trkpt lat="43.73167" lon="5.96361">
        <ele>359.8</ele>
        <time>2023-06-11T10:42:03Z</time>
      </trkpt>
      <trkpt lat="43.73167" lon="5.96361">
        <ele>359.9</ele>
        <time>2023-06-11T10:42:04Z</time>
      </trkpt>
      <trkpt lat="43.73167" lon="5.96361">
        <ele>359.9</ele>
        <time>2023-06-11T10:42:05Z</time>
      </trkpt>
      <trkpt lat="43.73168" lon="5.96361">
        <ele>359.9</ele>
        <time>2023-06-11T10:42:06Z</time>
      </trkpt>
      <trkpt lat="43.73168" lon="5.96361">
        <ele>359.9</ele>
        <time>2023-06-11T10:42:07Z</time>
      </trkpt>
      <trkpt lat="43.73168" lon="5.96361">
        <ele>359.9</ele>
        <time>2023-06-11T10:42:08Z</time>
      </trkpt>
      <trkpt lat="43.73168" lon="5.96361">
        <ele>359.9</ele>
        <time>2023-06-11T10:42:09Z</time>
      </trkpt>
      <trkpt lat="43.73168" lon="5.96361">
        <ele>359.9</ele>
        <time>2023-06-11T10:42:10Z</time>
      </trkpt>
      <trkpt lat="43.73168" lon="5.9636">
        <ele>359.9</ele>
        <time>2023-06-11T10:42:11Z</time>
      </trkpt>
      <trkpt lat="43.73168" lon="5.9636">
        <ele>359.9</ele>
        <time>2023-06-11T10:42:12Z</time>
      </trkpt>
      <trkpt lat="43.73168" lon="5.9636">
        <ele>359.8</ele>
        <time>2023-06-11T10:42:13Z</time>
      </trkpt>
      <trkpt lat="43.73168" lon="5.9636">
        <ele>359.8</ele>
        <time>2023-06-11T10:42:14Z</time>
      </trkpt>
      <trkpt lat="43.73168" lon="5.9636">
        <ele>359.8</ele>
        <time>2023-06-11T10:42:15Z</time>
      </trkpt>
      <trkpt lat="43.73168" lon="5.9636">
        <ele>359.9</ele>
        <time>2023-06-11T10:42:16Z</time>
      </trkpt>
      <trkpt lat="43.73168" lon="5.9636">
        <ele>359.9</ele>
        <time>2023-06-11T10:42:17Z</time>
      </trkpt>
      <trkpt lat="43.73168" lon="5.9636">
        <ele>359.8</ele>
        <time>2023-06-11T10:42:18Z</time>
      </trkpt>
      <trkpt lat="43.73168" lon="5.96361">
        <ele>359.8</ele>
        <time>2023-06-11T10:42:19Z</time>
      </trkpt>
      <trkpt lat="43.73168" lon="5.96361">
        <ele>359.8</ele>
        <time>2023-06-11T10:42:20Z</time>
      </trkpt>
      <trkpt lat="43.73168" lon="5.96361">
        <ele>359.8</ele>
        <time>2023-06-11T10:42:21Z</time>
      </trkpt>
      <trkpt lat="43.73168" lon="5.96361">
        <ele>359.8</ele>
        <time>2023-06-11T10:42:22Z</time>
      </trkpt>
      <trkpt lat="43.73168" lon="5.96361">
        <ele>359.8</ele>
        <time>2023-06-11T10:42:23Z</time>
      </trkpt>
      <trkpt lat="43.73168" lon="5.96361">
        <ele>359.7</ele>
        <time>2023-06-11T10:42:24Z</time>
      </trkpt>
      <trkpt lat="43.73168" lon="5.96361">
        <ele>359.7</ele>
        <time>2023-06-11T10:42:25Z</time>
      </trkpt>
      <trkpt lat="43.73168" lon="5.96361">
        <ele>359.6</ele>
        <time>2023-06-11T10:42:26Z</time>
      </trkpt>
      <trkpt lat="43.73168" lon="5.96361">
        <ele>359.7</ele>
        <time>2023-06-11T10:42:27Z</time>
      </trkpt>
      <trkpt lat="43.73168" lon="5.96362">
        <ele>359.7</ele>
        <time>2023-06-11T10:42:28Z</time>
      </trkpt>
      <trkpt lat="43.73168" lon="5.96362">
        <ele>359.7</ele>
        <time>2023-06-11T10:42:29Z</time>
      </trkpt>
      <trkpt lat="43.73168" lon="5.96362">
        <ele>359.7</ele>
        <time>2023-06-11T10:42:30Z</time>
      </trkpt>
      <trkpt lat="43.73168" lon="5.96362">
        <ele>359.7</ele>
        <time>2023-06-11T10:42:31Z</time>
      </trkpt>
      <trkpt lat="43.73168" lon="5.96362">
        <ele>359.7</ele>
        <time>2023-06-11T10:42:32Z</time>
      </trkpt>
      <trkpt lat="43.73168" lon="5.96362">
        <ele>359.7</ele>
        <time>2023-06-11T10:42:33Z</time>
      </trkpt>
      <trkpt lat="43.73168" lon="5.96362">
        <ele>359.7</ele>
        <time>2023-06-11T10:42:34Z</time>
      </trkpt>
      <trkpt lat="43.73168" lon="5.96362">
        <ele>359.7</ele>
        <time>2023-06-11T10:42:35Z</time>
      </trkpt>
      <trkpt lat="43.73168" lon="5.96362">
        <ele>359.7</ele>
        <time>2023-06-11T10:42:36Z</time>
      </trkpt>
      <trkpt lat="43.73168" lon="5.96362">
        <ele>359.7</ele>
        <time>2023-06-11T10:42:37Z</time>
      </trkpt>
      <trkpt lat="43.73168" lon="5.96362">
        <ele>359.7</ele>
        <time>2023-06-11T10:42:38Z</time>
      </trkpt>
      <trkpt lat="43.73168" lon="5.96362">
        <ele>359.7</ele>
        <time>2023-06-11T10:42:39Z</time>
      </trkpt>
      <trkpt lat="43.73168" lon="5.96362">
        <ele>359.6</ele>
        <time>2023-06-11T10:42:40Z</time>
      </trkpt>
      <trkpt lat="43.73168" lon="5.96363">
        <ele>359.6</ele>
        <time>2023-06-11T10:42:41Z</time>
      </trkpt>
      <trkpt lat="43.73168" lon="5.96363">
        <ele>359.6</ele>
        <time>2023-06-11T10:42:42Z</time>
      </trkpt>
      <trkpt lat="43.73168" lon="5.96363">
        <ele>359.6</ele>
        <time>2023-06-11T10:42:43Z</time>
      </trkpt>
      <trkpt lat="43.73168" lon="5.96363">
        <ele>359.6</ele>
        <time>2023-06-11T10:42:44Z</time>
      </trkpt>
      <trkpt lat="43.73168" lon="5.96363">
        <ele>359.6</ele>
        <time>2023-06-11T10:42:45Z</time>
      </trkpt>
      <trkpt lat="43.73168" lon="5.96363">
        <ele>359.7</ele>
        <time>2023-06-11T10:42:46Z</time>
      </trkpt>
      <trkpt lat="43.73168" lon="5.96363">
        <ele>359.7</ele>
        <time>2023-06-11T10:42:47Z</time>
      </trkpt>
      <trkpt lat="43.73168" lon="5.96363">
        <ele>359.8</ele>
        <time>2023-06-11T10:42:48Z</time>
      </trkpt>
      <trkpt lat="43.73168" lon="5.96363">
        <ele>359.8</ele>
        <time>2023-06-11T10:42:49Z</time>
      </trkpt>
      <trkpt lat="43.73168" lon="5.96363">
        <ele>359.8</ele>
        <time>2023-06-11T10:42:50Z</time>
      </trkpt>
      <trkpt lat="43.73168" lon="5.96363">
        <ele>359.9</ele>
        <time>2023-06-11T10:42:51Z</time>
      </trkpt>
      <trkpt lat="43.73168" lon="5.96363">
        <ele>359.9</ele>
        <time>2023-06-11T10:42:52Z</time>
      </trkpt>
      <trkpt lat="43.73168" lon="5.96363">
        <ele>359.9</ele>
        <time>2023-06-11T10:42:53Z</time>
      </trkpt>
      <trkpt lat="43.73168" lon="5.96363">
        <ele>359.9</ele>
        <time>2023-06-11T10:42:54Z</time>
      </trkpt>
      <trkpt lat="43.73168" lon="5.96363">
        <ele>359.9</ele>
        <time>2023-06-11T10:42:55Z</time>
      </trkpt>
      <trkpt lat="43.73168" lon="5.96363">
        <ele>359.9</ele>
        <time>2023-06-11T10:42:56Z</time>
      </trkpt>
      <trkpt lat="43.73168" lon="5.96363">
        <ele>359.9</ele>
        <time>2023-06-11T10:42:57Z</time>
      </trkpt>
      <trkpt lat="43.73168" lon="5.96363">
        <ele>359.9</ele>
        <time>2023-06-11T10:42:58Z</time>
      </trkpt>
      <trkpt lat="43.73168" lon="5.96363">
        <ele>359.9</ele>
        <time>2023-06-11T10:42:59Z</time>
      </trkpt>
      <trkpt lat="43.73168" lon="5.96363">
        <ele>359.8</ele>
        <time>2023-06-11T10:43:00Z</time>
      </trkpt>
      <trkpt lat="43.73168" lon="5.96363">
        <ele>359.8</ele>
        <time>2023-06-11T10:43:01Z</time>
      </trkpt>
      <trkpt lat="43.73168" lon="5.96363">
        <ele>359.7</ele>
        <time>2023-06-11T10:43:02Z</time>
      </trkpt>
      <trkpt lat="43.73168" lon="5.96363">
        <ele>359.7</ele>
        <time>2023-06-11T10:43:03Z</time>
      </trkpt>
      <trkpt lat="43.73168" lon="5.96363">
        <ele>359.7</ele>
        <time>2023-06-11T10:43:04Z</time>
      </trkpt>
      <trkpt lat="43.73168" lon="5.96363">
        <ele>359.7</ele>
        <time>2023-06-11T10:43:05Z</time>
      </trkpt>
      <trkpt lat="43.73168" lon="5.96363">
        <ele>359.7</ele>
        <time>2023-06-11T10:43:06Z</time>
      </trkpt>
      <trkpt lat="43.73168" lon="5.96363">
        <ele>359.6</ele>
        <time>2023-06-11T10:43:07Z</time>
      </trkpt>
      <trkpt lat="43.73168" lon="5.96363">
        <ele>359.6</ele>
        <time>2023-06-11T10:43:08Z</time>
      </trkpt>
      <trkpt lat="43.73168" lon="5.96363">
        <ele>359.6</ele>
        <time>2023-06-11T10:43:09Z</time>
      </trkpt>
      <trkpt lat="43.73168" lon="5.96363">
        <ele>359.7</ele>
        <time>2023-06-11T10:43:10Z</time>
      </trkpt>
      <trkpt lat="43.73168" lon="5.96363">
        <ele>359.7</ele>
        <time>2023-06-11T10:43:11Z</time>
      </trkpt>
      <trkpt lat="43.73168" lon="5.96363">
        <ele>359.7</ele>
        <time>2023-06-11T10:43:12Z</time>
      </trkpt>
      <trkpt lat="43.73168" lon="5.96363">
        <ele>359.7</ele>
        <time>2023-06-11T10:43:13Z</time>
      </trkpt>
      <trkpt lat="43.73168" lon="5.96363">
        <ele>359.8</ele>
        <time>2023-06-11T10:43:14Z</time>
      </trkpt>
      <trkpt lat="43.73168" lon="5.96363">
        <ele>359.8</ele>
        <time>2023-06-11T10:43:15Z</time>
      </trkpt>
      <trkpt lat="43.73168" lon="5.96363">
        <ele>359.8</ele>
        <time>2023-06-11T10:43:16Z</time>
      </trkpt>
      <trkpt lat="43.73168" lon="5.96363">
        <ele>359.8</ele>
        <time>2023-06-11T10:43:17Z</time>
      </trkpt>
      <trkpt lat="43.73168" lon="5.96363">
        <ele>359.7</ele>
        <time>2023-06-11T10:43:18Z</time>
      </trkpt>
      <trkpt lat="43.73168" lon="5.96363">
        <ele>359.7</ele>
        <time>2023-06-11T10:43:19Z</time>
      </trkpt>
      <trkpt lat="43.73168" lon="5.96363">
        <ele>359.7</ele>
        <time>2023-06-11T10:43:20Z</time>
      </trkpt>
      <trkpt lat="43.73168" lon="5.96363">
        <ele>359.7</ele>
        <time>2023-06-11T10:43:21Z</time>
      </trkpt>
      <trkpt lat="43.73168" lon="5.96363">
        <ele>359.7</ele>
        <time>2023-06-11T10:43:22Z</time>
      </trkpt>
      <trkpt lat="43.73168" lon="5.96363">
        <ele>359.6</ele>
        <time>2023-06-11T10:43:23Z</time>
      </trkpt>
      <trkpt lat="43.73168" lon="5.96363">
        <ele>359.6</ele>
        <time>2023-06-11T10:43:24Z</time>
      </trkpt>
      <trkpt lat="43.73168" lon="5.96363">
        <ele>359.6</ele>
        <time>2023-06-11T10:43:25Z</time>
      </trkpt>
      <trkpt lat="43.73168" lon="5.96363">
        <ele>359.7</ele>
        <time>2023-06-11T10:43:26Z</time>
      </trkpt>
      <trkpt lat="43.73168" lon="5.96363">
        <ele>359.7</ele>
        <time>2023-06-11T10:43:27Z</time>
      </trkpt>
      <trkpt lat="43.73168" lon="5.96363">
        <ele>359.7</ele>
        <time>2023-06-11T10:43:28Z</time>
      </trkpt>
      <trkpt lat="43.73168" lon="5.96363">
        <ele>359.6</ele>
        <time>2023-06-11T10:43:29Z</time>
      </trkpt>
      <trkpt lat="43.73168" lon="5.96363">
        <ele>359.5</ele>
        <time>2023-06-11T10:43:30Z</time>
      </trkpt>
      <trkpt lat="43.73168" lon="5.96363">
        <ele>359.5</ele>
        <time>2023-06-11T10:43:31Z</time>
      </trkpt>
      <trkpt lat="43.73168" lon="5.96363">
        <ele>359.5</ele>
        <time>2023-06-11T10:43:32Z</time>
      </trkpt>
      <trkpt lat="43.73168" lon="5.96363">
        <ele>359.5</ele>
        <time>2023-06-11T10:43:33Z</time>
      </trkpt>
      <trkpt lat="43.73168" lon="5.96363">
        <ele>359.5</ele>
        <time>2023-06-11T10:43:34Z</time>
      </trkpt>
      <trkpt lat="43.73168" lon="5.96363">
        <ele>359.5</ele>
        <time>2023-06-11T10:43:35Z</time>
      </trkpt>
      <trkpt lat="43.73168" lon="5.96363">
        <ele>359.5</ele>
        <time>2023-06-11T10:43:36Z</time>
      </trkpt>
      <trkpt lat="43.73168" lon="5.96363">
        <ele>359.6</ele>
        <time>2023-06-11T10:43:37Z</time>
      </trkpt>
      <trkpt lat="43.73168" lon="5.96363">
        <ele>359.6</ele>
        <time>2023-06-11T10:43:38Z</time>
      </trkpt>
      <trkpt lat="43.73168" lon="5.96363">
        <ele>359.7</ele>
        <time>2023-06-11T10:43:39Z</time>
      </trkpt>
      <trkpt lat="43.73168" lon="5.96363">
        <ele>359.7</ele>
        <time>2023-06-11T10:43:40Z</time>
      </trkpt>
      <trkpt lat="43.73168" lon="5.96363">
        <ele>359.8</ele>
        <time>2023-06-11T10:43:41Z</time>
      </trkpt>
      <trkpt lat="43.73168" lon="5.96363">
        <ele>359.8</ele>
        <time>2023-06-11T10:43:42Z</time>
      </trkpt>
      <trkpt lat="43.73168" lon="5.96363">
        <ele>359.7</ele>
        <time>2023-06-11T10:43:43Z</time>
      </trkpt>
      <trkpt lat="43.73168" lon="5.96363">
        <ele>359.7</ele>
        <time>2023-06-11T10:43:44Z</time>
      </trkpt>
      <trkpt lat="43.73168" lon="5.96363">
        <ele>359.7</ele>
        <time>2023-06-11T10:43:45Z</time>
      </trkpt>
      <trkpt lat="43.73168" lon="5.96363">
        <ele>359.7</ele>
        <time>2023-06-11T10:43:46Z</time>
      </trkpt>
      <trkpt lat="43.73168" lon="5.96363">
        <ele>359.6</ele>
        <time>2023-06-11T10:43:47Z</time>
      </trkpt>
      <trkpt lat="43.73168" lon="5.96363">
        <ele>359.6</ele>
        <time>2023-06-11T10:43:48Z</time>
      </trkpt>
      <trkpt lat="43.73168" lon="5.96363">
        <ele>359.6</ele>
        <time>2023-06-11T10:43:49Z</time>
      </trkpt>
      <trkpt lat="43.73168" lon="5.96363">
        <ele>359.6</ele>
        <time>2023-06-11T10:43:50Z</time>
      </trkpt>
      <trkpt lat="43.73168" lon="5.96363">
        <ele>359.6</ele>
        <time>2023-06-11T10:43:51Z</time>
      </trkpt>
      <trkpt lat="43.73168" lon="5.96363">
        <ele>359.6</ele>
        <time>2023-06-11T10:43:52Z</time>
      </trkpt>
      <trkpt lat="43.73168" lon="5.96362">
        <ele>359.6</ele>
        <time>2023-06-11T10:43:53Z</time>
      </trkpt>
      <trkpt lat="43.73168" lon="5.96363">
        <ele>359.6</ele>
        <time>2023-06-11T10:43:54Z</time>
      </trkpt>
      <trkpt lat="43.73168" lon="5.96362">
        <ele>359.7</ele>
        <time>2023-06-11T10:43:55Z</time>
      </trkpt>
      <trkpt lat="43.73168" lon="5.96362">
        <ele>359.7</ele>
        <time>2023-06-11T10:43:56Z</time>
      </trkpt>
      <trkpt lat="43.73168" lon="5.96362">
        <ele>359.8</ele>
        <time>2023-06-11T10:43:57Z</time>
      </trkpt>
      <trkpt lat="43.73168" lon="5.96363">
        <ele>359.8</ele>
        <time>2023-06-11T10:43:58Z</time>
      </trkpt>
      <trkpt lat="43.73168" lon="5.96362">
        <ele>359.9</ele>
        <time>2023-06-11T10:43:59Z</time>
      </trkpt>
      <trkpt lat="43.73168" lon="5.96363">
        <ele>360</ele>
        <time>2023-06-11T10:44:00Z</time>
      </trkpt>
      <trkpt lat="43.73168" lon="5.96362">
        <ele>360</ele>
        <time>2023-06-11T10:44:01Z</time>
      </trkpt>
      <trkpt lat="43.73168" lon="5.96362">
        <ele>360</ele>
        <time>2023-06-11T10:44:02Z</time>
      </trkpt>
      <trkpt lat="43.73168" lon="5.96362">
        <ele>360</ele>
        <time>2023-06-11T10:44:03Z</time>
      </trkpt>
      <trkpt lat="43.73168" lon="5.96362">
        <ele>360</ele>
        <time>2023-06-11T10:44:04Z</time>
      </trkpt>
      <trkpt lat="43.73168" lon="5.96362">
        <ele>359.9</ele>
        <time>2023-06-11T10:44:05Z</time>
      </trkpt>
      <trkpt lat="43.73168" lon="5.96362">
        <ele>359.9</ele>
        <time>2023-06-11T10:44:06Z</time>
      </trkpt>
      <trkpt lat="43.73168" lon="5.96362">
        <ele>359.9</ele>
        <time>2023-06-11T10:44:07Z</time>
      </trkpt>
      <trkpt lat="43.73168" lon="5.96362">
        <ele>359.9</ele>
        <time>2023-06-11T10:44:08Z</time>
      </trkpt>
      <trkpt lat="43.73168" lon="5.96361">
        <ele>359.9</ele>
        <time>2023-06-11T10:44:09Z</time>
      </trkpt>
      <trkpt lat="43.73168" lon="5.96361">
        <ele>359.8</ele>
        <time>2023-06-11T10:44:10Z</time>
      </trkpt>
      <trkpt lat="43.73168" lon="5.96361">
        <ele>359.8</ele>
        <time>2023-06-11T10:44:11Z</time>
      </trkpt>
      <trkpt lat="43.73168" lon="5.96361">
        <ele>359.8</ele>
        <time>2023-06-11T10:44:12Z</time>
      </trkpt>
      <trkpt lat="43.73167" lon="5.96361">
        <ele>359.8</ele>
        <time>2023-06-11T10:44:13Z</time>
      </trkpt>
      <trkpt lat="43.73167" lon="5.96361">
        <ele>359.8</ele>
        <time>2023-06-11T10:44:14Z</time>
      </trkpt>
      <trkpt lat="43.73167" lon="5.96361">
        <ele>359.8</ele>
        <time>2023-06-11T10:44:15Z</time>
      </trkpt>
      <trkpt lat="43.73167" lon="5.96361">
        <ele>359.8</ele>
        <time>2023-06-11T10:44:16Z</time>
      </trkpt>
      <trkpt lat="43.73167" lon="5.96361">
        <ele>359.8</ele>
        <time>2023-06-11T10:44:17Z</time>
      </trkpt>
      <trkpt lat="43.73167" lon="5.96361">
        <ele>359.9</ele>
        <time>2023-06-11T10:44:18Z</time>
      </trkpt>
      <trkpt lat="43.73167" lon="5.96361">
        <ele>359.9</ele>
        <time>2023-06-11T10:44:19Z</time>
      </trkpt>
      <trkpt lat="43.73167" lon="5.96361">
        <ele>359.9</ele>
        <time>2023-06-11T10:44:20Z</time>
      </trkpt>
      <trkpt lat="43.73167" lon="5.96361">
        <ele>359.9</ele>
        <time>2023-06-11T10:44:21Z</time>
      </trkpt>
      <trkpt lat="43.73167" lon="5.96361">
        <ele>359.9</ele>
        <time>2023-06-11T10:44:22Z</time>
      </trkpt>
      <trkpt lat="43.73167" lon="5.9636">
        <ele>359.8</ele>
        <time>2023-06-11T10:44:23Z</time>
      </trkpt>
      <trkpt lat="43.73167" lon="5.9636">
        <ele>359.9</ele>
        <time>2023-06-11T10:44:24Z</time>
      </trkpt>
      <trkpt lat="43.73168" lon="5.9636">
        <ele>359.9</ele>
        <time>2023-06-11T10:44:25Z</time>
      </trkpt>
      <trkpt lat="43.73168" lon="5.9636">
        <ele>359.9</ele>
        <time>2023-06-11T10:44:26Z</time>
      </trkpt>
      <trkpt lat="43.73167" lon="5.9636">
        <ele>360</ele>
        <time>2023-06-11T10:44:27Z</time>
      </trkpt>
      <trkpt lat="43.73167" lon="5.9636">
        <ele>360</ele>
        <time>2023-06-11T10:44:28Z</time>
      </trkpt>
      <trkpt lat="43.73167" lon="5.9636">
        <ele>360.1</ele>
        <time>2023-06-11T10:44:29Z</time>
      </trkpt>
      <trkpt lat="43.73167" lon="5.9636">
        <ele>360</ele>
        <time>2023-06-11T10:44:30Z</time>
      </trkpt>
      <trkpt lat="43.73167" lon="5.9636">
        <ele>360</ele>
        <time>2023-06-11T10:44:31Z</time>
      </trkpt>
      <trkpt lat="43.73167" lon="5.9636">
        <ele>359.9</ele>
        <time>2023-06-11T10:44:32Z</time>
      </trkpt>
      <trkpt lat="43.73167" lon="5.9636">
        <ele>359.9</ele>
        <time>2023-06-11T10:44:33Z</time>
      </trkpt>
      <trkpt lat="43.73167" lon="5.9636">
        <ele>359.9</ele>
        <time>2023-06-11T10:44:34Z</time>
      </trkpt>
      <trkpt lat="43.73167" lon="5.9636">
        <ele>360</ele>
        <time>2023-06-11T10:44:35Z</time>
      </trkpt>
      <trkpt lat="43.73167" lon="5.96359">
        <ele>360</ele>
        <time>2023-06-11T10:44:36Z</time>
      </trkpt>
      <trkpt lat="43.73167" lon="5.96359">
        <ele>360</ele>
        <time>2023-06-11T10:44:37Z</time>
      </trkpt>
      <trkpt lat="43.73167" lon="5.96359">
        <ele>360</ele>
        <time>2023-06-11T10:44:38Z</time>
      </trkpt>
      <trkpt lat="43.73167" lon="5.96359">
        <ele>360</ele>
        <time>2023-06-11T10:44:39Z</time>
      </trkpt>
      <trkpt lat="43.73167" lon="5.96359">
        <ele>360</ele>
        <time>2023-06-11T10:44:40Z</time>
      </trkpt>
      <trkpt lat="43.73167" lon="5.96359">
        <ele>360</ele>
        <time>2023-06-11T10:44:41Z</time>
      </trkpt>
      <trkpt lat="43.73167" lon="5.96359">
        <ele>360.1</ele>
        <time>2023-06-11T10:44:42Z</time>
      </trkpt>
      <trkpt lat="43.73167" lon="5.96359">
        <ele>360.1</ele>
        <time>2023-06-11T10:44:43Z</time>
      </trkpt>
      <trkpt lat="43.73167" lon="5.96359">
        <ele>360.2</ele>
        <time>2023-06-11T10:44:44Z</time>
      </trkpt>
      <trkpt lat="43.73167" lon="5.96359">
        <ele>360.1</ele>
        <time>2023-06-11T10:44:45Z</time>
      </trkpt>
      <trkpt lat="43.73167" lon="5.96359">
        <ele>360.1</ele>
        <time>2023-06-11T10:44:46Z</time>
      </trkpt>
      <trkpt lat="43.73168" lon="5.96359">
        <ele>360.2</ele>
        <time>2023-06-11T10:44:47Z</time>
      </trkpt>
      <trkpt lat="43.73168" lon="5.96359">
        <ele>360.2</ele>
        <time>2023-06-11T10:44:48Z</time>
      </trkpt>
      <trkpt lat="43.73168" lon="5.96359">
        <ele>360.2</ele>
        <time>2023-06-11T10:44:49Z</time>
      </trkpt>
      <trkpt lat="43.73168" lon="5.96359">
        <ele>360</ele>
        <time>2023-06-11T10:44:50Z</time>
      </trkpt>
      <trkpt lat="43.73168" lon="5.96359">
        <ele>359.9</ele>
        <time>2023-06-11T10:44:51Z</time>
      </trkpt>
      <trkpt lat="43.73168" lon="5.96359">
        <ele>359.8</ele>
        <time>2023-06-11T10:44:52Z</time>
      </trkpt>
      <trkpt lat="43.73168" lon="5.96359">
        <ele>359.7</ele>
        <time>2023-06-11T10:44:53Z</time>
      </trkpt>
      <trkpt lat="43.73168" lon="5.96359">
        <ele>359.6</ele>
        <time>2023-06-11T10:44:54Z</time>
      </trkpt>
      <trkpt lat="43.73168" lon="5.96358">
        <ele>359.6</ele>
        <time>2023-06-11T10:44:55Z</time>
      </trkpt>
      <trkpt lat="43.73168" lon="5.96358">
        <ele>359.5</ele>
        <time>2023-06-11T10:44:56Z</time>
      </trkpt>
      <trkpt lat="43.73168" lon="5.96358">
        <ele>359.5</ele>
        <time>2023-06-11T10:44:57Z</time>
      </trkpt>
      <trkpt lat="43.73168" lon="5.96358">
        <ele>359.5</ele>
        <time>2023-06-11T10:44:58Z</time>
      </trkpt>
      <trkpt lat="43.73168" lon="5.96358">
        <ele>359.5</ele>
        <time>2023-06-11T10:44:59Z</time>
      </trkpt>
      <trkpt lat="43.73168" lon="5.96358">
        <ele>359.4</ele>
        <time>2023-06-11T10:45:00Z</time>
      </trkpt>
      <trkpt lat="43.73168" lon="5.96358">
        <ele>359.4</ele>
        <time>2023-06-11T10:45:01Z</time>
      </trkpt>
      <trkpt lat="43.73168" lon="5.96358">
        <ele>359.4</ele>
        <time>2023-06-11T10:45:02Z</time>
      </trkpt>
      <trkpt lat="43.73168" lon="5.96358">
        <ele>359.4</ele>
        <time>2023-06-11T10:45:03Z</time>
      </trkpt>
      <trkpt lat="43.73168" lon="5.96357">
        <ele>359.4</ele>
        <time>2023-06-11T10:45:04Z</time>
      </trkpt>
      <trkpt lat="43.73168" lon="5.96357">
        <ele>359.4</ele>
        <time>2023-06-11T10:45:05Z</time>
      </trkpt>
      <trkpt lat="43.73167" lon="5.96358">
        <ele>359.4</ele>
        <time>2023-06-11T10:45:06Z</time>
      </trkpt>
      <trkpt lat="43.73167" lon="5.96358">
        <ele>359.5</ele>
        <time>2023-06-11T10:45:07Z</time>
      </trkpt>
      <trkpt lat="43.73167" lon="5.96358">
        <ele>359.6</ele>
        <time>2023-06-11T10:45:08Z</time>
      </trkpt>
      <trkpt lat="43.73167" lon="5.96358">
        <ele>359.6</ele>
        <time>2023-06-11T10:45:09Z</time>
      </trkpt>
      <trkpt lat="43.73167" lon="5.96358">
        <ele>359.6</ele>
        <time>2023-06-11T10:45:10Z</time>
      </trkpt>
      <trkpt lat="43.73167" lon="5.96358">
        <ele>359.6</ele>
        <time>2023-06-11T10:45:11Z</time>
      </trkpt>
      <trkpt lat="43.73167" lon="5.96358">
        <ele>359.5</ele>
        <time>2023-06-11T10:45:12Z</time>
      </trkpt>
      <trkpt lat="43.73167" lon="5.96358">
        <ele>359.5</ele>
        <time>2023-06-11T10:45:13Z</time>
      </trkpt>
      <trkpt lat="43.73167" lon="5.96358">
        <ele>359.5</ele>
        <time>2023-06-11T10:45:14Z</time>
      </trkpt>
      <trkpt lat="43.73167" lon="5.96358">
        <ele>359.5</ele>
        <time>2023-06-11T10:45:15Z</time>
      </trkpt>
      <trkpt lat="43.73167" lon="5.96358">
        <ele>359.6</ele>
        <time>2023-06-11T10:45:16Z</time>
      </trkpt>
      <trkpt lat="43.73167" lon="5.96359">
        <ele>359.7</ele>
        <time>2023-06-11T10:45:17Z</time>
      </trkpt>
      <trkpt lat="43.73166" lon="5.96359">
        <ele>359.7</ele>
        <time>2023-06-11T10:45:18Z</time>
      </trkpt>
      <trkpt lat="43.73166" lon="5.96359">
        <ele>359.7</ele>
        <time>2023-06-11T10:45:19Z</time>
      </trkpt>
      <trkpt lat="43.73166" lon="5.96359">
        <ele>359.7</ele>
        <time>2023-06-11T10:45:20Z</time>
      </trkpt>
      <trkpt lat="43.73166" lon="5.96359">
        <ele>359.7</ele>
        <time>2023-06-11T10:45:21Z</time>
      </trkpt>
      <trkpt lat="43.73166" lon="5.96359">
        <ele>359.7</ele>
        <time>2023-06-11T10:45:22Z</time>
      </trkpt>
      <trkpt lat="43.73166" lon="5.96359">
        <ele>359.7</ele>
        <time>2023-06-11T10:45:23Z</time>
      </trkpt>
      <trkpt lat="43.73166" lon="5.96359">
        <ele>359.7</ele>
        <time>2023-06-11T10:45:24Z</time>
      </trkpt>
      <trkpt lat="43.73166" lon="5.96359">
        <ele>359.7</ele>
        <time>2023-06-11T10:45:25Z</time>
      </trkpt>
      <trkpt lat="43.73166" lon="5.96359">
        <ele>359.8</ele>
        <time>2023-06-11T10:45:26Z</time>
      </trkpt>
      <trkpt lat="43.73166" lon="5.96359">
        <ele>359.8</ele>
        <time>2023-06-11T10:45:27Z</time>
      </trkpt>
      <trkpt lat="43.73166" lon="5.9636">
        <ele>359.8</ele>
        <time>2023-06-11T10:45:28Z</time>
      </trkpt>
      <trkpt lat="43.73166" lon="5.9636">
        <ele>359.8</ele>
        <time>2023-06-11T10:45:29Z</time>
      </trkpt>
      <trkpt lat="43.73166" lon="5.9636">
        <ele>359.8</ele>
        <time>2023-06-11T10:45:30Z</time>
      </trkpt>
      <trkpt lat="43.73166" lon="5.9636">
        <ele>359.8</ele>
        <time>2023-06-11T10:45:31Z</time>
      </trkpt>
      <trkpt lat="43.73166" lon="5.9636">
        <ele>359.8</ele>
        <time>2023-06-11T10:45:32Z</time>
      </trkpt>
      <trkpt lat="43.73166" lon="5.9636">
        <ele>359.8</ele>
        <time>2023-06-11T10:45:33Z</time>
      </trkpt>
      <trkpt lat="43.73166" lon="5.9636">
        <ele>359.9</ele>
        <time>2023-06-11T10:45:34Z</time>
      </trkpt>
      <trkpt lat="43.73166" lon="5.9636">
        <ele>359.9</ele>
        <time>2023-06-11T10:45:35Z</time>
      </trkpt>
      <trkpt lat="43.73166" lon="5.9636">
        <ele>360</ele>
        <time>2023-06-11T10:45:36Z</time>
      </trkpt>
      <trkpt lat="43.73166" lon="5.9636">
        <ele>360</ele>
        <time>2023-06-11T10:45:37Z</time>
      </trkpt>
      <trkpt lat="43.73166" lon="5.9636">
        <ele>359.9</ele>
        <time>2023-06-11T10:45:38Z</time>
      </trkpt>
      <trkpt lat="43.73166" lon="5.9636">
        <ele>359.9</ele>
        <time>2023-06-11T10:45:39Z</time>
      </trkpt>
      <trkpt lat="43.73166" lon="5.96361">
        <ele>359.8</ele>
        <time>2023-06-11T10:45:40Z</time>
      </trkpt>
      <trkpt lat="43.73166" lon="5.96361">
        <ele>359.8</ele>
        <time>2023-06-11T10:45:41Z</time>
      </trkpt>
      <trkpt lat="43.73166" lon="5.96361">
        <ele>359.8</ele>
        <time>2023-06-11T10:45:42Z</time>
      </trkpt>
      <trkpt lat="43.73166" lon="5.96361">
        <ele>359.8</ele>
        <time>2023-06-11T10:45:43Z</time>
      </trkpt>
      <trkpt lat="43.73166" lon="5.96361">
        <ele>359.7</ele>
        <time>2023-06-11T10:45:44Z</time>
      </trkpt>
      <trkpt lat="43.73166" lon="5.96361">
        <ele>359.7</ele>
        <time>2023-06-11T10:45:45Z</time>
      </trkpt>
      <trkpt lat="43.73166" lon="5.96361">
        <ele>359.7</ele>
        <time>2023-06-11T10:45:46Z</time>
      </trkpt>
      <trkpt lat="43.73166" lon="5.96362">
        <ele>359.8</ele>
        <time>2023-06-11T10:45:47Z</time>
      </trkpt>
      <trkpt lat="43.73166" lon="5.96362">
        <ele>359.9</ele>
        <time>2023-06-11T10:45:48Z</time>
      </trkpt>
      <trkpt lat="43.73166" lon="5.96362">
        <ele>359.9</ele>
        <time>2023-06-11T10:45:49Z</time>
      </trkpt>
      <trkpt lat="43.73166" lon="5.96362">
        <ele>359.9</ele>
        <time>2023-06-11T10:45:50Z</time>
      </trkpt>
      <trkpt lat="43.73166" lon="5.96362">
        <ele>359.9</ele>
        <time>2023-06-11T10:45:51Z</time>
      </trkpt>
      <trkpt lat="43.73166" lon="5.96362">
        <ele>359.8</ele>
        <time>2023-06-11T10:45:52Z</time>
      </trkpt>
      <trkpt lat="43.73166" lon="5.96362">
        <ele>359.8</ele>
        <time>2023-06-11T10:45:53Z</time>
      </trkpt>
      <trkpt lat="43.73166" lon="5.96363">
        <ele>359.8</ele>
        <time>2023-06-11T10:45:54Z</time>
      </trkpt>
      <trkpt lat="43.73166" lon="5.96363">
        <ele>359.8</ele>
        <time>2023-06-11T10:45:55Z</time>
      </trkpt>
      <trkpt lat="43.73166" lon="5.96363">
        <ele>359.8</ele>
        <time>2023-06-11T10:45:56Z</time>
      </trkpt>
      <trkpt lat="43.73166" lon="5.96363">
        <ele>359.8</ele>
        <time>2023-06-11T10:45:57Z</time>
      </trkpt>
      <trkpt lat="43.73166" lon="5.96363">
        <ele>359.9</ele>
        <time>2023-06-11T10:45:58Z</time>
      </trkpt>
      <trkpt lat="43.73166" lon="5.96363">
        <ele>360</ele>
        <time>2023-06-11T10:45:59Z</time>
      </trkpt>
      <trkpt lat="43.73166" lon="5.96363">
        <ele>360</ele>
        <time>2023-06-11T10:46:00Z</time>
      </trkpt>
      <trkpt lat="43.73166" lon="5.96363">
        <ele>360</ele>
        <time>2023-06-11T10:46:01Z</time>
      </trkpt>
      <trkpt lat="43.73166" lon="5.96363">
        <ele>360</ele>
        <time>2023-06-11T10:46:02Z</time>
      </trkpt>
      <trkpt lat="43.73165" lon="5.96363">
        <ele>359.9</ele>
        <time>2023-06-11T10:46:03Z</time>
      </trkpt>
      <trkpt lat="43.73165" lon="5.96363">
        <ele>359.9</ele>
        <time>2023-06-11T10:46:04Z</time>
      </trkpt>
      <trkpt lat="43.73165" lon="5.96363">
        <ele>359.9</ele>
        <time>2023-06-11T10:46:05Z</time>
      </trkpt>
      <trkpt lat="43.73165" lon="5.96363">
        <ele>359.8</ele>
        <time>2023-06-11T10:46:06Z</time>
      </trkpt>
      <trkpt lat="43.73165" lon="5.96363">
        <ele>359.8</ele>
        <time>2023-06-11T10:46:07Z</time>
      </trkpt>
      <trkpt lat="43.73165" lon="5.96363">
        <ele>359.8</ele>
        <time>2023-06-11T10:46:08Z</time>
      </trkpt>
      <trkpt lat="43.73165" lon="5.96364">
        <ele>359.8</ele>
        <time>2023-06-11T10:46:09Z</time>
      </trkpt>
      <trkpt lat="43.73165" lon="5.96364">
        <ele>359.8</ele>
        <time>2023-06-11T10:46:10Z</time>
      </trkpt>
      <trkpt lat="43.73165" lon="5.96364">
        <ele>359.8</ele>
        <time>2023-06-11T10:46:11Z</time>
      </trkpt>
      <trkpt lat="43.73165" lon="5.96364">
        <ele>359.8</ele>
        <time>2023-06-11T10:46:12Z</time>
      </trkpt>
      <trkpt lat="43.73165" lon="5.96364">
        <ele>359.8</ele>
        <time>2023-06-11T10:46:13Z</time>
      </trkpt>
      <trkpt lat="43.73165" lon="5.96364">
        <ele>359.8</ele>
        <time>2023-06-11T10:46:14Z</time>
      </trkpt>
      <trkpt lat="43.73165" lon="5.96364">
        <ele>359.7</ele>
        <time>2023-06-11T10:46:15Z</time>
      </trkpt>
      <trkpt lat="43.73165" lon="5.96364">
        <ele>359.7</ele>
        <time>2023-06-11T10:46:16Z</time>
      </trkpt>
      <trkpt lat="43.73165" lon="5.96364">
        <ele>359.7</ele>
        <time>2023-06-11T10:46:17Z</time>
      </trkpt>
      <trkpt lat="43.73165" lon="5.96364">
        <ele>359.7</ele>
        <time>2023-06-11T10:46:18Z</time>
      </trkpt>
      <trkpt lat="43.73165" lon="5.96364">
        <ele>359.7</ele>
        <time>2023-06-11T10:46:19Z</time>
      </trkpt>
      <trkpt lat="43.73165" lon="5.96365">
        <ele>359.7</ele>
        <time>2023-06-11T10:46:20Z</time>
      </trkpt>
      <trkpt lat="43.73165" lon="5.96365">
        <ele>359.7</ele>
        <time>2023-06-11T10:46:21Z</time>
      </trkpt>
      <trkpt lat="43.73165" lon="5.96365">
        <ele>359.8</ele>
        <time>2023-06-11T10:46:22Z</time>
      </trkpt>
      <trkpt lat="43.73165" lon="5.96365">
        <ele>359.8</ele>
        <time>2023-06-11T10:46:23Z</time>
      </trkpt>
      <trkpt lat="43.73165" lon="5.96365">
        <ele>359.8</ele>
        <time>2023-06-11T10:46:24Z</time>
      </trkpt>
      <trkpt lat="43.73165" lon="5.96365">
        <ele>359.9</ele>
        <time>2023-06-11T10:46:25Z</time>
      </trkpt>
      <trkpt lat="43.73165" lon="5.96365">
        <ele>359.9</ele>
        <time>2023-06-11T10:46:26Z</time>
      </trkpt>
      <trkpt lat="43.73165" lon="5.96365">
        <ele>360</ele>
        <time>2023-06-11T10:46:27Z</time>
      </trkpt>
      <trkpt lat="43.73165" lon="5.96365">
        <ele>360</ele>
        <time>2023-06-11T10:46:28Z</time>
      </trkpt>
      <trkpt lat="43.73165" lon="5.96365">
        <ele>359.9</ele>
        <time>2023-06-11T10:46:29Z</time>
      </trkpt>
      <trkpt lat="43.73165" lon="5.96365">
        <ele>359.8</ele>
        <time>2023-06-11T10:46:30Z</time>
      </trkpt>
      <trkpt lat="43.73165" lon="5.96365">
        <ele>359.8</ele>
        <time>2023-06-11T10:46:31Z</time>
      </trkpt>
      <trkpt lat="43.73165" lon="5.96365">
        <ele>359.8</ele>
        <time>2023-06-11T10:46:32Z</time>
      </trkpt>
      <trkpt lat="43.73165" lon="5.96365">
        <ele>359.8</ele>
        <time>2023-06-11T10:46:33Z</time>
      </trkpt>
      <trkpt lat="43.73165" lon="5.96365">
        <ele>359.7</ele>
        <time>2023-06-11T10:46:34Z</time>
      </trkpt>
      <trkpt lat="43.73165" lon="5.96365">
        <ele>359.7</ele>
        <time>2023-06-11T10:46:35Z</time>
      </trkpt>
      <trkpt lat="43.73165" lon="5.96365">
        <ele>359.7</ele>
        <time>2023-06-11T10:46:36Z</time>
      </trkpt>
      <trkpt lat="43.73165" lon="5.96365">
        <ele>359.7</ele>
        <time>2023-06-11T10:46:37Z</time>
      </trkpt>
      <trkpt lat="43.73165" lon="5.96365">
        <ele>359.6</ele>
        <time>2023-06-11T10:46:38Z</time>
      </trkpt>
      <trkpt lat="43.73165" lon="5.96365">
        <ele>359.7</ele>
        <time>2023-06-11T10:46:39Z</time>
      </trkpt>
      <trkpt lat="43.73165" lon="5.96365">
        <ele>359.7</ele>
        <time>2023-06-11T10:46:40Z</time>
      </trkpt>
      <trkpt lat="43.73165" lon="5.96365">
        <ele>359.7</ele>
        <time>2023-06-11T10:46:41Z</time>
      </trkpt>
      <trkpt lat="43.73165" lon="5.96365">
        <ele>359.7</ele>
        <time>2023-06-11T10:46:42Z</time>
      </trkpt>
      <trkpt lat="43.73165" lon="5.96365">
        <ele>359.6</ele>
        <time>2023-06-11T10:46:43Z</time>
      </trkpt>
      <trkpt lat="43.73165" lon="5.96365">
        <ele>359.6</ele>
        <time>2023-06-11T10:46:44Z</time>
      </trkpt>
      <trkpt lat="43.73165" lon="5.96365">
        <ele>359.7</ele>
        <time>2023-06-11T10:46:45Z</time>
      </trkpt>
      <trkpt lat="43.73165" lon="5.96365">
        <ele>359.7</ele>
        <time>2023-06-11T10:46:46Z</time>
      </trkpt>
      <trkpt lat="43.73165" lon="5.96365">
        <ele>359.7</ele>
        <time>2023-06-11T10:46:47Z</time>
      </trkpt>
      <trkpt lat="43.73165" lon="5.96365">
        <ele>359.8</ele>
        <time>2023-06-11T10:46:48Z</time>
      </trkpt>
      <trkpt lat="43.73165" lon="5.96365">
        <ele>359.8</ele>
        <time>2023-06-11T10:46:49Z</time>
      </trkpt>
      <trkpt lat="43.73165" lon="5.96365">
        <ele>359.8</ele>
        <time>2023-06-11T10:46:50Z</time>
      </trkpt>
      <trkpt lat="43.73165" lon="5.96365">
        <ele>359.8</ele>
        <time>2023-06-11T10:46:51Z</time>
      </trkpt>
      <trkpt lat="43.73165" lon="5.96365">
        <ele>359.9</ele>
        <time>2023-06-11T10:46:52Z</time>
      </trkpt>
      <trkpt lat="43.73165" lon="5.96365">
        <ele>359.8</ele>
        <time>2023-06-11T10:46:53Z</time>
      </trkpt>
      <trkpt lat="43.73165" lon="5.96365">
        <ele>359.8</ele>
        <time>2023-06-11T10:46:54Z</time>
      </trkpt>
      <trkpt lat="43.73165" lon="5.96365">
        <ele>359.9</ele>
        <time>2023-06-11T10:46:55Z</time>
      </trkpt>
      <trkpt lat="43.73165" lon="5.96365">
        <ele>359.8</ele>
        <time>2023-06-11T10:46:56Z</time>
      </trkpt>
      <trkpt lat="43.73165" lon="5.96365">
        <ele>359.8</ele>
        <time>2023-06-11T10:46:57Z</time>
      </trkpt>
      <trkpt lat="43.73165" lon="5.96365">
        <ele>359.8</ele>
        <time>2023-06-11T10:46:58Z</time>
      </trkpt>
      <trkpt lat="43.73165" lon="5.96365">
        <ele>359.8</ele>
        <time>2023-06-11T10:46:59Z</time>
      </trkpt>
      <trkpt lat="43.73164" lon="5.96365">
        <ele>359.8</ele>
        <time>2023-06-11T10:47:00Z</time>
      </trkpt>
      <trkpt lat="43.73164" lon="5.96365">
        <ele>359.7</ele>
        <time>2023-06-11T10:47:01Z</time>
      </trkpt>
      <trkpt lat="43.73164" lon="5.96365">
        <ele>359.8</ele>
        <time>2023-06-11T10:47:02Z</time>
      </trkpt>
      <trkpt lat="43.73164" lon="5.96364">
        <ele>359.8</ele>
        <time>2023-06-11T10:47:03Z</time>
      </trkpt>
      <trkpt lat="43.73164" lon="5.96364">
        <ele>359.9</ele>
        <time>2023-06-11T10:47:04Z</time>
      </trkpt>
      <trkpt lat="43.73164" lon="5.96364">
        <ele>359.9</ele>
        <time>2023-06-11T10:47:05Z</time>
      </trkpt>
      <trkpt lat="43.73164" lon="5.96364">
        <ele>359.9</ele>
        <time>2023-06-11T10:47:06Z</time>
      </trkpt>
      <trkpt lat="43.73164" lon="5.96364">
        <ele>359.9</ele>
        <time>2023-06-11T10:47:07Z</time>
      </trkpt>
      <trkpt lat="43.73164" lon="5.96364">
        <ele>359.9</ele>
        <time>2023-06-11T10:47:08Z</time>
      </trkpt>
      <trkpt lat="43.73164" lon="5.96364">
        <ele>359.8</ele>
        <time>2023-06-11T10:47:09Z</time>
      </trkpt>
      <trkpt lat="43.73164" lon="5.96364">
        <ele>359.8</ele>
        <time>2023-06-11T10:47:10Z</time>
      </trkpt>
      <trkpt lat="43.73164" lon="5.96364">
        <ele>359.9</ele>
        <time>2023-06-11T10:47:11Z</time>
      </trkpt>
      <trkpt lat="43.73164" lon="5.96364">
        <ele>359.9</ele>
        <time>2023-06-11T10:47:12Z</time>
      </trkpt>
      <trkpt lat="43.73164" lon="5.96364">
        <ele>359.9</ele>
        <time>2023-06-11T10:47:13Z</time>
      </trkpt>
      <trkpt lat="43.73164" lon="5.96364">
        <ele>359.8</ele>
        <time>2023-06-11T10:47:14Z</time>
      </trkpt>
      <trkpt lat="43.73164" lon="5.96364">
        <ele>359.8</ele>
        <time>2023-06-11T10:47:15Z</time>
      </trkpt>
      <trkpt lat="43.73164" lon="5.96364">
        <ele>359.8</ele>
        <time>2023-06-11T10:47:16Z</time>
      </trkpt>
      <trkpt lat="43.73164" lon="5.96363">
        <ele>359.8</ele>
        <time>2023-06-11T10:47:17Z</time>
      </trkpt>
      <trkpt lat="43.73164" lon="5.96363">
        <ele>359.8</ele>
        <time>2023-06-11T10:47:18Z</time>
      </trkpt>
      <trkpt lat="43.73164" lon="5.96363">
        <ele>359.8</ele>
        <time>2023-06-11T10:47:19Z</time>
      </trkpt>
      <trkpt lat="43.73164" lon="5.96363">
        <ele>359.8</ele>
        <time>2023-06-11T10:47:20Z</time>
      </trkpt>
      <trkpt lat="43.73164" lon="5.96363">
        <ele>359.9</ele>
        <time>2023-06-11T10:47:21Z</time>
      </trkpt>
      <trkpt lat="43.73164" lon="5.96363">
        <ele>359.9</ele>
        <time>2023-06-11T10:47:22Z</time>
      </trkpt>
      <trkpt lat="43.73164" lon="5.96363">
        <ele>359.9</ele>
        <time>2023-06-11T10:47:23Z</time>
      </trkpt>
      <trkpt lat="43.73164" lon="5.96363">
        <ele>359.9</ele>
        <time>2023-06-11T10:47:24Z</time>
      </trkpt>
      <trkpt lat="43.73164" lon="5.96362">
        <ele>359.9</ele>
        <time>2023-06-11T10:47:25Z</time>
      </trkpt>
      <trkpt lat="43.73164" lon="5.96362">
        <ele>359.8</ele>
        <time>2023-06-11T10:47:26Z</time>
      </trkpt>
      <trkpt lat="43.73164" lon="5.96362">
        <ele>359.8</ele>
        <time>2023-06-11T10:47:27Z</time>
      </trkpt>
      <trkpt lat="43.73164" lon="5.96362">
        <ele>359.8</ele>
        <time>2023-06-11T10:47:28Z</time>
      </trkpt>
      <trkpt lat="43.73164" lon="5.96362">
        <ele>359.8</ele>
        <time>2023-06-11T10:47:29Z</time>
      </trkpt>
      <trkpt lat="43.73164" lon="5.96362">
        <ele>359.8</ele>
        <time>2023-06-11T10:47:30Z</time>
      </trkpt>
      <trkpt lat="43.73164" lon="5.96362">
        <ele>359.8</ele>
        <time>2023-06-11T10:47:31Z</time>
      </trkpt>
      <trkpt lat="43.73164" lon="5.96362">
        <ele>359.8</ele>
        <time>2023-06-11T10:47:32Z</time>
      </trkpt>
      <trkpt lat="43.73164" lon="5.96362">
        <ele>359.8</ele>
        <time>2023-06-11T10:47:33Z</time>
      </trkpt>
      <trkpt lat="43.73164" lon="5.96362">
        <ele>359.7</ele>
        <time>2023-06-11T10:47:34Z</time>
      </trkpt>
      <trkpt lat="43.73164" lon="5.96362">
        <ele>359.7</ele>
        <time>2023-06-11T10:47:35Z</time>
      </trkpt>
      <trkpt lat="43.73164" lon="5.96362">
        <ele>359.7</ele>
        <time>2023-06-11T10:47:36Z</time>
      </trkpt>
      <trkpt lat="43.73164" lon="5.96362">
        <ele>359.7</ele>
        <time>2023-06-11T10:47:37Z</time>
      </trkpt>
      <trkpt lat="43.73164" lon="5.96362">
        <ele>359.7</ele>
        <time>2023-06-11T10:47:38Z</time>
      </trkpt>
      <trkpt lat="43.73164" lon="5.96362">
        <ele>359.7</ele>
        <time>2023-06-11T10:47:39Z</time>
      </trkpt>
      <trkpt lat="43.73164" lon="5.96362">
        <ele>359.7</ele>
        <time>2023-06-11T10:47:40Z</time>
      </trkpt>
      <trkpt lat="43.73164" lon="5.96361">
        <ele>359.8</ele>
        <time>2023-06-11T10:47:41Z</time>
      </trkpt>
      <trkpt lat="43.73164" lon="5.96362">
        <ele>359.8</ele>
        <time>2023-06-11T10:47:42Z</time>
      </trkpt>
      <trkpt lat="43.73164" lon="5.96361">
        <ele>359.7</ele>
        <time>2023-06-11T10:47:43Z</time>
      </trkpt>
      <trkpt lat="43.73164" lon="5.96361">
        <ele>359.7</ele>
        <time>2023-06-11T10:47:44Z</time>
      </trkpt>
      <trkpt lat="43.73164" lon="5.96361">
        <ele>359.7</ele>
        <time>2023-06-11T10:47:45Z</time>
      </trkpt>
      <trkpt lat="43.73164" lon="5.96361">
        <ele>359.7</ele>
        <time>2023-06-11T10:47:46Z</time>
      </trkpt>
      <trkpt lat="43.73164" lon="5.96361">
        <ele>359.6</ele>
        <time>2023-06-11T10:47:47Z</time>
      </trkpt>
      <trkpt lat="43.73164" lon="5.96361">
        <ele>359.6</ele>
        <time>2023-06-11T10:47:48Z</time>
      </trkpt>
      <trkpt lat="43.73164" lon="5.96361">
        <ele>359.7</ele>
        <time>2023-06-11T10:47:49Z</time>
      </trkpt>
      <trkpt lat="43.73164" lon="5.96361">
        <ele>359.7</ele>
        <time>2023-06-11T10:47:50Z</time>
      </trkpt>
      <trkpt lat="43.73164" lon="5.96361">
        <ele>359.6</ele>
        <time>2023-06-11T10:47:51Z</time>
      </trkpt>
      <trkpt lat="43.73164" lon="5.96361">
        <ele>359.6</ele>
        <time>2023-06-11T10:47:52Z</time>
      </trkpt>
      <trkpt lat="43.73164" lon="5.96361">
        <ele>359.6</ele>
        <time>2023-06-11T10:47:53Z</time>
      </trkpt>
      <trkpt lat="43.73164" lon="5.96361">
        <ele>359.6</ele>
        <time>2023-06-11T10:47:54Z</time>
      </trkpt>
      <trkpt lat="43.73164" lon="5.96361">
        <ele>359.6</ele>
        <time>2023-06-11T10:47:55Z</time>
      </trkpt>
      <trkpt lat="43.73164" lon="5.96361">
        <ele>359.6</ele>
        <time>2023-06-11T10:47:56Z</time>
      </trkpt>
      <trkpt lat="43.73164" lon="5.9636">
        <ele>359.5</ele>
        <time>2023-06-11T10:47:57Z</time>
      </trkpt>
      <trkpt lat="43.73164" lon="5.9636">
        <ele>359.5</ele>
        <time>2023-06-11T10:47:58Z</time>
      </trkpt>
      <trkpt lat="43.73164" lon="5.9636">
        <ele>359.5</ele>
        <time>2023-06-11T10:47:59Z</time>
      </trkpt>
      <trkpt lat="43.73164" lon="5.9636">
        <ele>359.6</ele>
        <time>2023-06-11T10:48:00Z</time>
      </trkpt>
      <trkpt lat="43.73164" lon="5.9636">
        <ele>359.6</ele>
        <time>2023-06-11T10:48:01Z</time>
      </trkpt>
      <trkpt lat="43.73164" lon="5.9636">
        <ele>359.5</ele>
        <time>2023-06-11T10:48:02Z</time>
      </trkpt>
      <trkpt lat="43.73164" lon="5.9636">
        <ele>359.6</ele>
        <time>2023-06-11T10:48:03Z</time>
      </trkpt>
      <trkpt lat="43.73164" lon="5.9636">
        <ele>359.6</ele>
        <time>2023-06-11T10:48:04Z</time>
      </trkpt>
      <trkpt lat="43.73164" lon="5.9636">
        <ele>359.5</ele>
        <time>2023-06-11T10:48:05Z</time>
      </trkpt>
      <trkpt lat="43.73164" lon="5.9636">
        <ele>359.5</ele>
        <time>2023-06-11T10:48:06Z</time>
      </trkpt>
      <trkpt lat="43.73164" lon="5.9636">
        <ele>359.5</ele>
        <time>2023-06-11T10:48:07Z</time>
      </trkpt>
      <trkpt lat="43.73164" lon="5.9636">
        <ele>359.5</ele>
        <time>2023-06-11T10:48:08Z</time>
      </trkpt>
      <trkpt lat="43.73164" lon="5.9636">
        <ele>359.6</ele>
        <time>2023-06-11T10:48:09Z</time>
      </trkpt>
      <trkpt lat="43.73164" lon="5.9636">
        <ele>359.6</ele>
        <time>2023-06-11T10:48:10Z</time>
      </trkpt>
      <trkpt lat="43.73164" lon="5.9636">
        <ele>359.6</ele>
        <time>2023-06-11T10:48:11Z</time>
      </trkpt>
      <trkpt lat="43.73164" lon="5.9636">
        <ele>359.7</ele>
        <time>2023-06-11T10:48:12Z</time>
      </trkpt>
      <trkpt lat="43.73164" lon="5.9636">
        <ele>359.7</ele>
        <time>2023-06-11T10:48:13Z</time>
      </trkpt>
      <trkpt lat="43.73164" lon="5.9636">
        <ele>359.7</ele>
        <time>2023-06-11T10:48:14Z</time>
      </trkpt>
      <trkpt lat="43.73164" lon="5.9636">
        <ele>359.7</ele>
        <time>2023-06-11T10:48:15Z</time>
      </trkpt>
      <trkpt lat="43.73164" lon="5.9636">
        <ele>359.7</ele>
        <time>2023-06-11T10:48:16Z</time>
      </trkpt>
      <trkpt lat="43.73164" lon="5.9636">
        <ele>359.8</ele>
        <time>2023-06-11T10:48:17Z</time>
      </trkpt>
      <trkpt lat="43.73164" lon="5.9636">
        <ele>359.8</ele>
        <time>2023-06-11T10:48:18Z</time>
      </trkpt>
      <trkpt lat="43.73164" lon="5.9636">
        <ele>359.8</ele>
        <time>2023-06-11T10:48:19Z</time>
      </trkpt>
      <trkpt lat="43.73164" lon="5.9636">
        <ele>359.9</ele>
        <time>2023-06-11T10:48:20Z</time>
      </trkpt>
      <trkpt lat="43.73164" lon="5.9636">
        <ele>359.8</ele>
        <time>2023-06-11T10:48:21Z</time>
      </trkpt>
      <trkpt lat="43.73164" lon="5.9636">
        <ele>359.7</ele>
        <time>2023-06-11T10:48:22Z</time>
      </trkpt>
      <trkpt lat="43.73164" lon="5.9636">
        <ele>359.7</ele>
        <time>2023-06-11T10:48:23Z</time>
      </trkpt>
      <trkpt lat="43.73164" lon="5.9636">
        <ele>359.7</ele>
        <time>2023-06-11T10:48:24Z</time>
      </trkpt>
      <trkpt lat="43.73164" lon="5.9636">
        <ele>359.7</ele>
        <time>2023-06-11T10:48:25Z</time>
      </trkpt>
      <trkpt lat="43.73164" lon="5.9636">
        <ele>359.7</ele>
        <time>2023-06-11T10:48:26Z</time>
      </trkpt>
      <trkpt lat="43.73164" lon="5.9636">
        <ele>359.9</ele>
        <time>2023-06-11T10:48:27Z</time>
      </trkpt>
      <trkpt lat="43.73164" lon="5.9636">
        <ele>359.9</ele>
        <time>2023-06-11T10:48:28Z</time>
      </trkpt>
      <trkpt lat="43.73164" lon="5.9636">
        <ele>359.9</ele>
        <time>2023-06-11T10:48:29Z</time>
      </trkpt>
      <trkpt lat="43.73164" lon="5.9636">
        <ele>360</ele>
        <time>2023-06-11T10:48:30Z</time>
      </trkpt>
      <trkpt lat="43.73164" lon="5.9636">
        <ele>360</ele>
        <time>2023-06-11T10:48:31Z</time>
      </trkpt>
      <trkpt lat="43.73164" lon="5.9636">
        <ele>360</ele>
        <time>2023-06-11T10:48:32Z</time>
      </trkpt>
      <trkpt lat="43.73164" lon="5.96359">
        <ele>360</ele>
        <time>2023-06-11T10:48:33Z</time>
      </trkpt>
      <trkpt lat="43.73164" lon="5.96359">
        <ele>360</ele>
        <time>2023-06-11T10:48:34Z</time>
      </trkpt>
      <trkpt lat="43.73164" lon="5.96359">
        <ele>359.9</ele>
        <time>2023-06-11T10:48:35Z</time>
      </trkpt>
      <trkpt lat="43.73164" lon="5.96359">
        <ele>359.9</ele>
        <time>2023-06-11T10:48:36Z</time>
      </trkpt>
      <trkpt lat="43.73164" lon="5.96359">
        <ele>359.8</ele>
        <time>2023-06-11T10:48:37Z</time>
      </trkpt>
      <trkpt lat="43.73164" lon="5.96359">
        <ele>359.7</ele>
        <time>2023-06-11T10:48:38Z</time>
      </trkpt>
      <trkpt lat="43.73164" lon="5.96359">
        <ele>359.6</ele>
        <time>2023-06-11T10:48:39Z</time>
      </trkpt>
      <trkpt lat="43.73164" lon="5.96359">
        <ele>359.6</ele>
        <time>2023-06-11T10:48:40Z</time>
      </trkpt>
      <trkpt lat="43.73164" lon="5.96359">
        <ele>359.5</ele>
        <time>2023-06-11T10:48:41Z</time>
      </trkpt>
      <trkpt lat="43.73164" lon="5.96359">
        <ele>359.4</ele>
        <time>2023-06-11T10:48:42Z</time>
      </trkpt>
      <trkpt lat="43.73164" lon="5.96359">
        <ele>359.4</ele>
        <time>2023-06-11T10:48:43Z</time>
      </trkpt>
      <trkpt lat="43.73164" lon="5.96359">
        <ele>359.4</ele>
        <time>2023-06-11T10:48:44Z</time>
      </trkpt>
      <trkpt lat="43.73164" lon="5.96359">
        <ele>359.4</ele>
        <time>2023-06-11T10:48:45Z</time>
      </trkpt>
      <trkpt lat="43.73164" lon="5.96359">
        <ele>359.4</ele>
        <time>2023-06-11T10:48:46Z</time>
      </trkpt>
      <trkpt lat="43.73164" lon="5.96359">
        <ele>359.4</ele>
        <time>2023-06-11T10:48:47Z</time>
      </trkpt>
      <trkpt lat="43.73164" lon="5.96358">
        <ele>359.3</ele>
        <time>2023-06-11T10:48:48Z</time>
      </trkpt>
      <trkpt lat="43.73164" lon="5.96358">
        <ele>359.4</ele>
        <time>2023-06-11T10:48:49Z</time>
      </trkpt>
      <trkpt lat="43.73164" lon="5.96358">
        <ele>359.4</ele>
        <time>2023-06-11T10:48:50Z</time>
      </trkpt>
      <trkpt lat="43.73164" lon="5.96358">
        <ele>359.3</ele>
        <time>2023-06-11T10:48:51Z</time>
      </trkpt>
      <trkpt lat="43.73164" lon="5.96358">
        <ele>359.4</ele>
        <time>2023-06-11T10:48:52Z</time>
      </trkpt>
      <trkpt lat="43.73164" lon="5.96358">
        <ele>359.4</ele>
        <time>2023-06-11T10:48:53Z</time>
      </trkpt>
      <trkpt lat="43.73164" lon="5.96358">
        <ele>359.5</ele>
        <time>2023-06-11T10:48:54Z</time>
      </trkpt>
      <trkpt lat="43.73164" lon="5.96358">
        <ele>359.5</ele>
        <time>2023-06-11T10:48:55Z</time>
      </trkpt>
      <trkpt lat="43.73164" lon="5.96358">
        <ele>359.5</ele>
        <time>2023-06-11T10:48:56Z</time>
      </trkpt>
      <trkpt lat="43.73164" lon="5.96358">
        <ele>359.5</ele>
        <time>2023-06-11T10:48:57Z</time>
      </trkpt>
      <trkpt lat="43.73164" lon="5.96358">
        <ele>359.5</ele>
        <time>2023-06-11T10:48:58Z</time>
      </trkpt>
      <trkpt lat="43.73164" lon="5.96358">
        <ele>359.5</ele>
        <time>2023-06-11T10:48:59Z</time>
      </trkpt>
      <trkpt lat="43.73164" lon="5.96358">
        <ele>359.4</ele>
        <time>2023-06-11T10:49:00Z</time>
      </trkpt>
      <trkpt lat="43.73164" lon="5.96358">
        <ele>359.5</ele>
        <time>2023-06-11T10:49:01Z</time>
      </trkpt>
      <trkpt lat="43.73164" lon="5.96358">
        <ele>359.5</ele>
        <time>2023-06-11T10:49:02Z</time>
      </trkpt>
      <trkpt lat="43.73164" lon="5.96358">
        <ele>359.5</ele>
        <time>2023-06-11T10:49:03Z</time>
      </trkpt>
      <trkpt lat="43.73164" lon="5.96358">
        <ele>359.5</ele>
        <time>2023-06-11T10:49:04Z</time>
      </trkpt>
      <trkpt lat="43.73164" lon="5.96358">
        <ele>359.6</ele>
        <time>2023-06-11T10:49:05Z</time>
      </trkpt>
      <trkpt lat="43.73164" lon="5.96358">
        <ele>359.7</ele>
        <time>2023-06-11T10:49:06Z</time>
      </trkpt>
      <trkpt lat="43.73164" lon="5.96358">
        <ele>359.7</ele>
        <time>2023-06-11T10:49:07Z</time>
      </trkpt>
      <trkpt lat="43.73164" lon="5.96358">
        <ele>359.6</ele>
        <time>2023-06-11T10:49:08Z</time>
      </trkpt>
      <trkpt lat="43.73164" lon="5.96358">
        <ele>359.6</ele>
        <time>2023-06-11T10:49:09Z</time>
      </trkpt>
      <trkpt lat="43.73165" lon="5.96358">
        <ele>359.6</ele>
        <time>2023-06-11T10:49:10Z</time>
      </trkpt>
      <trkpt lat="43.73165" lon="5.96358">
        <ele>359.7</ele>
        <time>2023-06-11T10:49:11Z</time>
      </trkpt>
      <trkpt lat="43.73165" lon="5.96358">
        <ele>359.7</ele>
        <time>2023-06-11T10:49:12Z</time>
      </trkpt>
      <trkpt lat="43.73165" lon="5.96358">
        <ele>359.7</ele>
        <time>2023-06-11T10:49:13Z</time>
      </trkpt>
      <trkpt lat="43.73165" lon="5.96358">
        <ele>359.7</ele>
        <time>2023-06-11T10:49:14Z</time>
      </trkpt>
      <trkpt lat="43.73165" lon="5.96358">
        <ele>359.7</ele>
        <time>2023-06-11T10:49:15Z</time>
      </trkpt>
      <trkpt lat="43.73165" lon="5.96358">
        <ele>359.7</ele>
        <time>2023-06-11T10:49:16Z</time>
      </trkpt>
      <trkpt lat="43.73165" lon="5.96358">
        <ele>359.7</ele>
        <time>2023-06-11T10:49:17Z</time>
      </trkpt>
      <trkpt lat="43.73165" lon="5.96358">
        <ele>359.6</ele>
        <time>2023-06-11T10:49:18Z</time>
      </trkpt>
      <trkpt lat="43.73164" lon="5.96358">
        <ele>359.6</ele>
        <time>2023-06-11T10:49:19Z</time>
      </trkpt>
      <trkpt lat="43.73164" lon="5.96358">
        <ele>359.6</ele>
        <time>2023-06-11T10:49:20Z</time>
      </trkpt>
      <trkpt lat="43.73164" lon="5.96358">
        <ele>359.6</ele>
        <time>2023-06-11T10:49:21Z</time>
      </trkpt>
      <trkpt lat="43.73164" lon="5.96358">
        <ele>359.6</ele>
        <time>2023-06-11T10:49:22Z</time>
      </trkpt>
      <trkpt lat="43.73164" lon="5.96358">
        <ele>359.6</ele>
        <time>2023-06-11T10:49:23Z</time>
      </trkpt>
      <trkpt lat="43.73164" lon="5.96358">
        <ele>359.6</ele>
        <time>2023-06-11T10:49:24Z</time>
      </trkpt>
      <trkpt lat="43.73164" lon="5.96358">
        <ele>359.5</ele>
        <time>2023-06-11T10:49:25Z</time>
      </trkpt>
      <trkpt lat="43.73164" lon="5.96358">
        <ele>359.5</ele>
        <time>2023-06-11T10:49:26Z</time>
      </trkpt>
      <trkpt lat="43.73164" lon="5.96358">
        <ele>359.5</ele>
        <time>2023-06-11T10:49:27Z</time>
      </trkpt>
      <trkpt lat="43.73164" lon="5.96357">
        <ele>359.4</ele>
        <time>2023-06-11T10:49:28Z</time>
      </trkpt>
      <trkpt lat="43.73164" lon="5.96357">
        <ele>359.3</ele>
        <time>2023-06-11T10:49:29Z</time>
      </trkpt>
      <trkpt lat="43.73164" lon="5.96357">
        <ele>359.3</ele>
        <time>2023-06-11T10:49:30Z</time>
      </trkpt>
      <trkpt lat="43.73164" lon="5.96357">
        <ele>359.3</ele>
        <time>2023-06-11T10:49:31Z</time>
      </trkpt>
      <trkpt lat="43.73164" lon="5.96358">
        <ele>359.3</ele>
        <time>2023-06-11T10:49:32Z</time>
      </trkpt>
      <trkpt lat="43.73163" lon="5.96358">
        <ele>359.3</ele>
        <time>2023-06-11T10:49:33Z</time>
      </trkpt>
      <trkpt lat="43.73163" lon="5.96358">
        <ele>359.3</ele>
        <time>2023-06-11T10:49:34Z</time>
      </trkpt>
      <trkpt lat="43.73163" lon="5.96358">
        <ele>359.2</ele>
        <time>2023-06-11T10:49:35Z</time>
      </trkpt>
      <trkpt lat="43.73163" lon="5.96358">
        <ele>359.3</ele>
        <time>2023-06-11T10:49:36Z</time>
      </trkpt>
      <trkpt lat="43.73163" lon="5.96358">
        <ele>359.3</ele>
        <time>2023-06-11T10:49:37Z</time>
      </trkpt>
      <trkpt lat="43.73164" lon="5.96358">
        <ele>359.4</ele>
        <time>2023-06-11T10:49:38Z</time>
      </trkpt>
      <trkpt lat="43.73164" lon="5.96357">
        <ele>359.3</ele>
        <time>2023-06-11T10:49:39Z</time>
      </trkpt>
      <trkpt lat="43.73164" lon="5.96357">
        <ele>359.3</ele>
        <time>2023-06-11T10:49:40Z</time>
      </trkpt>
      <trkpt lat="43.73164" lon="5.96357">
        <ele>359.3</ele>
        <time>2023-06-11T10:49:41Z</time>
      </trkpt>
      <trkpt lat="43.73164" lon="5.96357">
        <ele>359.3</ele>
        <time>2023-06-11T10:49:42Z</time>
      </trkpt>
      <trkpt lat="43.73164" lon="5.96357">
        <ele>359.4</ele>
        <time>2023-06-11T10:49:43Z</time>
      </trkpt>
      <trkpt lat="43.73164" lon="5.96356">
        <ele>359.3</ele>
        <time>2023-06-11T10:49:44Z</time>
      </trkpt>
      <trkpt lat="43.73164" lon="5.96356">
        <ele>359.2</ele>
        <time>2023-06-11T10:49:45Z</time>
      </trkpt>
      <trkpt lat="43.73164" lon="5.96356">
        <ele>359.2</ele>
        <time>2023-06-11T10:49:46Z</time>
      </trkpt>
      <trkpt lat="43.73165" lon="5.96356">
        <ele>359.2</ele>
        <time>2023-06-11T10:49:47Z</time>
      </trkpt>
      <trkpt lat="43.73165" lon="5.96356">
        <ele>359.3</ele>
        <time>2023-06-11T10:49:48Z</time>
      </trkpt>
      <trkpt lat="43.73165" lon="5.96356">
        <ele>359.3</ele>
        <time>2023-06-11T10:49:49Z</time>
      </trkpt>
      <trkpt lat="43.73165" lon="5.96356">
        <ele>359.4</ele>
        <time>2023-06-11T10:49:50Z</time>
      </trkpt>
      <trkpt lat="43.73165" lon="5.96356">
        <ele>359.4</ele>
        <time>2023-06-11T10:49:51Z</time>
      </trkpt>
      <trkpt lat="43.73165" lon="5.96355">
        <ele>359.4</ele>
        <time>2023-06-11T10:49:52Z</time>
      </trkpt>
      <trkpt lat="43.73165" lon="5.96355">
        <ele>359.3</ele>
        <time>2023-06-11T10:49:53Z</time>
      </trkpt>
      <trkpt lat="43.73165" lon="5.96355">
        <ele>359.4</ele>
        <time>2023-06-11T10:49:54Z</time>
      </trkpt>
      <trkpt lat="43.73165" lon="5.96355">
        <ele>359.4</ele>
        <time>2023-06-11T10:49:55Z</time>
      </trkpt>
      <trkpt lat="43.73165" lon="5.96355">
        <ele>359.4</ele>
        <time>2023-06-11T10:49:56Z</time>
      </trkpt>
      <trkpt lat="43.73165" lon="5.96354">
        <ele>359.4</ele>
        <time>2023-06-11T10:49:57Z</time>
      </trkpt>
      <trkpt lat="43.73165" lon="5.96354">
        <ele>359.4</ele>
        <time>2023-06-11T10:49:58Z</time>
      </trkpt>
      <trkpt lat="43.73165" lon="5.96354">
        <ele>359.4</ele>
        <time>2023-06-11T10:49:59Z</time>
      </trkpt>
      <trkpt lat="43.73165" lon="5.96354">
        <ele>359.4</ele>
        <time>2023-06-11T10:50:00Z</time>
      </trkpt>
      <trkpt lat="43.73165" lon="5.96354">
        <ele>359.4</ele>
        <time>2023-06-11T10:50:01Z</time>
      </trkpt>
      <trkpt lat="43.73165" lon="5.96354">
        <ele>359.4</ele>
        <time>2023-06-11T10:50:02Z</time>
      </trkpt>
      <trkpt lat="43.73165" lon="5.96355">
        <ele>359.4</ele>
        <time>2023-06-11T10:50:03Z</time>
      </trkpt>
      <trkpt lat="43.73165" lon="5.96355">
        <ele>359.4</ele>
        <time>2023-06-11T10:50:04Z</time>
      </trkpt>
      <trkpt lat="43.73165" lon="5.96355">
        <ele>359.4</ele>
        <time>2023-06-11T10:50:05Z</time>
      </trkpt>
      <trkpt lat="43.73165" lon="5.96355">
        <ele>359.4</ele>
        <time>2023-06-11T10:50:06Z</time>
      </trkpt>
      <trkpt lat="43.73165" lon="5.96355">
        <ele>359.3</ele>
        <time>2023-06-11T10:50:07Z</time>
      </trkpt>
      <trkpt lat="43.73165" lon="5.96355">
        <ele>359.3</ele>
        <time>2023-06-11T10:50:08Z</time>
      </trkpt>
      <trkpt lat="43.73165" lon="5.96355">
        <ele>359.3</ele>
        <time>2023-06-11T10:50:09Z</time>
      </trkpt>
      <trkpt lat="43.73165" lon="5.96355">
        <ele>359.4</ele>
        <time>2023-06-11T10:50:10Z</time>
      </trkpt>
      <trkpt lat="43.73165" lon="5.96355">
        <ele>359.3</ele>
        <time>2023-06-11T10:50:11Z</time>
      </trkpt>
      <trkpt lat="43.73165" lon="5.96355">
        <ele>359.3</ele>
        <time>2023-06-11T10:50:12Z</time>
      </trkpt>
      <trkpt lat="43.73165" lon="5.96355">
        <ele>359.3</ele>
        <time>2023-06-11T10:50:13Z</time>
      </trkpt>
      <trkpt lat="43.73165" lon="5.96355">
        <ele>359.3</ele>
        <time>2023-06-11T10:50:14Z</time>
      </trkpt>
      <trkpt lat="43.73166" lon="5.96356">
        <ele>359.3</ele>
        <time>2023-06-11T10:50:15Z</time>
      </trkpt>
      <trkpt lat="43.73166" lon="5.96355">
        <ele>359.3</ele>
        <time>2023-06-11T10:50:16Z</time>
      </trkpt>
      <trkpt lat="43.73166" lon="5.96355">
        <ele>359.3</ele>
        <time>2023-06-11T10:50:17Z</time>
      </trkpt>
      <trkpt lat="43.73166" lon="5.96355">
        <ele>359.3</ele>
        <time>2023-06-11T10:50:18Z</time>
      </trkpt>
      <trkpt lat="43.73166" lon="5.96355">
        <ele>359.3</ele>
        <time>2023-06-11T10:50:19Z</time>
      </trkpt>
      <trkpt lat="43.73166" lon="5.96355">
        <ele>359.4</ele>
        <time>2023-06-11T10:50:20Z</time>
      </trkpt>
      <trkpt lat="43.73166" lon="5.96355">
        <ele>359.4</ele>
        <time>2023-06-11T10:50:21Z</time>
      </trkpt>
      <trkpt lat="43.73166" lon="5.96355">
        <ele>359.3</ele>
        <time>2023-06-11T10:50:22Z</time>
      </trkpt>
      <trkpt lat="43.73166" lon="5.96355">
        <ele>359.3</ele>
        <time>2023-06-11T10:50:23Z</time>
      </trkpt>
      <trkpt lat="43.73166" lon="5.96355">
        <ele>359.4</ele>
        <time>2023-06-11T10:50:24Z</time>
      </trkpt>
      <trkpt lat="43.73166" lon="5.96355">
        <ele>359.4</ele>
        <time>2023-06-11T10:50:25Z</time>
      </trkpt>
      <trkpt lat="43.73166" lon="5.96355">
        <ele>359.4</ele>
        <time>2023-06-11T10:50:26Z</time>
      </trkpt>
      <trkpt lat="43.73166" lon="5.96355">
        <ele>359.3</ele>
        <time>2023-06-11T10:50:27Z</time>
      </trkpt>
      <trkpt lat="43.73166" lon="5.96355">
        <ele>359.3</ele>
        <time>2023-06-11T10:50:28Z</time>
      </trkpt>
      <trkpt lat="43.73166" lon="5.96355">
        <ele>359.3</ele>
        <time>2023-06-11T10:50:29Z</time>
      </trkpt>
      <trkpt lat="43.73166" lon="5.96355">
        <ele>359.3</ele>
        <time>2023-06-11T10:50:30Z</time>
      </trkpt>
      <trkpt lat="43.73166" lon="5.96355">
        <ele>359.4</ele>
        <time>2023-06-11T10:50:31Z</time>
      </trkpt>
      <trkpt lat="43.73166" lon="5.96355">
        <ele>359.4</ele>
        <time>2023-06-11T10:50:32Z</time>
      </trkpt>
      <trkpt lat="43.73166" lon="5.96356">
        <ele>359.4</ele>
        <time>2023-06-11T10:50:33Z</time>
      </trkpt>
      <trkpt lat="43.73166" lon="5.96356">
        <ele>359.4</ele>
        <time>2023-06-11T10:50:34Z</time>
      </trkpt>
      <trkpt lat="43.73166" lon="5.96356">
        <ele>359.5</ele>
        <time>2023-06-11T10:50:35Z</time>
      </trkpt>
      <trkpt lat="43.73166" lon="5.96356">
        <ele>359.5</ele>
        <time>2023-06-11T10:50:36Z</time>
      </trkpt>
      <trkpt lat="43.73166" lon="5.96356">
        <ele>359.5</ele>
        <time>2023-06-11T10:50:37Z</time>
      </trkpt>
      <trkpt lat="43.73166" lon="5.96356">
        <ele>359.5</ele>
        <time>2023-06-11T10:50:38Z</time>
      </trkpt>
      <trkpt lat="43.73166" lon="5.96356">
        <ele>359.4</ele>
        <time>2023-06-11T10:50:39Z</time>
      </trkpt>
      <trkpt lat="43.73166" lon="5.96356">
        <ele>359.4</ele>
        <time>2023-06-11T10:50:40Z</time>
      </trkpt>
      <trkpt lat="43.73166" lon="5.96356">
        <ele>359.4</ele>
        <time>2023-06-11T10:50:41Z</time>
      </trkpt>
      <trkpt lat="43.73166" lon="5.96356">
        <ele>359.3</ele>
        <time>2023-06-11T10:50:42Z</time>
      </trkpt>
      <trkpt lat="43.73166" lon="5.96356">
        <ele>359.4</ele>
        <time>2023-06-11T10:50:43Z</time>
      </trkpt>
      <trkpt lat="43.73166" lon="5.96356">
        <ele>359.5</ele>
        <time>2023-06-11T10:50:44Z</time>
      </trkpt>
      <trkpt lat="43.73166" lon="5.96357">
        <ele>359.5</ele>
        <time>2023-06-11T10:50:45Z</time>
      </trkpt>
      <trkpt lat="43.73166" lon="5.96357">
        <ele>359.5</ele>
        <time>2023-06-11T10:50:46Z</time>
      </trkpt>
      <trkpt lat="43.73166" lon="5.96357">
        <ele>359.5</ele>
        <time>2023-06-11T10:50:47Z</time>
      </trkpt>
      <trkpt lat="43.73166" lon="5.96357">
        <ele>359.5</ele>
        <time>2023-06-11T10:50:48Z</time>
      </trkpt>
      <trkpt lat="43.73166" lon="5.96357">
        <ele>359.5</ele>
        <time>2023-06-11T10:50:49Z</time>
      </trkpt>
      <trkpt lat="43.73166" lon="5.96358">
        <ele>359.5</ele>
        <time>2023-06-11T10:50:50Z</time>
      </trkpt>
      <trkpt lat="43.73166" lon="5.96358">
        <ele>359.5</ele>
        <time>2023-06-11T10:50:51Z</time>
      </trkpt>
      <trkpt lat="43.73166" lon="5.96358">
        <ele>359.5</ele>
        <time>2023-06-11T10:50:52Z</time>
      </trkpt>
      <trkpt lat="43.73166" lon="5.96358">
        <ele>359.6</ele>
        <time>2023-06-11T10:50:53Z</time>
      </trkpt>
      <trkpt lat="43.73166" lon="5.96358">
        <ele>359.6</ele>
        <time>2023-06-11T10:50:54Z</time>
      </trkpt>
      <trkpt lat="43.73166" lon="5.96359">
        <ele>359.6</ele>
        <time>2023-06-11T10:50:55Z</time>
      </trkpt>
      <trkpt lat="43.73166" lon="5.96359">
        <ele>359.6</ele>
        <time>2023-06-11T10:50:56Z</time>
      </trkpt>
      <trkpt lat="43.73166" lon="5.96359">
        <ele>359.6</ele>
        <time>2023-06-11T10:50:57Z</time>
      </trkpt>
      <trkpt lat="43.73166" lon="5.96359">
        <ele>359.7</ele>
        <time>2023-06-11T10:50:58Z</time>
      </trkpt>
      <trkpt lat="43.73166" lon="5.96359">
        <ele>359.7</ele>
        <time>2023-06-11T10:50:59Z</time>
      </trkpt>
      <trkpt lat="43.73166" lon="5.9636">
        <ele>359.7</ele>
        <time>2023-06-11T10:51:00Z</time>
      </trkpt>
      <trkpt lat="43.73166" lon="5.9636">
        <ele>359.7</ele>
        <time>2023-06-11T10:51:01Z</time>
      </trkpt>
      <trkpt lat="43.73166" lon="5.96359">
        <ele>359.8</ele>
        <time>2023-06-11T10:51:02Z</time>
      </trkpt>
      <trkpt lat="43.73166" lon="5.96359">
        <ele>359.8</ele>
        <time>2023-06-11T10:51:03Z</time>
      </trkpt>
      <trkpt lat="43.73166" lon="5.96359">
        <ele>359.7</ele>
        <time>2023-06-11T10:51:04Z</time>
      </trkpt>
      <trkpt lat="43.73166" lon="5.96358">
        <ele>359.8</ele>
        <time>2023-06-11T10:51:05Z</time>
      </trkpt>
      <trkpt lat="43.73166" lon="5.96358">
        <ele>359.8</ele>
        <time>2023-06-11T10:51:06Z</time>
      </trkpt>
      <trkpt lat="43.73166" lon="5.96358">
        <ele>359.8</ele>
        <time>2023-06-11T10:51:07Z</time>
      </trkpt>
      <trkpt lat="43.73166" lon="5.96358">
        <ele>359.8</ele>
        <time>2023-06-11T10:51:08Z</time>
      </trkpt>
      <trkpt lat="43.73166" lon="5.96358">
        <ele>359.8</ele>
        <time>2023-06-11T10:51:09Z</time>
      </trkpt>
      <trkpt lat="43.73166" lon="5.96358">
        <ele>359.8</ele>
        <time>2023-06-11T10:51:10Z</time>
      </trkpt>
      <trkpt lat="43.73166" lon="5.96358">
        <ele>359.8</ele>
        <time>2023-06-11T10:51:11Z</time>
      </trkpt>
      <trkpt lat="43.73166" lon="5.96358">
        <ele>359.7</ele>
        <time>2023-06-11T10:51:12Z</time>
      </trkpt>
      <trkpt lat="43.73166" lon="5.96358">
        <ele>359.7</ele>
        <time>2023-06-11T10:51:13Z</time>
      </trkpt>
      <trkpt lat="43.73166" lon="5.96358">
        <ele>359.7</ele>
        <time>2023-06-11T10:51:14Z</time>
      </trkpt>
      <trkpt lat="43.73166" lon="5.96358">
        <ele>359.7</ele>
        <time>2023-06-11T10:51:15Z</time>
      </trkpt>
      <trkpt lat="43.73166" lon="5.96358">
        <ele>359.7</ele>
        <time>2023-06-11T10:51:16Z</time>
      </trkpt>
      <trkpt lat="43.73166" lon="5.96358">
        <ele>359.7</ele>
        <time>2023-06-11T10:51:17Z</time>
      </trkpt>
      <trkpt lat="43.73166" lon="5.96358">
        <ele>359.7</ele>
        <time>2023-06-11T10:51:18Z</time>
      </trkpt>
      <trkpt lat="43.73167" lon="5.96358">
        <ele>359.7</ele>
        <time>2023-06-11T10:51:19Z</time>
      </trkpt>
      <trkpt lat="43.73167" lon="5.96359">
        <ele>359.7</ele>
        <time>2023-06-11T10:51:20Z</time>
      </trkpt>
      <trkpt lat="43.73167" lon="5.96359">
        <ele>359.8</ele>
        <time>2023-06-11T10:51:21Z</time>
      </trkpt>
      <trkpt lat="43.73167" lon="5.96359">
        <ele>359.8</ele>
        <time>2023-06-11T10:51:22Z</time>
      </trkpt>
      <trkpt lat="43.73167" lon="5.96359">
        <ele>359.7</ele>
        <time>2023-06-11T10:51:23Z</time>
      </trkpt>
      <trkpt lat="43.73167" lon="5.96359">
        <ele>359.7</ele>
        <time>2023-06-11T10:51:24Z</time>
      </trkpt>
      <trkpt lat="43.73167" lon="5.96359">
        <ele>359.7</ele>
        <time>2023-06-11T10:51:25Z</time>
      </trkpt>
      <trkpt lat="43.73167" lon="5.96359">
        <ele>359.6</ele>
        <time>2023-06-11T10:51:26Z</time>
      </trkpt>
      <trkpt lat="43.73167" lon="5.96359">
        <ele>359.6</ele>
        <time>2023-06-11T10:51:27Z</time>
      </trkpt>
      <trkpt lat="43.73167" lon="5.96359">
        <ele>359.6</ele>
        <time>2023-06-11T10:51:28Z</time>
      </trkpt>
      <trkpt lat="43.73167" lon="5.96359">
        <ele>359.6</ele>
        <time>2023-06-11T10:51:29Z</time>
      </trkpt>
      <trkpt lat="43.73167" lon="5.96359">
        <ele>359.5</ele>
        <time>2023-06-11T10:51:30Z</time>
      </trkpt>
      <trkpt lat="43.73167" lon="5.96359">
        <ele>359.5</ele>
        <time>2023-06-11T10:51:31Z</time>
      </trkpt>
      <trkpt lat="43.73167" lon="5.96359">
        <ele>359.5</ele>
        <time>2023-06-11T10:51:32Z</time>
      </trkpt>
      <trkpt lat="43.73168" lon="5.96359">
        <ele>359.5</ele>
        <time>2023-06-11T10:51:33Z</time>
      </trkpt>
      <trkpt lat="43.73168" lon="5.96359">
        <ele>359.5</ele>
        <time>2023-06-11T10:51:34Z</time>
      </trkpt>
      <trkpt lat="43.73167" lon="5.96359">
        <ele>359.5</ele>
        <time>2023-06-11T10:51:35Z</time>
      </trkpt>
      <trkpt lat="43.73167" lon="5.96359">
        <ele>359.5</ele>
        <time>2023-06-11T10:51:36Z</time>
      </trkpt>
      <trkpt lat="43.73168" lon="5.96359">
        <ele>359.5</ele>
        <time>2023-06-11T10:51:37Z</time>
      </trkpt>
      <trkpt lat="43.73167" lon="5.96359">
        <ele>359.4</ele>
        <time>2023-06-11T10:51:38Z</time>
      </trkpt>
      <trkpt lat="43.73168" lon="5.96359">
        <ele>359.4</ele>
        <time>2023-06-11T10:51:39Z</time>
      </trkpt>
      <trkpt lat="43.73168" lon="5.96359">
        <ele>359.4</ele>
        <time>2023-06-11T10:51:40Z</time>
      </trkpt>
      <trkpt lat="43.73168" lon="5.96359">
        <ele>359.4</ele>
        <time>2023-06-11T10:51:41Z</time>
      </trkpt>
      <trkpt lat="43.73168" lon="5.96359">
        <ele>359.3</ele>
        <time>2023-06-11T10:51:42Z</time>
      </trkpt>
      <trkpt lat="43.73168" lon="5.96359">
        <ele>359.3</ele>
        <time>2023-06-11T10:51:43Z</time>
      </trkpt>
      <trkpt lat="43.73168" lon="5.96359">
        <ele>359.3</ele>
        <time>2023-06-11T10:51:44Z</time>
      </trkpt>
      <trkpt lat="43.73168" lon="5.96359">
        <ele>359.3</ele>
        <time>2023-06-11T10:51:45Z</time>
      </trkpt>
      <trkpt lat="43.73168" lon="5.96359">
        <ele>359.3</ele>
        <time>2023-06-11T10:51:46Z</time>
      </trkpt>
      <trkpt lat="43.73168" lon="5.96359">
        <ele>359.2</ele>
        <time>2023-06-11T10:51:47Z</time>
      </trkpt>
      <trkpt lat="43.73168" lon="5.96359">
        <ele>359.2</ele>
        <time>2023-06-11T10:51:48Z</time>
      </trkpt>
      <trkpt lat="43.73168" lon="5.96359">
        <ele>359.2</ele>
        <time>2023-06-11T10:51:49Z</time>
      </trkpt>
      <trkpt lat="43.73168" lon="5.96359">
        <ele>359.1</ele>
        <time>2023-06-11T10:51:50Z</time>
      </trkpt>
      <trkpt lat="43.73168" lon="5.96359">
        <ele>359.2</ele>
        <time>2023-06-11T10:51:51Z</time>
      </trkpt>
      <trkpt lat="43.73168" lon="5.96359">
        <ele>359.2</ele>
        <time>2023-06-11T10:51:52Z</time>
      </trkpt>
      <trkpt lat="43.73168" lon="5.96359">
        <ele>359.2</ele>
        <time>2023-06-11T10:51:53Z</time>
      </trkpt>
      <trkpt lat="43.73168" lon="5.96359">
        <ele>359.2</ele>
        <time>2023-06-11T10:51:54Z</time>
      </trkpt>
      <trkpt lat="43.73168" lon="5.96359">
        <ele>359.2</ele>
        <time>2023-06-11T10:51:55Z</time>
      </trkpt>
      <trkpt lat="43.73168" lon="5.96359">
        <ele>359.2</ele>
        <time>2023-06-11T10:51:56Z</time>
      </trkpt>
      <trkpt lat="43.73168" lon="5.96359">
        <ele>359.2</ele>
        <time>2023-06-11T10:51:57Z</time>
      </trkpt>
      <trkpt lat="43.73168" lon="5.96359">
        <ele>359.3</ele>
        <time>2023-06-11T10:51:58Z</time>
      </trkpt>
      <trkpt lat="43.73168" lon="5.96359">
        <ele>359.3</ele>
        <time>2023-06-11T10:51:59Z</time>
      </trkpt>
      <trkpt lat="43.73168" lon="5.96359">
        <ele>359.4</ele>
        <time>2023-06-11T10:52:00Z</time>
      </trkpt>
      <trkpt lat="43.73168" lon="5.96358">
        <ele>359.5</ele>
        <time>2023-06-11T10:52:01Z</time>
      </trkpt>
      <trkpt lat="43.73168" lon="5.96358">
        <ele>359.5</ele>
        <time>2023-06-11T10:52:02Z</time>
      </trkpt>
      <trkpt lat="43.73168" lon="5.96358">
        <ele>359.5</ele>
        <time>2023-06-11T10:52:03Z</time>
      </trkpt>
      <trkpt lat="43.73168" lon="5.96358">
        <ele>359.6</ele>
        <time>2023-06-11T10:52:04Z</time>
      </trkpt>
      <trkpt lat="43.73168" lon="5.96358">
        <ele>359.5</ele>
        <time>2023-06-11T10:52:05Z</time>
      </trkpt>
      <trkpt lat="43.73168" lon="5.96358">
        <ele>359.5</ele>
        <time>2023-06-11T10:52:06Z</time>
      </trkpt>
      <trkpt lat="43.73168" lon="5.96358">
        <ele>359.5</ele>
        <time>2023-06-11T10:52:07Z</time>
      </trkpt>
      <trkpt lat="43.73168" lon="5.96358">
        <ele>359.5</ele>
        <time>2023-06-11T10:52:08Z</time>
      </trkpt>
      <trkpt lat="43.73168" lon="5.96358">
        <ele>359.4</ele>
        <time>2023-06-11T10:52:09Z</time>
      </trkpt>
      <trkpt lat="43.73168" lon="5.96358">
        <ele>359.4</ele>
        <time>2023-06-11T10:52:10Z</time>
      </trkpt>
      <trkpt lat="43.73168" lon="5.96358">
        <ele>359.4</ele>
        <time>2023-06-11T10:52:11Z</time>
      </trkpt>
      <trkpt lat="43.73168" lon="5.96358">
        <ele>359.3</ele>
        <time>2023-06-11T10:52:12Z</time>
      </trkpt>
      <trkpt lat="43.73168" lon="5.96358">
        <ele>359.2</ele>
        <time>2023-06-11T10:52:13Z</time>
      </trkpt>
      <trkpt lat="43.73168" lon="5.96358">
        <ele>359.3</ele>
        <time>2023-06-11T10:52:14Z</time>
      </trkpt>
      <trkpt lat="43.73168" lon="5.96358">
        <ele>359.2</ele>
        <time>2023-06-11T10:52:15Z</time>
      </trkpt>
      <trkpt lat="43.73168" lon="5.96358">
        <ele>359.3</ele>
        <time>2023-06-11T10:52:16Z</time>
      </trkpt>
      <trkpt lat="43.73168" lon="5.96358">
        <ele>359.4</ele>
        <time>2023-06-11T10:52:17Z</time>
      </trkpt>
      <trkpt lat="43.73168" lon="5.96358">
        <ele>359.3</ele>
        <time>2023-06-11T10:52:18Z</time>
      </trkpt>
      <trkpt lat="43.73168" lon="5.96358">
        <ele>359.3</ele>
        <time>2023-06-11T10:52:19Z</time>
      </trkpt>
      <trkpt lat="43.73168" lon="5.96358">
        <ele>359.3</ele>
        <time>2023-06-11T10:52:20Z</time>
      </trkpt>
      <trkpt lat="43.73168" lon="5.96358">
        <ele>359.3</ele>
        <time>2023-06-11T10:52:21Z</time>
      </trkpt>
      <trkpt lat="43.73169" lon="5.96358">
        <ele>359.3</ele>
        <time>2023-06-11T10:52:22Z</time>
      </trkpt>
      <trkpt lat="43.73169" lon="5.96358">
        <ele>359.2</ele>
        <time>2023-06-11T10:52:23Z</time>
      </trkpt>
      <trkpt lat="43.73169" lon="5.96358">
        <ele>359.2</ele>
        <time>2023-06-11T10:52:24Z</time>
      </trkpt>
      <trkpt lat="43.73169" lon="5.96358">
        <ele>359.3</ele>
        <time>2023-06-11T10:52:25Z</time>
      </trkpt>
      <trkpt lat="43.73169" lon="5.96358">
        <ele>359.3</ele>
        <time>2023-06-11T10:52:26Z</time>
      </trkpt>
      <trkpt lat="43.73169" lon="5.96358">
        <ele>359.3</ele>
        <time>2023-06-11T10:52:27Z</time>
      </trkpt>
      <trkpt lat="43.73169" lon="5.96358">
        <ele>359.3</ele>
        <time>2023-06-11T10:52:28Z</time>
      </trkpt>
      <trkpt lat="43.73169" lon="5.96358">
        <ele>359.2</ele>
        <time>2023-06-11T10:52:29Z</time>
      </trkpt>
      <trkpt lat="43.73169" lon="5.96358">
        <ele>359.2</ele>
        <time>2023-06-11T10:52:30Z</time>
      </trkpt>
      <trkpt lat="43.73169" lon="5.96358">
        <ele>359.2</ele>
        <time>2023-06-11T10:52:31Z</time>
      </trkpt>
      <trkpt lat="43.73169" lon="5.96358">
        <ele>359.2</ele>
        <time>2023-06-11T10:52:32Z</time>
      </trkpt>
      <trkpt lat="43.73169" lon="5.96357">
        <ele>359.2</ele>
        <time>2023-06-11T10:52:33Z</time>
      </trkpt>
      <trkpt lat="43.73169" lon="5.96357">
        <ele>359.2</ele>
        <time>2023-06-11T10:52:34Z</time>
      </trkpt>
      <trkpt lat="43.73169" lon="5.96357">
        <ele>359.3</ele>
        <time>2023-06-11T10:52:35Z</time>
      </trkpt>
      <trkpt lat="43.73169" lon="5.96358">
        <ele>359.2</ele>
        <time>2023-06-11T10:52:36Z</time>
      </trkpt>
      <trkpt lat="43.73169" lon="5.96358">
        <ele>359.2</ele>
        <time>2023-06-11T10:52:37Z</time>
      </trkpt>
      <trkpt lat="43.73169" lon="5.96357">
        <ele>359.3</ele>
        <time>2023-06-11T10:52:38Z</time>
      </trkpt>
      <trkpt lat="43.73169" lon="5.96357">
        <ele>359.4</ele>
        <time>2023-06-11T10:52:39Z</time>
      </trkpt>
      <trkpt lat="43.73169" lon="5.96357">
        <ele>359.4</ele>
        <time>2023-06-11T10:52:40Z</time>
      </trkpt>
      <trkpt lat="43.73169" lon="5.96357">
        <ele>359.4</ele>
        <time>2023-06-11T10:52:41Z</time>
      </trkpt>
      <trkpt lat="43.73169" lon="5.96357">
        <ele>359.4</ele>
        <time>2023-06-11T10:52:42Z</time>
      </trkpt>
      <trkpt lat="43.73169" lon="5.96357">
        <ele>359.4</ele>
        <time>2023-06-11T10:52:43Z</time>
      </trkpt>
      <trkpt lat="43.73169" lon="5.96357">
        <ele>359.5</ele>
        <time>2023-06-11T10:52:44Z</time>
      </trkpt>
      <trkpt lat="43.73169" lon="5.96357">
        <ele>359.5</ele>
        <time>2023-06-11T10:52:45Z</time>
      </trkpt>
      <trkpt lat="43.73169" lon="5.96357">
        <ele>359.5</ele>
        <time>2023-06-11T10:52:46Z</time>
      </trkpt>
      <trkpt lat="43.73168" lon="5.96357">
        <ele>359.5</ele>
        <time>2023-06-11T10:52:47Z</time>
      </trkpt>
      <trkpt lat="43.73168" lon="5.96357">
        <ele>359.5</ele>
        <time>2023-06-11T10:52:48Z</time>
      </trkpt>
      <trkpt lat="43.73168" lon="5.96357">
        <ele>359.4</ele>
        <time>2023-06-11T10:52:49Z</time>
      </trkpt>
      <trkpt lat="43.73168" lon="5.96357">
        <ele>359.4</ele>
        <time>2023-06-11T10:52:50Z</time>
      </trkpt>
      <trkpt lat="43.73168" lon="5.96357">
        <ele>359.4</ele>
        <time>2023-06-11T10:52:51Z</time>
      </trkpt>
      <trkpt lat="43.73168" lon="5.96357">
        <ele>359.3</ele>
        <time>2023-06-11T10:52:52Z</time>
      </trkpt>
      <trkpt lat="43.73168" lon="5.96357">
        <ele>359.2</ele>
        <time>2023-06-11T10:52:53Z</time>
      </trkpt>
      <trkpt lat="43.73168" lon="5.96358">
        <ele>359.3</ele>
        <time>2023-06-11T10:52:54Z</time>
      </trkpt>
      <trkpt lat="43.73168" lon="5.96358">
        <ele>359.3</ele>
        <time>2023-06-11T10:52:55Z</time>
      </trkpt>
      <trkpt lat="43.73168" lon="5.96358">
        <ele>359.4</ele>
        <time>2023-06-11T10:52:56Z</time>
      </trkpt>
      <trkpt lat="43.73168" lon="5.96358">
        <ele>359.4</ele>
        <time>2023-06-11T10:52:57Z</time>
      </trkpt>
      <trkpt lat="43.73168" lon="5.96358">
        <ele>359.5</ele>
        <time>2023-06-11T10:52:58Z</time>
      </trkpt>
      <trkpt lat="43.73168" lon="5.96358">
        <ele>359.5</ele>
        <time>2023-06-11T10:52:59Z</time>
      </trkpt>
      <trkpt lat="43.73168" lon="5.96358">
        <ele>359.5</ele>
        <time>2023-06-11T10:53:00Z</time>
      </trkpt>
      <trkpt lat="43.73168" lon="5.96359">
        <ele>359.5</ele>
        <time>2023-06-11T10:53:01Z</time>
      </trkpt>
      <trkpt lat="43.73168" lon="5.96359">
        <ele>359.4</ele>
        <time>2023-06-11T10:53:02Z</time>
      </trkpt>
      <trkpt lat="43.73168" lon="5.96359">
        <ele>359.4</ele>
        <time>2023-06-11T10:53:03Z</time>
      </trkpt>
      <trkpt lat="43.73168" lon="5.96359">
        <ele>359.4</ele>
        <time>2023-06-11T10:53:04Z</time>
      </trkpt>
      <trkpt lat="43.73168" lon="5.9636">
        <ele>359.4</ele>
        <time>2023-06-11T10:53:05Z</time>
      </trkpt>
      <trkpt lat="43.73168" lon="5.9636">
        <ele>359.4</ele>
        <time>2023-06-11T10:53:06Z</time>
      </trkpt>
      <trkpt lat="43.73168" lon="5.9636">
        <ele>359.4</ele>
        <time>2023-06-11T10:53:07Z</time>
      </trkpt>
      <trkpt lat="43.73168" lon="5.9636">
        <ele>359.4</ele>
        <time>2023-06-11T10:53:08Z</time>
      </trkpt>
      <trkpt lat="43.73168" lon="5.9636">
        <ele>359.4</ele>
        <time>2023-06-11T10:53:09Z</time>
      </trkpt>
      <trkpt lat="43.73168" lon="5.9636">
        <ele>359.5</ele>
        <time>2023-06-11T10:53:10Z</time>
      </trkpt>
      <trkpt lat="43.73168" lon="5.9636">
        <ele>359.5</ele>
        <time>2023-06-11T10:53:11Z</time>
      </trkpt>
      <trkpt lat="43.73168" lon="5.9636">
        <ele>359.5</ele>
        <time>2023-06-11T10:53:12Z</time>
      </trkpt>
      <trkpt lat="43.73168" lon="5.9636">
        <ele>359.5</ele>
        <time>2023-06-11T10:53:13Z</time>
      </trkpt>
      <trkpt lat="43.73168" lon="5.9636">
        <ele>359.6</ele>
        <time>2023-06-11T10:53:14Z</time>
      </trkpt>
      <trkpt lat="43.73168" lon="5.9636">
        <ele>359.6</ele>
        <time>2023-06-11T10:53:15Z</time>
      </trkpt>
      <trkpt lat="43.73168" lon="5.9636">
        <ele>359.6</ele>
        <time>2023-06-11T10:53:16Z</time>
      </trkpt>
      <trkpt lat="43.73168" lon="5.9636">
        <ele>359.6</ele>
        <time>2023-06-11T10:53:17Z</time>
      </trkpt>
      <trkpt lat="43.73168" lon="5.96359">
        <ele>359.6</ele>
        <time>2023-06-11T10:53:18Z</time>
      </trkpt>
      <trkpt lat="43.73168" lon="5.9636">
        <ele>359.6</ele>
        <time>2023-06-11T10:53:19Z</time>
      </trkpt>
      <trkpt lat="43.73168" lon="5.9636">
        <ele>359.6</ele>
        <time>2023-06-11T10:53:20Z</time>
      </trkpt>
      <trkpt lat="43.73168" lon="5.9636">
        <ele>359.6</ele>
        <time>2023-06-11T10:53:21Z</time>
      </trkpt>
      <trkpt lat="43.73168" lon="5.9636">
        <ele>359.7</ele>
        <time>2023-06-11T10:53:22Z</time>
      </trkpt>
      <trkpt lat="43.73168" lon="5.9636">
        <ele>359.7</ele>
        <time>2023-06-11T10:53:23Z</time>
      </trkpt>
      <trkpt lat="43.73168" lon="5.9636">
        <ele>359.6</ele>
        <time>2023-06-11T10:53:24Z</time>
      </trkpt>
      <trkpt lat="43.73168" lon="5.9636">
        <ele>359.6</ele>
        <time>2023-06-11T10:53:25Z</time>
      </trkpt>
      <trkpt lat="43.73168" lon="5.9636">
        <ele>359.6</ele>
        <time>2023-06-11T10:53:26Z</time>
      </trkpt>
      <trkpt lat="43.73168" lon="5.9636">
        <ele>359.5</ele>
        <time>2023-06-11T10:53:27Z</time>
      </trkpt>
      <trkpt lat="43.73168" lon="5.9636">
        <ele>359.5</ele>
        <time>2023-06-11T10:53:28Z</time>
      </trkpt>
      <trkpt lat="43.73168" lon="5.9636">
        <ele>359.5</ele>
        <time>2023-06-11T10:53:29Z</time>
      </trkpt>
      <trkpt lat="43.73168" lon="5.9636">
        <ele>359.5</ele>
        <time>2023-06-11T10:53:30Z</time>
      </trkpt>
      <trkpt lat="43.73168" lon="5.9636">
        <ele>359.5</ele>
        <time>2023-06-11T10:53:31Z</time>
      </trkpt>
      <trkpt lat="43.73168" lon="5.9636">
        <ele>359.5</ele>
        <time>2023-06-11T10:53:32Z</time>
      </trkpt>
      <trkpt lat="43.73168" lon="5.9636">
        <ele>359.5</ele>
        <time>2023-06-11T10:53:33Z</time>
      </trkpt>
      <trkpt lat="43.73168" lon="5.9636">
        <ele>359.5</ele>
        <time>2023-06-11T10:53:34Z</time>
      </trkpt>
      <trkpt lat="43.73168" lon="5.9636">
        <ele>359.4</ele>
        <time>2023-06-11T10:53:35Z</time>
      </trkpt>
      <trkpt lat="43.73168" lon="5.9636">
        <ele>359.4</ele>
        <time>2023-06-11T10:53:36Z</time>
      </trkpt>
      <trkpt lat="43.73168" lon="5.9636">
        <ele>359.4</ele>
        <time>2023-06-11T10:53:37Z</time>
      </trkpt>
      <trkpt lat="43.73168" lon="5.9636">
        <ele>359.4</ele>
        <time>2023-06-11T10:53:38Z</time>
      </trkpt>
      <trkpt lat="43.73168" lon="5.9636">
        <ele>359.4</ele>
        <time>2023-06-11T10:53:39Z</time>
      </trkpt>
      <trkpt lat="43.73168" lon="5.9636">
        <ele>359.5</ele>
        <time>2023-06-11T10:53:40Z</time>
      </trkpt>
      <trkpt lat="43.73168" lon="5.9636">
        <ele>359.5</ele>
        <time>2023-06-11T10:53:41Z</time>
      </trkpt>
      <trkpt lat="43.73168" lon="5.9636">
        <ele>359.5</ele>
        <time>2023-06-11T10:53:42Z</time>
      </trkpt>
      <trkpt lat="43.73168" lon="5.9636">
        <ele>359.5</ele>
        <time>2023-06-11T10:53:43Z</time>
      </trkpt>
      <trkpt lat="43.73168" lon="5.9636">
        <ele>359.5</ele>
        <time>2023-06-11T10:53:44Z</time>
      </trkpt>
      <trkpt lat="43.73168" lon="5.9636">
        <ele>359.5</ele>
        <time>2023-06-11T10:53:45Z</time>
      </trkpt>
      <trkpt lat="43.73168" lon="5.9636">
        <ele>359.5</ele>
        <time>2023-06-11T10:53:46Z</time>
      </trkpt>
      <trkpt lat="43.73168" lon="5.9636">
        <ele>359.4</ele>
        <time>2023-06-11T10:53:47Z</time>
      </trkpt>
      <trkpt lat="43.73168" lon="5.9636">
        <ele>359.4</ele>
        <time>2023-06-11T10:53:48Z</time>
      </trkpt>
      <trkpt lat="43.73168" lon="5.9636">
        <ele>359.3</ele>
        <time>2023-06-11T10:53:49Z</time>
      </trkpt>
      <trkpt lat="43.73168" lon="5.9636">
        <ele>359.2</ele>
        <time>2023-06-11T10:53:50Z</time>
      </trkpt>
      <trkpt lat="43.73168" lon="5.9636">
        <ele>359.2</ele>
        <time>2023-06-11T10:53:51Z</time>
      </trkpt>
      <trkpt lat="43.73168" lon="5.9636">
        <ele>359.1</ele>
        <time>2023-06-11T10:53:52Z</time>
      </trkpt>
      <trkpt lat="43.73168" lon="5.96359">
        <ele>359.1</ele>
        <time>2023-06-11T10:53:53Z</time>
      </trkpt>
      <trkpt lat="43.73168" lon="5.96359">
        <ele>359.1</ele>
        <time>2023-06-11T10:53:54Z</time>
      </trkpt>
      <trkpt lat="43.73168" lon="5.96359">
        <ele>359.1</ele>
        <time>2023-06-11T10:53:55Z</time>
      </trkpt>
      <trkpt lat="43.73168" lon="5.9636">
        <ele>359</ele>
        <time>2023-06-11T10:53:56Z</time>
      </trkpt>
      <trkpt lat="43.73168" lon="5.9636">
        <ele>359.1</ele>
        <time>2023-06-11T10:53:57Z</time>
      </trkpt>
      <trkpt lat="43.73168" lon="5.9636">
        <ele>359.1</ele>
        <time>2023-06-11T10:53:58Z</time>
      </trkpt>
      <trkpt lat="43.73168" lon="5.9636">
        <ele>359.1</ele>
        <time>2023-06-11T10:53:59Z</time>
      </trkpt>
      <trkpt lat="43.73168" lon="5.9636">
        <ele>359.2</ele>
        <time>2023-06-11T10:54:00Z</time>
      </trkpt>
      <trkpt lat="43.73168" lon="5.9636">
        <ele>359.2</ele>
        <time>2023-06-11T10:54:01Z</time>
      </trkpt>
      <trkpt lat="43.73168" lon="5.9636">
        <ele>359.2</ele>
        <time>2023-06-11T10:54:02Z</time>
      </trkpt>
      <trkpt lat="43.73168" lon="5.9636">
        <ele>359.3</ele>
        <time>2023-06-11T10:54:03Z</time>
      </trkpt>
      <trkpt lat="43.73168" lon="5.9636">
        <ele>359.2</ele>
        <time>2023-06-11T10:54:04Z</time>
      </trkpt>
      <trkpt lat="43.73168" lon="5.9636">
        <ele>359.2</ele>
        <time>2023-06-11T10:54:05Z</time>
      </trkpt>
      <trkpt lat="43.73168" lon="5.9636">
        <ele>359.2</ele>
        <time>2023-06-11T10:54:06Z</time>
      </trkpt>
      <trkpt lat="43.73168" lon="5.9636">
        <ele>359.3</ele>
        <time>2023-06-11T10:54:07Z</time>
      </trkpt>
      <trkpt lat="43.73168" lon="5.96361">
        <ele>359.3</ele>
        <time>2023-06-11T10:54:08Z</time>
      </trkpt>
      <trkpt lat="43.73168" lon="5.96361">
        <ele>359.3</ele>
        <time>2023-06-11T10:54:09Z</time>
      </trkpt>
      <trkpt lat="43.73168" lon="5.96361">
        <ele>359.2</ele>
        <time>2023-06-11T10:54:10Z</time>
      </trkpt>
      <trkpt lat="43.73168" lon="5.96361">
        <ele>359.1</ele>
        <time>2023-06-11T10:54:11Z</time>
      </trkpt>
      <trkpt lat="43.73168" lon="5.96361">
        <ele>359.2</ele>
        <time>2023-06-11T10:54:12Z</time>
      </trkpt>
      <trkpt lat="43.73168" lon="5.96361">
        <ele>359.2</ele>
        <time>2023-06-11T10:54:13Z</time>
      </trkpt>
      <trkpt lat="43.73168" lon="5.96361">
        <ele>359.2</ele>
        <time>2023-06-11T10:54:14Z</time>
      </trkpt>
      <trkpt lat="43.73168" lon="5.96361">
        <ele>359.2</ele>
        <time>2023-06-11T10:54:15Z</time>
      </trkpt>
      <trkpt lat="43.73168" lon="5.96361">
        <ele>359.2</ele>
        <time>2023-06-11T10:54:16Z</time>
      </trkpt>
      <trkpt lat="43.73168" lon="5.96361">
        <ele>359.2</ele>
        <time>2023-06-11T10:54:17Z</time>
      </trkpt>
      <trkpt lat="43.73168" lon="5.96361">
        <ele>359.2</ele>
        <time>2023-06-11T10:54:18Z</time>
      </trkpt>
      <trkpt lat="43.73168" lon="5.96361">
        <ele>359.1</ele>
        <time>2023-06-11T10:54:19Z</time>
      </trkpt>
      <trkpt lat="43.73168" lon="5.96361">
        <ele>359.1</ele>
        <time>2023-06-11T10:54:20Z</time>
      </trkpt>
      <trkpt lat="43.73168" lon="5.96361">
        <ele>359.1</ele>
        <time>2023-06-11T10:54:21Z</time>
      </trkpt>
      <trkpt lat="43.73168" lon="5.96361">
        <ele>359.1</ele>
        <time>2023-06-11T10:54:22Z</time>
      </trkpt>
      <trkpt lat="43.73168" lon="5.96361">
        <ele>359.1</ele>
        <time>2023-06-11T10:54:23Z</time>
      </trkpt>
      <trkpt lat="43.73168" lon="5.96361">
        <ele>359.1</ele>
        <time>2023-06-11T10:54:24Z</time>
      </trkpt>
      <trkpt lat="43.73168" lon="5.96361">
        <ele>359.1</ele>
        <time>2023-06-11T10:54:25Z</time>
      </trkpt>
      <trkpt lat="43.73168" lon="5.96361">
        <ele>359.1</ele>
        <time>2023-06-11T10:54:26Z</time>
      </trkpt>
      <trkpt lat="43.73168" lon="5.96361">
        <ele>359.2</ele>
        <time>2023-06-11T10:54:27Z</time>
      </trkpt>
      <trkpt lat="43.73168" lon="5.96361">
        <ele>359.2</ele>
        <time>2023-06-11T10:54:28Z</time>
      </trkpt>
      <trkpt lat="43.73168" lon="5.96361">
        <ele>359.2</ele>
        <time>2023-06-11T10:54:29Z</time>
      </trkpt>
      <trkpt lat="43.73168" lon="5.96361">
        <ele>359.3</ele>
        <time>2023-06-11T10:54:30Z</time>
      </trkpt>
      <trkpt lat="43.73168" lon="5.96361">
        <ele>359.2</ele>
        <time>2023-06-11T10:54:31Z</time>
      </trkpt>
      <trkpt lat="43.73168" lon="5.96361">
        <ele>359.2</ele>
        <time>2023-06-11T10:54:32Z</time>
      </trkpt>
      <trkpt lat="43.73168" lon="5.96361">
        <ele>359.2</ele>
        <time>2023-06-11T10:54:33Z</time>
      </trkpt>
      <trkpt lat="43.73167" lon="5.96361">
        <ele>359.2</ele>
        <time>2023-06-11T10:54:34Z</time>
      </trkpt>
      <trkpt lat="43.73167" lon="5.96361">
        <ele>359.1</ele>
        <time>2023-06-11T10:54:35Z</time>
      </trkpt>
      <trkpt lat="43.73167" lon="5.96361">
        <ele>359.1</ele>
        <time>2023-06-11T10:54:36Z</time>
      </trkpt>
      <trkpt lat="43.73167" lon="5.96361">
        <ele>359.1</ele>
        <time>2023-06-11T10:54:37Z</time>
      </trkpt>
      <trkpt lat="43.73167" lon="5.96361">
        <ele>359.1</ele>
        <time>2023-06-11T10:54:38Z</time>
      </trkpt>
      <trkpt lat="43.73167" lon="5.96361">
        <ele>359.2</ele>
        <time>2023-06-11T10:54:39Z</time>
      </trkpt>
      <trkpt lat="43.73167" lon="5.96361">
        <ele>359.3</ele>
        <time>2023-06-11T10:54:40Z</time>
      </trkpt>
      <trkpt lat="43.73167" lon="5.96361">
        <ele>359.3</ele>
        <time>2023-06-11T10:54:41Z</time>
      </trkpt>
      <trkpt lat="43.73167" lon="5.96361">
        <ele>359.3</ele>
        <time>2023-06-11T10:54:42Z</time>
      </trkpt>
      <trkpt lat="43.73167" lon="5.96361">
        <ele>359.3</ele>
        <time>2023-06-11T10:54:43Z</time>
      </trkpt>
      <trkpt lat="43.73167" lon="5.96361">
        <ele>359.2</ele>
        <time>2023-06-11T10:54:44Z</time>
      </trkpt>
      <trkpt lat="43.73167" lon="5.96361">
        <ele>359.2</ele>
        <time>2023-06-11T10:54:45Z</time>
      </trkpt>
      <trkpt lat="43.73167" lon="5.9636">
        <ele>359.3</ele>
        <time>2023-06-11T10:54:46Z</time>
      </trkpt>
      <trkpt lat="43.73167" lon="5.96361">
        <ele>359.3</ele>
        <time>2023-06-11T10:54:47Z</time>
      </trkpt>
      <trkpt lat="43.73167" lon="5.96361">
        <ele>359.3</ele>
        <time>2023-06-11T10:54:48Z</time>
      </trkpt>
      <trkpt lat="43.73167" lon="5.96361">
        <ele>359.4</ele>
        <time>2023-06-11T10:54:49Z</time>
      </trkpt>
      <trkpt lat="43.73167" lon="5.96361">
        <ele>359.4</ele>
        <time>2023-06-11T10:54:50Z</time>
      </trkpt>
      <trkpt lat="43.73167" lon="5.96361">
        <ele>359.5</ele>
        <time>2023-06-11T10:54:51Z</time>
      </trkpt>
      <trkpt lat="43.73167" lon="5.96361">
        <ele>359.4</ele>
        <time>2023-06-11T10:54:52Z</time>
      </trkpt>
      <trkpt lat="43.73167" lon="5.96361">
        <ele>359.4</ele>
        <time>2023-06-11T10:54:53Z</time>
      </trkpt>
      <trkpt lat="43.73167" lon="5.96361">
        <ele>359.4</ele>
        <time>2023-06-11T10:54:54Z</time>
      </trkpt>
      <trkpt lat="43.73167" lon="5.96361">
        <ele>359.5</ele>
        <time>2023-06-11T10:54:55Z</time>
      </trkpt>
      <trkpt lat="43.73167" lon="5.96361">
        <ele>359.5</ele>
        <time>2023-06-11T10:54:56Z</time>
      </trkpt>
      <trkpt lat="43.73167" lon="5.96361">
        <ele>359.5</ele>
        <time>2023-06-11T10:54:57Z</time>
      </trkpt>
      <trkpt lat="43.73167" lon="5.96361">
        <ele>359.5</ele>
        <time>2023-06-11T10:54:58Z</time>
      </trkpt>
      <trkpt lat="43.73167" lon="5.96361">
        <ele>359.4</ele>
        <time>2023-06-11T10:54:59Z</time>
      </trkpt>
      <trkpt lat="43.73167" lon="5.96361">
        <ele>359.4</ele>
        <time>2023-06-11T10:55:00Z</time>
      </trkpt>
      <trkpt lat="43.73167" lon="5.96361">
        <ele>359.5</ele>
        <time>2023-06-11T10:55:01Z</time>
      </trkpt>
      <trkpt lat="43.73167" lon="5.96362">
        <ele>359.5</ele>
        <time>2023-06-11T10:55:02Z</time>
      </trkpt>
      <trkpt lat="43.73167" lon="5.96362">
        <ele>359.6</ele>
        <time>2023-06-11T10:55:03Z</time>
      </trkpt>
      <trkpt lat="43.73168" lon="5.96362">
        <ele>359.5</ele>
        <time>2023-06-11T10:55:04Z</time>
      </trkpt>
      <trkpt lat="43.73168" lon="5.96362">
        <ele>359.5</ele>
        <time>2023-06-11T10:55:05Z</time>
      </trkpt>
      <trkpt lat="43.73168" lon="5.96362">
        <ele>359.5</ele>
        <time>2023-06-11T10:55:06Z</time>
      </trkpt>
      <trkpt lat="43.73168" lon="5.96361">
        <ele>359.4</ele>
        <time>2023-06-11T10:55:07Z</time>
      </trkpt>
      <trkpt lat="43.73168" lon="5.96361">
        <ele>359.4</ele>
        <time>2023-06-11T10:55:08Z</time>
      </trkpt>
      <trkpt lat="43.73168" lon="5.96361">
        <ele>359.4</ele>
        <time>2023-06-11T10:55:09Z</time>
      </trkpt>
      <trkpt lat="43.73168" lon="5.96361">
        <ele>359.4</ele>
        <time>2023-06-11T10:55:10Z</time>
      </trkpt>
      <trkpt lat="43.73168" lon="5.96361">
        <ele>359.4</ele>
        <time>2023-06-11T10:55:11Z</time>
      </trkpt>
      <trkpt lat="43.73168" lon="5.96361">
        <ele>359.4</ele>
        <time>2023-06-11T10:55:12Z</time>
      </trkpt>
      <trkpt lat="43.73168" lon="5.96361">
        <ele>359.4</ele>
        <time>2023-06-11T10:55:13Z</time>
      </trkpt>
      <trkpt lat="43.73168" lon="5.96361">
        <ele>359.4</ele>
        <time>2023-06-11T10:55:14Z</time>
      </trkpt>
      <trkpt lat="43.73168" lon="5.96361">
        <ele>359.5</ele>
        <time>2023-06-11T10:55:15Z</time>
      </trkpt>
      <trkpt lat="43.73168" lon="5.96361">
        <ele>359.5</ele>
        <time>2023-06-11T10:55:16Z</time>
      </trkpt>
      <trkpt lat="43.73168" lon="5.96361">
        <ele>359.5</ele>
        <time>2023-06-11T10:55:17Z</time>
      </trkpt>
      <trkpt lat="43.73168" lon="5.96361">
        <ele>359.5</ele>
        <time>2023-06-11T10:55:18Z</time>
      </trkpt>
      <trkpt lat="43.73168" lon="5.96361">
        <ele>359.5</ele>
        <time>2023-06-11T10:55:19Z</time>
      </trkpt>
      <trkpt lat="43.73168" lon="5.96361">
        <ele>359.5</ele>
        <time>2023-06-11T10:55:20Z</time>
      </trkpt>
      <trkpt lat="43.73168" lon="5.96361">
        <ele>359.5</ele>
        <time>2023-06-11T10:55:21Z</time>
      </trkpt>
      <trkpt lat="43.73168" lon="5.96361">
        <ele>359.5</ele>
        <time>2023-06-11T10:55:22Z</time>
      </trkpt>
      <trkpt lat="43.73168" lon="5.96361">
        <ele>359.4</ele>
        <time>2023-06-11T10:55:23Z</time>
      </trkpt>
      <trkpt lat="43.73168" lon="5.96361">
        <ele>359.5</ele>
        <time>2023-06-11T10:55:24Z</time>
      </trkpt>
      <trkpt lat="43.73168" lon="5.96361">
        <ele>359.5</ele>
        <time>2023-06-11T10:55:25Z</time>
      </trkpt>
      <trkpt lat="43.73168" lon="5.96361">
        <ele>359.5</ele>
        <time>2023-06-11T10:55:26Z</time>
      </trkpt>
      <trkpt lat="43.73168" lon="5.96361">
        <ele>359.4</ele>
        <time>2023-06-11T10:55:27Z</time>
      </trkpt>
      <trkpt lat="43.73168" lon="5.96361">
        <ele>359.4</ele>
        <time>2023-06-11T10:55:28Z</time>
      </trkpt>
      <trkpt lat="43.73168" lon="5.96361">
        <ele>359.5</ele>
        <time>2023-06-11T10:55:29Z</time>
      </trkpt>
      <trkpt lat="43.73168" lon="5.96361">
        <ele>359.4</ele>
        <time>2023-06-11T10:55:30Z</time>
      </trkpt>
      <trkpt lat="43.73168" lon="5.96361">
        <ele>359.4</ele>
        <time>2023-06-11T10:55:31Z</time>
      </trkpt>
      <trkpt lat="43.73168" lon="5.96361">
        <ele>359.4</ele>
        <time>2023-06-11T10:55:32Z</time>
      </trkpt>
      <trkpt lat="43.73168" lon="5.9636">
        <ele>359.5</ele>
        <time>2023-06-11T10:55:33Z</time>
      </trkpt>
      <trkpt lat="43.73168" lon="5.9636">
        <ele>359.5</ele>
        <time>2023-06-11T10:55:34Z</time>
      </trkpt>
      <trkpt lat="43.73168" lon="5.9636">
        <ele>359.5</ele>
        <time>2023-06-11T10:55:35Z</time>
      </trkpt>
      <trkpt lat="43.73168" lon="5.9636">
        <ele>359.5</ele>
        <time>2023-06-11T10:55:36Z</time>
      </trkpt>
      <trkpt lat="43.73168" lon="5.9636">
        <ele>359.5</ele>
        <time>2023-06-11T10:55:37Z</time>
      </trkpt>
      <trkpt lat="43.73168" lon="5.9636">
        <ele>359.6</ele>
        <time>2023-06-11T10:55:38Z</time>
      </trkpt>
      <trkpt lat="43.73168" lon="5.9636">
        <ele>359.5</ele>
        <time>2023-06-11T10:55:39Z</time>
      </trkpt>
      <trkpt lat="43.73168" lon="5.9636">
        <ele>359.5</ele>
        <time>2023-06-11T10:55:40Z</time>
      </trkpt>
      <trkpt lat="43.73168" lon="5.9636">
        <ele>359.5</ele>
        <time>2023-06-11T10:55:41Z</time>
      </trkpt>
      <trkpt lat="43.73168" lon="5.9636">
        <ele>359.3</ele>
        <time>2023-06-11T10:55:42Z</time>
      </trkpt>
      <trkpt lat="43.73168" lon="5.9636">
        <ele>359.2</ele>
        <time>2023-06-11T10:55:43Z</time>
      </trkpt>
      <trkpt lat="43.73168" lon="5.9636">
        <ele>359.2</ele>
        <time>2023-06-11T10:55:44Z</time>
      </trkpt>
      <trkpt lat="43.73168" lon="5.9636">
        <ele>359.1</ele>
        <time>2023-06-11T10:55:45Z</time>
      </trkpt>
      <trkpt lat="43.73168" lon="5.9636">
        <ele>359.2</ele>
        <time>2023-06-11T10:55:46Z</time>
      </trkpt>
      <trkpt lat="43.73168" lon="5.9636">
        <ele>359.1</ele>
        <time>2023-06-11T10:55:47Z</time>
      </trkpt>
      <trkpt lat="43.73168" lon="5.9636">
        <ele>359.2</ele>
        <time>2023-06-11T10:55:48Z</time>
      </trkpt>
      <trkpt lat="43.73168" lon="5.9636">
        <ele>359.2</ele>
        <time>2023-06-11T10:55:49Z</time>
      </trkpt>
      <trkpt lat="43.73168" lon="5.9636">
        <ele>359.1</ele>
        <time>2023-06-11T10:55:50Z</time>
      </trkpt>
      <trkpt lat="43.73168" lon="5.9636">
        <ele>359.2</ele>
        <time>2023-06-11T10:55:51Z</time>
      </trkpt>
      <trkpt lat="43.73168" lon="5.96359">
        <ele>359.2</ele>
        <time>2023-06-11T10:55:52Z</time>
      </trkpt>
      <trkpt lat="43.73168" lon="5.96359">
        <ele>359.3</ele>
        <time>2023-06-11T10:55:53Z</time>
      </trkpt>
      <trkpt lat="43.73168" lon="5.96359">
        <ele>359.3</ele>
        <time>2023-06-11T10:55:54Z</time>
      </trkpt>
      <trkpt lat="43.73168" lon="5.96359">
        <ele>359.3</ele>
        <time>2023-06-11T10:55:55Z</time>
      </trkpt>
      <trkpt lat="43.73168" lon="5.96359">
        <ele>359.3</ele>
        <time>2023-06-11T10:55:56Z</time>
      </trkpt>
      <trkpt lat="43.73168" lon="5.96359">
        <ele>359.3</ele>
        <time>2023-06-11T10:55:57Z</time>
      </trkpt>
      <trkpt lat="43.73168" lon="5.96359">
        <ele>359.3</ele>
        <time>2023-06-11T10:55:58Z</time>
      </trkpt>
      <trkpt lat="43.73168" lon="5.96359">
        <ele>359.3</ele>
        <time>2023-06-11T10:55:59Z</time>
      </trkpt>
      <trkpt lat="43.73168" lon="5.96359">
        <ele>359.4</ele>
        <time>2023-06-11T10:56:00Z</time>
      </trkpt>
      <trkpt lat="43.73168" lon="5.96359">
        <ele>359.4</ele>
        <time>2023-06-11T10:56:01Z</time>
      </trkpt>
      <trkpt lat="43.73168" lon="5.96359">
        <ele>359.4</ele>
        <time>2023-06-11T10:56:02Z</time>
      </trkpt>
      <trkpt lat="43.73168" lon="5.96359">
        <ele>359.5</ele>
        <time>2023-06-11T10:56:03Z</time>
      </trkpt>
      <trkpt lat="43.73168" lon="5.96359">
        <ele>359.5</ele>
        <time>2023-06-11T10:56:04Z</time>
      </trkpt>
      <trkpt lat="43.73167" lon="5.96359">
        <ele>359.6</ele>
        <time>2023-06-11T10:56:05Z</time>
      </trkpt>
      <trkpt lat="43.73167" lon="5.96359">
        <ele>359.6</ele>
        <time>2023-06-11T10:56:06Z</time>
      </trkpt>
      <trkpt lat="43.73167" lon="5.96359">
        <ele>359.6</ele>
        <time>2023-06-11T10:56:07Z</time>
      </trkpt>
      <trkpt lat="43.73167" lon="5.96359">
        <ele>359.6</ele>
        <time>2023-06-11T10:56:08Z</time>
      </trkpt>
      <trkpt lat="43.73167" lon="5.96359">
        <ele>359.6</ele>
        <time>2023-06-11T10:56:09Z</time>
      </trkpt>
      <trkpt lat="43.73167" lon="5.96359">
        <ele>359.6</ele>
        <time>2023-06-11T10:56:10Z</time>
      </trkpt>
      <trkpt lat="43.73167" lon="5.96359">
        <ele>359.5</ele>
        <time>2023-06-11T10:56:11Z</time>
      </trkpt>
      <trkpt lat="43.73167" lon="5.96359">
        <ele>359.5</ele>
        <time>2023-06-11T10:56:12Z</time>
      </trkpt>
      <trkpt lat="43.73167" lon="5.96359">
        <ele>359.4</ele>
        <time>2023-06-11T10:56:13Z</time>
      </trkpt>
      <trkpt lat="43.73167" lon="5.96359">
        <ele>359.4</ele>
        <time>2023-06-11T10:56:14Z</time>
      </trkpt>
      <trkpt lat="43.73167" lon="5.96359">
        <ele>359.5</ele>
        <time>2023-06-11T10:56:15Z</time>
      </trkpt>
      <trkpt lat="43.73167" lon="5.96359">
        <ele>359.5</ele>
        <time>2023-06-11T10:56:16Z</time>
      </trkpt>
      <trkpt lat="43.73167" lon="5.96359">
        <ele>359.5</ele>
        <time>2023-06-11T10:56:17Z</time>
      </trkpt>
      <trkpt lat="43.73167" lon="5.96359">
        <ele>359.5</ele>
        <time>2023-06-11T10:56:18Z</time>
      </trkpt>
      <trkpt lat="43.73167" lon="5.96359">
        <ele>359.4</ele>
        <time>2023-06-11T10:56:19Z</time>
      </trkpt>
      <trkpt lat="43.73167" lon="5.96359">
        <ele>359.4</ele>
        <time>2023-06-11T10:56:20Z</time>
      </trkpt>
      <trkpt lat="43.73167" lon="5.96359">
        <ele>359.4</ele>
        <time>2023-06-11T10:56:21Z</time>
      </trkpt>
      <trkpt lat="43.73167" lon="5.96359">
        <ele>359.6</ele>
        <time>2023-06-11T10:56:22Z</time>
      </trkpt>
      <trkpt lat="43.73167" lon="5.96359">
        <ele>359.7</ele>
        <time>2023-06-11T10:56:23Z</time>
      </trkpt>
      <trkpt lat="43.73167" lon="5.96359">
        <ele>359.8</ele>
        <time>2023-06-11T10:56:24Z</time>
      </trkpt>
      <trkpt lat="43.73167" lon="5.96359">
        <ele>359.8</ele>
        <time>2023-06-11T10:56:25Z</time>
      </trkpt>
      <trkpt lat="43.73167" lon="5.96359">
        <ele>359.8</ele>
        <time>2023-06-11T10:56:26Z</time>
      </trkpt>
      <trkpt lat="43.73167" lon="5.96359">
        <ele>359.7</ele>
        <time>2023-06-11T10:56:27Z</time>
      </trkpt>
      <trkpt lat="43.73167" lon="5.96359">
        <ele>359.7</ele>
        <time>2023-06-11T10:56:28Z</time>
      </trkpt>
      <trkpt lat="43.73167" lon="5.96359">
        <ele>359.8</ele>
        <time>2023-06-11T10:56:29Z</time>
      </trkpt>
      <trkpt lat="43.73168" lon="5.96359">
        <ele>359.7</ele>
        <time>2023-06-11T10:56:30Z</time>
      </trkpt>
      <trkpt lat="43.73168" lon="5.96359">
        <ele>359.7</ele>
        <time>2023-06-11T10:56:31Z</time>
      </trkpt>
      <trkpt lat="43.73168" lon="5.96359">
        <ele>359.8</ele>
        <time>2023-06-11T10:56:32Z</time>
      </trkpt>
      <trkpt lat="43.73168" lon="5.96359">
        <ele>359.8</ele>
        <time>2023-06-11T10:56:33Z</time>
      </trkpt>
      <trkpt lat="43.73168" lon="5.96359">
        <ele>359.9</ele>
        <time>2023-06-11T10:56:34Z</time>
      </trkpt>
      <trkpt lat="43.73168" lon="5.96359">
        <ele>359.9</ele>
        <time>2023-06-11T10:56:35Z</time>
      </trkpt>
      <trkpt lat="43.73168" lon="5.96359">
        <ele>359.9</ele>
        <time>2023-06-11T10:56:36Z</time>
      </trkpt>
      <trkpt lat="43.73168" lon="5.96359">
        <ele>360</ele>
        <time>2023-06-11T10:56:37Z</time>
      </trkpt>
      <trkpt lat="43.73168" lon="5.96359">
        <ele>360</ele>
        <time>2023-06-11T10:56:38Z</time>
      </trkpt>
      <trkpt lat="43.73168" lon="5.96359">
        <ele>360</ele>
        <time>2023-06-11T10:56:39Z</time>
      </trkpt>
      <trkpt lat="43.73168" lon="5.96359">
        <ele>360</ele>
        <time>2023-06-11T10:56:40Z</time>
      </trkpt>
      <trkpt lat="43.73168" lon="5.96359">
        <ele>360</ele>
        <time>2023-06-11T10:56:41Z</time>
      </trkpt>
      <trkpt lat="43.73168" lon="5.96359">
        <ele>360</ele>
        <time>2023-06-11T10:56:42Z</time>
      </trkpt>
      <trkpt lat="43.73168" lon="5.96359">
        <ele>359.9</ele>
        <time>2023-06-11T10:56:43Z</time>
      </trkpt>
      <trkpt lat="43.73168" lon="5.96359">
        <ele>359.8</ele>
        <time>2023-06-11T10:56:44Z</time>
      </trkpt>
      <trkpt lat="43.73168" lon="5.96359">
        <ele>359.8</ele>
        <time>2023-06-11T10:56:45Z</time>
      </trkpt>
      <trkpt lat="43.73168" lon="5.96359">
        <ele>359.7</ele>
        <time>2023-06-11T10:56:46Z</time>
      </trkpt>
      <trkpt lat="43.73168" lon="5.96359">
        <ele>359.6</ele>
        <time>2023-06-11T10:56:47Z</time>
      </trkpt>
      <trkpt lat="43.73168" lon="5.96359">
        <ele>359.6</ele>
        <time>2023-06-11T10:56:48Z</time>
      </trkpt>
      <trkpt lat="43.73168" lon="5.96359">
        <ele>359.6</ele>
        <time>2023-06-11T10:56:49Z</time>
      </trkpt>
      <trkpt lat="43.73168" lon="5.96359">
        <ele>359.5</ele>
        <time>2023-06-11T10:56:50Z</time>
      </trkpt>
      <trkpt lat="43.73168" lon="5.96359">
        <ele>359.5</ele>
        <time>2023-06-11T10:56:51Z</time>
      </trkpt>
      <trkpt lat="43.73168" lon="5.96359">
        <ele>359.5</ele>
        <time>2023-06-11T10:56:52Z</time>
      </trkpt>
      <trkpt lat="43.73168" lon="5.96359">
        <ele>359.5</ele>
        <time>2023-06-11T10:56:53Z</time>
      </trkpt>
      <trkpt lat="43.73168" lon="5.96359">
        <ele>359.5</ele>
        <time>2023-06-11T10:56:54Z</time>
      </trkpt>
      <trkpt lat="43.73168" lon="5.96359">
        <ele>359.5</ele>
        <time>2023-06-11T10:56:55Z</time>
      </trkpt>
      <trkpt lat="43.73168" lon="5.96359">
        <ele>359.5</ele>
        <time>2023-06-11T10:56:56Z</time>
      </trkpt>
      <trkpt lat="43.73168" lon="5.96359">
        <ele>359.5</ele>
        <time>2023-06-11T10:56:57Z</time>
      </trkpt>
      <trkpt lat="43.73168" lon="5.96359">
        <ele>359.5</ele>
        <time>2023-06-11T10:56:58Z</time>
      </trkpt>
      <trkpt lat="43.73168" lon="5.96359">
        <ele>359.6</ele>
        <time>2023-06-11T10:56:59Z</time>
      </trkpt>
      <trkpt lat="43.73168" lon="5.96359">
        <ele>359.6</ele>
        <time>2023-06-11T10:57:00Z</time>
      </trkpt>
      <trkpt lat="43.73168" lon="5.96358">
        <ele>359.6</ele>
        <time>2023-06-11T10:57:01Z</time>
      </trkpt>
      <trkpt lat="43.73168" lon="5.96358">
        <ele>359.6</ele>
        <time>2023-06-11T10:57:02Z</time>
      </trkpt>
      <trkpt lat="43.73168" lon="5.96358">
        <ele>359.7</ele>
        <time>2023-06-11T10:57:03Z</time>
      </trkpt>
      <trkpt lat="43.73168" lon="5.96358">
        <ele>359.7</ele>
        <time>2023-06-11T10:57:04Z</time>
      </trkpt>
      <trkpt lat="43.73168" lon="5.96358">
        <ele>359.7</ele>
        <time>2023-06-11T10:57:05Z</time>
      </trkpt>
      <trkpt lat="43.73168" lon="5.96358">
        <ele>359.7</ele>
        <time>2023-06-11T10:57:06Z</time>
      </trkpt>
      <trkpt lat="43.73168" lon="5.96358">
        <ele>359.7</ele>
        <time>2023-06-11T10:57:07Z</time>
      </trkpt>
      <trkpt lat="43.73168" lon="5.96358">
        <ele>359.7</ele>
        <time>2023-06-11T10:57:08Z</time>
      </trkpt>
      <trkpt lat="43.73168" lon="5.96358">
        <ele>359.7</ele>
        <time>2023-06-11T10:57:09Z</time>
      </trkpt>
      <trkpt lat="43.73168" lon="5.96358">
        <ele>359.7</ele>
        <time>2023-06-11T10:57:10Z</time>
      </trkpt>
      <trkpt lat="43.73169" lon="5.96358">
        <ele>359.7</ele>
        <time>2023-06-11T10:57:11Z</time>
      </trkpt>
      <trkpt lat="43.73169" lon="5.96358">
        <ele>359.8</ele>
        <time>2023-06-11T10:57:12Z</time>
      </trkpt>
      <trkpt lat="43.73169" lon="5.96358">
        <ele>359.8</ele>
        <time>2023-06-11T10:57:13Z</time>
      </trkpt>
      <trkpt lat="43.73169" lon="5.96358">
        <ele>359.8</ele>
        <time>2023-06-11T10:57:14Z</time>
      </trkpt>
      <trkpt lat="43.73169" lon="5.96358">
        <ele>359.8</ele>
        <time>2023-06-11T10:57:15Z</time>
      </trkpt>
      <trkpt lat="43.73169" lon="5.96358">
        <ele>359.8</ele>
        <time>2023-06-11T10:57:16Z</time>
      </trkpt>
      <trkpt lat="43.73169" lon="5.96358">
        <ele>359.8</ele>
        <time>2023-06-11T10:57:17Z</time>
      </trkpt>
      <trkpt lat="43.73169" lon="5.96359">
        <ele>359.8</ele>
        <time>2023-06-11T10:57:18Z</time>
      </trkpt>
      <trkpt lat="43.73169" lon="5.96359">
        <ele>359.8</ele>
        <time>2023-06-11T10:57:19Z</time>
      </trkpt>
      <trkpt lat="43.73169" lon="5.96359">
        <ele>359.8</ele>
        <time>2023-06-11T10:57:20Z</time>
      </trkpt>
      <trkpt lat="43.73169" lon="5.96359">
        <ele>359.8</ele>
        <time>2023-06-11T10:57:21Z</time>
      </trkpt>
      <trkpt lat="43.73169" lon="5.96359">
        <ele>359.8</ele>
        <time>2023-06-11T10:57:22Z</time>
      </trkpt>
      <trkpt lat="43.73169" lon="5.96359">
        <ele>359.8</ele>
        <time>2023-06-11T10:57:23Z</time>
      </trkpt>
      <trkpt lat="43.73169" lon="5.96359">
        <ele>359.7</ele>
        <time>2023-06-11T10:57:24Z</time>
      </trkpt>
      <trkpt lat="43.73169" lon="5.96359">
        <ele>359.8</ele>
        <time>2023-06-11T10:57:25Z</time>
      </trkpt>
      <trkpt lat="43.73169" lon="5.96359">
        <ele>359.7</ele>
        <time>2023-06-11T10:57:26Z</time>
      </trkpt>
      <trkpt lat="43.73169" lon="5.96359">
        <ele>359.6</ele>
        <time>2023-06-11T10:57:27Z</time>
      </trkpt>
      <trkpt lat="43.73169" lon="5.96359">
        <ele>359.5</ele>
        <time>2023-06-11T10:57:28Z</time>
      </trkpt>
      <trkpt lat="43.73169" lon="5.96359">
        <ele>359.4</ele>
        <time>2023-06-11T10:57:29Z</time>
      </trkpt>
      <trkpt lat="43.73169" lon="5.96359">
        <ele>359.3</ele>
        <time>2023-06-11T10:57:30Z</time>
      </trkpt>
      <trkpt lat="43.73169" lon="5.96359">
        <ele>359.3</ele>
        <time>2023-06-11T10:57:31Z</time>
      </trkpt>
      <trkpt lat="43.73169" lon="5.96359">
        <ele>359.3</ele>
        <time>2023-06-11T10:57:32Z</time>
      </trkpt>
      <trkpt lat="43.73169" lon="5.96359">
        <ele>359.3</ele>
        <time>2023-06-11T10:57:33Z</time>
      </trkpt>
      <trkpt lat="43.73169" lon="5.96359">
        <ele>359.4</ele>
        <time>2023-06-11T10:57:34Z</time>
      </trkpt>
      <trkpt lat="43.73169" lon="5.96359">
        <ele>359.4</ele>
        <time>2023-06-11T10:57:35Z</time>
      </trkpt>
      <trkpt lat="43.73169" lon="5.96359">
        <ele>359.5</ele>
        <time>2023-06-11T10:57:36Z</time>
      </trkpt>
      <trkpt lat="43.73169" lon="5.96359">
        <ele>359.4</ele>
        <time>2023-06-11T10:57:37Z</time>
      </trkpt>
      <trkpt lat="43.73169" lon="5.96359">
        <ele>359.3</ele>
        <time>2023-06-11T10:57:38Z</time>
      </trkpt>
      <trkpt lat="43.73169" lon="5.96359">
        <ele>359.3</ele>
        <time>2023-06-11T10:57:39Z</time>
      </trkpt>
      <trkpt lat="43.73169" lon="5.96359">
        <ele>359.3</ele>
        <time>2023-06-11T10:57:40Z</time>
      </trkpt>
      <trkpt lat="43.73169" lon="5.96359">
        <ele>359.3</ele>
        <time>2023-06-11T10:57:41Z</time>
      </trkpt>
      <trkpt lat="43.73169" lon="5.96359">
        <ele>359.3</ele>
        <time>2023-06-11T10:57:42Z</time>
      </trkpt>
      <trkpt lat="43.73169" lon="5.96359">
        <ele>359.3</ele>
        <time>2023-06-11T10:57:43Z</time>
      </trkpt>
      <trkpt lat="43.73169" lon="5.96359">
        <ele>359.3</ele>
        <time>2023-06-11T10:57:44Z</time>
      </trkpt>
      <trkpt lat="43.73169" lon="5.96359">
        <ele>359.3</ele>
        <time>2023-06-11T10:57:45Z</time>
      </trkpt>
      <trkpt lat="43.73169" lon="5.96359">
        <ele>359.3</ele>
        <time>2023-06-11T10:57:46Z</time>
      </trkpt>
      <trkpt lat="43.73169" lon="5.96359">
        <ele>359.3</ele>
        <time>2023-06-11T10:57:47Z</time>
      </trkpt>
      <trkpt lat="43.73169" lon="5.96359">
        <ele>359.3</ele>
        <time>2023-06-11T10:57:48Z</time>
      </trkpt>
      <trkpt lat="43.73169" lon="5.96359">
        <ele>359.3</ele>
        <time>2023-06-11T10:57:49Z</time>
      </trkpt>
      <trkpt lat="43.73169" lon="5.96359">
        <ele>359.3</ele>
        <time>2023-06-11T10:57:50Z</time>
      </trkpt>
      <trkpt lat="43.73169" lon="5.96359">
        <ele>359.3</ele>
        <time>2023-06-11T10:57:51Z</time>
      </trkpt>
      <trkpt lat="43.73169" lon="5.96359">
        <ele>359.4</ele>
        <time>2023-06-11T10:57:52Z</time>
      </trkpt>
      <trkpt lat="43.73169" lon="5.96359">
        <ele>359.4</ele>
        <time>2023-06-11T10:57:53Z</time>
      </trkpt>
      <trkpt lat="43.73169" lon="5.96359">
        <ele>359.4</ele>
        <time>2023-06-11T10:57:54Z</time>
      </trkpt>
      <trkpt lat="43.73169" lon="5.96359">
        <ele>359.5</ele>
        <time>2023-06-11T10:57:55Z</time>
      </trkpt>
      <trkpt lat="43.73169" lon="5.96359">
        <ele>359.5</ele>
        <time>2023-06-11T10:57:56Z</time>
      </trkpt>
      <trkpt lat="43.73169" lon="5.96359">
        <ele>359.6</ele>
        <time>2023-06-11T10:57:57Z</time>
      </trkpt>
      <trkpt lat="43.73169" lon="5.96359">
        <ele>359.7</ele>
        <time>2023-06-11T10:57:58Z</time>
      </trkpt>
      <trkpt lat="43.73169" lon="5.96359">
        <ele>359.7</ele>
        <time>2023-06-11T10:57:59Z</time>
      </trkpt>
      <trkpt lat="43.73169" lon="5.96359">
        <ele>359.7</ele>
        <time>2023-06-11T10:58:00Z</time>
      </trkpt>
      <trkpt lat="43.73169" lon="5.96359">
        <ele>359.8</ele>
        <time>2023-06-11T10:58:01Z</time>
      </trkpt>
      <trkpt lat="43.73169" lon="5.96358">
        <ele>359.8</ele>
        <time>2023-06-11T10:58:02Z</time>
      </trkpt>
      <trkpt lat="43.73169" lon="5.96358">
        <ele>359.8</ele>
        <time>2023-06-11T10:58:03Z</time>
      </trkpt>
      <trkpt lat="43.73169" lon="5.96358">
        <ele>359.8</ele>
        <time>2023-06-11T10:58:04Z</time>
      </trkpt>
      <trkpt lat="43.73169" lon="5.96358">
        <ele>359.8</ele>
        <time>2023-06-11T10:58:05Z</time>
      </trkpt>
      <trkpt lat="43.73169" lon="5.96358">
        <ele>359.8</ele>
        <time>2023-06-11T10:58:06Z</time>
      </trkpt>
      <trkpt lat="43.73169" lon="5.96358">
        <ele>359.8</ele>
        <time>2023-06-11T10:58:07Z</time>
      </trkpt>
      <trkpt lat="43.73169" lon="5.96358">
        <ele>359.8</ele>
        <time>2023-06-11T10:58:08Z</time>
      </trkpt>
      <trkpt lat="43.73169" lon="5.96358">
        <ele>359.8</ele>
        <time>2023-06-11T10:58:09Z</time>
      </trkpt>
      <trkpt lat="43.73169" lon="5.96358">
        <ele>359.8</ele>
        <time>2023-06-11T10:58:10Z</time>
      </trkpt>
      <trkpt lat="43.73169" lon="5.96358">
        <ele>359.8</ele>
        <time>2023-06-11T10:58:11Z</time>
      </trkpt>
      <trkpt lat="43.73169" lon="5.96358">
        <ele>359.8</ele>
        <time>2023-06-11T10:58:12Z</time>
      </trkpt>
      <trkpt lat="43.73169" lon="5.96358">
        <ele>359.8</ele>
        <time>2023-06-11T10:58:13Z</time>
      </trkpt>
      <trkpt lat="43.73169" lon="5.96358">
        <ele>359.8</ele>
        <time>2023-06-11T10:58:14Z</time>
      </trkpt>
      <trkpt lat="43.73169" lon="5.96358">
        <ele>359.8</ele>
        <time>2023-06-11T10:58:15Z</time>
      </trkpt>
      <trkpt lat="43.73169" lon="5.96358">
        <ele>359.7</ele>
        <time>2023-06-11T10:58:16Z</time>
      </trkpt>
      <trkpt lat="43.73169" lon="5.96358">
        <ele>359.7</ele>
        <time>2023-06-11T10:58:17Z</time>
      </trkpt>
      <trkpt lat="43.73169" lon="5.96358">
        <ele>359.6</ele>
        <time>2023-06-11T10:58:18Z</time>
      </trkpt>
      <trkpt lat="43.73169" lon="5.96358">
        <ele>359.6</ele>
        <time>2023-06-11T10:58:19Z</time>
      </trkpt>
      <trkpt lat="43.73169" lon="5.96358">
        <ele>359.6</ele>
        <time>2023-06-11T10:58:20Z</time>
      </trkpt>
      <trkpt lat="43.73169" lon="5.96358">
        <ele>359.5</ele>
        <time>2023-06-11T10:58:21Z</time>
      </trkpt>
      <trkpt lat="43.73169" lon="5.96358">
        <ele>359.5</ele>
        <time>2023-06-11T10:58:22Z</time>
      </trkpt>
      <trkpt lat="43.73169" lon="5.96358">
        <ele>359.5</ele>
        <time>2023-06-11T10:58:23Z</time>
      </trkpt>
      <trkpt lat="43.73169" lon="5.96358">
        <ele>359.4</ele>
        <time>2023-06-11T10:58:24Z</time>
      </trkpt>
      <trkpt lat="43.73169" lon="5.96358">
        <ele>359.3</ele>
        <time>2023-06-11T10:58:25Z</time>
      </trkpt>
      <trkpt lat="43.73169" lon="5.96358">
        <ele>359.3</ele>
        <time>2023-06-11T10:58:26Z</time>
      </trkpt>
      <trkpt lat="43.73169" lon="5.96357">
        <ele>359.2</ele>
        <time>2023-06-11T10:58:27Z</time>
      </trkpt>
      <trkpt lat="43.73169" lon="5.96357">
        <ele>359.2</ele>
        <time>2023-06-11T10:58:28Z</time>
      </trkpt>
      <trkpt lat="43.73169" lon="5.96357">
        <ele>359.2</ele>
        <time>2023-06-11T10:58:29Z</time>
      </trkpt>
      <trkpt lat="43.73169" lon="5.96357">
        <ele>359.3</ele>
        <time>2023-06-11T10:58:30Z</time>
      </trkpt>
      <trkpt lat="43.73169" lon="5.96357">
        <ele>359.3</ele>
        <time>2023-06-11T10:58:31Z</time>
      </trkpt>
      <trkpt lat="43.73169" lon="5.96357">
        <ele>359.3</ele>
        <time>2023-06-11T10:58:32Z</time>
      </trkpt>
      <trkpt lat="43.73169" lon="5.96357">
        <ele>359.3</ele>
        <time>2023-06-11T10:58:33Z</time>
      </trkpt>
      <trkpt lat="43.73169" lon="5.96357">
        <ele>359.3</ele>
        <time>2023-06-11T10:58:34Z</time>
      </trkpt>
      <trkpt lat="43.73169" lon="5.96357">
        <ele>359.3</ele>
        <time>2023-06-11T10:58:35Z</time>
      </trkpt>
      <trkpt lat="43.73169" lon="5.96357">
        <ele>359.2</ele>
        <time>2023-06-11T10:58:36Z</time>
      </trkpt>
      <trkpt lat="43.73169" lon="5.96357">
        <ele>359.3</ele>
        <time>2023-06-11T10:58:37Z</time>
      </trkpt>
      <trkpt lat="43.73169" lon="5.96357">
        <ele>359.3</ele>
        <time>2023-06-11T10:58:38Z</time>
      </trkpt>
      <trkpt lat="43.73169" lon="5.96357">
        <ele>359.2</ele>
        <time>2023-06-11T10:58:39Z</time>
      </trkpt>
      <trkpt lat="43.73169" lon="5.96357">
        <ele>359.2</ele>
        <time>2023-06-11T10:58:40Z</time>
      </trkpt>
      <trkpt lat="43.73169" lon="5.96357">
        <ele>359.2</ele>
        <time>2023-06-11T10:58:41Z</time>
      </trkpt>
      <trkpt lat="43.73169" lon="5.96357">
        <ele>359.2</ele>
        <time>2023-06-11T10:58:42Z</time>
      </trkpt>
      <trkpt lat="43.73169" lon="5.96357">
        <ele>359.2</ele>
        <time>2023-06-11T10:58:43Z</time>
      </trkpt>
      <trkpt lat="43.73169" lon="5.96357">
        <ele>359.2</ele>
        <time>2023-06-11T10:58:44Z</time>
      </trkpt>
      <trkpt lat="43.73169" lon="5.96357">
        <ele>359.2</ele>
        <time>2023-06-11T10:58:45Z</time>
      </trkpt>
      <trkpt lat="43.73169" lon="5.96357">
        <ele>359.2</ele>
        <time>2023-06-11T10:58:46Z</time>
      </trkpt>
      <trkpt lat="43.73169" lon="5.96357">
        <ele>359.2</ele>
        <time>2023-06-11T10:58:47Z</time>
      </trkpt>
      <trkpt lat="43.73169" lon="5.96357">
        <ele>359.2</ele>
        <time>2023-06-11T10:58:48Z</time>
      </trkpt>
      <trkpt lat="43.73169" lon="5.96357">
        <ele>359.3</ele>
        <time>2023-06-11T10:58:49Z</time>
      </trkpt>
      <trkpt lat="43.73169" lon="5.96357">
        <ele>359.3</ele>
        <time>2023-06-11T10:58:50Z</time>
      </trkpt>
      <trkpt lat="43.73169" lon="5.96356">
        <ele>359.3</ele>
        <time>2023-06-11T10:58:51Z</time>
      </trkpt>
      <trkpt lat="43.73169" lon="5.96356">
        <ele>359.2</ele>
        <time>2023-06-11T10:58:52Z</time>
      </trkpt>
      <trkpt lat="43.73169" lon="5.96356">
        <ele>359.2</ele>
        <time>2023-06-11T10:58:53Z</time>
      </trkpt>
      <trkpt lat="43.73169" lon="5.96356">
        <ele>359.2</ele>
        <time>2023-06-11T10:58:54Z</time>
      </trkpt>
      <trkpt lat="43.73169" lon="5.96356">
        <ele>359.2</ele>
        <time>2023-06-11T10:58:55Z</time>
      </trkpt>
      <trkpt lat="43.73169" lon="5.96356">
        <ele>359.2</ele>
        <time>2023-06-11T10:58:56Z</time>
      </trkpt>
      <trkpt lat="43.73169" lon="5.96356">
        <ele>359.2</ele>
        <time>2023-06-11T10:58:57Z</time>
      </trkpt>
      <trkpt lat="43.73169" lon="5.96356">
        <ele>359.2</ele>
        <time>2023-06-11T10:58:58Z</time>
      </trkpt>
      <trkpt lat="43.73169" lon="5.96356">
        <ele>359.2</ele>
        <time>2023-06-11T10:58:59Z</time>
      </trkpt>
      <trkpt lat="43.73169" lon="5.96356">
        <ele>359.2</ele>
        <time>2023-06-11T10:59:00Z</time>
      </trkpt>
      <trkpt lat="43.73169" lon="5.96356">
        <ele>359.2</ele>
        <time>2023-06-11T10:59:01Z</time>
      </trkpt>
      <trkpt lat="43.73169" lon="5.96356">
        <ele>359.2</ele>
        <time>2023-06-11T10:59:02Z</time>
      </trkpt>
      <trkpt lat="43.73169" lon="5.96356">
        <ele>359.2</ele>
        <time>2023-06-11T10:59:03Z</time>
      </trkpt>
      <trkpt lat="43.73169" lon="5.96356">
        <ele>359.2</ele>
        <time>2023-06-11T10:59:04Z</time>
      </trkpt>
      <trkpt lat="43.73169" lon="5.96356">
        <ele>359.2</ele>
        <time>2023-06-11T10:59:05Z</time>
      </trkpt>
      <trkpt lat="43.7317" lon="5.96356">
        <ele>359.3</ele>
        <time>2023-06-11T10:59:06Z</time>
      </trkpt>
      <trkpt lat="43.7317" lon="5.96356">
        <ele>359.3</ele>
        <time>2023-06-11T10:59:07Z</time>
      </trkpt>
      <trkpt lat="43.7317" lon="5.96356">
        <ele>359.3</ele>
        <time>2023-06-11T10:59:08Z</time>
      </trkpt>
      <trkpt lat="43.73169" lon="5.96356">
        <ele>359.4</ele>
        <time>2023-06-11T10:59:09Z</time>
      </trkpt>
      <trkpt lat="43.73169" lon="5.96356">
        <ele>359.4</ele>
        <time>2023-06-11T10:59:10Z</time>
      </trkpt>
      <trkpt lat="43.73169" lon="5.96356">
        <ele>359.4</ele>
        <time>2023-06-11T10:59:11Z</time>
      </trkpt>
      <trkpt lat="43.73169" lon="5.96356">
        <ele>359.4</ele>
        <time>2023-06-11T10:59:12Z</time>
      </trkpt>
      <trkpt lat="43.73169" lon="5.96356">
        <ele>359.4</ele>
        <time>2023-06-11T10:59:13Z</time>
      </trkpt>
      <trkpt lat="43.73169" lon="5.96356">
        <ele>359.4</ele>
        <time>2023-06-11T10:59:14Z</time>
      </trkpt>
      <trkpt lat="43.73169" lon="5.96356">
        <ele>359.4</ele>
        <time>2023-06-11T10:59:15Z</time>
      </trkpt>
      <trkpt lat="43.73169" lon="5.96356">
        <ele>359.4</ele>
        <time>2023-06-11T10:59:16Z</time>
      </trkpt>
      <trkpt lat="43.73169" lon="5.96356">
        <ele>359.4</ele>
        <time>2023-06-11T10:59:17Z</time>
      </trkpt>
      <trkpt lat="43.73169" lon="5.96356">
        <ele>359.3</ele>
        <time>2023-06-11T10:59:18Z</time>
      </trkpt>
      <trkpt lat="43.73168" lon="5.96356">
        <ele>359.3</ele>
        <time>2023-06-11T10:59:19Z</time>
      </trkpt>
      <trkpt lat="43.73168" lon="5.96356">
        <ele>359.3</ele>
        <time>2023-06-11T10:59:20Z</time>
      </trkpt>
      <trkpt lat="43.73168" lon="5.96356">
        <ele>359.3</ele>
        <time>2023-06-11T10:59:21Z</time>
      </trkpt>
      <trkpt lat="43.73168" lon="5.96356">
        <ele>359.3</ele>
        <time>2023-06-11T10:59:22Z</time>
      </trkpt>
      <trkpt lat="43.73168" lon="5.96356">
        <ele>359.3</ele>
        <time>2023-06-11T10:59:23Z</time>
      </trkpt>
      <trkpt lat="43.73168" lon="5.96356">
        <ele>359.3</ele>
        <time>2023-06-11T10:59:24Z</time>
      </trkpt>
      <trkpt lat="43.73168" lon="5.96357">
        <ele>359.4</ele>
        <time>2023-06-11T10:59:25Z</time>
      </trkpt>
      <trkpt lat="43.73168" lon="5.96357">
        <ele>359.5</ele>
        <time>2023-06-11T10:59:26Z</time>
      </trkpt>
      <trkpt lat="43.73168" lon="5.96356">
        <ele>359.5</ele>
        <time>2023-06-11T10:59:27Z</time>
      </trkpt>
      <trkpt lat="43.73168" lon="5.96357">
        <ele>359.4</ele>
        <time>2023-06-11T10:59:28Z</time>
      </trkpt>
      <trkpt lat="43.73168" lon="5.96357">
        <ele>359.4</ele>
        <time>2023-06-11T10:59:29Z</time>
      </trkpt>
      <trkpt lat="43.73168" lon="5.96357">
        <ele>359.3</ele>
        <time>2023-06-11T10:59:30Z</time>
      </trkpt>
      <trkpt lat="43.73168" lon="5.96357">
        <ele>359.3</ele>
        <time>2023-06-11T10:59:31Z</time>
      </trkpt>
      <trkpt lat="43.73168" lon="5.96357">
        <ele>359.4</ele>
        <time>2023-06-11T10:59:32Z</time>
      </trkpt>
      <trkpt lat="43.73168" lon="5.96357">
        <ele>359.4</ele>
        <time>2023-06-11T10:59:33Z</time>
      </trkpt>
      <trkpt lat="43.73168" lon="5.96357">
        <ele>359.4</ele>
        <time>2023-06-11T10:59:34Z</time>
      </trkpt>
      <trkpt lat="43.73168" lon="5.96357">
        <ele>359.3</ele>
        <time>2023-06-11T10:59:35Z</time>
      </trkpt>
      <trkpt lat="43.73168" lon="5.96357">
        <ele>359.4</ele>
        <time>2023-06-11T10:59:36Z</time>
      </trkpt>
      <trkpt lat="43.73168" lon="5.96357">
        <ele>359.4</ele>
        <time>2023-06-11T10:59:37Z</time>
      </trkpt>
      <trkpt lat="43.73168" lon="5.96357">
        <ele>359.4</ele>
        <time>2023-06-11T10:59:38Z</time>
      </trkpt>
      <trkpt lat="43.73168" lon="5.96357">
        <ele>359.4</ele>
        <time>2023-06-11T10:59:39Z</time>
      </trkpt>
      <trkpt lat="43.73168" lon="5.96357">
        <ele>359.3</ele>
        <time>2023-06-11T10:59:40Z</time>
      </trkpt>
      <trkpt lat="43.73168" lon="5.96357">
        <ele>359.3</ele>
        <time>2023-06-11T10:59:41Z</time>
      </trkpt>
      <trkpt lat="43.73168" lon="5.96357">
        <ele>359.2</ele>
        <time>2023-06-11T10:59:42Z</time>
      </trkpt>
      <trkpt lat="43.73168" lon="5.96357">
        <ele>359.2</ele>
        <time>2023-06-11T10:59:43Z</time>
      </trkpt>
      <trkpt lat="43.73168" lon="5.96357">
        <ele>359.2</ele>
        <time>2023-06-11T10:59:44Z</time>
      </trkpt>
      <trkpt lat="43.73168" lon="5.96358">
        <ele>359.2</ele>
        <time>2023-06-11T10:59:45Z</time>
      </trkpt>
      <trkpt lat="43.73168" lon="5.96358">
        <ele>359.2</ele>
        <time>2023-06-11T10:59:46Z</time>
      </trkpt>
      <trkpt lat="43.73168" lon="5.96358">
        <ele>359.1</ele>
        <time>2023-06-11T10:59:47Z</time>
      </trkpt>
      <trkpt lat="43.73168" lon="5.96358">
        <ele>359.1</ele>
        <time>2023-06-11T10:59:48Z</time>
      </trkpt>
      <trkpt lat="43.73168" lon="5.96358">
        <ele>359</ele>
        <time>2023-06-11T10:59:49Z</time>
      </trkpt>
      <trkpt lat="43.73168" lon="5.96358">
        <ele>359</ele>
        <time>2023-06-11T10:59:50Z</time>
      </trkpt>
      <trkpt lat="43.73168" lon="5.96358">
        <ele>359</ele>
        <time>2023-06-11T10:59:51Z</time>
      </trkpt>
      <trkpt lat="43.73168" lon="5.96358">
        <ele>359.1</ele>
        <time>2023-06-11T10:59:52Z</time>
      </trkpt>
      <trkpt lat="43.73168" lon="5.96358">
        <ele>359.1</ele>
        <time>2023-06-11T10:59:53Z</time>
      </trkpt>
      <trkpt lat="43.73168" lon="5.96358">
        <ele>359.1</ele>
        <time>2023-06-11T10:59:54Z</time>
      </trkpt>
      <trkpt lat="43.73168" lon="5.96358">
        <ele>359.1</ele>
        <time>2023-06-11T10:59:55Z</time>
      </trkpt>
      <trkpt lat="43.73168" lon="5.96358">
        <ele>359.2</ele>
        <time>2023-06-11T10:59:56Z</time>
      </trkpt>
      <trkpt lat="43.73168" lon="5.96358">
        <ele>359.2</ele>
        <time>2023-06-11T10:59:57Z</time>
      </trkpt>
      <trkpt lat="43.73168" lon="5.96359">
        <ele>359.2</ele>
        <time>2023-06-11T10:59:58Z</time>
      </trkpt>
      <trkpt lat="43.73168" lon="5.96358">
        <ele>359.2</ele>
        <time>2023-06-11T10:59:59Z</time>
      </trkpt>
      <trkpt lat="43.73168" lon="5.96359">
        <ele>359.2</ele>
        <time>2023-06-11T11:00:00Z</time>
      </trkpt>
      <trkpt lat="43.73168" lon="5.96359">
        <ele>359.2</ele>
        <time>2023-06-11T11:00:01Z</time>
      </trkpt>
      <trkpt lat="43.73168" lon="5.96359">
        <ele>359.2</ele>
        <time>2023-06-11T11:00:02Z</time>
      </trkpt>
      <trkpt lat="43.73168" lon="5.96359">
        <ele>359.3</ele>
        <time>2023-06-11T11:00:03Z</time>
      </trkpt>
      <trkpt lat="43.73167" lon="5.96359">
        <ele>359.2</ele>
        <time>2023-06-11T11:00:04Z</time>
      </trkpt>
      <trkpt lat="43.73167" lon="5.96359">
        <ele>359.2</ele>
        <time>2023-06-11T11:00:05Z</time>
      </trkpt>
      <trkpt lat="43.73167" lon="5.96359">
        <ele>359.2</ele>
        <time>2023-06-11T11:00:06Z</time>
      </trkpt>
      <trkpt lat="43.73167" lon="5.96359">
        <ele>359.2</ele>
        <time>2023-06-11T11:00:07Z</time>
      </trkpt>
      <trkpt lat="43.73167" lon="5.96359">
        <ele>359.1</ele>
        <time>2023-06-11T11:00:08Z</time>
      </trkpt>
      <trkpt lat="43.73168" lon="5.96359">
        <ele>359.1</ele>
        <time>2023-06-11T11:00:09Z</time>
      </trkpt>
      <trkpt lat="43.73167" lon="5.96359">
        <ele>359.1</ele>
        <time>2023-06-11T11:00:10Z</time>
      </trkpt>
      <trkpt lat="43.73168" lon="5.96359">
        <ele>359.2</ele>
        <time>2023-06-11T11:00:11Z</time>
      </trkpt>
      <trkpt lat="43.73168" lon="5.96359">
        <ele>359.2</ele>
        <time>2023-06-11T11:00:12Z</time>
      </trkpt>
      <trkpt lat="43.73168" lon="5.96359">
        <ele>359.1</ele>
        <time>2023-06-11T11:00:13Z</time>
      </trkpt>
      <trkpt lat="43.73167" lon="5.96359">
        <ele>359.1</ele>
        <time>2023-06-11T11:00:14Z</time>
      </trkpt>
      <trkpt lat="43.73167" lon="5.96359">
        <ele>359.1</ele>
        <time>2023-06-11T11:00:15Z</time>
      </trkpt>
      <trkpt lat="43.73167" lon="5.96359">
        <ele>359.2</ele>
        <time>2023-06-11T11:00:16Z</time>
      </trkpt>
      <trkpt lat="43.73167" lon="5.96359">
        <ele>359.3</ele>
        <time>2023-06-11T11:00:17Z</time>
      </trkpt>
      <trkpt lat="43.73167" lon="5.96359">
        <ele>359.3</ele>
        <time>2023-06-11T11:00:18Z</time>
      </trkpt>
      <trkpt lat="43.73167" lon="5.96359">
        <ele>359.4</ele>
        <time>2023-06-11T11:00:19Z</time>
      </trkpt>
      <trkpt lat="43.73167" lon="5.96359">
        <ele>359.4</ele>
        <time>2023-06-11T11:00:20Z</time>
      </trkpt>
      <trkpt lat="43.73167" lon="5.96359">
        <ele>359.4</ele>
        <time>2023-06-11T11:00:21Z</time>
      </trkpt>
      <trkpt lat="43.73167" lon="5.96359">
        <ele>359.4</ele>
        <time>2023-06-11T11:00:22Z</time>
      </trkpt>
      <trkpt lat="43.73167" lon="5.96359">
        <ele>359.4</ele>
        <time>2023-06-11T11:00:23Z</time>
      </trkpt>
      <trkpt lat="43.73167" lon="5.96359">
        <ele>359.4</ele>
        <time>2023-06-11T11:00:24Z</time>
      </trkpt>
      <trkpt lat="43.73167" lon="5.96359">
        <ele>359.4</ele>
        <time>2023-06-11T11:00:25Z</time>
      </trkpt>
      <trkpt lat="43.73167" lon="5.96359">
        <ele>359.4</ele>
        <time>2023-06-11T11:00:26Z</time>
      </trkpt>
      <trkpt lat="43.73167" lon="5.96359">
        <ele>359.4</ele>
        <time>2023-06-11T11:00:27Z</time>
      </trkpt>
      <trkpt lat="43.73167" lon="5.96359">
        <ele>359.4</ele>
        <time>2023-06-11T11:00:28Z</time>
      </trkpt>
      <trkpt lat="43.73167" lon="5.96359">
        <ele>359.5</ele>
        <time>2023-06-11T11:00:29Z</time>
      </trkpt>
      <trkpt lat="43.73167" lon="5.96359">
        <ele>359.5</ele>
        <time>2023-06-11T11:00:30Z</time>
      </trkpt>
      <trkpt lat="43.73167" lon="5.96359">
        <ele>359.6</ele>
        <time>2023-06-11T11:00:31Z</time>
      </trkpt>
      <trkpt lat="43.73167" lon="5.96359">
        <ele>359.6</ele>
        <time>2023-06-11T11:00:32Z</time>
      </trkpt>
      <trkpt lat="43.73167" lon="5.96359">
        <ele>359.7</ele>
        <time>2023-06-11T11:00:33Z</time>
      </trkpt>
      <trkpt lat="43.73167" lon="5.96359">
        <ele>359.7</ele>
        <time>2023-06-11T11:00:34Z</time>
      </trkpt>
      <trkpt lat="43.73167" lon="5.96359">
        <ele>359.7</ele>
        <time>2023-06-11T11:00:35Z</time>
      </trkpt>
      <trkpt lat="43.73167" lon="5.96359">
        <ele>359.7</ele>
        <time>2023-06-11T11:00:36Z</time>
      </trkpt>
      <trkpt lat="43.73166" lon="5.96359">
        <ele>359.7</ele>
        <time>2023-06-11T11:00:37Z</time>
      </trkpt>
      <trkpt lat="43.73166" lon="5.96359">
        <ele>359.6</ele>
        <time>2023-06-11T11:00:38Z</time>
      </trkpt>
      <trkpt lat="43.73166" lon="5.96359">
        <ele>359.6</ele>
        <time>2023-06-11T11:00:39Z</time>
      </trkpt>
      <trkpt lat="43.73166" lon="5.96359">
        <ele>359.6</ele>
        <time>2023-06-11T11:00:40Z</time>
      </trkpt>
      <trkpt lat="43.73166" lon="5.96359">
        <ele>359.5</ele>
        <time>2023-06-11T11:00:41Z</time>
      </trkpt>
      <trkpt lat="43.73166" lon="5.96359">
        <ele>359.4</ele>
        <time>2023-06-11T11:00:42Z</time>
      </trkpt>
      <trkpt lat="43.73166" lon="5.96359">
        <ele>359.4</ele>
        <time>2023-06-11T11:00:43Z</time>
      </trkpt>
      <trkpt lat="43.73166" lon="5.96359">
        <ele>359.3</ele>
        <time>2023-06-11T11:00:44Z</time>
      </trkpt>
      <trkpt lat="43.73166" lon="5.96359">
        <ele>359.2</ele>
        <time>2023-06-11T11:00:45Z</time>
      </trkpt>
      <trkpt lat="43.73166" lon="5.96359">
        <ele>359.2</ele>
        <time>2023-06-11T11:00:46Z</time>
      </trkpt>
      <trkpt lat="43.73166" lon="5.96359">
        <ele>359.2</ele>
        <time>2023-06-11T11:00:47Z</time>
      </trkpt>
      <trkpt lat="43.73166" lon="5.96359">
        <ele>359.2</ele>
        <time>2023-06-11T11:00:48Z</time>
      </trkpt>
      <trkpt lat="43.73166" lon="5.96359">
        <ele>359.2</ele>
        <time>2023-06-11T11:00:49Z</time>
      </trkpt>
      <trkpt lat="43.73166" lon="5.96359">
        <ele>359.1</ele>
        <time>2023-06-11T11:00:50Z</time>
      </trkpt>
      <trkpt lat="43.73166" lon="5.96359">
        <ele>359.2</ele>
        <time>2023-06-11T11:00:51Z</time>
      </trkpt>
      <trkpt lat="43.73166" lon="5.96359">
        <ele>359.2</ele>
        <time>2023-06-11T11:00:52Z</time>
      </trkpt>
      <trkpt lat="43.73166" lon="5.96359">
        <ele>359.1</ele>
        <time>2023-06-11T11:00:53Z</time>
      </trkpt>
      <trkpt lat="43.73166" lon="5.96359">
        <ele>359.1</ele>
        <time>2023-06-11T11:00:54Z</time>
      </trkpt>
      <trkpt lat="43.73166" lon="5.96359">
        <ele>359.1</ele>
        <time>2023-06-11T11:00:55Z</time>
      </trkpt>
      <trkpt lat="43.73166" lon="5.96359">
        <ele>359</ele>
        <time>2023-06-11T11:00:56Z</time>
      </trkpt>
      <trkpt lat="43.73166" lon="5.96359">
        <ele>359</ele>
        <time>2023-06-11T11:00:57Z</time>
      </trkpt>
      <trkpt lat="43.73166" lon="5.96359">
        <ele>359.1</ele>
        <time>2023-06-11T11:00:58Z</time>
      </trkpt>
      <trkpt lat="43.73165" lon="5.96359">
        <ele>359.1</ele>
        <time>2023-06-11T11:00:59Z</time>
      </trkpt>
      <trkpt lat="43.73165" lon="5.96359">
        <ele>359.1</ele>
        <time>2023-06-11T11:01:00Z</time>
      </trkpt>
      <trkpt lat="43.73165" lon="5.96359">
        <ele>359.2</ele>
        <time>2023-06-11T11:01:01Z</time>
      </trkpt>
      <trkpt lat="43.73165" lon="5.96359">
        <ele>359.2</ele>
        <time>2023-06-11T11:01:02Z</time>
      </trkpt>
      <trkpt lat="43.73165" lon="5.96359">
        <ele>359.3</ele>
        <time>2023-06-11T11:01:03Z</time>
      </trkpt>
      <trkpt lat="43.73165" lon="5.96359">
        <ele>359.2</ele>
        <time>2023-06-11T11:01:04Z</time>
      </trkpt>
      <trkpt lat="43.73165" lon="5.96359">
        <ele>359.2</ele>
        <time>2023-06-11T11:01:05Z</time>
      </trkpt>
      <trkpt lat="43.73165" lon="5.96359">
        <ele>359.2</ele>
        <time>2023-06-11T11:01:06Z</time>
      </trkpt>
      <trkpt lat="43.73165" lon="5.96359">
        <ele>359.2</ele>
        <time>2023-06-11T11:01:07Z</time>
      </trkpt>
      <trkpt lat="43.73165" lon="5.96359">
        <ele>359.2</ele>
        <time>2023-06-11T11:01:08Z</time>
      </trkpt>
      <trkpt lat="43.73165" lon="5.96359">
        <ele>359.2</ele>
        <time>2023-06-11T11:01:09Z</time>
      </trkpt>
      <trkpt lat="43.73165" lon="5.96359">
        <ele>359.3</ele>
        <time>2023-06-11T11:01:10Z</time>
      </trkpt>
      <trkpt lat="43.73165" lon="5.96359">
        <ele>359.3</ele>
        <time>2023-06-11T11:01:11Z</time>
      </trkpt>
      <trkpt lat="43.73165" lon="5.96359">
        <ele>359.3</ele>
        <time>2023-06-11T11:01:12Z</time>
      </trkpt>
      <trkpt lat="43.73165" lon="5.96359">
        <ele>359.3</ele>
        <time>2023-06-11T11:01:13Z</time>
      </trkpt>
      <trkpt lat="43.73165" lon="5.96359">
        <ele>359.2</ele>
        <time>2023-06-11T11:01:14Z</time>
      </trkpt>
      <trkpt lat="43.73165" lon="5.96359">
        <ele>359.2</ele>
        <time>2023-06-11T11:01:15Z</time>
      </trkpt>
      <trkpt lat="43.73165" lon="5.96359">
        <ele>359.2</ele>
        <time>2023-06-11T11:01:16Z</time>
      </trkpt>
      <trkpt lat="43.73165" lon="5.96359">
        <ele>359.2</ele>
        <time>2023-06-11T11:01:17Z</time>
      </trkpt>
      <trkpt lat="43.73165" lon="5.96359">
        <ele>359.2</ele>
        <time>2023-06-11T11:01:18Z</time>
      </trkpt>
      <trkpt lat="43.73165" lon="5.96359">
        <ele>359.1</ele>
        <time>2023-06-11T11:01:19Z</time>
      </trkpt>
      <trkpt lat="43.73165" lon="5.96359">
        <ele>359.1</ele>
        <time>2023-06-11T11:01:20Z</time>
      </trkpt>
      <trkpt lat="43.73165" lon="5.96359">
        <ele>359.2</ele>
        <time>2023-06-11T11:01:21Z</time>
      </trkpt>
      <trkpt lat="43.73165" lon="5.96359">
        <ele>359.2</ele>
        <time>2023-06-11T11:01:22Z</time>
      </trkpt>
      <trkpt lat="43.73165" lon="5.96359">
        <ele>359.2</ele>
        <time>2023-06-11T11:01:23Z</time>
      </trkpt>
      <trkpt lat="43.73164" lon="5.96359">
        <ele>359.1</ele>
        <time>2023-06-11T11:01:24Z</time>
      </trkpt>
      <trkpt lat="43.73164" lon="5.96359">
        <ele>359.1</ele>
        <time>2023-06-11T11:01:25Z</time>
      </trkpt>
      <trkpt lat="43.73164" lon="5.96359">
        <ele>359.1</ele>
        <time>2023-06-11T11:01:26Z</time>
      </trkpt>
      <trkpt lat="43.73164" lon="5.96358">
        <ele>359.1</ele>
        <time>2023-06-11T11:01:27Z</time>
      </trkpt>
      <trkpt lat="43.73164" lon="5.96359">
        <ele>359.1</ele>
        <time>2023-06-11T11:01:28Z</time>
      </trkpt>
      <trkpt lat="43.73164" lon="5.96359">
        <ele>359</ele>
        <time>2023-06-11T11:01:29Z</time>
      </trkpt>
      <trkpt lat="43.73165" lon="5.96359">
        <ele>359</ele>
        <time>2023-06-11T11:01:30Z</time>
      </trkpt>
      <trkpt lat="43.73165" lon="5.96359">
        <ele>358.9</ele>
        <time>2023-06-11T11:01:31Z</time>
      </trkpt>
      <trkpt lat="43.73165" lon="5.96359">
        <ele>358.9</ele>
        <time>2023-06-11T11:01:32Z</time>
      </trkpt>
      <trkpt lat="43.73165" lon="5.96359">
        <ele>358.9</ele>
        <time>2023-06-11T11:01:33Z</time>
      </trkpt>
      <trkpt lat="43.73165" lon="5.96359">
        <ele>358.8</ele>
        <time>2023-06-11T11:01:34Z</time>
      </trkpt>
      <trkpt lat="43.73165" lon="5.96359">
        <ele>358.8</ele>
        <time>2023-06-11T11:01:35Z</time>
      </trkpt>
      <trkpt lat="43.73165" lon="5.96359">
        <ele>358.7</ele>
        <time>2023-06-11T11:01:36Z</time>
      </trkpt>
      <trkpt lat="43.73165" lon="5.96359">
        <ele>358.7</ele>
        <time>2023-06-11T11:01:37Z</time>
      </trkpt>
      <trkpt lat="43.73165" lon="5.96359">
        <ele>358.7</ele>
        <time>2023-06-11T11:01:38Z</time>
      </trkpt>
      <trkpt lat="43.73165" lon="5.96359">
        <ele>358.7</ele>
        <time>2023-06-11T11:01:39Z</time>
      </trkpt>
      <trkpt lat="43.73165" lon="5.96359">
        <ele>358.7</ele>
        <time>2023-06-11T11:01:40Z</time>
      </trkpt>
      <trkpt lat="43.73165" lon="5.96359">
        <ele>358.7</ele>
        <time>2023-06-11T11:01:41Z</time>
      </trkpt>
      <trkpt lat="43.73165" lon="5.96359">
        <ele>358.7</ele>
        <time>2023-06-11T11:01:42Z</time>
      </trkpt>
      <trkpt lat="43.73165" lon="5.96359">
        <ele>358.7</ele>
        <time>2023-06-11T11:01:43Z</time>
      </trkpt>
      <trkpt lat="43.73165" lon="5.96359">
        <ele>358.7</ele>
        <time>2023-06-11T11:01:44Z</time>
      </trkpt>
      <trkpt lat="43.73165" lon="5.9636">
        <ele>358.7</ele>
        <time>2023-06-11T11:01:45Z</time>
      </trkpt>
      <trkpt lat="43.73165" lon="5.9636">
        <ele>358.7</ele>
        <time>2023-06-11T11:01:46Z</time>
      </trkpt>
      <trkpt lat="43.73165" lon="5.9636">
        <ele>358.7</ele>
        <time>2023-06-11T11:01:47Z</time>
      </trkpt>
      <trkpt lat="43.73165" lon="5.9636">
        <ele>358.7</ele>
        <time>2023-06-11T11:01:48Z</time>
      </trkpt>
      <trkpt lat="43.73165" lon="5.9636">
        <ele>358.7</ele>
        <time>2023-06-11T11:01:49Z</time>
      </trkpt>
      <trkpt lat="43.73165" lon="5.9636">
        <ele>358.8</ele>
        <time>2023-06-11T11:01:50Z</time>
      </trkpt>
      <trkpt lat="43.73165" lon="5.9636">
        <ele>358.7</ele>
        <time>2023-06-11T11:01:51Z</time>
      </trkpt>
      <trkpt lat="43.73165" lon="5.9636">
        <ele>358.7</ele>
        <time>2023-06-11T11:01:52Z</time>
      </trkpt>
      <trkpt lat="43.73165" lon="5.9636">
        <ele>358.7</ele>
        <time>2023-06-11T11:01:53Z</time>
      </trkpt>
      <trkpt lat="43.73165" lon="5.9636">
        <ele>358.7</ele>
        <time>2023-06-11T11:01:54Z</time>
      </trkpt>
      <trkpt lat="43.73165" lon="5.9636">
        <ele>358.8</ele>
        <time>2023-06-11T11:01:55Z</time>
      </trkpt>
      <trkpt lat="43.73165" lon="5.9636">
        <ele>358.8</ele>
        <time>2023-06-11T11:01:56Z</time>
      </trkpt>
      <trkpt lat="43.73165" lon="5.9636">
        <ele>358.8</ele>
        <time>2023-06-11T11:01:57Z</time>
      </trkpt>
      <trkpt lat="43.73165" lon="5.9636">
        <ele>358.9</ele>
        <time>2023-06-11T11:01:58Z</time>
      </trkpt>
      <trkpt lat="43.73166" lon="5.9636">
        <ele>358.9</ele>
        <time>2023-06-11T11:01:59Z</time>
      </trkpt>
      <trkpt lat="43.73166" lon="5.9636">
        <ele>358.9</ele>
        <time>2023-06-11T11:02:00Z</time>
      </trkpt>
      <trkpt lat="43.73166" lon="5.9636">
        <ele>358.9</ele>
        <time>2023-06-11T11:02:01Z</time>
      </trkpt>
      <trkpt lat="43.73166" lon="5.96361">
        <ele>358.8</ele>
        <time>2023-06-11T11:02:02Z</time>
      </trkpt>
      <trkpt lat="43.73166" lon="5.9636">
        <ele>358.8</ele>
        <time>2023-06-11T11:02:03Z</time>
      </trkpt>
      <trkpt lat="43.73166" lon="5.9636">
        <ele>358.8</ele>
        <time>2023-06-11T11:02:04Z</time>
      </trkpt>
      <trkpt lat="43.73165" lon="5.9636">
        <ele>358.8</ele>
        <time>2023-06-11T11:02:05Z</time>
      </trkpt>
      <trkpt lat="43.73165" lon="5.9636">
        <ele>358.7</ele>
        <time>2023-06-11T11:02:06Z</time>
      </trkpt>
      <trkpt lat="43.73165" lon="5.9636">
        <ele>358.7</ele>
        <time>2023-06-11T11:02:07Z</time>
      </trkpt>
      <trkpt lat="43.73165" lon="5.9636">
        <ele>358.7</ele>
        <time>2023-06-11T11:02:08Z</time>
      </trkpt>
      <trkpt lat="43.73165" lon="5.9636">
        <ele>358.7</ele>
        <time>2023-06-11T11:02:09Z</time>
      </trkpt>
      <trkpt lat="43.73165" lon="5.9636">
        <ele>358.7</ele>
        <time>2023-06-11T11:02:10Z</time>
      </trkpt>
      <trkpt lat="43.73165" lon="5.9636">
        <ele>358.8</ele>
        <time>2023-06-11T11:02:11Z</time>
      </trkpt>
      <trkpt lat="43.73165" lon="5.9636">
        <ele>358.8</ele>
        <time>2023-06-11T11:02:12Z</time>
      </trkpt>
      <trkpt lat="43.73165" lon="5.96361">
        <ele>358.9</ele>
        <time>2023-06-11T11:02:13Z</time>
      </trkpt>
      <trkpt lat="43.73165" lon="5.96361">
        <ele>358.9</ele>
        <time>2023-06-11T11:02:14Z</time>
      </trkpt>
      <trkpt lat="43.73166" lon="5.96361">
        <ele>358.9</ele>
        <time>2023-06-11T11:02:15Z</time>
      </trkpt>
      <trkpt lat="43.73165" lon="5.96361">
        <ele>359</ele>
        <time>2023-06-11T11:02:16Z</time>
      </trkpt>
      <trkpt lat="43.73165" lon="5.96361">
        <ele>359</ele>
        <time>2023-06-11T11:02:17Z</time>
      </trkpt>
      <trkpt lat="43.73165" lon="5.9636">
        <ele>359</ele>
        <time>2023-06-11T11:02:18Z</time>
      </trkpt>
      <trkpt lat="43.73165" lon="5.9636">
        <ele>359.1</ele>
        <time>2023-06-11T11:02:19Z</time>
      </trkpt>
      <trkpt lat="43.73165" lon="5.9636">
        <ele>359.2</ele>
        <time>2023-06-11T11:02:20Z</time>
      </trkpt>
      <trkpt lat="43.73165" lon="5.9636">
        <ele>359.3</ele>
        <time>2023-06-11T11:02:21Z</time>
      </trkpt>
      <trkpt lat="43.73165" lon="5.9636">
        <ele>359.4</ele>
        <time>2023-06-11T11:02:22Z</time>
      </trkpt>
      <trkpt lat="43.73165" lon="5.9636">
        <ele>359.4</ele>
        <time>2023-06-11T11:02:23Z</time>
      </trkpt>
      <trkpt lat="43.73165" lon="5.9636">
        <ele>359.4</ele>
        <time>2023-06-11T11:02:24Z</time>
      </trkpt>
      <trkpt lat="43.73165" lon="5.9636">
        <ele>359.4</ele>
        <time>2023-06-11T11:02:25Z</time>
      </trkpt>
      <trkpt lat="43.73165" lon="5.9636">
        <ele>359.4</ele>
        <time>2023-06-11T11:02:26Z</time>
      </trkpt>
      <trkpt lat="43.73165" lon="5.9636">
        <ele>359.4</ele>
        <time>2023-06-11T11:02:27Z</time>
      </trkpt>
      <trkpt lat="43.73165" lon="5.9636">
        <ele>359.4</ele>
        <time>2023-06-11T11:02:28Z</time>
      </trkpt>
      <trkpt lat="43.73165" lon="5.9636">
        <ele>359.4</ele>
        <time>2023-06-11T11:02:29Z</time>
      </trkpt>
      <trkpt lat="43.73165" lon="5.9636">
        <ele>359.4</ele>
        <time>2023-06-11T11:02:30Z</time>
      </trkpt>
      <trkpt lat="43.73165" lon="5.9636">
        <ele>359.3</ele>
        <time>2023-06-11T11:02:31Z</time>
      </trkpt>
      <trkpt lat="43.73165" lon="5.9636">
        <ele>359.3</ele>
        <time>2023-06-11T11:02:32Z</time>
      </trkpt>
      <trkpt lat="43.73165" lon="5.9636">
        <ele>359.2</ele>
        <time>2023-06-11T11:02:33Z</time>
      </trkpt>
      <trkpt lat="43.73165" lon="5.9636">
        <ele>359.2</ele>
        <time>2023-06-11T11:02:34Z</time>
      </trkpt>
      <trkpt lat="43.73165" lon="5.9636">
        <ele>359.1</ele>
        <time>2023-06-11T11:02:35Z</time>
      </trkpt>
      <trkpt lat="43.73164" lon="5.96359">
        <ele>359.1</ele>
        <time>2023-06-11T11:02:36Z</time>
      </trkpt>
      <trkpt lat="43.73164" lon="5.96359">
        <ele>359.1</ele>
        <time>2023-06-11T11:02:37Z</time>
      </trkpt>
      <trkpt lat="43.73164" lon="5.96359">
        <ele>359.1</ele>
        <time>2023-06-11T11:02:38Z</time>
      </trkpt>
      <trkpt lat="43.73164" lon="5.96359">
        <ele>359.1</ele>
        <time>2023-06-11T11:02:39Z</time>
      </trkpt>
      <trkpt lat="43.73164" lon="5.96359">
        <ele>359</ele>
        <time>2023-06-11T11:02:40Z</time>
      </trkpt>
      <trkpt lat="43.73164" lon="5.96358">
        <ele>359</ele>
        <time>2023-06-11T11:02:41Z</time>
      </trkpt>
      <trkpt lat="43.73164" lon="5.96358">
        <ele>359</ele>
        <time>2023-06-11T11:02:42Z</time>
      </trkpt>
      <trkpt lat="43.73164" lon="5.96358">
        <ele>359</ele>
        <time>2023-06-11T11:02:43Z</time>
      </trkpt>
      <trkpt lat="43.73163" lon="5.96358">
        <ele>359</ele>
        <time>2023-06-11T11:02:44Z</time>
      </trkpt>
      <trkpt lat="43.73163" lon="5.96358">
        <ele>359.1</ele>
        <time>2023-06-11T11:02:45Z</time>
      </trkpt>
      <trkpt lat="43.73163" lon="5.96358">
        <ele>359.1</ele>
        <time>2023-06-11T11:02:46Z</time>
      </trkpt>
      <trkpt lat="43.73163" lon="5.96358">
        <ele>359.1</ele>
        <time>2023-06-11T11:02:47Z</time>
      </trkpt>
      <trkpt lat="43.73163" lon="5.96358">
        <ele>359.1</ele>
        <time>2023-06-11T11:02:48Z</time>
      </trkpt>
      <trkpt lat="43.73163" lon="5.96358">
        <ele>359</ele>
        <time>2023-06-11T11:02:49Z</time>
      </trkpt>
      <trkpt lat="43.73163" lon="5.96358">
        <ele>358.9</ele>
        <time>2023-06-11T11:02:50Z</time>
      </trkpt>
      <trkpt lat="43.73164" lon="5.96358">
        <ele>358.9</ele>
        <time>2023-06-11T11:02:51Z</time>
      </trkpt>
      <trkpt lat="43.73164" lon="5.96358">
        <ele>358.9</ele>
        <time>2023-06-11T11:02:52Z</time>
      </trkpt>
      <trkpt lat="43.73164" lon="5.96358">
        <ele>359</ele>
        <time>2023-06-11T11:02:53Z</time>
      </trkpt>
      <trkpt lat="43.73163" lon="5.96358">
        <ele>359</ele>
        <time>2023-06-11T11:02:54Z</time>
      </trkpt>
      <trkpt lat="43.73163" lon="5.96358">
        <ele>359</ele>
        <time>2023-06-11T11:02:55Z</time>
      </trkpt>
      <trkpt lat="43.73163" lon="5.96357">
        <ele>359</ele>
        <time>2023-06-11T11:02:56Z</time>
      </trkpt>
      <trkpt lat="43.73163" lon="5.96357">
        <ele>359</ele>
        <time>2023-06-11T11:02:57Z</time>
      </trkpt>
      <trkpt lat="43.73163" lon="5.96357">
        <ele>359</ele>
        <time>2023-06-11T11:02:58Z</time>
      </trkpt>
      <trkpt lat="43.73163" lon="5.96357">
        <ele>359</ele>
        <time>2023-06-11T11:02:59Z</time>
      </trkpt>
      <trkpt lat="43.73163" lon="5.96357">
        <ele>359</ele>
        <time>2023-06-11T11:03:00Z</time>
      </trkpt>
      <trkpt lat="43.73163" lon="5.96357">
        <ele>359.1</ele>
        <time>2023-06-11T11:03:01Z</time>
      </trkpt>
      <trkpt lat="43.73163" lon="5.96357">
        <ele>359.1</ele>
        <time>2023-06-11T11:03:02Z</time>
      </trkpt>
      <trkpt lat="43.73163" lon="5.96357">
        <ele>359</ele>
        <time>2023-06-11T11:03:03Z</time>
      </trkpt>
      <trkpt lat="43.73163" lon="5.96357">
        <ele>359</ele>
        <time>2023-06-11T11:03:04Z</time>
      </trkpt>
      <trkpt lat="43.73163" lon="5.96357">
        <ele>359.1</ele>
        <time>2023-06-11T11:03:05Z</time>
      </trkpt>
      <trkpt lat="43.73163" lon="5.96357">
        <ele>359.1</ele>
        <time>2023-06-11T11:03:06Z</time>
      </trkpt>
      <trkpt lat="43.73163" lon="5.96357">
        <ele>359.2</ele>
        <time>2023-06-11T11:03:07Z</time>
      </trkpt>
      <trkpt lat="43.73163" lon="5.96357">
        <ele>359.3</ele>
        <time>2023-06-11T11:03:08Z</time>
      </trkpt>
      <trkpt lat="43.73163" lon="5.96357">
        <ele>359.3</ele>
        <time>2023-06-11T11:03:09Z</time>
      </trkpt>
      <trkpt lat="43.73163" lon="5.96357">
        <ele>359.3</ele>
        <time>2023-06-11T11:03:10Z</time>
      </trkpt>
      <trkpt lat="43.73163" lon="5.96357">
        <ele>359.3</ele>
        <time>2023-06-11T11:03:11Z</time>
      </trkpt>
      <trkpt lat="43.73163" lon="5.96356">
        <ele>359.3</ele>
        <time>2023-06-11T11:03:12Z</time>
      </trkpt>
      <trkpt lat="43.73163" lon="5.96356">
        <ele>359.3</ele>
        <time>2023-06-11T11:03:13Z</time>
      </trkpt>
      <trkpt lat="43.73163" lon="5.96357">
        <ele>359.2</ele>
        <time>2023-06-11T11:03:14Z</time>
      </trkpt>
      <trkpt lat="43.73163" lon="5.96357">
        <ele>359.2</ele>
        <time>2023-06-11T11:03:15Z</time>
      </trkpt>
      <trkpt lat="43.73163" lon="5.96357">
        <ele>359.3</ele>
        <time>2023-06-11T11:03:16Z</time>
      </trkpt>
      <trkpt lat="43.73163" lon="5.96357">
        <ele>359.3</ele>
        <time>2023-06-11T11:03:17Z</time>
      </trkpt>
      <trkpt lat="43.73163" lon="5.96357">
        <ele>359.3</ele>
        <time>2023-06-11T11:03:18Z</time>
      </trkpt>
      <trkpt lat="43.73163" lon="5.96357">
        <ele>359.3</ele>
        <time>2023-06-11T11:03:19Z</time>
      </trkpt>
      <trkpt lat="43.73163" lon="5.96357">
        <ele>359.2</ele>
        <time>2023-06-11T11:03:20Z</time>
      </trkpt>
      <trkpt lat="43.73163" lon="5.96357">
        <ele>359.1</ele>
        <time>2023-06-11T11:03:21Z</time>
      </trkpt>
      <trkpt lat="43.73163" lon="5.96357">
        <ele>359.2</ele>
        <time>2023-06-11T11:03:22Z</time>
      </trkpt>
      <trkpt lat="43.73163" lon="5.96357">
        <ele>359.2</ele>
        <time>2023-06-11T11:03:23Z</time>
      </trkpt>
      <trkpt lat="43.73163" lon="5.96357">
        <ele>359.3</ele>
        <time>2023-06-11T11:03:24Z</time>
      </trkpt>
      <trkpt lat="43.73163" lon="5.96357">
        <ele>359.3</ele>
        <time>2023-06-11T11:03:25Z</time>
      </trkpt>
      <trkpt lat="43.73163" lon="5.96357">
        <ele>359.2</ele>
        <time>2023-06-11T11:03:26Z</time>
      </trkpt>
      <trkpt lat="43.73162" lon="5.96357">
        <ele>359.2</ele>
        <time>2023-06-11T11:03:27Z</time>
      </trkpt>
      <trkpt lat="43.73162" lon="5.96357">
        <ele>359.2</ele>
        <time>2023-06-11T11:03:28Z</time>
      </trkpt>
      <trkpt lat="43.73162" lon="5.96357">
        <ele>359.2</ele>
        <time>2023-06-11T11:03:29Z</time>
      </trkpt>
      <trkpt lat="43.73162" lon="5.96357">
        <ele>359.2</ele>
        <time>2023-06-11T11:03:30Z</time>
      </trkpt>
      <trkpt lat="43.73162" lon="5.96357">
        <ele>359.2</ele>
        <time>2023-06-11T11:03:31Z</time>
      </trkpt>
      <trkpt lat="43.73162" lon="5.96357">
        <ele>359.2</ele>
        <time>2023-06-11T11:03:32Z</time>
      </trkpt>
      <trkpt lat="43.73162" lon="5.96358">
        <ele>359.2</ele>
        <time>2023-06-11T11:03:33Z</time>
      </trkpt>
      <trkpt lat="43.73162" lon="5.96358">
        <ele>359.3</ele>
        <time>2023-06-11T11:03:34Z</time>
      </trkpt>
      <trkpt lat="43.73162" lon="5.96358">
        <ele>359.3</ele>
        <time>2023-06-11T11:03:35Z</time>
      </trkpt>
      <trkpt lat="43.73162" lon="5.96358">
        <ele>359.2</ele>
        <time>2023-06-11T11:03:36Z</time>
      </trkpt>
      <trkpt lat="43.73163" lon="5.96358">
        <ele>359.2</ele>
        <time>2023-06-11T11:03:37Z</time>
      </trkpt>
      <trkpt lat="43.73163" lon="5.96358">
        <ele>359.2</ele>
        <time>2023-06-11T11:03:38Z</time>
      </trkpt>
      <trkpt lat="43.73163" lon="5.96358">
        <ele>359.2</ele>
        <time>2023-06-11T11:03:39Z</time>
      </trkpt>
      <trkpt lat="43.73163" lon="5.96358">
        <ele>359.2</ele>
        <time>2023-06-11T11:03:40Z</time>
      </trkpt>
      <trkpt lat="43.73163" lon="5.96358">
        <ele>359.2</ele>
        <time>2023-06-11T11:03:41Z</time>
      </trkpt>
      <trkpt lat="43.73163" lon="5.96358">
        <ele>359.1</ele>
        <time>2023-06-11T11:03:42Z</time>
      </trkpt>
      <trkpt lat="43.73163" lon="5.96358">
        <ele>359.1</ele>
        <time>2023-06-11T11:03:43Z</time>
      </trkpt>
      <trkpt lat="43.73163" lon="5.96358">
        <ele>359.1</ele>
        <time>2023-06-11T11:03:44Z</time>
      </trkpt>
      <trkpt lat="43.73163" lon="5.96358">
        <ele>359</ele>
        <time>2023-06-11T11:03:45Z</time>
      </trkpt>
      <trkpt lat="43.73163" lon="5.96358">
        <ele>359</ele>
        <time>2023-06-11T11:03:46Z</time>
      </trkpt>
      <trkpt lat="43.73163" lon="5.96358">
        <ele>359</ele>
        <time>2023-06-11T11:03:47Z</time>
      </trkpt>
      <trkpt lat="43.73163" lon="5.96358">
        <ele>359</ele>
        <time>2023-06-11T11:03:48Z</time>
      </trkpt>
      <trkpt lat="43.73163" lon="5.96358">
        <ele>359</ele>
        <time>2023-06-11T11:03:49Z</time>
      </trkpt>
      <trkpt lat="43.73163" lon="5.96358">
        <ele>359</ele>
        <time>2023-06-11T11:03:50Z</time>
      </trkpt>
      <trkpt lat="43.73163" lon="5.96358">
        <ele>359</ele>
        <time>2023-06-11T11:03:51Z</time>
      </trkpt>
      <trkpt lat="43.73163" lon="5.96358">
        <ele>359</ele>
        <time>2023-06-11T11:03:52Z</time>
      </trkpt>
      <trkpt lat="43.73163" lon="5.96358">
        <ele>359</ele>
        <time>2023-06-11T11:03:53Z</time>
      </trkpt>
      <trkpt lat="43.73163" lon="5.96358">
        <ele>359.1</ele>
        <time>2023-06-11T11:03:54Z</time>
      </trkpt>
      <trkpt lat="43.73162" lon="5.96358">
        <ele>359.1</ele>
        <time>2023-06-11T11:03:55Z</time>
      </trkpt>
      <trkpt lat="43.73162" lon="5.96358">
        <ele>359.1</ele>
        <time>2023-06-11T11:03:56Z</time>
      </trkpt>
      <trkpt lat="43.73162" lon="5.96358">
        <ele>359.1</ele>
        <time>2023-06-11T11:03:57Z</time>
      </trkpt>
      <trkpt lat="43.73162" lon="5.96358">
        <ele>359.1</ele>
        <time>2023-06-11T11:03:58Z</time>
      </trkpt>
      <trkpt lat="43.73162" lon="5.96358">
        <ele>359.1</ele>
        <time>2023-06-11T11:03:59Z</time>
      </trkpt>
      <trkpt lat="43.73162" lon="5.96358">
        <ele>359.1</ele>
        <time>2023-06-11T11:04:00Z</time>
      </trkpt>
      <trkpt lat="43.73162" lon="5.96358">
        <ele>359.1</ele>
        <time>2023-06-11T11:04:01Z</time>
      </trkpt>
      <trkpt lat="43.73162" lon="5.96358">
        <ele>359</ele>
        <time>2023-06-11T11:04:02Z</time>
      </trkpt>
      <trkpt lat="43.73162" lon="5.96358">
        <ele>359</ele>
        <time>2023-06-11T11:04:03Z</time>
      </trkpt>
      <trkpt lat="43.73162" lon="5.96358">
        <ele>359</ele>
        <time>2023-06-11T11:04:04Z</time>
      </trkpt>
      <trkpt lat="43.73162" lon="5.96358">
        <ele>359</ele>
        <time>2023-06-11T11:04:05Z</time>
      </trkpt>
      <trkpt lat="43.73162" lon="5.96358">
        <ele>359.1</ele>
        <time>2023-06-11T11:04:06Z</time>
      </trkpt>
      <trkpt lat="43.73162" lon="5.96358">
        <ele>359.1</ele>
        <time>2023-06-11T11:04:07Z</time>
      </trkpt>
      <trkpt lat="43.73162" lon="5.96358">
        <ele>359.1</ele>
        <time>2023-06-11T11:04:08Z</time>
      </trkpt>
      <trkpt lat="43.73162" lon="5.96358">
        <ele>359.1</ele>
        <time>2023-06-11T11:04:09Z</time>
      </trkpt>
      <trkpt lat="43.73162" lon="5.96358">
        <ele>359.1</ele>
        <time>2023-06-11T11:04:10Z</time>
      </trkpt>
      <trkpt lat="43.73162" lon="5.96358">
        <ele>359.1</ele>
        <time>2023-06-11T11:04:11Z</time>
      </trkpt>
      <trkpt lat="43.73162" lon="5.96358">
        <ele>359.1</ele>
        <time>2023-06-11T11:04:12Z</time>
      </trkpt>
      <trkpt lat="43.73162" lon="5.96357">
        <ele>359.1</ele>
        <time>2023-06-11T11:04:13Z</time>
      </trkpt>
      <trkpt lat="43.73162" lon="5.96357">
        <ele>359.1</ele>
        <time>2023-06-11T11:04:14Z</time>
      </trkpt>
      <trkpt lat="43.73162" lon="5.96357">
        <ele>359</ele>
        <time>2023-06-11T11:04:15Z</time>
      </trkpt>
      <trkpt lat="43.73162" lon="5.96357">
        <ele>359</ele>
        <time>2023-06-11T11:04:16Z</time>
      </trkpt>
      <trkpt lat="43.73162" lon="5.96357">
        <ele>359</ele>
        <time>2023-06-11T11:04:17Z</time>
      </trkpt>
      <trkpt lat="43.73162" lon="5.96357">
        <ele>358.9</ele>
        <time>2023-06-11T11:04:18Z</time>
      </trkpt>
      <trkpt lat="43.73162" lon="5.96357">
        <ele>359.1</ele>
        <time>2023-06-11T11:04:19Z</time>
      </trkpt>
      <trkpt lat="43.73162" lon="5.96357">
        <ele>359.1</ele>
        <time>2023-06-11T11:04:20Z</time>
      </trkpt>
      <trkpt lat="43.73162" lon="5.96357">
        <ele>359.2</ele>
        <time>2023-06-11T11:04:21Z</time>
      </trkpt>
      <trkpt lat="43.73162" lon="5.96357">
        <ele>359.1</ele>
        <time>2023-06-11T11:04:22Z</time>
      </trkpt>
      <trkpt lat="43.73162" lon="5.96357">
        <ele>359.1</ele>
        <time>2023-06-11T11:04:23Z</time>
      </trkpt>
      <trkpt lat="43.73162" lon="5.96357">
        <ele>359.1</ele>
        <time>2023-06-11T11:04:24Z</time>
      </trkpt>
      <trkpt lat="43.73162" lon="5.96357">
        <ele>359</ele>
        <time>2023-06-11T11:04:25Z</time>
      </trkpt>
      <trkpt lat="43.73162" lon="5.96357">
        <ele>359</ele>
        <time>2023-06-11T11:04:26Z</time>
      </trkpt>
      <trkpt lat="43.73161" lon="5.96357">
        <ele>359</ele>
        <time>2023-06-11T11:04:27Z</time>
      </trkpt>
      <trkpt lat="43.73161" lon="5.96358">
        <ele>358.9</ele>
        <time>2023-06-11T11:04:28Z</time>
      </trkpt>
      <trkpt lat="43.73161" lon="5.96358">
        <ele>358.9</ele>
        <time>2023-06-11T11:04:29Z</time>
      </trkpt>
      <trkpt lat="43.73161" lon="5.96358">
        <ele>358.9</ele>
        <time>2023-06-11T11:04:30Z</time>
      </trkpt>
      <trkpt lat="43.73161" lon="5.96358">
        <ele>358.9</ele>
        <time>2023-06-11T11:04:31Z</time>
      </trkpt>
      <trkpt lat="43.73161" lon="5.96358">
        <ele>358.9</ele>
        <time>2023-06-11T11:04:32Z</time>
      </trkpt>
      <trkpt lat="43.73161" lon="5.96358">
        <ele>358.9</ele>
        <time>2023-06-11T11:04:33Z</time>
      </trkpt>
      <trkpt lat="43.73161" lon="5.96358">
        <ele>358.9</ele>
        <time>2023-06-11T11:04:34Z</time>
      </trkpt>
      <trkpt lat="43.73161" lon="5.96358">
        <ele>358.9</ele>
        <time>2023-06-11T11:04:35Z</time>
      </trkpt>
      <trkpt lat="43.73161" lon="5.96358">
        <ele>358.9</ele>
        <time>2023-06-11T11:04:36Z</time>
      </trkpt>
      <trkpt lat="43.73161" lon="5.96358">
        <ele>358.9</ele>
        <time>2023-06-11T11:04:37Z</time>
      </trkpt>
      <trkpt lat="43.73161" lon="5.96358">
        <ele>358.9</ele>
        <time>2023-06-11T11:04:38Z</time>
      </trkpt>
      <trkpt lat="43.73161" lon="5.96358">
        <ele>358.9</ele>
        <time>2023-06-11T11:04:39Z</time>
      </trkpt>
      <trkpt lat="43.73161" lon="5.96359">
        <ele>358.9</ele>
        <time>2023-06-11T11:04:40Z</time>
      </trkpt>
      <trkpt lat="43.73161" lon="5.96359">
        <ele>358.9</ele>
        <time>2023-06-11T11:04:41Z</time>
      </trkpt>
      <trkpt lat="43.73161" lon="5.96359">
        <ele>359</ele>
        <time>2023-06-11T11:04:42Z</time>
      </trkpt>
      <trkpt lat="43.73161" lon="5.96359">
        <ele>358.9</ele>
        <time>2023-06-11T11:04:43Z</time>
      </trkpt>
      <trkpt lat="43.73161" lon="5.96359">
        <ele>358.9</ele>
        <time>2023-06-11T11:04:44Z</time>
      </trkpt>
      <trkpt lat="43.73161" lon="5.96359">
        <ele>358.9</ele>
        <time>2023-06-11T11:04:45Z</time>
      </trkpt>
      <trkpt lat="43.73161" lon="5.96359">
        <ele>359</ele>
        <time>2023-06-11T11:04:46Z</time>
      </trkpt>
      <trkpt lat="43.73161" lon="5.96359">
        <ele>359</ele>
        <time>2023-06-11T11:04:47Z</time>
      </trkpt>
      <trkpt lat="43.73161" lon="5.96359">
        <ele>359</ele>
        <time>2023-06-11T11:04:48Z</time>
      </trkpt>
      <trkpt lat="43.73161" lon="5.96359">
        <ele>359</ele>
        <time>2023-06-11T11:04:49Z</time>
      </trkpt>
      <trkpt lat="43.73161" lon="5.9636">
        <ele>359</ele>
        <time>2023-06-11T11:04:50Z</time>
      </trkpt>
      <trkpt lat="43.73161" lon="5.9636">
        <ele>359</ele>
        <time>2023-06-11T11:04:51Z</time>
      </trkpt>
      <trkpt lat="43.73161" lon="5.9636">
        <ele>359.1</ele>
        <time>2023-06-11T11:04:52Z</time>
      </trkpt>
      <trkpt lat="43.73161" lon="5.9636">
        <ele>359.1</ele>
        <time>2023-06-11T11:04:53Z</time>
      </trkpt>
      <trkpt lat="43.73161" lon="5.9636">
        <ele>359.1</ele>
        <time>2023-06-11T11:04:54Z</time>
      </trkpt>
      <trkpt lat="43.7316" lon="5.9636">
        <ele>359.1</ele>
        <time>2023-06-11T11:04:55Z</time>
      </trkpt>
      <trkpt lat="43.7316" lon="5.9636">
        <ele>359.1</ele>
        <time>2023-06-11T11:04:56Z</time>
      </trkpt>
      <trkpt lat="43.7316" lon="5.9636">
        <ele>359.1</ele>
        <time>2023-06-11T11:04:57Z</time>
      </trkpt>
      <trkpt lat="43.73161" lon="5.9636">
        <ele>359.2</ele>
        <time>2023-06-11T11:04:58Z</time>
      </trkpt>
      <trkpt lat="43.73161" lon="5.9636">
        <ele>359.2</ele>
        <time>2023-06-11T11:04:59Z</time>
      </trkpt>
      <trkpt lat="43.7316" lon="5.9636">
        <ele>359.2</ele>
        <time>2023-06-11T11:05:00Z</time>
      </trkpt>
      <trkpt lat="43.7316" lon="5.9636">
        <ele>359.3</ele>
        <time>2023-06-11T11:05:01Z</time>
      </trkpt>
      <trkpt lat="43.7316" lon="5.9636">
        <ele>359.3</ele>
        <time>2023-06-11T11:05:02Z</time>
      </trkpt>
      <trkpt lat="43.73161" lon="5.9636">
        <ele>359.3</ele>
        <time>2023-06-11T11:05:03Z</time>
      </trkpt>
      <trkpt lat="43.73161" lon="5.9636">
        <ele>359.3</ele>
        <time>2023-06-11T11:05:04Z</time>
      </trkpt>
      <trkpt lat="43.73161" lon="5.9636">
        <ele>359.3</ele>
        <time>2023-06-11T11:05:05Z</time>
      </trkpt>
      <trkpt lat="43.73161" lon="5.9636">
        <ele>359.4</ele>
        <time>2023-06-11T11:05:06Z</time>
      </trkpt>
      <trkpt lat="43.73161" lon="5.9636">
        <ele>359.4</ele>
        <time>2023-06-11T11:05:07Z</time>
      </trkpt>
      <trkpt lat="43.73161" lon="5.9636">
        <ele>359.4</ele>
        <time>2023-06-11T11:05:08Z</time>
      </trkpt>
      <trkpt lat="43.73161" lon="5.9636">
        <ele>359.4</ele>
        <time>2023-06-11T11:05:09Z</time>
      </trkpt>
      <trkpt lat="43.73161" lon="5.9636">
        <ele>359.4</ele>
        <time>2023-06-11T11:05:10Z</time>
      </trkpt>
      <trkpt lat="43.73161" lon="5.9636">
        <ele>359.4</ele>
        <time>2023-06-11T11:05:11Z</time>
      </trkpt>
      <trkpt lat="43.73161" lon="5.9636">
        <ele>359.4</ele>
        <time>2023-06-11T11:05:12Z</time>
      </trkpt>
      <trkpt lat="43.73161" lon="5.96361">
        <ele>359.4</ele>
        <time>2023-06-11T11:05:13Z</time>
      </trkpt>
      <trkpt lat="43.73161" lon="5.96361">
        <ele>359.4</ele>
        <time>2023-06-11T11:05:14Z</time>
      </trkpt>
      <trkpt lat="43.73161" lon="5.96361">
        <ele>359.5</ele>
        <time>2023-06-11T11:05:15Z</time>
      </trkpt>
      <trkpt lat="43.73161" lon="5.96361">
        <ele>359.5</ele>
        <time>2023-06-11T11:05:16Z</time>
      </trkpt>
      <trkpt lat="43.73161" lon="5.96361">
        <ele>359.6</ele>
        <time>2023-06-11T11:05:17Z</time>
      </trkpt>
      <trkpt lat="43.73161" lon="5.96361">
        <ele>359.6</ele>
        <time>2023-06-11T11:05:18Z</time>
      </trkpt>
      <trkpt lat="43.73161" lon="5.96361">
        <ele>359.5</ele>
        <time>2023-06-11T11:05:19Z</time>
      </trkpt>
      <trkpt lat="43.73161" lon="5.96361">
        <ele>359.5</ele>
        <time>2023-06-11T11:05:20Z</time>
      </trkpt>
      <trkpt lat="43.73161" lon="5.96361">
        <ele>359.5</ele>
        <time>2023-06-11T11:05:21Z</time>
      </trkpt>
      <trkpt lat="43.73161" lon="5.96361">
        <ele>359.4</ele>
        <time>2023-06-11T11:05:22Z</time>
      </trkpt>
      <trkpt lat="43.73161" lon="5.96361">
        <ele>359.4</ele>
        <time>2023-06-11T11:05:23Z</time>
      </trkpt>
      <trkpt lat="43.73161" lon="5.96361">
        <ele>359.4</ele>
        <time>2023-06-11T11:05:24Z</time>
      </trkpt>
      <trkpt lat="43.73161" lon="5.96361">
        <ele>359.4</ele>
        <time>2023-06-11T11:05:25Z</time>
      </trkpt>
      <trkpt lat="43.73161" lon="5.96361">
        <ele>359.4</ele>
        <time>2023-06-11T11:05:26Z</time>
      </trkpt>
      <trkpt lat="43.73161" lon="5.96361">
        <ele>359.4</ele>
        <time>2023-06-11T11:05:27Z</time>
      </trkpt>
      <trkpt lat="43.73162" lon="5.96361">
        <ele>359.4</ele>
        <time>2023-06-11T11:05:28Z</time>
      </trkpt>
      <trkpt lat="43.73162" lon="5.96361">
        <ele>359.5</ele>
        <time>2023-06-11T11:05:29Z</time>
      </trkpt>
      <trkpt lat="43.73162" lon="5.96361">
        <ele>359.5</ele>
        <time>2023-06-11T11:05:30Z</time>
      </trkpt>
      <trkpt lat="43.73162" lon="5.96361">
        <ele>359.5</ele>
        <time>2023-06-11T11:05:31Z</time>
      </trkpt>
      <trkpt lat="43.73162" lon="5.96361">
        <ele>359.5</ele>
        <time>2023-06-11T11:05:32Z</time>
      </trkpt>
      <trkpt lat="43.73162" lon="5.96361">
        <ele>359.5</ele>
        <time>2023-06-11T11:05:33Z</time>
      </trkpt>
      <trkpt lat="43.73162" lon="5.96361">
        <ele>359.5</ele>
        <time>2023-06-11T11:05:34Z</time>
      </trkpt>
      <trkpt lat="43.73162" lon="5.96361">
        <ele>359.5</ele>
        <time>2023-06-11T11:05:35Z</time>
      </trkpt>
      <trkpt lat="43.73162" lon="5.96361">
        <ele>359.4</ele>
        <time>2023-06-11T11:05:36Z</time>
      </trkpt>
      <trkpt lat="43.73162" lon="5.96361">
        <ele>359.4</ele>
        <time>2023-06-11T11:05:37Z</time>
      </trkpt>
      <trkpt lat="43.73162" lon="5.96361">
        <ele>359.4</ele>
        <time>2023-06-11T11:05:38Z</time>
      </trkpt>
      <trkpt lat="43.73162" lon="5.96361">
        <ele>359.4</ele>
        <time>2023-06-11T11:05:39Z</time>
      </trkpt>
      <trkpt lat="43.73162" lon="5.96361">
        <ele>359.4</ele>
        <time>2023-06-11T11:05:40Z</time>
      </trkpt>
      <trkpt lat="43.73162" lon="5.96361">
        <ele>359.4</ele>
        <time>2023-06-11T11:05:41Z</time>
      </trkpt>
      <trkpt lat="43.73162" lon="5.96361">
        <ele>359.4</ele>
        <time>2023-06-11T11:05:42Z</time>
      </trkpt>
      <trkpt lat="43.73162" lon="5.96361">
        <ele>359.4</ele>
        <time>2023-06-11T11:05:43Z</time>
      </trkpt>
      <trkpt lat="43.73162" lon="5.96361">
        <ele>359.5</ele>
        <time>2023-06-11T11:05:44Z</time>
      </trkpt>
      <trkpt lat="43.73162" lon="5.96361">
        <ele>359.5</ele>
        <time>2023-06-11T11:05:45Z</time>
      </trkpt>
      <trkpt lat="43.73162" lon="5.96361">
        <ele>359.4</ele>
        <time>2023-06-11T11:05:46Z</time>
      </trkpt>
      <trkpt lat="43.73162" lon="5.96361">
        <ele>359.3</ele>
        <time>2023-06-11T11:05:47Z</time>
      </trkpt>
      <trkpt lat="43.73162" lon="5.96361">
        <ele>359.3</ele>
        <time>2023-06-11T11:05:48Z</time>
      </trkpt>
      <trkpt lat="43.73162" lon="5.96361">
        <ele>359.2</ele>
        <time>2023-06-11T11:05:49Z</time>
      </trkpt>
      <trkpt lat="43.73162" lon="5.96361">
        <ele>359.1</ele>
        <time>2023-06-11T11:05:50Z</time>
      </trkpt>
      <trkpt lat="43.73162" lon="5.96361">
        <ele>359.1</ele>
        <time>2023-06-11T11:05:51Z</time>
      </trkpt>
      <trkpt lat="43.73162" lon="5.96361">
        <ele>359.1</ele>
        <time>2023-06-11T11:05:52Z</time>
      </trkpt>
      <trkpt lat="43.73162" lon="5.96361">
        <ele>359.2</ele>
        <time>2023-06-11T11:05:53Z</time>
      </trkpt>
      <trkpt lat="43.73162" lon="5.96361">
        <ele>359.2</ele>
        <time>2023-06-11T11:05:54Z</time>
      </trkpt>
      <trkpt lat="43.73162" lon="5.96361">
        <ele>359.2</ele>
        <time>2023-06-11T11:05:55Z</time>
      </trkpt>
      <trkpt lat="43.73162" lon="5.96361">
        <ele>359.2</ele>
        <time>2023-06-11T11:05:56Z</time>
      </trkpt>
      <trkpt lat="43.73162" lon="5.96361">
        <ele>359.2</ele>
        <time>2023-06-11T11:05:57Z</time>
      </trkpt>
      <trkpt lat="43.73162" lon="5.96361">
        <ele>359.2</ele>
        <time>2023-06-11T11:05:58Z</time>
      </trkpt>
      <trkpt lat="43.73162" lon="5.96361">
        <ele>359.2</ele>
        <time>2023-06-11T11:05:59Z</time>
      </trkpt>
      <trkpt lat="43.73162" lon="5.96361">
        <ele>359.2</ele>
        <time>2023-06-11T11:06:00Z</time>
      </trkpt>
      <trkpt lat="43.73162" lon="5.96361">
        <ele>359.1</ele>
        <time>2023-06-11T11:06:01Z</time>
      </trkpt>
      <trkpt lat="43.73162" lon="5.96361">
        <ele>359.1</ele>
        <time>2023-06-11T11:06:02Z</time>
      </trkpt>
      <trkpt lat="43.73162" lon="5.96361">
        <ele>359.1</ele>
        <time>2023-06-11T11:06:03Z</time>
      </trkpt>
      <trkpt lat="43.73162" lon="5.96361">
        <ele>359.2</ele>
        <time>2023-06-11T11:06:04Z</time>
      </trkpt>
      <trkpt lat="43.73162" lon="5.96361">
        <ele>359.2</ele>
        <time>2023-06-11T11:06:05Z</time>
      </trkpt>
      <trkpt lat="43.73162" lon="5.96361">
        <ele>359.2</ele>
        <time>2023-06-11T11:06:06Z</time>
      </trkpt>
      <trkpt lat="43.73162" lon="5.96361">
        <ele>359.2</ele>
        <time>2023-06-11T11:06:07Z</time>
      </trkpt>
      <trkpt lat="43.73162" lon="5.96361">
        <ele>359.2</ele>
        <time>2023-06-11T11:06:08Z</time>
      </trkpt>
      <trkpt lat="43.73162" lon="5.96361">
        <ele>359.2</ele>
        <time>2023-06-11T11:06:09Z</time>
      </trkpt>
      <trkpt lat="43.73162" lon="5.96361">
        <ele>359.1</ele>
        <time>2023-06-11T11:06:10Z</time>
      </trkpt>
      <trkpt lat="43.73162" lon="5.96361">
        <ele>359.1</ele>
        <time>2023-06-11T11:06:11Z</time>
      </trkpt>
      <trkpt lat="43.73162" lon="5.96361">
        <ele>359.1</ele>
        <time>2023-06-11T11:06:12Z</time>
      </trkpt>
      <trkpt lat="43.73162" lon="5.96361">
        <ele>359.2</ele>
        <time>2023-06-11T11:06:13Z</time>
      </trkpt>
      <trkpt lat="43.73162" lon="5.96361">
        <ele>359.2</ele>
        <time>2023-06-11T11:06:14Z</time>
      </trkpt>
      <trkpt lat="43.73162" lon="5.96361">
        <ele>359.3</ele>
        <time>2023-06-11T11:06:15Z</time>
      </trkpt>
      <trkpt lat="43.73162" lon="5.96361">
        <ele>359.2</ele>
        <time>2023-06-11T11:06:16Z</time>
      </trkpt>
      <trkpt lat="43.73162" lon="5.96361">
        <ele>359.2</ele>
        <time>2023-06-11T11:06:17Z</time>
      </trkpt>
      <trkpt lat="43.73162" lon="5.96361">
        <ele>359.2</ele>
        <time>2023-06-11T11:06:18Z</time>
      </trkpt>
      <trkpt lat="43.73162" lon="5.96361">
        <ele>359.2</ele>
        <time>2023-06-11T11:06:19Z</time>
      </trkpt>
      <trkpt lat="43.73162" lon="5.96361">
        <ele>359.2</ele>
        <time>2023-06-11T11:06:20Z</time>
      </trkpt>
      <trkpt lat="43.73162" lon="5.96361">
        <ele>359.2</ele>
        <time>2023-06-11T11:06:21Z</time>
      </trkpt>
      <trkpt lat="43.73163" lon="5.96361">
        <ele>359.2</ele>
        <time>2023-06-11T11:06:22Z</time>
      </trkpt>
      <trkpt lat="43.73163" lon="5.96361">
        <ele>359.2</ele>
        <time>2023-06-11T11:06:23Z</time>
      </trkpt>
      <trkpt lat="43.73163" lon="5.96361">
        <ele>359.1</ele>
        <time>2023-06-11T11:06:24Z</time>
      </trkpt>
      <trkpt lat="43.73163" lon="5.9636">
        <ele>359.1</ele>
        <time>2023-06-11T11:06:25Z</time>
      </trkpt>
      <trkpt lat="43.73163" lon="5.96361">
        <ele>359.1</ele>
        <time>2023-06-11T11:06:26Z</time>
      </trkpt>
      <trkpt lat="43.73163" lon="5.96361">
        <ele>359.2</ele>
        <time>2023-06-11T11:06:27Z</time>
      </trkpt>
      <trkpt lat="43.73163" lon="5.96361">
        <ele>359.2</ele>
        <time>2023-06-11T11:06:28Z</time>
      </trkpt>
      <trkpt lat="43.73163" lon="5.96361">
        <ele>359.3</ele>
        <time>2023-06-11T11:06:29Z</time>
      </trkpt>
      <trkpt lat="43.73163" lon="5.96361">
        <ele>359.3</ele>
        <time>2023-06-11T11:06:30Z</time>
      </trkpt>
      <trkpt lat="43.73163" lon="5.96361">
        <ele>359.3</ele>
        <time>2023-06-11T11:06:31Z</time>
      </trkpt>
      <trkpt lat="43.73163" lon="5.96361">
        <ele>359.3</ele>
        <time>2023-06-11T11:06:32Z</time>
      </trkpt>
      <trkpt lat="43.73163" lon="5.96361">
        <ele>359.3</ele>
        <time>2023-06-11T11:06:33Z</time>
      </trkpt>
      <trkpt lat="43.73163" lon="5.96361">
        <ele>359.3</ele>
        <time>2023-06-11T11:06:34Z</time>
      </trkpt>
      <trkpt lat="43.73163" lon="5.96361">
        <ele>359.3</ele>
        <time>2023-06-11T11:06:35Z</time>
      </trkpt>
      <trkpt lat="43.73163" lon="5.96361">
        <ele>359.3</ele>
        <time>2023-06-11T11:06:36Z</time>
      </trkpt>
      <trkpt lat="43.73163" lon="5.96361">
        <ele>359.2</ele>
        <time>2023-06-11T11:06:37Z</time>
      </trkpt>
      <trkpt lat="43.73163" lon="5.96361">
        <ele>359.2</ele>
        <time>2023-06-11T11:06:38Z</time>
      </trkpt>
      <trkpt lat="43.73163" lon="5.96361">
        <ele>359.2</ele>
        <time>2023-06-11T11:06:39Z</time>
      </trkpt>
      <trkpt lat="43.73163" lon="5.96361">
        <ele>359.1</ele>
        <time>2023-06-11T11:06:40Z</time>
      </trkpt>
      <trkpt lat="43.73163" lon="5.96361">
        <ele>359.1</ele>
        <time>2023-06-11T11:06:41Z</time>
      </trkpt>
      <trkpt lat="43.73163" lon="5.96361">
        <ele>359</ele>
        <time>2023-06-11T11:06:42Z</time>
      </trkpt>
      <trkpt lat="43.73163" lon="5.96361">
        <ele>359</ele>
        <time>2023-06-11T11:06:43Z</time>
      </trkpt>
      <trkpt lat="43.73163" lon="5.96361">
        <ele>359</ele>
        <time>2023-06-11T11:06:44Z</time>
      </trkpt>
      <trkpt lat="43.73163" lon="5.96361">
        <ele>358.9</ele>
        <time>2023-06-11T11:06:45Z</time>
      </trkpt>
      <trkpt lat="43.73163" lon="5.96361">
        <ele>358.9</ele>
        <time>2023-06-11T11:06:46Z</time>
      </trkpt>
      <trkpt lat="43.73163" lon="5.96361">
        <ele>358.9</ele>
        <time>2023-06-11T11:06:47Z</time>
      </trkpt>
      <trkpt lat="43.73163" lon="5.96361">
        <ele>358.9</ele>
        <time>2023-06-11T11:06:48Z</time>
      </trkpt>
      <trkpt lat="43.73163" lon="5.9636">
        <ele>358.8</ele>
        <time>2023-06-11T11:06:49Z</time>
      </trkpt>
      <trkpt lat="43.73163" lon="5.9636">
        <ele>358.7</ele>
        <time>2023-06-11T11:06:50Z</time>
      </trkpt>
      <trkpt lat="43.73163" lon="5.9636">
        <ele>358.7</ele>
        <time>2023-06-11T11:06:51Z</time>
      </trkpt>
      <trkpt lat="43.73163" lon="5.9636">
        <ele>358.7</ele>
        <time>2023-06-11T11:06:52Z</time>
      </trkpt>
      <trkpt lat="43.73163" lon="5.9636">
        <ele>358.7</ele>
        <time>2023-06-11T11:06:53Z</time>
      </trkpt>
      <trkpt lat="43.73163" lon="5.9636">
        <ele>358.7</ele>
        <time>2023-06-11T11:06:54Z</time>
      </trkpt>
      <trkpt lat="43.73163" lon="5.9636">
        <ele>358.8</ele>
        <time>2023-06-11T11:06:55Z</time>
      </trkpt>
      <trkpt lat="43.73163" lon="5.9636">
        <ele>358.9</ele>
        <time>2023-06-11T11:06:56Z</time>
      </trkpt>
      <trkpt lat="43.73163" lon="5.9636">
        <ele>358.9</ele>
        <time>2023-06-11T11:06:57Z</time>
      </trkpt>
      <trkpt lat="43.73163" lon="5.9636">
        <ele>359</ele>
        <time>2023-06-11T11:06:58Z</time>
      </trkpt>
      <trkpt lat="43.73163" lon="5.9636">
        <ele>359</ele>
        <time>2023-06-11T11:06:59Z</time>
      </trkpt>
      <trkpt lat="43.73163" lon="5.9636">
        <ele>359</ele>
        <time>2023-06-11T11:07:00Z</time>
      </trkpt>
      <trkpt lat="43.73163" lon="5.9636">
        <ele>358.9</ele>
        <time>2023-06-11T11:07:01Z</time>
      </trkpt>
      <trkpt lat="43.73163" lon="5.9636">
        <ele>358.9</ele>
        <time>2023-06-11T11:07:02Z</time>
      </trkpt>
      <trkpt lat="43.73163" lon="5.9636">
        <ele>358.8</ele>
        <time>2023-06-11T11:07:03Z</time>
      </trkpt>
      <trkpt lat="43.73163" lon="5.9636">
        <ele>358.8</ele>
        <time>2023-06-11T11:07:04Z</time>
      </trkpt>
      <trkpt lat="43.73163" lon="5.9636">
        <ele>358.8</ele>
        <time>2023-06-11T11:07:05Z</time>
      </trkpt>
      <trkpt lat="43.73163" lon="5.96359">
        <ele>358.8</ele>
        <time>2023-06-11T11:07:06Z</time>
      </trkpt>
      <trkpt lat="43.73163" lon="5.96359">
        <ele>358.8</ele>
        <time>2023-06-11T11:07:07Z</time>
      </trkpt>
      <trkpt lat="43.73163" lon="5.96359">
        <ele>358.9</ele>
        <time>2023-06-11T11:07:08Z</time>
      </trkpt>
      <trkpt lat="43.73163" lon="5.96359">
        <ele>358.9</ele>
        <time>2023-06-11T11:07:09Z</time>
      </trkpt>
      <trkpt lat="43.73163" lon="5.96359">
        <ele>358.9</ele>
        <time>2023-06-11T11:07:10Z</time>
      </trkpt>
      <trkpt lat="43.73163" lon="5.96359">
        <ele>358.9</ele>
        <time>2023-06-11T11:07:11Z</time>
      </trkpt>
      <trkpt lat="43.73163" lon="5.96359">
        <ele>358.9</ele>
        <time>2023-06-11T11:07:12Z</time>
      </trkpt>
      <trkpt lat="43.73163" lon="5.96359">
        <ele>358.9</ele>
        <time>2023-06-11T11:07:13Z</time>
      </trkpt>
      <trkpt lat="43.73163" lon="5.96359">
        <ele>358.9</ele>
        <time>2023-06-11T11:07:14Z</time>
      </trkpt>
      <trkpt lat="43.73163" lon="5.96359">
        <ele>358.9</ele>
        <time>2023-06-11T11:07:15Z</time>
      </trkpt>
      <trkpt lat="43.73163" lon="5.96359">
        <ele>358.9</ele>
        <time>2023-06-11T11:07:16Z</time>
      </trkpt>
      <trkpt lat="43.73163" lon="5.96359">
        <ele>359</ele>
        <time>2023-06-11T11:07:17Z</time>
      </trkpt>
      <trkpt lat="43.73163" lon="5.96359">
        <ele>359</ele>
        <time>2023-06-11T11:07:18Z</time>
      </trkpt>
      <trkpt lat="43.73163" lon="5.96359">
        <ele>359</ele>
        <time>2023-06-11T11:07:19Z</time>
      </trkpt>
      <trkpt lat="43.73163" lon="5.96359">
        <ele>359</ele>
        <time>2023-06-11T11:07:20Z</time>
      </trkpt>
      <trkpt lat="43.73163" lon="5.96359">
        <ele>359.1</ele>
        <time>2023-06-11T11:07:21Z</time>
      </trkpt>
      <trkpt lat="43.73163" lon="5.96359">
        <ele>359.2</ele>
        <time>2023-06-11T11:07:22Z</time>
      </trkpt>
      <trkpt lat="43.73163" lon="5.96359">
        <ele>359.2</ele>
        <time>2023-06-11T11:07:23Z</time>
      </trkpt>
      <trkpt lat="43.73163" lon="5.96359">
        <ele>359.2</ele>
        <time>2023-06-11T11:07:24Z</time>
      </trkpt>
      <trkpt lat="43.73163" lon="5.96359">
        <ele>359.2</ele>
        <time>2023-06-11T11:07:25Z</time>
      </trkpt>
      <trkpt lat="43.73163" lon="5.96359">
        <ele>359.2</ele>
        <time>2023-06-11T11:07:26Z</time>
      </trkpt>
      <trkpt lat="43.73163" lon="5.96359">
        <ele>359.2</ele>
        <time>2023-06-11T11:07:27Z</time>
      </trkpt>
      <trkpt lat="43.73163" lon="5.96359">
        <ele>359.2</ele>
        <time>2023-06-11T11:07:28Z</time>
      </trkpt>
      <trkpt lat="43.73163" lon="5.96359">
        <ele>359.2</ele>
        <time>2023-06-11T11:07:29Z</time>
      </trkpt>
      <trkpt lat="43.73163" lon="5.96359">
        <ele>359.3</ele>
        <time>2023-06-11T11:07:30Z</time>
      </trkpt>
      <trkpt lat="43.73163" lon="5.96359">
        <ele>359.3</ele>
        <time>2023-06-11T11:07:31Z</time>
      </trkpt>
      <trkpt lat="43.73163" lon="5.96359">
        <ele>359.3</ele>
        <time>2023-06-11T11:07:32Z</time>
      </trkpt>
      <trkpt lat="43.73163" lon="5.96359">
        <ele>359.3</ele>
        <time>2023-06-11T11:07:33Z</time>
      </trkpt>
      <trkpt lat="43.73163" lon="5.96359">
        <ele>359.2</ele>
        <time>2023-06-11T11:07:34Z</time>
      </trkpt>
      <trkpt lat="43.73163" lon="5.96359">
        <ele>359.2</ele>
        <time>2023-06-11T11:07:35Z</time>
      </trkpt>
      <trkpt lat="43.73163" lon="5.96359">
        <ele>359.2</ele>
        <time>2023-06-11T11:07:36Z</time>
      </trkpt>
      <trkpt lat="43.73163" lon="5.96359">
        <ele>359.2</ele>
        <time>2023-06-11T11:07:37Z</time>
      </trkpt>
      <trkpt lat="43.73163" lon="5.96359">
        <ele>359.3</ele>
        <time>2023-06-11T11:07:38Z</time>
      </trkpt>
      <trkpt lat="43.73163" lon="5.96359">
        <ele>359.3</ele>
        <time>2023-06-11T11:07:39Z</time>
      </trkpt>
      <trkpt lat="43.73162" lon="5.96359">
        <ele>359.3</ele>
        <time>2023-06-11T11:07:40Z</time>
      </trkpt>
      <trkpt lat="43.73162" lon="5.96359">
        <ele>359.3</ele>
        <time>2023-06-11T11:07:41Z</time>
      </trkpt>
      <trkpt lat="43.73162" lon="5.96359">
        <ele>359.3</ele>
        <time>2023-06-11T11:07:42Z</time>
      </trkpt>
      <trkpt lat="43.73162" lon="5.96359">
        <ele>359.2</ele>
        <time>2023-06-11T11:07:43Z</time>
      </trkpt>
      <trkpt lat="43.73162" lon="5.96359">
        <ele>359.2</ele>
        <time>2023-06-11T11:07:44Z</time>
      </trkpt>
      <trkpt lat="43.73162" lon="5.96359">
        <ele>359.2</ele>
        <time>2023-06-11T11:07:45Z</time>
      </trkpt>
      <trkpt lat="43.73162" lon="5.96359">
        <ele>359.2</ele>
        <time>2023-06-11T11:07:46Z</time>
      </trkpt>
      <trkpt lat="43.73162" lon="5.96359">
        <ele>359.1</ele>
        <time>2023-06-11T11:07:47Z</time>
      </trkpt>
      <trkpt lat="43.73162" lon="5.96359">
        <ele>359.1</ele>
        <time>2023-06-11T11:07:48Z</time>
      </trkpt>
      <trkpt lat="43.73162" lon="5.96359">
        <ele>359.1</ele>
        <time>2023-06-11T11:07:49Z</time>
      </trkpt>
      <trkpt lat="43.73162" lon="5.96359">
        <ele>359.1</ele>
        <time>2023-06-11T11:07:50Z</time>
      </trkpt>
      <trkpt lat="43.73162" lon="5.96359">
        <ele>359.1</ele>
        <time>2023-06-11T11:07:51Z</time>
      </trkpt>
      <trkpt lat="43.73162" lon="5.96359">
        <ele>359.2</ele>
        <time>2023-06-11T11:07:52Z</time>
      </trkpt>
      <trkpt lat="43.73162" lon="5.96359">
        <ele>359.2</ele>
        <time>2023-06-11T11:07:53Z</time>
      </trkpt>
      <trkpt lat="43.73162" lon="5.96359">
        <ele>359.2</ele>
        <time>2023-06-11T11:07:54Z</time>
      </trkpt>
      <trkpt lat="43.73162" lon="5.96359">
        <ele>359.2</ele>
        <time>2023-06-11T11:07:55Z</time>
      </trkpt>
      <trkpt lat="43.73162" lon="5.96359">
        <ele>359.2</ele>
        <time>2023-06-11T11:07:56Z</time>
      </trkpt>
      <trkpt lat="43.73162" lon="5.96359">
        <ele>359.1</ele>
        <time>2023-06-11T11:07:57Z</time>
      </trkpt>
      <trkpt lat="43.73162" lon="5.96359">
        <ele>359.1</ele>
        <time>2023-06-11T11:07:58Z</time>
      </trkpt>
      <trkpt lat="43.73162" lon="5.96359">
        <ele>359.1</ele>
        <time>2023-06-11T11:07:59Z</time>
      </trkpt>
      <trkpt lat="43.73162" lon="5.96359">
        <ele>359.1</ele>
        <time>2023-06-11T11:08:00Z</time>
      </trkpt>
      <trkpt lat="43.73162" lon="5.96359">
        <ele>359.1</ele>
        <time>2023-06-11T11:08:01Z</time>
      </trkpt>
      <trkpt lat="43.73162" lon="5.96359">
        <ele>359.2</ele>
        <time>2023-06-11T11:08:02Z</time>
      </trkpt>
      <trkpt lat="43.73162" lon="5.96359">
        <ele>359.2</ele>
        <time>2023-06-11T11:08:03Z</time>
      </trkpt>
      <trkpt lat="43.73162" lon="5.96359">
        <ele>359.2</ele>
        <time>2023-06-11T11:08:04Z</time>
      </trkpt>
      <trkpt lat="43.73162" lon="5.96359">
        <ele>359.2</ele>
        <time>2023-06-11T11:08:05Z</time>
      </trkpt>
      <trkpt lat="43.73162" lon="5.96359">
        <ele>359.2</ele>
        <time>2023-06-11T11:08:06Z</time>
      </trkpt>
      <trkpt lat="43.73162" lon="5.96359">
        <ele>359.2</ele>
        <time>2023-06-11T11:08:07Z</time>
      </trkpt>
      <trkpt lat="43.73162" lon="5.96359">
        <ele>359.2</ele>
        <time>2023-06-11T11:08:08Z</time>
      </trkpt>
      <trkpt lat="43.73162" lon="5.96358">
        <ele>359.2</ele>
        <time>2023-06-11T11:08:09Z</time>
      </trkpt>
      <trkpt lat="43.73162" lon="5.96358">
        <ele>359.2</ele>
        <time>2023-06-11T11:08:10Z</time>
      </trkpt>
      <trkpt lat="43.73162" lon="5.96358">
        <ele>359.2</ele>
        <time>2023-06-11T11:08:11Z</time>
      </trkpt>
      <trkpt lat="43.73162" lon="5.96358">
        <ele>359.3</ele>
        <time>2023-06-11T11:08:12Z</time>
      </trkpt>
      <trkpt lat="43.73162" lon="5.96358">
        <ele>359.3</ele>
        <time>2023-06-11T11:08:13Z</time>
      </trkpt>
      <trkpt lat="43.73162" lon="5.96358">
        <ele>359.3</ele>
        <time>2023-06-11T11:08:14Z</time>
      </trkpt>
      <trkpt lat="43.73162" lon="5.96358">
        <ele>359.3</ele>
        <time>2023-06-11T11:08:15Z</time>
      </trkpt>
      <trkpt lat="43.73162" lon="5.96358">
        <ele>359.3</ele>
        <time>2023-06-11T11:08:16Z</time>
      </trkpt>
      <trkpt lat="43.73162" lon="5.96358">
        <ele>359.3</ele>
        <time>2023-06-11T11:08:17Z</time>
      </trkpt>
      <trkpt lat="43.73162" lon="5.96358">
        <ele>359.3</ele>
        <time>2023-06-11T11:08:18Z</time>
      </trkpt>
      <trkpt lat="43.73162" lon="5.96358">
        <ele>359.3</ele>
        <time>2023-06-11T11:08:19Z</time>
      </trkpt>
      <trkpt lat="43.73162" lon="5.96358">
        <ele>359.2</ele>
        <time>2023-06-11T11:08:20Z</time>
      </trkpt>
      <trkpt lat="43.73162" lon="5.96358">
        <ele>359.2</ele>
        <time>2023-06-11T11:08:21Z</time>
      </trkpt>
      <trkpt lat="43.73162" lon="5.96358">
        <ele>359.2</ele>
        <time>2023-06-11T11:08:22Z</time>
      </trkpt>
      <trkpt lat="43.73162" lon="5.96358">
        <ele>359.2</ele>
        <time>2023-06-11T11:08:23Z</time>
      </trkpt>
      <trkpt lat="43.73162" lon="5.96358">
        <ele>359.2</ele>
        <time>2023-06-11T11:08:24Z</time>
      </trkpt>
      <trkpt lat="43.73162" lon="5.96358">
        <ele>359.2</ele>
        <time>2023-06-11T11:08:25Z</time>
      </trkpt>
      <trkpt lat="43.73162" lon="5.96358">
        <ele>359.2</ele>
        <time>2023-06-11T11:08:26Z</time>
      </trkpt>
      <trkpt lat="43.73162" lon="5.96358">
        <ele>359.2</ele>
        <time>2023-06-11T11:08:27Z</time>
      </trkpt>
      <trkpt lat="43.73162" lon="5.96358">
        <ele>359.2</ele>
        <time>2023-06-11T11:08:28Z</time>
      </trkpt>
      <trkpt lat="43.73162" lon="5.96359">
        <ele>359.2</ele>
        <time>2023-06-11T11:08:29Z</time>
      </trkpt>
      <trkpt lat="43.73162" lon="5.96359">
        <ele>359.2</ele>
        <time>2023-06-11T11:08:30Z</time>
      </trkpt>
      <trkpt lat="43.73162" lon="5.96359">
        <ele>359.2</ele>
        <time>2023-06-11T11:08:31Z</time>
      </trkpt>
      <trkpt lat="43.73162" lon="5.96359">
        <ele>359.2</ele>
        <time>2023-06-11T11:08:32Z</time>
      </trkpt>
      <trkpt lat="43.73162" lon="5.96359">
        <ele>359.1</ele>
        <time>2023-06-11T11:08:33Z</time>
      </trkpt>
      <trkpt lat="43.73162" lon="5.96359">
        <ele>359.1</ele>
        <time>2023-06-11T11:08:34Z</time>
      </trkpt>
      <trkpt lat="43.73162" lon="5.96359">
        <ele>359.2</ele>
        <time>2023-06-11T11:08:35Z</time>
      </trkpt>
      <trkpt lat="43.73162" lon="5.96359">
        <ele>359.2</ele>
        <time>2023-06-11T11:08:36Z</time>
      </trkpt>
      <trkpt lat="43.73162" lon="5.96359">
        <ele>359.3</ele>
        <time>2023-06-11T11:08:37Z</time>
      </trkpt>
      <trkpt lat="43.73162" lon="5.96359">
        <ele>359.3</ele>
        <time>2023-06-11T11:08:38Z</time>
      </trkpt>
      <trkpt lat="43.73162" lon="5.96359">
        <ele>359.3</ele>
        <time>2023-06-11T11:08:39Z</time>
      </trkpt>
      <trkpt lat="43.73162" lon="5.96359">
        <ele>359.3</ele>
        <time>2023-06-11T11:08:40Z</time>
      </trkpt>
      <trkpt lat="43.73162" lon="5.96359">
        <ele>359.3</ele>
        <time>2023-06-11T11:08:41Z</time>
      </trkpt>
      <trkpt lat="43.73162" lon="5.96359">
        <ele>359.3</ele>
        <time>2023-06-11T11:08:42Z</time>
      </trkpt>
      <trkpt lat="43.73162" lon="5.96359">
        <ele>359.3</ele>
        <time>2023-06-11T11:08:43Z</time>
      </trkpt>
      <trkpt lat="43.73162" lon="5.96359">
        <ele>359.3</ele>
        <time>2023-06-11T11:08:44Z</time>
      </trkpt>
      <trkpt lat="43.73162" lon="5.96359">
        <ele>359.3</ele>
        <time>2023-06-11T11:08:45Z</time>
      </trkpt>
      <trkpt lat="43.73162" lon="5.9636">
        <ele>359.3</ele>
        <time>2023-06-11T11:08:46Z</time>
      </trkpt>
      <trkpt lat="43.73162" lon="5.9636">
        <ele>359.3</ele>
        <time>2023-06-11T11:08:47Z</time>
      </trkpt>
      <trkpt lat="43.73162" lon="5.9636">
        <ele>359.3</ele>
        <time>2023-06-11T11:08:48Z</time>
      </trkpt>
      <trkpt lat="43.73162" lon="5.9636">
        <ele>359.3</ele>
        <time>2023-06-11T11:08:49Z</time>
      </trkpt>
      <trkpt lat="43.73162" lon="5.9636">
        <ele>359.3</ele>
        <time>2023-06-11T11:08:50Z</time>
      </trkpt>
      <trkpt lat="43.73162" lon="5.9636">
        <ele>359.3</ele>
        <time>2023-06-11T11:08:51Z</time>
      </trkpt>
      <trkpt lat="43.73162" lon="5.9636">
        <ele>359.2</ele>
        <time>2023-06-11T11:08:52Z</time>
      </trkpt>
      <trkpt lat="43.73162" lon="5.9636">
        <ele>359.2</ele>
        <time>2023-06-11T11:08:53Z</time>
      </trkpt>
      <trkpt lat="43.73162" lon="5.9636">
        <ele>359.1</ele>
        <time>2023-06-11T11:08:54Z</time>
      </trkpt>
      <trkpt lat="43.73162" lon="5.9636">
        <ele>359.1</ele>
        <time>2023-06-11T11:08:55Z</time>
      </trkpt>
      <trkpt lat="43.73162" lon="5.9636">
        <ele>359.1</ele>
        <time>2023-06-11T11:08:56Z</time>
      </trkpt>
      <trkpt lat="43.73162" lon="5.9636">
        <ele>359.1</ele>
        <time>2023-06-11T11:08:57Z</time>
      </trkpt>
      <trkpt lat="43.73162" lon="5.9636">
        <ele>359</ele>
        <time>2023-06-11T11:08:58Z</time>
      </trkpt>
      <trkpt lat="43.73162" lon="5.9636">
        <ele>359.1</ele>
        <time>2023-06-11T11:08:59Z</time>
      </trkpt>
      <trkpt lat="43.73162" lon="5.9636">
        <ele>359.1</ele>
        <time>2023-06-11T11:09:00Z</time>
      </trkpt>
      <trkpt lat="43.73162" lon="5.9636">
        <ele>359.1</ele>
        <time>2023-06-11T11:09:01Z</time>
      </trkpt>
      <trkpt lat="43.73162" lon="5.9636">
        <ele>359.1</ele>
        <time>2023-06-11T11:09:02Z</time>
      </trkpt>
      <trkpt lat="43.73162" lon="5.9636">
        <ele>359.1</ele>
        <time>2023-06-11T11:09:03Z</time>
      </trkpt>
      <trkpt lat="43.73162" lon="5.9636">
        <ele>359.1</ele>
        <time>2023-06-11T11:09:04Z</time>
      </trkpt>
      <trkpt lat="43.73162" lon="5.9636">
        <ele>359.2</ele>
        <time>2023-06-11T11:09:05Z</time>
      </trkpt>
      <trkpt lat="43.73162" lon="5.9636">
        <ele>359.2</ele>
        <time>2023-06-11T11:09:06Z</time>
      </trkpt>
      <trkpt lat="43.73162" lon="5.9636">
        <ele>359.2</ele>
        <time>2023-06-11T11:09:07Z</time>
      </trkpt>
      <trkpt lat="43.73162" lon="5.9636">
        <ele>359.1</ele>
        <time>2023-06-11T11:09:08Z</time>
      </trkpt>
      <trkpt lat="43.73162" lon="5.96361">
        <ele>359.2</ele>
        <time>2023-06-11T11:09:09Z</time>
      </trkpt>
      <trkpt lat="43.73162" lon="5.96361">
        <ele>359.2</ele>
        <time>2023-06-11T11:09:10Z</time>
      </trkpt>
      <trkpt lat="43.73162" lon="5.96361">
        <ele>359.2</ele>
        <time>2023-06-11T11:09:11Z</time>
      </trkpt>
      <trkpt lat="43.73162" lon="5.96361">
        <ele>359.2</ele>
        <time>2023-06-11T11:09:12Z</time>
      </trkpt>
      <trkpt lat="43.73162" lon="5.96361">
        <ele>359.2</ele>
        <time>2023-06-11T11:09:13Z</time>
      </trkpt>
      <trkpt lat="43.73162" lon="5.96361">
        <ele>359.2</ele>
        <time>2023-06-11T11:09:14Z</time>
      </trkpt>
      <trkpt lat="43.73162" lon="5.96361">
        <ele>359.2</ele>
        <time>2023-06-11T11:09:15Z</time>
      </trkpt>
      <trkpt lat="43.73162" lon="5.96361">
        <ele>359.3</ele>
        <time>2023-06-11T11:09:16Z</time>
      </trkpt>
      <trkpt lat="43.73162" lon="5.96361">
        <ele>359.4</ele>
        <time>2023-06-11T11:09:17Z</time>
      </trkpt>
      <trkpt lat="43.73162" lon="5.96361">
        <ele>359.5</ele>
        <time>2023-06-11T11:09:18Z</time>
      </trkpt>
      <trkpt lat="43.73162" lon="5.96361">
        <ele>359.6</ele>
        <time>2023-06-11T11:09:19Z</time>
      </trkpt>
      <trkpt lat="43.73162" lon="5.96361">
        <ele>359.7</ele>
        <time>2023-06-11T11:09:20Z</time>
      </trkpt>
      <trkpt lat="43.73162" lon="5.96361">
        <ele>359.7</ele>
        <time>2023-06-11T11:09:21Z</time>
      </trkpt>
      <trkpt lat="43.73162" lon="5.96361">
        <ele>359.6</ele>
        <time>2023-06-11T11:09:22Z</time>
      </trkpt>
      <trkpt lat="43.73162" lon="5.96361">
        <ele>359.5</ele>
        <time>2023-06-11T11:09:23Z</time>
      </trkpt>
      <trkpt lat="43.73162" lon="5.96361">
        <ele>359.5</ele>
        <time>2023-06-11T11:09:24Z</time>
      </trkpt>
      <trkpt lat="43.73162" lon="5.96361">
        <ele>359.4</ele>
        <time>2023-06-11T11:09:25Z</time>
      </trkpt>
      <trkpt lat="43.73162" lon="5.96361">
        <ele>359.4</ele>
        <time>2023-06-11T11:09:26Z</time>
      </trkpt>
      <trkpt lat="43.73162" lon="5.96361">
        <ele>359.4</ele>
        <time>2023-06-11T11:09:27Z</time>
      </trkpt>
      <trkpt lat="43.73162" lon="5.96361">
        <ele>359.4</ele>
        <time>2023-06-11T11:09:28Z</time>
      </trkpt>
      <trkpt lat="43.73162" lon="5.96361">
        <ele>359.3</ele>
        <time>2023-06-11T11:09:29Z</time>
      </trkpt>
      <trkpt lat="43.73162" lon="5.96361">
        <ele>359.4</ele>
        <time>2023-06-11T11:09:30Z</time>
      </trkpt>
      <trkpt lat="43.73162" lon="5.96361">
        <ele>359.4</ele>
        <time>2023-06-11T11:09:31Z</time>
      </trkpt>
      <trkpt lat="43.73162" lon="5.96361">
        <ele>359.4</ele>
        <time>2023-06-11T11:09:32Z</time>
      </trkpt>
      <trkpt lat="43.73162" lon="5.96361">
        <ele>359.4</ele>
        <time>2023-06-11T11:09:33Z</time>
      </trkpt>
      <trkpt lat="43.73162" lon="5.96361">
        <ele>359.5</ele>
        <time>2023-06-11T11:09:34Z</time>
      </trkpt>
      <trkpt lat="43.73163" lon="5.96361">
        <ele>359.5</ele>
        <time>2023-06-11T11:09:35Z</time>
      </trkpt>
      <trkpt lat="43.73163" lon="5.96361">
        <ele>359.5</ele>
        <time>2023-06-11T11:09:36Z</time>
      </trkpt>
      <trkpt lat="43.73163" lon="5.96361">
        <ele>359.5</ele>
        <time>2023-06-11T11:09:37Z</time>
      </trkpt>
      <trkpt lat="43.73163" lon="5.96361">
        <ele>359.5</ele>
        <time>2023-06-11T11:09:38Z</time>
      </trkpt>
      <trkpt lat="43.73163" lon="5.96361">
        <ele>359.5</ele>
        <time>2023-06-11T11:09:39Z</time>
      </trkpt>
      <trkpt lat="43.73163" lon="5.96361">
        <ele>359.4</ele>
        <time>2023-06-11T11:09:40Z</time>
      </trkpt>
      <trkpt lat="43.73163" lon="5.96361">
        <ele>359.4</ele>
        <time>2023-06-11T11:09:41Z</time>
      </trkpt>
      <trkpt lat="43.73163" lon="5.96361">
        <ele>359.4</ele>
        <time>2023-06-11T11:09:42Z</time>
      </trkpt>
      <trkpt lat="43.73163" lon="5.96361">
        <ele>359.4</ele>
        <time>2023-06-11T11:09:43Z</time>
      </trkpt>
      <trkpt lat="43.73163" lon="5.96361">
        <ele>359.4</ele>
        <time>2023-06-11T11:09:44Z</time>
      </trkpt>
      <trkpt lat="43.73163" lon="5.96361">
        <ele>359.4</ele>
        <time>2023-06-11T11:09:45Z</time>
      </trkpt>
      <trkpt lat="43.73163" lon="5.96361">
        <ele>359.4</ele>
        <time>2023-06-11T11:09:46Z</time>
      </trkpt>
      <trkpt lat="43.73163" lon="5.96361">
        <ele>359.5</ele>
        <time>2023-06-11T11:09:47Z</time>
      </trkpt>
      <trkpt lat="43.73163" lon="5.96361">
        <ele>359.6</ele>
        <time>2023-06-11T11:09:48Z</time>
      </trkpt>
      <trkpt lat="43.73163" lon="5.96361">
        <ele>359.6</ele>
        <time>2023-06-11T11:09:49Z</time>
      </trkpt>
      <trkpt lat="43.73163" lon="5.96361">
        <ele>359.7</ele>
        <time>2023-06-11T11:09:50Z</time>
      </trkpt>
      <trkpt lat="43.73163" lon="5.96361">
        <ele>359.6</ele>
        <time>2023-06-11T11:09:51Z</time>
      </trkpt>
      <trkpt lat="43.73163" lon="5.96361">
        <ele>359.6</ele>
        <time>2023-06-11T11:09:52Z</time>
      </trkpt>
      <trkpt lat="43.73163" lon="5.96361">
        <ele>359.5</ele>
        <time>2023-06-11T11:09:53Z</time>
      </trkpt>
      <trkpt lat="43.73163" lon="5.96361">
        <ele>359.5</ele>
        <time>2023-06-11T11:09:54Z</time>
      </trkpt>
      <trkpt lat="43.73163" lon="5.96362">
        <ele>359.5</ele>
        <time>2023-06-11T11:09:55Z</time>
      </trkpt>
      <trkpt lat="43.73163" lon="5.96362">
        <ele>359.5</ele>
        <time>2023-06-11T11:09:56Z</time>
      </trkpt>
      <trkpt lat="43.73163" lon="5.96362">
        <ele>359.5</ele>
        <time>2023-06-11T11:09:57Z</time>
      </trkpt>
      <trkpt lat="43.73163" lon="5.96362">
        <ele>359.5</ele>
        <time>2023-06-11T11:09:58Z</time>
      </trkpt>
      <trkpt lat="43.73163" lon="5.96362">
        <ele>359.5</ele>
        <time>2023-06-11T11:09:59Z</time>
      </trkpt>
      <trkpt lat="43.73163" lon="5.96362">
        <ele>359.5</ele>
        <time>2023-06-11T11:10:00Z</time>
      </trkpt>
      <trkpt lat="43.73163" lon="5.96362">
        <ele>359.6</ele>
        <time>2023-06-11T11:10:01Z</time>
      </trkpt>
      <trkpt lat="43.73163" lon="5.96362">
        <ele>359.6</ele>
        <time>2023-06-11T11:10:02Z</time>
      </trkpt>
      <trkpt lat="43.73163" lon="5.96362">
        <ele>359.5</ele>
        <time>2023-06-11T11:10:03Z</time>
      </trkpt>
      <trkpt lat="43.73163" lon="5.96362">
        <ele>359.6</ele>
        <time>2023-06-11T11:10:04Z</time>
      </trkpt>
      <trkpt lat="43.73163" lon="5.96362">
        <ele>359.6</ele>
        <time>2023-06-11T11:10:05Z</time>
      </trkpt>
      <trkpt lat="43.73163" lon="5.96363">
        <ele>359.6</ele>
        <time>2023-06-11T11:10:06Z</time>
      </trkpt>
      <trkpt lat="43.73163" lon="5.96363">
        <ele>359.6</ele>
        <time>2023-06-11T11:10:07Z</time>
      </trkpt>
      <trkpt lat="43.73163" lon="5.96363">
        <ele>359.5</ele>
        <time>2023-06-11T11:10:08Z</time>
      </trkpt>
      <trkpt lat="43.73163" lon="5.96363">
        <ele>359.5</ele>
        <time>2023-06-11T11:10:09Z</time>
      </trkpt>
      <trkpt lat="43.73163" lon="5.96363">
        <ele>359.4</ele>
        <time>2023-06-11T11:10:10Z</time>
      </trkpt>
      <trkpt lat="43.73163" lon="5.96363">
        <ele>359.4</ele>
        <time>2023-06-11T11:10:11Z</time>
      </trkpt>
      <trkpt lat="43.73163" lon="5.96363">
        <ele>359.4</ele>
        <time>2023-06-11T11:10:12Z</time>
      </trkpt>
      <trkpt lat="43.73163" lon="5.96363">
        <ele>359.4</ele>
        <time>2023-06-11T11:10:13Z</time>
      </trkpt>
      <trkpt lat="43.73163" lon="5.96363">
        <ele>359.4</ele>
        <time>2023-06-11T11:10:14Z</time>
      </trkpt>
      <trkpt lat="43.73163" lon="5.96363">
        <ele>359.5</ele>
        <time>2023-06-11T11:10:15Z</time>
      </trkpt>
      <trkpt lat="43.73163" lon="5.96364">
        <ele>359.6</ele>
        <time>2023-06-11T11:10:16Z</time>
      </trkpt>
      <trkpt lat="43.73162" lon="5.96364">
        <ele>359.6</ele>
        <time>2023-06-11T11:10:17Z</time>
      </trkpt>
      <trkpt lat="43.73162" lon="5.96364">
        <ele>359.7</ele>
        <time>2023-06-11T11:10:18Z</time>
      </trkpt>
      <trkpt lat="43.73162" lon="5.96364">
        <ele>359.7</ele>
        <time>2023-06-11T11:10:19Z</time>
      </trkpt>
      <trkpt lat="43.73162" lon="5.96364">
        <ele>359.7</ele>
        <time>2023-06-11T11:10:20Z</time>
      </trkpt>
      <trkpt lat="43.73162" lon="5.96364">
        <ele>359.7</ele>
        <time>2023-06-11T11:10:21Z</time>
      </trkpt>
      <trkpt lat="43.73162" lon="5.96364">
        <ele>359.7</ele>
        <time>2023-06-11T11:10:22Z</time>
      </trkpt>
      <trkpt lat="43.73162" lon="5.96364">
        <ele>359.7</ele>
        <time>2023-06-11T11:10:23Z</time>
      </trkpt>
      <trkpt lat="43.73162" lon="5.96365">
        <ele>359.6</ele>
        <time>2023-06-11T11:10:24Z</time>
      </trkpt>
      <trkpt lat="43.73162" lon="5.96365">
        <ele>359.6</ele>
        <time>2023-06-11T11:10:25Z</time>
      </trkpt>
      <trkpt lat="43.73162" lon="5.96365">
        <ele>359.6</ele>
        <time>2023-06-11T11:10:26Z</time>
      </trkpt>
      <trkpt lat="43.73162" lon="5.96365">
        <ele>359.5</ele>
        <time>2023-06-11T11:10:27Z</time>
      </trkpt>
      <trkpt lat="43.73162" lon="5.96365">
        <ele>359.5</ele>
        <time>2023-06-11T11:10:28Z</time>
      </trkpt>
      <trkpt lat="43.73162" lon="5.96366">
        <ele>359.4</ele>
        <time>2023-06-11T11:10:29Z</time>
      </trkpt>
      <trkpt lat="43.73162" lon="5.96366">
        <ele>359.4</ele>
        <time>2023-06-11T11:10:30Z</time>
      </trkpt>
      <trkpt lat="43.73162" lon="5.96366">
        <ele>359.4</ele>
        <time>2023-06-11T11:10:31Z</time>
      </trkpt>
      <trkpt lat="43.73162" lon="5.96366">
        <ele>359.4</ele>
        <time>2023-06-11T11:10:32Z</time>
      </trkpt>
      <trkpt lat="43.73162" lon="5.96366">
        <ele>359.5</ele>
        <time>2023-06-11T11:10:33Z</time>
      </trkpt>
      <trkpt lat="43.73162" lon="5.96366">
        <ele>359.5</ele>
        <time>2023-06-11T11:10:34Z</time>
      </trkpt>
      <trkpt lat="43.73162" lon="5.96366">
        <ele>359.5</ele>
        <time>2023-06-11T11:10:35Z</time>
      </trkpt>
      <trkpt lat="43.73162" lon="5.96366">
        <ele>359.5</ele>
        <time>2023-06-11T11:10:36Z</time>
      </trkpt>
      <trkpt lat="43.73162" lon="5.96366">
        <ele>359.4</ele>
        <time>2023-06-11T11:10:37Z</time>
      </trkpt>
      <trkpt lat="43.73162" lon="5.96366">
        <ele>359.4</ele>
        <time>2023-06-11T11:10:38Z</time>
      </trkpt>
      <trkpt lat="43.73162" lon="5.96366">
        <ele>359.4</ele>
        <time>2023-06-11T11:10:39Z</time>
      </trkpt>
      <trkpt lat="43.73162" lon="5.96366">
        <ele>359.4</ele>
        <time>2023-06-11T11:10:40Z</time>
      </trkpt>
      <trkpt lat="43.73162" lon="5.96366">
        <ele>359.4</ele>
        <time>2023-06-11T11:10:41Z</time>
      </trkpt>
      <trkpt lat="43.73162" lon="5.96365">
        <ele>359.4</ele>
        <time>2023-06-11T11:10:42Z</time>
      </trkpt>
      <trkpt lat="43.73162" lon="5.96365">
        <ele>359.4</ele>
        <time>2023-06-11T11:10:43Z</time>
      </trkpt>
      <trkpt lat="43.73162" lon="5.96365">
        <ele>359.3</ele>
        <time>2023-06-11T11:10:44Z</time>
      </trkpt>
      <trkpt lat="43.73162" lon="5.96365">
        <ele>359.3</ele>
        <time>2023-06-11T11:10:45Z</time>
      </trkpt>
      <trkpt lat="43.73162" lon="5.96365">
        <ele>359.4</ele>
        <time>2023-06-11T11:10:46Z</time>
      </trkpt>
      <trkpt lat="43.73162" lon="5.96365">
        <ele>359.4</ele>
        <time>2023-06-11T11:10:47Z</time>
      </trkpt>
      <trkpt lat="43.73162" lon="5.96365">
        <ele>359.4</ele>
        <time>2023-06-11T11:10:48Z</time>
      </trkpt>
      <trkpt lat="43.73162" lon="5.96365">
        <ele>359.4</ele>
        <time>2023-06-11T11:10:49Z</time>
      </trkpt>
      <trkpt lat="43.73162" lon="5.96365">
        <ele>359.4</ele>
        <time>2023-06-11T11:10:50Z</time>
      </trkpt>
      <trkpt lat="43.73162" lon="5.96365">
        <ele>359.4</ele>
        <time>2023-06-11T11:10:51Z</time>
      </trkpt>
      <trkpt lat="43.73162" lon="5.96365">
        <ele>359.4</ele>
        <time>2023-06-11T11:10:52Z</time>
      </trkpt>
      <trkpt lat="43.73162" lon="5.96365">
        <ele>359.4</ele>
        <time>2023-06-11T11:10:53Z</time>
      </trkpt>
      <trkpt lat="43.73162" lon="5.96365">
        <ele>359.4</ele>
        <time>2023-06-11T11:10:54Z</time>
      </trkpt>
      <trkpt lat="43.73162" lon="5.96365">
        <ele>359.4</ele>
        <time>2023-06-11T11:10:55Z</time>
      </trkpt>
      <trkpt lat="43.73162" lon="5.96365">
        <ele>359.4</ele>
        <time>2023-06-11T11:10:56Z</time>
      </trkpt>
      <trkpt lat="43.73163" lon="5.96364">
        <ele>359.4</ele>
        <time>2023-06-11T11:10:57Z</time>
      </trkpt>
      <trkpt lat="43.73163" lon="5.96365">
        <ele>359.4</ele>
        <time>2023-06-11T11:10:58Z</time>
      </trkpt>
      <trkpt lat="43.73162" lon="5.96365">
        <ele>359.4</ele>
        <time>2023-06-11T11:10:59Z</time>
      </trkpt>
      <trkpt lat="43.73163" lon="5.96365">
        <ele>359.4</ele>
        <time>2023-06-11T11:11:00Z</time>
      </trkpt>
      <trkpt lat="43.73163" lon="5.96364">
        <ele>359.4</ele>
        <time>2023-06-11T11:11:01Z</time>
      </trkpt>
      <trkpt lat="43.73163" lon="5.96364">
        <ele>359.4</ele>
        <time>2023-06-11T11:11:02Z</time>
      </trkpt>
      <trkpt lat="43.73163" lon="5.96364">
        <ele>359.5</ele>
        <time>2023-06-11T11:11:03Z</time>
      </trkpt>
      <trkpt lat="43.73163" lon="5.96364">
        <ele>359.5</ele>
        <time>2023-06-11T11:11:04Z</time>
      </trkpt>
      <trkpt lat="43.73163" lon="5.96364">
        <ele>359.5</ele>
        <time>2023-06-11T11:11:05Z</time>
      </trkpt>
      <trkpt lat="43.73163" lon="5.96364">
        <ele>359.4</ele>
        <time>2023-06-11T11:11:06Z</time>
      </trkpt>
      <trkpt lat="43.73163" lon="5.96364">
        <ele>359.4</ele>
        <time>2023-06-11T11:11:07Z</time>
      </trkpt>
      <trkpt lat="43.73163" lon="5.96364">
        <ele>359.4</ele>
        <time>2023-06-11T11:11:08Z</time>
      </trkpt>
      <trkpt lat="43.73163" lon="5.96364">
        <ele>359.3</ele>
        <time>2023-06-11T11:11:09Z</time>
      </trkpt>
      <trkpt lat="43.73163" lon="5.96364">
        <ele>359.3</ele>
        <time>2023-06-11T11:11:10Z</time>
      </trkpt>
      <trkpt lat="43.73163" lon="5.96364">
        <ele>359.3</ele>
        <time>2023-06-11T11:11:11Z</time>
      </trkpt>
      <trkpt lat="43.73163" lon="5.96364">
        <ele>359.3</ele>
        <time>2023-06-11T11:11:12Z</time>
      </trkpt>
      <trkpt lat="43.73163" lon="5.96364">
        <ele>359.3</ele>
        <time>2023-06-11T11:11:13Z</time>
      </trkpt>
      <trkpt lat="43.73163" lon="5.96363">
        <ele>359.3</ele>
        <time>2023-06-11T11:11:14Z</time>
      </trkpt>
      <trkpt lat="43.73163" lon="5.96364">
        <ele>359.3</ele>
        <time>2023-06-11T11:11:15Z</time>
      </trkpt>
      <trkpt lat="43.73163" lon="5.96364">
        <ele>359.3</ele>
        <time>2023-06-11T11:11:16Z</time>
      </trkpt>
      <trkpt lat="43.73163" lon="5.96364">
        <ele>359.3</ele>
        <time>2023-06-11T11:11:17Z</time>
      </trkpt>
      <trkpt lat="43.73163" lon="5.96364">
        <ele>359.4</ele>
        <time>2023-06-11T11:11:18Z</time>
      </trkpt>
      <trkpt lat="43.73163" lon="5.96364">
        <ele>359.3</ele>
        <time>2023-06-11T11:11:19Z</time>
      </trkpt>
      <trkpt lat="43.73163" lon="5.96364">
        <ele>359.3</ele>
        <time>2023-06-11T11:11:20Z</time>
      </trkpt>
      <trkpt lat="43.73163" lon="5.96363">
        <ele>359.3</ele>
        <time>2023-06-11T11:11:21Z</time>
      </trkpt>
      <trkpt lat="43.73163" lon="5.96364">
        <ele>359.3</ele>
        <time>2023-06-11T11:11:22Z</time>
      </trkpt>
      <trkpt lat="43.73163" lon="5.96364">
        <ele>359.3</ele>
        <time>2023-06-11T11:11:23Z</time>
      </trkpt>
      <trkpt lat="43.73163" lon="5.96364">
        <ele>359.3</ele>
        <time>2023-06-11T11:11:24Z</time>
      </trkpt>
      <trkpt lat="43.73163" lon="5.96364">
        <ele>359.3</ele>
        <time>2023-06-11T11:11:25Z</time>
      </trkpt>
      <trkpt lat="43.73163" lon="5.96364">
        <ele>359.3</ele>
        <time>2023-06-11T11:11:26Z</time>
      </trkpt>
      <trkpt lat="43.73163" lon="5.96364">
        <ele>359.3</ele>
        <time>2023-06-11T11:11:27Z</time>
      </trkpt>
      <trkpt lat="43.73163" lon="5.96364">
        <ele>359.2</ele>
        <time>2023-06-11T11:11:28Z</time>
      </trkpt>
      <trkpt lat="43.73163" lon="5.96364">
        <ele>359.2</ele>
        <time>2023-06-11T11:11:29Z</time>
      </trkpt>
      <trkpt lat="43.73163" lon="5.96364">
        <ele>359.2</ele>
        <time>2023-06-11T11:11:30Z</time>
      </trkpt>
      <trkpt lat="43.73164" lon="5.96363">
        <ele>359.1</ele>
        <time>2023-06-11T11:11:31Z</time>
      </trkpt>
      <trkpt lat="43.73164" lon="5.96363">
        <ele>359.1</ele>
        <time>2023-06-11T11:11:32Z</time>
      </trkpt>
      <trkpt lat="43.73164" lon="5.96363">
        <ele>359</ele>
        <time>2023-06-11T11:11:33Z</time>
      </trkpt>
      <trkpt lat="43.73164" lon="5.96363">
        <ele>359</ele>
        <time>2023-06-11T11:11:34Z</time>
      </trkpt>
      <trkpt lat="43.73164" lon="5.96363">
        <ele>359.1</ele>
        <time>2023-06-11T11:11:35Z</time>
      </trkpt>
      <trkpt lat="43.73164" lon="5.96363">
        <ele>359</ele>
        <time>2023-06-11T11:11:36Z</time>
      </trkpt>
      <trkpt lat="43.73164" lon="5.96363">
        <ele>359</ele>
        <time>2023-06-11T11:11:37Z</time>
      </trkpt>
      <trkpt lat="43.73164" lon="5.96363">
        <ele>359</ele>
        <time>2023-06-11T11:11:38Z</time>
      </trkpt>
      <trkpt lat="43.73164" lon="5.96363">
        <ele>359.1</ele>
        <time>2023-06-11T11:11:39Z</time>
      </trkpt>
      <trkpt lat="43.73164" lon="5.96363">
        <ele>359.1</ele>
        <time>2023-06-11T11:11:40Z</time>
      </trkpt>
      <trkpt lat="43.73164" lon="5.96363">
        <ele>359.1</ele>
        <time>2023-06-11T11:11:41Z</time>
      </trkpt>
      <trkpt lat="43.73164" lon="5.96363">
        <ele>359.1</ele>
        <time>2023-06-11T11:11:42Z</time>
      </trkpt>
      <trkpt lat="43.73164" lon="5.96363">
        <ele>359.1</ele>
        <time>2023-06-11T11:11:43Z</time>
      </trkpt>
      <trkpt lat="43.73164" lon="5.96363">
        <ele>359.1</ele>
        <time>2023-06-11T11:11:44Z</time>
      </trkpt>
      <trkpt lat="43.73164" lon="5.96363">
        <ele>359.2</ele>
        <time>2023-06-11T11:11:45Z</time>
      </trkpt>
      <trkpt lat="43.73164" lon="5.96363">
        <ele>359.2</ele>
        <time>2023-06-11T11:11:46Z</time>
      </trkpt>
      <trkpt lat="43.73164" lon="5.96363">
        <ele>359.3</ele>
        <time>2023-06-11T11:11:47Z</time>
      </trkpt>
      <trkpt lat="43.73164" lon="5.96363">
        <ele>359.3</ele>
        <time>2023-06-11T11:11:48Z</time>
      </trkpt>
      <trkpt lat="43.73164" lon="5.96363">
        <ele>359.3</ele>
        <time>2023-06-11T11:11:49Z</time>
      </trkpt>
      <trkpt lat="43.73164" lon="5.96363">
        <ele>359.2</ele>
        <time>2023-06-11T11:11:50Z</time>
      </trkpt>
      <trkpt lat="43.73164" lon="5.96363">
        <ele>359.2</ele>
        <time>2023-06-11T11:11:51Z</time>
      </trkpt>
      <trkpt lat="43.73163" lon="5.96363">
        <ele>359.1</ele>
        <time>2023-06-11T11:11:52Z</time>
      </trkpt>
      <trkpt lat="43.73164" lon="5.96363">
        <ele>359</ele>
        <time>2023-06-11T11:11:53Z</time>
      </trkpt>
      <trkpt lat="43.73164" lon="5.96363">
        <ele>358.9</ele>
        <time>2023-06-11T11:11:54Z</time>
      </trkpt>
      <trkpt lat="43.73164" lon="5.96363">
        <ele>359</ele>
        <time>2023-06-11T11:11:55Z</time>
      </trkpt>
      <trkpt lat="43.73164" lon="5.96363">
        <ele>359.1</ele>
        <time>2023-06-11T11:11:56Z</time>
      </trkpt>
      <trkpt lat="43.73164" lon="5.96363">
        <ele>359.2</ele>
        <time>2023-06-11T11:11:57Z</time>
      </trkpt>
      <trkpt lat="43.73164" lon="5.96363">
        <ele>359.3</ele>
        <time>2023-06-11T11:11:58Z</time>
      </trkpt>
      <trkpt lat="43.73164" lon="5.96363">
        <ele>359.3</ele>
        <time>2023-06-11T11:11:59Z</time>
      </trkpt>
      <trkpt lat="43.73164" lon="5.96363">
        <ele>359.2</ele>
        <time>2023-06-11T11:12:00Z</time>
      </trkpt>
      <trkpt lat="43.73164" lon="5.96363">
        <ele>359.2</ele>
        <time>2023-06-11T11:12:01Z</time>
      </trkpt>
      <trkpt lat="43.73164" lon="5.96363">
        <ele>359.1</ele>
        <time>2023-06-11T11:12:02Z</time>
      </trkpt>
      <trkpt lat="43.73164" lon="5.96363">
        <ele>359.1</ele>
        <time>2023-06-11T11:12:03Z</time>
      </trkpt>
      <trkpt lat="43.73164" lon="5.96363">
        <ele>359.1</ele>
        <time>2023-06-11T11:12:04Z</time>
      </trkpt>
      <trkpt lat="43.73164" lon="5.96363">
        <ele>359.1</ele>
        <time>2023-06-11T11:12:05Z</time>
      </trkpt>
      <trkpt lat="43.73164" lon="5.96363">
        <ele>359.1</ele>
        <time>2023-06-11T11:12:06Z</time>
      </trkpt>
      <trkpt lat="43.73164" lon="5.96363">
        <ele>359.1</ele>
        <time>2023-06-11T11:12:07Z</time>
      </trkpt>
      <trkpt lat="43.73164" lon="5.96363">
        <ele>359.1</ele>
        <time>2023-06-11T11:12:08Z</time>
      </trkpt>
      <trkpt lat="43.73164" lon="5.96363">
        <ele>359.1</ele>
        <time>2023-06-11T11:12:09Z</time>
      </trkpt>
      <trkpt lat="43.73164" lon="5.96363">
        <ele>359.1</ele>
        <time>2023-06-11T11:12:10Z</time>
      </trkpt>
      <trkpt lat="43.73164" lon="5.96363">
        <ele>359.1</ele>
        <time>2023-06-11T11:12:11Z</time>
      </trkpt>
      <trkpt lat="43.73164" lon="5.96363">
        <ele>359.1</ele>
        <time>2023-06-11T11:12:12Z</time>
      </trkpt>
      <trkpt lat="43.73164" lon="5.96363">
        <ele>359.2</ele>
        <time>2023-06-11T11:12:13Z</time>
      </trkpt>
      <trkpt lat="43.73164" lon="5.96363">
        <ele>359.3</ele>
        <time>2023-06-11T11:12:14Z</time>
      </trkpt>
      <trkpt lat="43.73164" lon="5.96363">
        <ele>359.3</ele>
        <time>2023-06-11T11:12:15Z</time>
      </trkpt>
      <trkpt lat="43.73164" lon="5.96363">
        <ele>359.2</ele>
        <time>2023-06-11T11:12:16Z</time>
      </trkpt>
      <trkpt lat="43.73164" lon="5.96363">
        <ele>359.2</ele>
        <time>2023-06-11T11:12:17Z</time>
      </trkpt>
      <trkpt lat="43.73164" lon="5.96363">
        <ele>359.3</ele>
        <time>2023-06-11T11:12:18Z</time>
      </trkpt>
      <trkpt lat="43.73164" lon="5.96363">
        <ele>359.3</ele>
        <time>2023-06-11T11:12:19Z</time>
      </trkpt>
      <trkpt lat="43.73164" lon="5.96363">
        <ele>359.3</ele>
        <time>2023-06-11T11:12:20Z</time>
      </trkpt>
      <trkpt lat="43.73164" lon="5.96363">
        <ele>359.3</ele>
        <time>2023-06-11T11:12:21Z</time>
      </trkpt>
      <trkpt lat="43.73164" lon="5.96363">
        <ele>359.3</ele>
        <time>2023-06-11T11:12:22Z</time>
      </trkpt>
      <trkpt lat="43.73164" lon="5.96363">
        <ele>359.3</ele>
        <time>2023-06-11T11:12:23Z</time>
      </trkpt>
      <trkpt lat="43.73164" lon="5.96363">
        <ele>359.3</ele>
        <time>2023-06-11T11:12:24Z</time>
      </trkpt>
      <trkpt lat="43.73164" lon="5.96363">
        <ele>359.3</ele>
        <time>2023-06-11T11:12:25Z</time>
      </trkpt>
      <trkpt lat="43.73164" lon="5.96363">
        <ele>359.2</ele>
        <time>2023-06-11T11:12:26Z</time>
      </trkpt>
      <trkpt lat="43.73164" lon="5.96363">
        <ele>359.2</ele>
        <time>2023-06-11T11:12:27Z</time>
      </trkpt>
      <trkpt lat="43.73164" lon="5.96363">
        <ele>359.1</ele>
        <time>2023-06-11T11:12:28Z</time>
      </trkpt>
      <trkpt lat="43.73164" lon="5.96363">
        <ele>359.1</ele>
        <time>2023-06-11T11:12:29Z</time>
      </trkpt>
      <trkpt lat="43.73164" lon="5.96363">
        <ele>359</ele>
        <time>2023-06-11T11:12:30Z</time>
      </trkpt>
      <trkpt lat="43.73164" lon="5.96363">
        <ele>359</ele>
        <time>2023-06-11T11:12:31Z</time>
      </trkpt>
      <trkpt lat="43.73164" lon="5.96363">
        <ele>359</ele>
        <time>2023-06-11T11:12:32Z</time>
      </trkpt>
      <trkpt lat="43.73164" lon="5.96363">
        <ele>359.2</ele>
        <time>2023-06-11T11:12:33Z</time>
      </trkpt>
      <trkpt lat="43.73164" lon="5.96363">
        <ele>359.2</ele>
        <time>2023-06-11T11:12:34Z</time>
      </trkpt>
      <trkpt lat="43.73164" lon="5.96363">
        <ele>359.3</ele>
        <time>2023-06-11T11:12:35Z</time>
      </trkpt>
      <trkpt lat="43.73164" lon="5.96363">
        <ele>359.3</ele>
        <time>2023-06-11T11:12:36Z</time>
      </trkpt>
      <trkpt lat="43.73164" lon="5.96363">
        <ele>359.3</ele>
        <time>2023-06-11T11:12:37Z</time>
      </trkpt>
      <trkpt lat="43.73164" lon="5.96363">
        <ele>359.3</ele>
        <time>2023-06-11T11:12:38Z</time>
      </trkpt>
      <trkpt lat="43.73164" lon="5.96363">
        <ele>359.3</ele>
        <time>2023-06-11T11:12:39Z</time>
      </trkpt>
      <trkpt lat="43.73164" lon="5.96362">
        <ele>359.3</ele>
        <time>2023-06-11T11:12:40Z</time>
      </trkpt>
      <trkpt lat="43.73164" lon="5.96362">
        <ele>359.2</ele>
        <time>2023-06-11T11:12:41Z</time>
      </trkpt>
      <trkpt lat="43.73164" lon="5.96362">
        <ele>359.2</ele>
        <time>2023-06-11T11:12:42Z</time>
      </trkpt>
      <trkpt lat="43.73164" lon="5.96362">
        <ele>359.2</ele>
        <time>2023-06-11T11:12:43Z</time>
      </trkpt>
      <trkpt lat="43.73164" lon="5.96362">
        <ele>359.2</ele>
        <time>2023-06-11T11:12:44Z</time>
      </trkpt>
      <trkpt lat="43.73164" lon="5.96362">
        <ele>359.2</ele>
        <time>2023-06-11T11:12:45Z</time>
      </trkpt>
      <trkpt lat="43.73164" lon="5.96362">
        <ele>359.2</ele>
        <time>2023-06-11T11:12:46Z</time>
      </trkpt>
      <trkpt lat="43.73164" lon="5.96362">
        <ele>359.2</ele>
        <time>2023-06-11T11:12:47Z</time>
      </trkpt>
      <trkpt lat="43.73164" lon="5.96361">
        <ele>359.2</ele>
        <time>2023-06-11T11:12:48Z</time>
      </trkpt>
      <trkpt lat="43.73164" lon="5.96361">
        <ele>359.2</ele>
        <time>2023-06-11T11:12:49Z</time>
      </trkpt>
      <trkpt lat="43.73164" lon="5.96361">
        <ele>359.2</ele>
        <time>2023-06-11T11:12:50Z</time>
      </trkpt>
      <trkpt lat="43.73164" lon="5.96361">
        <ele>359.2</ele>
        <time>2023-06-11T11:12:51Z</time>
      </trkpt>
      <trkpt lat="43.73164" lon="5.96361">
        <ele>359.2</ele>
        <time>2023-06-11T11:12:52Z</time>
      </trkpt>
      <trkpt lat="43.73164" lon="5.96361">
        <ele>359.4</ele>
        <time>2023-06-11T11:12:53Z</time>
      </trkpt>
      <trkpt lat="43.73164" lon="5.96361">
        <ele>359.3</ele>
        <time>2023-06-11T11:12:54Z</time>
      </trkpt>
      <trkpt lat="43.73164" lon="5.96361">
        <ele>359.3</ele>
        <time>2023-06-11T11:12:55Z</time>
      </trkpt>
      <trkpt lat="43.73164" lon="5.96361">
        <ele>359.3</ele>
        <time>2023-06-11T11:12:56Z</time>
      </trkpt>
      <trkpt lat="43.73164" lon="5.96361">
        <ele>359.3</ele>
        <time>2023-06-11T11:12:57Z</time>
      </trkpt>
      <trkpt lat="43.73164" lon="5.96361">
        <ele>359.3</ele>
        <time>2023-06-11T11:12:58Z</time>
      </trkpt>
      <trkpt lat="43.73164" lon="5.96361">
        <ele>359.3</ele>
        <time>2023-06-11T11:12:59Z</time>
      </trkpt>
      <trkpt lat="43.73164" lon="5.96361">
        <ele>359.3</ele>
        <time>2023-06-11T11:13:00Z</time>
      </trkpt>
      <trkpt lat="43.73164" lon="5.96361">
        <ele>359.3</ele>
        <time>2023-06-11T11:13:01Z</time>
      </trkpt>
      <trkpt lat="43.73164" lon="5.96361">
        <ele>359.3</ele>
        <time>2023-06-11T11:13:02Z</time>
      </trkpt>
      <trkpt lat="43.73164" lon="5.96361">
        <ele>359.3</ele>
        <time>2023-06-11T11:13:03Z</time>
      </trkpt>
      <trkpt lat="43.73164" lon="5.96361">
        <ele>359.2</ele>
        <time>2023-06-11T11:13:04Z</time>
      </trkpt>
      <trkpt lat="43.73164" lon="5.96361">
        <ele>359.2</ele>
        <time>2023-06-11T11:13:05Z</time>
      </trkpt>
      <trkpt lat="43.73164" lon="5.96361">
        <ele>359.2</ele>
        <time>2023-06-11T11:13:06Z</time>
      </trkpt>
      <trkpt lat="43.73164" lon="5.96361">
        <ele>359.2</ele>
        <time>2023-06-11T11:13:07Z</time>
      </trkpt>
      <trkpt lat="43.73164" lon="5.96361">
        <ele>359.1</ele>
        <time>2023-06-11T11:13:08Z</time>
      </trkpt>
      <trkpt lat="43.73164" lon="5.96361">
        <ele>359.1</ele>
        <time>2023-06-11T11:13:09Z</time>
      </trkpt>
      <trkpt lat="43.73164" lon="5.96361">
        <ele>359.1</ele>
        <time>2023-06-11T11:13:10Z</time>
      </trkpt>
      <trkpt lat="43.73165" lon="5.96361">
        <ele>359.2</ele>
        <time>2023-06-11T11:13:11Z</time>
      </trkpt>
      <trkpt lat="43.73165" lon="5.96361">
        <ele>359.2</ele>
        <time>2023-06-11T11:13:12Z</time>
      </trkpt>
      <trkpt lat="43.73165" lon="5.96361">
        <ele>359.3</ele>
        <time>2023-06-11T11:13:13Z</time>
      </trkpt>
      <trkpt lat="43.73165" lon="5.96361">
        <ele>359.4</ele>
        <time>2023-06-11T11:13:14Z</time>
      </trkpt>
      <trkpt lat="43.73164" lon="5.96362">
        <ele>359.4</ele>
        <time>2023-06-11T11:13:15Z</time>
      </trkpt>
      <trkpt lat="43.73165" lon="5.96362">
        <ele>359.3</ele>
        <time>2023-06-11T11:13:16Z</time>
      </trkpt>
      <trkpt lat="43.73164" lon="5.96362">
        <ele>359.3</ele>
        <time>2023-06-11T11:13:17Z</time>
      </trkpt>
      <trkpt lat="43.73165" lon="5.96362">
        <ele>359.2</ele>
        <time>2023-06-11T11:13:18Z</time>
      </trkpt>
      <trkpt lat="43.73165" lon="5.96362">
        <ele>359.2</ele>
        <time>2023-06-11T11:13:19Z</time>
      </trkpt>
      <trkpt lat="43.73165" lon="5.96362">
        <ele>359.2</ele>
        <time>2023-06-11T11:13:20Z</time>
      </trkpt>
      <trkpt lat="43.73165" lon="5.96362">
        <ele>359.2</ele>
        <time>2023-06-11T11:13:21Z</time>
      </trkpt>
      <trkpt lat="43.73165" lon="5.96362">
        <ele>359.2</ele>
        <time>2023-06-11T11:13:22Z</time>
      </trkpt>
      <trkpt lat="43.73165" lon="5.96362">
        <ele>359.2</ele>
        <time>2023-06-11T11:13:23Z</time>
      </trkpt>
      <trkpt lat="43.73165" lon="5.96362">
        <ele>359.2</ele>
        <time>2023-06-11T11:13:24Z</time>
      </trkpt>
      <trkpt lat="43.73165" lon="5.96362">
        <ele>359.1</ele>
        <time>2023-06-11T11:13:25Z</time>
      </trkpt>
      <trkpt lat="43.73165" lon="5.96362">
        <ele>359.1</ele>
        <time>2023-06-11T11:13:26Z</time>
      </trkpt>
      <trkpt lat="43.73165" lon="5.96362">
        <ele>359.2</ele>
        <time>2023-06-11T11:13:27Z</time>
      </trkpt>
      <trkpt lat="43.73165" lon="5.96362">
        <ele>359.2</ele>
        <time>2023-06-11T11:13:28Z</time>
      </trkpt>
      <trkpt lat="43.73165" lon="5.96362">
        <ele>359.2</ele>
        <time>2023-06-11T11:13:29Z</time>
      </trkpt>
      <trkpt lat="43.73165" lon="5.96362">
        <ele>359.2</ele>
        <time>2023-06-11T11:13:30Z</time>
      </trkpt>
      <trkpt lat="43.73165" lon="5.96362">
        <ele>359.1</ele>
        <time>2023-06-11T11:13:31Z</time>
      </trkpt>
      <trkpt lat="43.73165" lon="5.96362">
        <ele>359.1</ele>
        <time>2023-06-11T11:13:32Z</time>
      </trkpt>
      <trkpt lat="43.73165" lon="5.96362">
        <ele>359.1</ele>
        <time>2023-06-11T11:13:33Z</time>
      </trkpt>
      <trkpt lat="43.73165" lon="5.96362">
        <ele>359.1</ele>
        <time>2023-06-11T11:13:34Z</time>
      </trkpt>
      <trkpt lat="43.73165" lon="5.96362">
        <ele>359.1</ele>
        <time>2023-06-11T11:13:35Z</time>
      </trkpt>
      <trkpt lat="43.73165" lon="5.96362">
        <ele>359.1</ele>
        <time>2023-06-11T11:13:36Z</time>
      </trkpt>
      <trkpt lat="43.73165" lon="5.96362">
        <ele>359.1</ele>
        <time>2023-06-11T11:13:37Z</time>
      </trkpt>
      <trkpt lat="43.73165" lon="5.96362">
        <ele>359.2</ele>
        <time>2023-06-11T11:13:38Z</time>
      </trkpt>
      <trkpt lat="43.73165" lon="5.96362">
        <ele>359.2</ele>
        <time>2023-06-11T11:13:39Z</time>
      </trkpt>
      <trkpt lat="43.73165" lon="5.96362">
        <ele>359.3</ele>
        <time>2023-06-11T11:13:40Z</time>
      </trkpt>
      <trkpt lat="43.73165" lon="5.96362">
        <ele>359.3</ele>
        <time>2023-06-11T11:13:41Z</time>
      </trkpt>
      <trkpt lat="43.73165" lon="5.96362">
        <ele>359.3</ele>
        <time>2023-06-11T11:13:42Z</time>
      </trkpt>
      <trkpt lat="43.73165" lon="5.96362">
        <ele>359.3</ele>
        <time>2023-06-11T11:13:43Z</time>
      </trkpt>
      <trkpt lat="43.73165" lon="5.96362">
        <ele>359.4</ele>
        <time>2023-06-11T11:13:44Z</time>
      </trkpt>
      <trkpt lat="43.73165" lon="5.96362">
        <ele>359.4</ele>
        <time>2023-06-11T11:13:45Z</time>
      </trkpt>
      <trkpt lat="43.73165" lon="5.96362">
        <ele>359.4</ele>
        <time>2023-06-11T11:13:46Z</time>
      </trkpt>
      <trkpt lat="43.73165" lon="5.96363">
        <ele>359.5</ele>
        <time>2023-06-11T11:13:47Z</time>
      </trkpt>
      <trkpt lat="43.73165" lon="5.96363">
        <ele>359.4</ele>
        <time>2023-06-11T11:13:48Z</time>
      </trkpt>
      <trkpt lat="43.73165" lon="5.96363">
        <ele>359.4</ele>
        <time>2023-06-11T11:13:49Z</time>
      </trkpt>
      <trkpt lat="43.73165" lon="5.96363">
        <ele>359.4</ele>
        <time>2023-06-11T11:13:50Z</time>
      </trkpt>
      <trkpt lat="43.73165" lon="5.96363">
        <ele>359.4</ele>
        <time>2023-06-11T11:13:51Z</time>
      </trkpt>
      <trkpt lat="43.73165" lon="5.96363">
        <ele>359.4</ele>
        <time>2023-06-11T11:13:52Z</time>
      </trkpt>
      <trkpt lat="43.73165" lon="5.96363">
        <ele>359.4</ele>
        <time>2023-06-11T11:13:53Z</time>
      </trkpt>
      <trkpt lat="43.73165" lon="5.96363">
        <ele>359.4</ele>
        <time>2023-06-11T11:13:54Z</time>
      </trkpt>
      <trkpt lat="43.73165" lon="5.96363">
        <ele>359.5</ele>
        <time>2023-06-11T11:13:55Z</time>
      </trkpt>
      <trkpt lat="43.73165" lon="5.96363">
        <ele>359.5</ele>
        <time>2023-06-11T11:13:56Z</time>
      </trkpt>
      <trkpt lat="43.73165" lon="5.96363">
        <ele>359.4</ele>
        <time>2023-06-11T11:13:57Z</time>
      </trkpt>
      <trkpt lat="43.73164" lon="5.96363">
        <ele>359.4</ele>
        <time>2023-06-11T11:13:58Z</time>
      </trkpt>
      <trkpt lat="43.73164" lon="5.96363">
        <ele>359.4</ele>
        <time>2023-06-11T11:13:59Z</time>
      </trkpt>
      <trkpt lat="43.73164" lon="5.96363">
        <ele>359.4</ele>
        <time>2023-06-11T11:14:00Z</time>
      </trkpt>
      <trkpt lat="43.73164" lon="5.96364">
        <ele>359.5</ele>
        <time>2023-06-11T11:14:01Z</time>
      </trkpt>
      <trkpt lat="43.73164" lon="5.96364">
        <ele>359.4</ele>
        <time>2023-06-11T11:14:02Z</time>
      </trkpt>
      <trkpt lat="43.73164" lon="5.96364">
        <ele>359.4</ele>
        <time>2023-06-11T11:14:03Z</time>
      </trkpt>
      <trkpt lat="43.73164" lon="5.96364">
        <ele>359.4</ele>
        <time>2023-06-11T11:14:04Z</time>
      </trkpt>
      <trkpt lat="43.73164" lon="5.96364">
        <ele>359.5</ele>
        <time>2023-06-11T11:14:05Z</time>
      </trkpt>
      <trkpt lat="43.73164" lon="5.96364">
        <ele>359.5</ele>
        <time>2023-06-11T11:14:06Z</time>
      </trkpt>
      <trkpt lat="43.73163" lon="5.96365">
        <ele>359.5</ele>
        <time>2023-06-11T11:14:07Z</time>
      </trkpt>
      <trkpt lat="43.73163" lon="5.96365">
        <ele>359.4</ele>
        <time>2023-06-11T11:14:08Z</time>
      </trkpt>
      <trkpt lat="43.73163" lon="5.96365">
        <ele>359.5</ele>
        <time>2023-06-11T11:14:09Z</time>
      </trkpt>
      <trkpt lat="43.73163" lon="5.96365">
        <ele>359.5</ele>
        <time>2023-06-11T11:14:10Z</time>
      </trkpt>
      <trkpt lat="43.73163" lon="5.96365">
        <ele>359.5</ele>
        <time>2023-06-11T11:14:11Z</time>
      </trkpt>
      <trkpt lat="43.73163" lon="5.96365">
        <ele>359.6</ele>
        <time>2023-06-11T11:14:12Z</time>
      </trkpt>
      <trkpt lat="43.73163" lon="5.96365">
        <ele>359.7</ele>
        <time>2023-06-11T11:14:13Z</time>
      </trkpt>
      <trkpt lat="43.73163" lon="5.96365">
        <ele>359.7</ele>
        <time>2023-06-11T11:14:14Z</time>
      </trkpt>
      <trkpt lat="43.73163" lon="5.96365">
        <ele>359.6</ele>
        <time>2023-06-11T11:14:15Z</time>
      </trkpt>
      <trkpt lat="43.73163" lon="5.96364">
        <ele>359.7</ele>
        <time>2023-06-11T11:14:16Z</time>
      </trkpt>
      <trkpt lat="43.73163" lon="5.96364">
        <ele>359.6</ele>
        <time>2023-06-11T11:14:17Z</time>
      </trkpt>
      <trkpt lat="43.73163" lon="5.96365">
        <ele>359.6</ele>
        <time>2023-06-11T11:14:18Z</time>
      </trkpt>
      <trkpt lat="43.73163" lon="5.96365">
        <ele>359.6</ele>
        <time>2023-06-11T11:14:19Z</time>
      </trkpt>
      <trkpt lat="43.73163" lon="5.96365">
        <ele>359.6</ele>
        <time>2023-06-11T11:14:20Z</time>
      </trkpt>
      <trkpt lat="43.73163" lon="5.96364">
        <ele>359.6</ele>
        <time>2023-06-11T11:14:21Z</time>
      </trkpt>
      <trkpt lat="43.73163" lon="5.96365">
        <ele>359.6</ele>
        <time>2023-06-11T11:14:22Z</time>
      </trkpt>
      <trkpt lat="43.73163" lon="5.96365">
        <ele>359.6</ele>
        <time>2023-06-11T11:14:23Z</time>
      </trkpt>
      <trkpt lat="43.73163" lon="5.96365">
        <ele>359.6</ele>
        <time>2023-06-11T11:14:24Z</time>
      </trkpt>
      <trkpt lat="43.73163" lon="5.96365">
        <ele>359.5</ele>
        <time>2023-06-11T11:14:25Z</time>
      </trkpt>
      <trkpt lat="43.73163" lon="5.96365">
        <ele>359.5</ele>
        <time>2023-06-11T11:14:26Z</time>
      </trkpt>
      <trkpt lat="43.73163" lon="5.96365">
        <ele>359.6</ele>
        <time>2023-06-11T11:14:27Z</time>
      </trkpt>
      <trkpt lat="43.73163" lon="5.96365">
        <ele>359.5</ele>
        <time>2023-06-11T11:14:28Z</time>
      </trkpt>
      <trkpt lat="43.73163" lon="5.96365">
        <ele>359.5</ele>
        <time>2023-06-11T11:14:29Z</time>
      </trkpt>
      <trkpt lat="43.73163" lon="5.96365">
        <ele>359.5</ele>
        <time>2023-06-11T11:14:30Z</time>
      </trkpt>
      <trkpt lat="43.73163" lon="5.96366">
        <ele>359.5</ele>
        <time>2023-06-11T11:14:31Z</time>
      </trkpt>
      <trkpt lat="43.73162" lon="5.96366">
        <ele>359.6</ele>
        <time>2023-06-11T11:14:32Z</time>
      </trkpt>
      <trkpt lat="43.73162" lon="5.96366">
        <ele>359.6</ele>
        <time>2023-06-11T11:14:33Z</time>
      </trkpt>
      <trkpt lat="43.73162" lon="5.96366">
        <ele>359.6</ele>
        <time>2023-06-11T11:14:34Z</time>
      </trkpt>
      <trkpt lat="43.73162" lon="5.96367">
        <ele>359.6</ele>
        <time>2023-06-11T11:14:35Z</time>
      </trkpt>
      <trkpt lat="43.73162" lon="5.96367">
        <ele>359.6</ele>
        <time>2023-06-11T11:14:36Z</time>
      </trkpt>
      <trkpt lat="43.73162" lon="5.96367">
        <ele>359.6</ele>
        <time>2023-06-11T11:14:37Z</time>
      </trkpt>
      <trkpt lat="43.73162" lon="5.96367">
        <ele>359.5</ele>
        <time>2023-06-11T11:14:38Z</time>
      </trkpt>
      <trkpt lat="43.73162" lon="5.96368">
        <ele>359.5</ele>
        <time>2023-06-11T11:14:39Z</time>
      </trkpt>
      <trkpt lat="43.73161" lon="5.96368">
        <ele>359.5</ele>
        <time>2023-06-11T11:14:40Z</time>
      </trkpt>
      <trkpt lat="43.73161" lon="5.96369">
        <ele>359.6</ele>
        <time>2023-06-11T11:14:41Z</time>
      </trkpt>
      <trkpt lat="43.73161" lon="5.96369">
        <ele>359.6</ele>
        <time>2023-06-11T11:14:42Z</time>
      </trkpt>
      <trkpt lat="43.73161" lon="5.96369">
        <ele>359.6</ele>
        <time>2023-06-11T11:14:43Z</time>
      </trkpt>
      <trkpt lat="43.73161" lon="5.96369">
        <ele>359.6</ele>
        <time>2023-06-11T11:14:44Z</time>
      </trkpt>
      <trkpt lat="43.73161" lon="5.96369">
        <ele>359.6</ele>
        <time>2023-06-11T11:14:45Z</time>
      </trkpt>
      <trkpt lat="43.73161" lon="5.9637">
        <ele>359.5</ele>
        <time>2023-06-11T11:14:46Z</time>
      </trkpt>
      <trkpt lat="43.73161" lon="5.9637">
        <ele>359.5</ele>
        <time>2023-06-11T11:14:47Z</time>
      </trkpt>
      <trkpt lat="43.73161" lon="5.9637">
        <ele>359.5</ele>
        <time>2023-06-11T11:14:48Z</time>
      </trkpt>
      <trkpt lat="43.73161" lon="5.9637">
        <ele>359.4</ele>
        <time>2023-06-11T11:14:49Z</time>
      </trkpt>
      <trkpt lat="43.73161" lon="5.96371">
        <ele>359.3</ele>
        <time>2023-06-11T11:14:50Z</time>
      </trkpt>
      <trkpt lat="43.73161" lon="5.96371">
        <ele>359.3</ele>
        <time>2023-06-11T11:14:51Z</time>
      </trkpt>
      <trkpt lat="43.73161" lon="5.96371">
        <ele>359.3</ele>
        <time>2023-06-11T11:14:52Z</time>
      </trkpt>
      <trkpt lat="43.7316" lon="5.96372">
        <ele>359.4</ele>
        <time>2023-06-11T11:14:53Z</time>
      </trkpt>
      <trkpt lat="43.7316" lon="5.96372">
        <ele>359.4</ele>
        <time>2023-06-11T11:14:54Z</time>
      </trkpt>
      <trkpt lat="43.7316" lon="5.96373">
        <ele>359.4</ele>
        <time>2023-06-11T11:14:55Z</time>
      </trkpt>
      <trkpt lat="43.7316" lon="5.96373">
        <ele>359.5</ele>
        <time>2023-06-11T11:14:56Z</time>
      </trkpt>
      <trkpt lat="43.7316" lon="5.96373">
        <ele>359.4</ele>
        <time>2023-06-11T11:14:57Z</time>
      </trkpt>
      <trkpt lat="43.7316" lon="5.96373">
        <ele>359.5</ele>
        <time>2023-06-11T11:14:58Z</time>
      </trkpt>
      <trkpt lat="43.7316" lon="5.96373">
        <ele>359.5</ele>
        <time>2023-06-11T11:14:59Z</time>
      </trkpt>
      <trkpt lat="43.7316" lon="5.96373">
        <ele>359.4</ele>
        <time>2023-06-11T11:15:00Z</time>
      </trkpt>
      <trkpt lat="43.7316" lon="5.96374">
        <ele>359.4</ele>
        <time>2023-06-11T11:15:01Z</time>
      </trkpt>
      <trkpt lat="43.7316" lon="5.96374">
        <ele>359.3</ele>
        <time>2023-06-11T11:15:02Z</time>
      </trkpt>
      <trkpt lat="43.7316" lon="5.96374">
        <ele>359.3</ele>
        <time>2023-06-11T11:15:03Z</time>
      </trkpt>
      <trkpt lat="43.7316" lon="5.96374">
        <ele>359.3</ele>
        <time>2023-06-11T11:15:04Z</time>
      </trkpt>
      <trkpt lat="43.7316" lon="5.96373">
        <ele>359.3</ele>
        <time>2023-06-11T11:15:05Z</time>
      </trkpt>
      <trkpt lat="43.7316" lon="5.96373">
        <ele>359.3</ele>
        <time>2023-06-11T11:15:06Z</time>
      </trkpt>
      <trkpt lat="43.7316" lon="5.96373">
        <ele>359.3</ele>
        <time>2023-06-11T11:15:07Z</time>
      </trkpt>
      <trkpt lat="43.7316" lon="5.96373">
        <ele>359.3</ele>
        <time>2023-06-11T11:15:08Z</time>
      </trkpt>
      <trkpt lat="43.7316" lon="5.96373">
        <ele>359.3</ele>
        <time>2023-06-11T11:15:09Z</time>
      </trkpt>
      <trkpt lat="43.7316" lon="5.96373">
        <ele>359.4</ele>
        <time>2023-06-11T11:15:10Z</time>
      </trkpt>
      <trkpt lat="43.7316" lon="5.96373">
        <ele>359.5</ele>
        <time>2023-06-11T11:15:11Z</time>
      </trkpt>
      <trkpt lat="43.7316" lon="5.96373">
        <ele>359.5</ele>
        <time>2023-06-11T11:15:12Z</time>
      </trkpt>
      <trkpt lat="43.7316" lon="5.96373">
        <ele>359.5</ele>
        <time>2023-06-11T11:15:13Z</time>
      </trkpt>
      <trkpt lat="43.7316" lon="5.96372">
        <ele>359.5</ele>
        <time>2023-06-11T11:15:14Z</time>
      </trkpt>
      <trkpt lat="43.7316" lon="5.96372">
        <ele>359.5</ele>
        <time>2023-06-11T11:15:15Z</time>
      </trkpt>
      <trkpt lat="43.7316" lon="5.96372">
        <ele>359.4</ele>
        <time>2023-06-11T11:15:16Z</time>
      </trkpt>
      <trkpt lat="43.7316" lon="5.96372">
        <ele>359.4</ele>
        <time>2023-06-11T11:15:17Z</time>
      </trkpt>
      <trkpt lat="43.7316" lon="5.96372">
        <ele>359.4</ele>
        <time>2023-06-11T11:15:18Z</time>
      </trkpt>
      <trkpt lat="43.7316" lon="5.96372">
        <ele>359.4</ele>
        <time>2023-06-11T11:15:19Z</time>
      </trkpt>
      <trkpt lat="43.7316" lon="5.96372">
        <ele>359.4</ele>
        <time>2023-06-11T11:15:20Z</time>
      </trkpt>
      <trkpt lat="43.7316" lon="5.96373">
        <ele>359.4</ele>
        <time>2023-06-11T11:15:21Z</time>
      </trkpt>
      <trkpt lat="43.7316" lon="5.96373">
        <ele>359.4</ele>
        <time>2023-06-11T11:15:22Z</time>
      </trkpt>
      <trkpt lat="43.7316" lon="5.96373">
        <ele>359.5</ele>
        <time>2023-06-11T11:15:23Z</time>
      </trkpt>
      <trkpt lat="43.7316" lon="5.96373">
        <ele>359.5</ele>
        <time>2023-06-11T11:15:24Z</time>
      </trkpt>
      <trkpt lat="43.7316" lon="5.96373">
        <ele>359.5</ele>
        <time>2023-06-11T11:15:25Z</time>
      </trkpt>
      <trkpt lat="43.7316" lon="5.96372">
        <ele>359.5</ele>
        <time>2023-06-11T11:15:26Z</time>
      </trkpt>
      <trkpt lat="43.7316" lon="5.96372">
        <ele>359.6</ele>
        <time>2023-06-11T11:15:27Z</time>
      </trkpt>
      <trkpt lat="43.7316" lon="5.96372">
        <ele>359.6</ele>
        <time>2023-06-11T11:15:28Z</time>
      </trkpt>
      <trkpt lat="43.7316" lon="5.96372">
        <ele>359.5</ele>
        <time>2023-06-11T11:15:29Z</time>
      </trkpt>
      <trkpt lat="43.7316" lon="5.96372">
        <ele>359.5</ele>
        <time>2023-06-11T11:15:30Z</time>
      </trkpt>
      <trkpt lat="43.7316" lon="5.96372">
        <ele>359.4</ele>
        <time>2023-06-11T11:15:31Z</time>
      </trkpt>
      <trkpt lat="43.7316" lon="5.96372">
        <ele>359.4</ele>
        <time>2023-06-11T11:15:32Z</time>
      </trkpt>
      <trkpt lat="43.7316" lon="5.96371">
        <ele>359.4</ele>
        <time>2023-06-11T11:15:33Z</time>
      </trkpt>
      <trkpt lat="43.73161" lon="5.96371">
        <ele>359.4</ele>
        <time>2023-06-11T11:15:34Z</time>
      </trkpt>
      <trkpt lat="43.73161" lon="5.96371">
        <ele>359.4</ele>
        <time>2023-06-11T11:15:35Z</time>
      </trkpt>
      <trkpt lat="43.73161" lon="5.96371">
        <ele>359.4</ele>
        <time>2023-06-11T11:15:36Z</time>
      </trkpt>
      <trkpt lat="43.73161" lon="5.9637">
        <ele>359.4</ele>
        <time>2023-06-11T11:15:37Z</time>
      </trkpt>
      <trkpt lat="43.73161" lon="5.9637">
        <ele>359.4</ele>
        <time>2023-06-11T11:15:38Z</time>
      </trkpt>
      <trkpt lat="43.73161" lon="5.96369">
        <ele>359.4</ele>
        <time>2023-06-11T11:15:39Z</time>
      </trkpt>
      <trkpt lat="43.73161" lon="5.96369">
        <ele>359.4</ele>
        <time>2023-06-11T11:15:40Z</time>
      </trkpt>
      <trkpt lat="43.73161" lon="5.96369">
        <ele>359.4</ele>
        <time>2023-06-11T11:15:41Z</time>
      </trkpt>
      <trkpt lat="43.73161" lon="5.96369">
        <ele>359.3</ele>
        <time>2023-06-11T11:15:42Z</time>
      </trkpt>
      <trkpt lat="43.73161" lon="5.96369">
        <ele>359.3</ele>
        <time>2023-06-11T11:15:43Z</time>
      </trkpt>
      <trkpt lat="43.73161" lon="5.96369">
        <ele>359.3</ele>
        <time>2023-06-11T11:15:44Z</time>
      </trkpt>
      <trkpt lat="43.73161" lon="5.96369">
        <ele>359.2</ele>
        <time>2023-06-11T11:15:45Z</time>
      </trkpt>
      <trkpt lat="43.73161" lon="5.96369">
        <ele>359.1</ele>
        <time>2023-06-11T11:15:46Z</time>
      </trkpt>
      <trkpt lat="43.73161" lon="5.96369">
        <ele>359.2</ele>
        <time>2023-06-11T11:15:47Z</time>
      </trkpt>
      <trkpt lat="43.73161" lon="5.96369">
        <ele>359.2</ele>
        <time>2023-06-11T11:15:48Z</time>
      </trkpt>
      <trkpt lat="43.73161" lon="5.96369">
        <ele>359.2</ele>
        <time>2023-06-11T11:15:49Z</time>
      </trkpt>
      <trkpt lat="43.73161" lon="5.96369">
        <ele>359.2</ele>
        <time>2023-06-11T11:15:50Z</time>
      </trkpt>
      <trkpt lat="43.73161" lon="5.96369">
        <ele>359.2</ele>
        <time>2023-06-11T11:15:51Z</time>
      </trkpt>
      <trkpt lat="43.73161" lon="5.96369">
        <ele>359.2</ele>
        <time>2023-06-11T11:15:52Z</time>
      </trkpt>
      <trkpt lat="43.73161" lon="5.96368">
        <ele>359.2</ele>
        <time>2023-06-11T11:15:53Z</time>
      </trkpt>
      <trkpt lat="43.73161" lon="5.96368">
        <ele>359.2</ele>
        <time>2023-06-11T11:15:54Z</time>
      </trkpt>
      <trkpt lat="43.73161" lon="5.96368">
        <ele>359.3</ele>
        <time>2023-06-11T11:15:55Z</time>
      </trkpt>
      <trkpt lat="43.73161" lon="5.96368">
        <ele>359.3</ele>
        <time>2023-06-11T11:15:56Z</time>
      </trkpt>
      <trkpt lat="43.73161" lon="5.96368">
        <ele>359.3</ele>
        <time>2023-06-11T11:15:57Z</time>
      </trkpt>
      <trkpt lat="43.73161" lon="5.96368">
        <ele>359.4</ele>
        <time>2023-06-11T11:15:58Z</time>
      </trkpt>
      <trkpt lat="43.73161" lon="5.96368">
        <ele>359.4</ele>
        <time>2023-06-11T11:15:59Z</time>
      </trkpt>
      <trkpt lat="43.73161" lon="5.96368">
        <ele>359.4</ele>
        <time>2023-06-11T11:16:00Z</time>
      </trkpt>
      <trkpt lat="43.73162" lon="5.96368">
        <ele>359.4</ele>
        <time>2023-06-11T11:16:01Z</time>
      </trkpt>
      <trkpt lat="43.73162" lon="5.96367">
        <ele>359.5</ele>
        <time>2023-06-11T11:16:02Z</time>
      </trkpt>
      <trkpt lat="43.73162" lon="5.96367">
        <ele>359.5</ele>
        <time>2023-06-11T11:16:03Z</time>
      </trkpt>
      <trkpt lat="43.73162" lon="5.96367">
        <ele>359.5</ele>
        <time>2023-06-11T11:16:04Z</time>
      </trkpt>
      <trkpt lat="43.73162" lon="5.96367">
        <ele>359.6</ele>
        <time>2023-06-11T11:16:05Z</time>
      </trkpt>
      <trkpt lat="43.73162" lon="5.96367">
        <ele>359.5</ele>
        <time>2023-06-11T11:16:06Z</time>
      </trkpt>
      <trkpt lat="43.73162" lon="5.96367">
        <ele>359.4</ele>
        <time>2023-06-11T11:16:07Z</time>
      </trkpt>
      <trkpt lat="43.73162" lon="5.96367">
        <ele>359.4</ele>
        <time>2023-06-11T11:16:08Z</time>
      </trkpt>
      <trkpt lat="43.73162" lon="5.96367">
        <ele>359.4</ele>
        <time>2023-06-11T11:16:09Z</time>
      </trkpt>
      <trkpt lat="43.73162" lon="5.96367">
        <ele>359.4</ele>
        <time>2023-06-11T11:16:10Z</time>
      </trkpt>
      <trkpt lat="43.73162" lon="5.96367">
        <ele>359.4</ele>
        <time>2023-06-11T11:16:11Z</time>
      </trkpt>
      <trkpt lat="43.73162" lon="5.96367">
        <ele>359.3</ele>
        <time>2023-06-11T11:16:12Z</time>
      </trkpt>
      <trkpt lat="43.73162" lon="5.96367">
        <ele>359.3</ele>
        <time>2023-06-11T11:16:13Z</time>
      </trkpt>
      <trkpt lat="43.73162" lon="5.96366">
        <ele>359.3</ele>
        <time>2023-06-11T11:16:14Z</time>
      </trkpt>
      <trkpt lat="43.73162" lon="5.96366">
        <ele>359.3</ele>
        <time>2023-06-11T11:16:15Z</time>
      </trkpt>
      <trkpt lat="43.73162" lon="5.96366">
        <ele>359.3</ele>
        <time>2023-06-11T11:16:16Z</time>
      </trkpt>
      <trkpt lat="43.73162" lon="5.96366">
        <ele>359.2</ele>
        <time>2023-06-11T11:16:17Z</time>
      </trkpt>
      <trkpt lat="43.73162" lon="5.96366">
        <ele>359.2</ele>
        <time>2023-06-11T11:16:18Z</time>
      </trkpt>
      <trkpt lat="43.73162" lon="5.96366">
        <ele>359.3</ele>
        <time>2023-06-11T11:16:19Z</time>
      </trkpt>
      <trkpt lat="43.73162" lon="5.96366">
        <ele>359.3</ele>
        <time>2023-06-11T11:16:20Z</time>
      </trkpt>
      <trkpt lat="43.73162" lon="5.96366">
        <ele>359.4</ele>
        <time>2023-06-11T11:16:21Z</time>
      </trkpt>
      <trkpt lat="43.73162" lon="5.96366">
        <ele>359.4</ele>
        <time>2023-06-11T11:16:22Z</time>
      </trkpt>
      <trkpt lat="43.73162" lon="5.96366">
        <ele>359.5</ele>
        <time>2023-06-11T11:16:23Z</time>
      </trkpt>
      <trkpt lat="43.73162" lon="5.96366">
        <ele>359.5</ele>
        <time>2023-06-11T11:16:24Z</time>
      </trkpt>
      <trkpt lat="43.73162" lon="5.96366">
        <ele>359.5</ele>
        <time>2023-06-11T11:16:25Z</time>
      </trkpt>
      <trkpt lat="43.73162" lon="5.96366">
        <ele>359.4</ele>
        <time>2023-06-11T11:16:26Z</time>
      </trkpt>
      <trkpt lat="43.73162" lon="5.96366">
        <ele>359.4</ele>
        <time>2023-06-11T11:16:27Z</time>
      </trkpt>
      <trkpt lat="43.73162" lon="5.96366">
        <ele>359.4</ele>
        <time>2023-06-11T11:16:28Z</time>
      </trkpt>
      <trkpt lat="43.73162" lon="5.96366">
        <ele>359.4</ele>
        <time>2023-06-11T11:16:29Z</time>
      </trkpt>
      <trkpt lat="43.73162" lon="5.96366">
        <ele>359.4</ele>
        <time>2023-06-11T11:16:30Z</time>
      </trkpt>
      <trkpt lat="43.73162" lon="5.96366">
        <ele>359.4</ele>
        <time>2023-06-11T11:16:31Z</time>
      </trkpt>
      <trkpt lat="43.73162" lon="5.96366">
        <ele>359.4</ele>
        <time>2023-06-11T11:16:32Z</time>
      </trkpt>
      <trkpt lat="43.73162" lon="5.96366">
        <ele>359.4</ele>
        <time>2023-06-11T11:16:33Z</time>
      </trkpt>
      <trkpt lat="43.73162" lon="5.96366">
        <ele>359.5</ele>
        <time>2023-06-11T11:16:34Z</time>
      </trkpt>
      <trkpt lat="43.73162" lon="5.96366">
        <ele>359.5</ele>
        <time>2023-06-11T11:16:35Z</time>
      </trkpt>
      <trkpt lat="43.73162" lon="5.96366">
        <ele>359.6</ele>
        <time>2023-06-11T11:16:36Z</time>
      </trkpt>
      <trkpt lat="43.73162" lon="5.96365">
        <ele>359.6</ele>
        <time>2023-06-11T11:16:37Z</time>
      </trkpt>
      <trkpt lat="43.73162" lon="5.96366">
        <ele>359.5</ele>
        <time>2023-06-11T11:16:38Z</time>
      </trkpt>
      <trkpt lat="43.73162" lon="5.96365">
        <ele>359.7</ele>
        <time>2023-06-11T11:16:39Z</time>
      </trkpt>
      <trkpt lat="43.73162" lon="5.96365">
        <ele>359.7</ele>
        <time>2023-06-11T11:16:40Z</time>
      </trkpt>
      <trkpt lat="43.73162" lon="5.96365">
        <ele>359.7</ele>
        <time>2023-06-11T11:16:41Z</time>
      </trkpt>
      <trkpt lat="43.73162" lon="5.96365">
        <ele>359.7</ele>
        <time>2023-06-11T11:16:42Z</time>
      </trkpt>
      <trkpt lat="43.73162" lon="5.96365">
        <ele>359.7</ele>
        <time>2023-06-11T11:16:43Z</time>
      </trkpt>
      <trkpt lat="43.73162" lon="5.96365">
        <ele>359.7</ele>
        <time>2023-06-11T11:16:44Z</time>
      </trkpt>
      <trkpt lat="43.73162" lon="5.96365">
        <ele>359.6</ele>
        <time>2023-06-11T11:16:45Z</time>
      </trkpt>
      <trkpt lat="43.73162" lon="5.96365">
        <ele>359.6</ele>
        <time>2023-06-11T11:16:46Z</time>
      </trkpt>
      <trkpt lat="43.73162" lon="5.96365">
        <ele>359.6</ele>
        <time>2023-06-11T11:16:47Z</time>
      </trkpt>
      <trkpt lat="43.73162" lon="5.96365">
        <ele>359.7</ele>
        <time>2023-06-11T11:16:48Z</time>
      </trkpt>
      <trkpt lat="43.73162" lon="5.96365">
        <ele>359.6</ele>
        <time>2023-06-11T11:16:49Z</time>
      </trkpt>
      <trkpt lat="43.73162" lon="5.96365">
        <ele>359.5</ele>
        <time>2023-06-11T11:16:50Z</time>
      </trkpt>
      <trkpt lat="43.73162" lon="5.96365">
        <ele>359.5</ele>
        <time>2023-06-11T11:16:51Z</time>
      </trkpt>
      <trkpt lat="43.73162" lon="5.96365">
        <ele>359.5</ele>
        <time>2023-06-11T11:16:52Z</time>
      </trkpt>
      <trkpt lat="43.73162" lon="5.96365">
        <ele>359.5</ele>
        <time>2023-06-11T11:16:53Z</time>
      </trkpt>
      <trkpt lat="43.73162" lon="5.96365">
        <ele>359.4</ele>
        <time>2023-06-11T11:16:54Z</time>
      </trkpt>
      <trkpt lat="43.73162" lon="5.96365">
        <ele>359.4</ele>
        <time>2023-06-11T11:16:55Z</time>
      </trkpt>
      <trkpt lat="43.73162" lon="5.96365">
        <ele>359.5</ele>
        <time>2023-06-11T11:16:56Z</time>
      </trkpt>
      <trkpt lat="43.73162" lon="5.96365">
        <ele>359.5</ele>
        <time>2023-06-11T11:16:57Z</time>
      </trkpt>
      <trkpt lat="43.73162" lon="5.96365">
        <ele>359.5</ele>
        <time>2023-06-11T11:16:58Z</time>
      </trkpt>
      <trkpt lat="43.73162" lon="5.96365">
        <ele>359.5</ele>
        <time>2023-06-11T11:16:59Z</time>
      </trkpt>
      <trkpt lat="43.73162" lon="5.96365">
        <ele>359.5</ele>
        <time>2023-06-11T11:17:00Z</time>
      </trkpt>
      <trkpt lat="43.73162" lon="5.96365">
        <ele>359.5</ele>
        <time>2023-06-11T11:17:01Z</time>
      </trkpt>
      <trkpt lat="43.73162" lon="5.96365">
        <ele>359.6</ele>
        <time>2023-06-11T11:17:02Z</time>
      </trkpt>
      <trkpt lat="43.73162" lon="5.96365">
        <ele>359.5</ele>
        <time>2023-06-11T11:17:03Z</time>
      </trkpt>
      <trkpt lat="43.73162" lon="5.96365">
        <ele>359.6</ele>
        <time>2023-06-11T11:17:04Z</time>
      </trkpt>
      <trkpt lat="43.73162" lon="5.96365">
        <ele>359.6</ele>
        <time>2023-06-11T11:17:05Z</time>
      </trkpt>
      <trkpt lat="43.73162" lon="5.96365">
        <ele>359.7</ele>
        <time>2023-06-11T11:17:06Z</time>
      </trkpt>
      <trkpt lat="43.73162" lon="5.96365">
        <ele>359.6</ele>
        <time>2023-06-11T11:17:07Z</time>
      </trkpt>
      <trkpt lat="43.73162" lon="5.96365">
        <ele>359.6</ele>
        <time>2023-06-11T11:17:08Z</time>
      </trkpt>
      <trkpt lat="43.73162" lon="5.96365">
        <ele>359.6</ele>
        <time>2023-06-11T11:17:09Z</time>
      </trkpt>
      <trkpt lat="43.73162" lon="5.96365">
        <ele>359.7</ele>
        <time>2023-06-11T11:17:10Z</time>
      </trkpt>
      <trkpt lat="43.73162" lon="5.96365">
        <ele>359.7</ele>
        <time>2023-06-11T11:17:11Z</time>
      </trkpt>
      <trkpt lat="43.73162" lon="5.96364">
        <ele>359.6</ele>
        <time>2023-06-11T11:17:12Z</time>
      </trkpt>
      <trkpt lat="43.73162" lon="5.96365">
        <ele>359.7</ele>
        <time>2023-06-11T11:17:13Z</time>
      </trkpt>
      <trkpt lat="43.73162" lon="5.96365">
        <ele>359.7</ele>
        <time>2023-06-11T11:17:14Z</time>
      </trkpt>
      <trkpt lat="43.73162" lon="5.96364">
        <ele>359.7</ele>
        <time>2023-06-11T11:17:15Z</time>
      </trkpt>
      <trkpt lat="43.73162" lon="5.96364">
        <ele>359.7</ele>
        <time>2023-06-11T11:17:16Z</time>
      </trkpt>
      <trkpt lat="43.73162" lon="5.96364">
        <ele>359.6</ele>
        <time>2023-06-11T11:17:17Z</time>
      </trkpt>
      <trkpt lat="43.73162" lon="5.96364">
        <ele>359.6</ele>
        <time>2023-06-11T11:17:18Z</time>
      </trkpt>
      <trkpt lat="43.73162" lon="5.96364">
        <ele>359.6</ele>
        <time>2023-06-11T11:17:19Z</time>
      </trkpt>
      <trkpt lat="43.73162" lon="5.96364">
        <ele>359.6</ele>
        <time>2023-06-11T11:17:20Z</time>
      </trkpt>
      <trkpt lat="43.73162" lon="5.96364">
        <ele>359.6</ele>
        <time>2023-06-11T11:17:21Z</time>
      </trkpt>
      <trkpt lat="43.73162" lon="5.96364">
        <ele>359.6</ele>
        <time>2023-06-11T11:17:22Z</time>
      </trkpt>
      <trkpt lat="43.73162" lon="5.96364">
        <ele>359.6</ele>
        <time>2023-06-11T11:17:23Z</time>
      </trkpt>
      <trkpt lat="43.73162" lon="5.96364">
        <ele>359.6</ele>
        <time>2023-06-11T11:17:24Z</time>
      </trkpt>
      <trkpt lat="43.73162" lon="5.96364">
        <ele>359.6</ele>
        <time>2023-06-11T11:17:25Z</time>
      </trkpt>
      <trkpt lat="43.73162" lon="5.96365">
        <ele>359.6</ele>
        <time>2023-06-11T11:17:26Z</time>
      </trkpt>
      <trkpt lat="43.73162" lon="5.96365">
        <ele>359.5</ele>
        <time>2023-06-11T11:17:27Z</time>
      </trkpt>
      <trkpt lat="43.73162" lon="5.96365">
        <ele>359.5</ele>
        <time>2023-06-11T11:17:28Z</time>
      </trkpt>
      <trkpt lat="43.73162" lon="5.96365">
        <ele>359.4</ele>
        <time>2023-06-11T11:17:29Z</time>
      </trkpt>
      <trkpt lat="43.73162" lon="5.96365">
        <ele>359.4</ele>
        <time>2023-06-11T11:17:30Z</time>
      </trkpt>
      <trkpt lat="43.73162" lon="5.96365">
        <ele>359.4</ele>
        <time>2023-06-11T11:17:31Z</time>
      </trkpt>
      <trkpt lat="43.73162" lon="5.96364">
        <ele>359.3</ele>
        <time>2023-06-11T11:17:32Z</time>
      </trkpt>
      <trkpt lat="43.73162" lon="5.96364">
        <ele>359.3</ele>
        <time>2023-06-11T11:17:33Z</time>
      </trkpt>
      <trkpt lat="43.73162" lon="5.96364">
        <ele>359.3</ele>
        <time>2023-06-11T11:17:34Z</time>
      </trkpt>
      <trkpt lat="43.73162" lon="5.96364">
        <ele>359.3</ele>
        <time>2023-06-11T11:17:35Z</time>
      </trkpt>
      <trkpt lat="43.73162" lon="5.96364">
        <ele>359.3</ele>
        <time>2023-06-11T11:17:36Z</time>
      </trkpt>
      <trkpt lat="43.73162" lon="5.96364">
        <ele>359.3</ele>
        <time>2023-06-11T11:17:37Z</time>
      </trkpt>
      <trkpt lat="43.73162" lon="5.96364">
        <ele>359.4</ele>
        <time>2023-06-11T11:17:38Z</time>
      </trkpt>
      <trkpt lat="43.73162" lon="5.96364">
        <ele>359.4</ele>
        <time>2023-06-11T11:17:39Z</time>
      </trkpt>
      <trkpt lat="43.73162" lon="5.96364">
        <ele>359.4</ele>
        <time>2023-06-11T11:17:40Z</time>
      </trkpt>
      <trkpt lat="43.73162" lon="5.96364">
        <ele>359.4</ele>
        <time>2023-06-11T11:17:41Z</time>
      </trkpt>
      <trkpt lat="43.73162" lon="5.96364">
        <ele>359.4</ele>
        <time>2023-06-11T11:17:42Z</time>
      </trkpt>
      <trkpt lat="43.73162" lon="5.96364">
        <ele>359.4</ele>
        <time>2023-06-11T11:17:43Z</time>
      </trkpt>
      <trkpt lat="43.73162" lon="5.96364">
        <ele>359.4</ele>
        <time>2023-06-11T11:17:44Z</time>
      </trkpt>
      <trkpt lat="43.73162" lon="5.96364">
        <ele>359.4</ele>
        <time>2023-06-11T11:17:45Z</time>
      </trkpt>
      <trkpt lat="43.73162" lon="5.96364">
        <ele>359.4</ele>
        <time>2023-06-11T11:17:46Z</time>
      </trkpt>
      <trkpt lat="43.73162" lon="5.96364">
        <ele>359.3</ele>
        <time>2023-06-11T11:17:47Z</time>
      </trkpt>
      <trkpt lat="43.73162" lon="5.96364">
        <ele>359.3</ele>
        <time>2023-06-11T11:17:48Z</time>
      </trkpt>
      <trkpt lat="43.73162" lon="5.96364">
        <ele>359.3</ele>
        <time>2023-06-11T11:17:49Z</time>
      </trkpt>
      <trkpt lat="43.73162" lon="5.96365">
        <ele>359.3</ele>
        <time>2023-06-11T11:17:50Z</time>
      </trkpt>
      <trkpt lat="43.73162" lon="5.96365">
        <ele>359.3</ele>
        <time>2023-06-11T11:17:51Z</time>
      </trkpt>
      <trkpt lat="43.73162" lon="5.96364">
        <ele>359.4</ele>
        <time>2023-06-11T11:17:52Z</time>
      </trkpt>
      <trkpt lat="43.73162" lon="5.96364">
        <ele>359.4</ele>
        <time>2023-06-11T11:17:53Z</time>
      </trkpt>
      <trkpt lat="43.73162" lon="5.96364">
        <ele>359.4</ele>
        <time>2023-06-11T11:17:54Z</time>
      </trkpt>
      <trkpt lat="43.73162" lon="5.96365">
        <ele>359.5</ele>
        <time>2023-06-11T11:17:55Z</time>
      </trkpt>
      <trkpt lat="43.73162" lon="5.96365">
        <ele>359.6</ele>
        <time>2023-06-11T11:17:56Z</time>
      </trkpt>
      <trkpt lat="43.73162" lon="5.96365">
        <ele>359.7</ele>
        <time>2023-06-11T11:17:57Z</time>
      </trkpt>
      <trkpt lat="43.73162" lon="5.96365">
        <ele>359.7</ele>
        <time>2023-06-11T11:17:58Z</time>
      </trkpt>
      <trkpt lat="43.73162" lon="5.96364">
        <ele>359.8</ele>
        <time>2023-06-11T11:17:59Z</time>
      </trkpt>
      <trkpt lat="43.73162" lon="5.96364">
        <ele>359.8</ele>
        <time>2023-06-11T11:18:00Z</time>
      </trkpt>
      <trkpt lat="43.73162" lon="5.96364">
        <ele>359.8</ele>
        <time>2023-06-11T11:18:01Z</time>
      </trkpt>
      <trkpt lat="43.73162" lon="5.96364">
        <ele>359.8</ele>
        <time>2023-06-11T11:18:02Z</time>
      </trkpt>
      <trkpt lat="43.73162" lon="5.96364">
        <ele>359.9</ele>
        <time>2023-06-11T11:18:03Z</time>
      </trkpt>
      <trkpt lat="43.73162" lon="5.96364">
        <ele>359.9</ele>
        <time>2023-06-11T11:18:04Z</time>
      </trkpt>
      <trkpt lat="43.73162" lon="5.96364">
        <ele>359.9</ele>
        <time>2023-06-11T11:18:05Z</time>
      </trkpt>
      <trkpt lat="43.73162" lon="5.96364">
        <ele>360</ele>
        <time>2023-06-11T11:18:06Z</time>
      </trkpt>
      <trkpt lat="43.73162" lon="5.96363">
        <ele>360</ele>
        <time>2023-06-11T11:18:07Z</time>
      </trkpt>
      <trkpt lat="43.73162" lon="5.96364">
        <ele>360</ele>
        <time>2023-06-11T11:18:08Z</time>
      </trkpt>
      <trkpt lat="43.73162" lon="5.96364">
        <ele>360</ele>
        <time>2023-06-11T11:18:09Z</time>
      </trkpt>
      <trkpt lat="43.73162" lon="5.96364">
        <ele>360</ele>
        <time>2023-06-11T11:18:10Z</time>
      </trkpt>
      <trkpt lat="43.73162" lon="5.96364">
        <ele>360</ele>
        <time>2023-06-11T11:18:11Z</time>
      </trkpt>
      <trkpt lat="43.73162" lon="5.96364">
        <ele>359.9</ele>
        <time>2023-06-11T11:18:12Z</time>
      </trkpt>
      <trkpt lat="43.73162" lon="5.96364">
        <ele>359.9</ele>
        <time>2023-06-11T11:18:13Z</time>
      </trkpt>
      <trkpt lat="43.73162" lon="5.96364">
        <ele>359.9</ele>
        <time>2023-06-11T11:18:14Z</time>
      </trkpt>
      <trkpt lat="43.73162" lon="5.96364">
        <ele>359.9</ele>
        <time>2023-06-11T11:18:15Z</time>
      </trkpt>
      <trkpt lat="43.73163" lon="5.96363">
        <ele>359.8</ele>
        <time>2023-06-11T11:18:16Z</time>
      </trkpt>
      <trkpt lat="43.73163" lon="5.96363">
        <ele>359.7</ele>
        <time>2023-06-11T11:18:17Z</time>
      </trkpt>
      <trkpt lat="43.73163" lon="5.96363">
        <ele>359.8</ele>
        <time>2023-06-11T11:18:18Z</time>
      </trkpt>
      <trkpt lat="43.73163" lon="5.96363">
        <ele>359.7</ele>
        <time>2023-06-11T11:18:19Z</time>
      </trkpt>
      <trkpt lat="43.73163" lon="5.96363">
        <ele>359.6</ele>
        <time>2023-06-11T11:18:20Z</time>
      </trkpt>
      <trkpt lat="43.73163" lon="5.96363">
        <ele>359.7</ele>
        <time>2023-06-11T11:18:21Z</time>
      </trkpt>
      <trkpt lat="43.73163" lon="5.96363">
        <ele>359.6</ele>
        <time>2023-06-11T11:18:22Z</time>
      </trkpt>
      <trkpt lat="43.73163" lon="5.96363">
        <ele>359.7</ele>
        <time>2023-06-11T11:18:23Z</time>
      </trkpt>
      <trkpt lat="43.73163" lon="5.96363">
        <ele>359.7</ele>
        <time>2023-06-11T11:18:24Z</time>
      </trkpt>
      <trkpt lat="43.73162" lon="5.96363">
        <ele>359.7</ele>
        <time>2023-06-11T11:18:25Z</time>
      </trkpt>
      <trkpt lat="43.73162" lon="5.96363">
        <ele>359.7</ele>
        <time>2023-06-11T11:18:26Z</time>
      </trkpt>
      <trkpt lat="43.73162" lon="5.96363">
        <ele>359.7</ele>
        <time>2023-06-11T11:18:27Z</time>
      </trkpt>
      <trkpt lat="43.73162" lon="5.96363">
        <ele>359.7</ele>
        <time>2023-06-11T11:18:28Z</time>
      </trkpt>
      <trkpt lat="43.73162" lon="5.96363">
        <ele>359.7</ele>
        <time>2023-06-11T11:18:29Z</time>
      </trkpt>
      <trkpt lat="43.73162" lon="5.96363">
        <ele>359.6</ele>
        <time>2023-06-11T11:18:30Z</time>
      </trkpt>
      <trkpt lat="43.73162" lon="5.96363">
        <ele>359.6</ele>
        <time>2023-06-11T11:18:31Z</time>
      </trkpt>
      <trkpt lat="43.73162" lon="5.96363">
        <ele>359.6</ele>
        <time>2023-06-11T11:18:32Z</time>
      </trkpt>
      <trkpt lat="43.73163" lon="5.96363">
        <ele>359.6</ele>
        <time>2023-06-11T11:18:33Z</time>
      </trkpt>
      <trkpt lat="43.73163" lon="5.96363">
        <ele>359.6</ele>
        <time>2023-06-11T11:18:34Z</time>
      </trkpt>
      <trkpt lat="43.73162" lon="5.96363">
        <ele>359.6</ele>
        <time>2023-06-11T11:18:35Z</time>
      </trkpt>
      <trkpt lat="43.73162" lon="5.96364">
        <ele>359.6</ele>
        <time>2023-06-11T11:18:36Z</time>
      </trkpt>
      <trkpt lat="43.73162" lon="5.96364">
        <ele>359.6</ele>
        <time>2023-06-11T11:18:37Z</time>
      </trkpt>
      <trkpt lat="43.73162" lon="5.96364">
        <ele>359.6</ele>
        <time>2023-06-11T11:18:38Z</time>
      </trkpt>
      <trkpt lat="43.73162" lon="5.96364">
        <ele>359.6</ele>
        <time>2023-06-11T11:18:39Z</time>
      </trkpt>
      <trkpt lat="43.73162" lon="5.96364">
        <ele>359.6</ele>
        <time>2023-06-11T11:18:40Z</time>
      </trkpt>
      <trkpt lat="43.73162" lon="5.96364">
        <ele>359.6</ele>
        <time>2023-06-11T11:18:41Z</time>
      </trkpt>
      <trkpt lat="43.73162" lon="5.96363">
        <ele>359.6</ele>
        <time>2023-06-11T11:18:42Z</time>
      </trkpt>
      <trkpt lat="43.73162" lon="5.96363">
        <ele>359.6</ele>
        <time>2023-06-11T11:18:43Z</time>
      </trkpt>
      <trkpt lat="43.73162" lon="5.96363">
        <ele>359.6</ele>
        <time>2023-06-11T11:18:44Z</time>
      </trkpt>
      <trkpt lat="43.73162" lon="5.96363">
        <ele>359.6</ele>
        <time>2023-06-11T11:18:45Z</time>
      </trkpt>
      <trkpt lat="43.73162" lon="5.96363">
        <ele>359.6</ele>
        <time>2023-06-11T11:18:46Z</time>
      </trkpt>
      <trkpt lat="43.73162" lon="5.96363">
        <ele>359.6</ele>
        <time>2023-06-11T11:18:47Z</time>
      </trkpt>
      <trkpt lat="43.73162" lon="5.96363">
        <ele>359.6</ele>
        <time>2023-06-11T11:18:48Z</time>
      </trkpt>
      <trkpt lat="43.73162" lon="5.96363">
        <ele>359.6</ele>
        <time>2023-06-11T11:18:49Z</time>
      </trkpt>
      <trkpt lat="43.73162" lon="5.96363">
        <ele>359.6</ele>
        <time>2023-06-11T11:18:50Z</time>
      </trkpt>
      <trkpt lat="43.73162" lon="5.96364">
        <ele>359.6</ele>
        <time>2023-06-11T11:18:51Z</time>
      </trkpt>
      <trkpt lat="43.73162" lon="5.96364">
        <ele>359.6</ele>
        <time>2023-06-11T11:18:52Z</time>
      </trkpt>
      <trkpt lat="43.73162" lon="5.96364">
        <ele>359.6</ele>
        <time>2023-06-11T11:18:53Z</time>
      </trkpt>
      <trkpt lat="43.73162" lon="5.96364">
        <ele>359.6</ele>
        <time>2023-06-11T11:18:54Z</time>
      </trkpt>
      <trkpt lat="43.73162" lon="5.96364">
        <ele>359.6</ele>
        <time>2023-06-11T11:18:55Z</time>
      </trkpt>
      <trkpt lat="43.73162" lon="5.96364">
        <ele>359.6</ele>
        <time>2023-06-11T11:18:56Z</time>
      </trkpt>
      <trkpt lat="43.73162" lon="5.96364">
        <ele>359.6</ele>
        <time>2023-06-11T11:18:57Z</time>
      </trkpt>
      <trkpt lat="43.73162" lon="5.96364">
        <ele>359.6</ele>
        <time>2023-06-11T11:18:58Z</time>
      </trkpt>
      <trkpt lat="43.73162" lon="5.96364">
        <ele>359.6</ele>
        <time>2023-06-11T11:18:59Z</time>
      </trkpt>
      <trkpt lat="43.73162" lon="5.96364">
        <ele>359.6</ele>
        <time>2023-06-11T11:19:00Z</time>
      </trkpt>
      <trkpt lat="43.73162" lon="5.96364">
        <ele>359.6</ele>
        <time>2023-06-11T11:19:01Z</time>
      </trkpt>
      <trkpt lat="43.73162" lon="5.96364">
        <ele>359.6</ele>
        <time>2023-06-11T11:19:02Z</time>
      </trkpt>
      <trkpt lat="43.73162" lon="5.96364">
        <ele>359.5</ele>
        <time>2023-06-11T11:19:03Z</time>
      </trkpt>
      <trkpt lat="43.73162" lon="5.96364">
        <ele>359.5</ele>
        <time>2023-06-11T11:19:04Z</time>
      </trkpt>
      <trkpt lat="43.73162" lon="5.96364">
        <ele>359.6</ele>
        <time>2023-06-11T11:19:05Z</time>
      </trkpt>
      <trkpt lat="43.73162" lon="5.96364">
        <ele>359.6</ele>
        <time>2023-06-11T11:19:06Z</time>
      </trkpt>
      <trkpt lat="43.73162" lon="5.96365">
        <ele>359.7</ele>
        <time>2023-06-11T11:19:07Z</time>
      </trkpt>
      <trkpt lat="43.73162" lon="5.96364">
        <ele>359.7</ele>
        <time>2023-06-11T11:19:08Z</time>
      </trkpt>
      <trkpt lat="43.73162" lon="5.96364">
        <ele>359.7</ele>
        <time>2023-06-11T11:19:09Z</time>
      </trkpt>
      <trkpt lat="43.73162" lon="5.96364">
        <ele>359.8</ele>
        <time>2023-06-11T11:19:10Z</time>
      </trkpt>
      <trkpt lat="43.73162" lon="5.96364">
        <ele>359.8</ele>
        <time>2023-06-11T11:19:11Z</time>
      </trkpt>
      <trkpt lat="43.73162" lon="5.96364">
        <ele>359.8</ele>
        <time>2023-06-11T11:19:12Z</time>
      </trkpt>
      <trkpt lat="43.73162" lon="5.96364">
        <ele>359.8</ele>
        <time>2023-06-11T11:19:13Z</time>
      </trkpt>
      <trkpt lat="43.73162" lon="5.96364">
        <ele>359.7</ele>
        <time>2023-06-11T11:19:14Z</time>
      </trkpt>
      <trkpt lat="43.73162" lon="5.96364">
        <ele>359.7</ele>
        <time>2023-06-11T11:19:15Z</time>
      </trkpt>
      <trkpt lat="43.73162" lon="5.96364">
        <ele>359.7</ele>
        <time>2023-06-11T11:19:16Z</time>
      </trkpt>
      <trkpt lat="43.73162" lon="5.96364">
        <ele>359.6</ele>
        <time>2023-06-11T11:19:17Z</time>
      </trkpt>
      <trkpt lat="43.73162" lon="5.96365">
        <ele>359.6</ele>
        <time>2023-06-11T11:19:18Z</time>
      </trkpt>
      <trkpt lat="43.73162" lon="5.96365">
        <ele>359.6</ele>
        <time>2023-06-11T11:19:19Z</time>
      </trkpt>
      <trkpt lat="43.73161" lon="5.96365">
        <ele>359.8</ele>
        <time>2023-06-11T11:19:20Z</time>
      </trkpt>
      <trkpt lat="43.73161" lon="5.96365">
        <ele>359.8</ele>
        <time>2023-06-11T11:19:21Z</time>
      </trkpt>
      <trkpt lat="43.73161" lon="5.96365">
        <ele>359.8</ele>
        <time>2023-06-11T11:19:22Z</time>
      </trkpt>
      <trkpt lat="43.73161" lon="5.96365">
        <ele>359.8</ele>
        <time>2023-06-11T11:19:23Z</time>
      </trkpt>
      <trkpt lat="43.73161" lon="5.96365">
        <ele>359.8</ele>
        <time>2023-06-11T11:19:24Z</time>
      </trkpt>
      <trkpt lat="43.73161" lon="5.96365">
        <ele>359.7</ele>
        <time>2023-06-11T11:19:25Z</time>
      </trkpt>
      <trkpt lat="43.73161" lon="5.96365">
        <ele>359.7</ele>
        <time>2023-06-11T11:19:26Z</time>
      </trkpt>
      <trkpt lat="43.73162" lon="5.96365">
        <ele>359.8</ele>
        <time>2023-06-11T11:19:27Z</time>
      </trkpt>
      <trkpt lat="43.73162" lon="5.96365">
        <ele>359.8</ele>
        <time>2023-06-11T11:19:28Z</time>
      </trkpt>
      <trkpt lat="43.73162" lon="5.96365">
        <ele>359.8</ele>
        <time>2023-06-11T11:19:29Z</time>
      </trkpt>
      <trkpt lat="43.73162" lon="5.96365">
        <ele>359.8</ele>
        <time>2023-06-11T11:19:30Z</time>
      </trkpt>
      <trkpt lat="43.73162" lon="5.96365">
        <ele>359.7</ele>
        <time>2023-06-11T11:19:31Z</time>
      </trkpt>
      <trkpt lat="43.73162" lon="5.96365">
        <ele>359.8</ele>
        <time>2023-06-11T11:19:32Z</time>
      </trkpt>
      <trkpt lat="43.73162" lon="5.96365">
        <ele>359.8</ele>
        <time>2023-06-11T11:19:33Z</time>
      </trkpt>
      <trkpt lat="43.73162" lon="5.96365">
        <ele>359.9</ele>
        <time>2023-06-11T11:19:34Z</time>
      </trkpt>
      <trkpt lat="43.73162" lon="5.96365">
        <ele>359.9</ele>
        <time>2023-06-11T11:19:35Z</time>
      </trkpt>
      <trkpt lat="43.73162" lon="5.96365">
        <ele>360</ele>
        <time>2023-06-11T11:19:36Z</time>
      </trkpt>
      <trkpt lat="43.73162" lon="5.96365">
        <ele>360</ele>
        <time>2023-06-11T11:19:37Z</time>
      </trkpt>
      <trkpt lat="43.73162" lon="5.96365">
        <ele>360</ele>
        <time>2023-06-11T11:19:38Z</time>
      </trkpt>
      <trkpt lat="43.73162" lon="5.96365">
        <ele>360</ele>
        <time>2023-06-11T11:19:39Z</time>
      </trkpt>
      <trkpt lat="43.73162" lon="5.96364">
        <ele>360</ele>
        <time>2023-06-11T11:19:40Z</time>
      </trkpt>
      <trkpt lat="43.73162" lon="5.96364">
        <ele>360</ele>
        <time>2023-06-11T11:19:41Z</time>
      </trkpt>
      <trkpt lat="43.73162" lon="5.96364">
        <ele>360</ele>
        <time>2023-06-11T11:19:42Z</time>
      </trkpt>
      <trkpt lat="43.73162" lon="5.96364">
        <ele>360</ele>
        <time>2023-06-11T11:19:43Z</time>
      </trkpt>
      <trkpt lat="43.73162" lon="5.96364">
        <ele>360</ele>
        <time>2023-06-11T11:19:44Z</time>
      </trkpt>
      <trkpt lat="43.73161" lon="5.96365">
        <ele>360</ele>
        <time>2023-06-11T11:19:45Z</time>
      </trkpt>
      <trkpt lat="43.73161" lon="5.96365">
        <ele>360</ele>
        <time>2023-06-11T11:19:46Z</time>
      </trkpt>
      <trkpt lat="43.73161" lon="5.96364">
        <ele>359.9</ele>
        <time>2023-06-11T11:19:47Z</time>
      </trkpt>
      <trkpt lat="43.73161" lon="5.96364">
        <ele>359.9</ele>
        <time>2023-06-11T11:19:48Z</time>
      </trkpt>
      <trkpt lat="43.73162" lon="5.96364">
        <ele>359.9</ele>
        <time>2023-06-11T11:19:49Z</time>
      </trkpt>
      <trkpt lat="43.73162" lon="5.96364">
        <ele>359.9</ele>
        <time>2023-06-11T11:19:50Z</time>
      </trkpt>
      <trkpt lat="43.73162" lon="5.96364">
        <ele>359.8</ele>
        <time>2023-06-11T11:19:51Z</time>
      </trkpt>
      <trkpt lat="43.73162" lon="5.96364">
        <ele>359.8</ele>
        <time>2023-06-11T11:19:52Z</time>
      </trkpt>
      <trkpt lat="43.73162" lon="5.96364">
        <ele>359.7</ele>
        <time>2023-06-11T11:19:53Z</time>
      </trkpt>
      <trkpt lat="43.73162" lon="5.96364">
        <ele>359.7</ele>
        <time>2023-06-11T11:19:54Z</time>
      </trkpt>
      <trkpt lat="43.73162" lon="5.96364">
        <ele>359.8</ele>
        <time>2023-06-11T11:19:55Z</time>
      </trkpt>
      <trkpt lat="43.73162" lon="5.96364">
        <ele>359.9</ele>
        <time>2023-06-11T11:19:56Z</time>
      </trkpt>
      <trkpt lat="43.73161" lon="5.96364">
        <ele>359.9</ele>
        <time>2023-06-11T11:19:57Z</time>
      </trkpt>
      <trkpt lat="43.73162" lon="5.96364">
        <ele>359.9</ele>
        <time>2023-06-11T11:19:58Z</time>
      </trkpt>
      <trkpt lat="43.73162" lon="5.96364">
        <ele>360</ele>
        <time>2023-06-11T11:19:59Z</time>
      </trkpt>
      <trkpt lat="43.73162" lon="5.96364">
        <ele>360</ele>
        <time>2023-06-11T11:20:00Z</time>
      </trkpt>
      <trkpt lat="43.73162" lon="5.96364">
        <ele>360</ele>
        <time>2023-06-11T11:20:01Z</time>
      </trkpt>
      <trkpt lat="43.73162" lon="5.96364">
        <ele>360</ele>
        <time>2023-06-11T11:20:02Z</time>
      </trkpt>
      <trkpt lat="43.73162" lon="5.96363">
        <ele>360</ele>
        <time>2023-06-11T11:20:03Z</time>
      </trkpt>
      <trkpt lat="43.73162" lon="5.96363">
        <ele>360</ele>
        <time>2023-06-11T11:20:04Z</time>
      </trkpt>
      <trkpt lat="43.73162" lon="5.96363">
        <ele>359.9</ele>
        <time>2023-06-11T11:20:05Z</time>
      </trkpt>
      <trkpt lat="43.73162" lon="5.96363">
        <ele>359.9</ele>
        <time>2023-06-11T11:20:06Z</time>
      </trkpt>
      <trkpt lat="43.73162" lon="5.96363">
        <ele>359.9</ele>
        <time>2023-06-11T11:20:07Z</time>
      </trkpt>
      <trkpt lat="43.73162" lon="5.96363">
        <ele>359.9</ele>
        <time>2023-06-11T11:20:08Z</time>
      </trkpt>
      <trkpt lat="43.73162" lon="5.96363">
        <ele>359.9</ele>
        <time>2023-06-11T11:20:09Z</time>
      </trkpt>
      <trkpt lat="43.73162" lon="5.96363">
        <ele>359.9</ele>
        <time>2023-06-11T11:20:10Z</time>
      </trkpt>
      <trkpt lat="43.73162" lon="5.96363">
        <ele>359.9</ele>
        <time>2023-06-11T11:20:11Z</time>
      </trkpt>
      <trkpt lat="43.73162" lon="5.96363">
        <ele>359.8</ele>
        <time>2023-06-11T11:20:12Z</time>
      </trkpt>
      <trkpt lat="43.73162" lon="5.96363">
        <ele>359.8</ele>
        <time>2023-06-11T11:20:13Z</time>
      </trkpt>
      <trkpt lat="43.73162" lon="5.96363">
        <ele>359.8</ele>
        <time>2023-06-11T11:20:14Z</time>
      </trkpt>
      <trkpt lat="43.73162" lon="5.96363">
        <ele>359.8</ele>
        <time>2023-06-11T11:20:15Z</time>
      </trkpt>
      <trkpt lat="43.73162" lon="5.96363">
        <ele>359.8</ele>
        <time>2023-06-11T11:20:16Z</time>
      </trkpt>
      <trkpt lat="43.73162" lon="5.96363">
        <ele>359.9</ele>
        <time>2023-06-11T11:20:17Z</time>
      </trkpt>
      <trkpt lat="43.73162" lon="5.96363">
        <ele>359.9</ele>
        <time>2023-06-11T11:20:18Z</time>
      </trkpt>
      <trkpt lat="43.73162" lon="5.96363">
        <ele>360</ele>
        <time>2023-06-11T11:20:19Z</time>
      </trkpt>
      <trkpt lat="43.73162" lon="5.96363">
        <ele>360</ele>
        <time>2023-06-11T11:20:20Z</time>
      </trkpt>
      <trkpt lat="43.73162" lon="5.96363">
        <ele>360</ele>
        <time>2023-06-11T11:20:21Z</time>
      </trkpt>
      <trkpt lat="43.73162" lon="5.96363">
        <ele>360.1</ele>
        <time>2023-06-11T11:20:22Z</time>
      </trkpt>
      <trkpt lat="43.73162" lon="5.96363">
        <ele>360.1</ele>
        <time>2023-06-11T11:20:23Z</time>
      </trkpt>
      <trkpt lat="43.73162" lon="5.96363">
        <ele>360.1</ele>
        <time>2023-06-11T11:20:24Z</time>
      </trkpt>
      <trkpt lat="43.73162" lon="5.96363">
        <ele>360.1</ele>
        <time>2023-06-11T11:20:25Z</time>
      </trkpt>
      <trkpt lat="43.73162" lon="5.96363">
        <ele>360.1</ele>
        <time>2023-06-11T11:20:26Z</time>
      </trkpt>
      <trkpt lat="43.73162" lon="5.96363">
        <ele>360.1</ele>
        <time>2023-06-11T11:20:27Z</time>
      </trkpt>
      <trkpt lat="43.73162" lon="5.96363">
        <ele>360.1</ele>
        <time>2023-06-11T11:20:28Z</time>
      </trkpt>
      <trkpt lat="43.73162" lon="5.96363">
        <ele>360</ele>
        <time>2023-06-11T11:20:29Z</time>
      </trkpt>
      <trkpt lat="43.73162" lon="5.96363">
        <ele>359.9</ele>
        <time>2023-06-11T11:20:30Z</time>
      </trkpt>
      <trkpt lat="43.73162" lon="5.96363">
        <ele>359.8</ele>
        <time>2023-06-11T11:20:31Z</time>
      </trkpt>
      <trkpt lat="43.73162" lon="5.96363">
        <ele>359.8</ele>
        <time>2023-06-11T11:20:32Z</time>
      </trkpt>
      <trkpt lat="43.73163" lon="5.96363">
        <ele>359.8</ele>
        <time>2023-06-11T11:20:33Z</time>
      </trkpt>
      <trkpt lat="43.73163" lon="5.96363">
        <ele>359.8</ele>
        <time>2023-06-11T11:20:34Z</time>
      </trkpt>
      <trkpt lat="43.73163" lon="5.96363">
        <ele>359.7</ele>
        <time>2023-06-11T11:20:35Z</time>
      </trkpt>
      <trkpt lat="43.73163" lon="5.96363">
        <ele>359.7</ele>
        <time>2023-06-11T11:20:36Z</time>
      </trkpt>
      <trkpt lat="43.73163" lon="5.96362">
        <ele>359.7</ele>
        <time>2023-06-11T11:20:37Z</time>
      </trkpt>
      <trkpt lat="43.73163" lon="5.96362">
        <ele>359.8</ele>
        <time>2023-06-11T11:20:38Z</time>
      </trkpt>
      <trkpt lat="43.73163" lon="5.96362">
        <ele>359.8</ele>
        <time>2023-06-11T11:20:39Z</time>
      </trkpt>
      <trkpt lat="43.73163" lon="5.96362">
        <ele>359.8</ele>
        <time>2023-06-11T11:20:40Z</time>
      </trkpt>
      <trkpt lat="43.73163" lon="5.96362">
        <ele>359.8</ele>
        <time>2023-06-11T11:20:41Z</time>
      </trkpt>
      <trkpt lat="43.73163" lon="5.96362">
        <ele>359.8</ele>
        <time>2023-06-11T11:20:42Z</time>
      </trkpt>
      <trkpt lat="43.73163" lon="5.96362">
        <ele>359.9</ele>
        <time>2023-06-11T11:20:43Z</time>
      </trkpt>
      <trkpt lat="43.73163" lon="5.96362">
        <ele>359.9</ele>
        <time>2023-06-11T11:20:44Z</time>
      </trkpt>
      <trkpt lat="43.73163" lon="5.96362">
        <ele>359.9</ele>
        <time>2023-06-11T11:20:45Z</time>
      </trkpt>
      <trkpt lat="43.73163" lon="5.96362">
        <ele>359.8</ele>
        <time>2023-06-11T11:20:46Z</time>
      </trkpt>
      <trkpt lat="43.73163" lon="5.96362">
        <ele>359.8</ele>
        <time>2023-06-11T11:20:47Z</time>
      </trkpt>
      <trkpt lat="43.73163" lon="5.96362">
        <ele>359.7</ele>
        <time>2023-06-11T11:20:48Z</time>
      </trkpt>
      <trkpt lat="43.73163" lon="5.96362">
        <ele>359.7</ele>
        <time>2023-06-11T11:20:49Z</time>
      </trkpt>
      <trkpt lat="43.73163" lon="5.96362">
        <ele>359.7</ele>
        <time>2023-06-11T11:20:50Z</time>
      </trkpt>
      <trkpt lat="43.73163" lon="5.96361">
        <ele>359.7</ele>
        <time>2023-06-11T11:20:51Z</time>
      </trkpt>
      <trkpt lat="43.73163" lon="5.96361">
        <ele>359.7</ele>
        <time>2023-06-11T11:20:52Z</time>
      </trkpt>
      <trkpt lat="43.73162" lon="5.96361">
        <ele>359.7</ele>
        <time>2023-06-11T11:20:53Z</time>
      </trkpt>
      <trkpt lat="43.73162" lon="5.96361">
        <ele>359.7</ele>
        <time>2023-06-11T11:20:54Z</time>
      </trkpt>
      <trkpt lat="43.73162" lon="5.96361">
        <ele>359.7</ele>
        <time>2023-06-11T11:20:55Z</time>
      </trkpt>
      <trkpt lat="43.73162" lon="5.96361">
        <ele>359.8</ele>
        <time>2023-06-11T11:20:56Z</time>
      </trkpt>
      <trkpt lat="43.73162" lon="5.96362">
        <ele>359.8</ele>
        <time>2023-06-11T11:20:57Z</time>
      </trkpt>
      <trkpt lat="43.73162" lon="5.96362">
        <ele>359.8</ele>
        <time>2023-06-11T11:20:58Z</time>
      </trkpt>
      <trkpt lat="43.73162" lon="5.96362">
        <ele>359.9</ele>
        <time>2023-06-11T11:20:59Z</time>
      </trkpt>
      <trkpt lat="43.73162" lon="5.96362">
        <ele>359.9</ele>
        <time>2023-06-11T11:21:00Z</time>
      </trkpt>
      <trkpt lat="43.73162" lon="5.96362">
        <ele>359.9</ele>
        <time>2023-06-11T11:21:01Z</time>
      </trkpt>
      <trkpt lat="43.73162" lon="5.96362">
        <ele>359.9</ele>
        <time>2023-06-11T11:21:02Z</time>
      </trkpt>
      <trkpt lat="43.73162" lon="5.96362">
        <ele>359.8</ele>
        <time>2023-06-11T11:21:03Z</time>
      </trkpt>
      <trkpt lat="43.73162" lon="5.96362">
        <ele>359.8</ele>
        <time>2023-06-11T11:21:04Z</time>
      </trkpt>
      <trkpt lat="43.73162" lon="5.96362">
        <ele>359.8</ele>
        <time>2023-06-11T11:21:05Z</time>
      </trkpt>
      <trkpt lat="43.73162" lon="5.96362">
        <ele>359.9</ele>
        <time>2023-06-11T11:21:06Z</time>
      </trkpt>
      <trkpt lat="43.73162" lon="5.96362">
        <ele>360</ele>
        <time>2023-06-11T11:21:07Z</time>
      </trkpt>
      <trkpt lat="43.73162" lon="5.96362">
        <ele>360</ele>
        <time>2023-06-11T11:21:08Z</time>
      </trkpt>
      <trkpt lat="43.73162" lon="5.96362">
        <ele>360</ele>
        <time>2023-06-11T11:21:09Z</time>
      </trkpt>
      <trkpt lat="43.73162" lon="5.96362">
        <ele>360</ele>
        <time>2023-06-11T11:21:10Z</time>
      </trkpt>
      <trkpt lat="43.73162" lon="5.96362">
        <ele>360</ele>
        <time>2023-06-11T11:21:11Z</time>
      </trkpt>
      <trkpt lat="43.73162" lon="5.96362">
        <ele>360</ele>
        <time>2023-06-11T11:21:12Z</time>
      </trkpt>
      <trkpt lat="43.73162" lon="5.96362">
        <ele>359.9</ele>
        <time>2023-06-11T11:21:13Z</time>
      </trkpt>
      <trkpt lat="43.73162" lon="5.96362">
        <ele>359.9</ele>
        <time>2023-06-11T11:21:14Z</time>
      </trkpt>
      <trkpt lat="43.73162" lon="5.96362">
        <ele>359.9</ele>
        <time>2023-06-11T11:21:15Z</time>
      </trkpt>
      <trkpt lat="43.73162" lon="5.96362">
        <ele>359.9</ele>
        <time>2023-06-11T11:21:16Z</time>
      </trkpt>
      <trkpt lat="43.73162" lon="5.96362">
        <ele>359.8</ele>
        <time>2023-06-11T11:21:17Z</time>
      </trkpt>
      <trkpt lat="43.73162" lon="5.96362">
        <ele>359.8</ele>
        <time>2023-06-11T11:21:18Z</time>
      </trkpt>
      <trkpt lat="43.73162" lon="5.96362">
        <ele>359.8</ele>
        <time>2023-06-11T11:21:19Z</time>
      </trkpt>
      <trkpt lat="43.73162" lon="5.96362">
        <ele>359.8</ele>
        <time>2023-06-11T11:21:20Z</time>
      </trkpt>
      <trkpt lat="43.73162" lon="5.96362">
        <ele>359.8</ele>
        <time>2023-06-11T11:21:21Z</time>
      </trkpt>
      <trkpt lat="43.73162" lon="5.96362">
        <ele>359.8</ele>
        <time>2023-06-11T11:21:22Z</time>
      </trkpt>
      <trkpt lat="43.73162" lon="5.96362">
        <ele>359.8</ele>
        <time>2023-06-11T11:21:23Z</time>
      </trkpt>
      <trkpt lat="43.73162" lon="5.96362">
        <ele>359.8</ele>
        <time>2023-06-11T11:21:24Z</time>
      </trkpt>
      <trkpt lat="43.73162" lon="5.96362">
        <ele>359.8</ele>
        <time>2023-06-11T11:21:25Z</time>
      </trkpt>
      <trkpt lat="43.73162" lon="5.96362">
        <ele>359.8</ele>
        <time>2023-06-11T11:21:26Z</time>
      </trkpt>
      <trkpt lat="43.73162" lon="5.96362">
        <ele>359.8</ele>
        <time>2023-06-11T11:21:27Z</time>
      </trkpt>
      <trkpt lat="43.73162" lon="5.96362">
        <ele>359.8</ele>
        <time>2023-06-11T11:21:28Z</time>
      </trkpt>
      <trkpt lat="43.73162" lon="5.96362">
        <ele>359.8</ele>
        <time>2023-06-11T11:21:29Z</time>
      </trkpt>
      <trkpt lat="43.73162" lon="5.96362">
        <ele>359.7</ele>
        <time>2023-06-11T11:21:30Z</time>
      </trkpt>
      <trkpt lat="43.73162" lon="5.96362">
        <ele>359.7</ele>
        <time>2023-06-11T11:21:31Z</time>
      </trkpt>
      <trkpt lat="43.73162" lon="5.96362">
        <ele>359.8</ele>
        <time>2023-06-11T11:21:32Z</time>
      </trkpt>
      <trkpt lat="43.73162" lon="5.96362">
        <ele>359.8</ele>
        <time>2023-06-11T11:21:33Z</time>
      </trkpt>
      <trkpt lat="43.73162" lon="5.96362">
        <ele>359.8</ele>
        <time>2023-06-11T11:21:34Z</time>
      </trkpt>
      <trkpt lat="43.73162" lon="5.96362">
        <ele>359.8</ele>
        <time>2023-06-11T11:21:35Z</time>
      </trkpt>
      <trkpt lat="43.73162" lon="5.96362">
        <ele>359.8</ele>
        <time>2023-06-11T11:21:36Z</time>
      </trkpt>
      <trkpt lat="43.73162" lon="5.96362">
        <ele>359.8</ele>
        <time>2023-06-11T11:21:37Z</time>
      </trkpt>
      <trkpt lat="43.73162" lon="5.96362">
        <ele>359.8</ele>
        <time>2023-06-11T11:21:38Z</time>
      </trkpt>
      <trkpt lat="43.73162" lon="5.96362">
        <ele>359.8</ele>
        <time>2023-06-11T11:21:39Z</time>
      </trkpt>
      <trkpt lat="43.73162" lon="5.96362">
        <ele>359.8</ele>
        <time>2023-06-11T11:21:40Z</time>
      </trkpt>
      <trkpt lat="43.73162" lon="5.96362">
        <ele>359.8</ele>
        <time>2023-06-11T11:21:41Z</time>
      </trkpt>
      <trkpt lat="43.73162" lon="5.96363">
        <ele>359.8</ele>
        <time>2023-06-11T11:21:42Z</time>
      </trkpt>
      <trkpt lat="43.73162" lon="5.96363">
        <ele>359.8</ele>
        <time>2023-06-11T11:21:43Z</time>
      </trkpt>
      <trkpt lat="43.73162" lon="5.96363">
        <ele>359.8</ele>
        <time>2023-06-11T11:21:44Z</time>
      </trkpt>
      <trkpt lat="43.73162" lon="5.96363">
        <ele>359.8</ele>
        <time>2023-06-11T11:21:45Z</time>
      </trkpt>
      <trkpt lat="43.73162" lon="5.96363">
        <ele>359.7</ele>
        <time>2023-06-11T11:21:46Z</time>
      </trkpt>
      <trkpt lat="43.73162" lon="5.96363">
        <ele>359.7</ele>
        <time>2023-06-11T11:21:47Z</time>
      </trkpt>
      <trkpt lat="43.73162" lon="5.96363">
        <ele>359.7</ele>
        <time>2023-06-11T11:21:48Z</time>
      </trkpt>
      <trkpt lat="43.73162" lon="5.96363">
        <ele>359.7</ele>
        <time>2023-06-11T11:21:49Z</time>
      </trkpt>
      <trkpt lat="43.73162" lon="5.96363">
        <ele>359.7</ele>
        <time>2023-06-11T11:21:50Z</time>
      </trkpt>
      <trkpt lat="43.73162" lon="5.96363">
        <ele>359.7</ele>
        <time>2023-06-11T11:21:51Z</time>
      </trkpt>
      <trkpt lat="43.73162" lon="5.96363">
        <ele>359.7</ele>
        <time>2023-06-11T11:21:52Z</time>
      </trkpt>
      <trkpt lat="43.73162" lon="5.96363">
        <ele>359.8</ele>
        <time>2023-06-11T11:21:53Z</time>
      </trkpt>
      <trkpt lat="43.73162" lon="5.96363">
        <ele>359.8</ele>
        <time>2023-06-11T11:21:54Z</time>
      </trkpt>
      <trkpt lat="43.73162" lon="5.96363">
        <ele>359.8</ele>
        <time>2023-06-11T11:21:55Z</time>
      </trkpt>
      <trkpt lat="43.73162" lon="5.96363">
        <ele>359.8</ele>
        <time>2023-06-11T11:21:56Z</time>
      </trkpt>
      <trkpt lat="43.73162" lon="5.96363">
        <ele>359.8</ele>
        <time>2023-06-11T11:21:57Z</time>
      </trkpt>
      <trkpt lat="43.73162" lon="5.96363">
        <ele>359.8</ele>
        <time>2023-06-11T11:21:58Z</time>
      </trkpt>
      <trkpt lat="43.73162" lon="5.96363">
        <ele>359.7</ele>
        <time>2023-06-11T11:21:59Z</time>
      </trkpt>
      <trkpt lat="43.73162" lon="5.96363">
        <ele>359.6</ele>
        <time>2023-06-11T11:22:00Z</time>
      </trkpt>
      <trkpt lat="43.73162" lon="5.96364">
        <ele>359.6</ele>
        <time>2023-06-11T11:22:01Z</time>
      </trkpt>
      <trkpt lat="43.73162" lon="5.96363">
        <ele>359.6</ele>
        <time>2023-06-11T11:22:02Z</time>
      </trkpt>
      <trkpt lat="43.73162" lon="5.96363">
        <ele>359.5</ele>
        <time>2023-06-11T11:22:03Z</time>
      </trkpt>
      <trkpt lat="43.73162" lon="5.96363">
        <ele>359.5</ele>
        <time>2023-06-11T11:22:04Z</time>
      </trkpt>
      <trkpt lat="43.73162" lon="5.96363">
        <ele>359.4</ele>
        <time>2023-06-11T11:22:05Z</time>
      </trkpt>
      <trkpt lat="43.73162" lon="5.96363">
        <ele>359.4</ele>
        <time>2023-06-11T11:22:06Z</time>
      </trkpt>
      <trkpt lat="43.73162" lon="5.96363">
        <ele>359.4</ele>
        <time>2023-06-11T11:22:07Z</time>
      </trkpt>
      <trkpt lat="43.73162" lon="5.96363">
        <ele>359.4</ele>
        <time>2023-06-11T11:22:08Z</time>
      </trkpt>
      <trkpt lat="43.73162" lon="5.96363">
        <ele>359.4</ele>
        <time>2023-06-11T11:22:09Z</time>
      </trkpt>
      <trkpt lat="43.73162" lon="5.96363">
        <ele>359.4</ele>
        <time>2023-06-11T11:22:10Z</time>
      </trkpt>
      <trkpt lat="43.73162" lon="5.96363">
        <ele>359.4</ele>
        <time>2023-06-11T11:22:11Z</time>
      </trkpt>
      <trkpt lat="43.73162" lon="5.96363">
        <ele>359.4</ele>
        <time>2023-06-11T11:22:12Z</time>
      </trkpt>
      <trkpt lat="43.73162" lon="5.96363">
        <ele>359.6</ele>
        <time>2023-06-11T11:22:13Z</time>
      </trkpt>
      <trkpt lat="43.73162" lon="5.96363">
        <ele>359.6</ele>
        <time>2023-06-11T11:22:14Z</time>
      </trkpt>
      <trkpt lat="43.73162" lon="5.96364">
        <ele>359.6</ele>
        <time>2023-06-11T11:22:15Z</time>
      </trkpt>
      <trkpt lat="43.73162" lon="5.96364">
        <ele>359.6</ele>
        <time>2023-06-11T11:22:16Z</time>
      </trkpt>
      <trkpt lat="43.73162" lon="5.96364">
        <ele>359.6</ele>
        <time>2023-06-11T11:22:17Z</time>
      </trkpt>
      <trkpt lat="43.73162" lon="5.96364">
        <ele>359.5</ele>
        <time>2023-06-11T11:22:18Z</time>
      </trkpt>
      <trkpt lat="43.73162" lon="5.96364">
        <ele>359.5</ele>
        <time>2023-06-11T11:22:19Z</time>
      </trkpt>
      <trkpt lat="43.73162" lon="5.96364">
        <ele>359.5</ele>
        <time>2023-06-11T11:22:20Z</time>
      </trkpt>
      <trkpt lat="43.73162" lon="5.96364">
        <ele>359.4</ele>
        <time>2023-06-11T11:22:21Z</time>
      </trkpt>
      <trkpt lat="43.73162" lon="5.96364">
        <ele>359.3</ele>
        <time>2023-06-11T11:22:22Z</time>
      </trkpt>
      <trkpt lat="43.73162" lon="5.96364">
        <ele>359.3</ele>
        <time>2023-06-11T11:22:23Z</time>
      </trkpt>
      <trkpt lat="43.73162" lon="5.96364">
        <ele>359.4</ele>
        <time>2023-06-11T11:22:24Z</time>
      </trkpt>
      <trkpt lat="43.73162" lon="5.96364">
        <ele>359.5</ele>
        <time>2023-06-11T11:22:25Z</time>
      </trkpt>
      <trkpt lat="43.73162" lon="5.96364">
        <ele>359.6</ele>
        <time>2023-06-11T11:22:26Z</time>
      </trkpt>
      <trkpt lat="43.73162" lon="5.96364">
        <ele>359.7</ele>
        <time>2023-06-11T11:22:27Z</time>
      </trkpt>
      <trkpt lat="43.73162" lon="5.96364">
        <ele>359.6</ele>
        <time>2023-06-11T11:22:28Z</time>
      </trkpt>
      <trkpt lat="43.73162" lon="5.96364">
        <ele>359.7</ele>
        <time>2023-06-11T11:22:29Z</time>
      </trkpt>
      <trkpt lat="43.73162" lon="5.96364">
        <ele>359.7</ele>
        <time>2023-06-11T11:22:30Z</time>
      </trkpt>
      <trkpt lat="43.73162" lon="5.96364">
        <ele>359.8</ele>
        <time>2023-06-11T11:22:31Z</time>
      </trkpt>
      <trkpt lat="43.73162" lon="5.96364">
        <ele>359.7</ele>
        <time>2023-06-11T11:22:32Z</time>
      </trkpt>
      <trkpt lat="43.73162" lon="5.96364">
        <ele>359.7</ele>
        <time>2023-06-11T11:22:33Z</time>
      </trkpt>
      <trkpt lat="43.73162" lon="5.96364">
        <ele>359.7</ele>
        <time>2023-06-11T11:22:34Z</time>
      </trkpt>
      <trkpt lat="43.73162" lon="5.96364">
        <ele>359.7</ele>
        <time>2023-06-11T11:22:35Z</time>
      </trkpt>
      <trkpt lat="43.73162" lon="5.96364">
        <ele>359.6</ele>
        <time>2023-06-11T11:22:36Z</time>
      </trkpt>
      <trkpt lat="43.73162" lon="5.96364">
        <ele>359.6</ele>
        <time>2023-06-11T11:22:37Z</time>
      </trkpt>
      <trkpt lat="43.73162" lon="5.96364">
        <ele>359.7</ele>
        <time>2023-06-11T11:22:38Z</time>
      </trkpt>
      <trkpt lat="43.73162" lon="5.96364">
        <ele>359.8</ele>
        <time>2023-06-11T11:22:39Z</time>
      </trkpt>
      <trkpt lat="43.73162" lon="5.96364">
        <ele>359.7</ele>
        <time>2023-06-11T11:22:40Z</time>
      </trkpt>
      <trkpt lat="43.73162" lon="5.96364">
        <ele>359.7</ele>
        <time>2023-06-11T11:22:41Z</time>
      </trkpt>
      <trkpt lat="43.73162" lon="5.96364">
        <ele>359.7</ele>
        <time>2023-06-11T11:22:42Z</time>
      </trkpt>
      <trkpt lat="43.73162" lon="5.96364">
        <ele>359.6</ele>
        <time>2023-06-11T11:22:43Z</time>
      </trkpt>
      <trkpt lat="43.73162" lon="5.96364">
        <ele>359.6</ele>
        <time>2023-06-11T11:22:44Z</time>
      </trkpt>
      <trkpt lat="43.73162" lon="5.96364">
        <ele>359.6</ele>
        <time>2023-06-11T11:22:45Z</time>
      </trkpt>
      <trkpt lat="43.73162" lon="5.96364">
        <ele>359.5</ele>
        <time>2023-06-11T11:22:46Z</time>
      </trkpt>
      <trkpt lat="43.73162" lon="5.96364">
        <ele>359.5</ele>
        <time>2023-06-11T11:22:47Z</time>
      </trkpt>
      <trkpt lat="43.73162" lon="5.96364">
        <ele>359.5</ele>
        <time>2023-06-11T11:22:48Z</time>
      </trkpt>
      <trkpt lat="43.73162" lon="5.96364">
        <ele>359.5</ele>
        <time>2023-06-11T11:22:49Z</time>
      </trkpt>
      <trkpt lat="43.73162" lon="5.96364">
        <ele>359.4</ele>
        <time>2023-06-11T11:22:50Z</time>
      </trkpt>
      <trkpt lat="43.73162" lon="5.96364">
        <ele>359.4</ele>
        <time>2023-06-11T11:22:51Z</time>
      </trkpt>
      <trkpt lat="43.73162" lon="5.96364">
        <ele>359.5</ele>
        <time>2023-06-11T11:22:52Z</time>
      </trkpt>
      <trkpt lat="43.73162" lon="5.96364">
        <ele>359.5</ele>
        <time>2023-06-11T11:22:53Z</time>
      </trkpt>
      <trkpt lat="43.73162" lon="5.96364">
        <ele>359.6</ele>
        <time>2023-06-11T11:22:54Z</time>
      </trkpt>
      <trkpt lat="43.73162" lon="5.96364">
        <ele>359.6</ele>
        <time>2023-06-11T11:22:55Z</time>
      </trkpt>
      <trkpt lat="43.73163" lon="5.96364">
        <ele>359.7</ele>
        <time>2023-06-11T11:22:56Z</time>
      </trkpt>
      <trkpt lat="43.73163" lon="5.96364">
        <ele>359.7</ele>
        <time>2023-06-11T11:22:57Z</time>
      </trkpt>
      <trkpt lat="43.73163" lon="5.96364">
        <ele>359.6</ele>
        <time>2023-06-11T11:22:58Z</time>
      </trkpt>
      <trkpt lat="43.73163" lon="5.96364">
        <ele>359.6</ele>
        <time>2023-06-11T11:22:59Z</time>
      </trkpt>
      <trkpt lat="43.73162" lon="5.96364">
        <ele>359.6</ele>
        <time>2023-06-11T11:23:00Z</time>
      </trkpt>
      <trkpt lat="43.73162" lon="5.96364">
        <ele>359.7</ele>
        <time>2023-06-11T11:23:01Z</time>
      </trkpt>
      <trkpt lat="43.73162" lon="5.96364">
        <ele>359.7</ele>
        <time>2023-06-11T11:23:02Z</time>
      </trkpt>
      <trkpt lat="43.73162" lon="5.96364">
        <ele>359.7</ele>
        <time>2023-06-11T11:23:03Z</time>
      </trkpt>
      <trkpt lat="43.73162" lon="5.96365">
        <ele>359.8</ele>
        <time>2023-06-11T11:23:04Z</time>
      </trkpt>
      <trkpt lat="43.73162" lon="5.96365">
        <ele>359.7</ele>
        <time>2023-06-11T11:23:05Z</time>
      </trkpt>
      <trkpt lat="43.73162" lon="5.96365">
        <ele>359.6</ele>
        <time>2023-06-11T11:23:06Z</time>
      </trkpt>
      <trkpt lat="43.73162" lon="5.96365">
        <ele>359.6</ele>
        <time>2023-06-11T11:23:07Z</time>
      </trkpt>
      <trkpt lat="43.73162" lon="5.96365">
        <ele>359.7</ele>
        <time>2023-06-11T11:23:08Z</time>
      </trkpt>
      <trkpt lat="43.73162" lon="5.96365">
        <ele>359.7</ele>
        <time>2023-06-11T11:23:09Z</time>
      </trkpt>
      <trkpt lat="43.73162" lon="5.96365">
        <ele>359.7</ele>
        <time>2023-06-11T11:23:10Z</time>
      </trkpt>
      <trkpt lat="43.73162" lon="5.96365">
        <ele>359.7</ele>
        <time>2023-06-11T11:23:11Z</time>
      </trkpt>
      <trkpt lat="43.73162" lon="5.96365">
        <ele>359.7</ele>
        <time>2023-06-11T11:23:12Z</time>
      </trkpt>
      <trkpt lat="43.73162" lon="5.96365">
        <ele>359.7</ele>
        <time>2023-06-11T11:23:13Z</time>
      </trkpt>
      <trkpt lat="43.73162" lon="5.96365">
        <ele>359.7</ele>
        <time>2023-06-11T11:23:14Z</time>
      </trkpt>
      <trkpt lat="43.73162" lon="5.96365">
        <ele>359.7</ele>
        <time>2023-06-11T11:23:15Z</time>
      </trkpt>
      <trkpt lat="43.73162" lon="5.96365">
        <ele>359.6</ele>
        <time>2023-06-11T11:23:16Z</time>
      </trkpt>
      <trkpt lat="43.73162" lon="5.96365">
        <ele>359.6</ele>
        <time>2023-06-11T11:23:17Z</time>
      </trkpt>
      <trkpt lat="43.73162" lon="5.96365">
        <ele>359.6</ele>
        <time>2023-06-11T11:23:18Z</time>
      </trkpt>
      <trkpt lat="43.73162" lon="5.96365">
        <ele>359.6</ele>
        <time>2023-06-11T11:23:19Z</time>
      </trkpt>
      <trkpt lat="43.73162" lon="5.96365">
        <ele>359.6</ele>
        <time>2023-06-11T11:23:20Z</time>
      </trkpt>
      <trkpt lat="43.73162" lon="5.96365">
        <ele>359.6</ele>
        <time>2023-06-11T11:23:21Z</time>
      </trkpt>
      <trkpt lat="43.73162" lon="5.96365">
        <ele>359.6</ele>
        <time>2023-06-11T11:23:22Z</time>
      </trkpt>
      <trkpt lat="43.73162" lon="5.96365">
        <ele>359.6</ele>
        <time>2023-06-11T11:23:23Z</time>
      </trkpt>
      <trkpt lat="43.73162" lon="5.96365">
        <ele>359.6</ele>
        <time>2023-06-11T11:23:24Z</time>
      </trkpt>
      <trkpt lat="43.73162" lon="5.96365">
        <ele>359.6</ele>
        <time>2023-06-11T11:23:25Z</time>
      </trkpt>
      <trkpt lat="43.73162" lon="5.96365">
        <ele>359.6</ele>
        <time>2023-06-11T11:23:26Z</time>
      </trkpt>
      <trkpt lat="43.73162" lon="5.96365">
        <ele>359.6</ele>
        <time>2023-06-11T11:23:27Z</time>
      </trkpt>
      <trkpt lat="43.73162" lon="5.96365">
        <ele>359.6</ele>
        <time>2023-06-11T11:23:28Z</time>
      </trkpt>
      <trkpt lat="43.73162" lon="5.96365">
        <ele>359.6</ele>
        <time>2023-06-11T11:23:29Z</time>
      </trkpt>
      <trkpt lat="43.73162" lon="5.96365">
        <ele>359.7</ele>
        <time>2023-06-11T11:23:30Z</time>
      </trkpt>
      <trkpt lat="43.73162" lon="5.96365">
        <ele>359.7</ele>
        <time>2023-06-11T11:23:31Z</time>
      </trkpt>
      <trkpt lat="43.73162" lon="5.96365">
        <ele>359.7</ele>
        <time>2023-06-11T11:23:32Z</time>
      </trkpt>
      <trkpt lat="43.73162" lon="5.96365">
        <ele>359.7</ele>
        <time>2023-06-11T11:23:33Z</time>
      </trkpt>
      <trkpt lat="43.73162" lon="5.96365">
        <ele>359.8</ele>
        <time>2023-06-11T11:23:34Z</time>
      </trkpt>
      <trkpt lat="43.73162" lon="5.96365">
        <ele>359.8</ele>
        <time>2023-06-11T11:23:35Z</time>
      </trkpt>
      <trkpt lat="43.73162" lon="5.96365">
        <ele>359.8</ele>
        <time>2023-06-11T11:23:36Z</time>
      </trkpt>
      <trkpt lat="43.73162" lon="5.96365">
        <ele>359.8</ele>
        <time>2023-06-11T11:23:37Z</time>
      </trkpt>
      <trkpt lat="43.73162" lon="5.96365">
        <ele>359.8</ele>
        <time>2023-06-11T11:23:38Z</time>
      </trkpt>
      <trkpt lat="43.73162" lon="5.96365">
        <ele>359.8</ele>
        <time>2023-06-11T11:23:39Z</time>
      </trkpt>
      <trkpt lat="43.73162" lon="5.96365">
        <ele>359.8</ele>
        <time>2023-06-11T11:23:40Z</time>
      </trkpt>
      <trkpt lat="43.73162" lon="5.96365">
        <ele>359.7</ele>
        <time>2023-06-11T11:23:41Z</time>
      </trkpt>
      <trkpt lat="43.73162" lon="5.96365">
        <ele>359.7</ele>
        <time>2023-06-11T11:23:42Z</time>
      </trkpt>
      <trkpt lat="43.73162" lon="5.96365">
        <ele>359.7</ele>
        <time>2023-06-11T11:23:43Z</time>
      </trkpt>
      <trkpt lat="43.73162" lon="5.96365">
        <ele>359.7</ele>
        <time>2023-06-11T11:23:44Z</time>
      </trkpt>
      <trkpt lat="43.73162" lon="5.96364">
        <ele>359.7</ele>
        <time>2023-06-11T11:23:45Z</time>
      </trkpt>
      <trkpt lat="43.73162" lon="5.96364">
        <ele>359.6</ele>
        <time>2023-06-11T11:23:46Z</time>
      </trkpt>
      <trkpt lat="43.73162" lon="5.96364">
        <ele>359.6</ele>
        <time>2023-06-11T11:23:47Z</time>
      </trkpt>
      <trkpt lat="43.73162" lon="5.96364">
        <ele>359.5</ele>
        <time>2023-06-11T11:23:48Z</time>
      </trkpt>
      <trkpt lat="43.73162" lon="5.96364">
        <ele>359.4</ele>
        <time>2023-06-11T11:23:49Z</time>
      </trkpt>
      <trkpt lat="43.73162" lon="5.96364">
        <ele>359.5</ele>
        <time>2023-06-11T11:23:50Z</time>
      </trkpt>
      <trkpt lat="43.73162" lon="5.96364">
        <ele>359.4</ele>
        <time>2023-06-11T11:23:51Z</time>
      </trkpt>
      <trkpt lat="43.73162" lon="5.96364">
        <ele>359.4</ele>
        <time>2023-06-11T11:23:52Z</time>
      </trkpt>
      <trkpt lat="43.73162" lon="5.96364">
        <ele>359.5</ele>
        <time>2023-06-11T11:23:53Z</time>
      </trkpt>
      <trkpt lat="43.73162" lon="5.96364">
        <ele>359.5</ele>
        <time>2023-06-11T11:23:54Z</time>
      </trkpt>
      <trkpt lat="43.73162" lon="5.96364">
        <ele>359.6</ele>
        <time>2023-06-11T11:23:55Z</time>
      </trkpt>
      <trkpt lat="43.73162" lon="5.96364">
        <ele>359.6</ele>
        <time>2023-06-11T11:23:56Z</time>
      </trkpt>
      <trkpt lat="43.73162" lon="5.96364">
        <ele>359.6</ele>
        <time>2023-06-11T11:23:57Z</time>
      </trkpt>
      <trkpt lat="43.73162" lon="5.96364">
        <ele>359.5</ele>
        <time>2023-06-11T11:23:58Z</time>
      </trkpt>
      <trkpt lat="43.73162" lon="5.96364">
        <ele>359.5</ele>
        <time>2023-06-11T11:23:59Z</time>
      </trkpt>
      <trkpt lat="43.73162" lon="5.96364">
        <ele>359.5</ele>
        <time>2023-06-11T11:24:00Z</time>
      </trkpt>
      <trkpt lat="43.73162" lon="5.96364">
        <ele>359.5</ele>
        <time>2023-06-11T11:24:01Z</time>
      </trkpt>
      <trkpt lat="43.73162" lon="5.96364">
        <ele>359.6</ele>
        <time>2023-06-11T11:24:02Z</time>
      </trkpt>
      <trkpt lat="43.73162" lon="5.96364">
        <ele>359.6</ele>
        <time>2023-06-11T11:24:03Z</time>
      </trkpt>
      <trkpt lat="43.73162" lon="5.96364">
        <ele>359.6</ele>
        <time>2023-06-11T11:24:04Z</time>
      </trkpt>
      <trkpt lat="43.73162" lon="5.96364">
        <ele>359.6</ele>
        <time>2023-06-11T11:24:05Z</time>
      </trkpt>
      <trkpt lat="43.73162" lon="5.96364">
        <ele>359.6</ele>
        <time>2023-06-11T11:24:06Z</time>
      </trkpt>
      <trkpt lat="43.73162" lon="5.96364">
        <ele>359.6</ele>
        <time>2023-06-11T11:24:07Z</time>
      </trkpt>
      <trkpt lat="43.73162" lon="5.96364">
        <ele>359.6</ele>
        <time>2023-06-11T11:24:08Z</time>
      </trkpt>
      <trkpt lat="43.73162" lon="5.96364">
        <ele>359.6</ele>
        <time>2023-06-11T11:24:09Z</time>
      </trkpt>
      <trkpt lat="43.73162" lon="5.96364">
        <ele>359.6</ele>
        <time>2023-06-11T11:24:10Z</time>
      </trkpt>
      <trkpt lat="43.73162" lon="5.96364">
        <ele>359.5</ele>
        <time>2023-06-11T11:24:11Z</time>
      </trkpt>
      <trkpt lat="43.73162" lon="5.96364">
        <ele>359.5</ele>
        <time>2023-06-11T11:24:12Z</time>
      </trkpt>
      <trkpt lat="43.73162" lon="5.96364">
        <ele>359.5</ele>
        <time>2023-06-11T11:24:13Z</time>
      </trkpt>
      <trkpt lat="43.73162" lon="5.96364">
        <ele>359.6</ele>
        <time>2023-06-11T11:24:14Z</time>
      </trkpt>
      <trkpt lat="43.73162" lon="5.96364">
        <ele>359.6</ele>
        <time>2023-06-11T11:24:15Z</time>
      </trkpt>
      <trkpt lat="43.73162" lon="5.96364">
        <ele>359.6</ele>
        <time>2023-06-11T11:24:16Z</time>
      </trkpt>
      <trkpt lat="43.73162" lon="5.96364">
        <ele>359.7</ele>
        <time>2023-06-11T11:24:17Z</time>
      </trkpt>
      <trkpt lat="43.73162" lon="5.96364">
        <ele>359.7</ele>
        <time>2023-06-11T11:24:18Z</time>
      </trkpt>
      <trkpt lat="43.73162" lon="5.96364">
        <ele>359.7</ele>
        <time>2023-06-11T11:24:19Z</time>
      </trkpt>
      <trkpt lat="43.73162" lon="5.96364">
        <ele>359.8</ele>
        <time>2023-06-11T11:24:20Z</time>
      </trkpt>
      <trkpt lat="43.73162" lon="5.96364">
        <ele>359.8</ele>
        <time>2023-06-11T11:24:21Z</time>
      </trkpt>
      <trkpt lat="43.73162" lon="5.96364">
        <ele>359.8</ele>
        <time>2023-06-11T11:24:22Z</time>
      </trkpt>
      <trkpt lat="43.73162" lon="5.96364">
        <ele>359.8</ele>
        <time>2023-06-11T11:24:23Z</time>
      </trkpt>
      <trkpt lat="43.73162" lon="5.96364">
        <ele>359.8</ele>
        <time>2023-06-11T11:24:24Z</time>
      </trkpt>
      <trkpt lat="43.73162" lon="5.96364">
        <ele>359.8</ele>
        <time>2023-06-11T11:24:25Z</time>
      </trkpt>
      <trkpt lat="43.73162" lon="5.96364">
        <ele>359.8</ele>
        <time>2023-06-11T11:24:26Z</time>
      </trkpt>
      <trkpt lat="43.73162" lon="5.96364">
        <ele>359.8</ele>
        <time>2023-06-11T11:24:27Z</time>
      </trkpt>
      <trkpt lat="43.73162" lon="5.96364">
        <ele>359.8</ele>
        <time>2023-06-11T11:24:28Z</time>
      </trkpt>
      <trkpt lat="43.73162" lon="5.96364">
        <ele>359.8</ele>
        <time>2023-06-11T11:24:29Z</time>
      </trkpt>
      <trkpt lat="43.73162" lon="5.96364">
        <ele>359.8</ele>
        <time>2023-06-11T11:24:30Z</time>
      </trkpt>
      <trkpt lat="43.73162" lon="5.96364">
        <ele>359.8</ele>
        <time>2023-06-11T11:24:31Z</time>
      </trkpt>
      <trkpt lat="43.73162" lon="5.96364">
        <ele>359.8</ele>
        <time>2023-06-11T11:24:32Z</time>
      </trkpt>
      <trkpt lat="43.73162" lon="5.96364">
        <ele>359.9</ele>
        <time>2023-06-11T11:24:33Z</time>
      </trkpt>
      <trkpt lat="43.73162" lon="5.96364">
        <ele>360</ele>
        <time>2023-06-11T11:24:34Z</time>
      </trkpt>
      <trkpt lat="43.73162" lon="5.96364">
        <ele>360</ele>
        <time>2023-06-11T11:24:35Z</time>
      </trkpt>
      <trkpt lat="43.73162" lon="5.96364">
        <ele>360</ele>
        <time>2023-06-11T11:24:36Z</time>
      </trkpt>
      <trkpt lat="43.73162" lon="5.96363">
        <ele>360</ele>
        <time>2023-06-11T11:24:37Z</time>
      </trkpt>
      <trkpt lat="43.73162" lon="5.96363">
        <ele>359.9</ele>
        <time>2023-06-11T11:24:38Z</time>
      </trkpt>
      <trkpt lat="43.73162" lon="5.96363">
        <ele>359.9</ele>
        <time>2023-06-11T11:24:39Z</time>
      </trkpt>
      <trkpt lat="43.73162" lon="5.96363">
        <ele>359.9</ele>
        <time>2023-06-11T11:24:40Z</time>
      </trkpt>
      <trkpt lat="43.73162" lon="5.96363">
        <ele>359.9</ele>
        <time>2023-06-11T11:24:41Z</time>
      </trkpt>
      <trkpt lat="43.73162" lon="5.96363">
        <ele>360</ele>
        <time>2023-06-11T11:24:42Z</time>
      </trkpt>
      <trkpt lat="43.73162" lon="5.96363">
        <ele>360</ele>
        <time>2023-06-11T11:24:43Z</time>
      </trkpt>
      <trkpt lat="43.73162" lon="5.96363">
        <ele>360</ele>
        <time>2023-06-11T11:24:44Z</time>
      </trkpt>
      <trkpt lat="43.73162" lon="5.96363">
        <ele>360.1</ele>
        <time>2023-06-11T11:24:45Z</time>
      </trkpt>
      <trkpt lat="43.73162" lon="5.96363">
        <ele>360</ele>
        <time>2023-06-11T11:24:46Z</time>
      </trkpt>
      <trkpt lat="43.73162" lon="5.96363">
        <ele>360</ele>
        <time>2023-06-11T11:24:47Z</time>
      </trkpt>
      <trkpt lat="43.73162" lon="5.96363">
        <ele>360</ele>
        <time>2023-06-11T11:24:48Z</time>
      </trkpt>
      <trkpt lat="43.73162" lon="5.96363">
        <ele>360</ele>
        <time>2023-06-11T11:24:49Z</time>
      </trkpt>
      <trkpt lat="43.73163" lon="5.96363">
        <ele>359.9</ele>
        <time>2023-06-11T11:24:50Z</time>
      </trkpt>
      <trkpt lat="43.73163" lon="5.96363">
        <ele>360</ele>
        <time>2023-06-11T11:24:51Z</time>
      </trkpt>
      <trkpt lat="43.73163" lon="5.96363">
        <ele>359.9</ele>
        <time>2023-06-11T11:24:52Z</time>
      </trkpt>
      <trkpt lat="43.73163" lon="5.96363">
        <ele>360</ele>
        <time>2023-06-11T11:24:53Z</time>
      </trkpt>
      <trkpt lat="43.73163" lon="5.96363">
        <ele>360</ele>
        <time>2023-06-11T11:24:54Z</time>
      </trkpt>
      <trkpt lat="43.73163" lon="5.96363">
        <ele>360</ele>
        <time>2023-06-11T11:24:55Z</time>
      </trkpt>
      <trkpt lat="43.73163" lon="5.96363">
        <ele>359.9</ele>
        <time>2023-06-11T11:24:56Z</time>
      </trkpt>
      <trkpt lat="43.73163" lon="5.96363">
        <ele>359.8</ele>
        <time>2023-06-11T11:24:57Z</time>
      </trkpt>
      <trkpt lat="43.73163" lon="5.96363">
        <ele>359.8</ele>
        <time>2023-06-11T11:24:58Z</time>
      </trkpt>
      <trkpt lat="43.73163" lon="5.96363">
        <ele>359.8</ele>
        <time>2023-06-11T11:24:59Z</time>
      </trkpt>
      <trkpt lat="43.73163" lon="5.96363">
        <ele>359.8</ele>
        <time>2023-06-11T11:25:00Z</time>
      </trkpt>
      <trkpt lat="43.73163" lon="5.96363">
        <ele>359.8</ele>
        <time>2023-06-11T11:25:01Z</time>
      </trkpt>
      <trkpt lat="43.73163" lon="5.96362">
        <ele>359.8</ele>
        <time>2023-06-11T11:25:02Z</time>
      </trkpt>
      <trkpt lat="43.73163" lon="5.96362">
        <ele>359.8</ele>
        <time>2023-06-11T11:25:03Z</time>
      </trkpt>
      <trkpt lat="43.73163" lon="5.96362">
        <ele>359.8</ele>
        <time>2023-06-11T11:25:04Z</time>
      </trkpt>
      <trkpt lat="43.73163" lon="5.96362">
        <ele>359.8</ele>
        <time>2023-06-11T11:25:05Z</time>
      </trkpt>
      <trkpt lat="43.73163" lon="5.96362">
        <ele>359.8</ele>
        <time>2023-06-11T11:25:06Z</time>
      </trkpt>
      <trkpt lat="43.73163" lon="5.96362">
        <ele>359.8</ele>
        <time>2023-06-11T11:25:07Z</time>
      </trkpt>
      <trkpt lat="43.73164" lon="5.96362">
        <ele>359.8</ele>
        <time>2023-06-11T11:25:08Z</time>
      </trkpt>
      <trkpt lat="43.73164" lon="5.96362">
        <ele>359.8</ele>
        <time>2023-06-11T11:25:09Z</time>
      </trkpt>
      <trkpt lat="43.73163" lon="5.96363">
        <ele>359.9</ele>
        <time>2023-06-11T11:25:10Z</time>
      </trkpt>
      <trkpt lat="43.73164" lon="5.96363">
        <ele>360.1</ele>
        <time>2023-06-11T11:25:11Z</time>
      </trkpt>
      <trkpt lat="43.73164" lon="5.96363">
        <ele>360.1</ele>
        <time>2023-06-11T11:25:12Z</time>
      </trkpt>
      <trkpt lat="43.73164" lon="5.96363">
        <ele>360.2</ele>
        <time>2023-06-11T11:25:13Z</time>
      </trkpt>
      <trkpt lat="43.73164" lon="5.96363">
        <ele>360.2</ele>
        <time>2023-06-11T11:25:14Z</time>
      </trkpt>
      <trkpt lat="43.73164" lon="5.96363">
        <ele>360.2</ele>
        <time>2023-06-11T11:25:15Z</time>
      </trkpt>
      <trkpt lat="43.73164" lon="5.96363">
        <ele>360.2</ele>
        <time>2023-06-11T11:25:16Z</time>
      </trkpt>
      <trkpt lat="43.73164" lon="5.96363">
        <ele>360.2</ele>
        <time>2023-06-11T11:25:17Z</time>
      </trkpt>
      <trkpt lat="43.73164" lon="5.96363">
        <ele>360.1</ele>
        <time>2023-06-11T11:25:18Z</time>
      </trkpt>
      <trkpt lat="43.73164" lon="5.96363">
        <ele>360</ele>
        <time>2023-06-11T11:25:19Z</time>
      </trkpt>
      <trkpt lat="43.73164" lon="5.96363">
        <ele>360</ele>
        <time>2023-06-11T11:25:20Z</time>
      </trkpt>
      <trkpt lat="43.73164" lon="5.96363">
        <ele>360</ele>
        <time>2023-06-11T11:25:21Z</time>
      </trkpt>
      <trkpt lat="43.73164" lon="5.96363">
        <ele>360.1</ele>
        <time>2023-06-11T11:25:22Z</time>
      </trkpt>
      <trkpt lat="43.73164" lon="5.96363">
        <ele>359.8</ele>
        <time>2023-06-11T11:25:23Z</time>
      </trkpt>
      <trkpt lat="43.73164" lon="5.96363">
        <ele>359.8</ele>
        <time>2023-06-11T11:25:24Z</time>
      </trkpt>
      <trkpt lat="43.73164" lon="5.96363">
        <ele>359.8</ele>
        <time>2023-06-11T11:25:25Z</time>
      </trkpt>
      <trkpt lat="43.73164" lon="5.96363">
        <ele>359.8</ele>
        <time>2023-06-11T11:25:26Z</time>
      </trkpt>
      <trkpt lat="43.73163" lon="5.96363">
        <ele>359.8</ele>
        <time>2023-06-11T11:25:27Z</time>
      </trkpt>
      <trkpt lat="43.73164" lon="5.96363">
        <ele>359.8</ele>
        <time>2023-06-11T11:25:28Z</time>
      </trkpt>
      <trkpt lat="43.73164" lon="5.96363">
        <ele>359.7</ele>
        <time>2023-06-11T11:25:29Z</time>
      </trkpt>
      <trkpt lat="43.73164" lon="5.96363">
        <ele>359.7</ele>
        <time>2023-06-11T11:25:30Z</time>
      </trkpt>
      <trkpt lat="43.73164" lon="5.96363">
        <ele>359.7</ele>
        <time>2023-06-11T11:25:31Z</time>
      </trkpt>
      <trkpt lat="43.73164" lon="5.96363">
        <ele>359.8</ele>
        <time>2023-06-11T11:25:32Z</time>
      </trkpt>
      <trkpt lat="43.73164" lon="5.96363">
        <ele>359.9</ele>
        <time>2023-06-11T11:25:33Z</time>
      </trkpt>
      <trkpt lat="43.73164" lon="5.96363">
        <ele>359.9</ele>
        <time>2023-06-11T11:25:34Z</time>
      </trkpt>
      <trkpt lat="43.73164" lon="5.96363">
        <ele>359.9</ele>
        <time>2023-06-11T11:25:35Z</time>
      </trkpt>
      <trkpt lat="43.73164" lon="5.96363">
        <ele>360</ele>
        <time>2023-06-11T11:25:36Z</time>
      </trkpt>
      <trkpt lat="43.73164" lon="5.96363">
        <ele>359.9</ele>
        <time>2023-06-11T11:25:37Z</time>
      </trkpt>
      <trkpt lat="43.73164" lon="5.96363">
        <ele>359.9</ele>
        <time>2023-06-11T11:25:38Z</time>
      </trkpt>
      <trkpt lat="43.73164" lon="5.96363">
        <ele>359.9</ele>
        <time>2023-06-11T11:25:39Z</time>
      </trkpt>
      <trkpt lat="43.73164" lon="5.96363">
        <ele>359.8</ele>
        <time>2023-06-11T11:25:40Z</time>
      </trkpt>
      <trkpt lat="43.73164" lon="5.96363">
        <ele>359.9</ele>
        <time>2023-06-11T11:25:41Z</time>
      </trkpt>
      <trkpt lat="43.73164" lon="5.96363">
        <ele>359.9</ele>
        <time>2023-06-11T11:25:42Z</time>
      </trkpt>
      <trkpt lat="43.73164" lon="5.96363">
        <ele>359.9</ele>
        <time>2023-06-11T11:25:43Z</time>
      </trkpt>
      <trkpt lat="43.73164" lon="5.96363">
        <ele>359.9</ele>
        <time>2023-06-11T11:25:44Z</time>
      </trkpt>
      <trkpt lat="43.73164" lon="5.96363">
        <ele>359.8</ele>
        <time>2023-06-11T11:25:45Z</time>
      </trkpt>
      <trkpt lat="43.73164" lon="5.96363">
        <ele>359.8</ele>
        <time>2023-06-11T11:25:46Z</time>
      </trkpt>
      <trkpt lat="43.73164" lon="5.96363">
        <ele>359.8</ele>
        <time>2023-06-11T11:25:47Z</time>
      </trkpt>
      <trkpt lat="43.73164" lon="5.96363">
        <ele>359.8</ele>
        <time>2023-06-11T11:25:48Z</time>
      </trkpt>
      <trkpt lat="43.73164" lon="5.96363">
        <ele>359.8</ele>
        <time>2023-06-11T11:25:49Z</time>
      </trkpt>
      <trkpt lat="43.73164" lon="5.96363">
        <ele>359.7</ele>
        <time>2023-06-11T11:25:50Z</time>
      </trkpt>
      <trkpt lat="43.73164" lon="5.96363">
        <ele>359.7</ele>
        <time>2023-06-11T11:25:51Z</time>
      </trkpt>
      <trkpt lat="43.73164" lon="5.96363">
        <ele>359.7</ele>
        <time>2023-06-11T11:25:52Z</time>
      </trkpt>
      <trkpt lat="43.73164" lon="5.96363">
        <ele>359.7</ele>
        <time>2023-06-11T11:25:53Z</time>
      </trkpt>
      <trkpt lat="43.73164" lon="5.96363">
        <ele>359.8</ele>
        <time>2023-06-11T11:25:54Z</time>
      </trkpt>
      <trkpt lat="43.73164" lon="5.96363">
        <ele>359.8</ele>
        <time>2023-06-11T11:25:55Z</time>
      </trkpt>
      <trkpt lat="43.73164" lon="5.96363">
        <ele>359.8</ele>
        <time>2023-06-11T11:25:56Z</time>
      </trkpt>
      <trkpt lat="43.73164" lon="5.96363">
        <ele>359.7</ele>
        <time>2023-06-11T11:25:57Z</time>
      </trkpt>
      <trkpt lat="43.73164" lon="5.96363">
        <ele>359.7</ele>
        <time>2023-06-11T11:25:58Z</time>
      </trkpt>
      <trkpt lat="43.73164" lon="5.96363">
        <ele>359.6</ele>
        <time>2023-06-11T11:25:59Z</time>
      </trkpt>
      <trkpt lat="43.73164" lon="5.96363">
        <ele>359.6</ele>
        <time>2023-06-11T11:26:00Z</time>
      </trkpt>
      <trkpt lat="43.73164" lon="5.96363">
        <ele>359.6</ele>
        <time>2023-06-11T11:26:01Z</time>
      </trkpt>
      <trkpt lat="43.73164" lon="5.96363">
        <ele>359.6</ele>
        <time>2023-06-11T11:26:02Z</time>
      </trkpt>
      <trkpt lat="43.73164" lon="5.96363">
        <ele>359.6</ele>
        <time>2023-06-11T11:26:03Z</time>
      </trkpt>
      <trkpt lat="43.73164" lon="5.96363">
        <ele>359.6</ele>
        <time>2023-06-11T11:26:04Z</time>
      </trkpt>
      <trkpt lat="43.73164" lon="5.96363">
        <ele>359.6</ele>
        <time>2023-06-11T11:26:05Z</time>
      </trkpt>
      <trkpt lat="43.73164" lon="5.96363">
        <ele>359.6</ele>
        <time>2023-06-11T11:26:06Z</time>
      </trkpt>
      <trkpt lat="43.73164" lon="5.96363">
        <ele>359.6</ele>
        <time>2023-06-11T11:26:07Z</time>
      </trkpt>
      <trkpt lat="43.73164" lon="5.96363">
        <ele>359.6</ele>
        <time>2023-06-11T11:26:08Z</time>
      </trkpt>
      <trkpt lat="43.73164" lon="5.96363">
        <ele>359.6</ele>
        <time>2023-06-11T11:26:09Z</time>
      </trkpt>
      <trkpt lat="43.73164" lon="5.96363">
        <ele>359.6</ele>
        <time>2023-06-11T11:26:10Z</time>
      </trkpt>
      <trkpt lat="43.73164" lon="5.96363">
        <ele>359.6</ele>
        <time>2023-06-11T11:26:11Z</time>
      </trkpt>
      <trkpt lat="43.73164" lon="5.96363">
        <ele>359.6</ele>
        <time>2023-06-11T11:26:12Z</time>
      </trkpt>
      <trkpt lat="43.73164" lon="5.96363">
        <ele>359.6</ele>
        <time>2023-06-11T11:26:13Z</time>
      </trkpt>
      <trkpt lat="43.73164" lon="5.96363">
        <ele>359.5</ele>
        <time>2023-06-11T11:26:14Z</time>
      </trkpt>
      <trkpt lat="43.73164" lon="5.96363">
        <ele>359.5</ele>
        <time>2023-06-11T11:26:15Z</time>
      </trkpt>
      <trkpt lat="43.73164" lon="5.96363">
        <ele>359.5</ele>
        <time>2023-06-11T11:26:16Z</time>
      </trkpt>
      <trkpt lat="43.73164" lon="5.96363">
        <ele>359.5</ele>
        <time>2023-06-11T11:26:17Z</time>
      </trkpt>
      <trkpt lat="43.73164" lon="5.96363">
        <ele>359.5</ele>
        <time>2023-06-11T11:26:18Z</time>
      </trkpt>
      <trkpt lat="43.73164" lon="5.96363">
        <ele>359.5</ele>
        <time>2023-06-11T11:26:19Z</time>
      </trkpt>
      <trkpt lat="43.73164" lon="5.96363">
        <ele>359.5</ele>
        <time>2023-06-11T11:26:20Z</time>
      </trkpt>
      <trkpt lat="43.73164" lon="5.96363">
        <ele>359.6</ele>
        <time>2023-06-11T11:26:21Z</time>
      </trkpt>
      <trkpt lat="43.73164" lon="5.96363">
        <ele>359.6</ele>
        <time>2023-06-11T11:26:22Z</time>
      </trkpt>
      <trkpt lat="43.73164" lon="5.96363">
        <ele>359.6</ele>
        <time>2023-06-11T11:26:23Z</time>
      </trkpt>
      <trkpt lat="43.73164" lon="5.96363">
        <ele>359.7</ele>
        <time>2023-06-11T11:26:24Z</time>
      </trkpt>
      <trkpt lat="43.73164" lon="5.96363">
        <ele>359.7</ele>
        <time>2023-06-11T11:26:25Z</time>
      </trkpt>
      <trkpt lat="43.73164" lon="5.96363">
        <ele>359.8</ele>
        <time>2023-06-11T11:26:26Z</time>
      </trkpt>
      <trkpt lat="43.73164" lon="5.96363">
        <ele>359.8</ele>
        <time>2023-06-11T11:26:27Z</time>
      </trkpt>
      <trkpt lat="43.73164" lon="5.96363">
        <ele>359.8</ele>
        <time>2023-06-11T11:26:28Z</time>
      </trkpt>
      <trkpt lat="43.73164" lon="5.96363">
        <ele>359.8</ele>
        <time>2023-06-11T11:26:29Z</time>
      </trkpt>
      <trkpt lat="43.73164" lon="5.96363">
        <ele>359.7</ele>
        <time>2023-06-11T11:26:30Z</time>
      </trkpt>
      <trkpt lat="43.73164" lon="5.96363">
        <ele>359.8</ele>
        <time>2023-06-11T11:26:31Z</time>
      </trkpt>
      <trkpt lat="43.73164" lon="5.96363">
        <ele>359.9</ele>
        <time>2023-06-11T11:26:32Z</time>
      </trkpt>
      <trkpt lat="43.73164" lon="5.96363">
        <ele>359.9</ele>
        <time>2023-06-11T11:26:33Z</time>
      </trkpt>
      <trkpt lat="43.73164" lon="5.96363">
        <ele>359.9</ele>
        <time>2023-06-11T11:26:34Z</time>
      </trkpt>
      <trkpt lat="43.73164" lon="5.96363">
        <ele>359.9</ele>
        <time>2023-06-11T11:26:35Z</time>
      </trkpt>
      <trkpt lat="43.73164" lon="5.96363">
        <ele>360</ele>
        <time>2023-06-11T11:26:36Z</time>
      </trkpt>
      <trkpt lat="43.73164" lon="5.96363">
        <ele>360</ele>
        <time>2023-06-11T11:26:37Z</time>
      </trkpt>
      <trkpt lat="43.73164" lon="5.96363">
        <ele>360</ele>
        <time>2023-06-11T11:26:38Z</time>
      </trkpt>
      <trkpt lat="43.73164" lon="5.96363">
        <ele>360</ele>
        <time>2023-06-11T11:26:39Z</time>
      </trkpt>
      <trkpt lat="43.73164" lon="5.96363">
        <ele>360</ele>
        <time>2023-06-11T11:26:40Z</time>
      </trkpt>
      <trkpt lat="43.73164" lon="5.96363">
        <ele>360</ele>
        <time>2023-06-11T11:26:41Z</time>
      </trkpt>
      <trkpt lat="43.73164" lon="5.96363">
        <ele>360</ele>
        <time>2023-06-11T11:26:42Z</time>
      </trkpt>
      <trkpt lat="43.73164" lon="5.96363">
        <ele>360</ele>
        <time>2023-06-11T11:26:43Z</time>
      </trkpt>
      <trkpt lat="43.73164" lon="5.96363">
        <ele>360</ele>
        <time>2023-06-11T11:26:44Z</time>
      </trkpt>
      <trkpt lat="43.73164" lon="5.96363">
        <ele>359.9</ele>
        <time>2023-06-11T11:26:45Z</time>
      </trkpt>
      <trkpt lat="43.73164" lon="5.96363">
        <ele>360</ele>
        <time>2023-06-11T11:26:46Z</time>
      </trkpt>
      <trkpt lat="43.73164" lon="5.96363">
        <ele>360.1</ele>
        <time>2023-06-11T11:26:47Z</time>
      </trkpt>
      <trkpt lat="43.73164" lon="5.96363">
        <ele>360.1</ele>
        <time>2023-06-11T11:26:48Z</time>
      </trkpt>
      <trkpt lat="43.73164" lon="5.96363">
        <ele>360.1</ele>
        <time>2023-06-11T11:26:49Z</time>
      </trkpt>
      <trkpt lat="43.73164" lon="5.96363">
        <ele>360.1</ele>
        <time>2023-06-11T11:26:50Z</time>
      </trkpt>
      <trkpt lat="43.73164" lon="5.96363">
        <ele>360.1</ele>
        <time>2023-06-11T11:26:51Z</time>
      </trkpt>
      <trkpt lat="43.73164" lon="5.96363">
        <ele>360.1</ele>
        <time>2023-06-11T11:26:52Z</time>
      </trkpt>
      <trkpt lat="43.73164" lon="5.96363">
        <ele>360.1</ele>
        <time>2023-06-11T11:26:53Z</time>
      </trkpt>
      <trkpt lat="43.73164" lon="5.96363">
        <ele>360.1</ele>
        <time>2023-06-11T11:26:54Z</time>
      </trkpt>
      <trkpt lat="43.73164" lon="5.96363">
        <ele>360.1</ele>
        <time>2023-06-11T11:26:55Z</time>
      </trkpt>
      <trkpt lat="43.73164" lon="5.96363">
        <ele>360</ele>
        <time>2023-06-11T11:26:56Z</time>
      </trkpt>
      <trkpt lat="43.73164" lon="5.96363">
        <ele>360</ele>
        <time>2023-06-11T11:26:57Z</time>
      </trkpt>
      <trkpt lat="43.73164" lon="5.96363">
        <ele>360</ele>
        <time>2023-06-11T11:26:58Z</time>
      </trkpt>
      <trkpt lat="43.73164" lon="5.96363">
        <ele>360</ele>
        <time>2023-06-11T11:26:59Z</time>
      </trkpt>
      <trkpt lat="43.73164" lon="5.96363">
        <ele>359.9</ele>
        <time>2023-06-11T11:27:00Z</time>
      </trkpt>
      <trkpt lat="43.73164" lon="5.96363">
        <ele>359.9</ele>
        <time>2023-06-11T11:27:01Z</time>
      </trkpt>
      <trkpt lat="43.73164" lon="5.96363">
        <ele>359.9</ele>
        <time>2023-06-11T11:27:02Z</time>
      </trkpt>
      <trkpt lat="43.73164" lon="5.96363">
        <ele>360</ele>
        <time>2023-06-11T11:27:03Z</time>
      </trkpt>
      <trkpt lat="43.73164" lon="5.96363">
        <ele>360.1</ele>
        <time>2023-06-11T11:27:04Z</time>
      </trkpt>
      <trkpt lat="43.73164" lon="5.96363">
        <ele>360.1</ele>
        <time>2023-06-11T11:27:05Z</time>
      </trkpt>
      <trkpt lat="43.73164" lon="5.96362">
        <ele>360.2</ele>
        <time>2023-06-11T11:27:06Z</time>
      </trkpt>
      <trkpt lat="43.73164" lon="5.96362">
        <ele>360.2</ele>
        <time>2023-06-11T11:27:07Z</time>
      </trkpt>
      <trkpt lat="43.73164" lon="5.96362">
        <ele>360.1</ele>
        <time>2023-06-11T11:27:08Z</time>
      </trkpt>
      <trkpt lat="43.73164" lon="5.96362">
        <ele>360</ele>
        <time>2023-06-11T11:27:09Z</time>
      </trkpt>
      <trkpt lat="43.73164" lon="5.96362">
        <ele>360.1</ele>
        <time>2023-06-11T11:27:10Z</time>
      </trkpt>
      <trkpt lat="43.73164" lon="5.96362">
        <ele>360.2</ele>
        <time>2023-06-11T11:27:11Z</time>
      </trkpt>
      <trkpt lat="43.73164" lon="5.96362">
        <ele>360.2</ele>
        <time>2023-06-11T11:27:12Z</time>
      </trkpt>
      <trkpt lat="43.73164" lon="5.96363">
        <ele>360.2</ele>
        <time>2023-06-11T11:27:13Z</time>
      </trkpt>
      <trkpt lat="43.73164" lon="5.96363">
        <ele>360.2</ele>
        <time>2023-06-11T11:27:14Z</time>
      </trkpt>
      <trkpt lat="43.73164" lon="5.96362">
        <ele>360.2</ele>
        <time>2023-06-11T11:27:15Z</time>
      </trkpt>
      <trkpt lat="43.73164" lon="5.96362">
        <ele>360.2</ele>
        <time>2023-06-11T11:27:16Z</time>
      </trkpt>
      <trkpt lat="43.73164" lon="5.96362">
        <ele>360.2</ele>
        <time>2023-06-11T11:27:17Z</time>
      </trkpt>
      <trkpt lat="43.73164" lon="5.96363">
        <ele>360.2</ele>
        <time>2023-06-11T11:27:18Z</time>
      </trkpt>
      <trkpt lat="43.73164" lon="5.96363">
        <ele>360.2</ele>
        <time>2023-06-11T11:27:19Z</time>
      </trkpt>
      <trkpt lat="43.73164" lon="5.96363">
        <ele>360.2</ele>
        <time>2023-06-11T11:27:20Z</time>
      </trkpt>
      <trkpt lat="43.73164" lon="5.96363">
        <ele>360.2</ele>
        <time>2023-06-11T11:27:21Z</time>
      </trkpt>
      <trkpt lat="43.73164" lon="5.96363">
        <ele>360.3</ele>
        <time>2023-06-11T11:27:22Z</time>
      </trkpt>
      <trkpt lat="43.73164" lon="5.96363">
        <ele>360.3</ele>
        <time>2023-06-11T11:27:23Z</time>
      </trkpt>
      <trkpt lat="43.73164" lon="5.96363">
        <ele>360.4</ele>
        <time>2023-06-11T11:27:24Z</time>
      </trkpt>
      <trkpt lat="43.73164" lon="5.96363">
        <ele>360.4</ele>
        <time>2023-06-11T11:27:25Z</time>
      </trkpt>
      <trkpt lat="43.73164" lon="5.96363">
        <ele>360.4</ele>
        <time>2023-06-11T11:27:26Z</time>
      </trkpt>
      <trkpt lat="43.73164" lon="5.96363">
        <ele>360.4</ele>
        <time>2023-06-11T11:27:27Z</time>
      </trkpt>
      <trkpt lat="43.73164" lon="5.96363">
        <ele>360.4</ele>
        <time>2023-06-11T11:27:28Z</time>
      </trkpt>
      <trkpt lat="43.73164" lon="5.96363">
        <ele>360.4</ele>
        <time>2023-06-11T11:27:29Z</time>
      </trkpt>
      <trkpt lat="43.73164" lon="5.96363">
        <ele>360.4</ele>
        <time>2023-06-11T11:27:30Z</time>
      </trkpt>
      <trkpt lat="43.73164" lon="5.96363">
        <ele>360.4</ele>
        <time>2023-06-11T11:27:31Z</time>
      </trkpt>
      <trkpt lat="43.73164" lon="5.96363">
        <ele>360.3</ele>
        <time>2023-06-11T11:27:32Z</time>
      </trkpt>
      <trkpt lat="43.73164" lon="5.96363">
        <ele>360.3</ele>
        <time>2023-06-11T11:27:33Z</time>
      </trkpt>
      <trkpt lat="43.73164" lon="5.96363">
        <ele>360.2</ele>
        <time>2023-06-11T11:27:34Z</time>
      </trkpt>
      <trkpt lat="43.73164" lon="5.96363">
        <ele>360.2</ele>
        <time>2023-06-11T11:27:35Z</time>
      </trkpt>
      <trkpt lat="43.73164" lon="5.96363">
        <ele>360.3</ele>
        <time>2023-06-11T11:27:36Z</time>
      </trkpt>
      <trkpt lat="43.73164" lon="5.96363">
        <ele>360.4</ele>
        <time>2023-06-11T11:27:37Z</time>
      </trkpt>
      <trkpt lat="43.73164" lon="5.96363">
        <ele>360.3</ele>
        <time>2023-06-11T11:27:38Z</time>
      </trkpt>
      <trkpt lat="43.73164" lon="5.96363">
        <ele>360.3</ele>
        <time>2023-06-11T11:27:39Z</time>
      </trkpt>
      <trkpt lat="43.73164" lon="5.96363">
        <ele>360.2</ele>
        <time>2023-06-11T11:27:40Z</time>
      </trkpt>
      <trkpt lat="43.73164" lon="5.96363">
        <ele>360.2</ele>
        <time>2023-06-11T11:27:41Z</time>
      </trkpt>
      <trkpt lat="43.73164" lon="5.96363">
        <ele>360.1</ele>
        <time>2023-06-11T11:27:42Z</time>
      </trkpt>
      <trkpt lat="43.73164" lon="5.96363">
        <ele>360.1</ele>
        <time>2023-06-11T11:27:43Z</time>
      </trkpt>
      <trkpt lat="43.73164" lon="5.96363">
        <ele>360.1</ele>
        <time>2023-06-11T11:27:44Z</time>
      </trkpt>
      <trkpt lat="43.73164" lon="5.96363">
        <ele>360.1</ele>
        <time>2023-06-11T11:27:45Z</time>
      </trkpt>
      <trkpt lat="43.73164" lon="5.96363">
        <ele>360.1</ele>
        <time>2023-06-11T11:27:46Z</time>
      </trkpt>
      <trkpt lat="43.73164" lon="5.96363">
        <ele>360.1</ele>
        <time>2023-06-11T11:27:47Z</time>
      </trkpt>
      <trkpt lat="43.73164" lon="5.96363">
        <ele>360</ele>
        <time>2023-06-11T11:27:48Z</time>
      </trkpt>
      <trkpt lat="43.73164" lon="5.96363">
        <ele>359.9</ele>
        <time>2023-06-11T11:27:49Z</time>
      </trkpt>
      <trkpt lat="43.73164" lon="5.96363">
        <ele>359.9</ele>
        <time>2023-06-11T11:27:50Z</time>
      </trkpt>
      <trkpt lat="43.73164" lon="5.96363">
        <ele>360</ele>
        <time>2023-06-11T11:27:51Z</time>
      </trkpt>
      <trkpt lat="43.73164" lon="5.96363">
        <ele>360.1</ele>
        <time>2023-06-11T11:27:52Z</time>
      </trkpt>
      <trkpt lat="43.73164" lon="5.96363">
        <ele>360</ele>
        <time>2023-06-11T11:27:53Z</time>
      </trkpt>
      <trkpt lat="43.73164" lon="5.96363">
        <ele>360.1</ele>
        <time>2023-06-11T11:27:54Z</time>
      </trkpt>
      <trkpt lat="43.73164" lon="5.96363">
        <ele>360.2</ele>
        <time>2023-06-11T11:27:55Z</time>
      </trkpt>
      <trkpt lat="43.73164" lon="5.96363">
        <ele>360.2</ele>
        <time>2023-06-11T11:27:56Z</time>
      </trkpt>
      <trkpt lat="43.73164" lon="5.96363">
        <ele>360.2</ele>
        <time>2023-06-11T11:27:57Z</time>
      </trkpt>
      <trkpt lat="43.73164" lon="5.96363">
        <ele>360.2</ele>
        <time>2023-06-11T11:27:58Z</time>
      </trkpt>
      <trkpt lat="43.73164" lon="5.96363">
        <ele>360.3</ele>
        <time>2023-06-11T11:27:59Z</time>
      </trkpt>
      <trkpt lat="43.73164" lon="5.96363">
        <ele>360.3</ele>
        <time>2023-06-11T11:28:00Z</time>
      </trkpt>
      <trkpt lat="43.73164" lon="5.96363">
        <ele>360.3</ele>
        <time>2023-06-11T11:28:01Z</time>
      </trkpt>
      <trkpt lat="43.73164" lon="5.96363">
        <ele>360.3</ele>
        <time>2023-06-11T11:28:02Z</time>
      </trkpt>
      <trkpt lat="43.73164" lon="5.96363">
        <ele>360.3</ele>
        <time>2023-06-11T11:28:03Z</time>
      </trkpt>
      <trkpt lat="43.73164" lon="5.96363">
        <ele>360.4</ele>
        <time>2023-06-11T11:28:04Z</time>
      </trkpt>
      <trkpt lat="43.73164" lon="5.96363">
        <ele>360.4</ele>
        <time>2023-06-11T11:28:05Z</time>
      </trkpt>
      <trkpt lat="43.73164" lon="5.96363">
        <ele>360.4</ele>
        <time>2023-06-11T11:28:06Z</time>
      </trkpt>
      <trkpt lat="43.73164" lon="5.96363">
        <ele>360.3</ele>
        <time>2023-06-11T11:28:07Z</time>
      </trkpt>
      <trkpt lat="43.73164" lon="5.96363">
        <ele>360.3</ele>
        <time>2023-06-11T11:28:08Z</time>
      </trkpt>
      <trkpt lat="43.73164" lon="5.96363">
        <ele>360.4</ele>
        <time>2023-06-11T11:28:09Z</time>
      </trkpt>
      <trkpt lat="43.73164" lon="5.96363">
        <ele>360.4</ele>
        <time>2023-06-11T11:28:10Z</time>
      </trkpt>
      <trkpt lat="43.73164" lon="5.96363">
        <ele>360.4</ele>
        <time>2023-06-11T11:28:11Z</time>
      </trkpt>
      <trkpt lat="43.73164" lon="5.96363">
        <ele>360.4</ele>
        <time>2023-06-11T11:28:12Z</time>
      </trkpt>
      <trkpt lat="43.73164" lon="5.96363">
        <ele>360.4</ele>
        <time>2023-06-11T11:28:13Z</time>
      </trkpt>
      <trkpt lat="43.73164" lon="5.96363">
        <ele>360.4</ele>
        <time>2023-06-11T11:28:14Z</time>
      </trkpt>
      <trkpt lat="43.73164" lon="5.96363">
        <ele>360.3</ele>
        <time>2023-06-11T11:28:15Z</time>
      </trkpt>
      <trkpt lat="43.73164" lon="5.96363">
        <ele>360.4</ele>
        <time>2023-06-11T11:28:16Z</time>
      </trkpt>
      <trkpt lat="43.73164" lon="5.96363">
        <ele>360.4</ele>
        <time>2023-06-11T11:28:17Z</time>
      </trkpt>
      <trkpt lat="43.73164" lon="5.96363">
        <ele>360.4</ele>
        <time>2023-06-11T11:28:18Z</time>
      </trkpt>
      <trkpt lat="43.73164" lon="5.96363">
        <ele>360.4</ele>
        <time>2023-06-11T11:28:19Z</time>
      </trkpt>
      <trkpt lat="43.73164" lon="5.96363">
        <ele>360.4</ele>
        <time>2023-06-11T11:28:20Z</time>
      </trkpt>
      <trkpt lat="43.73164" lon="5.96363">
        <ele>360.3</ele>
        <time>2023-06-11T11:28:21Z</time>
      </trkpt>
      <trkpt lat="43.73164" lon="5.96363">
        <ele>360.3</ele>
        <time>2023-06-11T11:28:22Z</time>
      </trkpt>
      <trkpt lat="43.73164" lon="5.96363">
        <ele>360.3</ele>
        <time>2023-06-11T11:28:23Z</time>
      </trkpt>
      <trkpt lat="43.73164" lon="5.96363">
        <ele>360.2</ele>
        <time>2023-06-11T11:28:24Z</time>
      </trkpt>
      <trkpt lat="43.73164" lon="5.96363">
        <ele>360.2</ele>
        <time>2023-06-11T11:28:25Z</time>
      </trkpt>
      <trkpt lat="43.73164" lon="5.96363">
        <ele>360.2</ele>
        <time>2023-06-11T11:28:26Z</time>
      </trkpt>
      <trkpt lat="43.73164" lon="5.96363">
        <ele>360.1</ele>
        <time>2023-06-11T11:28:27Z</time>
      </trkpt>
      <trkpt lat="43.73164" lon="5.96363">
        <ele>360.1</ele>
        <time>2023-06-11T11:28:28Z</time>
      </trkpt>
      <trkpt lat="43.73164" lon="5.96363">
        <ele>360.1</ele>
        <time>2023-06-11T11:28:29Z</time>
      </trkpt>
      <trkpt lat="43.73164" lon="5.96363">
        <ele>360.1</ele>
        <time>2023-06-11T11:28:30Z</time>
      </trkpt>
      <trkpt lat="43.73164" lon="5.96363">
        <ele>360.1</ele>
        <time>2023-06-11T11:28:31Z</time>
      </trkpt>
      <trkpt lat="43.73164" lon="5.96363">
        <ele>360.1</ele>
        <time>2023-06-11T11:28:32Z</time>
      </trkpt>
      <trkpt lat="43.73164" lon="5.96363">
        <ele>360.1</ele>
        <time>2023-06-11T11:28:33Z</time>
      </trkpt>
      <trkpt lat="43.73164" lon="5.96363">
        <ele>360.1</ele>
        <time>2023-06-11T11:28:34Z</time>
      </trkpt>
      <trkpt lat="43.73164" lon="5.96363">
        <ele>360</ele>
        <time>2023-06-11T11:28:35Z</time>
      </trkpt>
      <trkpt lat="43.73164" lon="5.96363">
        <ele>360</ele>
        <time>2023-06-11T11:28:36Z</time>
      </trkpt>
      <trkpt lat="43.73164" lon="5.96363">
        <ele>360</ele>
        <time>2023-06-11T11:28:37Z</time>
      </trkpt>
      <trkpt lat="43.73164" lon="5.96363">
        <ele>360</ele>
        <time>2023-06-11T11:28:38Z</time>
      </trkpt>
      <trkpt lat="43.73164" lon="5.96363">
        <ele>360</ele>
        <time>2023-06-11T11:28:39Z</time>
      </trkpt>
      <trkpt lat="43.73164" lon="5.96363">
        <ele>360</ele>
        <time>2023-06-11T11:28:40Z</time>
      </trkpt>
      <trkpt lat="43.73164" lon="5.96363">
        <ele>359.9</ele>
        <time>2023-06-11T11:28:41Z</time>
      </trkpt>
      <trkpt lat="43.73164" lon="5.96363">
        <ele>359.9</ele>
        <time>2023-06-11T11:28:42Z</time>
      </trkpt>
      <trkpt lat="43.73164" lon="5.96363">
        <ele>360</ele>
        <time>2023-06-11T11:28:43Z</time>
      </trkpt>
      <trkpt lat="43.73164" lon="5.96363">
        <ele>359.9</ele>
        <time>2023-06-11T11:28:44Z</time>
      </trkpt>
      <trkpt lat="43.73164" lon="5.96363">
        <ele>359.9</ele>
        <time>2023-06-11T11:28:45Z</time>
      </trkpt>
      <trkpt lat="43.73164" lon="5.96363">
        <ele>359.9</ele>
        <time>2023-06-11T11:28:46Z</time>
      </trkpt>
      <trkpt lat="43.73164" lon="5.96363">
        <ele>359.9</ele>
        <time>2023-06-11T11:28:47Z</time>
      </trkpt>
      <trkpt lat="43.73164" lon="5.96363">
        <ele>359.9</ele>
        <time>2023-06-11T11:28:48Z</time>
      </trkpt>
      <trkpt lat="43.73164" lon="5.96363">
        <ele>359.9</ele>
        <time>2023-06-11T11:28:49Z</time>
      </trkpt>
      <trkpt lat="43.73164" lon="5.96363">
        <ele>360</ele>
        <time>2023-06-11T11:28:50Z</time>
      </trkpt>
      <trkpt lat="43.73164" lon="5.96363">
        <ele>360.1</ele>
        <time>2023-06-11T11:28:51Z</time>
      </trkpt>
      <trkpt lat="43.73164" lon="5.96363">
        <ele>360.1</ele>
        <time>2023-06-11T11:28:52Z</time>
      </trkpt>
      <trkpt lat="43.73164" lon="5.96363">
        <ele>360.1</ele>
        <time>2023-06-11T11:28:53Z</time>
      </trkpt>
      <trkpt lat="43.73165" lon="5.96363">
        <ele>360.1</ele>
        <time>2023-06-11T11:28:54Z</time>
      </trkpt>
      <trkpt lat="43.73165" lon="5.96363">
        <ele>360.2</ele>
        <time>2023-06-11T11:28:55Z</time>
      </trkpt>
      <trkpt lat="43.73165" lon="5.96363">
        <ele>360.2</ele>
        <time>2023-06-11T11:28:56Z</time>
      </trkpt>
      <trkpt lat="43.73165" lon="5.96362">
        <ele>360.2</ele>
        <time>2023-06-11T11:28:57Z</time>
      </trkpt>
      <trkpt lat="43.73165" lon="5.96362">
        <ele>360.3</ele>
        <time>2023-06-11T11:28:58Z</time>
      </trkpt>
      <trkpt lat="43.73165" lon="5.96362">
        <ele>360.4</ele>
        <time>2023-06-11T11:28:59Z</time>
      </trkpt>
      <trkpt lat="43.73165" lon="5.96362">
        <ele>360.4</ele>
        <time>2023-06-11T11:29:00Z</time>
      </trkpt>
      <trkpt lat="43.73165" lon="5.96362">
        <ele>360.4</ele>
        <time>2023-06-11T11:29:01Z</time>
      </trkpt>
      <trkpt lat="43.73164" lon="5.96362">
        <ele>360.4</ele>
        <time>2023-06-11T11:29:02Z</time>
      </trkpt>
      <trkpt lat="43.73164" lon="5.96362">
        <ele>360.4</ele>
        <time>2023-06-11T11:29:03Z</time>
      </trkpt>
      <trkpt lat="43.73164" lon="5.96362">
        <ele>360.3</ele>
        <time>2023-06-11T11:29:04Z</time>
      </trkpt>
      <trkpt lat="43.73164" lon="5.96362">
        <ele>360.3</ele>
        <time>2023-06-11T11:29:05Z</time>
      </trkpt>
      <trkpt lat="43.73164" lon="5.96362">
        <ele>360.3</ele>
        <time>2023-06-11T11:29:06Z</time>
      </trkpt>
      <trkpt lat="43.73164" lon="5.96362">
        <ele>360.2</ele>
        <time>2023-06-11T11:29:07Z</time>
      </trkpt>
      <trkpt lat="43.73164" lon="5.96362">
        <ele>360.1</ele>
        <time>2023-06-11T11:29:08Z</time>
      </trkpt>
      <trkpt lat="43.73164" lon="5.96362">
        <ele>360.1</ele>
        <time>2023-06-11T11:29:09Z</time>
      </trkpt>
      <trkpt lat="43.73164" lon="5.96362">
        <ele>360.1</ele>
        <time>2023-06-11T11:29:10Z</time>
      </trkpt>
      <trkpt lat="43.73164" lon="5.96362">
        <ele>360</ele>
        <time>2023-06-11T11:29:11Z</time>
      </trkpt>
      <trkpt lat="43.73164" lon="5.96362">
        <ele>360</ele>
        <time>2023-06-11T11:29:12Z</time>
      </trkpt>
      <trkpt lat="43.73164" lon="5.96362">
        <ele>360.1</ele>
        <time>2023-06-11T11:29:13Z</time>
      </trkpt>
      <trkpt lat="43.73164" lon="5.96362">
        <ele>360.1</ele>
        <time>2023-06-11T11:29:14Z</time>
      </trkpt>
      <trkpt lat="43.73164" lon="5.96362">
        <ele>360.1</ele>
        <time>2023-06-11T11:29:15Z</time>
      </trkpt>
      <trkpt lat="43.73164" lon="5.96361">
        <ele>360.1</ele>
        <time>2023-06-11T11:29:16Z</time>
      </trkpt>
      <trkpt lat="43.73164" lon="5.96361">
        <ele>360.2</ele>
        <time>2023-06-11T11:29:17Z</time>
      </trkpt>
      <trkpt lat="43.73164" lon="5.96361">
        <ele>360.2</ele>
        <time>2023-06-11T11:29:18Z</time>
      </trkpt>
      <trkpt lat="43.73164" lon="5.96361">
        <ele>360.3</ele>
        <time>2023-06-11T11:29:19Z</time>
      </trkpt>
      <trkpt lat="43.73164" lon="5.96361">
        <ele>360.3</ele>
        <time>2023-06-11T11:29:20Z</time>
      </trkpt>
      <trkpt lat="43.73165" lon="5.96361">
        <ele>360.3</ele>
        <time>2023-06-11T11:29:21Z</time>
      </trkpt>
      <trkpt lat="43.73165" lon="5.96361">
        <ele>360.3</ele>
        <time>2023-06-11T11:29:22Z</time>
      </trkpt>
      <trkpt lat="43.73165" lon="5.96361">
        <ele>360.3</ele>
        <time>2023-06-11T11:29:23Z</time>
      </trkpt>
      <trkpt lat="43.73165" lon="5.96361">
        <ele>360.2</ele>
        <time>2023-06-11T11:29:24Z</time>
      </trkpt>
      <trkpt lat="43.73165" lon="5.96361">
        <ele>360.1</ele>
        <time>2023-06-11T11:29:25Z</time>
      </trkpt>
      <trkpt lat="43.73165" lon="5.96361">
        <ele>360.1</ele>
        <time>2023-06-11T11:29:26Z</time>
      </trkpt>
      <trkpt lat="43.73164" lon="5.96361">
        <ele>360</ele>
        <time>2023-06-11T11:29:27Z</time>
      </trkpt>
      <trkpt lat="43.73164" lon="5.96361">
        <ele>360.1</ele>
        <time>2023-06-11T11:29:28Z</time>
      </trkpt>
      <trkpt lat="43.73164" lon="5.96361">
        <ele>360.1</ele>
        <time>2023-06-11T11:29:29Z</time>
      </trkpt>
      <trkpt lat="43.73164" lon="5.96361">
        <ele>360.1</ele>
        <time>2023-06-11T11:29:30Z</time>
      </trkpt>
      <trkpt lat="43.73164" lon="5.96361">
        <ele>360.1</ele>
        <time>2023-06-11T11:29:31Z</time>
      </trkpt>
      <trkpt lat="43.73164" lon="5.96361">
        <ele>360.1</ele>
        <time>2023-06-11T11:29:32Z</time>
      </trkpt>
      <trkpt lat="43.73164" lon="5.96361">
        <ele>360.1</ele>
        <time>2023-06-11T11:29:33Z</time>
      </trkpt>
      <trkpt lat="43.73164" lon="5.96361">
        <ele>360.1</ele>
        <time>2023-06-11T11:29:34Z</time>
      </trkpt>
      <trkpt lat="43.73164" lon="5.96361">
        <ele>360.1</ele>
        <time>2023-06-11T11:29:35Z</time>
      </trkpt>
      <trkpt lat="43.73164" lon="5.96361">
        <ele>360.1</ele>
        <time>2023-06-11T11:29:36Z</time>
      </trkpt>
      <trkpt lat="43.73164" lon="5.96361">
        <ele>360.1</ele>
        <time>2023-06-11T11:29:37Z</time>
      </trkpt>
      <trkpt lat="43.73164" lon="5.96361">
        <ele>360.1</ele>
        <time>2023-06-11T11:29:38Z</time>
      </trkpt>
      <trkpt lat="43.73164" lon="5.96361">
        <ele>360.1</ele>
        <time>2023-06-11T11:29:39Z</time>
      </trkpt>
      <trkpt lat="43.73164" lon="5.96361">
        <ele>360.1</ele>
        <time>2023-06-11T11:29:40Z</time>
      </trkpt>
      <trkpt lat="43.73164" lon="5.96361">
        <ele>360.1</ele>
        <time>2023-06-11T11:29:41Z</time>
      </trkpt>
      <trkpt lat="43.73164" lon="5.96361">
        <ele>360.1</ele>
        <time>2023-06-11T11:29:42Z</time>
      </trkpt>
      <trkpt lat="43.73164" lon="5.96361">
        <ele>360.2</ele>
        <time>2023-06-11T11:29:43Z</time>
      </trkpt>
      <trkpt lat="43.73164" lon="5.96361">
        <ele>360.2</ele>
        <time>2023-06-11T11:29:44Z</time>
      </trkpt>
      <trkpt lat="43.73164" lon="5.96361">
        <ele>360.1</ele>
        <time>2023-06-11T11:29:45Z</time>
      </trkpt>
      <trkpt lat="43.73164" lon="5.96361">
        <ele>360.1</ele>
        <time>2023-06-11T11:29:46Z</time>
      </trkpt>
      <trkpt lat="43.73164" lon="5.9636">
        <ele>360.1</ele>
        <time>2023-06-11T11:29:47Z</time>
      </trkpt>
      <trkpt lat="43.73164" lon="5.96361">
        <ele>360.2</ele>
        <time>2023-06-11T11:29:48Z</time>
      </trkpt>
      <trkpt lat="43.73164" lon="5.9636">
        <ele>360.2</ele>
        <time>2023-06-11T11:29:49Z</time>
      </trkpt>
      <trkpt lat="43.73164" lon="5.9636">
        <ele>360.2</ele>
        <time>2023-06-11T11:29:50Z</time>
      </trkpt>
      <trkpt lat="43.73164" lon="5.9636">
        <ele>360.1</ele>
        <time>2023-06-11T11:29:51Z</time>
      </trkpt>
      <trkpt lat="43.73164" lon="5.9636">
        <ele>360.1</ele>
        <time>2023-06-11T11:29:52Z</time>
      </trkpt>
      <trkpt lat="43.73164" lon="5.96361">
        <ele>360</ele>
        <time>2023-06-11T11:29:53Z</time>
      </trkpt>
      <trkpt lat="43.73163" lon="5.96361">
        <ele>360</ele>
        <time>2023-06-11T11:29:54Z</time>
      </trkpt>
      <trkpt lat="43.73163" lon="5.96361">
        <ele>360</ele>
        <time>2023-06-11T11:29:55Z</time>
      </trkpt>
      <trkpt lat="43.73163" lon="5.9636">
        <ele>359.9</ele>
        <time>2023-06-11T11:29:56Z</time>
      </trkpt>
      <trkpt lat="43.73163" lon="5.96361">
        <ele>359.9</ele>
        <time>2023-06-11T11:29:57Z</time>
      </trkpt>
      <trkpt lat="43.73163" lon="5.96361">
        <ele>359.8</ele>
        <time>2023-06-11T11:29:58Z</time>
      </trkpt>
      <trkpt lat="43.73163" lon="5.96361">
        <ele>359.8</ele>
        <time>2023-06-11T11:29:59Z</time>
      </trkpt>
      <trkpt lat="43.73163" lon="5.9636">
        <ele>359.7</ele>
        <time>2023-06-11T11:30:00Z</time>
      </trkpt>
      <trkpt lat="43.73163" lon="5.9636">
        <ele>359.7</ele>
        <time>2023-06-11T11:30:01Z</time>
      </trkpt>
      <trkpt lat="43.73163" lon="5.9636">
        <ele>359.6</ele>
        <time>2023-06-11T11:30:02Z</time>
      </trkpt>
      <trkpt lat="43.73163" lon="5.9636">
        <ele>359.6</ele>
        <time>2023-06-11T11:30:03Z</time>
      </trkpt>
      <trkpt lat="43.73163" lon="5.9636">
        <ele>359.6</ele>
        <time>2023-06-11T11:30:04Z</time>
      </trkpt>
      <trkpt lat="43.73163" lon="5.9636">
        <ele>359.6</ele>
        <time>2023-06-11T11:30:05Z</time>
      </trkpt>
      <trkpt lat="43.73163" lon="5.9636">
        <ele>359.6</ele>
        <time>2023-06-11T11:30:06Z</time>
      </trkpt>
      <trkpt lat="43.73163" lon="5.9636">
        <ele>359.7</ele>
        <time>2023-06-11T11:30:07Z</time>
      </trkpt>
      <trkpt lat="43.73163" lon="5.9636">
        <ele>359.8</ele>
        <time>2023-06-11T11:30:08Z</time>
      </trkpt>
      <trkpt lat="43.73163" lon="5.9636">
        <ele>359.9</ele>
        <time>2023-06-11T11:30:09Z</time>
      </trkpt>
      <trkpt lat="43.73163" lon="5.9636">
        <ele>359.9</ele>
        <time>2023-06-11T11:30:10Z</time>
      </trkpt>
      <trkpt lat="43.73163" lon="5.9636">
        <ele>359.9</ele>
        <time>2023-06-11T11:30:11Z</time>
      </trkpt>
      <trkpt lat="43.73163" lon="5.9636">
        <ele>359.9</ele>
        <time>2023-06-11T11:30:12Z</time>
      </trkpt>
      <trkpt lat="43.73163" lon="5.9636">
        <ele>359.9</ele>
        <time>2023-06-11T11:30:13Z</time>
      </trkpt>
      <trkpt lat="43.73163" lon="5.9636">
        <ele>359.9</ele>
        <time>2023-06-11T11:30:14Z</time>
      </trkpt>
      <trkpt lat="43.73164" lon="5.9636">
        <ele>359.9</ele>
        <time>2023-06-11T11:30:15Z</time>
      </trkpt>
      <trkpt lat="43.73164" lon="5.9636">
        <ele>360</ele>
        <time>2023-06-11T11:30:16Z</time>
      </trkpt>
      <trkpt lat="43.73164" lon="5.9636">
        <ele>359.9</ele>
        <time>2023-06-11T11:30:17Z</time>
      </trkpt>
      <trkpt lat="43.73164" lon="5.96359">
        <ele>359.9</ele>
        <time>2023-06-11T11:30:18Z</time>
      </trkpt>
      <trkpt lat="43.73164" lon="5.96359">
        <ele>359.9</ele>
        <time>2023-06-11T11:30:19Z</time>
      </trkpt>
      <trkpt lat="43.73164" lon="5.96359">
        <ele>359.9</ele>
        <time>2023-06-11T11:30:20Z</time>
      </trkpt>
      <trkpt lat="43.73164" lon="5.96359">
        <ele>359.9</ele>
        <time>2023-06-11T11:30:21Z</time>
      </trkpt>
      <trkpt lat="43.73164" lon="5.96359">
        <ele>359.9</ele>
        <time>2023-06-11T11:30:22Z</time>
      </trkpt>
      <trkpt lat="43.73164" lon="5.96359">
        <ele>359.9</ele>
        <time>2023-06-11T11:30:23Z</time>
      </trkpt>
      <trkpt lat="43.73164" lon="5.96359">
        <ele>359.9</ele>
        <time>2023-06-11T11:30:24Z</time>
      </trkpt>
      <trkpt lat="43.73164" lon="5.96359">
        <ele>359.9</ele>
        <time>2023-06-11T11:30:25Z</time>
      </trkpt>
      <trkpt lat="43.73164" lon="5.96359">
        <ele>359.9</ele>
        <time>2023-06-11T11:30:26Z</time>
      </trkpt>
      <trkpt lat="43.73164" lon="5.96359">
        <ele>359.8</ele>
        <time>2023-06-11T11:30:27Z</time>
      </trkpt>
      <trkpt lat="43.73164" lon="5.96359">
        <ele>359.9</ele>
        <time>2023-06-11T11:30:28Z</time>
      </trkpt>
      <trkpt lat="43.73164" lon="5.96359">
        <ele>359.9</ele>
        <time>2023-06-11T11:30:29Z</time>
      </trkpt>
      <trkpt lat="43.73164" lon="5.96359">
        <ele>360</ele>
        <time>2023-06-11T11:30:30Z</time>
      </trkpt>
      <trkpt lat="43.73164" lon="5.96359">
        <ele>360</ele>
        <time>2023-06-11T11:30:31Z</time>
      </trkpt>
      <trkpt lat="43.73164" lon="5.96359">
        <ele>360</ele>
        <time>2023-06-11T11:30:32Z</time>
      </trkpt>
      <trkpt lat="43.73164" lon="5.96359">
        <ele>360</ele>
        <time>2023-06-11T11:30:33Z</time>
      </trkpt>
      <trkpt lat="43.73164" lon="5.96359">
        <ele>360</ele>
        <time>2023-06-11T11:30:34Z</time>
      </trkpt>
      <trkpt lat="43.73164" lon="5.96359">
        <ele>360</ele>
        <time>2023-06-11T11:30:35Z</time>
      </trkpt>
      <trkpt lat="43.73164" lon="5.96359">
        <ele>360</ele>
        <time>2023-06-11T11:30:36Z</time>
      </trkpt>
      <trkpt lat="43.73164" lon="5.96359">
        <ele>360.1</ele>
        <time>2023-06-11T11:30:37Z</time>
      </trkpt>
      <trkpt lat="43.73164" lon="5.96359">
        <ele>360.1</ele>
        <time>2023-06-11T11:30:38Z</time>
      </trkpt>
      <trkpt lat="43.73164" lon="5.96359">
        <ele>360.1</ele>
        <time>2023-06-11T11:30:39Z</time>
      </trkpt>
      <trkpt lat="43.73164" lon="5.96359">
        <ele>360.1</ele>
        <time>2023-06-11T11:30:40Z</time>
      </trkpt>
      <trkpt lat="43.73164" lon="5.96359">
        <ele>360.2</ele>
        <time>2023-06-11T11:30:41Z</time>
      </trkpt>
      <trkpt lat="43.73164" lon="5.96359">
        <ele>360.2</ele>
        <time>2023-06-11T11:30:42Z</time>
      </trkpt>
      <trkpt lat="43.73164" lon="5.96359">
        <ele>360.2</ele>
        <time>2023-06-11T11:30:43Z</time>
      </trkpt>
      <trkpt lat="43.73164" lon="5.96359">
        <ele>360.2</ele>
        <time>2023-06-11T11:30:44Z</time>
      </trkpt>
      <trkpt lat="43.73164" lon="5.96359">
        <ele>360.2</ele>
        <time>2023-06-11T11:30:45Z</time>
      </trkpt>
      <trkpt lat="43.73164" lon="5.96359">
        <ele>360.2</ele>
        <time>2023-06-11T11:30:46Z</time>
      </trkpt>
      <trkpt lat="43.73164" lon="5.96359">
        <ele>360.2</ele>
        <time>2023-06-11T11:30:47Z</time>
      </trkpt>
      <trkpt lat="43.73164" lon="5.96359">
        <ele>360.2</ele>
        <time>2023-06-11T11:30:48Z</time>
      </trkpt>
      <trkpt lat="43.73164" lon="5.96359">
        <ele>360.1</ele>
        <time>2023-06-11T11:30:49Z</time>
      </trkpt>
      <trkpt lat="43.73164" lon="5.96359">
        <ele>360.1</ele>
        <time>2023-06-11T11:30:50Z</time>
      </trkpt>
      <trkpt lat="43.73164" lon="5.96359">
        <ele>360.1</ele>
        <time>2023-06-11T11:30:51Z</time>
      </trkpt>
      <trkpt lat="43.73164" lon="5.96359">
        <ele>360.1</ele>
        <time>2023-06-11T11:30:52Z</time>
      </trkpt>
      <trkpt lat="43.73164" lon="5.96359">
        <ele>360.2</ele>
        <time>2023-06-11T11:30:53Z</time>
      </trkpt>
      <trkpt lat="43.73164" lon="5.9636">
        <ele>360.1</ele>
        <time>2023-06-11T11:30:54Z</time>
      </trkpt>
      <trkpt lat="43.73164" lon="5.9636">
        <ele>360.1</ele>
        <time>2023-06-11T11:30:55Z</time>
      </trkpt>
      <trkpt lat="43.73164" lon="5.9636">
        <ele>360</ele>
        <time>2023-06-11T11:30:56Z</time>
      </trkpt>
      <trkpt lat="43.73164" lon="5.9636">
        <ele>360</ele>
        <time>2023-06-11T11:30:57Z</time>
      </trkpt>
      <trkpt lat="43.73164" lon="5.9636">
        <ele>360</ele>
        <time>2023-06-11T11:30:58Z</time>
      </trkpt>
      <trkpt lat="43.73164" lon="5.9636">
        <ele>360</ele>
        <time>2023-06-11T11:30:59Z</time>
      </trkpt>
      <trkpt lat="43.73164" lon="5.9636">
        <ele>359.9</ele>
        <time>2023-06-11T11:31:00Z</time>
      </trkpt>
      <trkpt lat="43.73164" lon="5.9636">
        <ele>359.9</ele>
        <time>2023-06-11T11:31:01Z</time>
      </trkpt>
      <trkpt lat="43.73164" lon="5.9636">
        <ele>360</ele>
        <time>2023-06-11T11:31:02Z</time>
      </trkpt>
      <trkpt lat="43.73164" lon="5.9636">
        <ele>360.1</ele>
        <time>2023-06-11T11:31:03Z</time>
      </trkpt>
      <trkpt lat="43.73164" lon="5.9636">
        <ele>360.1</ele>
        <time>2023-06-11T11:31:04Z</time>
      </trkpt>
      <trkpt lat="43.73164" lon="5.9636">
        <ele>360</ele>
        <time>2023-06-11T11:31:05Z</time>
      </trkpt>
      <trkpt lat="43.73164" lon="5.9636">
        <ele>360</ele>
        <time>2023-06-11T11:31:06Z</time>
      </trkpt>
      <trkpt lat="43.73164" lon="5.9636">
        <ele>360</ele>
        <time>2023-06-11T11:31:07Z</time>
      </trkpt>
      <trkpt lat="43.73164" lon="5.9636">
        <ele>360</ele>
        <time>2023-06-11T11:31:08Z</time>
      </trkpt>
      <trkpt lat="43.73164" lon="5.9636">
        <ele>360</ele>
        <time>2023-06-11T11:31:09Z</time>
      </trkpt>
      <trkpt lat="43.73164" lon="5.9636">
        <ele>360</ele>
        <time>2023-06-11T11:31:10Z</time>
      </trkpt>
      <trkpt lat="43.73164" lon="5.9636">
        <ele>360</ele>
        <time>2023-06-11T11:31:11Z</time>
      </trkpt>
      <trkpt lat="43.73164" lon="5.9636">
        <ele>360</ele>
        <time>2023-06-11T11:31:12Z</time>
      </trkpt>
      <trkpt lat="43.73164" lon="5.9636">
        <ele>360</ele>
        <time>2023-06-11T11:31:13Z</time>
      </trkpt>
      <trkpt lat="43.73164" lon="5.9636">
        <ele>360</ele>
        <time>2023-06-11T11:31:14Z</time>
      </trkpt>
      <trkpt lat="43.73164" lon="5.9636">
        <ele>360</ele>
        <time>2023-06-11T11:31:15Z</time>
      </trkpt>
      <trkpt lat="43.73164" lon="5.9636">
        <ele>360</ele>
        <time>2023-06-11T11:31:16Z</time>
      </trkpt>
      <trkpt lat="43.73165" lon="5.9636">
        <ele>360</ele>
        <time>2023-06-11T11:31:17Z</time>
      </trkpt>
      <trkpt lat="43.73165" lon="5.9636">
        <ele>360</ele>
        <time>2023-06-11T11:31:18Z</time>
      </trkpt>
      <trkpt lat="43.73165" lon="5.9636">
        <ele>360</ele>
        <time>2023-06-11T11:31:19Z</time>
      </trkpt>
      <trkpt lat="43.73165" lon="5.9636">
        <ele>359.9</ele>
        <time>2023-06-11T11:31:20Z</time>
      </trkpt>
      <trkpt lat="43.73165" lon="5.9636">
        <ele>359.9</ele>
        <time>2023-06-11T11:31:21Z</time>
      </trkpt>
      <trkpt lat="43.73165" lon="5.9636">
        <ele>359.8</ele>
        <time>2023-06-11T11:31:22Z</time>
      </trkpt>
      <trkpt lat="43.73165" lon="5.9636">
        <ele>359.8</ele>
        <time>2023-06-11T11:31:23Z</time>
      </trkpt>
      <trkpt lat="43.73165" lon="5.9636">
        <ele>359.7</ele>
        <time>2023-06-11T11:31:24Z</time>
      </trkpt>
      <trkpt lat="43.73165" lon="5.9636">
        <ele>359.7</ele>
        <time>2023-06-11T11:31:25Z</time>
      </trkpt>
      <trkpt lat="43.73165" lon="5.9636">
        <ele>359.7</ele>
        <time>2023-06-11T11:31:26Z</time>
      </trkpt>
      <trkpt lat="43.73165" lon="5.9636">
        <ele>359.7</ele>
        <time>2023-06-11T11:31:27Z</time>
      </trkpt>
      <trkpt lat="43.73165" lon="5.9636">
        <ele>359.7</ele>
        <time>2023-06-11T11:31:28Z</time>
      </trkpt>
      <trkpt lat="43.73165" lon="5.9636">
        <ele>359.6</ele>
        <time>2023-06-11T11:31:29Z</time>
      </trkpt>
      <trkpt lat="43.73165" lon="5.9636">
        <ele>359.7</ele>
        <time>2023-06-11T11:31:30Z</time>
      </trkpt>
      <trkpt lat="43.73165" lon="5.9636">
        <ele>359.7</ele>
        <time>2023-06-11T11:31:31Z</time>
      </trkpt>
      <trkpt lat="43.73165" lon="5.9636">
        <ele>359.8</ele>
        <time>2023-06-11T11:31:32Z</time>
      </trkpt>
      <trkpt lat="43.73165" lon="5.9636">
        <ele>359.8</ele>
        <time>2023-06-11T11:31:33Z</time>
      </trkpt>
      <trkpt lat="43.73165" lon="5.9636">
        <ele>359.8</ele>
        <time>2023-06-11T11:31:34Z</time>
      </trkpt>
      <trkpt lat="43.73165" lon="5.9636">
        <ele>359.9</ele>
        <time>2023-06-11T11:31:35Z</time>
      </trkpt>
      <trkpt lat="43.73165" lon="5.9636">
        <ele>359.9</ele>
        <time>2023-06-11T11:31:36Z</time>
      </trkpt>
      <trkpt lat="43.73165" lon="5.9636">
        <ele>360</ele>
        <time>2023-06-11T11:31:37Z</time>
      </trkpt>
      <trkpt lat="43.73165" lon="5.9636">
        <ele>360</ele>
        <time>2023-06-11T11:31:38Z</time>
      </trkpt>
      <trkpt lat="43.73165" lon="5.9636">
        <ele>360</ele>
        <time>2023-06-11T11:31:39Z</time>
      </trkpt>
      <trkpt lat="43.73164" lon="5.9636">
        <ele>360</ele>
        <time>2023-06-11T11:31:40Z</time>
      </trkpt>
      <trkpt lat="43.73164" lon="5.9636">
        <ele>360</ele>
        <time>2023-06-11T11:31:41Z</time>
      </trkpt>
      <trkpt lat="43.73164" lon="5.9636">
        <ele>360</ele>
        <time>2023-06-11T11:31:42Z</time>
      </trkpt>
      <trkpt lat="43.73164" lon="5.9636">
        <ele>359.9</ele>
        <time>2023-06-11T11:31:43Z</time>
      </trkpt>
      <trkpt lat="43.73164" lon="5.9636">
        <ele>359.9</ele>
        <time>2023-06-11T11:31:44Z</time>
      </trkpt>
      <trkpt lat="43.73164" lon="5.9636">
        <ele>359.9</ele>
        <time>2023-06-11T11:31:45Z</time>
      </trkpt>
      <trkpt lat="43.73165" lon="5.9636">
        <ele>360</ele>
        <time>2023-06-11T11:31:46Z</time>
      </trkpt>
      <trkpt lat="43.73165" lon="5.9636">
        <ele>360</ele>
        <time>2023-06-11T11:31:47Z</time>
      </trkpt>
      <trkpt lat="43.73165" lon="5.9636">
        <ele>360.1</ele>
        <time>2023-06-11T11:31:48Z</time>
      </trkpt>
      <trkpt lat="43.73165" lon="5.9636">
        <ele>360.2</ele>
        <time>2023-06-11T11:31:49Z</time>
      </trkpt>
      <trkpt lat="43.73164" lon="5.9636">
        <ele>360.2</ele>
        <time>2023-06-11T11:31:50Z</time>
      </trkpt>
      <trkpt lat="43.73164" lon="5.9636">
        <ele>360.2</ele>
        <time>2023-06-11T11:31:51Z</time>
      </trkpt>
      <trkpt lat="43.73164" lon="5.9636">
        <ele>360.2</ele>
        <time>2023-06-11T11:31:52Z</time>
      </trkpt>
      <trkpt lat="43.73164" lon="5.9636">
        <ele>360.2</ele>
        <time>2023-06-11T11:31:53Z</time>
      </trkpt>
      <trkpt lat="43.73164" lon="5.9636">
        <ele>360.2</ele>
        <time>2023-06-11T11:31:54Z</time>
      </trkpt>
      <trkpt lat="43.73164" lon="5.9636">
        <ele>360.2</ele>
        <time>2023-06-11T11:31:55Z</time>
      </trkpt>
      <trkpt lat="43.73164" lon="5.9636">
        <ele>360.2</ele>
        <time>2023-06-11T11:31:56Z</time>
      </trkpt>
      <trkpt lat="43.73164" lon="5.9636">
        <ele>360.2</ele>
        <time>2023-06-11T11:31:57Z</time>
      </trkpt>
      <trkpt lat="43.73164" lon="5.9636">
        <ele>360.2</ele>
        <time>2023-06-11T11:31:58Z</time>
      </trkpt>
      <trkpt lat="43.73164" lon="5.9636">
        <ele>360.2</ele>
        <time>2023-06-11T11:31:59Z</time>
      </trkpt>
      <trkpt lat="43.73164" lon="5.9636">
        <ele>360.2</ele>
        <time>2023-06-11T11:32:00Z</time>
      </trkpt>
      <trkpt lat="43.73164" lon="5.9636">
        <ele>360.2</ele>
        <time>2023-06-11T11:32:01Z</time>
      </trkpt>
      <trkpt lat="43.73164" lon="5.9636">
        <ele>360.2</ele>
        <time>2023-06-11T11:32:02Z</time>
      </trkpt>
      <trkpt lat="43.73164" lon="5.96359">
        <ele>360.3</ele>
        <time>2023-06-11T11:32:03Z</time>
      </trkpt>
      <trkpt lat="43.73164" lon="5.96359">
        <ele>360.3</ele>
        <time>2023-06-11T11:32:04Z</time>
      </trkpt>
      <trkpt lat="43.73164" lon="5.96359">
        <ele>360.3</ele>
        <time>2023-06-11T11:32:05Z</time>
      </trkpt>
      <trkpt lat="43.73164" lon="5.9636">
        <ele>360.3</ele>
        <time>2023-06-11T11:32:06Z</time>
      </trkpt>
      <trkpt lat="43.73164" lon="5.9636">
        <ele>360.2</ele>
        <time>2023-06-11T11:32:07Z</time>
      </trkpt>
      <trkpt lat="43.73164" lon="5.9636">
        <ele>360.2</ele>
        <time>2023-06-11T11:32:08Z</time>
      </trkpt>
      <trkpt lat="43.73164" lon="5.9636">
        <ele>360.1</ele>
        <time>2023-06-11T11:32:09Z</time>
      </trkpt>
      <trkpt lat="43.73164" lon="5.9636">
        <ele>360.1</ele>
        <time>2023-06-11T11:32:10Z</time>
      </trkpt>
      <trkpt lat="43.73164" lon="5.9636">
        <ele>360.1</ele>
        <time>2023-06-11T11:32:11Z</time>
      </trkpt>
      <trkpt lat="43.73164" lon="5.9636">
        <ele>360</ele>
        <time>2023-06-11T11:32:12Z</time>
      </trkpt>
      <trkpt lat="43.73164" lon="5.9636">
        <ele>360.1</ele>
        <time>2023-06-11T11:32:13Z</time>
      </trkpt>
      <trkpt lat="43.73164" lon="5.9636">
        <ele>360.1</ele>
        <time>2023-06-11T11:32:14Z</time>
      </trkpt>
      <trkpt lat="43.73164" lon="5.9636">
        <ele>360.2</ele>
        <time>2023-06-11T11:32:15Z</time>
      </trkpt>
      <trkpt lat="43.73165" lon="5.9636">
        <ele>360.2</ele>
        <time>2023-06-11T11:32:16Z</time>
      </trkpt>
      <trkpt lat="43.73165" lon="5.9636">
        <ele>360.3</ele>
        <time>2023-06-11T11:32:17Z</time>
      </trkpt>
      <trkpt lat="43.73164" lon="5.9636">
        <ele>360.2</ele>
        <time>2023-06-11T11:32:18Z</time>
      </trkpt>
      <trkpt lat="43.73165" lon="5.9636">
        <ele>360.2</ele>
        <time>2023-06-11T11:32:19Z</time>
      </trkpt>
      <trkpt lat="43.73165" lon="5.9636">
        <ele>360.2</ele>
        <time>2023-06-11T11:32:20Z</time>
      </trkpt>
      <trkpt lat="43.73165" lon="5.9636">
        <ele>360.2</ele>
        <time>2023-06-11T11:32:21Z</time>
      </trkpt>
      <trkpt lat="43.73165" lon="5.9636">
        <ele>360.2</ele>
        <time>2023-06-11T11:32:22Z</time>
      </trkpt>
      <trkpt lat="43.73165" lon="5.9636">
        <ele>360.1</ele>
        <time>2023-06-11T11:32:23Z</time>
      </trkpt>
      <trkpt lat="43.73165" lon="5.9636">
        <ele>360.1</ele>
        <time>2023-06-11T11:32:24Z</time>
      </trkpt>
      <trkpt lat="43.73165" lon="5.9636">
        <ele>360.1</ele>
        <time>2023-06-11T11:32:25Z</time>
      </trkpt>
      <trkpt lat="43.73165" lon="5.9636">
        <ele>360.1</ele>
        <time>2023-06-11T11:32:26Z</time>
      </trkpt>
      <trkpt lat="43.73165" lon="5.9636">
        <ele>360.1</ele>
        <time>2023-06-11T11:32:27Z</time>
      </trkpt>
      <trkpt lat="43.73165" lon="5.9636">
        <ele>360.1</ele>
        <time>2023-06-11T11:32:28Z</time>
      </trkpt>
      <trkpt lat="43.73165" lon="5.9636">
        <ele>360.1</ele>
        <time>2023-06-11T11:32:29Z</time>
      </trkpt>
      <trkpt lat="43.73165" lon="5.9636">
        <ele>360.1</ele>
        <time>2023-06-11T11:32:30Z</time>
      </trkpt>
      <trkpt lat="43.73165" lon="5.9636">
        <ele>360</ele>
        <time>2023-06-11T11:32:31Z</time>
      </trkpt>
      <trkpt lat="43.73165" lon="5.96359">
        <ele>360</ele>
        <time>2023-06-11T11:32:32Z</time>
      </trkpt>
      <trkpt lat="43.73165" lon="5.96359">
        <ele>360</ele>
        <time>2023-06-11T11:32:33Z</time>
      </trkpt>
      <trkpt lat="43.73165" lon="5.96359">
        <ele>360</ele>
        <time>2023-06-11T11:32:34Z</time>
      </trkpt>
      <trkpt lat="43.73165" lon="5.96359">
        <ele>360</ele>
        <time>2023-06-11T11:32:35Z</time>
      </trkpt>
      <trkpt lat="43.73165" lon="5.96359">
        <ele>360</ele>
        <time>2023-06-11T11:32:36Z</time>
      </trkpt>
      <trkpt lat="43.73165" lon="5.96359">
        <ele>360</ele>
        <time>2023-06-11T11:32:37Z</time>
      </trkpt>
      <trkpt lat="43.73165" lon="5.96359">
        <ele>360</ele>
        <time>2023-06-11T11:32:38Z</time>
      </trkpt>
      <trkpt lat="43.73165" lon="5.96359">
        <ele>360</ele>
        <time>2023-06-11T11:32:39Z</time>
      </trkpt>
      <trkpt lat="43.73165" lon="5.96359">
        <ele>360</ele>
        <time>2023-06-11T11:32:40Z</time>
      </trkpt>
      <trkpt lat="43.73165" lon="5.96359">
        <ele>360</ele>
        <time>2023-06-11T11:32:41Z</time>
      </trkpt>
      <trkpt lat="43.73165" lon="5.96359">
        <ele>360</ele>
        <time>2023-06-11T11:32:42Z</time>
      </trkpt>
      <trkpt lat="43.73165" lon="5.96359">
        <ele>360</ele>
        <time>2023-06-11T11:32:43Z</time>
      </trkpt>
      <trkpt lat="43.73165" lon="5.96359">
        <ele>360</ele>
        <time>2023-06-11T11:32:44Z</time>
      </trkpt>
      <trkpt lat="43.73165" lon="5.9636">
        <ele>360</ele>
        <time>2023-06-11T11:32:45Z</time>
      </trkpt>
      <trkpt lat="43.73165" lon="5.9636">
        <ele>360</ele>
        <time>2023-06-11T11:32:46Z</time>
      </trkpt>
      <trkpt lat="43.73165" lon="5.9636">
        <ele>360</ele>
        <time>2023-06-11T11:32:47Z</time>
      </trkpt>
      <trkpt lat="43.73165" lon="5.9636">
        <ele>360</ele>
        <time>2023-06-11T11:32:48Z</time>
      </trkpt>
      <trkpt lat="43.73165" lon="5.9636">
        <ele>359.9</ele>
        <time>2023-06-11T11:32:49Z</time>
      </trkpt>
      <trkpt lat="43.73165" lon="5.9636">
        <ele>359.9</ele>
        <time>2023-06-11T11:32:50Z</time>
      </trkpt>
      <trkpt lat="43.73165" lon="5.9636">
        <ele>359.9</ele>
        <time>2023-06-11T11:32:51Z</time>
      </trkpt>
      <trkpt lat="43.73165" lon="5.9636">
        <ele>359.9</ele>
        <time>2023-06-11T11:32:52Z</time>
      </trkpt>
      <trkpt lat="43.73165" lon="5.9636">
        <ele>359.9</ele>
        <time>2023-06-11T11:32:53Z</time>
      </trkpt>
      <trkpt lat="43.73165" lon="5.9636">
        <ele>359.8</ele>
        <time>2023-06-11T11:32:54Z</time>
      </trkpt>
      <trkpt lat="43.73165" lon="5.9636">
        <ele>359.8</ele>
        <time>2023-06-11T11:32:55Z</time>
      </trkpt>
      <trkpt lat="43.73165" lon="5.9636">
        <ele>359.8</ele>
        <time>2023-06-11T11:32:56Z</time>
      </trkpt>
      <trkpt lat="43.73165" lon="5.9636">
        <ele>359.8</ele>
        <time>2023-06-11T11:32:57Z</time>
      </trkpt>
      <trkpt lat="43.73165" lon="5.9636">
        <ele>359.8</ele>
        <time>2023-06-11T11:32:58Z</time>
      </trkpt>
      <trkpt lat="43.73165" lon="5.9636">
        <ele>359.9</ele>
        <time>2023-06-11T11:32:59Z</time>
      </trkpt>
      <trkpt lat="43.73165" lon="5.9636">
        <ele>359.9</ele>
        <time>2023-06-11T11:33:00Z</time>
      </trkpt>
      <trkpt lat="43.73165" lon="5.9636">
        <ele>359.9</ele>
        <time>2023-06-11T11:33:01Z</time>
      </trkpt>
      <trkpt lat="43.73165" lon="5.9636">
        <ele>359.9</ele>
        <time>2023-06-11T11:33:02Z</time>
      </trkpt>
      <trkpt lat="43.73166" lon="5.9636">
        <ele>359.9</ele>
        <time>2023-06-11T11:33:03Z</time>
      </trkpt>
      <trkpt lat="43.73166" lon="5.9636">
        <ele>359.9</ele>
        <time>2023-06-11T11:33:04Z</time>
      </trkpt>
      <trkpt lat="43.73166" lon="5.9636">
        <ele>359.9</ele>
        <time>2023-06-11T11:33:05Z</time>
      </trkpt>
      <trkpt lat="43.73166" lon="5.9636">
        <ele>359.9</ele>
        <time>2023-06-11T11:33:06Z</time>
      </trkpt>
      <trkpt lat="43.73166" lon="5.9636">
        <ele>360</ele>
        <time>2023-06-11T11:33:07Z</time>
      </trkpt>
      <trkpt lat="43.73166" lon="5.9636">
        <ele>359.9</ele>
        <time>2023-06-11T11:33:08Z</time>
      </trkpt>
      <trkpt lat="43.73166" lon="5.9636">
        <ele>359.9</ele>
        <time>2023-06-11T11:33:09Z</time>
      </trkpt>
      <trkpt lat="43.73166" lon="5.9636">
        <ele>359.9</ele>
        <time>2023-06-11T11:33:10Z</time>
      </trkpt>
      <trkpt lat="43.73166" lon="5.9636">
        <ele>360</ele>
        <time>2023-06-11T11:33:11Z</time>
      </trkpt>
      <trkpt lat="43.73166" lon="5.9636">
        <ele>360.1</ele>
        <time>2023-06-11T11:33:12Z</time>
      </trkpt>
      <trkpt lat="43.73166" lon="5.9636">
        <ele>360.1</ele>
        <time>2023-06-11T11:33:13Z</time>
      </trkpt>
      <trkpt lat="43.73166" lon="5.9636">
        <ele>360.2</ele>
        <time>2023-06-11T11:33:14Z</time>
      </trkpt>
      <trkpt lat="43.73166" lon="5.9636">
        <ele>360.1</ele>
        <time>2023-06-11T11:33:15Z</time>
      </trkpt>
      <trkpt lat="43.73166" lon="5.9636">
        <ele>360.1</ele>
        <time>2023-06-11T11:33:16Z</time>
      </trkpt>
      <trkpt lat="43.73166" lon="5.9636">
        <ele>360</ele>
        <time>2023-06-11T11:33:17Z</time>
      </trkpt>
      <trkpt lat="43.73166" lon="5.9636">
        <ele>360</ele>
        <time>2023-06-11T11:33:18Z</time>
      </trkpt>
      <trkpt lat="43.73166" lon="5.9636">
        <ele>360</ele>
        <time>2023-06-11T11:33:19Z</time>
      </trkpt>
      <trkpt lat="43.73166" lon="5.9636">
        <ele>360</ele>
        <time>2023-06-11T11:33:20Z</time>
      </trkpt>
      <trkpt lat="43.73166" lon="5.9636">
        <ele>360</ele>
        <time>2023-06-11T11:33:21Z</time>
      </trkpt>
      <trkpt lat="43.73166" lon="5.96361">
        <ele>360.1</ele>
        <time>2023-06-11T11:33:22Z</time>
      </trkpt>
      <trkpt lat="43.73166" lon="5.96361">
        <ele>360.1</ele>
        <time>2023-06-11T11:33:23Z</time>
      </trkpt>
      <trkpt lat="43.73166" lon="5.96361">
        <ele>360</ele>
        <time>2023-06-11T11:33:24Z</time>
      </trkpt>
      <trkpt lat="43.73166" lon="5.96361">
        <ele>360</ele>
        <time>2023-06-11T11:33:25Z</time>
      </trkpt>
      <trkpt lat="43.73166" lon="5.96361">
        <ele>360</ele>
        <time>2023-06-11T11:33:26Z</time>
      </trkpt>
      <trkpt lat="43.73166" lon="5.9636">
        <ele>360</ele>
        <time>2023-06-11T11:33:27Z</time>
      </trkpt>
      <trkpt lat="43.73166" lon="5.9636">
        <ele>360</ele>
        <time>2023-06-11T11:33:28Z</time>
      </trkpt>
      <trkpt lat="43.73166" lon="5.9636">
        <ele>360.1</ele>
        <time>2023-06-11T11:33:29Z</time>
      </trkpt>
      <trkpt lat="43.73166" lon="5.96361">
        <ele>360.1</ele>
        <time>2023-06-11T11:33:30Z</time>
      </trkpt>
      <trkpt lat="43.73166" lon="5.9636">
        <ele>360.1</ele>
        <time>2023-06-11T11:33:31Z</time>
      </trkpt>
      <trkpt lat="43.73166" lon="5.9636">
        <ele>360.1</ele>
        <time>2023-06-11T11:33:32Z</time>
      </trkpt>
      <trkpt lat="43.73166" lon="5.9636">
        <ele>360</ele>
        <time>2023-06-11T11:33:33Z</time>
      </trkpt>
      <trkpt lat="43.73166" lon="5.9636">
        <ele>360</ele>
        <time>2023-06-11T11:33:34Z</time>
      </trkpt>
      <trkpt lat="43.73166" lon="5.9636">
        <ele>360</ele>
        <time>2023-06-11T11:33:35Z</time>
      </trkpt>
      <trkpt lat="43.73166" lon="5.9636">
        <ele>360</ele>
        <time>2023-06-11T11:33:36Z</time>
      </trkpt>
      <trkpt lat="43.73166" lon="5.9636">
        <ele>360.1</ele>
        <time>2023-06-11T11:33:37Z</time>
      </trkpt>
      <trkpt lat="43.73166" lon="5.9636">
        <ele>360.1</ele>
        <time>2023-06-11T11:33:38Z</time>
      </trkpt>
      <trkpt lat="43.73166" lon="5.9636">
        <ele>360</ele>
        <time>2023-06-11T11:33:39Z</time>
      </trkpt>
      <trkpt lat="43.73166" lon="5.9636">
        <ele>360</ele>
        <time>2023-06-11T11:33:40Z</time>
      </trkpt>
      <trkpt lat="43.73166" lon="5.9636">
        <ele>360</ele>
        <time>2023-06-11T11:33:41Z</time>
      </trkpt>
      <trkpt lat="43.73166" lon="5.9636">
        <ele>360</ele>
        <time>2023-06-11T11:33:42Z</time>
      </trkpt>
      <trkpt lat="43.73166" lon="5.9636">
        <ele>360</ele>
        <time>2023-06-11T11:33:43Z</time>
      </trkpt>
      <trkpt lat="43.73166" lon="5.9636">
        <ele>360</ele>
        <time>2023-06-11T11:33:44Z</time>
      </trkpt>
      <trkpt lat="43.73166" lon="5.9636">
        <ele>360.1</ele>
        <time>2023-06-11T11:33:45Z</time>
      </trkpt>
      <trkpt lat="43.73166" lon="5.9636">
        <ele>360.1</ele>
        <time>2023-06-11T11:33:46Z</time>
      </trkpt>
      <trkpt lat="43.73166" lon="5.9636">
        <ele>360.2</ele>
        <time>2023-06-11T11:33:47Z</time>
      </trkpt>
      <trkpt lat="43.73166" lon="5.9636">
        <ele>360.3</ele>
        <time>2023-06-11T11:33:48Z</time>
      </trkpt>
      <trkpt lat="43.73166" lon="5.9636">
        <ele>360.3</ele>
        <time>2023-06-11T11:33:49Z</time>
      </trkpt>
      <trkpt lat="43.73166" lon="5.9636">
        <ele>360.3</ele>
        <time>2023-06-11T11:33:50Z</time>
      </trkpt>
      <trkpt lat="43.73166" lon="5.9636">
        <ele>360.3</ele>
        <time>2023-06-11T11:33:51Z</time>
      </trkpt>
      <trkpt lat="43.73166" lon="5.9636">
        <ele>360.3</ele>
        <time>2023-06-11T11:33:52Z</time>
      </trkpt>
      <trkpt lat="43.73166" lon="5.9636">
        <ele>360.3</ele>
        <time>2023-06-11T11:33:53Z</time>
      </trkpt>
      <trkpt lat="43.73166" lon="5.9636">
        <ele>360.3</ele>
        <time>2023-06-11T11:33:54Z</time>
      </trkpt>
      <trkpt lat="43.73166" lon="5.9636">
        <ele>360.2</ele>
        <time>2023-06-11T11:33:55Z</time>
      </trkpt>
      <trkpt lat="43.73166" lon="5.9636">
        <ele>360.2</ele>
        <time>2023-06-11T11:33:56Z</time>
      </trkpt>
      <trkpt lat="43.73166" lon="5.9636">
        <ele>360.2</ele>
        <time>2023-06-11T11:33:57Z</time>
      </trkpt>
      <trkpt lat="43.73166" lon="5.9636">
        <ele>360.2</ele>
        <time>2023-06-11T11:33:58Z</time>
      </trkpt>
      <trkpt lat="43.73165" lon="5.9636">
        <ele>360.2</ele>
        <time>2023-06-11T11:33:59Z</time>
      </trkpt>
      <trkpt lat="43.73165" lon="5.9636">
        <ele>360.2</ele>
        <time>2023-06-11T11:34:00Z</time>
      </trkpt>
      <trkpt lat="43.73165" lon="5.9636">
        <ele>360.2</ele>
        <time>2023-06-11T11:34:01Z</time>
      </trkpt>
      <trkpt lat="43.73165" lon="5.9636">
        <ele>360.2</ele>
        <time>2023-06-11T11:34:02Z</time>
      </trkpt>
      <trkpt lat="43.73165" lon="5.9636">
        <ele>360.2</ele>
        <time>2023-06-11T11:34:03Z</time>
      </trkpt>
      <trkpt lat="43.73165" lon="5.9636">
        <ele>360.3</ele>
        <time>2023-06-11T11:34:04Z</time>
      </trkpt>
      <trkpt lat="43.73165" lon="5.9636">
        <ele>360.3</ele>
        <time>2023-06-11T11:34:05Z</time>
      </trkpt>
      <trkpt lat="43.73165" lon="5.9636">
        <ele>360.3</ele>
        <time>2023-06-11T11:34:06Z</time>
      </trkpt>
      <trkpt lat="43.73165" lon="5.9636">
        <ele>360.3</ele>
        <time>2023-06-11T11:34:07Z</time>
      </trkpt>
      <trkpt lat="43.73165" lon="5.9636">
        <ele>360.3</ele>
        <time>2023-06-11T11:34:08Z</time>
      </trkpt>
      <trkpt lat="43.73165" lon="5.9636">
        <ele>360.3</ele>
        <time>2023-06-11T11:34:09Z</time>
      </trkpt>
      <trkpt lat="43.73165" lon="5.9636">
        <ele>360.3</ele>
        <time>2023-06-11T11:34:10Z</time>
      </trkpt>
      <trkpt lat="43.73165" lon="5.9636">
        <ele>360.3</ele>
        <time>2023-06-11T11:34:11Z</time>
      </trkpt>
      <trkpt lat="43.73165" lon="5.9636">
        <ele>360.2</ele>
        <time>2023-06-11T11:34:12Z</time>
      </trkpt>
      <trkpt lat="43.73165" lon="5.9636">
        <ele>360.2</ele>
        <time>2023-06-11T11:34:13Z</time>
      </trkpt>
      <trkpt lat="43.73165" lon="5.9636">
        <ele>360.1</ele>
        <time>2023-06-11T11:34:14Z</time>
      </trkpt>
      <trkpt lat="43.73165" lon="5.9636">
        <ele>360.1</ele>
        <time>2023-06-11T11:34:15Z</time>
      </trkpt>
      <trkpt lat="43.73165" lon="5.9636">
        <ele>360.1</ele>
        <time>2023-06-11T11:34:16Z</time>
      </trkpt>
      <trkpt lat="43.73165" lon="5.9636">
        <ele>360.1</ele>
        <time>2023-06-11T11:34:17Z</time>
      </trkpt>
      <trkpt lat="43.73165" lon="5.9636">
        <ele>360</ele>
        <time>2023-06-11T11:34:18Z</time>
      </trkpt>
      <trkpt lat="43.73164" lon="5.9636">
        <ele>360</ele>
        <time>2023-06-11T11:34:19Z</time>
      </trkpt>
      <trkpt lat="43.73164" lon="5.9636">
        <ele>360</ele>
        <time>2023-06-11T11:34:20Z</time>
      </trkpt>
      <trkpt lat="43.73164" lon="5.96359">
        <ele>359.9</ele>
        <time>2023-06-11T11:34:21Z</time>
      </trkpt>
      <trkpt lat="43.73164" lon="5.96359">
        <ele>359.8</ele>
        <time>2023-06-11T11:34:22Z</time>
      </trkpt>
      <trkpt lat="43.73164" lon="5.96359">
        <ele>359.9</ele>
        <time>2023-06-11T11:34:23Z</time>
      </trkpt>
      <trkpt lat="43.73164" lon="5.96359">
        <ele>359.9</ele>
        <time>2023-06-11T11:34:24Z</time>
      </trkpt>
      <trkpt lat="43.73164" lon="5.96359">
        <ele>360</ele>
        <time>2023-06-11T11:34:25Z</time>
      </trkpt>
      <trkpt lat="43.73164" lon="5.96359">
        <ele>360</ele>
        <time>2023-06-11T11:34:26Z</time>
      </trkpt>
      <trkpt lat="43.73164" lon="5.96359">
        <ele>360</ele>
        <time>2023-06-11T11:34:27Z</time>
      </trkpt>
      <trkpt lat="43.73164" lon="5.96359">
        <ele>360</ele>
        <time>2023-06-11T11:34:28Z</time>
      </trkpt>
      <trkpt lat="43.73164" lon="5.96359">
        <ele>360</ele>
        <time>2023-06-11T11:34:29Z</time>
      </trkpt>
      <trkpt lat="43.73164" lon="5.96359">
        <ele>360</ele>
        <time>2023-06-11T11:34:30Z</time>
      </trkpt>
      <trkpt lat="43.73164" lon="5.96359">
        <ele>360</ele>
        <time>2023-06-11T11:34:31Z</time>
      </trkpt>
      <trkpt lat="43.73164" lon="5.96359">
        <ele>360</ele>
        <time>2023-06-11T11:34:32Z</time>
      </trkpt>
      <trkpt lat="43.73164" lon="5.96359">
        <ele>359.9</ele>
        <time>2023-06-11T11:34:33Z</time>
      </trkpt>
      <trkpt lat="43.73164" lon="5.96359">
        <ele>359.9</ele>
        <time>2023-06-11T11:34:34Z</time>
      </trkpt>
      <trkpt lat="43.73164" lon="5.96358">
        <ele>359.9</ele>
        <time>2023-06-11T11:34:35Z</time>
      </trkpt>
      <trkpt lat="43.73164" lon="5.96358">
        <ele>359.8</ele>
        <time>2023-06-11T11:34:36Z</time>
      </trkpt>
      <trkpt lat="43.73164" lon="5.96358">
        <ele>359.8</ele>
        <time>2023-06-11T11:34:37Z</time>
      </trkpt>
      <trkpt lat="43.73165" lon="5.96358">
        <ele>359.8</ele>
        <time>2023-06-11T11:34:38Z</time>
      </trkpt>
      <trkpt lat="43.73165" lon="5.96358">
        <ele>359.8</ele>
        <time>2023-06-11T11:34:39Z</time>
      </trkpt>
      <trkpt lat="43.73165" lon="5.96358">
        <ele>359.9</ele>
        <time>2023-06-11T11:34:40Z</time>
      </trkpt>
      <trkpt lat="43.73165" lon="5.96358">
        <ele>359.9</ele>
        <time>2023-06-11T11:34:41Z</time>
      </trkpt>
      <trkpt lat="43.73164" lon="5.96358">
        <ele>360</ele>
        <time>2023-06-11T11:34:42Z</time>
      </trkpt>
      <trkpt lat="43.73164" lon="5.96358">
        <ele>360</ele>
        <time>2023-06-11T11:34:43Z</time>
      </trkpt>
      <trkpt lat="43.73165" lon="5.96358">
        <ele>360</ele>
        <time>2023-06-11T11:34:44Z</time>
      </trkpt>
      <trkpt lat="43.73165" lon="5.96358">
        <ele>360</ele>
        <time>2023-06-11T11:34:45Z</time>
      </trkpt>
      <trkpt lat="43.73165" lon="5.96358">
        <ele>360.1</ele>
        <time>2023-06-11T11:34:46Z</time>
      </trkpt>
      <trkpt lat="43.73165" lon="5.96358">
        <ele>360</ele>
        <time>2023-06-11T11:34:47Z</time>
      </trkpt>
      <trkpt lat="43.73164" lon="5.96358">
        <ele>359.9</ele>
        <time>2023-06-11T11:34:48Z</time>
      </trkpt>
      <trkpt lat="43.73164" lon="5.96358">
        <ele>359.9</ele>
        <time>2023-06-11T11:34:49Z</time>
      </trkpt>
      <trkpt lat="43.73164" lon="5.96358">
        <ele>359.8</ele>
        <time>2023-06-11T11:34:50Z</time>
      </trkpt>
      <trkpt lat="43.73165" lon="5.96358">
        <ele>359.8</ele>
        <time>2023-06-11T11:34:51Z</time>
      </trkpt>
      <trkpt lat="43.73165" lon="5.96359">
        <ele>359.8</ele>
        <time>2023-06-11T11:34:52Z</time>
      </trkpt>
      <trkpt lat="43.73164" lon="5.96359">
        <ele>359.8</ele>
        <time>2023-06-11T11:34:53Z</time>
      </trkpt>
      <trkpt lat="43.73164" lon="5.96358">
        <ele>359.7</ele>
        <time>2023-06-11T11:34:54Z</time>
      </trkpt>
      <trkpt lat="43.73165" lon="5.96358">
        <ele>359.7</ele>
        <time>2023-06-11T11:34:55Z</time>
      </trkpt>
      <trkpt lat="43.73165" lon="5.96358">
        <ele>359.7</ele>
        <time>2023-06-11T11:34:56Z</time>
      </trkpt>
      <trkpt lat="43.73164" lon="5.96358">
        <ele>359.8</ele>
        <time>2023-06-11T11:34:57Z</time>
      </trkpt>
      <trkpt lat="43.73164" lon="5.96358">
        <ele>359.9</ele>
        <time>2023-06-11T11:34:58Z</time>
      </trkpt>
      <trkpt lat="43.73164" lon="5.96358">
        <ele>359.9</ele>
        <time>2023-06-11T11:34:59Z</time>
      </trkpt>
      <trkpt lat="43.73164" lon="5.96358">
        <ele>359.8</ele>
        <time>2023-06-11T11:35:00Z</time>
      </trkpt>
      <trkpt lat="43.73164" lon="5.96358">
        <ele>359.8</ele>
        <time>2023-06-11T11:35:01Z</time>
      </trkpt>
      <trkpt lat="43.73164" lon="5.96358">
        <ele>359.8</ele>
        <time>2023-06-11T11:35:02Z</time>
      </trkpt>
      <trkpt lat="43.73164" lon="5.96358">
        <ele>359.8</ele>
        <time>2023-06-11T11:35:03Z</time>
      </trkpt>
      <trkpt lat="43.73165" lon="5.96358">
        <ele>359.9</ele>
        <time>2023-06-11T11:35:04Z</time>
      </trkpt>
      <trkpt lat="43.73165" lon="5.96358">
        <ele>359.9</ele>
        <time>2023-06-11T11:35:05Z</time>
      </trkpt>
      <trkpt lat="43.73165" lon="5.96358">
        <ele>359.9</ele>
        <time>2023-06-11T11:35:06Z</time>
      </trkpt>
      <trkpt lat="43.73165" lon="5.96358">
        <ele>359.9</ele>
        <time>2023-06-11T11:35:07Z</time>
      </trkpt>
      <trkpt lat="43.73165" lon="5.96358">
        <ele>359.9</ele>
        <time>2023-06-11T11:35:08Z</time>
      </trkpt>
      <trkpt lat="43.73165" lon="5.96358">
        <ele>359.9</ele>
        <time>2023-06-11T11:35:09Z</time>
      </trkpt>
      <trkpt lat="43.73165" lon="5.96358">
        <ele>360</ele>
        <time>2023-06-11T11:35:10Z</time>
      </trkpt>
      <trkpt lat="43.73165" lon="5.96358">
        <ele>360</ele>
        <time>2023-06-11T11:35:11Z</time>
      </trkpt>
      <trkpt lat="43.73165" lon="5.96358">
        <ele>360</ele>
        <time>2023-06-11T11:35:12Z</time>
      </trkpt>
      <trkpt lat="43.73165" lon="5.96358">
        <ele>360</ele>
        <time>2023-06-11T11:35:13Z</time>
      </trkpt>
      <trkpt lat="43.73165" lon="5.96358">
        <ele>360</ele>
        <time>2023-06-11T11:35:14Z</time>
      </trkpt>
      <trkpt lat="43.73165" lon="5.96358">
        <ele>360</ele>
        <time>2023-06-11T11:35:15Z</time>
      </trkpt>
      <trkpt lat="43.73165" lon="5.96358">
        <ele>359.9</ele>
        <time>2023-06-11T11:35:16Z</time>
      </trkpt>
      <trkpt lat="43.73165" lon="5.96358">
        <ele>360</ele>
        <time>2023-06-11T11:35:17Z</time>
      </trkpt>
      <trkpt lat="43.73165" lon="5.96358">
        <ele>360</ele>
        <time>2023-06-11T11:35:18Z</time>
      </trkpt>
      <trkpt lat="43.73165" lon="5.96358">
        <ele>360</ele>
        <time>2023-06-11T11:35:19Z</time>
      </trkpt>
      <trkpt lat="43.73165" lon="5.96358">
        <ele>360</ele>
        <time>2023-06-11T11:35:20Z</time>
      </trkpt>
      <trkpt lat="43.73165" lon="5.96358">
        <ele>360</ele>
        <time>2023-06-11T11:35:21Z</time>
      </trkpt>
      <trkpt lat="43.73165" lon="5.96358">
        <ele>359.9</ele>
        <time>2023-06-11T11:35:22Z</time>
      </trkpt>
      <trkpt lat="43.73165" lon="5.96358">
        <ele>359.9</ele>
        <time>2023-06-11T11:35:23Z</time>
      </trkpt>
      <trkpt lat="43.73165" lon="5.96358">
        <ele>360</ele>
        <time>2023-06-11T11:35:24Z</time>
      </trkpt>
      <trkpt lat="43.73165" lon="5.96358">
        <ele>360</ele>
        <time>2023-06-11T11:35:25Z</time>
      </trkpt>
      <trkpt lat="43.73164" lon="5.96358">
        <ele>360</ele>
        <time>2023-06-11T11:35:26Z</time>
      </trkpt>
      <trkpt lat="43.73165" lon="5.96358">
        <ele>360.1</ele>
        <time>2023-06-11T11:35:27Z</time>
      </trkpt>
      <trkpt lat="43.73165" lon="5.96358">
        <ele>360</ele>
        <time>2023-06-11T11:35:28Z</time>
      </trkpt>
      <trkpt lat="43.73165" lon="5.96358">
        <ele>360</ele>
        <time>2023-06-11T11:35:29Z</time>
      </trkpt>
      <trkpt lat="43.73164" lon="5.96358">
        <ele>359.9</ele>
        <time>2023-06-11T11:35:30Z</time>
      </trkpt>
      <trkpt lat="43.73164" lon="5.96358">
        <ele>359.9</ele>
        <time>2023-06-11T11:35:31Z</time>
      </trkpt>
      <trkpt lat="43.73164" lon="5.96358">
        <ele>359.9</ele>
        <time>2023-06-11T11:35:32Z</time>
      </trkpt>
      <trkpt lat="43.73164" lon="5.96358">
        <ele>359.8</ele>
        <time>2023-06-11T11:35:33Z</time>
      </trkpt>
      <trkpt lat="43.73164" lon="5.96358">
        <ele>359.8</ele>
        <time>2023-06-11T11:35:34Z</time>
      </trkpt>
      <trkpt lat="43.73164" lon="5.96358">
        <ele>359.8</ele>
        <time>2023-06-11T11:35:35Z</time>
      </trkpt>
      <trkpt lat="43.73164" lon="5.96358">
        <ele>359.8</ele>
        <time>2023-06-11T11:35:36Z</time>
      </trkpt>
      <trkpt lat="43.73164" lon="5.96358">
        <ele>359.9</ele>
        <time>2023-06-11T11:35:37Z</time>
      </trkpt>
      <trkpt lat="43.73164" lon="5.96358">
        <ele>360</ele>
        <time>2023-06-11T11:35:38Z</time>
      </trkpt>
      <trkpt lat="43.73164" lon="5.96358">
        <ele>360</ele>
        <time>2023-06-11T11:35:39Z</time>
      </trkpt>
      <trkpt lat="43.73164" lon="5.96358">
        <ele>359.9</ele>
        <time>2023-06-11T11:35:40Z</time>
      </trkpt>
      <trkpt lat="43.73164" lon="5.96358">
        <ele>360</ele>
        <time>2023-06-11T11:35:41Z</time>
      </trkpt>
      <trkpt lat="43.73164" lon="5.96358">
        <ele>360</ele>
        <time>2023-06-11T11:35:42Z</time>
      </trkpt>
      <trkpt lat="43.73164" lon="5.96358">
        <ele>360</ele>
        <time>2023-06-11T11:35:43Z</time>
      </trkpt>
      <trkpt lat="43.73164" lon="5.96358">
        <ele>360</ele>
        <time>2023-06-11T11:35:44Z</time>
      </trkpt>
      <trkpt lat="43.73164" lon="5.96358">
        <ele>360</ele>
        <time>2023-06-11T11:35:45Z</time>
      </trkpt>
      <trkpt lat="43.73164" lon="5.96358">
        <ele>359.9</ele>
        <time>2023-06-11T11:35:46Z</time>
      </trkpt>
      <trkpt lat="43.73164" lon="5.96358">
        <ele>359.9</ele>
        <time>2023-06-11T11:35:47Z</time>
      </trkpt>
      <trkpt lat="43.73164" lon="5.96358">
        <ele>359.8</ele>
        <time>2023-06-11T11:35:48Z</time>
      </trkpt>
      <trkpt lat="43.73164" lon="5.96358">
        <ele>359.9</ele>
        <time>2023-06-11T11:35:49Z</time>
      </trkpt>
      <trkpt lat="43.73164" lon="5.96358">
        <ele>359.9</ele>
        <time>2023-06-11T11:35:50Z</time>
      </trkpt>
      <trkpt lat="43.73164" lon="5.96358">
        <ele>360</ele>
        <time>2023-06-11T11:35:51Z</time>
      </trkpt>
      <trkpt lat="43.73164" lon="5.96358">
        <ele>360</ele>
        <time>2023-06-11T11:35:52Z</time>
      </trkpt>
      <trkpt lat="43.73164" lon="5.96358">
        <ele>360</ele>
        <time>2023-06-11T11:35:53Z</time>
      </trkpt>
      <trkpt lat="43.73164" lon="5.96358">
        <ele>360.1</ele>
        <time>2023-06-11T11:35:54Z</time>
      </trkpt>
      <trkpt lat="43.73164" lon="5.96358">
        <ele>360</ele>
        <time>2023-06-11T11:35:55Z</time>
      </trkpt>
      <trkpt lat="43.73165" lon="5.96358">
        <ele>360</ele>
        <time>2023-06-11T11:35:56Z</time>
      </trkpt>
      <trkpt lat="43.73165" lon="5.96358">
        <ele>360.1</ele>
        <time>2023-06-11T11:35:57Z</time>
      </trkpt>
      <trkpt lat="43.73165" lon="5.96358">
        <ele>360.1</ele>
        <time>2023-06-11T11:35:58Z</time>
      </trkpt>
      <trkpt lat="43.73165" lon="5.96358">
        <ele>360.1</ele>
        <time>2023-06-11T11:35:59Z</time>
      </trkpt>
      <trkpt lat="43.73165" lon="5.96359">
        <ele>360.2</ele>
        <time>2023-06-11T11:36:00Z</time>
      </trkpt>
      <trkpt lat="43.73165" lon="5.96358">
        <ele>360.2</ele>
        <time>2023-06-11T11:36:01Z</time>
      </trkpt>
      <trkpt lat="43.73165" lon="5.96358">
        <ele>360.2</ele>
        <time>2023-06-11T11:36:02Z</time>
      </trkpt>
      <trkpt lat="43.73165" lon="5.96358">
        <ele>360.3</ele>
        <time>2023-06-11T11:36:03Z</time>
      </trkpt>
      <trkpt lat="43.73165" lon="5.96359">
        <ele>360.3</ele>
        <time>2023-06-11T11:36:04Z</time>
      </trkpt>
      <trkpt lat="43.73165" lon="5.96358">
        <ele>360.2</ele>
        <time>2023-06-11T11:36:05Z</time>
      </trkpt>
      <trkpt lat="43.73165" lon="5.96358">
        <ele>360.1</ele>
        <time>2023-06-11T11:36:06Z</time>
      </trkpt>
      <trkpt lat="43.73165" lon="5.96358">
        <ele>360</ele>
        <time>2023-06-11T11:36:07Z</time>
      </trkpt>
      <trkpt lat="43.73165" lon="5.96358">
        <ele>360</ele>
        <time>2023-06-11T11:36:08Z</time>
      </trkpt>
      <trkpt lat="43.73165" lon="5.96358">
        <ele>360</ele>
        <time>2023-06-11T11:36:09Z</time>
      </trkpt>
      <trkpt lat="43.73165" lon="5.96358">
        <ele>360</ele>
        <time>2023-06-11T11:36:10Z</time>
      </trkpt>
      <trkpt lat="43.73165" lon="5.96358">
        <ele>359.9</ele>
        <time>2023-06-11T11:36:11Z</time>
      </trkpt>
      <trkpt lat="43.73165" lon="5.96359">
        <ele>359.8</ele>
        <time>2023-06-11T11:36:12Z</time>
      </trkpt>
      <trkpt lat="43.73165" lon="5.96359">
        <ele>359.9</ele>
        <time>2023-06-11T11:36:13Z</time>
      </trkpt>
      <trkpt lat="43.73165" lon="5.96359">
        <ele>360</ele>
        <time>2023-06-11T11:36:14Z</time>
      </trkpt>
      <trkpt lat="43.73165" lon="5.96359">
        <ele>360</ele>
        <time>2023-06-11T11:36:15Z</time>
      </trkpt>
      <trkpt lat="43.73165" lon="5.96359">
        <ele>360</ele>
        <time>2023-06-11T11:36:16Z</time>
      </trkpt>
      <trkpt lat="43.73165" lon="5.96359">
        <ele>360.1</ele>
        <time>2023-06-11T11:36:17Z</time>
      </trkpt>
      <trkpt lat="43.73165" lon="5.96359">
        <ele>360.1</ele>
        <time>2023-06-11T11:36:18Z</time>
      </trkpt>
      <trkpt lat="43.73165" lon="5.96359">
        <ele>360.1</ele>
        <time>2023-06-11T11:36:19Z</time>
      </trkpt>
      <trkpt lat="43.73165" lon="5.96359">
        <ele>360.1</ele>
        <time>2023-06-11T11:36:20Z</time>
      </trkpt>
      <trkpt lat="43.73165" lon="5.96359">
        <ele>360.1</ele>
        <time>2023-06-11T11:36:21Z</time>
      </trkpt>
      <trkpt lat="43.73165" lon="5.96359">
        <ele>360.1</ele>
        <time>2023-06-11T11:36:22Z</time>
      </trkpt>
      <trkpt lat="43.73166" lon="5.96359">
        <ele>360.1</ele>
        <time>2023-06-11T11:36:23Z</time>
      </trkpt>
      <trkpt lat="43.73166" lon="5.96359">
        <ele>360.1</ele>
        <time>2023-06-11T11:36:24Z</time>
      </trkpt>
      <trkpt lat="43.73166" lon="5.96359">
        <ele>360.1</ele>
        <time>2023-06-11T11:36:25Z</time>
      </trkpt>
      <trkpt lat="43.73166" lon="5.96359">
        <ele>360.1</ele>
        <time>2023-06-11T11:36:26Z</time>
      </trkpt>
      <trkpt lat="43.73166" lon="5.96359">
        <ele>360.1</ele>
        <time>2023-06-11T11:36:27Z</time>
      </trkpt>
      <trkpt lat="43.73166" lon="5.96358">
        <ele>360</ele>
        <time>2023-06-11T11:36:28Z</time>
      </trkpt>
      <trkpt lat="43.73166" lon="5.96358">
        <ele>360</ele>
        <time>2023-06-11T11:36:29Z</time>
      </trkpt>
      <trkpt lat="43.73166" lon="5.96358">
        <ele>360</ele>
        <time>2023-06-11T11:36:30Z</time>
      </trkpt>
      <trkpt lat="43.73166" lon="5.96358">
        <ele>359.9</ele>
        <time>2023-06-11T11:36:31Z</time>
      </trkpt>
      <trkpt lat="43.73166" lon="5.96358">
        <ele>359.9</ele>
        <time>2023-06-11T11:36:32Z</time>
      </trkpt>
      <trkpt lat="43.73166" lon="5.96358">
        <ele>359.8</ele>
        <time>2023-06-11T11:36:33Z</time>
      </trkpt>
      <trkpt lat="43.73166" lon="5.96358">
        <ele>359.8</ele>
        <time>2023-06-11T11:36:34Z</time>
      </trkpt>
      <trkpt lat="43.73166" lon="5.96358">
        <ele>359.9</ele>
        <time>2023-06-11T11:36:35Z</time>
      </trkpt>
      <trkpt lat="43.73167" lon="5.96358">
        <ele>359.8</ele>
        <time>2023-06-11T11:36:36Z</time>
      </trkpt>
      <trkpt lat="43.73167" lon="5.96358">
        <ele>359.8</ele>
        <time>2023-06-11T11:36:37Z</time>
      </trkpt>
      <trkpt lat="43.73167" lon="5.96358">
        <ele>359.9</ele>
        <time>2023-06-11T11:36:38Z</time>
      </trkpt>
      <trkpt lat="43.73167" lon="5.96358">
        <ele>359.9</ele>
        <time>2023-06-11T11:36:39Z</time>
      </trkpt>
      <trkpt lat="43.73167" lon="5.96358">
        <ele>359.9</ele>
        <time>2023-06-11T11:36:40Z</time>
      </trkpt>
      <trkpt lat="43.73167" lon="5.96358">
        <ele>359.9</ele>
        <time>2023-06-11T11:36:41Z</time>
      </trkpt>
      <trkpt lat="43.73167" lon="5.96359">
        <ele>359.9</ele>
        <time>2023-06-11T11:36:42Z</time>
      </trkpt>
      <trkpt lat="43.73167" lon="5.96359">
        <ele>359.9</ele>
        <time>2023-06-11T11:36:43Z</time>
      </trkpt>
      <trkpt lat="43.73167" lon="5.96359">
        <ele>359.9</ele>
        <time>2023-06-11T11:36:44Z</time>
      </trkpt>
      <trkpt lat="43.73167" lon="5.96359">
        <ele>359.9</ele>
        <time>2023-06-11T11:36:45Z</time>
      </trkpt>
      <trkpt lat="43.73167" lon="5.96359">
        <ele>359.9</ele>
        <time>2023-06-11T11:36:46Z</time>
      </trkpt>
      <trkpt lat="43.73167" lon="5.96359">
        <ele>359.9</ele>
        <time>2023-06-11T11:36:47Z</time>
      </trkpt>
      <trkpt lat="43.73167" lon="5.96359">
        <ele>359.9</ele>
        <time>2023-06-11T11:36:48Z</time>
      </trkpt>
      <trkpt lat="43.73167" lon="5.96359">
        <ele>360</ele>
        <time>2023-06-11T11:36:49Z</time>
      </trkpt>
      <trkpt lat="43.73167" lon="5.96359">
        <ele>360</ele>
        <time>2023-06-11T11:36:50Z</time>
      </trkpt>
      <trkpt lat="43.73167" lon="5.96358">
        <ele>360</ele>
        <time>2023-06-11T11:36:51Z</time>
      </trkpt>
      <trkpt lat="43.73167" lon="5.96358">
        <ele>360</ele>
        <time>2023-06-11T11:36:52Z</time>
      </trkpt>
      <trkpt lat="43.73167" lon="5.96358">
        <ele>360.2</ele>
        <time>2023-06-11T11:36:53Z</time>
      </trkpt>
      <trkpt lat="43.73167" lon="5.96358">
        <ele>360.2</ele>
        <time>2023-06-11T11:36:54Z</time>
      </trkpt>
      <trkpt lat="43.73167" lon="5.96358">
        <ele>360.2</ele>
        <time>2023-06-11T11:36:55Z</time>
      </trkpt>
      <trkpt lat="43.73167" lon="5.96358">
        <ele>360.2</ele>
        <time>2023-06-11T11:36:56Z</time>
      </trkpt>
      <trkpt lat="43.73167" lon="5.96358">
        <ele>360.2</ele>
        <time>2023-06-11T11:36:57Z</time>
      </trkpt>
      <trkpt lat="43.73167" lon="5.96358">
        <ele>360.2</ele>
        <time>2023-06-11T11:36:58Z</time>
      </trkpt>
      <trkpt lat="43.73167" lon="5.96358">
        <ele>360.2</ele>
        <time>2023-06-11T11:36:59Z</time>
      </trkpt>
      <trkpt lat="43.73167" lon="5.96358">
        <ele>360.2</ele>
        <time>2023-06-11T11:37:00Z</time>
      </trkpt>
      <trkpt lat="43.73167" lon="5.96358">
        <ele>360.2</ele>
        <time>2023-06-11T11:37:01Z</time>
      </trkpt>
      <trkpt lat="43.73167" lon="5.96358">
        <ele>360.2</ele>
        <time>2023-06-11T11:37:02Z</time>
      </trkpt>
      <trkpt lat="43.73167" lon="5.96358">
        <ele>360.2</ele>
        <time>2023-06-11T11:37:03Z</time>
      </trkpt>
      <trkpt lat="43.73167" lon="5.96358">
        <ele>360.2</ele>
        <time>2023-06-11T11:37:04Z</time>
      </trkpt>
      <trkpt lat="43.73167" lon="5.96358">
        <ele>360.2</ele>
        <time>2023-06-11T11:37:05Z</time>
      </trkpt>
      <trkpt lat="43.73167" lon="5.96358">
        <ele>360.2</ele>
        <time>2023-06-11T11:37:06Z</time>
      </trkpt>
      <trkpt lat="43.73167" lon="5.96358">
        <ele>360.2</ele>
        <time>2023-06-11T11:37:07Z</time>
      </trkpt>
      <trkpt lat="43.73167" lon="5.96357">
        <ele>360.2</ele>
        <time>2023-06-11T11:37:08Z</time>
      </trkpt>
      <trkpt lat="43.73167" lon="5.96358">
        <ele>360.2</ele>
        <time>2023-06-11T11:37:09Z</time>
      </trkpt>
      <trkpt lat="43.73167" lon="5.96358">
        <ele>360.2</ele>
        <time>2023-06-11T11:37:10Z</time>
      </trkpt>
      <trkpt lat="43.73167" lon="5.96358">
        <ele>360.2</ele>
        <time>2023-06-11T11:37:11Z</time>
      </trkpt>
      <trkpt lat="43.73167" lon="5.96358">
        <ele>360.3</ele>
        <time>2023-06-11T11:37:12Z</time>
      </trkpt>
      <trkpt lat="43.73167" lon="5.96358">
        <ele>360.3</ele>
        <time>2023-06-11T11:37:13Z</time>
      </trkpt>
      <trkpt lat="43.73167" lon="5.96358">
        <ele>360.3</ele>
        <time>2023-06-11T11:37:14Z</time>
      </trkpt>
      <trkpt lat="43.73167" lon="5.96358">
        <ele>360.3</ele>
        <time>2023-06-11T11:37:15Z</time>
      </trkpt>
      <trkpt lat="43.73167" lon="5.96358">
        <ele>360.4</ele>
        <time>2023-06-11T11:37:16Z</time>
      </trkpt>
      <trkpt lat="43.73167" lon="5.96358">
        <ele>360.4</ele>
        <time>2023-06-11T11:37:17Z</time>
      </trkpt>
      <trkpt lat="43.73167" lon="5.96358">
        <ele>360.3</ele>
        <time>2023-06-11T11:37:18Z</time>
      </trkpt>
      <trkpt lat="43.73167" lon="5.96358">
        <ele>360.4</ele>
        <time>2023-06-11T11:37:19Z</time>
      </trkpt>
      <trkpt lat="43.73167" lon="5.96359">
        <ele>360.4</ele>
        <time>2023-06-11T11:37:20Z</time>
      </trkpt>
      <trkpt lat="43.73167" lon="5.96359">
        <ele>360.4</ele>
        <time>2023-06-11T11:37:21Z</time>
      </trkpt>
      <trkpt lat="43.73167" lon="5.96359">
        <ele>360.4</ele>
        <time>2023-06-11T11:37:22Z</time>
      </trkpt>
      <trkpt lat="43.73167" lon="5.96359">
        <ele>360.4</ele>
        <time>2023-06-11T11:37:23Z</time>
      </trkpt>
      <trkpt lat="43.73167" lon="5.96359">
        <ele>360.4</ele>
        <time>2023-06-11T11:37:24Z</time>
      </trkpt>
      <trkpt lat="43.73167" lon="5.96359">
        <ele>360.4</ele>
        <time>2023-06-11T11:37:25Z</time>
      </trkpt>
      <trkpt lat="43.73167" lon="5.96359">
        <ele>360.5</ele>
        <time>2023-06-11T11:37:26Z</time>
      </trkpt>
      <trkpt lat="43.73168" lon="5.96359">
        <ele>360.5</ele>
        <time>2023-06-11T11:37:27Z</time>
      </trkpt>
      <trkpt lat="43.73168" lon="5.96359">
        <ele>360.6</ele>
        <time>2023-06-11T11:37:28Z</time>
      </trkpt>
      <trkpt lat="43.73168" lon="5.96359">
        <ele>360.6</ele>
        <time>2023-06-11T11:37:29Z</time>
      </trkpt>
      <trkpt lat="43.73168" lon="5.96359">
        <ele>360.6</ele>
        <time>2023-06-11T11:37:30Z</time>
      </trkpt>
      <trkpt lat="43.73168" lon="5.96359">
        <ele>360.6</ele>
        <time>2023-06-11T11:37:31Z</time>
      </trkpt>
      <trkpt lat="43.73168" lon="5.96359">
        <ele>360.6</ele>
        <time>2023-06-11T11:37:32Z</time>
      </trkpt>
      <trkpt lat="43.73168" lon="5.96359">
        <ele>360.6</ele>
        <time>2023-06-11T11:37:33Z</time>
      </trkpt>
      <trkpt lat="43.73168" lon="5.9636">
        <ele>360.6</ele>
        <time>2023-06-11T11:37:34Z</time>
      </trkpt>
      <trkpt lat="43.73168" lon="5.9636">
        <ele>360.5</ele>
        <time>2023-06-11T11:37:35Z</time>
      </trkpt>
      <trkpt lat="43.73168" lon="5.9636">
        <ele>360.5</ele>
        <time>2023-06-11T11:37:36Z</time>
      </trkpt>
      <trkpt lat="43.73168" lon="5.9636">
        <ele>360.5</ele>
        <time>2023-06-11T11:37:37Z</time>
      </trkpt>
      <trkpt lat="43.73168" lon="5.9636">
        <ele>360.5</ele>
        <time>2023-06-11T11:37:38Z</time>
      </trkpt>
      <trkpt lat="43.73168" lon="5.9636">
        <ele>360.5</ele>
        <time>2023-06-11T11:37:39Z</time>
      </trkpt>
      <trkpt lat="43.73168" lon="5.9636">
        <ele>360.4</ele>
        <time>2023-06-11T11:37:40Z</time>
      </trkpt>
      <trkpt lat="43.73168" lon="5.9636">
        <ele>360.4</ele>
        <time>2023-06-11T11:37:41Z</time>
      </trkpt>
      <trkpt lat="43.73168" lon="5.9636">
        <ele>360.4</ele>
        <time>2023-06-11T11:37:42Z</time>
      </trkpt>
      <trkpt lat="43.73168" lon="5.9636">
        <ele>360.3</ele>
        <time>2023-06-11T11:37:43Z</time>
      </trkpt>
      <trkpt lat="43.73168" lon="5.9636">
        <ele>360.3</ele>
        <time>2023-06-11T11:37:44Z</time>
      </trkpt>
      <trkpt lat="43.73168" lon="5.9636">
        <ele>360.3</ele>
        <time>2023-06-11T11:37:45Z</time>
      </trkpt>
      <trkpt lat="43.73168" lon="5.9636">
        <ele>360.4</ele>
        <time>2023-06-11T11:37:46Z</time>
      </trkpt>
      <trkpt lat="43.73168" lon="5.9636">
        <ele>360.4</ele>
        <time>2023-06-11T11:37:47Z</time>
      </trkpt>
      <trkpt lat="43.73168" lon="5.9636">
        <ele>360.5</ele>
        <time>2023-06-11T11:37:48Z</time>
      </trkpt>
      <trkpt lat="43.73168" lon="5.9636">
        <ele>360.5</ele>
        <time>2023-06-11T11:37:49Z</time>
      </trkpt>
      <trkpt lat="43.73168" lon="5.9636">
        <ele>360.4</ele>
        <time>2023-06-11T11:37:50Z</time>
      </trkpt>
      <trkpt lat="43.73168" lon="5.9636">
        <ele>360.5</ele>
        <time>2023-06-11T11:37:51Z</time>
      </trkpt>
      <trkpt lat="43.73168" lon="5.9636">
        <ele>360.5</ele>
        <time>2023-06-11T11:37:52Z</time>
      </trkpt>
      <trkpt lat="43.73167" lon="5.9636">
        <ele>360.5</ele>
        <time>2023-06-11T11:37:53Z</time>
      </trkpt>
      <trkpt lat="43.73167" lon="5.9636">
        <ele>360.4</ele>
        <time>2023-06-11T11:37:54Z</time>
      </trkpt>
      <trkpt lat="43.73167" lon="5.9636">
        <ele>360.4</ele>
        <time>2023-06-11T11:37:55Z</time>
      </trkpt>
      <trkpt lat="43.73167" lon="5.9636">
        <ele>360.4</ele>
        <time>2023-06-11T11:37:56Z</time>
      </trkpt>
      <trkpt lat="43.73167" lon="5.9636">
        <ele>360.3</ele>
        <time>2023-06-11T11:37:57Z</time>
      </trkpt>
      <trkpt lat="43.73167" lon="5.9636">
        <ele>360.3</ele>
        <time>2023-06-11T11:37:58Z</time>
      </trkpt>
      <trkpt lat="43.73167" lon="5.9636">
        <ele>360.3</ele>
        <time>2023-06-11T11:37:59Z</time>
      </trkpt>
      <trkpt lat="43.73167" lon="5.9636">
        <ele>360.3</ele>
        <time>2023-06-11T11:38:00Z</time>
      </trkpt>
      <trkpt lat="43.73167" lon="5.9636">
        <ele>360.4</ele>
        <time>2023-06-11T11:38:01Z</time>
      </trkpt>
      <trkpt lat="43.73167" lon="5.9636">
        <ele>360.4</ele>
        <time>2023-06-11T11:38:02Z</time>
      </trkpt>
      <trkpt lat="43.73167" lon="5.9636">
        <ele>360.4</ele>
        <time>2023-06-11T11:38:03Z</time>
      </trkpt>
      <trkpt lat="43.73167" lon="5.9636">
        <ele>360.5</ele>
        <time>2023-06-11T11:38:04Z</time>
      </trkpt>
      <trkpt lat="43.73167" lon="5.9636">
        <ele>360.6</ele>
        <time>2023-06-11T11:38:05Z</time>
      </trkpt>
      <trkpt lat="43.73167" lon="5.9636">
        <ele>360.6</ele>
        <time>2023-06-11T11:38:06Z</time>
      </trkpt>
      <trkpt lat="43.73167" lon="5.96359">
        <ele>360.7</ele>
        <time>2023-06-11T11:38:07Z</time>
      </trkpt>
      <trkpt lat="43.73167" lon="5.96359">
        <ele>360.7</ele>
        <time>2023-06-11T11:38:08Z</time>
      </trkpt>
      <trkpt lat="43.73167" lon="5.96359">
        <ele>360.7</ele>
        <time>2023-06-11T11:38:09Z</time>
      </trkpt>
      <trkpt lat="43.73167" lon="5.96359">
        <ele>360.7</ele>
        <time>2023-06-11T11:38:10Z</time>
      </trkpt>
      <trkpt lat="43.73167" lon="5.96359">
        <ele>360.7</ele>
        <time>2023-06-11T11:38:11Z</time>
      </trkpt>
      <trkpt lat="43.73167" lon="5.96359">
        <ele>360.7</ele>
        <time>2023-06-11T11:38:12Z</time>
      </trkpt>
      <trkpt lat="43.73167" lon="5.96359">
        <ele>360.7</ele>
        <time>2023-06-11T11:38:13Z</time>
      </trkpt>
      <trkpt lat="43.73167" lon="5.96359">
        <ele>360.6</ele>
        <time>2023-06-11T11:38:14Z</time>
      </trkpt>
      <trkpt lat="43.73167" lon="5.96359">
        <ele>360.5</ele>
        <time>2023-06-11T11:38:15Z</time>
      </trkpt>
      <trkpt lat="43.73167" lon="5.96359">
        <ele>360.5</ele>
        <time>2023-06-11T11:38:16Z</time>
      </trkpt>
      <trkpt lat="43.73167" lon="5.96359">
        <ele>360.5</ele>
        <time>2023-06-11T11:38:17Z</time>
      </trkpt>
      <trkpt lat="43.73167" lon="5.96359">
        <ele>360.5</ele>
        <time>2023-06-11T11:38:18Z</time>
      </trkpt>
      <trkpt lat="43.73167" lon="5.96359">
        <ele>360.4</ele>
        <time>2023-06-11T11:38:19Z</time>
      </trkpt>
      <trkpt lat="43.73167" lon="5.96359">
        <ele>360.4</ele>
        <time>2023-06-11T11:38:20Z</time>
      </trkpt>
      <trkpt lat="43.73167" lon="5.96359">
        <ele>360.3</ele>
        <time>2023-06-11T11:38:21Z</time>
      </trkpt>
      <trkpt lat="43.73166" lon="5.96359">
        <ele>360.3</ele>
        <time>2023-06-11T11:38:22Z</time>
      </trkpt>
      <trkpt lat="43.73166" lon="5.96359">
        <ele>360.2</ele>
        <time>2023-06-11T11:38:23Z</time>
      </trkpt>
      <trkpt lat="43.73166" lon="5.96359">
        <ele>360.2</ele>
        <time>2023-06-11T11:38:24Z</time>
      </trkpt>
      <trkpt lat="43.73166" lon="5.96359">
        <ele>360.3</ele>
        <time>2023-06-11T11:38:25Z</time>
      </trkpt>
      <trkpt lat="43.73166" lon="5.96359">
        <ele>360.3</ele>
        <time>2023-06-11T11:38:26Z</time>
      </trkpt>
      <trkpt lat="43.73166" lon="5.9636">
        <ele>360.4</ele>
        <time>2023-06-11T11:38:27Z</time>
      </trkpt>
      <trkpt lat="43.73165" lon="5.9636">
        <ele>360.5</ele>
        <time>2023-06-11T11:38:28Z</time>
      </trkpt>
      <trkpt lat="43.73165" lon="5.9636">
        <ele>360.5</ele>
        <time>2023-06-11T11:38:29Z</time>
      </trkpt>
      <trkpt lat="43.73165" lon="5.9636">
        <ele>360.5</ele>
        <time>2023-06-11T11:38:30Z</time>
      </trkpt>
      <trkpt lat="43.73164" lon="5.9636">
        <ele>360.6</ele>
        <time>2023-06-11T11:38:31Z</time>
      </trkpt>
      <trkpt lat="43.73164" lon="5.96361">
        <ele>360.7</ele>
        <time>2023-06-11T11:38:32Z</time>
      </trkpt>
      <trkpt lat="43.73164" lon="5.96361">
        <ele>360.7</ele>
        <time>2023-06-11T11:38:33Z</time>
      </trkpt>
      <trkpt lat="43.73164" lon="5.96362">
        <ele>360.8</ele>
        <time>2023-06-11T11:38:34Z</time>
      </trkpt>
      <trkpt lat="43.73165" lon="5.96363">
        <ele>361</ele>
        <time>2023-06-11T11:38:35Z</time>
      </trkpt>
      <trkpt lat="43.73164" lon="5.96363">
        <ele>361</ele>
        <time>2023-06-11T11:38:36Z</time>
      </trkpt>
      <trkpt lat="43.73164" lon="5.96362">
        <ele>361.1</ele>
        <time>2023-06-11T11:38:37Z</time>
      </trkpt>
      <trkpt lat="43.73164" lon="5.96362">
        <ele>361.1</ele>
        <time>2023-06-11T11:38:38Z</time>
      </trkpt>
      <trkpt lat="43.73164" lon="5.96362">
        <ele>361.2</ele>
        <time>2023-06-11T11:38:39Z</time>
      </trkpt>
      <trkpt lat="43.73164" lon="5.96362">
        <ele>361.2</ele>
        <time>2023-06-11T11:38:40Z</time>
      </trkpt>
      <trkpt lat="43.73164" lon="5.96362">
        <ele>361.2</ele>
        <time>2023-06-11T11:38:41Z</time>
      </trkpt>
      <trkpt lat="43.73163" lon="5.96362">
        <ele>361.2</ele>
        <time>2023-06-11T11:38:42Z</time>
      </trkpt>
      <trkpt lat="43.73163" lon="5.96362">
        <ele>361.2</ele>
        <time>2023-06-11T11:38:43Z</time>
      </trkpt>
      <trkpt lat="43.73163" lon="5.96363">
        <ele>361.2</ele>
        <time>2023-06-11T11:38:44Z</time>
      </trkpt>
      <trkpt lat="43.73163" lon="5.96362">
        <ele>361.2</ele>
        <time>2023-06-11T11:38:45Z</time>
      </trkpt>
      <trkpt lat="43.73163" lon="5.96363">
        <ele>361.1</ele>
        <time>2023-06-11T11:38:46Z</time>
      </trkpt>
      <trkpt lat="43.73163" lon="5.96362">
        <ele>361</ele>
        <time>2023-06-11T11:38:47Z</time>
      </trkpt>
      <trkpt lat="43.73163" lon="5.96362">
        <ele>361</ele>
        <time>2023-06-11T11:38:48Z</time>
      </trkpt>
      <trkpt lat="43.73163" lon="5.96362">
        <ele>361.1</ele>
        <time>2023-06-11T11:38:49Z</time>
      </trkpt>
      <trkpt lat="43.73163" lon="5.96362">
        <ele>361.1</ele>
        <time>2023-06-11T11:38:50Z</time>
      </trkpt>
      <trkpt lat="43.73162" lon="5.96362">
        <ele>361.1</ele>
        <time>2023-06-11T11:38:51Z</time>
      </trkpt>
      <trkpt lat="43.73162" lon="5.96362">
        <ele>361.2</ele>
        <time>2023-06-11T11:38:52Z</time>
      </trkpt>
      <trkpt lat="43.73162" lon="5.96362">
        <ele>361.1</ele>
        <time>2023-06-11T11:38:53Z</time>
      </trkpt>
      <trkpt lat="43.73161" lon="5.96362">
        <ele>361.1</ele>
        <time>2023-06-11T11:38:54Z</time>
      </trkpt>
      <trkpt lat="43.73161" lon="5.96362">
        <ele>361</ele>
        <time>2023-06-11T11:38:55Z</time>
      </trkpt>
      <trkpt lat="43.73161" lon="5.96362">
        <ele>361</ele>
        <time>2023-06-11T11:38:56Z</time>
      </trkpt>
      <trkpt lat="43.73161" lon="5.96362">
        <ele>361</ele>
        <time>2023-06-11T11:38:57Z</time>
      </trkpt>
      <trkpt lat="43.7316" lon="5.96362">
        <ele>360.9</ele>
        <time>2023-06-11T11:38:58Z</time>
      </trkpt>
      <trkpt lat="43.7316" lon="5.96362">
        <ele>360.9</ele>
        <time>2023-06-11T11:38:59Z</time>
      </trkpt>
      <trkpt lat="43.7316" lon="5.96362">
        <ele>360.9</ele>
        <time>2023-06-11T11:39:00Z</time>
      </trkpt>
      <trkpt lat="43.7316" lon="5.96362">
        <ele>361</ele>
        <time>2023-06-11T11:39:01Z</time>
      </trkpt>
      <trkpt lat="43.7316" lon="5.96362">
        <ele>361.1</ele>
        <time>2023-06-11T11:39:02Z</time>
      </trkpt>
      <trkpt lat="43.73159" lon="5.96362">
        <ele>361.1</ele>
        <time>2023-06-11T11:39:03Z</time>
      </trkpt>
      <trkpt lat="43.73159" lon="5.96362">
        <ele>361.1</ele>
        <time>2023-06-11T11:39:04Z</time>
      </trkpt>
      <trkpt lat="43.73159" lon="5.96362">
        <ele>361.1</ele>
        <time>2023-06-11T11:39:05Z</time>
      </trkpt>
      <trkpt lat="43.73159" lon="5.96362">
        <ele>361.1</ele>
        <time>2023-06-11T11:39:06Z</time>
      </trkpt>
      <trkpt lat="43.73159" lon="5.96362">
        <ele>361.1</ele>
        <time>2023-06-11T11:39:07Z</time>
      </trkpt>
      <trkpt lat="43.73159" lon="5.96362">
        <ele>361.1</ele>
        <time>2023-06-11T11:39:08Z</time>
      </trkpt>
      <trkpt lat="43.73159" lon="5.96362">
        <ele>361.1</ele>
        <time>2023-06-11T11:39:09Z</time>
      </trkpt>
      <trkpt lat="43.73159" lon="5.96362">
        <ele>361.1</ele>
        <time>2023-06-11T11:39:10Z</time>
      </trkpt>
      <trkpt lat="43.73159" lon="5.96362">
        <ele>361.2</ele>
        <time>2023-06-11T11:39:11Z</time>
      </trkpt>
      <trkpt lat="43.73159" lon="5.96362">
        <ele>361.1</ele>
        <time>2023-06-11T11:39:12Z</time>
      </trkpt>
      <trkpt lat="43.73159" lon="5.96362">
        <ele>361.1</ele>
        <time>2023-06-11T11:39:13Z</time>
      </trkpt>
      <trkpt lat="43.73159" lon="5.96362">
        <ele>361.1</ele>
        <time>2023-06-11T11:39:14Z</time>
      </trkpt>
      <trkpt lat="43.73159" lon="5.96362">
        <ele>361.1</ele>
        <time>2023-06-11T11:39:15Z</time>
      </trkpt>
      <trkpt lat="43.73159" lon="5.96363">
        <ele>361.1</ele>
        <time>2023-06-11T11:39:16Z</time>
      </trkpt>
      <trkpt lat="43.73159" lon="5.96363">
        <ele>361.1</ele>
        <time>2023-06-11T11:39:17Z</time>
      </trkpt>
      <trkpt lat="43.73159" lon="5.96363">
        <ele>361.1</ele>
        <time>2023-06-11T11:39:18Z</time>
      </trkpt>
      <trkpt lat="43.73159" lon="5.96363">
        <ele>361.1</ele>
        <time>2023-06-11T11:39:19Z</time>
      </trkpt>
      <trkpt lat="43.73159" lon="5.96363">
        <ele>361.1</ele>
        <time>2023-06-11T11:39:20Z</time>
      </trkpt>
      <trkpt lat="43.73159" lon="5.96363">
        <ele>361</ele>
        <time>2023-06-11T11:39:21Z</time>
      </trkpt>
      <trkpt lat="43.73159" lon="5.96363">
        <ele>361.1</ele>
        <time>2023-06-11T11:39:22Z</time>
      </trkpt>
      <trkpt lat="43.73159" lon="5.96363">
        <ele>361.1</ele>
        <time>2023-06-11T11:39:23Z</time>
      </trkpt>
      <trkpt lat="43.73159" lon="5.96363">
        <ele>361.1</ele>
        <time>2023-06-11T11:39:24Z</time>
      </trkpt>
      <trkpt lat="43.73159" lon="5.96363">
        <ele>361.1</ele>
        <time>2023-06-11T11:39:25Z</time>
      </trkpt>
      <trkpt lat="43.73159" lon="5.96363">
        <ele>361.1</ele>
        <time>2023-06-11T11:39:26Z</time>
      </trkpt>
      <trkpt lat="43.73159" lon="5.96363">
        <ele>361.1</ele>
        <time>2023-06-11T11:39:27Z</time>
      </trkpt>
      <trkpt lat="43.73159" lon="5.96363">
        <ele>361.1</ele>
        <time>2023-06-11T11:39:28Z</time>
      </trkpt>
      <trkpt lat="43.73159" lon="5.96363">
        <ele>361.1</ele>
        <time>2023-06-11T11:39:29Z</time>
      </trkpt>
      <trkpt lat="43.73159" lon="5.96363">
        <ele>361.1</ele>
        <time>2023-06-11T11:39:30Z</time>
      </trkpt>
      <trkpt lat="43.73159" lon="5.96363">
        <ele>361.1</ele>
        <time>2023-06-11T11:39:31Z</time>
      </trkpt>
      <trkpt lat="43.73159" lon="5.96363">
        <ele>361.2</ele>
        <time>2023-06-11T11:39:32Z</time>
      </trkpt>
      <trkpt lat="43.73159" lon="5.96363">
        <ele>361.2</ele>
        <time>2023-06-11T11:39:33Z</time>
      </trkpt>
      <trkpt lat="43.73159" lon="5.96363">
        <ele>361.2</ele>
        <time>2023-06-11T11:39:34Z</time>
      </trkpt>
      <trkpt lat="43.73159" lon="5.96363">
        <ele>361.2</ele>
        <time>2023-06-11T11:39:35Z</time>
      </trkpt>
      <trkpt lat="43.73159" lon="5.96363">
        <ele>361.2</ele>
        <time>2023-06-11T11:39:36Z</time>
      </trkpt>
      <trkpt lat="43.73159" lon="5.96363">
        <ele>361.2</ele>
        <time>2023-06-11T11:39:37Z</time>
      </trkpt>
      <trkpt lat="43.73159" lon="5.96363">
        <ele>361.2</ele>
        <time>2023-06-11T11:39:38Z</time>
      </trkpt>
      <trkpt lat="43.73159" lon="5.96363">
        <ele>361.2</ele>
        <time>2023-06-11T11:39:39Z</time>
      </trkpt>
      <trkpt lat="43.73159" lon="5.96363">
        <ele>361.2</ele>
        <time>2023-06-11T11:39:40Z</time>
      </trkpt>
      <trkpt lat="43.73159" lon="5.96363">
        <ele>361.2</ele>
        <time>2023-06-11T11:39:41Z</time>
      </trkpt>
      <trkpt lat="43.73159" lon="5.96363">
        <ele>361.1</ele>
        <time>2023-06-11T11:39:42Z</time>
      </trkpt>
      <trkpt lat="43.73159" lon="5.96363">
        <ele>361.1</ele>
        <time>2023-06-11T11:39:43Z</time>
      </trkpt>
      <trkpt lat="43.73159" lon="5.96363">
        <ele>361.1</ele>
        <time>2023-06-11T11:39:44Z</time>
      </trkpt>
      <trkpt lat="43.73158" lon="5.96363">
        <ele>361.2</ele>
        <time>2023-06-11T11:39:45Z</time>
      </trkpt>
      <trkpt lat="43.73158" lon="5.96363">
        <ele>361.3</ele>
        <time>2023-06-11T11:39:46Z</time>
      </trkpt>
      <trkpt lat="43.73158" lon="5.96363">
        <ele>361.3</ele>
        <time>2023-06-11T11:39:47Z</time>
      </trkpt>
      <trkpt lat="43.73158" lon="5.96363">
        <ele>361.3</ele>
        <time>2023-06-11T11:39:48Z</time>
      </trkpt>
      <trkpt lat="43.73158" lon="5.96363">
        <ele>361.3</ele>
        <time>2023-06-11T11:39:49Z</time>
      </trkpt>
      <trkpt lat="43.73158" lon="5.96363">
        <ele>361.3</ele>
        <time>2023-06-11T11:39:50Z</time>
      </trkpt>
      <trkpt lat="43.73158" lon="5.96363">
        <ele>361.3</ele>
        <time>2023-06-11T11:39:51Z</time>
      </trkpt>
      <trkpt lat="43.73158" lon="5.96363">
        <ele>361.3</ele>
        <time>2023-06-11T11:39:52Z</time>
      </trkpt>
      <trkpt lat="43.73158" lon="5.96363">
        <ele>361.3</ele>
        <time>2023-06-11T11:39:53Z</time>
      </trkpt>
      <trkpt lat="43.73158" lon="5.96363">
        <ele>361.2</ele>
        <time>2023-06-11T11:39:54Z</time>
      </trkpt>
      <trkpt lat="43.73158" lon="5.96363">
        <ele>361.2</ele>
        <time>2023-06-11T11:39:55Z</time>
      </trkpt>
      <trkpt lat="43.73158" lon="5.96363">
        <ele>361.2</ele>
        <time>2023-06-11T11:39:56Z</time>
      </trkpt>
      <trkpt lat="43.73158" lon="5.96363">
        <ele>361.2</ele>
        <time>2023-06-11T11:39:57Z</time>
      </trkpt>
      <trkpt lat="43.73158" lon="5.96363">
        <ele>361.2</ele>
        <time>2023-06-11T11:39:58Z</time>
      </trkpt>
      <trkpt lat="43.73158" lon="5.96363">
        <ele>361.3</ele>
        <time>2023-06-11T11:39:59Z</time>
      </trkpt>
      <trkpt lat="43.73158" lon="5.96363">
        <ele>361.3</ele>
        <time>2023-06-11T11:40:00Z</time>
      </trkpt>
      <trkpt lat="43.73158" lon="5.96363">
        <ele>361.3</ele>
        <time>2023-06-11T11:40:01Z</time>
      </trkpt>
      <trkpt lat="43.73158" lon="5.96364">
        <ele>361.3</ele>
        <time>2023-06-11T11:40:02Z</time>
      </trkpt>
      <trkpt lat="43.73158" lon="5.96364">
        <ele>361.2</ele>
        <time>2023-06-11T11:40:03Z</time>
      </trkpt>
      <trkpt lat="43.73158" lon="5.96364">
        <ele>361.2</ele>
        <time>2023-06-11T11:40:04Z</time>
      </trkpt>
      <trkpt lat="43.73158" lon="5.96364">
        <ele>361.2</ele>
        <time>2023-06-11T11:40:05Z</time>
      </trkpt>
      <trkpt lat="43.73158" lon="5.96364">
        <ele>361.2</ele>
        <time>2023-06-11T11:40:06Z</time>
      </trkpt>
      <trkpt lat="43.73158" lon="5.96364">
        <ele>361.2</ele>
        <time>2023-06-11T11:40:07Z</time>
      </trkpt>
      <trkpt lat="43.73158" lon="5.96364">
        <ele>361.3</ele>
        <time>2023-06-11T11:40:08Z</time>
      </trkpt>
      <trkpt lat="43.73158" lon="5.96364">
        <ele>361.3</ele>
        <time>2023-06-11T11:40:09Z</time>
      </trkpt>
      <trkpt lat="43.73158" lon="5.96364">
        <ele>361.4</ele>
        <time>2023-06-11T11:40:10Z</time>
      </trkpt>
      <trkpt lat="43.73158" lon="5.96364">
        <ele>361.4</ele>
        <time>2023-06-11T11:40:11Z</time>
      </trkpt>
      <trkpt lat="43.73158" lon="5.96364">
        <ele>361.4</ele>
        <time>2023-06-11T11:40:12Z</time>
      </trkpt>
      <trkpt lat="43.73158" lon="5.96364">
        <ele>361.4</ele>
        <time>2023-06-11T11:40:13Z</time>
      </trkpt>
      <trkpt lat="43.73159" lon="5.96364">
        <ele>361.4</ele>
        <time>2023-06-11T11:40:14Z</time>
      </trkpt>
      <trkpt lat="43.73159" lon="5.96364">
        <ele>361.3</ele>
        <time>2023-06-11T11:40:15Z</time>
      </trkpt>
      <trkpt lat="43.73159" lon="5.96364">
        <ele>361.3</ele>
        <time>2023-06-11T11:40:16Z</time>
      </trkpt>
      <trkpt lat="43.73159" lon="5.96364">
        <ele>361.3</ele>
        <time>2023-06-11T11:40:17Z</time>
      </trkpt>
      <trkpt lat="43.73159" lon="5.96364">
        <ele>361.4</ele>
        <time>2023-06-11T11:40:18Z</time>
      </trkpt>
      <trkpt lat="43.73159" lon="5.96364">
        <ele>361.4</ele>
        <time>2023-06-11T11:40:19Z</time>
      </trkpt>
      <trkpt lat="43.73159" lon="5.96364">
        <ele>361.4</ele>
        <time>2023-06-11T11:40:20Z</time>
      </trkpt>
      <trkpt lat="43.73159" lon="5.96364">
        <ele>361.5</ele>
        <time>2023-06-11T11:40:21Z</time>
      </trkpt>
      <trkpt lat="43.73159" lon="5.96364">
        <ele>361.5</ele>
        <time>2023-06-11T11:40:22Z</time>
      </trkpt>
      <trkpt lat="43.73159" lon="5.96364">
        <ele>361.5</ele>
        <time>2023-06-11T11:40:23Z</time>
      </trkpt>
      <trkpt lat="43.73159" lon="5.96364">
        <ele>361.5</ele>
        <time>2023-06-11T11:40:24Z</time>
      </trkpt>
      <trkpt lat="43.73159" lon="5.96364">
        <ele>361.5</ele>
        <time>2023-06-11T11:40:25Z</time>
      </trkpt>
      <trkpt lat="43.73159" lon="5.96364">
        <ele>361.4</ele>
        <time>2023-06-11T11:40:26Z</time>
      </trkpt>
      <trkpt lat="43.73159" lon="5.96365">
        <ele>361.5</ele>
        <time>2023-06-11T11:40:27Z</time>
      </trkpt>
      <trkpt lat="43.73159" lon="5.96365">
        <ele>361.5</ele>
        <time>2023-06-11T11:40:28Z</time>
      </trkpt>
      <trkpt lat="43.73159" lon="5.96365">
        <ele>361.6</ele>
        <time>2023-06-11T11:40:29Z</time>
      </trkpt>
      <trkpt lat="43.73159" lon="5.96365">
        <ele>361.6</ele>
        <time>2023-06-11T11:40:30Z</time>
      </trkpt>
      <trkpt lat="43.73159" lon="5.96365">
        <ele>361.6</ele>
        <time>2023-06-11T11:40:31Z</time>
      </trkpt>
      <trkpt lat="43.73159" lon="5.96365">
        <ele>361.6</ele>
        <time>2023-06-11T11:40:32Z</time>
      </trkpt>
      <trkpt lat="43.73159" lon="5.96365">
        <ele>361.6</ele>
        <time>2023-06-11T11:40:33Z</time>
      </trkpt>
      <trkpt lat="43.73159" lon="5.96365">
        <ele>361.6</ele>
        <time>2023-06-11T11:40:34Z</time>
      </trkpt>
      <trkpt lat="43.73159" lon="5.96365">
        <ele>361.6</ele>
        <time>2023-06-11T11:40:35Z</time>
      </trkpt>
      <trkpt lat="43.7316" lon="5.96365">
        <ele>361.6</ele>
        <time>2023-06-11T11:40:36Z</time>
      </trkpt>
      <trkpt lat="43.7316" lon="5.96365">
        <ele>361.6</ele>
        <time>2023-06-11T11:40:37Z</time>
      </trkpt>
      <trkpt lat="43.7316" lon="5.96365">
        <ele>361.6</ele>
        <time>2023-06-11T11:40:38Z</time>
      </trkpt>
      <trkpt lat="43.7316" lon="5.96365">
        <ele>361.6</ele>
        <time>2023-06-11T11:40:39Z</time>
      </trkpt>
      <trkpt lat="43.7316" lon="5.96365">
        <ele>361.6</ele>
        <time>2023-06-11T11:40:40Z</time>
      </trkpt>
      <trkpt lat="43.7316" lon="5.96365">
        <ele>361.5</ele>
        <time>2023-06-11T11:40:41Z</time>
      </trkpt>
      <trkpt lat="43.7316" lon="5.96365">
        <ele>361.5</ele>
        <time>2023-06-11T11:40:42Z</time>
      </trkpt>
      <trkpt lat="43.7316" lon="5.96364">
        <ele>361.5</ele>
        <time>2023-06-11T11:40:43Z</time>
      </trkpt>
      <trkpt lat="43.7316" lon="5.96364">
        <ele>361.5</ele>
        <time>2023-06-11T11:40:44Z</time>
      </trkpt>
      <trkpt lat="43.7316" lon="5.96364">
        <ele>361.5</ele>
        <time>2023-06-11T11:40:45Z</time>
      </trkpt>
      <trkpt lat="43.7316" lon="5.96364">
        <ele>361.5</ele>
        <time>2023-06-11T11:40:46Z</time>
      </trkpt>
      <trkpt lat="43.7316" lon="5.96364">
        <ele>361.5</ele>
        <time>2023-06-11T11:40:47Z</time>
      </trkpt>
      <trkpt lat="43.7316" lon="5.96364">
        <ele>361.5</ele>
        <time>2023-06-11T11:40:48Z</time>
      </trkpt>
      <trkpt lat="43.7316" lon="5.96364">
        <ele>361.6</ele>
        <time>2023-06-11T11:40:49Z</time>
      </trkpt>
      <trkpt lat="43.73161" lon="5.96364">
        <ele>361.6</ele>
        <time>2023-06-11T11:40:50Z</time>
      </trkpt>
      <trkpt lat="43.73161" lon="5.96364">
        <ele>361.7</ele>
        <time>2023-06-11T11:40:51Z</time>
      </trkpt>
      <trkpt lat="43.73161" lon="5.96364">
        <ele>361.7</ele>
        <time>2023-06-11T11:40:52Z</time>
      </trkpt>
      <trkpt lat="43.73161" lon="5.96364">
        <ele>361.7</ele>
        <time>2023-06-11T11:40:53Z</time>
      </trkpt>
      <trkpt lat="43.7316" lon="5.96364">
        <ele>361.8</ele>
        <time>2023-06-11T11:40:54Z</time>
      </trkpt>
      <trkpt lat="43.7316" lon="5.96364">
        <ele>361.8</ele>
        <time>2023-06-11T11:40:55Z</time>
      </trkpt>
      <trkpt lat="43.73159" lon="5.96363">
        <ele>361.7</ele>
        <time>2023-06-11T11:40:56Z</time>
      </trkpt>
      <trkpt lat="43.73159" lon="5.96363">
        <ele>361.8</ele>
        <time>2023-06-11T11:40:57Z</time>
      </trkpt>
      <trkpt lat="43.73159" lon="5.96363">
        <ele>361.8</ele>
        <time>2023-06-11T11:40:58Z</time>
      </trkpt>
      <trkpt lat="43.73159" lon="5.96363">
        <ele>361.7</ele>
        <time>2023-06-11T11:40:59Z</time>
      </trkpt>
      <trkpt lat="43.73158" lon="5.96363">
        <ele>361.6</ele>
        <time>2023-06-11T11:41:00Z</time>
      </trkpt>
      <trkpt lat="43.73158" lon="5.96363">
        <ele>361.6</ele>
        <time>2023-06-11T11:41:01Z</time>
      </trkpt>
      <trkpt lat="43.73159" lon="5.96363">
        <ele>361.5</ele>
        <time>2023-06-11T11:41:02Z</time>
      </trkpt>
      <trkpt lat="43.73159" lon="5.96363">
        <ele>361.5</ele>
        <time>2023-06-11T11:41:03Z</time>
      </trkpt>
      <trkpt lat="43.73159" lon="5.96363">
        <ele>361.5</ele>
        <time>2023-06-11T11:41:04Z</time>
      </trkpt>
      <trkpt lat="43.73159" lon="5.96363">
        <ele>361.4</ele>
        <time>2023-06-11T11:41:05Z</time>
      </trkpt>
      <trkpt lat="43.73159" lon="5.96363">
        <ele>361.4</ele>
        <time>2023-06-11T11:41:06Z</time>
      </trkpt>
      <trkpt lat="43.73159" lon="5.96363">
        <ele>361.4</ele>
        <time>2023-06-11T11:41:07Z</time>
      </trkpt>
      <trkpt lat="43.73159" lon="5.96362">
        <ele>361.5</ele>
        <time>2023-06-11T11:41:08Z</time>
      </trkpt>
      <trkpt lat="43.7316" lon="5.96362">
        <ele>361.5</ele>
        <time>2023-06-11T11:41:09Z</time>
      </trkpt>
      <trkpt lat="43.7316" lon="5.96362">
        <ele>361.6</ele>
        <time>2023-06-11T11:41:10Z</time>
      </trkpt>
      <trkpt lat="43.7316" lon="5.96362">
        <ele>361.7</ele>
        <time>2023-06-11T11:41:11Z</time>
      </trkpt>
      <trkpt lat="43.7316" lon="5.96362">
        <ele>361.7</ele>
        <time>2023-06-11T11:41:12Z</time>
      </trkpt>
      <trkpt lat="43.73161" lon="5.96362">
        <ele>361.8</ele>
        <time>2023-06-11T11:41:13Z</time>
      </trkpt>
      <trkpt lat="43.73161" lon="5.96361">
        <ele>361.8</ele>
        <time>2023-06-11T11:41:14Z</time>
      </trkpt>
      <trkpt lat="43.73161" lon="5.96361">
        <ele>361.9</ele>
        <time>2023-06-11T11:41:15Z</time>
      </trkpt>
      <trkpt lat="43.73161" lon="5.96361">
        <ele>361.9</ele>
        <time>2023-06-11T11:41:16Z</time>
      </trkpt>
      <trkpt lat="43.73161" lon="5.96361">
        <ele>361.9</ele>
        <time>2023-06-11T11:41:17Z</time>
      </trkpt>
      <trkpt lat="43.73161" lon="5.96361">
        <ele>361.8</ele>
        <time>2023-06-11T11:41:18Z</time>
      </trkpt>
      <trkpt lat="43.73162" lon="5.96361">
        <ele>361.8</ele>
        <time>2023-06-11T11:41:19Z</time>
      </trkpt>
      <trkpt lat="43.73162" lon="5.96361">
        <ele>361.8</ele>
        <time>2023-06-11T11:41:20Z</time>
      </trkpt>
      <trkpt lat="43.73162" lon="5.9636">
        <ele>361.8</ele>
        <time>2023-06-11T11:41:21Z</time>
      </trkpt>
      <trkpt lat="43.73162" lon="5.9636">
        <ele>361.9</ele>
        <time>2023-06-11T11:41:22Z</time>
      </trkpt>
      <trkpt lat="43.73162" lon="5.9636">
        <ele>361.9</ele>
        <time>2023-06-11T11:41:23Z</time>
      </trkpt>
      <trkpt lat="43.73162" lon="5.9636">
        <ele>361.9</ele>
        <time>2023-06-11T11:41:24Z</time>
      </trkpt>
      <trkpt lat="43.73162" lon="5.9636">
        <ele>361.9</ele>
        <time>2023-06-11T11:41:25Z</time>
      </trkpt>
      <trkpt lat="43.73162" lon="5.9636">
        <ele>361.8</ele>
        <time>2023-06-11T11:41:26Z</time>
      </trkpt>
      <trkpt lat="43.73162" lon="5.9636">
        <ele>361.8</ele>
        <time>2023-06-11T11:41:27Z</time>
      </trkpt>
      <trkpt lat="43.73162" lon="5.9636">
        <ele>361.7</ele>
        <time>2023-06-11T11:41:28Z</time>
      </trkpt>
      <trkpt lat="43.73162" lon="5.9636">
        <ele>361.7</ele>
        <time>2023-06-11T11:41:29Z</time>
      </trkpt>
      <trkpt lat="43.73162" lon="5.9636">
        <ele>361.7</ele>
        <time>2023-06-11T11:41:30Z</time>
      </trkpt>
      <trkpt lat="43.73162" lon="5.9636">
        <ele>361.7</ele>
        <time>2023-06-11T11:41:31Z</time>
      </trkpt>
      <trkpt lat="43.73162" lon="5.9636">
        <ele>361.8</ele>
        <time>2023-06-11T11:41:32Z</time>
      </trkpt>
      <trkpt lat="43.73162" lon="5.9636">
        <ele>361.8</ele>
        <time>2023-06-11T11:41:33Z</time>
      </trkpt>
      <trkpt lat="43.73162" lon="5.9636">
        <ele>361.9</ele>
        <time>2023-06-11T11:41:34Z</time>
      </trkpt>
      <trkpt lat="43.73163" lon="5.9636">
        <ele>361.9</ele>
        <time>2023-06-11T11:41:35Z</time>
      </trkpt>
      <trkpt lat="43.73162" lon="5.9636">
        <ele>361.9</ele>
        <time>2023-06-11T11:41:36Z</time>
      </trkpt>
      <trkpt lat="43.73162" lon="5.96361">
        <ele>361.8</ele>
        <time>2023-06-11T11:41:37Z</time>
      </trkpt>
      <trkpt lat="43.73162" lon="5.96361">
        <ele>361.7</ele>
        <time>2023-06-11T11:41:38Z</time>
      </trkpt>
      <trkpt lat="43.73162" lon="5.96361">
        <ele>361.7</ele>
        <time>2023-06-11T11:41:39Z</time>
      </trkpt>
      <trkpt lat="43.73163" lon="5.96361">
        <ele>361.7</ele>
        <time>2023-06-11T11:41:40Z</time>
      </trkpt>
      <trkpt lat="43.73163" lon="5.96361">
        <ele>361.7</ele>
        <time>2023-06-11T11:41:41Z</time>
      </trkpt>
      <trkpt lat="43.73163" lon="5.96361">
        <ele>361.7</ele>
        <time>2023-06-11T11:41:42Z</time>
      </trkpt>
      <trkpt lat="43.73163" lon="5.96361">
        <ele>361.7</ele>
        <time>2023-06-11T11:41:43Z</time>
      </trkpt>
      <trkpt lat="43.73163" lon="5.96361">
        <ele>361.7</ele>
        <time>2023-06-11T11:41:44Z</time>
      </trkpt>
      <trkpt lat="43.73163" lon="5.96361">
        <ele>361.7</ele>
        <time>2023-06-11T11:41:45Z</time>
      </trkpt>
      <trkpt lat="43.73163" lon="5.96361">
        <ele>361.7</ele>
        <time>2023-06-11T11:41:46Z</time>
      </trkpt>
      <trkpt lat="43.73163" lon="5.96361">
        <ele>361.7</ele>
        <time>2023-06-11T11:41:47Z</time>
      </trkpt>
      <trkpt lat="43.73163" lon="5.96361">
        <ele>361.7</ele>
        <time>2023-06-11T11:41:48Z</time>
      </trkpt>
      <trkpt lat="43.73163" lon="5.96361">
        <ele>361.7</ele>
        <time>2023-06-11T11:41:49Z</time>
      </trkpt>
      <trkpt lat="43.73164" lon="5.96361">
        <ele>361.7</ele>
        <time>2023-06-11T11:41:50Z</time>
      </trkpt>
      <trkpt lat="43.73164" lon="5.96361">
        <ele>361.7</ele>
        <time>2023-06-11T11:41:51Z</time>
      </trkpt>
      <trkpt lat="43.73164" lon="5.96361">
        <ele>361.7</ele>
        <time>2023-06-11T11:41:52Z</time>
      </trkpt>
      <trkpt lat="43.73164" lon="5.96361">
        <ele>361.7</ele>
        <time>2023-06-11T11:41:53Z</time>
      </trkpt>
      <trkpt lat="43.73164" lon="5.96361">
        <ele>361.7</ele>
        <time>2023-06-11T11:41:54Z</time>
      </trkpt>
      <trkpt lat="43.73163" lon="5.96361">
        <ele>361.7</ele>
        <time>2023-06-11T11:41:55Z</time>
      </trkpt>
      <trkpt lat="43.73163" lon="5.96361">
        <ele>361.7</ele>
        <time>2023-06-11T11:41:56Z</time>
      </trkpt>
      <trkpt lat="43.73163" lon="5.96361">
        <ele>361.7</ele>
        <time>2023-06-11T11:41:57Z</time>
      </trkpt>
      <trkpt lat="43.73163" lon="5.96361">
        <ele>361.7</ele>
        <time>2023-06-11T11:41:58Z</time>
      </trkpt>
      <trkpt lat="43.73163" lon="5.96361">
        <ele>361.7</ele>
        <time>2023-06-11T11:41:59Z</time>
      </trkpt>
      <trkpt lat="43.73163" lon="5.96361">
        <ele>361.7</ele>
        <time>2023-06-11T11:42:00Z</time>
      </trkpt>
      <trkpt lat="43.73163" lon="5.96361">
        <ele>361.7</ele>
        <time>2023-06-11T11:42:01Z</time>
      </trkpt>
      <trkpt lat="43.73162" lon="5.96361">
        <ele>361.7</ele>
        <time>2023-06-11T11:42:02Z</time>
      </trkpt>
      <trkpt lat="43.73162" lon="5.96361">
        <ele>361.6</ele>
        <time>2023-06-11T11:42:03Z</time>
      </trkpt>
      <trkpt lat="43.73162" lon="5.96361">
        <ele>361.6</ele>
        <time>2023-06-11T11:42:04Z</time>
      </trkpt>
      <trkpt lat="43.73162" lon="5.96361">
        <ele>361.6</ele>
        <time>2023-06-11T11:42:05Z</time>
      </trkpt>
      <trkpt lat="43.73163" lon="5.96361">
        <ele>361.5</ele>
        <time>2023-06-11T11:42:06Z</time>
      </trkpt>
      <trkpt lat="43.73163" lon="5.96361">
        <ele>361.5</ele>
        <time>2023-06-11T11:42:07Z</time>
      </trkpt>
      <trkpt lat="43.73163" lon="5.96361">
        <ele>361.5</ele>
        <time>2023-06-11T11:42:08Z</time>
      </trkpt>
      <trkpt lat="43.73163" lon="5.96361">
        <ele>361.5</ele>
        <time>2023-06-11T11:42:09Z</time>
      </trkpt>
      <trkpt lat="43.73163" lon="5.96361">
        <ele>361.5</ele>
        <time>2023-06-11T11:42:10Z</time>
      </trkpt>
      <trkpt lat="43.73163" lon="5.96362">
        <ele>361.5</ele>
        <time>2023-06-11T11:42:11Z</time>
      </trkpt>
      <trkpt lat="43.73163" lon="5.96362">
        <ele>361.5</ele>
        <time>2023-06-11T11:42:12Z</time>
      </trkpt>
      <trkpt lat="43.73163" lon="5.96362">
        <ele>361.5</ele>
        <time>2023-06-11T11:42:13Z</time>
      </trkpt>
      <trkpt lat="43.73164" lon="5.96362">
        <ele>361.4</ele>
        <time>2023-06-11T11:42:14Z</time>
      </trkpt>
      <trkpt lat="43.73164" lon="5.96362">
        <ele>361.4</ele>
        <time>2023-06-11T11:42:15Z</time>
      </trkpt>
      <trkpt lat="43.73164" lon="5.96362">
        <ele>361.5</ele>
        <time>2023-06-11T11:42:16Z</time>
      </trkpt>
      <trkpt lat="43.73164" lon="5.96362">
        <ele>361.5</ele>
        <time>2023-06-11T11:42:17Z</time>
      </trkpt>
      <trkpt lat="43.73164" lon="5.96362">
        <ele>361.5</ele>
        <time>2023-06-11T11:42:18Z</time>
      </trkpt>
      <trkpt lat="43.73164" lon="5.96362">
        <ele>361.5</ele>
        <time>2023-06-11T11:42:19Z</time>
      </trkpt>
      <trkpt lat="43.73164" lon="5.96362">
        <ele>361.5</ele>
        <time>2023-06-11T11:42:20Z</time>
      </trkpt>
      <trkpt lat="43.73164" lon="5.96362">
        <ele>361.5</ele>
        <time>2023-06-11T11:42:21Z</time>
      </trkpt>
      <trkpt lat="43.73164" lon="5.96362">
        <ele>361.6</ele>
        <time>2023-06-11T11:42:22Z</time>
      </trkpt>
      <trkpt lat="43.73164" lon="5.96362">
        <ele>361.6</ele>
        <time>2023-06-11T11:42:23Z</time>
      </trkpt>
      <trkpt lat="43.73164" lon="5.96362">
        <ele>361.6</ele>
        <time>2023-06-11T11:42:24Z</time>
      </trkpt>
      <trkpt lat="43.73164" lon="5.96362">
        <ele>361.6</ele>
        <time>2023-06-11T11:42:25Z</time>
      </trkpt>
      <trkpt lat="43.73164" lon="5.96362">
        <ele>361.6</ele>
        <time>2023-06-11T11:42:26Z</time>
      </trkpt>
      <trkpt lat="43.73164" lon="5.96362">
        <ele>361.6</ele>
        <time>2023-06-11T11:42:27Z</time>
      </trkpt>
      <trkpt lat="43.73164" lon="5.96362">
        <ele>361.6</ele>
        <time>2023-06-11T11:42:28Z</time>
      </trkpt>
      <trkpt lat="43.73163" lon="5.96362">
        <ele>361.6</ele>
        <time>2023-06-11T11:42:29Z</time>
      </trkpt>
      <trkpt lat="43.73163" lon="5.96362">
        <ele>361.5</ele>
        <time>2023-06-11T11:42:30Z</time>
      </trkpt>
      <trkpt lat="43.73163" lon="5.96362">
        <ele>361.5</ele>
        <time>2023-06-11T11:42:31Z</time>
      </trkpt>
      <trkpt lat="43.73163" lon="5.96362">
        <ele>361.5</ele>
        <time>2023-06-11T11:42:32Z</time>
      </trkpt>
      <trkpt lat="43.73163" lon="5.96362">
        <ele>361.6</ele>
        <time>2023-06-11T11:42:33Z</time>
      </trkpt>
      <trkpt lat="43.73164" lon="5.96362">
        <ele>361.6</ele>
        <time>2023-06-11T11:42:34Z</time>
      </trkpt>
      <trkpt lat="43.73164" lon="5.96362">
        <ele>361.7</ele>
        <time>2023-06-11T11:42:35Z</time>
      </trkpt>
      <trkpt lat="43.73163" lon="5.96362">
        <ele>361.7</ele>
        <time>2023-06-11T11:42:36Z</time>
      </trkpt>
      <trkpt lat="43.73163" lon="5.96362">
        <ele>361.6</ele>
        <time>2023-06-11T11:42:37Z</time>
      </trkpt>
      <trkpt lat="43.73162" lon="5.96363">
        <ele>361.6</ele>
        <time>2023-06-11T11:42:38Z</time>
      </trkpt>
      <trkpt lat="43.73162" lon="5.96363">
        <ele>361.6</ele>
        <time>2023-06-11T11:42:39Z</time>
      </trkpt>
      <trkpt lat="43.73161" lon="5.96363">
        <ele>361.5</ele>
        <time>2023-06-11T11:42:40Z</time>
      </trkpt>
      <trkpt lat="43.7316" lon="5.96364">
        <ele>361.5</ele>
        <time>2023-06-11T11:42:41Z</time>
      </trkpt>
      <trkpt lat="43.7316" lon="5.96365">
        <ele>361.5</ele>
        <time>2023-06-11T11:42:42Z</time>
      </trkpt>
      <trkpt lat="43.73159" lon="5.96366">
        <ele>361.5</ele>
        <time>2023-06-11T11:42:43Z</time>
      </trkpt>
      <trkpt lat="43.73159" lon="5.96367">
        <ele>361.5</ele>
        <time>2023-06-11T11:42:44Z</time>
      </trkpt>
      <trkpt lat="43.73159" lon="5.96367">
        <ele>361.5</ele>
        <time>2023-06-11T11:42:45Z</time>
      </trkpt>
      <trkpt lat="43.73159" lon="5.96368">
        <ele>361.5</ele>
        <time>2023-06-11T11:42:46Z</time>
      </trkpt>
      <trkpt lat="43.73159" lon="5.96368">
        <ele>361.5</ele>
        <time>2023-06-11T11:42:47Z</time>
      </trkpt>
      <trkpt lat="43.73159" lon="5.96369">
        <ele>361.5</ele>
        <time>2023-06-11T11:42:48Z</time>
      </trkpt>
      <trkpt lat="43.73159" lon="5.96368">
        <ele>361.4</ele>
        <time>2023-06-11T11:42:49Z</time>
      </trkpt>
      <trkpt lat="43.73159" lon="5.96368">
        <ele>361.3</ele>
        <time>2023-06-11T11:42:50Z</time>
      </trkpt>
      <trkpt lat="43.73159" lon="5.96368">
        <ele>361.2</ele>
        <time>2023-06-11T11:42:51Z</time>
      </trkpt>
      <trkpt lat="43.73159" lon="5.96368">
        <ele>361.2</ele>
        <time>2023-06-11T11:42:52Z</time>
      </trkpt>
      <trkpt lat="43.73159" lon="5.96368">
        <ele>361.1</ele>
        <time>2023-06-11T11:42:53Z</time>
      </trkpt>
      <trkpt lat="43.73159" lon="5.96369">
        <ele>361</ele>
        <time>2023-06-11T11:42:54Z</time>
      </trkpt>
      <trkpt lat="43.73159" lon="5.96369">
        <ele>361.1</ele>
        <time>2023-06-11T11:42:55Z</time>
      </trkpt>
      <trkpt lat="43.73159" lon="5.96369">
        <ele>361</ele>
        <time>2023-06-11T11:42:56Z</time>
      </trkpt>
      <trkpt lat="43.73159" lon="5.96369">
        <ele>361</ele>
        <time>2023-06-11T11:42:57Z</time>
      </trkpt>
      <trkpt lat="43.73159" lon="5.96369">
        <ele>361</ele>
        <time>2023-06-11T11:42:58Z</time>
      </trkpt>
      <trkpt lat="43.73159" lon="5.96369">
        <ele>361.1</ele>
        <time>2023-06-11T11:42:59Z</time>
      </trkpt>
      <trkpt lat="43.73159" lon="5.96368">
        <ele>361.1</ele>
        <time>2023-06-11T11:43:00Z</time>
      </trkpt>
      <trkpt lat="43.73158" lon="5.96369">
        <ele>361</ele>
        <time>2023-06-11T11:43:01Z</time>
      </trkpt>
      <trkpt lat="43.73158" lon="5.96368">
        <ele>361</ele>
        <time>2023-06-11T11:43:02Z</time>
      </trkpt>
      <trkpt lat="43.73158" lon="5.96369">
        <ele>360.9</ele>
        <time>2023-06-11T11:43:03Z</time>
      </trkpt>
      <trkpt lat="43.73158" lon="5.96369">
        <ele>360.9</ele>
        <time>2023-06-11T11:43:04Z</time>
      </trkpt>
      <trkpt lat="43.73158" lon="5.96369">
        <ele>361</ele>
        <time>2023-06-11T11:43:05Z</time>
      </trkpt>
      <trkpt lat="43.73158" lon="5.96369">
        <ele>360.9</ele>
        <time>2023-06-11T11:43:06Z</time>
      </trkpt>
      <trkpt lat="43.73158" lon="5.96369">
        <ele>360.9</ele>
        <time>2023-06-11T11:43:07Z</time>
      </trkpt>
      <trkpt lat="43.73158" lon="5.96369">
        <ele>360.9</ele>
        <time>2023-06-11T11:43:08Z</time>
      </trkpt>
      <trkpt lat="43.73157" lon="5.96369">
        <ele>361</ele>
        <time>2023-06-11T11:43:09Z</time>
      </trkpt>
      <trkpt lat="43.73157" lon="5.96369">
        <ele>361</ele>
        <time>2023-06-11T11:43:10Z</time>
      </trkpt>
      <trkpt lat="43.73157" lon="5.96369">
        <ele>361</ele>
        <time>2023-06-11T11:43:11Z</time>
      </trkpt>
      <trkpt lat="43.73157" lon="5.96369">
        <ele>361</ele>
        <time>2023-06-11T11:43:12Z</time>
      </trkpt>
      <trkpt lat="43.73157" lon="5.96369">
        <ele>361</ele>
        <time>2023-06-11T11:43:13Z</time>
      </trkpt>
      <trkpt lat="43.73157" lon="5.96369">
        <ele>361</ele>
        <time>2023-06-11T11:43:14Z</time>
      </trkpt>
      <trkpt lat="43.73157" lon="5.96369">
        <ele>361.1</ele>
        <time>2023-06-11T11:43:15Z</time>
      </trkpt>
      <trkpt lat="43.73157" lon="5.96369">
        <ele>361</ele>
        <time>2023-06-11T11:43:16Z</time>
      </trkpt>
      <trkpt lat="43.73156" lon="5.96369">
        <ele>360.9</ele>
        <time>2023-06-11T11:43:17Z</time>
      </trkpt>
      <trkpt lat="43.73156" lon="5.96369">
        <ele>360.9</ele>
        <time>2023-06-11T11:43:18Z</time>
      </trkpt>
      <trkpt lat="43.73156" lon="5.96369">
        <ele>360.9</ele>
        <time>2023-06-11T11:43:19Z</time>
      </trkpt>
      <trkpt lat="43.73156" lon="5.96369">
        <ele>360.9</ele>
        <time>2023-06-11T11:43:20Z</time>
      </trkpt>
      <trkpt lat="43.73156" lon="5.96369">
        <ele>360.9</ele>
        <time>2023-06-11T11:43:21Z</time>
      </trkpt>
      <trkpt lat="43.73156" lon="5.96369">
        <ele>360.9</ele>
        <time>2023-06-11T11:43:22Z</time>
      </trkpt>
      <trkpt lat="43.73156" lon="5.96369">
        <ele>360.9</ele>
        <time>2023-06-11T11:43:23Z</time>
      </trkpt>
      <trkpt lat="43.73156" lon="5.96369">
        <ele>360.9</ele>
        <time>2023-06-11T11:43:24Z</time>
      </trkpt>
      <trkpt lat="43.73156" lon="5.96369">
        <ele>361</ele>
        <time>2023-06-11T11:43:25Z</time>
      </trkpt>
      <trkpt lat="43.73156" lon="5.9637">
        <ele>361</ele>
        <time>2023-06-11T11:43:26Z</time>
      </trkpt>
      <trkpt lat="43.73157" lon="5.96369">
        <ele>361.1</ele>
        <time>2023-06-11T11:43:27Z</time>
      </trkpt>
      <trkpt lat="43.73157" lon="5.96369">
        <ele>361</ele>
        <time>2023-06-11T11:43:28Z</time>
      </trkpt>
      <trkpt lat="43.73157" lon="5.96369">
        <ele>361</ele>
        <time>2023-06-11T11:43:29Z</time>
      </trkpt>
      <trkpt lat="43.73157" lon="5.96369">
        <ele>361</ele>
        <time>2023-06-11T11:43:30Z</time>
      </trkpt>
      <trkpt lat="43.73157" lon="5.96369">
        <ele>361.1</ele>
        <time>2023-06-11T11:43:31Z</time>
      </trkpt>
      <trkpt lat="43.73157" lon="5.96369">
        <ele>361.1</ele>
        <time>2023-06-11T11:43:32Z</time>
      </trkpt>
      <trkpt lat="43.73157" lon="5.96369">
        <ele>361.2</ele>
        <time>2023-06-11T11:43:33Z</time>
      </trkpt>
      <trkpt lat="43.73157" lon="5.96369">
        <ele>361.2</ele>
        <time>2023-06-11T11:43:34Z</time>
      </trkpt>
      <trkpt lat="43.73157" lon="5.96369">
        <ele>361.2</ele>
        <time>2023-06-11T11:43:35Z</time>
      </trkpt>
      <trkpt lat="43.73157" lon="5.96369">
        <ele>361.1</ele>
        <time>2023-06-11T11:43:36Z</time>
      </trkpt>
      <trkpt lat="43.73157" lon="5.96369">
        <ele>361.1</ele>
        <time>2023-06-11T11:43:37Z</time>
      </trkpt>
      <trkpt lat="43.73157" lon="5.9637">
        <ele>361</ele>
        <time>2023-06-11T11:43:38Z</time>
      </trkpt>
      <trkpt lat="43.73157" lon="5.9637">
        <ele>361.1</ele>
        <time>2023-06-11T11:43:39Z</time>
      </trkpt>
      <trkpt lat="43.73157" lon="5.9637">
        <ele>361.1</ele>
        <time>2023-06-11T11:43:40Z</time>
      </trkpt>
      <trkpt lat="43.73157" lon="5.9637">
        <ele>361.1</ele>
        <time>2023-06-11T11:43:41Z</time>
      </trkpt>
      <trkpt lat="43.73157" lon="5.9637">
        <ele>361.1</ele>
        <time>2023-06-11T11:43:42Z</time>
      </trkpt>
      <trkpt lat="43.73157" lon="5.9637">
        <ele>361.1</ele>
        <time>2023-06-11T11:43:43Z</time>
      </trkpt>
      <trkpt lat="43.73157" lon="5.9637">
        <ele>361.1</ele>
        <time>2023-06-11T11:43:44Z</time>
      </trkpt>
      <trkpt lat="43.73157" lon="5.9637">
        <ele>361.2</ele>
        <time>2023-06-11T11:43:45Z</time>
      </trkpt>
      <trkpt lat="43.73157" lon="5.9637">
        <ele>361.3</ele>
        <time>2023-06-11T11:43:46Z</time>
      </trkpt>
      <trkpt lat="43.73157" lon="5.9637">
        <ele>361.3</ele>
        <time>2023-06-11T11:43:47Z</time>
      </trkpt>
      <trkpt lat="43.73157" lon="5.9637">
        <ele>361.3</ele>
        <time>2023-06-11T11:43:48Z</time>
      </trkpt>
      <trkpt lat="43.73157" lon="5.9637">
        <ele>361.4</ele>
        <time>2023-06-11T11:43:49Z</time>
      </trkpt>
      <trkpt lat="43.73157" lon="5.9637">
        <ele>361.3</ele>
        <time>2023-06-11T11:43:50Z</time>
      </trkpt>
      <trkpt lat="43.73157" lon="5.9637">
        <ele>361.4</ele>
        <time>2023-06-11T11:43:51Z</time>
      </trkpt>
      <trkpt lat="43.73157" lon="5.9637">
        <ele>361.4</ele>
        <time>2023-06-11T11:43:52Z</time>
      </trkpt>
      <trkpt lat="43.73157" lon="5.9637">
        <ele>361.4</ele>
        <time>2023-06-11T11:43:53Z</time>
      </trkpt>
      <trkpt lat="43.73157" lon="5.9637">
        <ele>361.4</ele>
        <time>2023-06-11T11:43:54Z</time>
      </trkpt>
      <trkpt lat="43.73157" lon="5.9637">
        <ele>361.3</ele>
        <time>2023-06-11T11:43:55Z</time>
      </trkpt>
      <trkpt lat="43.73157" lon="5.9637">
        <ele>361.3</ele>
        <time>2023-06-11T11:43:56Z</time>
      </trkpt>
      <trkpt lat="43.73157" lon="5.9637">
        <ele>361.3</ele>
        <time>2023-06-11T11:43:57Z</time>
      </trkpt>
      <trkpt lat="43.73157" lon="5.9637">
        <ele>361.3</ele>
        <time>2023-06-11T11:43:58Z</time>
      </trkpt>
      <trkpt lat="43.73157" lon="5.9637">
        <ele>361.2</ele>
        <time>2023-06-11T11:43:59Z</time>
      </trkpt>
      <trkpt lat="43.73157" lon="5.9637">
        <ele>361.2</ele>
        <time>2023-06-11T11:44:00Z</time>
      </trkpt>
      <trkpt lat="43.73157" lon="5.9637">
        <ele>361.3</ele>
        <time>2023-06-11T11:44:01Z</time>
      </trkpt>
      <trkpt lat="43.73157" lon="5.9637">
        <ele>361.4</ele>
        <time>2023-06-11T11:44:02Z</time>
      </trkpt>
      <trkpt lat="43.73157" lon="5.9637">
        <ele>361.4</ele>
        <time>2023-06-11T11:44:03Z</time>
      </trkpt>
      <trkpt lat="43.73157" lon="5.9637">
        <ele>361.4</ele>
        <time>2023-06-11T11:44:04Z</time>
      </trkpt>
      <trkpt lat="43.73157" lon="5.9637">
        <ele>361.4</ele>
        <time>2023-06-11T11:44:05Z</time>
      </trkpt>
      <trkpt lat="43.73157" lon="5.9637">
        <ele>361.4</ele>
        <time>2023-06-11T11:44:06Z</time>
      </trkpt>
      <trkpt lat="43.73157" lon="5.9637">
        <ele>361.4</ele>
        <time>2023-06-11T11:44:07Z</time>
      </trkpt>
      <trkpt lat="43.73157" lon="5.9637">
        <ele>361.3</ele>
        <time>2023-06-11T11:44:08Z</time>
      </trkpt>
      <trkpt lat="43.73157" lon="5.9637">
        <ele>361.3</ele>
        <time>2023-06-11T11:44:09Z</time>
      </trkpt>
      <trkpt lat="43.73158" lon="5.9637">
        <ele>361.3</ele>
        <time>2023-06-11T11:44:10Z</time>
      </trkpt>
      <trkpt lat="43.73157" lon="5.9637">
        <ele>361.4</ele>
        <time>2023-06-11T11:44:11Z</time>
      </trkpt>
      <trkpt lat="43.73157" lon="5.9637">
        <ele>361.3</ele>
        <time>2023-06-11T11:44:12Z</time>
      </trkpt>
      <trkpt lat="43.73157" lon="5.9637">
        <ele>361.2</ele>
        <time>2023-06-11T11:44:13Z</time>
      </trkpt>
      <trkpt lat="43.73157" lon="5.9637">
        <ele>361.2</ele>
        <time>2023-06-11T11:44:14Z</time>
      </trkpt>
      <trkpt lat="43.73157" lon="5.9637">
        <ele>361.2</ele>
        <time>2023-06-11T11:44:15Z</time>
      </trkpt>
      <trkpt lat="43.73157" lon="5.9637">
        <ele>361.1</ele>
        <time>2023-06-11T11:44:16Z</time>
      </trkpt>
      <trkpt lat="43.73158" lon="5.9637">
        <ele>361.2</ele>
        <time>2023-06-11T11:44:17Z</time>
      </trkpt>
      <trkpt lat="43.73158" lon="5.9637">
        <ele>361.2</ele>
        <time>2023-06-11T11:44:18Z</time>
      </trkpt>
      <trkpt lat="43.73158" lon="5.9637">
        <ele>361.2</ele>
        <time>2023-06-11T11:44:19Z</time>
      </trkpt>
      <trkpt lat="43.73158" lon="5.9637">
        <ele>361.1</ele>
        <time>2023-06-11T11:44:20Z</time>
      </trkpt>
      <trkpt lat="43.73158" lon="5.9637">
        <ele>361.1</ele>
        <time>2023-06-11T11:44:21Z</time>
      </trkpt>
      <trkpt lat="43.73158" lon="5.9637">
        <ele>361.3</ele>
        <time>2023-06-11T11:44:22Z</time>
      </trkpt>
      <trkpt lat="43.73158" lon="5.9637">
        <ele>361.3</ele>
        <time>2023-06-11T11:44:23Z</time>
      </trkpt>
      <trkpt lat="43.73158" lon="5.9637">
        <ele>361.3</ele>
        <time>2023-06-11T11:44:24Z</time>
      </trkpt>
      <trkpt lat="43.73158" lon="5.9637">
        <ele>361.3</ele>
        <time>2023-06-11T11:44:25Z</time>
      </trkpt>
      <trkpt lat="43.73158" lon="5.9637">
        <ele>361.2</ele>
        <time>2023-06-11T11:44:26Z</time>
      </trkpt>
      <trkpt lat="43.73157" lon="5.9637">
        <ele>361.2</ele>
        <time>2023-06-11T11:44:27Z</time>
      </trkpt>
      <trkpt lat="43.73157" lon="5.9637">
        <ele>361.2</ele>
        <time>2023-06-11T11:44:28Z</time>
      </trkpt>
      <trkpt lat="43.73157" lon="5.9637">
        <ele>361.2</ele>
        <time>2023-06-11T11:44:29Z</time>
      </trkpt>
      <trkpt lat="43.73157" lon="5.9637">
        <ele>361.2</ele>
        <time>2023-06-11T11:44:30Z</time>
      </trkpt>
      <trkpt lat="43.73157" lon="5.9637">
        <ele>361.2</ele>
        <time>2023-06-11T11:44:31Z</time>
      </trkpt>
      <trkpt lat="43.73157" lon="5.9637">
        <ele>361.3</ele>
        <time>2023-06-11T11:44:32Z</time>
      </trkpt>
      <trkpt lat="43.73157" lon="5.9637">
        <ele>361.3</ele>
        <time>2023-06-11T11:44:33Z</time>
      </trkpt>
      <trkpt lat="43.73157" lon="5.9637">
        <ele>361.3</ele>
        <time>2023-06-11T11:44:34Z</time>
      </trkpt>
      <trkpt lat="43.73157" lon="5.9637">
        <ele>361.2</ele>
        <time>2023-06-11T11:44:35Z</time>
      </trkpt>
      <trkpt lat="43.73157" lon="5.9637">
        <ele>361.2</ele>
        <time>2023-06-11T11:44:36Z</time>
      </trkpt>
      <trkpt lat="43.73157" lon="5.9637">
        <ele>361.2</ele>
        <time>2023-06-11T11:44:37Z</time>
      </trkpt>
      <trkpt lat="43.73157" lon="5.96369">
        <ele>361.2</ele>
        <time>2023-06-11T11:44:38Z</time>
      </trkpt>
      <trkpt lat="43.73157" lon="5.96369">
        <ele>361.2</ele>
        <time>2023-06-11T11:44:39Z</time>
      </trkpt>
      <trkpt lat="43.73157" lon="5.9637">
        <ele>361.2</ele>
        <time>2023-06-11T11:44:40Z</time>
      </trkpt>
      <trkpt lat="43.73157" lon="5.9637">
        <ele>361.2</ele>
        <time>2023-06-11T11:44:41Z</time>
      </trkpt>
      <trkpt lat="43.73157" lon="5.9637">
        <ele>361.2</ele>
        <time>2023-06-11T11:44:42Z</time>
      </trkpt>
      <trkpt lat="43.73157" lon="5.9637">
        <ele>361.2</ele>
        <time>2023-06-11T11:44:43Z</time>
      </trkpt>
      <trkpt lat="43.73157" lon="5.9637">
        <ele>361.2</ele>
        <time>2023-06-11T11:44:44Z</time>
      </trkpt>
      <trkpt lat="43.73157" lon="5.96369">
        <ele>361.2</ele>
        <time>2023-06-11T11:44:45Z</time>
      </trkpt>
      <trkpt lat="43.73157" lon="5.96369">
        <ele>361.1</ele>
        <time>2023-06-11T11:44:46Z</time>
      </trkpt>
      <trkpt lat="43.73157" lon="5.96369">
        <ele>361.1</ele>
        <time>2023-06-11T11:44:47Z</time>
      </trkpt>
      <trkpt lat="43.73157" lon="5.96369">
        <ele>361.1</ele>
        <time>2023-06-11T11:44:48Z</time>
      </trkpt>
      <trkpt lat="43.73157" lon="5.96369">
        <ele>361.1</ele>
        <time>2023-06-11T11:44:49Z</time>
      </trkpt>
      <trkpt lat="43.73157" lon="5.96369">
        <ele>361</ele>
        <time>2023-06-11T11:44:50Z</time>
      </trkpt>
      <trkpt lat="43.73157" lon="5.96369">
        <ele>361</ele>
        <time>2023-06-11T11:44:51Z</time>
      </trkpt>
      <trkpt lat="43.73157" lon="5.96369">
        <ele>361</ele>
        <time>2023-06-11T11:44:52Z</time>
      </trkpt>
      <trkpt lat="43.73157" lon="5.96369">
        <ele>361</ele>
        <time>2023-06-11T11:44:53Z</time>
      </trkpt>
      <trkpt lat="43.73157" lon="5.96369">
        <ele>361</ele>
        <time>2023-06-11T11:44:54Z</time>
      </trkpt>
      <trkpt lat="43.73158" lon="5.96369">
        <ele>361</ele>
        <time>2023-06-11T11:44:55Z</time>
      </trkpt>
      <trkpt lat="43.73158" lon="5.96369">
        <ele>361.1</ele>
        <time>2023-06-11T11:44:56Z</time>
      </trkpt>
      <trkpt lat="43.73158" lon="5.9637">
        <ele>361</ele>
        <time>2023-06-11T11:44:57Z</time>
      </trkpt>
      <trkpt lat="43.73158" lon="5.9637">
        <ele>361</ele>
        <time>2023-06-11T11:44:58Z</time>
      </trkpt>
      <trkpt lat="43.73157" lon="5.96371">
        <ele>361</ele>
        <time>2023-06-11T11:44:59Z</time>
      </trkpt>
      <trkpt lat="43.73157" lon="5.96371">
        <ele>361</ele>
        <time>2023-06-11T11:45:00Z</time>
      </trkpt>
      <trkpt lat="43.73157" lon="5.96372">
        <ele>361</ele>
        <time>2023-06-11T11:45:01Z</time>
      </trkpt>
      <trkpt lat="43.73157" lon="5.96372">
        <ele>361</ele>
        <time>2023-06-11T11:45:02Z</time>
      </trkpt>
      <trkpt lat="43.73157" lon="5.96372">
        <ele>361</ele>
        <time>2023-06-11T11:45:03Z</time>
      </trkpt>
      <trkpt lat="43.73156" lon="5.96373">
        <ele>361.1</ele>
        <time>2023-06-11T11:45:04Z</time>
      </trkpt>
      <trkpt lat="43.73156" lon="5.96373">
        <ele>361.1</ele>
        <time>2023-06-11T11:45:05Z</time>
      </trkpt>
      <trkpt lat="43.73155" lon="5.96374">
        <ele>361.1</ele>
        <time>2023-06-11T11:45:06Z</time>
      </trkpt>
      <trkpt lat="43.73154" lon="5.96374">
        <ele>361.1</ele>
        <time>2023-06-11T11:45:07Z</time>
      </trkpt>
      <trkpt lat="43.73154" lon="5.96374">
        <ele>361</ele>
        <time>2023-06-11T11:45:08Z</time>
      </trkpt>
      <trkpt lat="43.73153" lon="5.96374">
        <ele>361</ele>
        <time>2023-06-11T11:45:09Z</time>
      </trkpt>
      <trkpt lat="43.73152" lon="5.96374">
        <ele>361</ele>
        <time>2023-06-11T11:45:10Z</time>
      </trkpt>
      <trkpt lat="43.73152" lon="5.96374">
        <ele>361</ele>
        <time>2023-06-11T11:45:11Z</time>
      </trkpt>
      <trkpt lat="43.73151" lon="5.96375">
        <ele>361</ele>
        <time>2023-06-11T11:45:12Z</time>
      </trkpt>
      <trkpt lat="43.73151" lon="5.96375">
        <ele>361.1</ele>
        <time>2023-06-11T11:45:13Z</time>
      </trkpt>
      <trkpt lat="43.7315" lon="5.96375">
        <ele>361</ele>
        <time>2023-06-11T11:45:14Z</time>
      </trkpt>
      <trkpt lat="43.7315" lon="5.96376">
        <ele>361</ele>
        <time>2023-06-11T11:45:15Z</time>
      </trkpt>
      <trkpt lat="43.73149" lon="5.96376">
        <ele>361.1</ele>
        <time>2023-06-11T11:45:16Z</time>
      </trkpt>
      <trkpt lat="43.73148" lon="5.96376">
        <ele>361</ele>
        <time>2023-06-11T11:45:17Z</time>
      </trkpt>
      <trkpt lat="43.73148" lon="5.96377">
        <ele>361</ele>
        <time>2023-06-11T11:45:18Z</time>
      </trkpt>
      <trkpt lat="43.73147" lon="5.96377">
        <ele>361</ele>
        <time>2023-06-11T11:45:19Z</time>
      </trkpt>
      <trkpt lat="43.73146" lon="5.96377">
        <ele>361</ele>
        <time>2023-06-11T11:45:20Z</time>
      </trkpt>
      <trkpt lat="43.73146" lon="5.96377">
        <ele>361.1</ele>
        <time>2023-06-11T11:45:21Z</time>
      </trkpt>
      <trkpt lat="43.73145" lon="5.96377">
        <ele>361.2</ele>
        <time>2023-06-11T11:45:22Z</time>
      </trkpt>
      <trkpt lat="43.73145" lon="5.96377">
        <ele>361.2</ele>
        <time>2023-06-11T11:45:23Z</time>
      </trkpt>
      <trkpt lat="43.73144" lon="5.96376">
        <ele>361.3</ele>
        <time>2023-06-11T11:45:24Z</time>
      </trkpt>
      <trkpt lat="43.73144" lon="5.96376">
        <ele>361.2</ele>
        <time>2023-06-11T11:45:25Z</time>
      </trkpt>
      <trkpt lat="43.73144" lon="5.96376">
        <ele>361.2</ele>
        <time>2023-06-11T11:45:26Z</time>
      </trkpt>
      <trkpt lat="43.73143" lon="5.96376">
        <ele>361.1</ele>
        <time>2023-06-11T11:45:27Z</time>
      </trkpt>
      <trkpt lat="43.73143" lon="5.96376">
        <ele>361.1</ele>
        <time>2023-06-11T11:45:28Z</time>
      </trkpt>
      <trkpt lat="43.73142" lon="5.96376">
        <ele>361.1</ele>
        <time>2023-06-11T11:45:29Z</time>
      </trkpt>
      <trkpt lat="43.73142" lon="5.96377">
        <ele>361.1</ele>
        <time>2023-06-11T11:45:30Z</time>
      </trkpt>
      <trkpt lat="43.73142" lon="5.96377">
        <ele>361.1</ele>
        <time>2023-06-11T11:45:31Z</time>
      </trkpt>
      <trkpt lat="43.73142" lon="5.96377">
        <ele>361.2</ele>
        <time>2023-06-11T11:45:32Z</time>
      </trkpt>
      <trkpt lat="43.73141" lon="5.96377">
        <ele>361.2</ele>
        <time>2023-06-11T11:45:33Z</time>
      </trkpt>
      <trkpt lat="43.73141" lon="5.96378">
        <ele>361.2</ele>
        <time>2023-06-11T11:45:34Z</time>
      </trkpt>
      <trkpt lat="43.73141" lon="5.96378">
        <ele>361.2</ele>
        <time>2023-06-11T11:45:35Z</time>
      </trkpt>
      <trkpt lat="43.7314" lon="5.96379">
        <ele>361.3</ele>
        <time>2023-06-11T11:45:36Z</time>
      </trkpt>
      <trkpt lat="43.7314" lon="5.96379">
        <ele>361.3</ele>
        <time>2023-06-11T11:45:37Z</time>
      </trkpt>
      <trkpt lat="43.73139" lon="5.96379">
        <ele>361.2</ele>
        <time>2023-06-11T11:45:38Z</time>
      </trkpt>
      <trkpt lat="43.73139" lon="5.96379">
        <ele>361.2</ele>
        <time>2023-06-11T11:45:39Z</time>
      </trkpt>
      <trkpt lat="43.73138" lon="5.96379">
        <ele>361.2</ele>
        <time>2023-06-11T11:45:40Z</time>
      </trkpt>
      <trkpt lat="43.73138" lon="5.96379">
        <ele>361.2</ele>
        <time>2023-06-11T11:45:41Z</time>
      </trkpt>
      <trkpt lat="43.73137" lon="5.96379">
        <ele>361.2</ele>
        <time>2023-06-11T11:45:42Z</time>
      </trkpt>
      <trkpt lat="43.73137" lon="5.96379">
        <ele>361.3</ele>
        <time>2023-06-11T11:45:43Z</time>
      </trkpt>
      <trkpt lat="43.73136" lon="5.96379">
        <ele>361.3</ele>
        <time>2023-06-11T11:45:44Z</time>
      </trkpt>
      <trkpt lat="43.73135" lon="5.96379">
        <ele>361.3</ele>
        <time>2023-06-11T11:45:45Z</time>
      </trkpt>
      <trkpt lat="43.73135" lon="5.96379">
        <ele>361.3</ele>
        <time>2023-06-11T11:45:46Z</time>
      </trkpt>
      <trkpt lat="43.73134" lon="5.9638">
        <ele>361.2</ele>
        <time>2023-06-11T11:45:47Z</time>
      </trkpt>
      <trkpt lat="43.73134" lon="5.9638">
        <ele>361.5</ele>
        <time>2023-06-11T11:45:48Z</time>
      </trkpt>
      <trkpt lat="43.73133" lon="5.9638">
        <ele>361.4</ele>
        <time>2023-06-11T11:45:49Z</time>
      </trkpt>
      <trkpt lat="43.73133" lon="5.9638">
        <ele>361.5</ele>
        <time>2023-06-11T11:45:50Z</time>
      </trkpt>
      <trkpt lat="43.73132" lon="5.9638">
        <ele>361.5</ele>
        <time>2023-06-11T11:45:51Z</time>
      </trkpt>
      <trkpt lat="43.73132" lon="5.96381">
        <ele>361.4</ele>
        <time>2023-06-11T11:45:52Z</time>
      </trkpt>
      <trkpt lat="43.73131" lon="5.96381">
        <ele>361.4</ele>
        <time>2023-06-11T11:45:53Z</time>
      </trkpt>
      <trkpt lat="43.73131" lon="5.96381">
        <ele>361.4</ele>
        <time>2023-06-11T11:45:54Z</time>
      </trkpt>
      <trkpt lat="43.7313" lon="5.96381">
        <ele>361.5</ele>
        <time>2023-06-11T11:45:55Z</time>
      </trkpt>
      <trkpt lat="43.7313" lon="5.96381">
        <ele>361.4</ele>
        <time>2023-06-11T11:45:56Z</time>
      </trkpt>
      <trkpt lat="43.7313" lon="5.96381">
        <ele>361.4</ele>
        <time>2023-06-11T11:45:57Z</time>
      </trkpt>
      <trkpt lat="43.73129" lon="5.96381">
        <ele>361.3</ele>
        <time>2023-06-11T11:45:58Z</time>
      </trkpt>
      <trkpt lat="43.73129" lon="5.96381">
        <ele>361.4</ele>
        <time>2023-06-11T11:45:59Z</time>
      </trkpt>
      <trkpt lat="43.73129" lon="5.96381">
        <ele>361.4</ele>
        <time>2023-06-11T11:46:00Z</time>
      </trkpt>
      <trkpt lat="43.73129" lon="5.96382">
        <ele>361.4</ele>
        <time>2023-06-11T11:46:01Z</time>
      </trkpt>
      <trkpt lat="43.7313" lon="5.96382">
        <ele>361.5</ele>
        <time>2023-06-11T11:46:02Z</time>
      </trkpt>
      <trkpt lat="43.7313" lon="5.96382">
        <ele>361.6</ele>
        <time>2023-06-11T11:46:03Z</time>
      </trkpt>
      <trkpt lat="43.7313" lon="5.96382">
        <ele>361.7</ele>
        <time>2023-06-11T11:46:04Z</time>
      </trkpt>
      <trkpt lat="43.73131" lon="5.96382">
        <ele>361.8</ele>
        <time>2023-06-11T11:46:05Z</time>
      </trkpt>
      <trkpt lat="43.73131" lon="5.96382">
        <ele>362.1</ele>
        <time>2023-06-11T11:46:06Z</time>
      </trkpt>
      <trkpt lat="43.73131" lon="5.96382">
        <ele>362.2</ele>
        <time>2023-06-11T11:46:07Z</time>
      </trkpt>
      <trkpt lat="43.73131" lon="5.96382">
        <ele>362.2</ele>
        <time>2023-06-11T11:46:08Z</time>
      </trkpt>
      <trkpt lat="43.73131" lon="5.96382">
        <ele>362.1</ele>
        <time>2023-06-11T11:46:09Z</time>
      </trkpt>
      <trkpt lat="43.73131" lon="5.96382">
        <ele>362</ele>
        <time>2023-06-11T11:46:10Z</time>
      </trkpt>
      <trkpt lat="43.73131" lon="5.96382">
        <ele>362</ele>
        <time>2023-06-11T11:46:11Z</time>
      </trkpt>
      <trkpt lat="43.73131" lon="5.96382">
        <ele>361.9</ele>
        <time>2023-06-11T11:46:12Z</time>
      </trkpt>
      <trkpt lat="43.73131" lon="5.96381">
        <ele>361.9</ele>
        <time>2023-06-11T11:46:13Z</time>
      </trkpt>
      <trkpt lat="43.73131" lon="5.96381">
        <ele>361.9</ele>
        <time>2023-06-11T11:46:14Z</time>
      </trkpt>
      <trkpt lat="43.7313" lon="5.9638">
        <ele>361.9</ele>
        <time>2023-06-11T11:46:15Z</time>
      </trkpt>
      <trkpt lat="43.73129" lon="5.9638">
        <ele>361.9</ele>
        <time>2023-06-11T11:46:16Z</time>
      </trkpt>
      <trkpt lat="43.73129" lon="5.96379">
        <ele>361.8</ele>
        <time>2023-06-11T11:46:17Z</time>
      </trkpt>
      <trkpt lat="43.73128" lon="5.96379">
        <ele>361.7</ele>
        <time>2023-06-11T11:46:18Z</time>
      </trkpt>
      <trkpt lat="43.73127" lon="5.9638">
        <ele>361.7</ele>
        <time>2023-06-11T11:46:19Z</time>
      </trkpt>
      <trkpt lat="43.73126" lon="5.9638">
        <ele>361.7</ele>
        <time>2023-06-11T11:46:20Z</time>
      </trkpt>
      <trkpt lat="43.73125" lon="5.9638">
        <ele>361.6</ele>
        <time>2023-06-11T11:46:21Z</time>
      </trkpt>
      <trkpt lat="43.73124" lon="5.9638">
        <ele>361.6</ele>
        <time>2023-06-11T11:46:22Z</time>
      </trkpt>
      <trkpt lat="43.73123" lon="5.9638">
        <ele>361.7</ele>
        <time>2023-06-11T11:46:23Z</time>
      </trkpt>
      <trkpt lat="43.73122" lon="5.96379">
        <ele>361.7</ele>
        <time>2023-06-11T11:46:24Z</time>
      </trkpt>
      <trkpt lat="43.73121" lon="5.96379">
        <ele>361.8</ele>
        <time>2023-06-11T11:46:25Z</time>
      </trkpt>
      <trkpt lat="43.7312" lon="5.96378">
        <ele>361.7</ele>
        <time>2023-06-11T11:46:26Z</time>
      </trkpt>
      <trkpt lat="43.7312" lon="5.96378">
        <ele>361.6</ele>
        <time>2023-06-11T11:46:27Z</time>
      </trkpt>
      <trkpt lat="43.73119" lon="5.96379">
        <ele>361.6</ele>
        <time>2023-06-11T11:46:28Z</time>
      </trkpt>
      <trkpt lat="43.73118" lon="5.9638">
        <ele>361.6</ele>
        <time>2023-06-11T11:46:29Z</time>
      </trkpt>
      <trkpt lat="43.73118" lon="5.96382">
        <ele>361.5</ele>
        <time>2023-06-11T11:46:30Z</time>
      </trkpt>
      <trkpt lat="43.73117" lon="5.96383">
        <ele>361.6</ele>
        <time>2023-06-11T11:46:31Z</time>
      </trkpt>
      <trkpt lat="43.73116" lon="5.96384">
        <ele>361.6</ele>
        <time>2023-06-11T11:46:32Z</time>
      </trkpt>
      <trkpt lat="43.73115" lon="5.96384">
        <ele>361.6</ele>
        <time>2023-06-11T11:46:33Z</time>
      </trkpt>
      <trkpt lat="43.73114" lon="5.96385">
        <ele>361.6</ele>
        <time>2023-06-11T11:46:34Z</time>
      </trkpt>
      <trkpt lat="43.73113" lon="5.96384">
        <ele>361.5</ele>
        <time>2023-06-11T11:46:35Z</time>
      </trkpt>
      <trkpt lat="43.73112" lon="5.96384">
        <ele>361.5</ele>
        <time>2023-06-11T11:46:36Z</time>
      </trkpt>
      <trkpt lat="43.73111" lon="5.96384">
        <ele>361.5</ele>
        <time>2023-06-11T11:46:37Z</time>
      </trkpt>
      <trkpt lat="43.73109" lon="5.96384">
        <ele>361.5</ele>
        <time>2023-06-11T11:46:38Z</time>
      </trkpt>
      <trkpt lat="43.73108" lon="5.96384">
        <ele>361.5</ele>
        <time>2023-06-11T11:46:39Z</time>
      </trkpt>
      <trkpt lat="43.73107" lon="5.96385">
        <ele>361.5</ele>
        <time>2023-06-11T11:46:40Z</time>
      </trkpt>
      <trkpt lat="43.73106" lon="5.96385">
        <ele>361.4</ele>
        <time>2023-06-11T11:46:41Z</time>
      </trkpt>
      <trkpt lat="43.73104" lon="5.96386">
        <ele>361.5</ele>
        <time>2023-06-11T11:46:42Z</time>
      </trkpt>
      <trkpt lat="43.73103" lon="5.96386">
        <ele>361.5</ele>
        <time>2023-06-11T11:46:43Z</time>
      </trkpt>
      <trkpt lat="43.73102" lon="5.96385">
        <ele>361.5</ele>
        <time>2023-06-11T11:46:44Z</time>
      </trkpt>
      <trkpt lat="43.73101" lon="5.96385">
        <ele>361.6</ele>
        <time>2023-06-11T11:46:45Z</time>
      </trkpt>
      <trkpt lat="43.731" lon="5.96385">
        <ele>361.6</ele>
        <time>2023-06-11T11:46:46Z</time>
      </trkpt>
      <trkpt lat="43.73098" lon="5.96384">
        <ele>361.6</ele>
        <time>2023-06-11T11:46:47Z</time>
      </trkpt>
      <trkpt lat="43.73097" lon="5.96385">
        <ele>361.6</ele>
        <time>2023-06-11T11:46:48Z</time>
      </trkpt>
      <trkpt lat="43.73096" lon="5.96385">
        <ele>361.6</ele>
        <time>2023-06-11T11:46:49Z</time>
      </trkpt>
      <trkpt lat="43.73095" lon="5.96386">
        <ele>361.4</ele>
        <time>2023-06-11T11:46:50Z</time>
      </trkpt>
      <trkpt lat="43.73094" lon="5.96387">
        <ele>361.3</ele>
        <time>2023-06-11T11:46:51Z</time>
      </trkpt>
      <trkpt lat="43.73093" lon="5.96387">
        <ele>361.3</ele>
        <time>2023-06-11T11:46:52Z</time>
      </trkpt>
      <trkpt lat="43.73092" lon="5.96387">
        <ele>361.2</ele>
        <time>2023-06-11T11:46:53Z</time>
      </trkpt>
      <trkpt lat="43.73091" lon="5.96386">
        <ele>361.3</ele>
        <time>2023-06-11T11:46:54Z</time>
      </trkpt>
      <trkpt lat="43.7309" lon="5.96386">
        <ele>361.3</ele>
        <time>2023-06-11T11:46:55Z</time>
      </trkpt>
      <trkpt lat="43.73089" lon="5.96385">
        <ele>361.3</ele>
        <time>2023-06-11T11:46:56Z</time>
      </trkpt>
      <trkpt lat="43.73087" lon="5.96385">
        <ele>361.3</ele>
        <time>2023-06-11T11:46:57Z</time>
      </trkpt>
      <trkpt lat="43.73086" lon="5.96385">
        <ele>361.3</ele>
        <time>2023-06-11T11:46:58Z</time>
      </trkpt>
      <trkpt lat="43.73085" lon="5.96385">
        <ele>361.3</ele>
        <time>2023-06-11T11:46:59Z</time>
      </trkpt>
      <trkpt lat="43.73084" lon="5.96385">
        <ele>361.4</ele>
        <time>2023-06-11T11:47:00Z</time>
      </trkpt>
      <trkpt lat="43.73083" lon="5.96386">
        <ele>361.4</ele>
        <time>2023-06-11T11:47:01Z</time>
      </trkpt>
      <trkpt lat="43.73081" lon="5.96386">
        <ele>361.4</ele>
        <time>2023-06-11T11:47:02Z</time>
      </trkpt>
      <trkpt lat="43.7308" lon="5.96386">
        <ele>361.4</ele>
        <time>2023-06-11T11:47:03Z</time>
      </trkpt>
      <trkpt lat="43.73079" lon="5.96386">
        <ele>361.4</ele>
        <time>2023-06-11T11:47:04Z</time>
      </trkpt>
      <trkpt lat="43.73077" lon="5.96386">
        <ele>361.3</ele>
        <time>2023-06-11T11:47:05Z</time>
      </trkpt>
      <trkpt lat="43.73076" lon="5.96386">
        <ele>361.4</ele>
        <time>2023-06-11T11:47:06Z</time>
      </trkpt>
      <trkpt lat="43.73075" lon="5.96386">
        <ele>361.4</ele>
        <time>2023-06-11T11:47:07Z</time>
      </trkpt>
      <trkpt lat="43.73074" lon="5.96387">
        <ele>361.4</ele>
        <time>2023-06-11T11:47:08Z</time>
      </trkpt>
      <trkpt lat="43.73073" lon="5.96387">
        <ele>361.4</ele>
        <time>2023-06-11T11:47:09Z</time>
      </trkpt>
      <trkpt lat="43.73072" lon="5.96388">
        <ele>361.5</ele>
        <time>2023-06-11T11:47:10Z</time>
      </trkpt>
      <trkpt lat="43.7307" lon="5.96388">
        <ele>361.4</ele>
        <time>2023-06-11T11:47:11Z</time>
      </trkpt>
      <trkpt lat="43.73069" lon="5.96388">
        <ele>361.4</ele>
        <time>2023-06-11T11:47:12Z</time>
      </trkpt>
      <trkpt lat="43.73068" lon="5.96387">
        <ele>361.5</ele>
        <time>2023-06-11T11:47:13Z</time>
      </trkpt>
      <trkpt lat="43.73067" lon="5.96387">
        <ele>361.4</ele>
        <time>2023-06-11T11:47:14Z</time>
      </trkpt>
      <trkpt lat="43.73066" lon="5.96387">
        <ele>361.4</ele>
        <time>2023-06-11T11:47:15Z</time>
      </trkpt>
      <trkpt lat="43.73065" lon="5.96386">
        <ele>361.4</ele>
        <time>2023-06-11T11:47:16Z</time>
      </trkpt>
      <trkpt lat="43.73064" lon="5.96386">
        <ele>361.5</ele>
        <time>2023-06-11T11:47:17Z</time>
      </trkpt>
      <trkpt lat="43.73063" lon="5.96387">
        <ele>361.5</ele>
        <time>2023-06-11T11:47:18Z</time>
      </trkpt>
      <trkpt lat="43.73063" lon="5.96387">
        <ele>361.6</ele>
        <time>2023-06-11T11:47:19Z</time>
      </trkpt>
      <trkpt lat="43.73062" lon="5.96388">
        <ele>361.6</ele>
        <time>2023-06-11T11:47:20Z</time>
      </trkpt>
      <trkpt lat="43.73061" lon="5.96388">
        <ele>361.5</ele>
        <time>2023-06-11T11:47:21Z</time>
      </trkpt>
      <trkpt lat="43.7306" lon="5.96389">
        <ele>361.5</ele>
        <time>2023-06-11T11:47:22Z</time>
      </trkpt>
      <trkpt lat="43.7306" lon="5.96389">
        <ele>361.5</ele>
        <time>2023-06-11T11:47:23Z</time>
      </trkpt>
      <trkpt lat="43.73059" lon="5.96389">
        <ele>361.5</ele>
        <time>2023-06-11T11:47:24Z</time>
      </trkpt>
      <trkpt lat="43.73058" lon="5.96389">
        <ele>361.5</ele>
        <time>2023-06-11T11:47:25Z</time>
      </trkpt>
      <trkpt lat="43.73058" lon="5.96389">
        <ele>361.5</ele>
        <time>2023-06-11T11:47:26Z</time>
      </trkpt>
      <trkpt lat="43.73057" lon="5.96389">
        <ele>361.5</ele>
        <time>2023-06-11T11:47:27Z</time>
      </trkpt>
      <trkpt lat="43.73057" lon="5.96389">
        <ele>361.5</ele>
        <time>2023-06-11T11:47:28Z</time>
      </trkpt>
      <trkpt lat="43.73056" lon="5.96388">
        <ele>361.5</ele>
        <time>2023-06-11T11:47:29Z</time>
      </trkpt>
      <trkpt lat="43.73056" lon="5.96388">
        <ele>361.5</ele>
        <time>2023-06-11T11:47:30Z</time>
      </trkpt>
      <trkpt lat="43.73055" lon="5.96388">
        <ele>361.4</ele>
        <time>2023-06-11T11:47:31Z</time>
      </trkpt>
      <trkpt lat="43.73055" lon="5.96387">
        <ele>361.4</ele>
        <time>2023-06-11T11:47:32Z</time>
      </trkpt>
      <trkpt lat="43.73054" lon="5.96387">
        <ele>361.4</ele>
        <time>2023-06-11T11:47:33Z</time>
      </trkpt>
      <trkpt lat="43.73054" lon="5.96387">
        <ele>361.4</ele>
        <time>2023-06-11T11:47:34Z</time>
      </trkpt>
      <trkpt lat="43.73053" lon="5.96387">
        <ele>361.4</ele>
        <time>2023-06-11T11:47:35Z</time>
      </trkpt>
      <trkpt lat="43.73052" lon="5.96387">
        <ele>361.4</ele>
        <time>2023-06-11T11:47:36Z</time>
      </trkpt>
      <trkpt lat="43.73052" lon="5.96387">
        <ele>361.3</ele>
        <time>2023-06-11T11:47:37Z</time>
      </trkpt>
      <trkpt lat="43.73051" lon="5.96387">
        <ele>361.4</ele>
        <time>2023-06-11T11:47:38Z</time>
      </trkpt>
      <trkpt lat="43.73051" lon="5.96387">
        <ele>361.4</ele>
        <time>2023-06-11T11:47:39Z</time>
      </trkpt>
      <trkpt lat="43.7305" lon="5.96387">
        <ele>361.3</ele>
        <time>2023-06-11T11:47:40Z</time>
      </trkpt>
      <trkpt lat="43.7305" lon="5.96387">
        <ele>361.2</ele>
        <time>2023-06-11T11:47:41Z</time>
      </trkpt>
      <trkpt lat="43.73049" lon="5.96387">
        <ele>361.2</ele>
        <time>2023-06-11T11:47:42Z</time>
      </trkpt>
      <trkpt lat="43.73049" lon="5.96387">
        <ele>361.2</ele>
        <time>2023-06-11T11:47:43Z</time>
      </trkpt>
      <trkpt lat="43.73049" lon="5.96388">
        <ele>361.1</ele>
        <time>2023-06-11T11:47:44Z</time>
      </trkpt>
      <trkpt lat="43.73048" lon="5.96388">
        <ele>361.1</ele>
        <time>2023-06-11T11:47:45Z</time>
      </trkpt>
      <trkpt lat="43.73048" lon="5.96388">
        <ele>361.1</ele>
        <time>2023-06-11T11:47:46Z</time>
      </trkpt>
      <trkpt lat="43.73047" lon="5.96388">
        <ele>361.1</ele>
        <time>2023-06-11T11:47:47Z</time>
      </trkpt>
      <trkpt lat="43.73047" lon="5.96388">
        <ele>361.1</ele>
        <time>2023-06-11T11:47:48Z</time>
      </trkpt>
      <trkpt lat="43.73047" lon="5.96388">
        <ele>361.1</ele>
        <time>2023-06-11T11:47:49Z</time>
      </trkpt>
      <trkpt lat="43.73046" lon="5.96388">
        <ele>361.1</ele>
        <time>2023-06-11T11:47:50Z</time>
      </trkpt>
      <trkpt lat="43.73046" lon="5.96388">
        <ele>361.2</ele>
        <time>2023-06-11T11:47:51Z</time>
      </trkpt>
      <trkpt lat="43.73046" lon="5.96388">
        <ele>361.2</ele>
        <time>2023-06-11T11:47:52Z</time>
      </trkpt>
      <trkpt lat="43.73046" lon="5.96388">
        <ele>361.2</ele>
        <time>2023-06-11T11:47:53Z</time>
      </trkpt>
      <trkpt lat="43.73045" lon="5.96388">
        <ele>361.3</ele>
        <time>2023-06-11T11:47:54Z</time>
      </trkpt>
      <trkpt lat="43.73045" lon="5.96388">
        <ele>361.3</ele>
        <time>2023-06-11T11:47:55Z</time>
      </trkpt>
      <trkpt lat="43.73045" lon="5.96387">
        <ele>361.4</ele>
        <time>2023-06-11T11:47:56Z</time>
      </trkpt>
      <trkpt lat="43.73044" lon="5.96387">
        <ele>361.4</ele>
        <time>2023-06-11T11:47:57Z</time>
      </trkpt>
      <trkpt lat="43.73044" lon="5.96387">
        <ele>361.4</ele>
        <time>2023-06-11T11:47:58Z</time>
      </trkpt>
      <trkpt lat="43.73044" lon="5.96387">
        <ele>361.4</ele>
        <time>2023-06-11T11:47:59Z</time>
      </trkpt>
      <trkpt lat="43.73044" lon="5.96387">
        <ele>361.4</ele>
        <time>2023-06-11T11:48:00Z</time>
      </trkpt>
      <trkpt lat="43.73044" lon="5.96386">
        <ele>361.4</ele>
        <time>2023-06-11T11:48:01Z</time>
      </trkpt>
      <trkpt lat="43.73043" lon="5.96386">
        <ele>361.3</ele>
        <time>2023-06-11T11:48:02Z</time>
      </trkpt>
      <trkpt lat="43.73043" lon="5.96386">
        <ele>361.4</ele>
        <time>2023-06-11T11:48:03Z</time>
      </trkpt>
      <trkpt lat="43.73043" lon="5.96386">
        <ele>361.4</ele>
        <time>2023-06-11T11:48:04Z</time>
      </trkpt>
      <trkpt lat="43.73042" lon="5.96386">
        <ele>361.4</ele>
        <time>2023-06-11T11:48:05Z</time>
      </trkpt>
      <trkpt lat="43.73042" lon="5.96386">
        <ele>361.3</ele>
        <time>2023-06-11T11:48:06Z</time>
      </trkpt>
      <trkpt lat="43.73042" lon="5.96386">
        <ele>361.3</ele>
        <time>2023-06-11T11:48:07Z</time>
      </trkpt>
      <trkpt lat="43.73041" lon="5.96386">
        <ele>361.3</ele>
        <time>2023-06-11T11:48:08Z</time>
      </trkpt>
      <trkpt lat="43.73041" lon="5.96386">
        <ele>361.3</ele>
        <time>2023-06-11T11:48:09Z</time>
      </trkpt>
      <trkpt lat="43.7304" lon="5.96386">
        <ele>361.3</ele>
        <time>2023-06-11T11:48:10Z</time>
      </trkpt>
      <trkpt lat="43.7304" lon="5.96386">
        <ele>361.3</ele>
        <time>2023-06-11T11:48:11Z</time>
      </trkpt>
      <trkpt lat="43.7304" lon="5.96386">
        <ele>361.3</ele>
        <time>2023-06-11T11:48:12Z</time>
      </trkpt>
      <trkpt lat="43.73039" lon="5.96386">
        <ele>361.3</ele>
        <time>2023-06-11T11:48:13Z</time>
      </trkpt>
      <trkpt lat="43.73039" lon="5.96386">
        <ele>361.3</ele>
        <time>2023-06-11T11:48:14Z</time>
      </trkpt>
      <trkpt lat="43.73039" lon="5.96386">
        <ele>361.3</ele>
        <time>2023-06-11T11:48:15Z</time>
      </trkpt>
      <trkpt lat="43.73038" lon="5.96386">
        <ele>361.3</ele>
        <time>2023-06-11T11:48:16Z</time>
      </trkpt>
      <trkpt lat="43.73038" lon="5.96385">
        <ele>361.3</ele>
        <time>2023-06-11T11:48:17Z</time>
      </trkpt>
      <trkpt lat="43.73038" lon="5.96385">
        <ele>361.3</ele>
        <time>2023-06-11T11:48:18Z</time>
      </trkpt>
      <trkpt lat="43.73037" lon="5.96385">
        <ele>361.3</ele>
        <time>2023-06-11T11:48:19Z</time>
      </trkpt>
      <trkpt lat="43.73037" lon="5.96385">
        <ele>361.3</ele>
        <time>2023-06-11T11:48:20Z</time>
      </trkpt>
      <trkpt lat="43.73037" lon="5.96385">
        <ele>361.3</ele>
        <time>2023-06-11T11:48:21Z</time>
      </trkpt>
      <trkpt lat="43.73036" lon="5.96385">
        <ele>361.3</ele>
        <time>2023-06-11T11:48:22Z</time>
      </trkpt>
      <trkpt lat="43.73036" lon="5.96384">
        <ele>361.3</ele>
        <time>2023-06-11T11:48:23Z</time>
      </trkpt>
      <trkpt lat="43.73035" lon="5.96384">
        <ele>361.4</ele>
        <time>2023-06-11T11:48:24Z</time>
      </trkpt>
      <trkpt lat="43.73035" lon="5.96384">
        <ele>361.5</ele>
        <time>2023-06-11T11:48:25Z</time>
      </trkpt>
      <trkpt lat="43.73035" lon="5.96385">
        <ele>361.6</ele>
        <time>2023-06-11T11:48:26Z</time>
      </trkpt>
      <trkpt lat="43.73034" lon="5.96385">
        <ele>361.6</ele>
        <time>2023-06-11T11:48:27Z</time>
      </trkpt>
      <trkpt lat="43.73034" lon="5.96385">
        <ele>361.6</ele>
        <time>2023-06-11T11:48:28Z</time>
      </trkpt>
      <trkpt lat="43.73033" lon="5.96385">
        <ele>361.5</ele>
        <time>2023-06-11T11:48:29Z</time>
      </trkpt>
      <trkpt lat="43.73033" lon="5.96385">
        <ele>361.6</ele>
        <time>2023-06-11T11:48:30Z</time>
      </trkpt>
      <trkpt lat="43.73033" lon="5.96385">
        <ele>361.7</ele>
        <time>2023-06-11T11:48:31Z</time>
      </trkpt>
      <trkpt lat="43.73032" lon="5.96385">
        <ele>361.8</ele>
        <time>2023-06-11T11:48:32Z</time>
      </trkpt>
      <trkpt lat="43.73032" lon="5.96385">
        <ele>361.8</ele>
        <time>2023-06-11T11:48:33Z</time>
      </trkpt>
      <trkpt lat="43.73031" lon="5.96386">
        <ele>361.9</ele>
        <time>2023-06-11T11:48:34Z</time>
      </trkpt>
      <trkpt lat="43.73031" lon="5.96385">
        <ele>361.9</ele>
        <time>2023-06-11T11:48:35Z</time>
      </trkpt>
      <trkpt lat="43.7303" lon="5.96385">
        <ele>361.9</ele>
        <time>2023-06-11T11:48:36Z</time>
      </trkpt>
      <trkpt lat="43.7303" lon="5.96386">
        <ele>361.9</ele>
        <time>2023-06-11T11:48:37Z</time>
      </trkpt>
      <trkpt lat="43.7303" lon="5.96386">
        <ele>361.9</ele>
        <time>2023-06-11T11:48:38Z</time>
      </trkpt>
      <trkpt lat="43.73029" lon="5.96385">
        <ele>361.8</ele>
        <time>2023-06-11T11:48:39Z</time>
      </trkpt>
      <trkpt lat="43.73029" lon="5.96385">
        <ele>361.8</ele>
        <time>2023-06-11T11:48:40Z</time>
      </trkpt>
      <trkpt lat="43.73028" lon="5.96385">
        <ele>361.9</ele>
        <time>2023-06-11T11:48:41Z</time>
      </trkpt>
      <trkpt lat="43.73028" lon="5.96385">
        <ele>361.9</ele>
        <time>2023-06-11T11:48:42Z</time>
      </trkpt>
      <trkpt lat="43.73027" lon="5.96385">
        <ele>361.8</ele>
        <time>2023-06-11T11:48:43Z</time>
      </trkpt>
      <trkpt lat="43.73027" lon="5.96385">
        <ele>361.8</ele>
        <time>2023-06-11T11:48:44Z</time>
      </trkpt>
      <trkpt lat="43.73027" lon="5.96385">
        <ele>361.8</ele>
        <time>2023-06-11T11:48:45Z</time>
      </trkpt>
      <trkpt lat="43.73026" lon="5.96385">
        <ele>361.8</ele>
        <time>2023-06-11T11:48:46Z</time>
      </trkpt>
      <trkpt lat="43.73026" lon="5.96385">
        <ele>361.6</ele>
        <time>2023-06-11T11:48:47Z</time>
      </trkpt>
      <trkpt lat="43.73026" lon="5.96385">
        <ele>361.6</ele>
        <time>2023-06-11T11:48:48Z</time>
      </trkpt>
      <trkpt lat="43.73025" lon="5.96386">
        <ele>361.6</ele>
        <time>2023-06-11T11:48:49Z</time>
      </trkpt>
      <trkpt lat="43.73025" lon="5.96385">
        <ele>361.5</ele>
        <time>2023-06-11T11:48:50Z</time>
      </trkpt>
      <trkpt lat="43.73024" lon="5.96385">
        <ele>361.5</ele>
        <time>2023-06-11T11:48:51Z</time>
      </trkpt>
      <trkpt lat="43.73024" lon="5.96385">
        <ele>361.5</ele>
        <time>2023-06-11T11:48:52Z</time>
      </trkpt>
      <trkpt lat="43.73023" lon="5.96385">
        <ele>361.5</ele>
        <time>2023-06-11T11:48:53Z</time>
      </trkpt>
      <trkpt lat="43.73022" lon="5.96386">
        <ele>361.5</ele>
        <time>2023-06-11T11:48:54Z</time>
      </trkpt>
      <trkpt lat="43.73021" lon="5.96386">
        <ele>361.5</ele>
        <time>2023-06-11T11:48:55Z</time>
      </trkpt>
      <trkpt lat="43.7302" lon="5.96387">
        <ele>361.5</ele>
        <time>2023-06-11T11:48:56Z</time>
      </trkpt>
      <trkpt lat="43.7302" lon="5.96387">
        <ele>361.5</ele>
        <time>2023-06-11T11:48:57Z</time>
      </trkpt>
      <trkpt lat="43.73019" lon="5.96386">
        <ele>361.5</ele>
        <time>2023-06-11T11:48:58Z</time>
      </trkpt>
      <trkpt lat="43.73018" lon="5.96386">
        <ele>361.6</ele>
        <time>2023-06-11T11:48:59Z</time>
      </trkpt>
      <trkpt lat="43.73017" lon="5.96385">
        <ele>361.6</ele>
        <time>2023-06-11T11:49:00Z</time>
      </trkpt>
      <trkpt lat="43.73016" lon="5.96385">
        <ele>361.7</ele>
        <time>2023-06-11T11:49:01Z</time>
      </trkpt>
      <trkpt lat="43.73015" lon="5.96386">
        <ele>361.7</ele>
        <time>2023-06-11T11:49:02Z</time>
      </trkpt>
      <trkpt lat="43.73014" lon="5.96386">
        <ele>361.7</ele>
        <time>2023-06-11T11:49:03Z</time>
      </trkpt>
      <trkpt lat="43.73013" lon="5.96387">
        <ele>361.7</ele>
        <time>2023-06-11T11:49:04Z</time>
      </trkpt>
      <trkpt lat="43.73012" lon="5.96387">
        <ele>361.6</ele>
        <time>2023-06-11T11:49:05Z</time>
      </trkpt>
      <trkpt lat="43.73011" lon="5.96388">
        <ele>361.6</ele>
        <time>2023-06-11T11:49:06Z</time>
      </trkpt>
      <trkpt lat="43.7301" lon="5.96389">
        <ele>361.6</ele>
        <time>2023-06-11T11:49:07Z</time>
      </trkpt>
      <trkpt lat="43.73008" lon="5.96389">
        <ele>361.6</ele>
        <time>2023-06-11T11:49:08Z</time>
      </trkpt>
      <trkpt lat="43.73007" lon="5.9639">
        <ele>361.7</ele>
        <time>2023-06-11T11:49:09Z</time>
      </trkpt>
      <trkpt lat="43.73006" lon="5.9639">
        <ele>361.8</ele>
        <time>2023-06-11T11:49:10Z</time>
      </trkpt>
      <trkpt lat="43.73005" lon="5.9639">
        <ele>361.7</ele>
        <time>2023-06-11T11:49:11Z</time>
      </trkpt>
      <trkpt lat="43.73003" lon="5.9639">
        <ele>361.7</ele>
        <time>2023-06-11T11:49:12Z</time>
      </trkpt>
      <trkpt lat="43.73002" lon="5.9639">
        <ele>361.7</ele>
        <time>2023-06-11T11:49:13Z</time>
      </trkpt>
      <trkpt lat="43.73001" lon="5.9639">
        <ele>361.7</ele>
        <time>2023-06-11T11:49:14Z</time>
      </trkpt>
      <trkpt lat="43.72999" lon="5.9639">
        <ele>361.7</ele>
        <time>2023-06-11T11:49:15Z</time>
      </trkpt>
      <trkpt lat="43.72998" lon="5.9639">
        <ele>361.7</ele>
        <time>2023-06-11T11:49:16Z</time>
      </trkpt>
      <trkpt lat="43.72997" lon="5.9639">
        <ele>361.7</ele>
        <time>2023-06-11T11:49:17Z</time>
      </trkpt>
      <trkpt lat="43.72995" lon="5.9639">
        <ele>361.7</ele>
        <time>2023-06-11T11:49:18Z</time>
      </trkpt>
      <trkpt lat="43.72994" lon="5.9639">
        <ele>361.7</ele>
        <time>2023-06-11T11:49:19Z</time>
      </trkpt>
      <trkpt lat="43.72993" lon="5.96391">
        <ele>361.7</ele>
        <time>2023-06-11T11:49:20Z</time>
      </trkpt>
      <trkpt lat="43.72991" lon="5.96391">
        <ele>361.6</ele>
        <time>2023-06-11T11:49:21Z</time>
      </trkpt>
      <trkpt lat="43.7299" lon="5.96391">
        <ele>361.6</ele>
        <time>2023-06-11T11:49:22Z</time>
      </trkpt>
      <trkpt lat="43.72989" lon="5.96392">
        <ele>361.6</ele>
        <time>2023-06-11T11:49:23Z</time>
      </trkpt>
      <trkpt lat="43.72987" lon="5.96391">
        <ele>361.6</ele>
        <time>2023-06-11T11:49:24Z</time>
      </trkpt>
      <trkpt lat="43.72986" lon="5.96391">
        <ele>361.6</ele>
        <time>2023-06-11T11:49:25Z</time>
      </trkpt>
      <trkpt lat="43.72985" lon="5.96391">
        <ele>361.7</ele>
        <time>2023-06-11T11:49:26Z</time>
      </trkpt>
      <trkpt lat="43.72984" lon="5.96391">
        <ele>361.7</ele>
        <time>2023-06-11T11:49:27Z</time>
      </trkpt>
      <trkpt lat="43.72982" lon="5.96391">
        <ele>361.7</ele>
        <time>2023-06-11T11:49:28Z</time>
      </trkpt>
      <trkpt lat="43.72981" lon="5.96391">
        <ele>361.7</ele>
        <time>2023-06-11T11:49:29Z</time>
      </trkpt>
      <trkpt lat="43.7298" lon="5.96391">
        <ele>361.7</ele>
        <time>2023-06-11T11:49:30Z</time>
      </trkpt>
      <trkpt lat="43.72978" lon="5.96392">
        <ele>361.7</ele>
        <time>2023-06-11T11:49:31Z</time>
      </trkpt>
      <trkpt lat="43.72977" lon="5.96392">
        <ele>361.7</ele>
        <time>2023-06-11T11:49:32Z</time>
      </trkpt>
      <trkpt lat="43.72976" lon="5.96393">
        <ele>361.6</ele>
        <time>2023-06-11T11:49:33Z</time>
      </trkpt>
      <trkpt lat="43.72974" lon="5.96394">
        <ele>361.7</ele>
        <time>2023-06-11T11:49:34Z</time>
      </trkpt>
      <trkpt lat="43.72973" lon="5.96394">
        <ele>361.6</ele>
        <time>2023-06-11T11:49:35Z</time>
      </trkpt>
      <trkpt lat="43.72972" lon="5.96394">
        <ele>361.6</ele>
        <time>2023-06-11T11:49:36Z</time>
      </trkpt>
      <trkpt lat="43.7297" lon="5.96393">
        <ele>361.6</ele>
        <time>2023-06-11T11:49:37Z</time>
      </trkpt>
      <trkpt lat="43.72969" lon="5.96393">
        <ele>361.5</ele>
        <time>2023-06-11T11:49:38Z</time>
      </trkpt>
      <trkpt lat="43.72967" lon="5.96394">
        <ele>361.5</ele>
        <time>2023-06-11T11:49:39Z</time>
      </trkpt>
      <trkpt lat="43.72966" lon="5.96394">
        <ele>361.5</ele>
        <time>2023-06-11T11:49:40Z</time>
      </trkpt>
      <trkpt lat="43.72965" lon="5.96395">
        <ele>361.5</ele>
        <time>2023-06-11T11:49:41Z</time>
      </trkpt>
      <trkpt lat="43.72963" lon="5.96395">
        <ele>361.5</ele>
        <time>2023-06-11T11:49:42Z</time>
      </trkpt>
      <trkpt lat="43.72962" lon="5.96396">
        <ele>361.5</ele>
        <time>2023-06-11T11:49:43Z</time>
      </trkpt>
      <trkpt lat="43.72961" lon="5.96396">
        <ele>361.5</ele>
        <time>2023-06-11T11:49:44Z</time>
      </trkpt>
      <trkpt lat="43.72959" lon="5.96396">
        <ele>361.5</ele>
        <time>2023-06-11T11:49:45Z</time>
      </trkpt>
      <trkpt lat="43.72958" lon="5.96396">
        <ele>361.6</ele>
        <time>2023-06-11T11:49:46Z</time>
      </trkpt>
      <trkpt lat="43.72957" lon="5.96396">
        <ele>361.6</ele>
        <time>2023-06-11T11:49:47Z</time>
      </trkpt>
      <trkpt lat="43.72956" lon="5.96395">
        <ele>361.7</ele>
        <time>2023-06-11T11:49:48Z</time>
      </trkpt>
      <trkpt lat="43.72954" lon="5.96395">
        <ele>361.7</ele>
        <time>2023-06-11T11:49:49Z</time>
      </trkpt>
      <trkpt lat="43.72953" lon="5.96395">
        <ele>361.8</ele>
        <time>2023-06-11T11:49:50Z</time>
      </trkpt>
      <trkpt lat="43.72952" lon="5.96395">
        <ele>361.7</ele>
        <time>2023-06-11T11:49:51Z</time>
      </trkpt>
      <trkpt lat="43.7295" lon="5.96396">
        <ele>361.7</ele>
        <time>2023-06-11T11:49:52Z</time>
      </trkpt>
      <trkpt lat="43.72949" lon="5.96397">
        <ele>361.6</ele>
        <time>2023-06-11T11:49:53Z</time>
      </trkpt>
      <trkpt lat="43.72948" lon="5.96397">
        <ele>361.6</ele>
        <time>2023-06-11T11:49:54Z</time>
      </trkpt>
      <trkpt lat="43.72946" lon="5.96398">
        <ele>361.5</ele>
        <time>2023-06-11T11:49:55Z</time>
      </trkpt>
      <trkpt lat="43.72945" lon="5.96399">
        <ele>361.5</ele>
        <time>2023-06-11T11:49:56Z</time>
      </trkpt>
      <trkpt lat="43.72944" lon="5.96399">
        <ele>361.5</ele>
        <time>2023-06-11T11:49:57Z</time>
      </trkpt>
      <trkpt lat="43.72942" lon="5.96399">
        <ele>361.4</ele>
        <time>2023-06-11T11:49:58Z</time>
      </trkpt>
      <trkpt lat="43.72941" lon="5.96399">
        <ele>361.4</ele>
        <time>2023-06-11T11:49:59Z</time>
      </trkpt>
      <trkpt lat="43.7294" lon="5.96398">
        <ele>361.4</ele>
        <time>2023-06-11T11:50:00Z</time>
      </trkpt>
      <trkpt lat="43.72938" lon="5.96398">
        <ele>361.5</ele>
        <time>2023-06-11T11:50:01Z</time>
      </trkpt>
      <trkpt lat="43.72937" lon="5.96397">
        <ele>361.5</ele>
        <time>2023-06-11T11:50:02Z</time>
      </trkpt>
      <trkpt lat="43.72936" lon="5.96396">
        <ele>361.5</ele>
        <time>2023-06-11T11:50:03Z</time>
      </trkpt>
      <trkpt lat="43.72934" lon="5.96396">
        <ele>361.6</ele>
        <time>2023-06-11T11:50:04Z</time>
      </trkpt>
      <trkpt lat="43.72933" lon="5.96395">
        <ele>361.7</ele>
        <time>2023-06-11T11:50:05Z</time>
      </trkpt>
      <trkpt lat="43.72932" lon="5.96395">
        <ele>361.8</ele>
        <time>2023-06-11T11:50:06Z</time>
      </trkpt>
      <trkpt lat="43.72931" lon="5.96395">
        <ele>361.9</ele>
        <time>2023-06-11T11:50:07Z</time>
      </trkpt>
      <trkpt lat="43.72929" lon="5.96395">
        <ele>361.9</ele>
        <time>2023-06-11T11:50:08Z</time>
      </trkpt>
      <trkpt lat="43.72928" lon="5.96395">
        <ele>361.9</ele>
        <time>2023-06-11T11:50:09Z</time>
      </trkpt>
      <trkpt lat="43.72927" lon="5.96396">
        <ele>361.9</ele>
        <time>2023-06-11T11:50:10Z</time>
      </trkpt>
      <trkpt lat="43.72925" lon="5.96396">
        <ele>361.8</ele>
        <time>2023-06-11T11:50:11Z</time>
      </trkpt>
      <trkpt lat="43.72924" lon="5.96397">
        <ele>361.9</ele>
        <time>2023-06-11T11:50:12Z</time>
      </trkpt>
      <trkpt lat="43.72923" lon="5.96397">
        <ele>362</ele>
        <time>2023-06-11T11:50:13Z</time>
      </trkpt>
      <trkpt lat="43.72922" lon="5.96397">
        <ele>362</ele>
        <time>2023-06-11T11:50:14Z</time>
      </trkpt>
      <trkpt lat="43.72921" lon="5.96398">
        <ele>361.9</ele>
        <time>2023-06-11T11:50:15Z</time>
      </trkpt>
      <trkpt lat="43.7292" lon="5.96398">
        <ele>361.9</ele>
        <time>2023-06-11T11:50:16Z</time>
      </trkpt>
      <trkpt lat="43.7292" lon="5.96398">
        <ele>361.9</ele>
        <time>2023-06-11T11:50:17Z</time>
      </trkpt>
      <trkpt lat="43.72919" lon="5.96398">
        <ele>361.9</ele>
        <time>2023-06-11T11:50:18Z</time>
      </trkpt>
      <trkpt lat="43.72918" lon="5.96398">
        <ele>361.9</ele>
        <time>2023-06-11T11:50:19Z</time>
      </trkpt>
      <trkpt lat="43.72918" lon="5.96397">
        <ele>361.9</ele>
        <time>2023-06-11T11:50:20Z</time>
      </trkpt>
      <trkpt lat="43.72918" lon="5.96397">
        <ele>361.9</ele>
        <time>2023-06-11T11:50:21Z</time>
      </trkpt>
      <trkpt lat="43.72917" lon="5.96397">
        <ele>361.8</ele>
        <time>2023-06-11T11:50:22Z</time>
      </trkpt>
      <trkpt lat="43.72917" lon="5.96396">
        <ele>361.8</ele>
        <time>2023-06-11T11:50:23Z</time>
      </trkpt>
      <trkpt lat="43.72917" lon="5.96396">
        <ele>361.8</ele>
        <time>2023-06-11T11:50:24Z</time>
      </trkpt>
      <trkpt lat="43.72917" lon="5.96396">
        <ele>361.8</ele>
        <time>2023-06-11T11:50:25Z</time>
      </trkpt>
      <trkpt lat="43.72917" lon="5.96396">
        <ele>361.8</ele>
        <time>2023-06-11T11:50:26Z</time>
      </trkpt>
      <trkpt lat="43.72917" lon="5.96397">
        <ele>361.8</ele>
        <time>2023-06-11T11:50:27Z</time>
      </trkpt>
      <trkpt lat="43.72917" lon="5.96397">
        <ele>361.8</ele>
        <time>2023-06-11T11:50:28Z</time>
      </trkpt>
      <trkpt lat="43.72916" lon="5.96398">
        <ele>361.8</ele>
        <time>2023-06-11T11:50:29Z</time>
      </trkpt>
      <trkpt lat="43.72916" lon="5.96399">
        <ele>361.8</ele>
        <time>2023-06-11T11:50:30Z</time>
      </trkpt>
      <trkpt lat="43.72916" lon="5.964">
        <ele>361.8</ele>
        <time>2023-06-11T11:50:31Z</time>
      </trkpt>
      <trkpt lat="43.72915" lon="5.96401">
        <ele>361.8</ele>
        <time>2023-06-11T11:50:32Z</time>
      </trkpt>
      <trkpt lat="43.72915" lon="5.96401">
        <ele>361.8</ele>
        <time>2023-06-11T11:50:33Z</time>
      </trkpt>
      <trkpt lat="43.72914" lon="5.96401">
        <ele>361.8</ele>
        <time>2023-06-11T11:50:34Z</time>
      </trkpt>
      <trkpt lat="43.72913" lon="5.96401">
        <ele>361.8</ele>
        <time>2023-06-11T11:50:35Z</time>
      </trkpt>
      <trkpt lat="43.72912" lon="5.96401">
        <ele>361.8</ele>
        <time>2023-06-11T11:50:36Z</time>
      </trkpt>
      <trkpt lat="43.72912" lon="5.96401">
        <ele>361.8</ele>
        <time>2023-06-11T11:50:37Z</time>
      </trkpt>
      <trkpt lat="43.72911" lon="5.96401">
        <ele>361.8</ele>
        <time>2023-06-11T11:50:38Z</time>
      </trkpt>
      <trkpt lat="43.7291" lon="5.964">
        <ele>361.8</ele>
        <time>2023-06-11T11:50:39Z</time>
      </trkpt>
      <trkpt lat="43.72909" lon="5.964">
        <ele>361.8</ele>
        <time>2023-06-11T11:50:40Z</time>
      </trkpt>
      <trkpt lat="43.72908" lon="5.96399">
        <ele>361.8</ele>
        <time>2023-06-11T11:50:41Z</time>
      </trkpt>
      <trkpt lat="43.72907" lon="5.96399">
        <ele>361.9</ele>
        <time>2023-06-11T11:50:42Z</time>
      </trkpt>
      <trkpt lat="43.72906" lon="5.96399">
        <ele>361.9</ele>
        <time>2023-06-11T11:50:43Z</time>
      </trkpt>
      <trkpt lat="43.72905" lon="5.96398">
        <ele>361.8</ele>
        <time>2023-06-11T11:50:44Z</time>
      </trkpt>
      <trkpt lat="43.72903" lon="5.96398">
        <ele>361.8</ele>
        <time>2023-06-11T11:50:45Z</time>
      </trkpt>
      <trkpt lat="43.72902" lon="5.96398">
        <ele>361.8</ele>
        <time>2023-06-11T11:50:46Z</time>
      </trkpt>
      <trkpt lat="43.72901" lon="5.96398">
        <ele>361.8</ele>
        <time>2023-06-11T11:50:47Z</time>
      </trkpt>
      <trkpt lat="43.729" lon="5.96397">
        <ele>361.8</ele>
        <time>2023-06-11T11:50:48Z</time>
      </trkpt>
      <trkpt lat="43.72899" lon="5.96397">
        <ele>361.8</ele>
        <time>2023-06-11T11:50:49Z</time>
      </trkpt>
      <trkpt lat="43.72897" lon="5.96396">
        <ele>361.8</ele>
        <time>2023-06-11T11:50:50Z</time>
      </trkpt>
      <trkpt lat="43.72896" lon="5.96396">
        <ele>361.8</ele>
        <time>2023-06-11T11:50:51Z</time>
      </trkpt>
      <trkpt lat="43.72895" lon="5.96396">
        <ele>361.9</ele>
        <time>2023-06-11T11:50:52Z</time>
      </trkpt>
      <trkpt lat="43.72894" lon="5.96397">
        <ele>361.9</ele>
        <time>2023-06-11T11:50:53Z</time>
      </trkpt>
      <trkpt lat="43.72892" lon="5.96397">
        <ele>361.8</ele>
        <time>2023-06-11T11:50:54Z</time>
      </trkpt>
      <trkpt lat="43.72891" lon="5.96397">
        <ele>361.8</ele>
        <time>2023-06-11T11:50:55Z</time>
      </trkpt>
      <trkpt lat="43.7289" lon="5.96397">
        <ele>361.8</ele>
        <time>2023-06-11T11:50:56Z</time>
      </trkpt>
      <trkpt lat="43.72889" lon="5.96397">
        <ele>361.8</ele>
        <time>2023-06-11T11:50:57Z</time>
      </trkpt>
      <trkpt lat="43.72887" lon="5.96396">
        <ele>361.8</ele>
        <time>2023-06-11T11:50:58Z</time>
      </trkpt>
      <trkpt lat="43.72886" lon="5.96396">
        <ele>361.9</ele>
        <time>2023-06-11T11:50:59Z</time>
      </trkpt>
      <trkpt lat="43.72885" lon="5.96396">
        <ele>361.9</ele>
        <time>2023-06-11T11:51:00Z</time>
      </trkpt>
      <trkpt lat="43.72884" lon="5.96396">
        <ele>362</ele>
        <time>2023-06-11T11:51:01Z</time>
      </trkpt>
      <trkpt lat="43.72883" lon="5.96396">
        <ele>362.1</ele>
        <time>2023-06-11T11:51:02Z</time>
      </trkpt>
      <trkpt lat="43.72882" lon="5.96397">
        <ele>362.1</ele>
        <time>2023-06-11T11:51:03Z</time>
      </trkpt>
      <trkpt lat="43.72881" lon="5.96398">
        <ele>362.2</ele>
        <time>2023-06-11T11:51:04Z</time>
      </trkpt>
      <trkpt lat="43.7288" lon="5.96398">
        <ele>362.2</ele>
        <time>2023-06-11T11:51:05Z</time>
      </trkpt>
      <trkpt lat="43.72879" lon="5.96398">
        <ele>362.3</ele>
        <time>2023-06-11T11:51:06Z</time>
      </trkpt>
      <trkpt lat="43.72878" lon="5.96398">
        <ele>362.3</ele>
        <time>2023-06-11T11:51:07Z</time>
      </trkpt>
      <trkpt lat="43.72877" lon="5.96397">
        <ele>362.3</ele>
        <time>2023-06-11T11:51:08Z</time>
      </trkpt>
      <trkpt lat="43.72876" lon="5.96397">
        <ele>362.3</ele>
        <time>2023-06-11T11:51:09Z</time>
      </trkpt>
      <trkpt lat="43.72875" lon="5.96396">
        <ele>362.3</ele>
        <time>2023-06-11T11:51:10Z</time>
      </trkpt>
      <trkpt lat="43.72874" lon="5.96397">
        <ele>362.2</ele>
        <time>2023-06-11T11:51:11Z</time>
      </trkpt>
      <trkpt lat="43.72873" lon="5.96397">
        <ele>362.3</ele>
        <time>2023-06-11T11:51:12Z</time>
      </trkpt>
      <trkpt lat="43.72872" lon="5.96398">
        <ele>362.3</ele>
        <time>2023-06-11T11:51:13Z</time>
      </trkpt>
      <trkpt lat="43.72871" lon="5.96399">
        <ele>362.4</ele>
        <time>2023-06-11T11:51:14Z</time>
      </trkpt>
      <trkpt lat="43.7287" lon="5.964">
        <ele>362.4</ele>
        <time>2023-06-11T11:51:15Z</time>
      </trkpt>
      <trkpt lat="43.72869" lon="5.964">
        <ele>362.4</ele>
        <time>2023-06-11T11:51:16Z</time>
      </trkpt>
      <trkpt lat="43.72868" lon="5.96401">
        <ele>362.4</ele>
        <time>2023-06-11T11:51:17Z</time>
      </trkpt>
      <trkpt lat="43.72867" lon="5.964">
        <ele>362.4</ele>
        <time>2023-06-11T11:51:18Z</time>
      </trkpt>
      <trkpt lat="43.72866" lon="5.964">
        <ele>362.4</ele>
        <time>2023-06-11T11:51:19Z</time>
      </trkpt>
      <trkpt lat="43.72866" lon="5.96399">
        <ele>362.3</ele>
        <time>2023-06-11T11:51:20Z</time>
      </trkpt>
      <trkpt lat="43.72865" lon="5.96399">
        <ele>362.3</ele>
        <time>2023-06-11T11:51:21Z</time>
      </trkpt>
      <trkpt lat="43.72864" lon="5.96398">
        <ele>362.3</ele>
        <time>2023-06-11T11:51:22Z</time>
      </trkpt>
      <trkpt lat="43.72864" lon="5.96398">
        <ele>362.3</ele>
        <time>2023-06-11T11:51:23Z</time>
      </trkpt>
      <trkpt lat="43.72863" lon="5.96398">
        <ele>362.4</ele>
        <time>2023-06-11T11:51:24Z</time>
      </trkpt>
      <trkpt lat="43.72862" lon="5.96399">
        <ele>362.3</ele>
        <time>2023-06-11T11:51:25Z</time>
      </trkpt>
      <trkpt lat="43.72861" lon="5.96399">
        <ele>362.3</ele>
        <time>2023-06-11T11:51:26Z</time>
      </trkpt>
      <trkpt lat="43.7286" lon="5.964">
        <ele>362.3</ele>
        <time>2023-06-11T11:51:27Z</time>
      </trkpt>
      <trkpt lat="43.7286" lon="5.96401">
        <ele>362.3</ele>
        <time>2023-06-11T11:51:28Z</time>
      </trkpt>
      <trkpt lat="43.72859" lon="5.96402">
        <ele>362.3</ele>
        <time>2023-06-11T11:51:29Z</time>
      </trkpt>
      <trkpt lat="43.72858" lon="5.96403">
        <ele>362.2</ele>
        <time>2023-06-11T11:51:30Z</time>
      </trkpt>
      <trkpt lat="43.72857" lon="5.96403">
        <ele>362.3</ele>
        <time>2023-06-11T11:51:31Z</time>
      </trkpt>
      <trkpt lat="43.72856" lon="5.96404">
        <ele>362.3</ele>
        <time>2023-06-11T11:51:32Z</time>
      </trkpt>
      <trkpt lat="43.72855" lon="5.96404">
        <ele>362.3</ele>
        <time>2023-06-11T11:51:33Z</time>
      </trkpt>
      <trkpt lat="43.72854" lon="5.96404">
        <ele>362.2</ele>
        <time>2023-06-11T11:51:34Z</time>
      </trkpt>
      <trkpt lat="43.72852" lon="5.96404">
        <ele>362.2</ele>
        <time>2023-06-11T11:51:35Z</time>
      </trkpt>
      <trkpt lat="43.72851" lon="5.96404">
        <ele>362.2</ele>
        <time>2023-06-11T11:51:36Z</time>
      </trkpt>
      <trkpt lat="43.7285" lon="5.96404">
        <ele>362.1</ele>
        <time>2023-06-11T11:51:37Z</time>
      </trkpt>
      <trkpt lat="43.72849" lon="5.96404">
        <ele>362.1</ele>
        <time>2023-06-11T11:51:38Z</time>
      </trkpt>
      <trkpt lat="43.72847" lon="5.96403">
        <ele>362.1</ele>
        <time>2023-06-11T11:51:39Z</time>
      </trkpt>
      <trkpt lat="43.72846" lon="5.96403">
        <ele>362.1</ele>
        <time>2023-06-11T11:51:40Z</time>
      </trkpt>
      <trkpt lat="43.72845" lon="5.96403">
        <ele>362.1</ele>
        <time>2023-06-11T11:51:41Z</time>
      </trkpt>
      <trkpt lat="43.72843" lon="5.96403">
        <ele>362.1</ele>
        <time>2023-06-11T11:51:42Z</time>
      </trkpt>
      <trkpt lat="43.72842" lon="5.96402">
        <ele>362</ele>
        <time>2023-06-11T11:51:43Z</time>
      </trkpt>
      <trkpt lat="43.72841" lon="5.96402">
        <ele>361.9</ele>
        <time>2023-06-11T11:51:44Z</time>
      </trkpt>
      <trkpt lat="43.7284" lon="5.96402">
        <ele>361.9</ele>
        <time>2023-06-11T11:51:45Z</time>
      </trkpt>
      <trkpt lat="43.72839" lon="5.96401">
        <ele>361.9</ele>
        <time>2023-06-11T11:51:46Z</time>
      </trkpt>
      <trkpt lat="43.72838" lon="5.96401">
        <ele>361.9</ele>
        <time>2023-06-11T11:51:47Z</time>
      </trkpt>
      <trkpt lat="43.72837" lon="5.964">
        <ele>361.9</ele>
        <time>2023-06-11T11:51:48Z</time>
      </trkpt>
      <trkpt lat="43.72836" lon="5.96399">
        <ele>361.9</ele>
        <time>2023-06-11T11:51:49Z</time>
      </trkpt>
      <trkpt lat="43.72835" lon="5.96399">
        <ele>361.8</ele>
        <time>2023-06-11T11:51:50Z</time>
      </trkpt>
      <trkpt lat="43.72833" lon="5.96398">
        <ele>361.8</ele>
        <time>2023-06-11T11:51:51Z</time>
      </trkpt>
      <trkpt lat="43.72832" lon="5.96398">
        <ele>361.8</ele>
        <time>2023-06-11T11:51:52Z</time>
      </trkpt>
      <trkpt lat="43.7283" lon="5.96397">
        <ele>361.7</ele>
        <time>2023-06-11T11:51:53Z</time>
      </trkpt>
      <trkpt lat="43.72829" lon="5.96397">
        <ele>361.9</ele>
        <time>2023-06-11T11:51:54Z</time>
      </trkpt>
      <trkpt lat="43.72828" lon="5.96397">
        <ele>361.9</ele>
        <time>2023-06-11T11:51:55Z</time>
      </trkpt>
      <trkpt lat="43.72827" lon="5.96397">
        <ele>361.9</ele>
        <time>2023-06-11T11:51:56Z</time>
      </trkpt>
      <trkpt lat="43.72825" lon="5.96396">
        <ele>361.9</ele>
        <time>2023-06-11T11:51:57Z</time>
      </trkpt>
      <trkpt lat="43.72824" lon="5.96396">
        <ele>361.8</ele>
        <time>2023-06-11T11:51:58Z</time>
      </trkpt>
      <trkpt lat="43.72823" lon="5.96395">
        <ele>361.7</ele>
        <time>2023-06-11T11:51:59Z</time>
      </trkpt>
      <trkpt lat="43.72822" lon="5.96395">
        <ele>361.8</ele>
        <time>2023-06-11T11:52:00Z</time>
      </trkpt>
      <trkpt lat="43.72821" lon="5.96394">
        <ele>361.7</ele>
        <time>2023-06-11T11:52:01Z</time>
      </trkpt>
      <trkpt lat="43.72819" lon="5.96394">
        <ele>361.7</ele>
        <time>2023-06-11T11:52:02Z</time>
      </trkpt>
      <trkpt lat="43.72818" lon="5.96394">
        <ele>361.7</ele>
        <time>2023-06-11T11:52:03Z</time>
      </trkpt>
      <trkpt lat="43.72817" lon="5.96394">
        <ele>361.7</ele>
        <time>2023-06-11T11:52:04Z</time>
      </trkpt>
      <trkpt lat="43.72816" lon="5.96394">
        <ele>361.7</ele>
        <time>2023-06-11T11:52:05Z</time>
      </trkpt>
      <trkpt lat="43.72814" lon="5.96395">
        <ele>361.6</ele>
        <time>2023-06-11T11:52:06Z</time>
      </trkpt>
      <trkpt lat="43.72813" lon="5.96395">
        <ele>361.6</ele>
        <time>2023-06-11T11:52:07Z</time>
      </trkpt>
      <trkpt lat="43.72812" lon="5.96396">
        <ele>361.7</ele>
        <time>2023-06-11T11:52:08Z</time>
      </trkpt>
      <trkpt lat="43.7281" lon="5.96396">
        <ele>361.7</ele>
        <time>2023-06-11T11:52:09Z</time>
      </trkpt>
      <trkpt lat="43.72809" lon="5.96396">
        <ele>361.7</ele>
        <time>2023-06-11T11:52:10Z</time>
      </trkpt>
      <trkpt lat="43.72808" lon="5.96397">
        <ele>361.8</ele>
        <time>2023-06-11T11:52:11Z</time>
      </trkpt>
      <trkpt lat="43.72807" lon="5.96397">
        <ele>361.9</ele>
        <time>2023-06-11T11:52:12Z</time>
      </trkpt>
      <trkpt lat="43.72805" lon="5.96397">
        <ele>361.9</ele>
        <time>2023-06-11T11:52:13Z</time>
      </trkpt>
      <trkpt lat="43.72804" lon="5.96396">
        <ele>361.9</ele>
        <time>2023-06-11T11:52:14Z</time>
      </trkpt>
      <trkpt lat="43.72803" lon="5.96396">
        <ele>361.9</ele>
        <time>2023-06-11T11:52:15Z</time>
      </trkpt>
      <trkpt lat="43.72802" lon="5.96395">
        <ele>361.9</ele>
        <time>2023-06-11T11:52:16Z</time>
      </trkpt>
      <trkpt lat="43.72801" lon="5.96394">
        <ele>361.9</ele>
        <time>2023-06-11T11:52:17Z</time>
      </trkpt>
      <trkpt lat="43.72799" lon="5.96394">
        <ele>361.9</ele>
        <time>2023-06-11T11:52:18Z</time>
      </trkpt>
      <trkpt lat="43.72798" lon="5.96394">
        <ele>361.9</ele>
        <time>2023-06-11T11:52:19Z</time>
      </trkpt>
      <trkpt lat="43.72797" lon="5.96394">
        <ele>362</ele>
        <time>2023-06-11T11:52:20Z</time>
      </trkpt>
      <trkpt lat="43.72796" lon="5.96394">
        <ele>362</ele>
        <time>2023-06-11T11:52:21Z</time>
      </trkpt>
      <trkpt lat="43.72794" lon="5.96394">
        <ele>362</ele>
        <time>2023-06-11T11:52:22Z</time>
      </trkpt>
      <trkpt lat="43.72793" lon="5.96394">
        <ele>362</ele>
        <time>2023-06-11T11:52:23Z</time>
      </trkpt>
      <trkpt lat="43.72792" lon="5.96394">
        <ele>362</ele>
        <time>2023-06-11T11:52:24Z</time>
      </trkpt>
      <trkpt lat="43.7279" lon="5.96394">
        <ele>362</ele>
        <time>2023-06-11T11:52:25Z</time>
      </trkpt>
      <trkpt lat="43.72789" lon="5.96394">
        <ele>361.9</ele>
        <time>2023-06-11T11:52:26Z</time>
      </trkpt>
      <trkpt lat="43.72788" lon="5.96394">
        <ele>361.9</ele>
        <time>2023-06-11T11:52:27Z</time>
      </trkpt>
      <trkpt lat="43.72786" lon="5.96394">
        <ele>362</ele>
        <time>2023-06-11T11:52:28Z</time>
      </trkpt>
      <trkpt lat="43.72785" lon="5.96393">
        <ele>361.9</ele>
        <time>2023-06-11T11:52:29Z</time>
      </trkpt>
      <trkpt lat="43.72783" lon="5.96393">
        <ele>361.9</ele>
        <time>2023-06-11T11:52:30Z</time>
      </trkpt>
      <trkpt lat="43.72782" lon="5.96393">
        <ele>361.9</ele>
        <time>2023-06-11T11:52:31Z</time>
      </trkpt>
      <trkpt lat="43.7278" lon="5.96393">
        <ele>361.8</ele>
        <time>2023-06-11T11:52:32Z</time>
      </trkpt>
      <trkpt lat="43.72779" lon="5.96392">
        <ele>361.8</ele>
        <time>2023-06-11T11:52:33Z</time>
      </trkpt>
      <trkpt lat="43.72777" lon="5.96392">
        <ele>361.8</ele>
        <time>2023-06-11T11:52:34Z</time>
      </trkpt>
      <trkpt lat="43.72776" lon="5.96392">
        <ele>361.9</ele>
        <time>2023-06-11T11:52:35Z</time>
      </trkpt>
      <trkpt lat="43.72774" lon="5.96391">
        <ele>362</ele>
        <time>2023-06-11T11:52:36Z</time>
      </trkpt>
      <trkpt lat="43.72773" lon="5.96391">
        <ele>362.1</ele>
        <time>2023-06-11T11:52:37Z</time>
      </trkpt>
      <trkpt lat="43.72771" lon="5.96391">
        <ele>362</ele>
        <time>2023-06-11T11:52:38Z</time>
      </trkpt>
      <trkpt lat="43.7277" lon="5.96391">
        <ele>362</ele>
        <time>2023-06-11T11:52:39Z</time>
      </trkpt>
      <trkpt lat="43.72769" lon="5.9639">
        <ele>362</ele>
        <time>2023-06-11T11:52:40Z</time>
      </trkpt>
      <trkpt lat="43.72767" lon="5.9639">
        <ele>362</ele>
        <time>2023-06-11T11:52:41Z</time>
      </trkpt>
      <trkpt lat="43.72766" lon="5.9639">
        <ele>362.1</ele>
        <time>2023-06-11T11:52:42Z</time>
      </trkpt>
      <trkpt lat="43.72764" lon="5.96389">
        <ele>362.1</ele>
        <time>2023-06-11T11:52:43Z</time>
      </trkpt>
      <trkpt lat="43.72763" lon="5.96389">
        <ele>362.1</ele>
        <time>2023-06-11T11:52:44Z</time>
      </trkpt>
      <trkpt lat="43.72761" lon="5.96389">
        <ele>362.1</ele>
        <time>2023-06-11T11:52:45Z</time>
      </trkpt>
      <trkpt lat="43.7276" lon="5.96388">
        <ele>362.1</ele>
        <time>2023-06-11T11:52:46Z</time>
      </trkpt>
      <trkpt lat="43.72758" lon="5.96388">
        <ele>362.1</ele>
        <time>2023-06-11T11:52:47Z</time>
      </trkpt>
      <trkpt lat="43.72756" lon="5.96388">
        <ele>362.1</ele>
        <time>2023-06-11T11:52:48Z</time>
      </trkpt>
      <trkpt lat="43.72755" lon="5.96387">
        <ele>362</ele>
        <time>2023-06-11T11:52:49Z</time>
      </trkpt>
      <trkpt lat="43.72753" lon="5.96387">
        <ele>362</ele>
        <time>2023-06-11T11:52:50Z</time>
      </trkpt>
      <trkpt lat="43.72752" lon="5.96387">
        <ele>362</ele>
        <time>2023-06-11T11:52:51Z</time>
      </trkpt>
      <trkpt lat="43.72751" lon="5.96386">
        <ele>362</ele>
        <time>2023-06-11T11:52:52Z</time>
      </trkpt>
      <trkpt lat="43.72749" lon="5.96386">
        <ele>362</ele>
        <time>2023-06-11T11:52:53Z</time>
      </trkpt>
      <trkpt lat="43.72748" lon="5.96385">
        <ele>362</ele>
        <time>2023-06-11T11:52:54Z</time>
      </trkpt>
      <trkpt lat="43.72746" lon="5.96385">
        <ele>362.1</ele>
        <time>2023-06-11T11:52:55Z</time>
      </trkpt>
      <trkpt lat="43.72745" lon="5.96385">
        <ele>362.1</ele>
        <time>2023-06-11T11:52:56Z</time>
      </trkpt>
      <trkpt lat="43.72743" lon="5.96384">
        <ele>362.1</ele>
        <time>2023-06-11T11:52:57Z</time>
      </trkpt>
      <trkpt lat="43.72742" lon="5.96384">
        <ele>362.1</ele>
        <time>2023-06-11T11:52:58Z</time>
      </trkpt>
      <trkpt lat="43.72741" lon="5.96383">
        <ele>362.2</ele>
        <time>2023-06-11T11:52:59Z</time>
      </trkpt>
      <trkpt lat="43.72739" lon="5.96383">
        <ele>362.2</ele>
        <time>2023-06-11T11:53:00Z</time>
      </trkpt>
      <trkpt lat="43.72738" lon="5.96382">
        <ele>362.2</ele>
        <time>2023-06-11T11:53:01Z</time>
      </trkpt>
      <trkpt lat="43.72737" lon="5.96382">
        <ele>362.2</ele>
        <time>2023-06-11T11:53:02Z</time>
      </trkpt>
      <trkpt lat="43.72735" lon="5.96381">
        <ele>362.1</ele>
        <time>2023-06-11T11:53:03Z</time>
      </trkpt>
      <trkpt lat="43.72734" lon="5.96381">
        <ele>362.1</ele>
        <time>2023-06-11T11:53:04Z</time>
      </trkpt>
      <trkpt lat="43.72732" lon="5.96381">
        <ele>362</ele>
        <time>2023-06-11T11:53:05Z</time>
      </trkpt>
      <trkpt lat="43.72731" lon="5.96381">
        <ele>361.9</ele>
        <time>2023-06-11T11:53:06Z</time>
      </trkpt>
      <trkpt lat="43.7273" lon="5.96381">
        <ele>361.9</ele>
        <time>2023-06-11T11:53:07Z</time>
      </trkpt>
      <trkpt lat="43.72728" lon="5.96381">
        <ele>361.8</ele>
        <time>2023-06-11T11:53:08Z</time>
      </trkpt>
      <trkpt lat="43.72727" lon="5.96382">
        <ele>361.8</ele>
        <time>2023-06-11T11:53:09Z</time>
      </trkpt>
      <trkpt lat="43.72726" lon="5.96382">
        <ele>361.8</ele>
        <time>2023-06-11T11:53:10Z</time>
      </trkpt>
      <trkpt lat="43.72724" lon="5.96383">
        <ele>361.8</ele>
        <time>2023-06-11T11:53:11Z</time>
      </trkpt>
      <trkpt lat="43.72723" lon="5.96383">
        <ele>361.8</ele>
        <time>2023-06-11T11:53:12Z</time>
      </trkpt>
      <trkpt lat="43.72722" lon="5.96384">
        <ele>361.8</ele>
        <time>2023-06-11T11:53:13Z</time>
      </trkpt>
      <trkpt lat="43.72721" lon="5.96385">
        <ele>361.8</ele>
        <time>2023-06-11T11:53:14Z</time>
      </trkpt>
      <trkpt lat="43.7272" lon="5.96385">
        <ele>361.9</ele>
        <time>2023-06-11T11:53:15Z</time>
      </trkpt>
      <trkpt lat="43.72718" lon="5.96386">
        <ele>361.9</ele>
        <time>2023-06-11T11:53:16Z</time>
      </trkpt>
      <trkpt lat="43.72717" lon="5.96387">
        <ele>361.9</ele>
        <time>2023-06-11T11:53:17Z</time>
      </trkpt>
      <trkpt lat="43.72716" lon="5.96388">
        <ele>361.8</ele>
        <time>2023-06-11T11:53:18Z</time>
      </trkpt>
      <trkpt lat="43.72715" lon="5.96389">
        <ele>361.8</ele>
        <time>2023-06-11T11:53:19Z</time>
      </trkpt>
      <trkpt lat="43.72714" lon="5.9639">
        <ele>361.8</ele>
        <time>2023-06-11T11:53:20Z</time>
      </trkpt>
      <trkpt lat="43.72713" lon="5.96392">
        <ele>361.9</ele>
        <time>2023-06-11T11:53:21Z</time>
      </trkpt>
      <trkpt lat="43.72712" lon="5.96393">
        <ele>362</ele>
        <time>2023-06-11T11:53:22Z</time>
      </trkpt>
      <trkpt lat="43.72711" lon="5.96394">
        <ele>362</ele>
        <time>2023-06-11T11:53:23Z</time>
      </trkpt>
      <trkpt lat="43.7271" lon="5.96396">
        <ele>362</ele>
        <time>2023-06-11T11:53:24Z</time>
      </trkpt>
      <trkpt lat="43.7271" lon="5.96397">
        <ele>362</ele>
        <time>2023-06-11T11:53:25Z</time>
      </trkpt>
      <trkpt lat="43.72709" lon="5.96398">
        <ele>361.9</ele>
        <time>2023-06-11T11:53:26Z</time>
      </trkpt>
      <trkpt lat="43.72708" lon="5.96399">
        <ele>361.9</ele>
        <time>2023-06-11T11:53:27Z</time>
      </trkpt>
      <trkpt lat="43.72707" lon="5.964">
        <ele>361.9</ele>
        <time>2023-06-11T11:53:28Z</time>
      </trkpt>
      <trkpt lat="43.72706" lon="5.96401">
        <ele>362</ele>
        <time>2023-06-11T11:53:29Z</time>
      </trkpt>
      <trkpt lat="43.72705" lon="5.96403">
        <ele>362</ele>
        <time>2023-06-11T11:53:30Z</time>
      </trkpt>
      <trkpt lat="43.72704" lon="5.96403">
        <ele>362</ele>
        <time>2023-06-11T11:53:31Z</time>
      </trkpt>
      <trkpt lat="43.72702" lon="5.96404">
        <ele>362</ele>
        <time>2023-06-11T11:53:32Z</time>
      </trkpt>
      <trkpt lat="43.72701" lon="5.96405">
        <ele>362</ele>
        <time>2023-06-11T11:53:33Z</time>
      </trkpt>
      <trkpt lat="43.727" lon="5.96406">
        <ele>362</ele>
        <time>2023-06-11T11:53:34Z</time>
      </trkpt>
      <trkpt lat="43.72699" lon="5.96407">
        <ele>362</ele>
        <time>2023-06-11T11:53:35Z</time>
      </trkpt>
      <trkpt lat="43.72698" lon="5.96407">
        <ele>362.1</ele>
        <time>2023-06-11T11:53:36Z</time>
      </trkpt>
      <trkpt lat="43.72696" lon="5.96408">
        <ele>362.1</ele>
        <time>2023-06-11T11:53:37Z</time>
      </trkpt>
      <trkpt lat="43.72695" lon="5.96408">
        <ele>362.1</ele>
        <time>2023-06-11T11:53:38Z</time>
      </trkpt>
      <trkpt lat="43.72694" lon="5.96408">
        <ele>362.1</ele>
        <time>2023-06-11T11:53:39Z</time>
      </trkpt>
      <trkpt lat="43.72692" lon="5.96409">
        <ele>362</ele>
        <time>2023-06-11T11:53:40Z</time>
      </trkpt>
      <trkpt lat="43.72691" lon="5.96409">
        <ele>362</ele>
        <time>2023-06-11T11:53:41Z</time>
      </trkpt>
      <trkpt lat="43.7269" lon="5.96409">
        <ele>361.9</ele>
        <time>2023-06-11T11:53:42Z</time>
      </trkpt>
      <trkpt lat="43.72688" lon="5.96409">
        <ele>362</ele>
        <time>2023-06-11T11:53:43Z</time>
      </trkpt>
      <trkpt lat="43.72687" lon="5.96409">
        <ele>362</ele>
        <time>2023-06-11T11:53:44Z</time>
      </trkpt>
      <trkpt lat="43.72686" lon="5.96409">
        <ele>362</ele>
        <time>2023-06-11T11:53:45Z</time>
      </trkpt>
      <trkpt lat="43.72684" lon="5.96409">
        <ele>362</ele>
        <time>2023-06-11T11:53:46Z</time>
      </trkpt>
      <trkpt lat="43.72683" lon="5.96409">
        <ele>362</ele>
        <time>2023-06-11T11:53:47Z</time>
      </trkpt>
      <trkpt lat="43.72682" lon="5.96409">
        <ele>362</ele>
        <time>2023-06-11T11:53:48Z</time>
      </trkpt>
      <trkpt lat="43.7268" lon="5.96409">
        <ele>361.9</ele>
        <time>2023-06-11T11:53:49Z</time>
      </trkpt>
      <trkpt lat="43.72679" lon="5.96409">
        <ele>362</ele>
        <time>2023-06-11T11:53:50Z</time>
      </trkpt>
      <trkpt lat="43.72678" lon="5.9641">
        <ele>362</ele>
        <time>2023-06-11T11:53:51Z</time>
      </trkpt>
      <trkpt lat="43.72676" lon="5.9641">
        <ele>362.1</ele>
        <time>2023-06-11T11:53:52Z</time>
      </trkpt>
      <trkpt lat="43.72675" lon="5.9641">
        <ele>362.1</ele>
        <time>2023-06-11T11:53:53Z</time>
      </trkpt>
      <trkpt lat="43.72673" lon="5.9641">
        <ele>362</ele>
        <time>2023-06-11T11:53:54Z</time>
      </trkpt>
      <trkpt lat="43.72672" lon="5.9641">
        <ele>361.9</ele>
        <time>2023-06-11T11:53:55Z</time>
      </trkpt>
      <trkpt lat="43.72671" lon="5.9641">
        <ele>361.9</ele>
        <time>2023-06-11T11:53:56Z</time>
      </trkpt>
      <trkpt lat="43.72669" lon="5.9641">
        <ele>361.8</ele>
        <time>2023-06-11T11:53:57Z</time>
      </trkpt>
      <trkpt lat="43.72668" lon="5.9641">
        <ele>361.7</ele>
        <time>2023-06-11T11:53:58Z</time>
      </trkpt>
      <trkpt lat="43.72666" lon="5.9641">
        <ele>361.6</ele>
        <time>2023-06-11T11:53:59Z</time>
      </trkpt>
      <trkpt lat="43.72665" lon="5.9641">
        <ele>361.6</ele>
        <time>2023-06-11T11:54:00Z</time>
      </trkpt>
      <trkpt lat="43.72663" lon="5.9641">
        <ele>361.6</ele>
        <time>2023-06-11T11:54:01Z</time>
      </trkpt>
      <trkpt lat="43.72662" lon="5.9641">
        <ele>361.5</ele>
        <time>2023-06-11T11:54:02Z</time>
      </trkpt>
      <trkpt lat="43.72661" lon="5.9641">
        <ele>361.5</ele>
        <time>2023-06-11T11:54:03Z</time>
      </trkpt>
      <trkpt lat="43.72659" lon="5.96411">
        <ele>361.5</ele>
        <time>2023-06-11T11:54:04Z</time>
      </trkpt>
      <trkpt lat="43.72658" lon="5.96411">
        <ele>361.5</ele>
        <time>2023-06-11T11:54:05Z</time>
      </trkpt>
      <trkpt lat="43.72657" lon="5.96411">
        <ele>361.6</ele>
        <time>2023-06-11T11:54:06Z</time>
      </trkpt>
      <trkpt lat="43.72656" lon="5.96411">
        <ele>361.6</ele>
        <time>2023-06-11T11:54:07Z</time>
      </trkpt>
      <trkpt lat="43.72654" lon="5.96411">
        <ele>361.6</ele>
        <time>2023-06-11T11:54:08Z</time>
      </trkpt>
      <trkpt lat="43.72653" lon="5.96412">
        <ele>361.6</ele>
        <time>2023-06-11T11:54:09Z</time>
      </trkpt>
      <trkpt lat="43.72652" lon="5.96412">
        <ele>361.6</ele>
        <time>2023-06-11T11:54:10Z</time>
      </trkpt>
      <trkpt lat="43.7265" lon="5.96413">
        <ele>361.6</ele>
        <time>2023-06-11T11:54:11Z</time>
      </trkpt>
      <trkpt lat="43.72649" lon="5.96413">
        <ele>361.6</ele>
        <time>2023-06-11T11:54:12Z</time>
      </trkpt>
      <trkpt lat="43.72648" lon="5.96414">
        <ele>361.7</ele>
        <time>2023-06-11T11:54:13Z</time>
      </trkpt>
      <trkpt lat="43.72647" lon="5.96414">
        <ele>361.8</ele>
        <time>2023-06-11T11:54:14Z</time>
      </trkpt>
      <trkpt lat="43.72645" lon="5.96415">
        <ele>361.8</ele>
        <time>2023-06-11T11:54:15Z</time>
      </trkpt>
      <trkpt lat="43.72644" lon="5.96415">
        <ele>361.9</ele>
        <time>2023-06-11T11:54:16Z</time>
      </trkpt>
      <trkpt lat="43.72643" lon="5.96416">
        <ele>361.8</ele>
        <time>2023-06-11T11:54:17Z</time>
      </trkpt>
      <trkpt lat="43.72642" lon="5.96416">
        <ele>361.8</ele>
        <time>2023-06-11T11:54:18Z</time>
      </trkpt>
      <trkpt lat="43.72641" lon="5.96417">
        <ele>361.8</ele>
        <time>2023-06-11T11:54:19Z</time>
      </trkpt>
      <trkpt lat="43.72639" lon="5.96418">
        <ele>361.8</ele>
        <time>2023-06-11T11:54:20Z</time>
      </trkpt>
      <trkpt lat="43.72638" lon="5.96418">
        <ele>361.8</ele>
        <time>2023-06-11T11:54:21Z</time>
      </trkpt>
      <trkpt lat="43.72637" lon="5.96419">
        <ele>361.9</ele>
        <time>2023-06-11T11:54:22Z</time>
      </trkpt>
      <trkpt lat="43.72636" lon="5.9642">
        <ele>362</ele>
        <time>2023-06-11T11:54:23Z</time>
      </trkpt>
      <trkpt lat="43.72634" lon="5.9642">
        <ele>362.1</ele>
        <time>2023-06-11T11:54:24Z</time>
      </trkpt>
      <trkpt lat="43.72633" lon="5.96421">
        <ele>362.1</ele>
        <time>2023-06-11T11:54:25Z</time>
      </trkpt>
      <trkpt lat="43.72632" lon="5.96422">
        <ele>362.2</ele>
        <time>2023-06-11T11:54:26Z</time>
      </trkpt>
      <trkpt lat="43.72631" lon="5.96423">
        <ele>362.2</ele>
        <time>2023-06-11T11:54:27Z</time>
      </trkpt>
      <trkpt lat="43.7263" lon="5.96423">
        <ele>362.3</ele>
        <time>2023-06-11T11:54:28Z</time>
      </trkpt>
      <trkpt lat="43.72629" lon="5.96424">
        <ele>362.2</ele>
        <time>2023-06-11T11:54:29Z</time>
      </trkpt>
      <trkpt lat="43.72627" lon="5.96425">
        <ele>362.2</ele>
        <time>2023-06-11T11:54:30Z</time>
      </trkpt>
      <trkpt lat="43.72626" lon="5.96426">
        <ele>362.1</ele>
        <time>2023-06-11T11:54:31Z</time>
      </trkpt>
      <trkpt lat="43.72625" lon="5.96426">
        <ele>362.1</ele>
        <time>2023-06-11T11:54:32Z</time>
      </trkpt>
      <trkpt lat="43.72624" lon="5.96427">
        <ele>362.1</ele>
        <time>2023-06-11T11:54:33Z</time>
      </trkpt>
      <trkpt lat="43.72623" lon="5.96427">
        <ele>362.1</ele>
        <time>2023-06-11T11:54:34Z</time>
      </trkpt>
      <trkpt lat="43.72622" lon="5.96428">
        <ele>362</ele>
        <time>2023-06-11T11:54:35Z</time>
      </trkpt>
      <trkpt lat="43.7262" lon="5.96429">
        <ele>362</ele>
        <time>2023-06-11T11:54:36Z</time>
      </trkpt>
      <trkpt lat="43.72619" lon="5.96429">
        <ele>362</ele>
        <time>2023-06-11T11:54:37Z</time>
      </trkpt>
      <trkpt lat="43.72618" lon="5.9643">
        <ele>362</ele>
        <time>2023-06-11T11:54:38Z</time>
      </trkpt>
      <trkpt lat="43.72616" lon="5.9643">
        <ele>362</ele>
        <time>2023-06-11T11:54:39Z</time>
      </trkpt>
      <trkpt lat="43.72615" lon="5.9643">
        <ele>362.1</ele>
        <time>2023-06-11T11:54:40Z</time>
      </trkpt>
      <trkpt lat="43.72614" lon="5.96431">
        <ele>362</ele>
        <time>2023-06-11T11:54:41Z</time>
      </trkpt>
      <trkpt lat="43.72612" lon="5.96431">
        <ele>362.1</ele>
        <time>2023-06-11T11:54:42Z</time>
      </trkpt>
      <trkpt lat="43.72611" lon="5.96431">
        <ele>362.1</ele>
        <time>2023-06-11T11:54:43Z</time>
      </trkpt>
      <trkpt lat="43.72609" lon="5.96432">
        <ele>362.2</ele>
        <time>2023-06-11T11:54:44Z</time>
      </trkpt>
      <trkpt lat="43.72608" lon="5.96432">
        <ele>362.2</ele>
        <time>2023-06-11T11:54:45Z</time>
      </trkpt>
      <trkpt lat="43.72607" lon="5.96432">
        <ele>362.1</ele>
        <time>2023-06-11T11:54:46Z</time>
      </trkpt>
      <trkpt lat="43.72605" lon="5.96432">
        <ele>362.2</ele>
        <time>2023-06-11T11:54:47Z</time>
      </trkpt>
      <trkpt lat="43.72604" lon="5.96432">
        <ele>362.2</ele>
        <time>2023-06-11T11:54:48Z</time>
      </trkpt>
      <trkpt lat="43.72602" lon="5.96433">
        <ele>362.3</ele>
        <time>2023-06-11T11:54:49Z</time>
      </trkpt>
      <trkpt lat="43.72601" lon="5.96433">
        <ele>362.2</ele>
        <time>2023-06-11T11:54:50Z</time>
      </trkpt>
      <trkpt lat="43.726" lon="5.96433">
        <ele>362.2</ele>
        <time>2023-06-11T11:54:51Z</time>
      </trkpt>
      <trkpt lat="43.72598" lon="5.96433">
        <ele>362.2</ele>
        <time>2023-06-11T11:54:52Z</time>
      </trkpt>
      <trkpt lat="43.72597" lon="5.96433">
        <ele>362.1</ele>
        <time>2023-06-11T11:54:53Z</time>
      </trkpt>
      <trkpt lat="43.72595" lon="5.96433">
        <ele>362.2</ele>
        <time>2023-06-11T11:54:54Z</time>
      </trkpt>
      <trkpt lat="43.72594" lon="5.96434">
        <ele>362.2</ele>
        <time>2023-06-11T11:54:55Z</time>
      </trkpt>
      <trkpt lat="43.72592" lon="5.96434">
        <ele>362.2</ele>
        <time>2023-06-11T11:54:56Z</time>
      </trkpt>
      <trkpt lat="43.72591" lon="5.96434">
        <ele>362.2</ele>
        <time>2023-06-11T11:54:57Z</time>
      </trkpt>
      <trkpt lat="43.7259" lon="5.96434">
        <ele>362.2</ele>
        <time>2023-06-11T11:54:58Z</time>
      </trkpt>
      <trkpt lat="43.72588" lon="5.96434">
        <ele>362.2</ele>
        <time>2023-06-11T11:54:59Z</time>
      </trkpt>
      <trkpt lat="43.72587" lon="5.96434">
        <ele>362.2</ele>
        <time>2023-06-11T11:55:00Z</time>
      </trkpt>
      <trkpt lat="43.72586" lon="5.96434">
        <ele>362.1</ele>
        <time>2023-06-11T11:55:01Z</time>
      </trkpt>
      <trkpt lat="43.72585" lon="5.96434">
        <ele>362.2</ele>
        <time>2023-06-11T11:55:02Z</time>
      </trkpt>
      <trkpt lat="43.72583" lon="5.96434">
        <ele>362.1</ele>
        <time>2023-06-11T11:55:03Z</time>
      </trkpt>
      <trkpt lat="43.72582" lon="5.96434">
        <ele>362.1</ele>
        <time>2023-06-11T11:55:04Z</time>
      </trkpt>
      <trkpt lat="43.72581" lon="5.96435">
        <ele>362.1</ele>
        <time>2023-06-11T11:55:05Z</time>
      </trkpt>
      <trkpt lat="43.72579" lon="5.96435">
        <ele>362</ele>
        <time>2023-06-11T11:55:06Z</time>
      </trkpt>
      <trkpt lat="43.72578" lon="5.96435">
        <ele>362.1</ele>
        <time>2023-06-11T11:55:07Z</time>
      </trkpt>
      <trkpt lat="43.72577" lon="5.96435">
        <ele>362</ele>
        <time>2023-06-11T11:55:08Z</time>
      </trkpt>
      <trkpt lat="43.72576" lon="5.96436">
        <ele>362</ele>
        <time>2023-06-11T11:55:09Z</time>
      </trkpt>
      <trkpt lat="43.72575" lon="5.96436">
        <ele>361.9</ele>
        <time>2023-06-11T11:55:10Z</time>
      </trkpt>
      <trkpt lat="43.72573" lon="5.96436">
        <ele>361.9</ele>
        <time>2023-06-11T11:55:11Z</time>
      </trkpt>
      <trkpt lat="43.72572" lon="5.96437">
        <ele>362</ele>
        <time>2023-06-11T11:55:12Z</time>
      </trkpt>
      <trkpt lat="43.72571" lon="5.96437">
        <ele>362</ele>
        <time>2023-06-11T11:55:13Z</time>
      </trkpt>
      <trkpt lat="43.7257" lon="5.96438">
        <ele>362</ele>
        <time>2023-06-11T11:55:14Z</time>
      </trkpt>
      <trkpt lat="43.72568" lon="5.96438">
        <ele>362</ele>
        <time>2023-06-11T11:55:15Z</time>
      </trkpt>
      <trkpt lat="43.72567" lon="5.96439">
        <ele>362.1</ele>
        <time>2023-06-11T11:55:16Z</time>
      </trkpt>
      <trkpt lat="43.72566" lon="5.96439">
        <ele>362.2</ele>
        <time>2023-06-11T11:55:17Z</time>
      </trkpt>
      <trkpt lat="43.72565" lon="5.9644">
        <ele>362.2</ele>
        <time>2023-06-11T11:55:18Z</time>
      </trkpt>
      <trkpt lat="43.72563" lon="5.9644">
        <ele>362.2</ele>
        <time>2023-06-11T11:55:19Z</time>
      </trkpt>
      <trkpt lat="43.72562" lon="5.96441">
        <ele>362.2</ele>
        <time>2023-06-11T11:55:20Z</time>
      </trkpt>
      <trkpt lat="43.72561" lon="5.96441">
        <ele>362.2</ele>
        <time>2023-06-11T11:55:21Z</time>
      </trkpt>
      <trkpt lat="43.7256" lon="5.96442">
        <ele>362.2</ele>
        <time>2023-06-11T11:55:22Z</time>
      </trkpt>
      <trkpt lat="43.72558" lon="5.96442">
        <ele>362.2</ele>
        <time>2023-06-11T11:55:23Z</time>
      </trkpt>
      <trkpt lat="43.72557" lon="5.96443">
        <ele>362.3</ele>
        <time>2023-06-11T11:55:24Z</time>
      </trkpt>
      <trkpt lat="43.72556" lon="5.96443">
        <ele>362.3</ele>
        <time>2023-06-11T11:55:25Z</time>
      </trkpt>
      <trkpt lat="43.72555" lon="5.96444">
        <ele>362.3</ele>
        <time>2023-06-11T11:55:26Z</time>
      </trkpt>
      <trkpt lat="43.72554" lon="5.96444">
        <ele>362.3</ele>
        <time>2023-06-11T11:55:27Z</time>
      </trkpt>
      <trkpt lat="43.72552" lon="5.96445">
        <ele>362.3</ele>
        <time>2023-06-11T11:55:28Z</time>
      </trkpt>
      <trkpt lat="43.72551" lon="5.96445">
        <ele>362.3</ele>
        <time>2023-06-11T11:55:29Z</time>
      </trkpt>
      <trkpt lat="43.7255" lon="5.96446">
        <ele>362.3</ele>
        <time>2023-06-11T11:55:30Z</time>
      </trkpt>
      <trkpt lat="43.72549" lon="5.96447">
        <ele>362.2</ele>
        <time>2023-06-11T11:55:31Z</time>
      </trkpt>
      <trkpt lat="43.72547" lon="5.96447">
        <ele>362.1</ele>
        <time>2023-06-11T11:55:32Z</time>
      </trkpt>
      <trkpt lat="43.72546" lon="5.96448">
        <ele>362.1</ele>
        <time>2023-06-11T11:55:33Z</time>
      </trkpt>
      <trkpt lat="43.72545" lon="5.96448">
        <ele>362.1</ele>
        <time>2023-06-11T11:55:34Z</time>
      </trkpt>
      <trkpt lat="43.72543" lon="5.96449">
        <ele>362.1</ele>
        <time>2023-06-11T11:55:35Z</time>
      </trkpt>
      <trkpt lat="43.72542" lon="5.96449">
        <ele>362.2</ele>
        <time>2023-06-11T11:55:36Z</time>
      </trkpt>
      <trkpt lat="43.72541" lon="5.9645">
        <ele>362.2</ele>
        <time>2023-06-11T11:55:37Z</time>
      </trkpt>
      <trkpt lat="43.7254" lon="5.9645">
        <ele>362.2</ele>
        <time>2023-06-11T11:55:38Z</time>
      </trkpt>
      <trkpt lat="43.72538" lon="5.96451">
        <ele>362.2</ele>
        <time>2023-06-11T11:55:39Z</time>
      </trkpt>
      <trkpt lat="43.72537" lon="5.96451">
        <ele>362.2</ele>
        <time>2023-06-11T11:55:40Z</time>
      </trkpt>
      <trkpt lat="43.72536" lon="5.96452">
        <ele>362.1</ele>
        <time>2023-06-11T11:55:41Z</time>
      </trkpt>
      <trkpt lat="43.72534" lon="5.96452">
        <ele>362.1</ele>
        <time>2023-06-11T11:55:42Z</time>
      </trkpt>
      <trkpt lat="43.72533" lon="5.96453">
        <ele>362.1</ele>
        <time>2023-06-11T11:55:43Z</time>
      </trkpt>
      <trkpt lat="43.72532" lon="5.96453">
        <ele>362.1</ele>
        <time>2023-06-11T11:55:44Z</time>
      </trkpt>
      <trkpt lat="43.7253" lon="5.96454">
        <ele>362</ele>
        <time>2023-06-11T11:55:45Z</time>
      </trkpt>
      <trkpt lat="43.72529" lon="5.96454">
        <ele>362</ele>
        <time>2023-06-11T11:55:46Z</time>
      </trkpt>
      <trkpt lat="43.72528" lon="5.96455">
        <ele>362</ele>
        <time>2023-06-11T11:55:47Z</time>
      </trkpt>
      <trkpt lat="43.72526" lon="5.96455">
        <ele>362</ele>
        <time>2023-06-11T11:55:48Z</time>
      </trkpt>
      <trkpt lat="43.72525" lon="5.96456">
        <ele>362.1</ele>
        <time>2023-06-11T11:55:49Z</time>
      </trkpt>
      <trkpt lat="43.72524" lon="5.96457">
        <ele>362</ele>
        <time>2023-06-11T11:55:50Z</time>
      </trkpt>
      <trkpt lat="43.72522" lon="5.96457">
        <ele>362</ele>
        <time>2023-06-11T11:55:51Z</time>
      </trkpt>
      <trkpt lat="43.72521" lon="5.96458">
        <ele>361.9</ele>
        <time>2023-06-11T11:55:52Z</time>
      </trkpt>
      <trkpt lat="43.72519" lon="5.96458">
        <ele>361.9</ele>
        <time>2023-06-11T11:55:53Z</time>
      </trkpt>
      <trkpt lat="43.72518" lon="5.96459">
        <ele>361.9</ele>
        <time>2023-06-11T11:55:54Z</time>
      </trkpt>
      <trkpt lat="43.72516" lon="5.96459">
        <ele>362</ele>
        <time>2023-06-11T11:55:55Z</time>
      </trkpt>
      <trkpt lat="43.72515" lon="5.96459">
        <ele>361.9</ele>
        <time>2023-06-11T11:55:56Z</time>
      </trkpt>
      <trkpt lat="43.72514" lon="5.9646">
        <ele>362</ele>
        <time>2023-06-11T11:55:57Z</time>
      </trkpt>
      <trkpt lat="43.72512" lon="5.9646">
        <ele>362</ele>
        <time>2023-06-11T11:55:58Z</time>
      </trkpt>
      <trkpt lat="43.72511" lon="5.9646">
        <ele>362.1</ele>
        <time>2023-06-11T11:55:59Z</time>
      </trkpt>
      <trkpt lat="43.7251" lon="5.96461">
        <ele>362.1</ele>
        <time>2023-06-11T11:56:00Z</time>
      </trkpt>
      <trkpt lat="43.72508" lon="5.96461">
        <ele>362.1</ele>
        <time>2023-06-11T11:56:01Z</time>
      </trkpt>
      <trkpt lat="43.72507" lon="5.96462">
        <ele>362.1</ele>
        <time>2023-06-11T11:56:02Z</time>
      </trkpt>
      <trkpt lat="43.72505" lon="5.96462">
        <ele>362.1</ele>
        <time>2023-06-11T11:56:03Z</time>
      </trkpt>
      <trkpt lat="43.72504" lon="5.96463">
        <ele>362.1</ele>
        <time>2023-06-11T11:56:04Z</time>
      </trkpt>
      <trkpt lat="43.72503" lon="5.96463">
        <ele>362.2</ele>
        <time>2023-06-11T11:56:05Z</time>
      </trkpt>
      <trkpt lat="43.72502" lon="5.96464">
        <ele>362.2</ele>
        <time>2023-06-11T11:56:06Z</time>
      </trkpt>
      <trkpt lat="43.725" lon="5.96464">
        <ele>362.2</ele>
        <time>2023-06-11T11:56:07Z</time>
      </trkpt>
      <trkpt lat="43.72499" lon="5.96465">
        <ele>362.2</ele>
        <time>2023-06-11T11:56:08Z</time>
      </trkpt>
      <trkpt lat="43.72498" lon="5.96465">
        <ele>362.1</ele>
        <time>2023-06-11T11:56:09Z</time>
      </trkpt>
      <trkpt lat="43.72496" lon="5.96466">
        <ele>362.1</ele>
        <time>2023-06-11T11:56:10Z</time>
      </trkpt>
      <trkpt lat="43.72495" lon="5.96467">
        <ele>362.1</ele>
        <time>2023-06-11T11:56:11Z</time>
      </trkpt>
      <trkpt lat="43.72494" lon="5.96467">
        <ele>362.1</ele>
        <time>2023-06-11T11:56:12Z</time>
      </trkpt>
      <trkpt lat="43.72493" lon="5.96468">
        <ele>362</ele>
        <time>2023-06-11T11:56:13Z</time>
      </trkpt>
      <trkpt lat="43.72491" lon="5.96469">
        <ele>362</ele>
        <time>2023-06-11T11:56:14Z</time>
      </trkpt>
      <trkpt lat="43.7249" lon="5.96469">
        <ele>361.9</ele>
        <time>2023-06-11T11:56:15Z</time>
      </trkpt>
      <trkpt lat="43.72489" lon="5.9647">
        <ele>361.9</ele>
        <time>2023-06-11T11:56:16Z</time>
      </trkpt>
      <trkpt lat="43.72487" lon="5.96471">
        <ele>361.9</ele>
        <time>2023-06-11T11:56:17Z</time>
      </trkpt>
      <trkpt lat="43.72486" lon="5.96471">
        <ele>361.9</ele>
        <time>2023-06-11T11:56:18Z</time>
      </trkpt>
      <trkpt lat="43.72485" lon="5.96472">
        <ele>361.9</ele>
        <time>2023-06-11T11:56:19Z</time>
      </trkpt>
      <trkpt lat="43.72483" lon="5.96472">
        <ele>361.9</ele>
        <time>2023-06-11T11:56:20Z</time>
      </trkpt>
      <trkpt lat="43.72482" lon="5.96473">
        <ele>361.9</ele>
        <time>2023-06-11T11:56:21Z</time>
      </trkpt>
      <trkpt lat="43.72481" lon="5.96474">
        <ele>361.9</ele>
        <time>2023-06-11T11:56:22Z</time>
      </trkpt>
      <trkpt lat="43.72479" lon="5.96474">
        <ele>362</ele>
        <time>2023-06-11T11:56:23Z</time>
      </trkpt>
      <trkpt lat="43.72478" lon="5.96475">
        <ele>362</ele>
        <time>2023-06-11T11:56:24Z</time>
      </trkpt>
      <trkpt lat="43.72477" lon="5.96475">
        <ele>362.1</ele>
        <time>2023-06-11T11:56:25Z</time>
      </trkpt>
      <trkpt lat="43.72475" lon="5.96476">
        <ele>362</ele>
        <time>2023-06-11T11:56:26Z</time>
      </trkpt>
      <trkpt lat="43.72474" lon="5.96476">
        <ele>362</ele>
        <time>2023-06-11T11:56:27Z</time>
      </trkpt>
      <trkpt lat="43.72473" lon="5.96477">
        <ele>362</ele>
        <time>2023-06-11T11:56:28Z</time>
      </trkpt>
      <trkpt lat="43.72471" lon="5.96477">
        <ele>362</ele>
        <time>2023-06-11T11:56:29Z</time>
      </trkpt>
      <trkpt lat="43.7247" lon="5.96478">
        <ele>362</ele>
        <time>2023-06-11T11:56:30Z</time>
      </trkpt>
      <trkpt lat="43.72469" lon="5.96479">
        <ele>361.9</ele>
        <time>2023-06-11T11:56:31Z</time>
      </trkpt>
      <trkpt lat="43.72467" lon="5.96479">
        <ele>362.1</ele>
        <time>2023-06-11T11:56:32Z</time>
      </trkpt>
      <trkpt lat="43.72466" lon="5.96479">
        <ele>362.1</ele>
        <time>2023-06-11T11:56:33Z</time>
      </trkpt>
      <trkpt lat="43.72465" lon="5.9648">
        <ele>362.1</ele>
        <time>2023-06-11T11:56:34Z</time>
      </trkpt>
      <trkpt lat="43.72463" lon="5.9648">
        <ele>362.1</ele>
        <time>2023-06-11T11:56:35Z</time>
      </trkpt>
      <trkpt lat="43.72462" lon="5.96481">
        <ele>362.1</ele>
        <time>2023-06-11T11:56:36Z</time>
      </trkpt>
      <trkpt lat="43.7246" lon="5.96481">
        <ele>362.1</ele>
        <time>2023-06-11T11:56:37Z</time>
      </trkpt>
      <trkpt lat="43.72459" lon="5.96481">
        <ele>362.1</ele>
        <time>2023-06-11T11:56:38Z</time>
      </trkpt>
      <trkpt lat="43.72458" lon="5.96482">
        <ele>362.1</ele>
        <time>2023-06-11T11:56:39Z</time>
      </trkpt>
      <trkpt lat="43.72456" lon="5.96482">
        <ele>362.1</ele>
        <time>2023-06-11T11:56:40Z</time>
      </trkpt>
      <trkpt lat="43.72455" lon="5.96482">
        <ele>362.1</ele>
        <time>2023-06-11T11:56:41Z</time>
      </trkpt>
      <trkpt lat="43.72453" lon="5.96482">
        <ele>362.2</ele>
        <time>2023-06-11T11:56:42Z</time>
      </trkpt>
      <trkpt lat="43.72452" lon="5.96483">
        <ele>362.3</ele>
        <time>2023-06-11T11:56:43Z</time>
      </trkpt>
      <trkpt lat="43.72451" lon="5.96483">
        <ele>362.3</ele>
        <time>2023-06-11T11:56:44Z</time>
      </trkpt>
      <trkpt lat="43.7245" lon="5.96483">
        <ele>362.4</ele>
        <time>2023-06-11T11:56:45Z</time>
      </trkpt>
      <trkpt lat="43.72448" lon="5.96484">
        <ele>362.4</ele>
        <time>2023-06-11T11:56:46Z</time>
      </trkpt>
      <trkpt lat="43.72447" lon="5.96484">
        <ele>362.4</ele>
        <time>2023-06-11T11:56:47Z</time>
      </trkpt>
      <trkpt lat="43.72445" lon="5.96485">
        <ele>362.4</ele>
        <time>2023-06-11T11:56:48Z</time>
      </trkpt>
      <trkpt lat="43.72444" lon="5.96485">
        <ele>362.4</ele>
        <time>2023-06-11T11:56:49Z</time>
      </trkpt>
      <trkpt lat="43.72443" lon="5.96486">
        <ele>362.4</ele>
        <time>2023-06-11T11:56:50Z</time>
      </trkpt>
      <trkpt lat="43.72441" lon="5.96486">
        <ele>362.4</ele>
        <time>2023-06-11T11:56:51Z</time>
      </trkpt>
      <trkpt lat="43.7244" lon="5.96487">
        <ele>362.4</ele>
        <time>2023-06-11T11:56:52Z</time>
      </trkpt>
      <trkpt lat="43.72439" lon="5.96487">
        <ele>362.4</ele>
        <time>2023-06-11T11:56:53Z</time>
      </trkpt>
      <trkpt lat="43.72438" lon="5.96488">
        <ele>362.3</ele>
        <time>2023-06-11T11:56:54Z</time>
      </trkpt>
      <trkpt lat="43.72436" lon="5.96488">
        <ele>362.3</ele>
        <time>2023-06-11T11:56:55Z</time>
      </trkpt>
      <trkpt lat="43.72435" lon="5.96489">
        <ele>362.2</ele>
        <time>2023-06-11T11:56:56Z</time>
      </trkpt>
      <trkpt lat="43.72434" lon="5.9649">
        <ele>362.2</ele>
        <time>2023-06-11T11:56:57Z</time>
      </trkpt>
      <trkpt lat="43.72432" lon="5.9649">
        <ele>362.2</ele>
        <time>2023-06-11T11:56:58Z</time>
      </trkpt>
      <trkpt lat="43.72431" lon="5.96491">
        <ele>362.2</ele>
        <time>2023-06-11T11:56:59Z</time>
      </trkpt>
      <trkpt lat="43.7243" lon="5.96492">
        <ele>362.2</ele>
        <time>2023-06-11T11:57:00Z</time>
      </trkpt>
      <trkpt lat="43.72429" lon="5.96492">
        <ele>362.2</ele>
        <time>2023-06-11T11:57:01Z</time>
      </trkpt>
      <trkpt lat="43.72427" lon="5.96493">
        <ele>362.3</ele>
        <time>2023-06-11T11:57:02Z</time>
      </trkpt>
      <trkpt lat="43.72426" lon="5.96494">
        <ele>362.3</ele>
        <time>2023-06-11T11:57:03Z</time>
      </trkpt>
      <trkpt lat="43.72425" lon="5.96494">
        <ele>362.3</ele>
        <time>2023-06-11T11:57:04Z</time>
      </trkpt>
      <trkpt lat="43.72423" lon="5.96495">
        <ele>362.4</ele>
        <time>2023-06-11T11:57:05Z</time>
      </trkpt>
      <trkpt lat="43.72422" lon="5.96496">
        <ele>362.4</ele>
        <time>2023-06-11T11:57:06Z</time>
      </trkpt>
      <trkpt lat="43.72421" lon="5.96497">
        <ele>362.4</ele>
        <time>2023-06-11T11:57:07Z</time>
      </trkpt>
      <trkpt lat="43.7242" lon="5.96497">
        <ele>362.3</ele>
        <time>2023-06-11T11:57:08Z</time>
      </trkpt>
      <trkpt lat="43.72418" lon="5.96498">
        <ele>362.3</ele>
        <time>2023-06-11T11:57:09Z</time>
      </trkpt>
      <trkpt lat="43.72417" lon="5.96499">
        <ele>362.3</ele>
        <time>2023-06-11T11:57:10Z</time>
      </trkpt>
      <trkpt lat="43.72416" lon="5.96499">
        <ele>362.3</ele>
        <time>2023-06-11T11:57:11Z</time>
      </trkpt>
      <trkpt lat="43.72414" lon="5.965">
        <ele>362.3</ele>
        <time>2023-06-11T11:57:12Z</time>
      </trkpt>
      <trkpt lat="43.72413" lon="5.965">
        <ele>362.2</ele>
        <time>2023-06-11T11:57:13Z</time>
      </trkpt>
      <trkpt lat="43.72412" lon="5.96501">
        <ele>362.2</ele>
        <time>2023-06-11T11:57:14Z</time>
      </trkpt>
      <trkpt lat="43.7241" lon="5.96501">
        <ele>362.2</ele>
        <time>2023-06-11T11:57:15Z</time>
      </trkpt>
      <trkpt lat="43.72409" lon="5.96502">
        <ele>362.2</ele>
        <time>2023-06-11T11:57:16Z</time>
      </trkpt>
      <trkpt lat="43.72408" lon="5.96502">
        <ele>362.1</ele>
        <time>2023-06-11T11:57:17Z</time>
      </trkpt>
      <trkpt lat="43.72406" lon="5.96503">
        <ele>362.1</ele>
        <time>2023-06-11T11:57:18Z</time>
      </trkpt>
      <trkpt lat="43.72405" lon="5.96503">
        <ele>362</ele>
        <time>2023-06-11T11:57:19Z</time>
      </trkpt>
      <trkpt lat="43.72404" lon="5.96504">
        <ele>362</ele>
        <time>2023-06-11T11:57:20Z</time>
      </trkpt>
      <trkpt lat="43.72402" lon="5.96504">
        <ele>362.1</ele>
        <time>2023-06-11T11:57:21Z</time>
      </trkpt>
      <trkpt lat="43.72401" lon="5.96505">
        <ele>362.1</ele>
        <time>2023-06-11T11:57:22Z</time>
      </trkpt>
      <trkpt lat="43.724" lon="5.96505">
        <ele>362.2</ele>
        <time>2023-06-11T11:57:23Z</time>
      </trkpt>
      <trkpt lat="43.72398" lon="5.96505">
        <ele>362.2</ele>
        <time>2023-06-11T11:57:24Z</time>
      </trkpt>
      <trkpt lat="43.72397" lon="5.96506">
        <ele>362.2</ele>
        <time>2023-06-11T11:57:25Z</time>
      </trkpt>
      <trkpt lat="43.72395" lon="5.96506">
        <ele>362.2</ele>
        <time>2023-06-11T11:57:26Z</time>
      </trkpt>
      <trkpt lat="43.72394" lon="5.96506">
        <ele>362.2</ele>
        <time>2023-06-11T11:57:27Z</time>
      </trkpt>
      <trkpt lat="43.72392" lon="5.96507">
        <ele>362.3</ele>
        <time>2023-06-11T11:57:28Z</time>
      </trkpt>
      <trkpt lat="43.72391" lon="5.96507">
        <ele>362.3</ele>
        <time>2023-06-11T11:57:29Z</time>
      </trkpt>
      <trkpt lat="43.7239" lon="5.96507">
        <ele>362.3</ele>
        <time>2023-06-11T11:57:30Z</time>
      </trkpt>
      <trkpt lat="43.72388" lon="5.96507">
        <ele>362.4</ele>
        <time>2023-06-11T11:57:31Z</time>
      </trkpt>
      <trkpt lat="43.72387" lon="5.96508">
        <ele>362.4</ele>
        <time>2023-06-11T11:57:32Z</time>
      </trkpt>
      <trkpt lat="43.72386" lon="5.96508">
        <ele>362.5</ele>
        <time>2023-06-11T11:57:33Z</time>
      </trkpt>
      <trkpt lat="43.72384" lon="5.96508">
        <ele>362.5</ele>
        <time>2023-06-11T11:57:34Z</time>
      </trkpt>
      <trkpt lat="43.72383" lon="5.96509">
        <ele>362.5</ele>
        <time>2023-06-11T11:57:35Z</time>
      </trkpt>
      <trkpt lat="43.72381" lon="5.96509">
        <ele>362.5</ele>
        <time>2023-06-11T11:57:36Z</time>
      </trkpt>
      <trkpt lat="43.7238" lon="5.96509">
        <ele>362.5</ele>
        <time>2023-06-11T11:57:37Z</time>
      </trkpt>
      <trkpt lat="43.72379" lon="5.96509">
        <ele>362.5</ele>
        <time>2023-06-11T11:57:38Z</time>
      </trkpt>
      <trkpt lat="43.72377" lon="5.9651">
        <ele>362.6</ele>
        <time>2023-06-11T11:57:39Z</time>
      </trkpt>
      <trkpt lat="43.72376" lon="5.9651">
        <ele>362.7</ele>
        <time>2023-06-11T11:57:40Z</time>
      </trkpt>
      <trkpt lat="43.72375" lon="5.9651">
        <ele>362.7</ele>
        <time>2023-06-11T11:57:41Z</time>
      </trkpt>
      <trkpt lat="43.72373" lon="5.96511">
        <ele>362.8</ele>
        <time>2023-06-11T11:57:42Z</time>
      </trkpt>
      <trkpt lat="43.72372" lon="5.96511">
        <ele>362.8</ele>
        <time>2023-06-11T11:57:43Z</time>
      </trkpt>
      <trkpt lat="43.72371" lon="5.96512">
        <ele>362.9</ele>
        <time>2023-06-11T11:57:44Z</time>
      </trkpt>
      <trkpt lat="43.7237" lon="5.96512">
        <ele>363</ele>
        <time>2023-06-11T11:57:45Z</time>
      </trkpt>
      <trkpt lat="43.72368" lon="5.96513">
        <ele>363</ele>
        <time>2023-06-11T11:57:46Z</time>
      </trkpt>
      <trkpt lat="43.72367" lon="5.96513">
        <ele>363</ele>
        <time>2023-06-11T11:57:47Z</time>
      </trkpt>
      <trkpt lat="43.72366" lon="5.96514">
        <ele>362.9</ele>
        <time>2023-06-11T11:57:48Z</time>
      </trkpt>
      <trkpt lat="43.72365" lon="5.96514">
        <ele>362.9</ele>
        <time>2023-06-11T11:57:49Z</time>
      </trkpt>
      <trkpt lat="43.72363" lon="5.96515">
        <ele>362.9</ele>
        <time>2023-06-11T11:57:50Z</time>
      </trkpt>
      <trkpt lat="43.72362" lon="5.96516">
        <ele>362.9</ele>
        <time>2023-06-11T11:57:51Z</time>
      </trkpt>
      <trkpt lat="43.72361" lon="5.96516">
        <ele>362.9</ele>
        <time>2023-06-11T11:57:52Z</time>
      </trkpt>
      <trkpt lat="43.72359" lon="5.96517">
        <ele>362.9</ele>
        <time>2023-06-11T11:57:53Z</time>
      </trkpt>
      <trkpt lat="43.72358" lon="5.96518">
        <ele>362.9</ele>
        <time>2023-06-11T11:57:54Z</time>
      </trkpt>
      <trkpt lat="43.72357" lon="5.96518">
        <ele>362.9</ele>
        <time>2023-06-11T11:57:55Z</time>
      </trkpt>
      <trkpt lat="43.72356" lon="5.96519">
        <ele>362.9</ele>
        <time>2023-06-11T11:57:56Z</time>
      </trkpt>
      <trkpt lat="43.72354" lon="5.96519">
        <ele>362.9</ele>
        <time>2023-06-11T11:57:57Z</time>
      </trkpt>
      <trkpt lat="43.72353" lon="5.9652">
        <ele>362.8</ele>
        <time>2023-06-11T11:57:58Z</time>
      </trkpt>
      <trkpt lat="43.72352" lon="5.96521">
        <ele>362.8</ele>
        <time>2023-06-11T11:57:59Z</time>
      </trkpt>
      <trkpt lat="43.72351" lon="5.96521">
        <ele>362.8</ele>
        <time>2023-06-11T11:58:00Z</time>
      </trkpt>
      <trkpt lat="43.7235" lon="5.96522">
        <ele>362.7</ele>
        <time>2023-06-11T11:58:01Z</time>
      </trkpt>
      <trkpt lat="43.72348" lon="5.96522">
        <ele>362.7</ele>
        <time>2023-06-11T11:58:02Z</time>
      </trkpt>
      <trkpt lat="43.72347" lon="5.96523">
        <ele>362.7</ele>
        <time>2023-06-11T11:58:03Z</time>
      </trkpt>
      <trkpt lat="43.72346" lon="5.96523">
        <ele>362.7</ele>
        <time>2023-06-11T11:58:04Z</time>
      </trkpt>
      <trkpt lat="43.72345" lon="5.96524">
        <ele>362.6</ele>
        <time>2023-06-11T11:58:05Z</time>
      </trkpt>
      <trkpt lat="43.72343" lon="5.96525">
        <ele>362.6</ele>
        <time>2023-06-11T11:58:06Z</time>
      </trkpt>
      <trkpt lat="43.72342" lon="5.96525">
        <ele>362.6</ele>
        <time>2023-06-11T11:58:07Z</time>
      </trkpt>
      <trkpt lat="43.72341" lon="5.96526">
        <ele>362.7</ele>
        <time>2023-06-11T11:58:08Z</time>
      </trkpt>
      <trkpt lat="43.7234" lon="5.96526">
        <ele>362.7</ele>
        <time>2023-06-11T11:58:09Z</time>
      </trkpt>
      <trkpt lat="43.72338" lon="5.96527">
        <ele>362.7</ele>
        <time>2023-06-11T11:58:10Z</time>
      </trkpt>
      <trkpt lat="43.72337" lon="5.96527">
        <ele>362.7</ele>
        <time>2023-06-11T11:58:11Z</time>
      </trkpt>
      <trkpt lat="43.72336" lon="5.96528">
        <ele>362.7</ele>
        <time>2023-06-11T11:58:12Z</time>
      </trkpt>
      <trkpt lat="43.72335" lon="5.96529">
        <ele>362.8</ele>
        <time>2023-06-11T11:58:13Z</time>
      </trkpt>
      <trkpt lat="43.72333" lon="5.96529">
        <ele>362.8</ele>
        <time>2023-06-11T11:58:14Z</time>
      </trkpt>
      <trkpt lat="43.72332" lon="5.9653">
        <ele>362.9</ele>
        <time>2023-06-11T11:58:15Z</time>
      </trkpt>
      <trkpt lat="43.72331" lon="5.9653">
        <ele>362.8</ele>
        <time>2023-06-11T11:58:16Z</time>
      </trkpt>
      <trkpt lat="43.7233" lon="5.96531">
        <ele>362.8</ele>
        <time>2023-06-11T11:58:17Z</time>
      </trkpt>
      <trkpt lat="43.72329" lon="5.96531">
        <ele>362.7</ele>
        <time>2023-06-11T11:58:18Z</time>
      </trkpt>
      <trkpt lat="43.72327" lon="5.96532">
        <ele>362.7</ele>
        <time>2023-06-11T11:58:19Z</time>
      </trkpt>
      <trkpt lat="43.72326" lon="5.96532">
        <ele>362.7</ele>
        <time>2023-06-11T11:58:20Z</time>
      </trkpt>
      <trkpt lat="43.72325" lon="5.96533">
        <ele>362.8</ele>
        <time>2023-06-11T11:58:21Z</time>
      </trkpt>
      <trkpt lat="43.72324" lon="5.96533">
        <ele>362.8</ele>
        <time>2023-06-11T11:58:22Z</time>
      </trkpt>
      <trkpt lat="43.72322" lon="5.96534">
        <ele>362.8</ele>
        <time>2023-06-11T11:58:23Z</time>
      </trkpt>
      <trkpt lat="43.72321" lon="5.96534">
        <ele>362.8</ele>
        <time>2023-06-11T11:58:24Z</time>
      </trkpt>
      <trkpt lat="43.7232" lon="5.96535">
        <ele>362.8</ele>
        <time>2023-06-11T11:58:25Z</time>
      </trkpt>
      <trkpt lat="43.72318" lon="5.96535">
        <ele>362.8</ele>
        <time>2023-06-11T11:58:26Z</time>
      </trkpt>
      <trkpt lat="43.72317" lon="5.96536">
        <ele>362.8</ele>
        <time>2023-06-11T11:58:27Z</time>
      </trkpt>
      <trkpt lat="43.72316" lon="5.96536">
        <ele>362.7</ele>
        <time>2023-06-11T11:58:28Z</time>
      </trkpt>
      <trkpt lat="43.72315" lon="5.96537">
        <ele>362.7</ele>
        <time>2023-06-11T11:58:29Z</time>
      </trkpt>
      <trkpt lat="43.72313" lon="5.96537">
        <ele>362.7</ele>
        <time>2023-06-11T11:58:30Z</time>
      </trkpt>
      <trkpt lat="43.72312" lon="5.96538">
        <ele>362.7</ele>
        <time>2023-06-11T11:58:31Z</time>
      </trkpt>
      <trkpt lat="43.72311" lon="5.96538">
        <ele>362.7</ele>
        <time>2023-06-11T11:58:32Z</time>
      </trkpt>
      <trkpt lat="43.72309" lon="5.96538">
        <ele>362.8</ele>
        <time>2023-06-11T11:58:33Z</time>
      </trkpt>
      <trkpt lat="43.72308" lon="5.96539">
        <ele>362.9</ele>
        <time>2023-06-11T11:58:34Z</time>
      </trkpt>
      <trkpt lat="43.72307" lon="5.96539">
        <ele>362.9</ele>
        <time>2023-06-11T11:58:35Z</time>
      </trkpt>
      <trkpt lat="43.72305" lon="5.9654">
        <ele>362.9</ele>
        <time>2023-06-11T11:58:36Z</time>
      </trkpt>
      <trkpt lat="43.72304" lon="5.9654">
        <ele>362.9</ele>
        <time>2023-06-11T11:58:37Z</time>
      </trkpt>
      <trkpt lat="43.72303" lon="5.96541">
        <ele>362.9</ele>
        <time>2023-06-11T11:58:38Z</time>
      </trkpt>
      <trkpt lat="43.72302" lon="5.96541">
        <ele>362.9</ele>
        <time>2023-06-11T11:58:39Z</time>
      </trkpt>
      <trkpt lat="43.723" lon="5.96542">
        <ele>362.9</ele>
        <time>2023-06-11T11:58:40Z</time>
      </trkpt>
      <trkpt lat="43.72299" lon="5.96543">
        <ele>362.9</ele>
        <time>2023-06-11T11:58:41Z</time>
      </trkpt>
      <trkpt lat="43.72298" lon="5.96543">
        <ele>362.8</ele>
        <time>2023-06-11T11:58:42Z</time>
      </trkpt>
      <trkpt lat="43.72296" lon="5.96544">
        <ele>362.8</ele>
        <time>2023-06-11T11:58:43Z</time>
      </trkpt>
      <trkpt lat="43.72295" lon="5.96545">
        <ele>362.7</ele>
        <time>2023-06-11T11:58:44Z</time>
      </trkpt>
      <trkpt lat="43.72294" lon="5.96545">
        <ele>362.7</ele>
        <time>2023-06-11T11:58:45Z</time>
      </trkpt>
      <trkpt lat="43.72293" lon="5.96546">
        <ele>362.7</ele>
        <time>2023-06-11T11:58:46Z</time>
      </trkpt>
      <trkpt lat="43.72291" lon="5.96547">
        <ele>362.7</ele>
        <time>2023-06-11T11:58:47Z</time>
      </trkpt>
      <trkpt lat="43.7229" lon="5.96548">
        <ele>362.7</ele>
        <time>2023-06-11T11:58:48Z</time>
      </trkpt>
      <trkpt lat="43.72289" lon="5.96549">
        <ele>362.6</ele>
        <time>2023-06-11T11:58:49Z</time>
      </trkpt>
      <trkpt lat="43.72287" lon="5.9655">
        <ele>362.6</ele>
        <time>2023-06-11T11:58:50Z</time>
      </trkpt>
      <trkpt lat="43.72286" lon="5.9655">
        <ele>362.6</ele>
        <time>2023-06-11T11:58:51Z</time>
      </trkpt>
      <trkpt lat="43.72285" lon="5.96551">
        <ele>362.7</ele>
        <time>2023-06-11T11:58:52Z</time>
      </trkpt>
      <trkpt lat="43.72284" lon="5.96552">
        <ele>362.7</ele>
        <time>2023-06-11T11:58:53Z</time>
      </trkpt>
      <trkpt lat="43.72282" lon="5.96552">
        <ele>362.8</ele>
        <time>2023-06-11T11:58:54Z</time>
      </trkpt>
      <trkpt lat="43.72281" lon="5.96553">
        <ele>362.8</ele>
        <time>2023-06-11T11:58:55Z</time>
      </trkpt>
      <trkpt lat="43.72279" lon="5.96554">
        <ele>362.8</ele>
        <time>2023-06-11T11:58:56Z</time>
      </trkpt>
      <trkpt lat="43.72278" lon="5.96554">
        <ele>362.8</ele>
        <time>2023-06-11T11:58:57Z</time>
      </trkpt>
      <trkpt lat="43.72277" lon="5.96555">
        <ele>362.8</ele>
        <time>2023-06-11T11:58:58Z</time>
      </trkpt>
      <trkpt lat="43.72275" lon="5.96556">
        <ele>362.8</ele>
        <time>2023-06-11T11:58:59Z</time>
      </trkpt>
      <trkpt lat="43.72274" lon="5.96556">
        <ele>362.8</ele>
        <time>2023-06-11T11:59:00Z</time>
      </trkpt>
      <trkpt lat="43.72273" lon="5.96556">
        <ele>362.8</ele>
        <time>2023-06-11T11:59:01Z</time>
      </trkpt>
      <trkpt lat="43.72271" lon="5.96557">
        <ele>362.8</ele>
        <time>2023-06-11T11:59:02Z</time>
      </trkpt>
      <trkpt lat="43.7227" lon="5.96557">
        <ele>362.8</ele>
        <time>2023-06-11T11:59:03Z</time>
      </trkpt>
      <trkpt lat="43.72268" lon="5.96558">
        <ele>362.8</ele>
        <time>2023-06-11T11:59:04Z</time>
      </trkpt>
      <trkpt lat="43.72267" lon="5.96558">
        <ele>362.8</ele>
        <time>2023-06-11T11:59:05Z</time>
      </trkpt>
      <trkpt lat="43.72266" lon="5.96559">
        <ele>362.8</ele>
        <time>2023-06-11T11:59:06Z</time>
      </trkpt>
      <trkpt lat="43.72264" lon="5.96559">
        <ele>362.7</ele>
        <time>2023-06-11T11:59:07Z</time>
      </trkpt>
      <trkpt lat="43.72263" lon="5.9656">
        <ele>362.7</ele>
        <time>2023-06-11T11:59:08Z</time>
      </trkpt>
      <trkpt lat="43.72262" lon="5.96561">
        <ele>362.8</ele>
        <time>2023-06-11T11:59:09Z</time>
      </trkpt>
      <trkpt lat="43.7226" lon="5.96561">
        <ele>362.8</ele>
        <time>2023-06-11T11:59:10Z</time>
      </trkpt>
      <trkpt lat="43.72259" lon="5.96562">
        <ele>362.9</ele>
        <time>2023-06-11T11:59:11Z</time>
      </trkpt>
      <trkpt lat="43.72258" lon="5.96563">
        <ele>362.9</ele>
        <time>2023-06-11T11:59:12Z</time>
      </trkpt>
      <trkpt lat="43.72256" lon="5.96563">
        <ele>363</ele>
        <time>2023-06-11T11:59:13Z</time>
      </trkpt>
      <trkpt lat="43.72255" lon="5.96564">
        <ele>363</ele>
        <time>2023-06-11T11:59:14Z</time>
      </trkpt>
      <trkpt lat="43.72254" lon="5.96565">
        <ele>362.9</ele>
        <time>2023-06-11T11:59:15Z</time>
      </trkpt>
      <trkpt lat="43.72252" lon="5.96566">
        <ele>362.9</ele>
        <time>2023-06-11T11:59:16Z</time>
      </trkpt>
      <trkpt lat="43.72251" lon="5.96566">
        <ele>362.9</ele>
        <time>2023-06-11T11:59:17Z</time>
      </trkpt>
      <trkpt lat="43.7225" lon="5.96567">
        <ele>362.9</ele>
        <time>2023-06-11T11:59:18Z</time>
      </trkpt>
      <trkpt lat="43.72248" lon="5.96568">
        <ele>362.9</ele>
        <time>2023-06-11T11:59:19Z</time>
      </trkpt>
      <trkpt lat="43.72247" lon="5.96569">
        <ele>363</ele>
        <time>2023-06-11T11:59:20Z</time>
      </trkpt>
      <trkpt lat="43.72246" lon="5.96569">
        <ele>363</ele>
        <time>2023-06-11T11:59:21Z</time>
      </trkpt>
      <trkpt lat="43.72244" lon="5.9657">
        <ele>363</ele>
        <time>2023-06-11T11:59:22Z</time>
      </trkpt>
      <trkpt lat="43.72243" lon="5.96571">
        <ele>363</ele>
        <time>2023-06-11T11:59:23Z</time>
      </trkpt>
      <trkpt lat="43.72242" lon="5.96571">
        <ele>363</ele>
        <time>2023-06-11T11:59:24Z</time>
      </trkpt>
      <trkpt lat="43.7224" lon="5.96572">
        <ele>363</ele>
        <time>2023-06-11T11:59:25Z</time>
      </trkpt>
      <trkpt lat="43.72239" lon="5.96573">
        <ele>362.9</ele>
        <time>2023-06-11T11:59:26Z</time>
      </trkpt>
      <trkpt lat="43.72238" lon="5.96573">
        <ele>362.8</ele>
        <time>2023-06-11T11:59:27Z</time>
      </trkpt>
      <trkpt lat="43.72236" lon="5.96574">
        <ele>362.8</ele>
        <time>2023-06-11T11:59:28Z</time>
      </trkpt>
      <trkpt lat="43.72235" lon="5.96574">
        <ele>362.8</ele>
        <time>2023-06-11T11:59:29Z</time>
      </trkpt>
      <trkpt lat="43.72234" lon="5.96575">
        <ele>362.8</ele>
        <time>2023-06-11T11:59:30Z</time>
      </trkpt>
      <trkpt lat="43.72232" lon="5.96575">
        <ele>362.8</ele>
        <time>2023-06-11T11:59:31Z</time>
      </trkpt>
      <trkpt lat="43.72231" lon="5.96575">
        <ele>362.7</ele>
        <time>2023-06-11T11:59:32Z</time>
      </trkpt>
      <trkpt lat="43.72229" lon="5.96576">
        <ele>362.8</ele>
        <time>2023-06-11T11:59:33Z</time>
      </trkpt>
      <trkpt lat="43.72228" lon="5.96576">
        <ele>362.8</ele>
        <time>2023-06-11T11:59:34Z</time>
      </trkpt>
      <trkpt lat="43.72226" lon="5.96576">
        <ele>362.9</ele>
        <time>2023-06-11T11:59:35Z</time>
      </trkpt>
      <trkpt lat="43.72225" lon="5.96577">
        <ele>362.9</ele>
        <time>2023-06-11T11:59:36Z</time>
      </trkpt>
      <trkpt lat="43.72224" lon="5.96577">
        <ele>362.9</ele>
        <time>2023-06-11T11:59:37Z</time>
      </trkpt>
      <trkpt lat="43.72222" lon="5.96578">
        <ele>362.9</ele>
        <time>2023-06-11T11:59:38Z</time>
      </trkpt>
      <trkpt lat="43.72221" lon="5.96578">
        <ele>362.9</ele>
        <time>2023-06-11T11:59:39Z</time>
      </trkpt>
      <trkpt lat="43.72219" lon="5.96578">
        <ele>362.9</ele>
        <time>2023-06-11T11:59:40Z</time>
      </trkpt>
      <trkpt lat="43.72218" lon="5.96579">
        <ele>362.9</ele>
        <time>2023-06-11T11:59:41Z</time>
      </trkpt>
      <trkpt lat="43.72217" lon="5.96579">
        <ele>362.8</ele>
        <time>2023-06-11T11:59:42Z</time>
      </trkpt>
      <trkpt lat="43.72215" lon="5.9658">
        <ele>362.8</ele>
        <time>2023-06-11T11:59:43Z</time>
      </trkpt>
      <trkpt lat="43.72214" lon="5.96581">
        <ele>362.8</ele>
        <time>2023-06-11T11:59:44Z</time>
      </trkpt>
      <trkpt lat="43.72213" lon="5.96581">
        <ele>362.8</ele>
        <time>2023-06-11T11:59:45Z</time>
      </trkpt>
      <trkpt lat="43.72211" lon="5.96582">
        <ele>362.8</ele>
        <time>2023-06-11T11:59:46Z</time>
      </trkpt>
      <trkpt lat="43.7221" lon="5.96583">
        <ele>362.8</ele>
        <time>2023-06-11T11:59:47Z</time>
      </trkpt>
      <trkpt lat="43.72209" lon="5.96584">
        <ele>362.9</ele>
        <time>2023-06-11T11:59:48Z</time>
      </trkpt>
      <trkpt lat="43.72207" lon="5.96584">
        <ele>362.9</ele>
        <time>2023-06-11T11:59:49Z</time>
      </trkpt>
      <trkpt lat="43.72206" lon="5.96585">
        <ele>363</ele>
        <time>2023-06-11T11:59:50Z</time>
      </trkpt>
      <trkpt lat="43.72205" lon="5.96586">
        <ele>363</ele>
        <time>2023-06-11T11:59:51Z</time>
      </trkpt>
      <trkpt lat="43.72203" lon="5.96587">
        <ele>363</ele>
        <time>2023-06-11T11:59:52Z</time>
      </trkpt>
      <trkpt lat="43.72202" lon="5.96588">
        <ele>363</ele>
        <time>2023-06-11T11:59:53Z</time>
      </trkpt>
      <trkpt lat="43.72201" lon="5.96589">
        <ele>363</ele>
        <time>2023-06-11T11:59:54Z</time>
      </trkpt>
      <trkpt lat="43.72199" lon="5.9659">
        <ele>363</ele>
        <time>2023-06-11T11:59:55Z</time>
      </trkpt>
      <trkpt lat="43.72198" lon="5.96591">
        <ele>363</ele>
        <time>2023-06-11T11:59:56Z</time>
      </trkpt>
      <trkpt lat="43.72197" lon="5.96592">
        <ele>362.9</ele>
        <time>2023-06-11T11:59:57Z</time>
      </trkpt>
      <trkpt lat="43.72196" lon="5.96593">
        <ele>362.9</ele>
        <time>2023-06-11T11:59:58Z</time>
      </trkpt>
      <trkpt lat="43.72194" lon="5.96594">
        <ele>362.8</ele>
        <time>2023-06-11T11:59:59Z</time>
      </trkpt>
      <trkpt lat="43.72193" lon="5.96595">
        <ele>362.8</ele>
        <time>2023-06-11T12:00:00Z</time>
      </trkpt>
      <trkpt lat="43.72192" lon="5.96596">
        <ele>362.7</ele>
        <time>2023-06-11T12:00:01Z</time>
      </trkpt>
      <trkpt lat="43.72191" lon="5.96597">
        <ele>362.7</ele>
        <time>2023-06-11T12:00:02Z</time>
      </trkpt>
      <trkpt lat="43.72189" lon="5.96597">
        <ele>362.7</ele>
        <time>2023-06-11T12:00:03Z</time>
      </trkpt>
      <trkpt lat="43.72188" lon="5.96599">
        <ele>362.8</ele>
        <time>2023-06-11T12:00:04Z</time>
      </trkpt>
      <trkpt lat="43.72187" lon="5.96599">
        <ele>362.8</ele>
        <time>2023-06-11T12:00:05Z</time>
      </trkpt>
      <trkpt lat="43.72186" lon="5.96601">
        <ele>362.8</ele>
        <time>2023-06-11T12:00:06Z</time>
      </trkpt>
      <trkpt lat="43.72185" lon="5.96602">
        <ele>362.8</ele>
        <time>2023-06-11T12:00:07Z</time>
      </trkpt>
      <trkpt lat="43.72183" lon="5.96603">
        <ele>362.8</ele>
        <time>2023-06-11T12:00:08Z</time>
      </trkpt>
      <trkpt lat="43.72182" lon="5.96604">
        <ele>362.8</ele>
        <time>2023-06-11T12:00:09Z</time>
      </trkpt>
      <trkpt lat="43.72181" lon="5.96605">
        <ele>362.8</ele>
        <time>2023-06-11T12:00:10Z</time>
      </trkpt>
      <trkpt lat="43.7218" lon="5.96606">
        <ele>362.8</ele>
        <time>2023-06-11T12:00:11Z</time>
      </trkpt>
      <trkpt lat="43.72179" lon="5.96607">
        <ele>362.9</ele>
        <time>2023-06-11T12:00:12Z</time>
      </trkpt>
      <trkpt lat="43.72178" lon="5.96608">
        <ele>362.9</ele>
        <time>2023-06-11T12:00:13Z</time>
      </trkpt>
      <trkpt lat="43.72177" lon="5.96609">
        <ele>362.9</ele>
        <time>2023-06-11T12:00:14Z</time>
      </trkpt>
      <trkpt lat="43.72176" lon="5.9661">
        <ele>362.9</ele>
        <time>2023-06-11T12:00:15Z</time>
      </trkpt>
      <trkpt lat="43.72174" lon="5.96611">
        <ele>362.9</ele>
        <time>2023-06-11T12:00:16Z</time>
      </trkpt>
      <trkpt lat="43.72173" lon="5.96612">
        <ele>362.9</ele>
        <time>2023-06-11T12:00:17Z</time>
      </trkpt>
      <trkpt lat="43.72172" lon="5.96614">
        <ele>363</ele>
        <time>2023-06-11T12:00:18Z</time>
      </trkpt>
      <trkpt lat="43.72171" lon="5.96615">
        <ele>362.9</ele>
        <time>2023-06-11T12:00:19Z</time>
      </trkpt>
      <trkpt lat="43.7217" lon="5.96616">
        <ele>362.9</ele>
        <time>2023-06-11T12:00:20Z</time>
      </trkpt>
      <trkpt lat="43.72169" lon="5.96617">
        <ele>363</ele>
        <time>2023-06-11T12:00:21Z</time>
      </trkpt>
      <trkpt lat="43.72167" lon="5.96618">
        <ele>363</ele>
        <time>2023-06-11T12:00:22Z</time>
      </trkpt>
      <trkpt lat="43.72166" lon="5.96619">
        <ele>363</ele>
        <time>2023-06-11T12:00:23Z</time>
      </trkpt>
      <trkpt lat="43.72165" lon="5.9662">
        <ele>363</ele>
        <time>2023-06-11T12:00:24Z</time>
      </trkpt>
      <trkpt lat="43.72164" lon="5.96621">
        <ele>363</ele>
        <time>2023-06-11T12:00:25Z</time>
      </trkpt>
      <trkpt lat="43.72163" lon="5.96623">
        <ele>363</ele>
        <time>2023-06-11T12:00:26Z</time>
      </trkpt>
      <trkpt lat="43.72162" lon="5.96624">
        <ele>363</ele>
        <time>2023-06-11T12:00:27Z</time>
      </trkpt>
      <trkpt lat="43.72161" lon="5.96625">
        <ele>363</ele>
        <time>2023-06-11T12:00:28Z</time>
      </trkpt>
      <trkpt lat="43.7216" lon="5.96626">
        <ele>363</ele>
        <time>2023-06-11T12:00:29Z</time>
      </trkpt>
      <trkpt lat="43.72158" lon="5.96628">
        <ele>363</ele>
        <time>2023-06-11T12:00:30Z</time>
      </trkpt>
      <trkpt lat="43.72157" lon="5.96629">
        <ele>363.1</ele>
        <time>2023-06-11T12:00:31Z</time>
      </trkpt>
      <trkpt lat="43.72156" lon="5.9663">
        <ele>363.1</ele>
        <time>2023-06-11T12:00:32Z</time>
      </trkpt>
      <trkpt lat="43.72155" lon="5.96632">
        <ele>363.2</ele>
        <time>2023-06-11T12:00:33Z</time>
      </trkpt>
      <trkpt lat="43.72154" lon="5.96633">
        <ele>363.2</ele>
        <time>2023-06-11T12:00:34Z</time>
      </trkpt>
      <trkpt lat="43.72153" lon="5.96634">
        <ele>363.2</ele>
        <time>2023-06-11T12:00:35Z</time>
      </trkpt>
      <trkpt lat="43.72152" lon="5.96635">
        <ele>363.2</ele>
        <time>2023-06-11T12:00:36Z</time>
      </trkpt>
      <trkpt lat="43.72151" lon="5.96637">
        <ele>363.2</ele>
        <time>2023-06-11T12:00:37Z</time>
      </trkpt>
      <trkpt lat="43.7215" lon="5.96638">
        <ele>363.1</ele>
        <time>2023-06-11T12:00:38Z</time>
      </trkpt>
      <trkpt lat="43.72149" lon="5.96639">
        <ele>363.1</ele>
        <time>2023-06-11T12:00:39Z</time>
      </trkpt>
      <trkpt lat="43.72148" lon="5.96641">
        <ele>363.1</ele>
        <time>2023-06-11T12:00:40Z</time>
      </trkpt>
      <trkpt lat="43.72147" lon="5.96642">
        <ele>363.1</ele>
        <time>2023-06-11T12:00:41Z</time>
      </trkpt>
      <trkpt lat="43.72146" lon="5.96643">
        <ele>363.1</ele>
        <time>2023-06-11T12:00:42Z</time>
      </trkpt>
      <trkpt lat="43.72145" lon="5.96645">
        <ele>363.1</ele>
        <time>2023-06-11T12:00:43Z</time>
      </trkpt>
      <trkpt lat="43.72144" lon="5.96646">
        <ele>363.1</ele>
        <time>2023-06-11T12:00:44Z</time>
      </trkpt>
      <trkpt lat="43.72143" lon="5.96647">
        <ele>363.1</ele>
        <time>2023-06-11T12:00:45Z</time>
      </trkpt>
      <trkpt lat="43.72142" lon="5.96649">
        <ele>363.1</ele>
        <time>2023-06-11T12:00:46Z</time>
      </trkpt>
      <trkpt lat="43.7214" lon="5.9665">
        <ele>363.1</ele>
        <time>2023-06-11T12:00:47Z</time>
      </trkpt>
      <trkpt lat="43.72139" lon="5.96652">
        <ele>363</ele>
        <time>2023-06-11T12:00:48Z</time>
      </trkpt>
      <trkpt lat="43.72138" lon="5.96653">
        <ele>363</ele>
        <time>2023-06-11T12:00:49Z</time>
      </trkpt>
      <trkpt lat="43.72137" lon="5.96654">
        <ele>362.9</ele>
        <time>2023-06-11T12:00:50Z</time>
      </trkpt>
      <trkpt lat="43.72136" lon="5.96656">
        <ele>362.9</ele>
        <time>2023-06-11T12:00:51Z</time>
      </trkpt>
      <trkpt lat="43.72135" lon="5.96657">
        <ele>362.9</ele>
        <time>2023-06-11T12:00:52Z</time>
      </trkpt>
      <trkpt lat="43.72134" lon="5.96658">
        <ele>362.9</ele>
        <time>2023-06-11T12:00:53Z</time>
      </trkpt>
      <trkpt lat="43.72134" lon="5.9666">
        <ele>362.8</ele>
        <time>2023-06-11T12:00:54Z</time>
      </trkpt>
      <trkpt lat="43.72133" lon="5.96661">
        <ele>362.7</ele>
        <time>2023-06-11T12:00:55Z</time>
      </trkpt>
      <trkpt lat="43.72132" lon="5.96662">
        <ele>362.8</ele>
        <time>2023-06-11T12:00:56Z</time>
      </trkpt>
      <trkpt lat="43.72131" lon="5.96664">
        <ele>362.7</ele>
        <time>2023-06-11T12:00:57Z</time>
      </trkpt>
      <trkpt lat="43.7213" lon="5.96665">
        <ele>362.7</ele>
        <time>2023-06-11T12:00:58Z</time>
      </trkpt>
      <trkpt lat="43.7213" lon="5.96667">
        <ele>362.7</ele>
        <time>2023-06-11T12:00:59Z</time>
      </trkpt>
      <trkpt lat="43.72129" lon="5.96668">
        <ele>362.7</ele>
        <time>2023-06-11T12:01:00Z</time>
      </trkpt>
      <trkpt lat="43.72128" lon="5.9667">
        <ele>362.7</ele>
        <time>2023-06-11T12:01:01Z</time>
      </trkpt>
      <trkpt lat="43.72127" lon="5.96671">
        <ele>362.7</ele>
        <time>2023-06-11T12:01:02Z</time>
      </trkpt>
      <trkpt lat="43.72126" lon="5.96672">
        <ele>362.8</ele>
        <time>2023-06-11T12:01:03Z</time>
      </trkpt>
      <trkpt lat="43.72125" lon="5.96674">
        <ele>362.8</ele>
        <time>2023-06-11T12:01:04Z</time>
      </trkpt>
      <trkpt lat="43.72125" lon="5.96675">
        <ele>362.9</ele>
        <time>2023-06-11T12:01:05Z</time>
      </trkpt>
      <trkpt lat="43.72124" lon="5.96677">
        <ele>363</ele>
        <time>2023-06-11T12:01:06Z</time>
      </trkpt>
      <trkpt lat="43.72123" lon="5.96678">
        <ele>363</ele>
        <time>2023-06-11T12:01:07Z</time>
      </trkpt>
      <trkpt lat="43.72122" lon="5.9668">
        <ele>363</ele>
        <time>2023-06-11T12:01:08Z</time>
      </trkpt>
      <trkpt lat="43.7212" lon="5.96681">
        <ele>363.1</ele>
        <time>2023-06-11T12:01:09Z</time>
      </trkpt>
      <trkpt lat="43.72119" lon="5.96682">
        <ele>363.2</ele>
        <time>2023-06-11T12:01:10Z</time>
      </trkpt>
      <trkpt lat="43.72118" lon="5.96683">
        <ele>363.4</ele>
        <time>2023-06-11T12:01:11Z</time>
      </trkpt>
      <trkpt lat="43.72117" lon="5.96684">
        <ele>363.5</ele>
        <time>2023-06-11T12:01:12Z</time>
      </trkpt>
      <trkpt lat="43.72116" lon="5.96685">
        <ele>363.6</ele>
        <time>2023-06-11T12:01:13Z</time>
      </trkpt>
      <trkpt lat="43.72115" lon="5.96686">
        <ele>363.6</ele>
        <time>2023-06-11T12:01:14Z</time>
      </trkpt>
      <trkpt lat="43.72114" lon="5.96687">
        <ele>363.7</ele>
        <time>2023-06-11T12:01:15Z</time>
      </trkpt>
      <trkpt lat="43.72112" lon="5.96688">
        <ele>363.7</ele>
        <time>2023-06-11T12:01:16Z</time>
      </trkpt>
      <trkpt lat="43.72111" lon="5.96688">
        <ele>363.8</ele>
        <time>2023-06-11T12:01:17Z</time>
      </trkpt>
      <trkpt lat="43.7211" lon="5.96689">
        <ele>363.8</ele>
        <time>2023-06-11T12:01:18Z</time>
      </trkpt>
      <trkpt lat="43.72108" lon="5.96689">
        <ele>363.8</ele>
        <time>2023-06-11T12:01:19Z</time>
      </trkpt>
      <trkpt lat="43.72107" lon="5.9669">
        <ele>363.8</ele>
        <time>2023-06-11T12:01:20Z</time>
      </trkpt>
      <trkpt lat="43.72106" lon="5.9669">
        <ele>363.8</ele>
        <time>2023-06-11T12:01:21Z</time>
      </trkpt>
      <trkpt lat="43.72105" lon="5.96691">
        <ele>363.8</ele>
        <time>2023-06-11T12:01:22Z</time>
      </trkpt>
      <trkpt lat="43.72104" lon="5.96691">
        <ele>363.8</ele>
        <time>2023-06-11T12:01:23Z</time>
      </trkpt>
      <trkpt lat="43.72102" lon="5.96692">
        <ele>363.8</ele>
        <time>2023-06-11T12:01:24Z</time>
      </trkpt>
      <trkpt lat="43.72101" lon="5.96693">
        <ele>363.8</ele>
        <time>2023-06-11T12:01:25Z</time>
      </trkpt>
      <trkpt lat="43.721" lon="5.96694">
        <ele>363.8</ele>
        <time>2023-06-11T12:01:26Z</time>
      </trkpt>
      <trkpt lat="43.72099" lon="5.96695">
        <ele>363.8</ele>
        <time>2023-06-11T12:01:27Z</time>
      </trkpt>
      <trkpt lat="43.72098" lon="5.96696">
        <ele>363.8</ele>
        <time>2023-06-11T12:01:28Z</time>
      </trkpt>
      <trkpt lat="43.72097" lon="5.96697">
        <ele>363.7</ele>
        <time>2023-06-11T12:01:29Z</time>
      </trkpt>
      <trkpt lat="43.72096" lon="5.96698">
        <ele>363.7</ele>
        <time>2023-06-11T12:01:30Z</time>
      </trkpt>
      <trkpt lat="43.72096" lon="5.96699">
        <ele>363.5</ele>
        <time>2023-06-11T12:01:31Z</time>
      </trkpt>
      <trkpt lat="43.72095" lon="5.96701">
        <ele>363.4</ele>
        <time>2023-06-11T12:01:32Z</time>
      </trkpt>
      <trkpt lat="43.72094" lon="5.96702">
        <ele>363.1</ele>
        <time>2023-06-11T12:01:33Z</time>
      </trkpt>
      <trkpt lat="43.72094" lon="5.96704">
        <ele>362.9</ele>
        <time>2023-06-11T12:01:34Z</time>
      </trkpt>
      <trkpt lat="43.72093" lon="5.96705">
        <ele>362.7</ele>
        <time>2023-06-11T12:01:35Z</time>
      </trkpt>
      <trkpt lat="43.72093" lon="5.96707">
        <ele>362.7</ele>
        <time>2023-06-11T12:01:36Z</time>
      </trkpt>
      <trkpt lat="43.72092" lon="5.96708">
        <ele>362.7</ele>
        <time>2023-06-11T12:01:37Z</time>
      </trkpt>
      <trkpt lat="43.72092" lon="5.96709">
        <ele>362.6</ele>
        <time>2023-06-11T12:01:38Z</time>
      </trkpt>
      <trkpt lat="43.72092" lon="5.96711">
        <ele>362.5</ele>
        <time>2023-06-11T12:01:39Z</time>
      </trkpt>
      <trkpt lat="43.72091" lon="5.96712">
        <ele>362.5</ele>
        <time>2023-06-11T12:01:40Z</time>
      </trkpt>
      <trkpt lat="43.72091" lon="5.96714">
        <ele>362.5</ele>
        <time>2023-06-11T12:01:41Z</time>
      </trkpt>
      <trkpt lat="43.7209" lon="5.96715">
        <ele>362.5</ele>
        <time>2023-06-11T12:01:42Z</time>
      </trkpt>
      <trkpt lat="43.7209" lon="5.96716">
        <ele>362.5</ele>
        <time>2023-06-11T12:01:43Z</time>
      </trkpt>
      <trkpt lat="43.72089" lon="5.96718">
        <ele>362.5</ele>
        <time>2023-06-11T12:01:44Z</time>
      </trkpt>
      <trkpt lat="43.72088" lon="5.96719">
        <ele>362.6</ele>
        <time>2023-06-11T12:01:45Z</time>
      </trkpt>
      <trkpt lat="43.72087" lon="5.9672">
        <ele>362.6</ele>
        <time>2023-06-11T12:01:46Z</time>
      </trkpt>
      <trkpt lat="43.72086" lon="5.96722">
        <ele>362.7</ele>
        <time>2023-06-11T12:01:47Z</time>
      </trkpt>
      <trkpt lat="43.72086" lon="5.96723">
        <ele>362.7</ele>
        <time>2023-06-11T12:01:48Z</time>
      </trkpt>
      <trkpt lat="43.72085" lon="5.96724">
        <ele>362.7</ele>
        <time>2023-06-11T12:01:49Z</time>
      </trkpt>
      <trkpt lat="43.72084" lon="5.96726">
        <ele>362.8</ele>
        <time>2023-06-11T12:01:50Z</time>
      </trkpt>
      <trkpt lat="43.72084" lon="5.96727">
        <ele>363</ele>
        <time>2023-06-11T12:01:51Z</time>
      </trkpt>
      <trkpt lat="43.72083" lon="5.96728">
        <ele>363</ele>
        <time>2023-06-11T12:01:52Z</time>
      </trkpt>
      <trkpt lat="43.72082" lon="5.9673">
        <ele>362.9</ele>
        <time>2023-06-11T12:01:53Z</time>
      </trkpt>
      <trkpt lat="43.72081" lon="5.96731">
        <ele>363</ele>
        <time>2023-06-11T12:01:54Z</time>
      </trkpt>
      <trkpt lat="43.7208" lon="5.96732">
        <ele>363</ele>
        <time>2023-06-11T12:01:55Z</time>
      </trkpt>
      <trkpt lat="43.72079" lon="5.96734">
        <ele>363.1</ele>
        <time>2023-06-11T12:01:56Z</time>
      </trkpt>
      <trkpt lat="43.72078" lon="5.96735">
        <ele>363.2</ele>
        <time>2023-06-11T12:01:57Z</time>
      </trkpt>
      <trkpt lat="43.72077" lon="5.96736">
        <ele>363.2</ele>
        <time>2023-06-11T12:01:58Z</time>
      </trkpt>
      <trkpt lat="43.72077" lon="5.96738">
        <ele>363.2</ele>
        <time>2023-06-11T12:01:59Z</time>
      </trkpt>
      <trkpt lat="43.72076" lon="5.96739">
        <ele>363.2</ele>
        <time>2023-06-11T12:02:00Z</time>
      </trkpt>
      <trkpt lat="43.72075" lon="5.9674">
        <ele>363.2</ele>
        <time>2023-06-11T12:02:01Z</time>
      </trkpt>
      <trkpt lat="43.72074" lon="5.96742">
        <ele>363.1</ele>
        <time>2023-06-11T12:02:02Z</time>
      </trkpt>
      <trkpt lat="43.72073" lon="5.96744">
        <ele>363.1</ele>
        <time>2023-06-11T12:02:03Z</time>
      </trkpt>
      <trkpt lat="43.72073" lon="5.96745">
        <ele>363.1</ele>
        <time>2023-06-11T12:02:04Z</time>
      </trkpt>
      <trkpt lat="43.72072" lon="5.96747">
        <ele>363.1</ele>
        <time>2023-06-11T12:02:05Z</time>
      </trkpt>
      <trkpt lat="43.72072" lon="5.96749">
        <ele>363.2</ele>
        <time>2023-06-11T12:02:06Z</time>
      </trkpt>
      <trkpt lat="43.72071" lon="5.9675">
        <ele>363.1</ele>
        <time>2023-06-11T12:02:07Z</time>
      </trkpt>
      <trkpt lat="43.72071" lon="5.96752">
        <ele>363.1</ele>
        <time>2023-06-11T12:02:08Z</time>
      </trkpt>
      <trkpt lat="43.7207" lon="5.96754">
        <ele>363.1</ele>
        <time>2023-06-11T12:02:09Z</time>
      </trkpt>
      <trkpt lat="43.72069" lon="5.96756">
        <ele>363.1</ele>
        <time>2023-06-11T12:02:10Z</time>
      </trkpt>
      <trkpt lat="43.72069" lon="5.96757">
        <ele>363.1</ele>
        <time>2023-06-11T12:02:11Z</time>
      </trkpt>
      <trkpt lat="43.72068" lon="5.96759">
        <ele>363.1</ele>
        <time>2023-06-11T12:02:12Z</time>
      </trkpt>
      <trkpt lat="43.72067" lon="5.9676">
        <ele>363.1</ele>
        <time>2023-06-11T12:02:13Z</time>
      </trkpt>
      <trkpt lat="43.72067" lon="5.96762">
        <ele>363.2</ele>
        <time>2023-06-11T12:02:14Z</time>
      </trkpt>
      <trkpt lat="43.72066" lon="5.96764">
        <ele>363.2</ele>
        <time>2023-06-11T12:02:15Z</time>
      </trkpt>
      <trkpt lat="43.72065" lon="5.96765">
        <ele>363.2</ele>
        <time>2023-06-11T12:02:16Z</time>
      </trkpt>
      <trkpt lat="43.72064" lon="5.96767">
        <ele>363.2</ele>
        <time>2023-06-11T12:02:17Z</time>
      </trkpt>
      <trkpt lat="43.72063" lon="5.96768">
        <ele>363.2</ele>
        <time>2023-06-11T12:02:18Z</time>
      </trkpt>
      <trkpt lat="43.72062" lon="5.9677">
        <ele>363.2</ele>
        <time>2023-06-11T12:02:19Z</time>
      </trkpt>
      <trkpt lat="43.72062" lon="5.96771">
        <ele>363.2</ele>
        <time>2023-06-11T12:02:20Z</time>
      </trkpt>
      <trkpt lat="43.72061" lon="5.96773">
        <ele>363.2</ele>
        <time>2023-06-11T12:02:21Z</time>
      </trkpt>
      <trkpt lat="43.7206" lon="5.96774">
        <ele>363.2</ele>
        <time>2023-06-11T12:02:22Z</time>
      </trkpt>
      <trkpt lat="43.72059" lon="5.96776">
        <ele>363.1</ele>
        <time>2023-06-11T12:02:23Z</time>
      </trkpt>
      <trkpt lat="43.72058" lon="5.96777">
        <ele>363.1</ele>
        <time>2023-06-11T12:02:24Z</time>
      </trkpt>
      <trkpt lat="43.72057" lon="5.96779">
        <ele>363.1</ele>
        <time>2023-06-11T12:02:25Z</time>
      </trkpt>
      <trkpt lat="43.72057" lon="5.9678">
        <ele>363.1</ele>
        <time>2023-06-11T12:02:26Z</time>
      </trkpt>
      <trkpt lat="43.72056" lon="5.96781">
        <ele>363.1</ele>
        <time>2023-06-11T12:02:27Z</time>
      </trkpt>
      <trkpt lat="43.72055" lon="5.96783">
        <ele>363.1</ele>
        <time>2023-06-11T12:02:28Z</time>
      </trkpt>
      <trkpt lat="43.72054" lon="5.96785">
        <ele>363</ele>
        <time>2023-06-11T12:02:29Z</time>
      </trkpt>
      <trkpt lat="43.72054" lon="5.96786">
        <ele>363</ele>
        <time>2023-06-11T12:02:30Z</time>
      </trkpt>
      <trkpt lat="43.72053" lon="5.96788">
        <ele>363</ele>
        <time>2023-06-11T12:02:31Z</time>
      </trkpt>
      <trkpt lat="43.72052" lon="5.96789">
        <ele>363</ele>
        <time>2023-06-11T12:02:32Z</time>
      </trkpt>
      <trkpt lat="43.72051" lon="5.96791">
        <ele>363</ele>
        <time>2023-06-11T12:02:33Z</time>
      </trkpt>
      <trkpt lat="43.72051" lon="5.96792">
        <ele>363.1</ele>
        <time>2023-06-11T12:02:34Z</time>
      </trkpt>
      <trkpt lat="43.7205" lon="5.96794">
        <ele>363.2</ele>
        <time>2023-06-11T12:02:35Z</time>
      </trkpt>
      <trkpt lat="43.72049" lon="5.96796">
        <ele>363.3</ele>
        <time>2023-06-11T12:02:36Z</time>
      </trkpt>
      <trkpt lat="43.72048" lon="5.96797">
        <ele>363.3</ele>
        <time>2023-06-11T12:02:37Z</time>
      </trkpt>
      <trkpt lat="43.72048" lon="5.96799">
        <ele>363.3</ele>
        <time>2023-06-11T12:02:38Z</time>
      </trkpt>
      <trkpt lat="43.72047" lon="5.968">
        <ele>363.3</ele>
        <time>2023-06-11T12:02:39Z</time>
      </trkpt>
      <trkpt lat="43.72046" lon="5.96802">
        <ele>363.3</ele>
        <time>2023-06-11T12:02:40Z</time>
      </trkpt>
      <trkpt lat="43.72046" lon="5.96804">
        <ele>363.4</ele>
        <time>2023-06-11T12:02:41Z</time>
      </trkpt>
      <trkpt lat="43.72045" lon="5.96805">
        <ele>363.3</ele>
        <time>2023-06-11T12:02:42Z</time>
      </trkpt>
      <trkpt lat="43.72044" lon="5.96807">
        <ele>363.3</ele>
        <time>2023-06-11T12:02:43Z</time>
      </trkpt>
      <trkpt lat="43.72043" lon="5.96808">
        <ele>363.2</ele>
        <time>2023-06-11T12:02:44Z</time>
      </trkpt>
      <trkpt lat="43.72043" lon="5.9681">
        <ele>363.3</ele>
        <time>2023-06-11T12:02:45Z</time>
      </trkpt>
      <trkpt lat="43.72042" lon="5.96812">
        <ele>363.3</ele>
        <time>2023-06-11T12:02:46Z</time>
      </trkpt>
      <trkpt lat="43.72041" lon="5.96813">
        <ele>363.3</ele>
        <time>2023-06-11T12:02:47Z</time>
      </trkpt>
      <trkpt lat="43.72041" lon="5.96815">
        <ele>363.2</ele>
        <time>2023-06-11T12:02:48Z</time>
      </trkpt>
      <trkpt lat="43.7204" lon="5.96816">
        <ele>363.2</ele>
        <time>2023-06-11T12:02:49Z</time>
      </trkpt>
      <trkpt lat="43.72039" lon="5.96818">
        <ele>363.2</ele>
        <time>2023-06-11T12:02:50Z</time>
      </trkpt>
      <trkpt lat="43.72038" lon="5.96819">
        <ele>363.1</ele>
        <time>2023-06-11T12:02:51Z</time>
      </trkpt>
      <trkpt lat="43.72038" lon="5.96821">
        <ele>363.1</ele>
        <time>2023-06-11T12:02:52Z</time>
      </trkpt>
      <trkpt lat="43.72037" lon="5.96823">
        <ele>363</ele>
        <time>2023-06-11T12:02:53Z</time>
      </trkpt>
      <trkpt lat="43.72036" lon="5.96824">
        <ele>363</ele>
        <time>2023-06-11T12:02:54Z</time>
      </trkpt>
      <trkpt lat="43.72036" lon="5.96826">
        <ele>363</ele>
        <time>2023-06-11T12:02:55Z</time>
      </trkpt>
      <trkpt lat="43.72035" lon="5.96827">
        <ele>363</ele>
        <time>2023-06-11T12:02:56Z</time>
      </trkpt>
      <trkpt lat="43.72034" lon="5.96829">
        <ele>362.9</ele>
        <time>2023-06-11T12:02:57Z</time>
      </trkpt>
      <trkpt lat="43.72034" lon="5.96831">
        <ele>362.9</ele>
        <time>2023-06-11T12:02:58Z</time>
      </trkpt>
      <trkpt lat="43.72033" lon="5.96832">
        <ele>363</ele>
        <time>2023-06-11T12:02:59Z</time>
      </trkpt>
      <trkpt lat="43.72032" lon="5.96834">
        <ele>363</ele>
        <time>2023-06-11T12:03:00Z</time>
      </trkpt>
      <trkpt lat="43.72032" lon="5.96836">
        <ele>363</ele>
        <time>2023-06-11T12:03:01Z</time>
      </trkpt>
      <trkpt lat="43.72031" lon="5.96837">
        <ele>362.9</ele>
        <time>2023-06-11T12:03:02Z</time>
      </trkpt>
      <trkpt lat="43.72031" lon="5.96839">
        <ele>362.9</ele>
        <time>2023-06-11T12:03:03Z</time>
      </trkpt>
      <trkpt lat="43.7203" lon="5.9684">
        <ele>363</ele>
        <time>2023-06-11T12:03:04Z</time>
      </trkpt>
      <trkpt lat="43.72029" lon="5.96842">
        <ele>363</ele>
        <time>2023-06-11T12:03:05Z</time>
      </trkpt>
      <trkpt lat="43.72029" lon="5.96844">
        <ele>363</ele>
        <time>2023-06-11T12:03:06Z</time>
      </trkpt>
      <trkpt lat="43.72028" lon="5.96845">
        <ele>363.1</ele>
        <time>2023-06-11T12:03:07Z</time>
      </trkpt>
      <trkpt lat="43.72028" lon="5.96847">
        <ele>363.1</ele>
        <time>2023-06-11T12:03:08Z</time>
      </trkpt>
      <trkpt lat="43.72027" lon="5.96849">
        <ele>363.1</ele>
        <time>2023-06-11T12:03:09Z</time>
      </trkpt>
      <trkpt lat="43.72027" lon="5.9685">
        <ele>363.1</ele>
        <time>2023-06-11T12:03:10Z</time>
      </trkpt>
      <trkpt lat="43.72026" lon="5.96852">
        <ele>363.1</ele>
        <time>2023-06-11T12:03:11Z</time>
      </trkpt>
      <trkpt lat="43.72026" lon="5.96854">
        <ele>363.1</ele>
        <time>2023-06-11T12:03:12Z</time>
      </trkpt>
      <trkpt lat="43.72025" lon="5.96855">
        <ele>363</ele>
        <time>2023-06-11T12:03:13Z</time>
      </trkpt>
      <trkpt lat="43.72025" lon="5.96857">
        <ele>363</ele>
        <time>2023-06-11T12:03:14Z</time>
      </trkpt>
      <trkpt lat="43.72024" lon="5.96859">
        <ele>363</ele>
        <time>2023-06-11T12:03:15Z</time>
      </trkpt>
      <trkpt lat="43.72024" lon="5.96861">
        <ele>363</ele>
        <time>2023-06-11T12:03:16Z</time>
      </trkpt>
      <trkpt lat="43.72023" lon="5.96863">
        <ele>363</ele>
        <time>2023-06-11T12:03:17Z</time>
      </trkpt>
      <trkpt lat="43.72023" lon="5.96864">
        <ele>363</ele>
        <time>2023-06-11T12:03:18Z</time>
      </trkpt>
      <trkpt lat="43.72023" lon="5.96866">
        <ele>363</ele>
        <time>2023-06-11T12:03:19Z</time>
      </trkpt>
      <trkpt lat="43.72022" lon="5.96868">
        <ele>363.1</ele>
        <time>2023-06-11T12:03:20Z</time>
      </trkpt>
      <trkpt lat="43.72022" lon="5.9687">
        <ele>363.2</ele>
        <time>2023-06-11T12:03:21Z</time>
      </trkpt>
      <trkpt lat="43.72022" lon="5.96872">
        <ele>363.2</ele>
        <time>2023-06-11T12:03:22Z</time>
      </trkpt>
      <trkpt lat="43.72022" lon="5.96874">
        <ele>363.2</ele>
        <time>2023-06-11T12:03:23Z</time>
      </trkpt>
      <trkpt lat="43.72021" lon="5.96876">
        <ele>363.2</ele>
        <time>2023-06-11T12:03:24Z</time>
      </trkpt>
      <trkpt lat="43.72021" lon="5.96878">
        <ele>363.2</ele>
        <time>2023-06-11T12:03:25Z</time>
      </trkpt>
      <trkpt lat="43.72021" lon="5.96879">
        <ele>363.2</ele>
        <time>2023-06-11T12:03:26Z</time>
      </trkpt>
      <trkpt lat="43.7202" lon="5.96881">
        <ele>363.2</ele>
        <time>2023-06-11T12:03:27Z</time>
      </trkpt>
      <trkpt lat="43.7202" lon="5.96883">
        <ele>363.2</ele>
        <time>2023-06-11T12:03:28Z</time>
      </trkpt>
      <trkpt lat="43.7202" lon="5.96885">
        <ele>363.3</ele>
        <time>2023-06-11T12:03:29Z</time>
      </trkpt>
      <trkpt lat="43.7202" lon="5.96887">
        <ele>363.3</ele>
        <time>2023-06-11T12:03:30Z</time>
      </trkpt>
      <trkpt lat="43.72019" lon="5.96888">
        <ele>363.3</ele>
        <time>2023-06-11T12:03:31Z</time>
      </trkpt>
      <trkpt lat="43.72019" lon="5.9689">
        <ele>363.2</ele>
        <time>2023-06-11T12:03:32Z</time>
      </trkpt>
      <trkpt lat="43.72019" lon="5.96892">
        <ele>363.2</ele>
        <time>2023-06-11T12:03:33Z</time>
      </trkpt>
      <trkpt lat="43.72019" lon="5.96894">
        <ele>363.2</ele>
        <time>2023-06-11T12:03:34Z</time>
      </trkpt>
      <trkpt lat="43.72018" lon="5.96896">
        <ele>363.3</ele>
        <time>2023-06-11T12:03:35Z</time>
      </trkpt>
      <trkpt lat="43.72018" lon="5.96898">
        <ele>363.3</ele>
        <time>2023-06-11T12:03:36Z</time>
      </trkpt>
      <trkpt lat="43.72018" lon="5.969">
        <ele>363.3</ele>
        <time>2023-06-11T12:03:37Z</time>
      </trkpt>
      <trkpt lat="43.72018" lon="5.96902">
        <ele>363.3</ele>
        <time>2023-06-11T12:03:38Z</time>
      </trkpt>
      <trkpt lat="43.72017" lon="5.96903">
        <ele>363.3</ele>
        <time>2023-06-11T12:03:39Z</time>
      </trkpt>
      <trkpt lat="43.72017" lon="5.96905">
        <ele>363.3</ele>
        <time>2023-06-11T12:03:40Z</time>
      </trkpt>
      <trkpt lat="43.72016" lon="5.96907">
        <ele>363.3</ele>
        <time>2023-06-11T12:03:41Z</time>
      </trkpt>
      <trkpt lat="43.72016" lon="5.96909">
        <ele>363.3</ele>
        <time>2023-06-11T12:03:42Z</time>
      </trkpt>
      <trkpt lat="43.72015" lon="5.96911">
        <ele>363.3</ele>
        <time>2023-06-11T12:03:43Z</time>
      </trkpt>
      <trkpt lat="43.72015" lon="5.96912">
        <ele>363.2</ele>
        <time>2023-06-11T12:03:44Z</time>
      </trkpt>
      <trkpt lat="43.72014" lon="5.96914">
        <ele>363.2</ele>
        <time>2023-06-11T12:03:45Z</time>
      </trkpt>
      <trkpt lat="43.72013" lon="5.96915">
        <ele>363.1</ele>
        <time>2023-06-11T12:03:46Z</time>
      </trkpt>
      <trkpt lat="43.72012" lon="5.96917">
        <ele>363.1</ele>
        <time>2023-06-11T12:03:47Z</time>
      </trkpt>
      <trkpt lat="43.72011" lon="5.96918">
        <ele>363</ele>
        <time>2023-06-11T12:03:48Z</time>
      </trkpt>
      <trkpt lat="43.7201" lon="5.9692">
        <ele>363</ele>
        <time>2023-06-11T12:03:49Z</time>
      </trkpt>
      <trkpt lat="43.72009" lon="5.96921">
        <ele>363</ele>
        <time>2023-06-11T12:03:50Z</time>
      </trkpt>
      <trkpt lat="43.72008" lon="5.96923">
        <ele>363</ele>
        <time>2023-06-11T12:03:51Z</time>
      </trkpt>
      <trkpt lat="43.72007" lon="5.96924">
        <ele>363</ele>
        <time>2023-06-11T12:03:52Z</time>
      </trkpt>
      <trkpt lat="43.72006" lon="5.96926">
        <ele>363</ele>
        <time>2023-06-11T12:03:53Z</time>
      </trkpt>
      <trkpt lat="43.72005" lon="5.96927">
        <ele>363</ele>
        <time>2023-06-11T12:03:54Z</time>
      </trkpt>
      <trkpt lat="43.72004" lon="5.96928">
        <ele>363</ele>
        <time>2023-06-11T12:03:55Z</time>
      </trkpt>
      <trkpt lat="43.72003" lon="5.96929">
        <ele>363</ele>
        <time>2023-06-11T12:03:56Z</time>
      </trkpt>
      <trkpt lat="43.72001" lon="5.9693">
        <ele>363</ele>
        <time>2023-06-11T12:03:57Z</time>
      </trkpt>
      <trkpt lat="43.72" lon="5.96931">
        <ele>363</ele>
        <time>2023-06-11T12:03:58Z</time>
      </trkpt>
      <trkpt lat="43.71998" lon="5.96932">
        <ele>363</ele>
        <time>2023-06-11T12:03:59Z</time>
      </trkpt>
      <trkpt lat="43.71997" lon="5.96933">
        <ele>363</ele>
        <time>2023-06-11T12:04:00Z</time>
      </trkpt>
      <trkpt lat="43.71996" lon="5.96934">
        <ele>363</ele>
        <time>2023-06-11T12:04:01Z</time>
      </trkpt>
      <trkpt lat="43.71994" lon="5.96935">
        <ele>362.9</ele>
        <time>2023-06-11T12:04:02Z</time>
      </trkpt>
      <trkpt lat="43.71992" lon="5.96935">
        <ele>362.9</ele>
        <time>2023-06-11T12:04:03Z</time>
      </trkpt>
      <trkpt lat="43.71991" lon="5.96936">
        <ele>362.9</ele>
        <time>2023-06-11T12:04:04Z</time>
      </trkpt>
      <trkpt lat="43.7199" lon="5.96937">
        <ele>363</ele>
        <time>2023-06-11T12:04:05Z</time>
      </trkpt>
      <trkpt lat="43.71988" lon="5.96938">
        <ele>363.1</ele>
        <time>2023-06-11T12:04:06Z</time>
      </trkpt>
      <trkpt lat="43.71987" lon="5.96938">
        <ele>363.1</ele>
        <time>2023-06-11T12:04:07Z</time>
      </trkpt>
      <trkpt lat="43.71986" lon="5.96939">
        <ele>363.1</ele>
        <time>2023-06-11T12:04:08Z</time>
      </trkpt>
      <trkpt lat="43.71984" lon="5.9694">
        <ele>363.1</ele>
        <time>2023-06-11T12:04:09Z</time>
      </trkpt>
      <trkpt lat="43.71983" lon="5.9694">
        <ele>363.1</ele>
        <time>2023-06-11T12:04:10Z</time>
      </trkpt>
      <trkpt lat="43.71982" lon="5.96941">
        <ele>363</ele>
        <time>2023-06-11T12:04:11Z</time>
      </trkpt>
      <trkpt lat="43.7198" lon="5.96942">
        <ele>362.9</ele>
        <time>2023-06-11T12:04:12Z</time>
      </trkpt>
      <trkpt lat="43.71979" lon="5.96943">
        <ele>362.9</ele>
        <time>2023-06-11T12:04:13Z</time>
      </trkpt>
      <trkpt lat="43.71978" lon="5.96943">
        <ele>362.8</ele>
        <time>2023-06-11T12:04:14Z</time>
      </trkpt>
      <trkpt lat="43.71977" lon="5.96944">
        <ele>362.8</ele>
        <time>2023-06-11T12:04:15Z</time>
      </trkpt>
      <trkpt lat="43.71976" lon="5.96945">
        <ele>362.8</ele>
        <time>2023-06-11T12:04:16Z</time>
      </trkpt>
      <trkpt lat="43.71975" lon="5.96946">
        <ele>362.9</ele>
        <time>2023-06-11T12:04:17Z</time>
      </trkpt>
      <trkpt lat="43.71973" lon="5.96947">
        <ele>362.9</ele>
        <time>2023-06-11T12:04:18Z</time>
      </trkpt>
      <trkpt lat="43.71972" lon="5.96948">
        <ele>362.9</ele>
        <time>2023-06-11T12:04:19Z</time>
      </trkpt>
      <trkpt lat="43.71971" lon="5.96949">
        <ele>362.9</ele>
        <time>2023-06-11T12:04:20Z</time>
      </trkpt>
      <trkpt lat="43.7197" lon="5.9695">
        <ele>363</ele>
        <time>2023-06-11T12:04:21Z</time>
      </trkpt>
      <trkpt lat="43.71969" lon="5.96951">
        <ele>363</ele>
        <time>2023-06-11T12:04:22Z</time>
      </trkpt>
      <trkpt lat="43.71968" lon="5.96952">
        <ele>363</ele>
        <time>2023-06-11T12:04:23Z</time>
      </trkpt>
      <trkpt lat="43.71967" lon="5.96953">
        <ele>363</ele>
        <time>2023-06-11T12:04:24Z</time>
      </trkpt>
      <trkpt lat="43.71965" lon="5.96953">
        <ele>363</ele>
        <time>2023-06-11T12:04:25Z</time>
      </trkpt>
      <trkpt lat="43.71964" lon="5.96954">
        <ele>363</ele>
        <time>2023-06-11T12:04:26Z</time>
      </trkpt>
      <trkpt lat="43.71963" lon="5.96955">
        <ele>363</ele>
        <time>2023-06-11T12:04:27Z</time>
      </trkpt>
      <trkpt lat="43.71962" lon="5.96957">
        <ele>363</ele>
        <time>2023-06-11T12:04:28Z</time>
      </trkpt>
      <trkpt lat="43.71961" lon="5.96958">
        <ele>363</ele>
        <time>2023-06-11T12:04:29Z</time>
      </trkpt>
      <trkpt lat="43.7196" lon="5.96959">
        <ele>363</ele>
        <time>2023-06-11T12:04:30Z</time>
      </trkpt>
      <trkpt lat="43.71959" lon="5.9696">
        <ele>363</ele>
        <time>2023-06-11T12:04:31Z</time>
      </trkpt>
      <trkpt lat="43.71957" lon="5.96961">
        <ele>363</ele>
        <time>2023-06-11T12:04:32Z</time>
      </trkpt>
      <trkpt lat="43.71956" lon="5.96962">
        <ele>363.1</ele>
        <time>2023-06-11T12:04:33Z</time>
      </trkpt>
      <trkpt lat="43.71955" lon="5.96963">
        <ele>363.2</ele>
        <time>2023-06-11T12:04:34Z</time>
      </trkpt>
      <trkpt lat="43.71954" lon="5.96964">
        <ele>363.2</ele>
        <time>2023-06-11T12:04:35Z</time>
      </trkpt>
      <trkpt lat="43.71953" lon="5.96965">
        <ele>363.3</ele>
        <time>2023-06-11T12:04:36Z</time>
      </trkpt>
      <trkpt lat="43.71952" lon="5.96966">
        <ele>363.2</ele>
        <time>2023-06-11T12:04:37Z</time>
      </trkpt>
      <trkpt lat="43.7195" lon="5.96967">
        <ele>363.2</ele>
        <time>2023-06-11T12:04:38Z</time>
      </trkpt>
      <trkpt lat="43.71949" lon="5.96968">
        <ele>363.2</ele>
        <time>2023-06-11T12:04:39Z</time>
      </trkpt>
      <trkpt lat="43.71948" lon="5.96969">
        <ele>363.2</ele>
        <time>2023-06-11T12:04:40Z</time>
      </trkpt>
      <trkpt lat="43.71947" lon="5.9697">
        <ele>363.2</ele>
        <time>2023-06-11T12:04:41Z</time>
      </trkpt>
      <trkpt lat="43.71946" lon="5.96971">
        <ele>363.2</ele>
        <time>2023-06-11T12:04:42Z</time>
      </trkpt>
      <trkpt lat="43.71945" lon="5.96972">
        <ele>363.2</ele>
        <time>2023-06-11T12:04:43Z</time>
      </trkpt>
      <trkpt lat="43.71943" lon="5.96973">
        <ele>363.1</ele>
        <time>2023-06-11T12:04:44Z</time>
      </trkpt>
      <trkpt lat="43.71942" lon="5.96974">
        <ele>363.1</ele>
        <time>2023-06-11T12:04:45Z</time>
      </trkpt>
      <trkpt lat="43.71941" lon="5.96975">
        <ele>363.1</ele>
        <time>2023-06-11T12:04:46Z</time>
      </trkpt>
      <trkpt lat="43.7194" lon="5.96976">
        <ele>363</ele>
        <time>2023-06-11T12:04:47Z</time>
      </trkpt>
      <trkpt lat="43.71938" lon="5.96977">
        <ele>363</ele>
        <time>2023-06-11T12:04:48Z</time>
      </trkpt>
      <trkpt lat="43.71937" lon="5.96978">
        <ele>363</ele>
        <time>2023-06-11T12:04:49Z</time>
      </trkpt>
      <trkpt lat="43.71936" lon="5.96979">
        <ele>363</ele>
        <time>2023-06-11T12:04:50Z</time>
      </trkpt>
      <trkpt lat="43.71935" lon="5.9698">
        <ele>363</ele>
        <time>2023-06-11T12:04:51Z</time>
      </trkpt>
      <trkpt lat="43.71934" lon="5.96981">
        <ele>363</ele>
        <time>2023-06-11T12:04:52Z</time>
      </trkpt>
      <trkpt lat="43.71932" lon="5.96982">
        <ele>363</ele>
        <time>2023-06-11T12:04:53Z</time>
      </trkpt>
      <trkpt lat="43.71931" lon="5.96983">
        <ele>363</ele>
        <time>2023-06-11T12:04:54Z</time>
      </trkpt>
      <trkpt lat="43.7193" lon="5.96984">
        <ele>363</ele>
        <time>2023-06-11T12:04:55Z</time>
      </trkpt>
      <trkpt lat="43.71928" lon="5.96985">
        <ele>363</ele>
        <time>2023-06-11T12:04:56Z</time>
      </trkpt>
      <trkpt lat="43.71927" lon="5.96986">
        <ele>363</ele>
        <time>2023-06-11T12:04:57Z</time>
      </trkpt>
      <trkpt lat="43.71926" lon="5.96987">
        <ele>363</ele>
        <time>2023-06-11T12:04:58Z</time>
      </trkpt>
      <trkpt lat="43.71924" lon="5.96987">
        <ele>363</ele>
        <time>2023-06-11T12:04:59Z</time>
      </trkpt>
      <trkpt lat="43.71923" lon="5.96988">
        <ele>363</ele>
        <time>2023-06-11T12:05:00Z</time>
      </trkpt>
      <trkpt lat="43.71922" lon="5.96989">
        <ele>362.9</ele>
        <time>2023-06-11T12:05:01Z</time>
      </trkpt>
      <trkpt lat="43.7192" lon="5.9699">
        <ele>362.9</ele>
        <time>2023-06-11T12:05:02Z</time>
      </trkpt>
      <trkpt lat="43.71919" lon="5.96991">
        <ele>363</ele>
        <time>2023-06-11T12:05:03Z</time>
      </trkpt>
      <trkpt lat="43.71917" lon="5.96992">
        <ele>363</ele>
        <time>2023-06-11T12:05:04Z</time>
      </trkpt>
      <trkpt lat="43.71916" lon="5.96993">
        <ele>363.1</ele>
        <time>2023-06-11T12:05:05Z</time>
      </trkpt>
      <trkpt lat="43.71915" lon="5.96993">
        <ele>363.1</ele>
        <time>2023-06-11T12:05:06Z</time>
      </trkpt>
      <trkpt lat="43.71913" lon="5.96994">
        <ele>363.2</ele>
        <time>2023-06-11T12:05:07Z</time>
      </trkpt>
      <trkpt lat="43.71912" lon="5.96995">
        <ele>363.2</ele>
        <time>2023-06-11T12:05:08Z</time>
      </trkpt>
      <trkpt lat="43.71911" lon="5.96996">
        <ele>363.2</ele>
        <time>2023-06-11T12:05:09Z</time>
      </trkpt>
      <trkpt lat="43.71909" lon="5.96997">
        <ele>363.2</ele>
        <time>2023-06-11T12:05:10Z</time>
      </trkpt>
      <trkpt lat="43.71908" lon="5.96998">
        <ele>363.2</ele>
        <time>2023-06-11T12:05:11Z</time>
      </trkpt>
      <trkpt lat="43.71907" lon="5.96999">
        <ele>363.1</ele>
        <time>2023-06-11T12:05:12Z</time>
      </trkpt>
      <trkpt lat="43.71906" lon="5.97">
        <ele>363</ele>
        <time>2023-06-11T12:05:13Z</time>
      </trkpt>
      <trkpt lat="43.71904" lon="5.97">
        <ele>363.1</ele>
        <time>2023-06-11T12:05:14Z</time>
      </trkpt>
      <trkpt lat="43.71903" lon="5.97001">
        <ele>363.1</ele>
        <time>2023-06-11T12:05:15Z</time>
      </trkpt>
      <trkpt lat="43.71902" lon="5.97002">
        <ele>363.2</ele>
        <time>2023-06-11T12:05:16Z</time>
      </trkpt>
      <trkpt lat="43.71901" lon="5.97003">
        <ele>363.1</ele>
        <time>2023-06-11T12:05:17Z</time>
      </trkpt>
      <trkpt lat="43.719" lon="5.97004">
        <ele>363.1</ele>
        <time>2023-06-11T12:05:18Z</time>
      </trkpt>
      <trkpt lat="43.71898" lon="5.97005">
        <ele>363</ele>
        <time>2023-06-11T12:05:19Z</time>
      </trkpt>
      <trkpt lat="43.71897" lon="5.97006">
        <ele>363</ele>
        <time>2023-06-11T12:05:20Z</time>
      </trkpt>
      <trkpt lat="43.71896" lon="5.97007">
        <ele>363</ele>
        <time>2023-06-11T12:05:21Z</time>
      </trkpt>
      <trkpt lat="43.71894" lon="5.97008">
        <ele>363</ele>
        <time>2023-06-11T12:05:22Z</time>
      </trkpt>
      <trkpt lat="43.71893" lon="5.97009">
        <ele>363</ele>
        <time>2023-06-11T12:05:23Z</time>
      </trkpt>
      <trkpt lat="43.71892" lon="5.9701">
        <ele>363</ele>
        <time>2023-06-11T12:05:24Z</time>
      </trkpt>
      <trkpt lat="43.71891" lon="5.97011">
        <ele>363.1</ele>
        <time>2023-06-11T12:05:25Z</time>
      </trkpt>
      <trkpt lat="43.71889" lon="5.97012">
        <ele>363</ele>
        <time>2023-06-11T12:05:26Z</time>
      </trkpt>
      <trkpt lat="43.71888" lon="5.97013">
        <ele>363.1</ele>
        <time>2023-06-11T12:05:27Z</time>
      </trkpt>
      <trkpt lat="43.71887" lon="5.97014">
        <ele>363.1</ele>
        <time>2023-06-11T12:05:28Z</time>
      </trkpt>
      <trkpt lat="43.71886" lon="5.97015">
        <ele>363.1</ele>
        <time>2023-06-11T12:05:29Z</time>
      </trkpt>
      <trkpt lat="43.71885" lon="5.97016">
        <ele>363.1</ele>
        <time>2023-06-11T12:05:30Z</time>
      </trkpt>
      <trkpt lat="43.71883" lon="5.97017">
        <ele>363.1</ele>
        <time>2023-06-11T12:05:31Z</time>
      </trkpt>
      <trkpt lat="43.71882" lon="5.97018">
        <ele>363.1</ele>
        <time>2023-06-11T12:05:32Z</time>
      </trkpt>
      <trkpt lat="43.71881" lon="5.97018">
        <ele>363.1</ele>
        <time>2023-06-11T12:05:33Z</time>
      </trkpt>
      <trkpt lat="43.71879" lon="5.97019">
        <ele>363</ele>
        <time>2023-06-11T12:05:34Z</time>
      </trkpt>
      <trkpt lat="43.71878" lon="5.9702">
        <ele>363</ele>
        <time>2023-06-11T12:05:35Z</time>
      </trkpt>
      <trkpt lat="43.71877" lon="5.97021">
        <ele>362.9</ele>
        <time>2023-06-11T12:05:36Z</time>
      </trkpt>
      <trkpt lat="43.71876" lon="5.97022">
        <ele>362.9</ele>
        <time>2023-06-11T12:05:37Z</time>
      </trkpt>
      <trkpt lat="43.71874" lon="5.97023">
        <ele>362.8</ele>
        <time>2023-06-11T12:05:38Z</time>
      </trkpt>
      <trkpt lat="43.71873" lon="5.97024">
        <ele>362.9</ele>
        <time>2023-06-11T12:05:39Z</time>
      </trkpt>
      <trkpt lat="43.71872" lon="5.97025">
        <ele>362.9</ele>
        <time>2023-06-11T12:05:40Z</time>
      </trkpt>
      <trkpt lat="43.71871" lon="5.97025">
        <ele>362.9</ele>
        <time>2023-06-11T12:05:41Z</time>
      </trkpt>
      <trkpt lat="43.71869" lon="5.97026">
        <ele>362.9</ele>
        <time>2023-06-11T12:05:42Z</time>
      </trkpt>
      <trkpt lat="43.71868" lon="5.97027">
        <ele>363</ele>
        <time>2023-06-11T12:05:43Z</time>
      </trkpt>
      <trkpt lat="43.71866" lon="5.97028">
        <ele>363</ele>
        <time>2023-06-11T12:05:44Z</time>
      </trkpt>
      <trkpt lat="43.71865" lon="5.97029">
        <ele>363</ele>
        <time>2023-06-11T12:05:45Z</time>
      </trkpt>
      <trkpt lat="43.71864" lon="5.97029">
        <ele>363</ele>
        <time>2023-06-11T12:05:46Z</time>
      </trkpt>
      <trkpt lat="43.71863" lon="5.9703">
        <ele>363</ele>
        <time>2023-06-11T12:05:47Z</time>
      </trkpt>
      <trkpt lat="43.71861" lon="5.97031">
        <ele>363.1</ele>
        <time>2023-06-11T12:05:48Z</time>
      </trkpt>
      <trkpt lat="43.7186" lon="5.97032">
        <ele>363.1</ele>
        <time>2023-06-11T12:05:49Z</time>
      </trkpt>
      <trkpt lat="43.71859" lon="5.97033">
        <ele>363.1</ele>
        <time>2023-06-11T12:05:50Z</time>
      </trkpt>
      <trkpt lat="43.71857" lon="5.97033">
        <ele>363.2</ele>
        <time>2023-06-11T12:05:51Z</time>
      </trkpt>
      <trkpt lat="43.71856" lon="5.97034">
        <ele>363.3</ele>
        <time>2023-06-11T12:05:52Z</time>
      </trkpt>
      <trkpt lat="43.71855" lon="5.97035">
        <ele>363.3</ele>
        <time>2023-06-11T12:05:53Z</time>
      </trkpt>
      <trkpt lat="43.71854" lon="5.97036">
        <ele>363.3</ele>
        <time>2023-06-11T12:05:54Z</time>
      </trkpt>
      <trkpt lat="43.71853" lon="5.97037">
        <ele>363.4</ele>
        <time>2023-06-11T12:05:55Z</time>
      </trkpt>
      <trkpt lat="43.71852" lon="5.97038">
        <ele>363.4</ele>
        <time>2023-06-11T12:05:56Z</time>
      </trkpt>
      <trkpt lat="43.7185" lon="5.97039">
        <ele>363.4</ele>
        <time>2023-06-11T12:05:57Z</time>
      </trkpt>
      <trkpt lat="43.71849" lon="5.9704">
        <ele>363.5</ele>
        <time>2023-06-11T12:05:58Z</time>
      </trkpt>
      <trkpt lat="43.71848" lon="5.97041">
        <ele>363.4</ele>
        <time>2023-06-11T12:05:59Z</time>
      </trkpt>
      <trkpt lat="43.71847" lon="5.97042">
        <ele>363.4</ele>
        <time>2023-06-11T12:06:00Z</time>
      </trkpt>
      <trkpt lat="43.71846" lon="5.97043">
        <ele>363.4</ele>
        <time>2023-06-11T12:06:01Z</time>
      </trkpt>
      <trkpt lat="43.71845" lon="5.97044">
        <ele>363.4</ele>
        <time>2023-06-11T12:06:02Z</time>
      </trkpt>
      <trkpt lat="43.71844" lon="5.97045">
        <ele>363.4</ele>
        <time>2023-06-11T12:06:03Z</time>
      </trkpt>
      <trkpt lat="43.71842" lon="5.97046">
        <ele>363.4</ele>
        <time>2023-06-11T12:06:04Z</time>
      </trkpt>
      <trkpt lat="43.71841" lon="5.97047">
        <ele>363.4</ele>
        <time>2023-06-11T12:06:05Z</time>
      </trkpt>
      <trkpt lat="43.7184" lon="5.97049">
        <ele>363.4</ele>
        <time>2023-06-11T12:06:06Z</time>
      </trkpt>
      <trkpt lat="43.71839" lon="5.9705">
        <ele>363.4</ele>
        <time>2023-06-11T12:06:07Z</time>
      </trkpt>
      <trkpt lat="43.71838" lon="5.97051">
        <ele>363.4</ele>
        <time>2023-06-11T12:06:08Z</time>
      </trkpt>
      <trkpt lat="43.71837" lon="5.97052">
        <ele>363.3</ele>
        <time>2023-06-11T12:06:09Z</time>
      </trkpt>
      <trkpt lat="43.71836" lon="5.97053">
        <ele>363.2</ele>
        <time>2023-06-11T12:06:10Z</time>
      </trkpt>
      <trkpt lat="43.71835" lon="5.97054">
        <ele>363.1</ele>
        <time>2023-06-11T12:06:11Z</time>
      </trkpt>
      <trkpt lat="43.71834" lon="5.97055">
        <ele>363.1</ele>
        <time>2023-06-11T12:06:12Z</time>
      </trkpt>
      <trkpt lat="43.71833" lon="5.97056">
        <ele>363.2</ele>
        <time>2023-06-11T12:06:13Z</time>
      </trkpt>
      <trkpt lat="43.71831" lon="5.97057">
        <ele>363.2</ele>
        <time>2023-06-11T12:06:14Z</time>
      </trkpt>
      <trkpt lat="43.7183" lon="5.97059">
        <ele>363.3</ele>
        <time>2023-06-11T12:06:15Z</time>
      </trkpt>
      <trkpt lat="43.71829" lon="5.9706">
        <ele>363.3</ele>
        <time>2023-06-11T12:06:16Z</time>
      </trkpt>
      <trkpt lat="43.71828" lon="5.97061">
        <ele>363.3</ele>
        <time>2023-06-11T12:06:17Z</time>
      </trkpt>
      <trkpt lat="43.71827" lon="5.97061">
        <ele>363.2</ele>
        <time>2023-06-11T12:06:18Z</time>
      </trkpt>
      <trkpt lat="43.71826" lon="5.97062">
        <ele>363.1</ele>
        <time>2023-06-11T12:06:19Z</time>
      </trkpt>
      <trkpt lat="43.71825" lon="5.97063">
        <ele>363</ele>
        <time>2023-06-11T12:06:20Z</time>
      </trkpt>
      <trkpt lat="43.71824" lon="5.97064">
        <ele>362.9</ele>
        <time>2023-06-11T12:06:21Z</time>
      </trkpt>
      <trkpt lat="43.71823" lon="5.97065">
        <ele>362.9</ele>
        <time>2023-06-11T12:06:22Z</time>
      </trkpt>
      <trkpt lat="43.71821" lon="5.97066">
        <ele>362.9</ele>
        <time>2023-06-11T12:06:23Z</time>
      </trkpt>
      <trkpt lat="43.7182" lon="5.97067">
        <ele>362.9</ele>
        <time>2023-06-11T12:06:24Z</time>
      </trkpt>
      <trkpt lat="43.71819" lon="5.97068">
        <ele>362.9</ele>
        <time>2023-06-11T12:06:25Z</time>
      </trkpt>
      <trkpt lat="43.71818" lon="5.97069">
        <ele>362.9</ele>
        <time>2023-06-11T12:06:26Z</time>
      </trkpt>
      <trkpt lat="43.71817" lon="5.9707">
        <ele>362.9</ele>
        <time>2023-06-11T12:06:27Z</time>
      </trkpt>
      <trkpt lat="43.71815" lon="5.97071">
        <ele>362.9</ele>
        <time>2023-06-11T12:06:28Z</time>
      </trkpt>
      <trkpt lat="43.71814" lon="5.97072">
        <ele>362.9</ele>
        <time>2023-06-11T12:06:29Z</time>
      </trkpt>
      <trkpt lat="43.71813" lon="5.97072">
        <ele>362.9</ele>
        <time>2023-06-11T12:06:30Z</time>
      </trkpt>
      <trkpt lat="43.71811" lon="5.97073">
        <ele>362.9</ele>
        <time>2023-06-11T12:06:31Z</time>
      </trkpt>
      <trkpt lat="43.7181" lon="5.97074">
        <ele>363</ele>
        <time>2023-06-11T12:06:32Z</time>
      </trkpt>
      <trkpt lat="43.71809" lon="5.97075">
        <ele>363.1</ele>
        <time>2023-06-11T12:06:33Z</time>
      </trkpt>
      <trkpt lat="43.71808" lon="5.97075">
        <ele>363.1</ele>
        <time>2023-06-11T12:06:34Z</time>
      </trkpt>
      <trkpt lat="43.71806" lon="5.97076">
        <ele>363.1</ele>
        <time>2023-06-11T12:06:35Z</time>
      </trkpt>
      <trkpt lat="43.71805" lon="5.97076">
        <ele>363.1</ele>
        <time>2023-06-11T12:06:36Z</time>
      </trkpt>
      <trkpt lat="43.71804" lon="5.97077">
        <ele>363.2</ele>
        <time>2023-06-11T12:06:37Z</time>
      </trkpt>
      <trkpt lat="43.71803" lon="5.97078">
        <ele>363.2</ele>
        <time>2023-06-11T12:06:38Z</time>
      </trkpt>
      <trkpt lat="43.71801" lon="5.97078">
        <ele>363.3</ele>
        <time>2023-06-11T12:06:39Z</time>
      </trkpt>
      <trkpt lat="43.718" lon="5.97079">
        <ele>363.3</ele>
        <time>2023-06-11T12:06:40Z</time>
      </trkpt>
      <trkpt lat="43.71799" lon="5.97079">
        <ele>363.4</ele>
        <time>2023-06-11T12:06:41Z</time>
      </trkpt>
      <trkpt lat="43.71798" lon="5.9708">
        <ele>363.4</ele>
        <time>2023-06-11T12:06:42Z</time>
      </trkpt>
      <trkpt lat="43.71797" lon="5.97081">
        <ele>363.3</ele>
        <time>2023-06-11T12:06:43Z</time>
      </trkpt>
      <trkpt lat="43.71796" lon="5.97082">
        <ele>363.2</ele>
        <time>2023-06-11T12:06:44Z</time>
      </trkpt>
      <trkpt lat="43.71794" lon="5.97083">
        <ele>363.1</ele>
        <time>2023-06-11T12:06:45Z</time>
      </trkpt>
      <trkpt lat="43.71793" lon="5.97085">
        <ele>363.1</ele>
        <time>2023-06-11T12:06:46Z</time>
      </trkpt>
      <trkpt lat="43.71792" lon="5.97086">
        <ele>363</ele>
        <time>2023-06-11T12:06:47Z</time>
      </trkpt>
      <trkpt lat="43.71791" lon="5.97087">
        <ele>362.9</ele>
        <time>2023-06-11T12:06:48Z</time>
      </trkpt>
      <trkpt lat="43.71791" lon="5.97089">
        <ele>362.8</ele>
        <time>2023-06-11T12:06:49Z</time>
      </trkpt>
      <trkpt lat="43.7179" lon="5.9709">
        <ele>362.8</ele>
        <time>2023-06-11T12:06:50Z</time>
      </trkpt>
      <trkpt lat="43.71789" lon="5.97091">
        <ele>362.8</ele>
        <time>2023-06-11T12:06:51Z</time>
      </trkpt>
      <trkpt lat="43.71788" lon="5.97093">
        <ele>362.9</ele>
        <time>2023-06-11T12:06:52Z</time>
      </trkpt>
      <trkpt lat="43.71787" lon="5.97094">
        <ele>362.9</ele>
        <time>2023-06-11T12:06:53Z</time>
      </trkpt>
      <trkpt lat="43.71786" lon="5.97095">
        <ele>362.9</ele>
        <time>2023-06-11T12:06:54Z</time>
      </trkpt>
      <trkpt lat="43.71785" lon="5.97097">
        <ele>362.9</ele>
        <time>2023-06-11T12:06:55Z</time>
      </trkpt>
      <trkpt lat="43.71784" lon="5.97098">
        <ele>362.9</ele>
        <time>2023-06-11T12:06:56Z</time>
      </trkpt>
      <trkpt lat="43.71783" lon="5.97099">
        <ele>362.9</ele>
        <time>2023-06-11T12:06:57Z</time>
      </trkpt>
      <trkpt lat="43.71782" lon="5.971">
        <ele>362.9</ele>
        <time>2023-06-11T12:06:58Z</time>
      </trkpt>
      <trkpt lat="43.71782" lon="5.97101">
        <ele>362.9</ele>
        <time>2023-06-11T12:06:59Z</time>
      </trkpt>
      <trkpt lat="43.7178" lon="5.97102">
        <ele>362.9</ele>
        <time>2023-06-11T12:07:00Z</time>
      </trkpt>
      <trkpt lat="43.71779" lon="5.97103">
        <ele>362.9</ele>
        <time>2023-06-11T12:07:01Z</time>
      </trkpt>
      <trkpt lat="43.71778" lon="5.97104">
        <ele>362.9</ele>
        <time>2023-06-11T12:07:02Z</time>
      </trkpt>
      <trkpt lat="43.71777" lon="5.97105">
        <ele>362.9</ele>
        <time>2023-06-11T12:07:03Z</time>
      </trkpt>
      <trkpt lat="43.71776" lon="5.97106">
        <ele>362.9</ele>
        <time>2023-06-11T12:07:04Z</time>
      </trkpt>
      <trkpt lat="43.71775" lon="5.97107">
        <ele>362.9</ele>
        <time>2023-06-11T12:07:05Z</time>
      </trkpt>
      <trkpt lat="43.71774" lon="5.97108">
        <ele>362.9</ele>
        <time>2023-06-11T12:07:06Z</time>
      </trkpt>
      <trkpt lat="43.71773" lon="5.97109">
        <ele>362.9</ele>
        <time>2023-06-11T12:07:07Z</time>
      </trkpt>
      <trkpt lat="43.71771" lon="5.9711">
        <ele>362.9</ele>
        <time>2023-06-11T12:07:08Z</time>
      </trkpt>
      <trkpt lat="43.7177" lon="5.9711">
        <ele>362.9</ele>
        <time>2023-06-11T12:07:09Z</time>
      </trkpt>
      <trkpt lat="43.71769" lon="5.97111">
        <ele>362.9</ele>
        <time>2023-06-11T12:07:10Z</time>
      </trkpt>
      <trkpt lat="43.71768" lon="5.97112">
        <ele>362.9</ele>
        <time>2023-06-11T12:07:11Z</time>
      </trkpt>
      <trkpt lat="43.71766" lon="5.97113">
        <ele>362.9</ele>
        <time>2023-06-11T12:07:12Z</time>
      </trkpt>
      <trkpt lat="43.71765" lon="5.97113">
        <ele>363</ele>
        <time>2023-06-11T12:07:13Z</time>
      </trkpt>
      <trkpt lat="43.71764" lon="5.97114">
        <ele>363</ele>
        <time>2023-06-11T12:07:14Z</time>
      </trkpt>
      <trkpt lat="43.71763" lon="5.97115">
        <ele>363</ele>
        <time>2023-06-11T12:07:15Z</time>
      </trkpt>
      <trkpt lat="43.71761" lon="5.97116">
        <ele>363.1</ele>
        <time>2023-06-11T12:07:16Z</time>
      </trkpt>
      <trkpt lat="43.7176" lon="5.97116">
        <ele>363.1</ele>
        <time>2023-06-11T12:07:17Z</time>
      </trkpt>
      <trkpt lat="43.71759" lon="5.97117">
        <ele>363.2</ele>
        <time>2023-06-11T12:07:18Z</time>
      </trkpt>
      <trkpt lat="43.71757" lon="5.97118">
        <ele>363.2</ele>
        <time>2023-06-11T12:07:19Z</time>
      </trkpt>
      <trkpt lat="43.71756" lon="5.97119">
        <ele>363.2</ele>
        <time>2023-06-11T12:07:20Z</time>
      </trkpt>
      <trkpt lat="43.71755" lon="5.9712">
        <ele>363.3</ele>
        <time>2023-06-11T12:07:21Z</time>
      </trkpt>
      <trkpt lat="43.71754" lon="5.97121">
        <ele>363.3</ele>
        <time>2023-06-11T12:07:22Z</time>
      </trkpt>
      <trkpt lat="43.71753" lon="5.97121">
        <ele>363.3</ele>
        <time>2023-06-11T12:07:23Z</time>
      </trkpt>
      <trkpt lat="43.71751" lon="5.97122">
        <ele>363.3</ele>
        <time>2023-06-11T12:07:24Z</time>
      </trkpt>
      <trkpt lat="43.7175" lon="5.97123">
        <ele>363.4</ele>
        <time>2023-06-11T12:07:25Z</time>
      </trkpt>
      <trkpt lat="43.71749" lon="5.97124">
        <ele>363.4</ele>
        <time>2023-06-11T12:07:26Z</time>
      </trkpt>
      <trkpt lat="43.71748" lon="5.97125">
        <ele>363.4</ele>
        <time>2023-06-11T12:07:27Z</time>
      </trkpt>
      <trkpt lat="43.71747" lon="5.97126">
        <ele>363.4</ele>
        <time>2023-06-11T12:07:28Z</time>
      </trkpt>
      <trkpt lat="43.71746" lon="5.97126">
        <ele>363.4</ele>
        <time>2023-06-11T12:07:29Z</time>
      </trkpt>
      <trkpt lat="43.71744" lon="5.97127">
        <ele>363.4</ele>
        <time>2023-06-11T12:07:30Z</time>
      </trkpt>
      <trkpt lat="43.71743" lon="5.97128">
        <ele>363.4</ele>
        <time>2023-06-11T12:07:31Z</time>
      </trkpt>
      <trkpt lat="43.71742" lon="5.97129">
        <ele>363.4</ele>
        <time>2023-06-11T12:07:32Z</time>
      </trkpt>
      <trkpt lat="43.71741" lon="5.9713">
        <ele>363.4</ele>
        <time>2023-06-11T12:07:33Z</time>
      </trkpt>
      <trkpt lat="43.71739" lon="5.9713">
        <ele>363.4</ele>
        <time>2023-06-11T12:07:34Z</time>
      </trkpt>
      <trkpt lat="43.71738" lon="5.97131">
        <ele>363.4</ele>
        <time>2023-06-11T12:07:35Z</time>
      </trkpt>
      <trkpt lat="43.71737" lon="5.97132">
        <ele>363.4</ele>
        <time>2023-06-11T12:07:36Z</time>
      </trkpt>
      <trkpt lat="43.71735" lon="5.97133">
        <ele>363.4</ele>
        <time>2023-06-11T12:07:37Z</time>
      </trkpt>
      <trkpt lat="43.71734" lon="5.97134">
        <ele>363.3</ele>
        <time>2023-06-11T12:07:38Z</time>
      </trkpt>
      <trkpt lat="43.71733" lon="5.97134">
        <ele>363.3</ele>
        <time>2023-06-11T12:07:39Z</time>
      </trkpt>
      <trkpt lat="43.71732" lon="5.97135">
        <ele>363.3</ele>
        <time>2023-06-11T12:07:40Z</time>
      </trkpt>
      <trkpt lat="43.7173" lon="5.97136">
        <ele>363.3</ele>
        <time>2023-06-11T12:07:41Z</time>
      </trkpt>
      <trkpt lat="43.71729" lon="5.97137">
        <ele>363.3</ele>
        <time>2023-06-11T12:07:42Z</time>
      </trkpt>
      <trkpt lat="43.71728" lon="5.97138">
        <ele>363.3</ele>
        <time>2023-06-11T12:07:43Z</time>
      </trkpt>
      <trkpt lat="43.71726" lon="5.97138">
        <ele>363.3</ele>
        <time>2023-06-11T12:07:44Z</time>
      </trkpt>
      <trkpt lat="43.71725" lon="5.97139">
        <ele>363.4</ele>
        <time>2023-06-11T12:07:45Z</time>
      </trkpt>
      <trkpt lat="43.71724" lon="5.9714">
        <ele>363.5</ele>
        <time>2023-06-11T12:07:46Z</time>
      </trkpt>
      <trkpt lat="43.71722" lon="5.97141">
        <ele>363.5</ele>
        <time>2023-06-11T12:07:47Z</time>
      </trkpt>
      <trkpt lat="43.71721" lon="5.97142">
        <ele>363.5</ele>
        <time>2023-06-11T12:07:48Z</time>
      </trkpt>
      <trkpt lat="43.7172" lon="5.97143">
        <ele>363.5</ele>
        <time>2023-06-11T12:07:49Z</time>
      </trkpt>
      <trkpt lat="43.71719" lon="5.97143">
        <ele>363.5</ele>
        <time>2023-06-11T12:07:50Z</time>
      </trkpt>
      <trkpt lat="43.71717" lon="5.97144">
        <ele>363.5</ele>
        <time>2023-06-11T12:07:51Z</time>
      </trkpt>
      <trkpt lat="43.71716" lon="5.97145">
        <ele>363.5</ele>
        <time>2023-06-11T12:07:52Z</time>
      </trkpt>
      <trkpt lat="43.71715" lon="5.97146">
        <ele>363.5</ele>
        <time>2023-06-11T12:07:53Z</time>
      </trkpt>
      <trkpt lat="43.71714" lon="5.97147">
        <ele>363.5</ele>
        <time>2023-06-11T12:07:54Z</time>
      </trkpt>
      <trkpt lat="43.71712" lon="5.97147">
        <ele>363.5</ele>
        <time>2023-06-11T12:07:55Z</time>
      </trkpt>
      <trkpt lat="43.71711" lon="5.97148">
        <ele>363.5</ele>
        <time>2023-06-11T12:07:56Z</time>
      </trkpt>
      <trkpt lat="43.7171" lon="5.97149">
        <ele>363.4</ele>
        <time>2023-06-11T12:07:57Z</time>
      </trkpt>
      <trkpt lat="43.71709" lon="5.9715">
        <ele>363.4</ele>
        <time>2023-06-11T12:07:58Z</time>
      </trkpt>
      <trkpt lat="43.71708" lon="5.97151">
        <ele>363.5</ele>
        <time>2023-06-11T12:07:59Z</time>
      </trkpt>
      <trkpt lat="43.71707" lon="5.97152">
        <ele>363.5</ele>
        <time>2023-06-11T12:08:00Z</time>
      </trkpt>
      <trkpt lat="43.71706" lon="5.97153">
        <ele>363.4</ele>
        <time>2023-06-11T12:08:01Z</time>
      </trkpt>
      <trkpt lat="43.71705" lon="5.97154">
        <ele>363.3</ele>
        <time>2023-06-11T12:08:02Z</time>
      </trkpt>
      <trkpt lat="43.71704" lon="5.97155">
        <ele>363.4</ele>
        <time>2023-06-11T12:08:03Z</time>
      </trkpt>
      <trkpt lat="43.71702" lon="5.97156">
        <ele>363.4</ele>
        <time>2023-06-11T12:08:04Z</time>
      </trkpt>
      <trkpt lat="43.71701" lon="5.97157">
        <ele>363.4</ele>
        <time>2023-06-11T12:08:05Z</time>
      </trkpt>
      <trkpt lat="43.717" lon="5.97158">
        <ele>363.4</ele>
        <time>2023-06-11T12:08:06Z</time>
      </trkpt>
      <trkpt lat="43.71699" lon="5.97159">
        <ele>363.3</ele>
        <time>2023-06-11T12:08:07Z</time>
      </trkpt>
      <trkpt lat="43.71698" lon="5.9716">
        <ele>363.3</ele>
        <time>2023-06-11T12:08:08Z</time>
      </trkpt>
      <trkpt lat="43.71697" lon="5.97161">
        <ele>363.3</ele>
        <time>2023-06-11T12:08:09Z</time>
      </trkpt>
      <trkpt lat="43.71696" lon="5.97162">
        <ele>363.2</ele>
        <time>2023-06-11T12:08:10Z</time>
      </trkpt>
      <trkpt lat="43.71695" lon="5.97163">
        <ele>363.1</ele>
        <time>2023-06-11T12:08:11Z</time>
      </trkpt>
      <trkpt lat="43.71693" lon="5.97164">
        <ele>363.1</ele>
        <time>2023-06-11T12:08:12Z</time>
      </trkpt>
      <trkpt lat="43.71692" lon="5.97165">
        <ele>363.1</ele>
        <time>2023-06-11T12:08:13Z</time>
      </trkpt>
      <trkpt lat="43.71691" lon="5.97166">
        <ele>363.1</ele>
        <time>2023-06-11T12:08:14Z</time>
      </trkpt>
      <trkpt lat="43.7169" lon="5.97167">
        <ele>363.1</ele>
        <time>2023-06-11T12:08:15Z</time>
      </trkpt>
      <trkpt lat="43.71689" lon="5.97168">
        <ele>363</ele>
        <time>2023-06-11T12:08:16Z</time>
      </trkpt>
      <trkpt lat="43.71688" lon="5.97169">
        <ele>363</ele>
        <time>2023-06-11T12:08:17Z</time>
      </trkpt>
      <trkpt lat="43.71687" lon="5.97171">
        <ele>363.1</ele>
        <time>2023-06-11T12:08:18Z</time>
      </trkpt>
      <trkpt lat="43.71686" lon="5.97172">
        <ele>363.1</ele>
        <time>2023-06-11T12:08:19Z</time>
      </trkpt>
      <trkpt lat="43.71685" lon="5.97173">
        <ele>363.1</ele>
        <time>2023-06-11T12:08:20Z</time>
      </trkpt>
      <trkpt lat="43.71684" lon="5.97173">
        <ele>363.1</ele>
        <time>2023-06-11T12:08:21Z</time>
      </trkpt>
      <trkpt lat="43.71682" lon="5.97174">
        <ele>363.1</ele>
        <time>2023-06-11T12:08:22Z</time>
      </trkpt>
      <trkpt lat="43.71681" lon="5.97175">
        <ele>363.1</ele>
        <time>2023-06-11T12:08:23Z</time>
      </trkpt>
      <trkpt lat="43.7168" lon="5.97175">
        <ele>363.1</ele>
        <time>2023-06-11T12:08:24Z</time>
      </trkpt>
      <trkpt lat="43.71679" lon="5.97176">
        <ele>363.1</ele>
        <time>2023-06-11T12:08:25Z</time>
      </trkpt>
      <trkpt lat="43.71678" lon="5.97176">
        <ele>363.2</ele>
        <time>2023-06-11T12:08:26Z</time>
      </trkpt>
      <trkpt lat="43.71676" lon="5.97177">
        <ele>363.2</ele>
        <time>2023-06-11T12:08:27Z</time>
      </trkpt>
      <trkpt lat="43.71675" lon="5.97177">
        <ele>363.2</ele>
        <time>2023-06-11T12:08:28Z</time>
      </trkpt>
      <trkpt lat="43.71674" lon="5.97177">
        <ele>363.2</ele>
        <time>2023-06-11T12:08:29Z</time>
      </trkpt>
      <trkpt lat="43.71673" lon="5.97178">
        <ele>363.2</ele>
        <time>2023-06-11T12:08:30Z</time>
      </trkpt>
      <trkpt lat="43.71672" lon="5.97179">
        <ele>363.2</ele>
        <time>2023-06-11T12:08:31Z</time>
      </trkpt>
      <trkpt lat="43.71671" lon="5.9718">
        <ele>363.2</ele>
        <time>2023-06-11T12:08:32Z</time>
      </trkpt>
      <trkpt lat="43.7167" lon="5.97181">
        <ele>363.2</ele>
        <time>2023-06-11T12:08:33Z</time>
      </trkpt>
      <trkpt lat="43.71668" lon="5.97182">
        <ele>363.1</ele>
        <time>2023-06-11T12:08:34Z</time>
      </trkpt>
      <trkpt lat="43.71668" lon="5.97184">
        <ele>363.2</ele>
        <time>2023-06-11T12:08:35Z</time>
      </trkpt>
      <trkpt lat="43.71667" lon="5.97185">
        <ele>363.2</ele>
        <time>2023-06-11T12:08:36Z</time>
      </trkpt>
      <trkpt lat="43.71666" lon="5.97187">
        <ele>363.3</ele>
        <time>2023-06-11T12:08:37Z</time>
      </trkpt>
      <trkpt lat="43.71665" lon="5.97188">
        <ele>363.3</ele>
        <time>2023-06-11T12:08:38Z</time>
      </trkpt>
      <trkpt lat="43.71664" lon="5.9719">
        <ele>363.2</ele>
        <time>2023-06-11T12:08:39Z</time>
      </trkpt>
      <trkpt lat="43.71663" lon="5.97192">
        <ele>363.2</ele>
        <time>2023-06-11T12:08:40Z</time>
      </trkpt>
      <trkpt lat="43.71663" lon="5.97193">
        <ele>363.2</ele>
        <time>2023-06-11T12:08:41Z</time>
      </trkpt>
      <trkpt lat="43.71662" lon="5.97195">
        <ele>363.2</ele>
        <time>2023-06-11T12:08:42Z</time>
      </trkpt>
      <trkpt lat="43.71661" lon="5.97197">
        <ele>363.2</ele>
        <time>2023-06-11T12:08:43Z</time>
      </trkpt>
      <trkpt lat="43.7166" lon="5.97198">
        <ele>363.1</ele>
        <time>2023-06-11T12:08:44Z</time>
      </trkpt>
      <trkpt lat="43.7166" lon="5.972">
        <ele>363.1</ele>
        <time>2023-06-11T12:08:45Z</time>
      </trkpt>
      <trkpt lat="43.71659" lon="5.97201">
        <ele>363.1</ele>
        <time>2023-06-11T12:08:46Z</time>
      </trkpt>
      <trkpt lat="43.71658" lon="5.97203">
        <ele>363.1</ele>
        <time>2023-06-11T12:08:47Z</time>
      </trkpt>
      <trkpt lat="43.71657" lon="5.97205">
        <ele>363.1</ele>
        <time>2023-06-11T12:08:48Z</time>
      </trkpt>
      <trkpt lat="43.71656" lon="5.97206">
        <ele>363.1</ele>
        <time>2023-06-11T12:08:49Z</time>
      </trkpt>
      <trkpt lat="43.71655" lon="5.97207">
        <ele>363.1</ele>
        <time>2023-06-11T12:08:50Z</time>
      </trkpt>
      <trkpt lat="43.71653" lon="5.97209">
        <ele>363.1</ele>
        <time>2023-06-11T12:08:51Z</time>
      </trkpt>
      <trkpt lat="43.71652" lon="5.9721">
        <ele>363.2</ele>
        <time>2023-06-11T12:08:52Z</time>
      </trkpt>
      <trkpt lat="43.71651" lon="5.97211">
        <ele>363.2</ele>
        <time>2023-06-11T12:08:53Z</time>
      </trkpt>
      <trkpt lat="43.7165" lon="5.97212">
        <ele>363.2</ele>
        <time>2023-06-11T12:08:54Z</time>
      </trkpt>
      <trkpt lat="43.71649" lon="5.97213">
        <ele>363.2</ele>
        <time>2023-06-11T12:08:55Z</time>
      </trkpt>
      <trkpt lat="43.71648" lon="5.97213">
        <ele>363.3</ele>
        <time>2023-06-11T12:08:56Z</time>
      </trkpt>
      <trkpt lat="43.71647" lon="5.97214">
        <ele>363.4</ele>
        <time>2023-06-11T12:08:57Z</time>
      </trkpt>
      <trkpt lat="43.71645" lon="5.97215">
        <ele>363.3</ele>
        <time>2023-06-11T12:08:58Z</time>
      </trkpt>
      <trkpt lat="43.71644" lon="5.97216">
        <ele>363.3</ele>
        <time>2023-06-11T12:08:59Z</time>
      </trkpt>
      <trkpt lat="43.71643" lon="5.97216">
        <ele>363.3</ele>
        <time>2023-06-11T12:09:00Z</time>
      </trkpt>
      <trkpt lat="43.71642" lon="5.97217">
        <ele>363.3</ele>
        <time>2023-06-11T12:09:01Z</time>
      </trkpt>
      <trkpt lat="43.7164" lon="5.97218">
        <ele>363.2</ele>
        <time>2023-06-11T12:09:02Z</time>
      </trkpt>
      <trkpt lat="43.71639" lon="5.97218">
        <ele>363.3</ele>
        <time>2023-06-11T12:09:03Z</time>
      </trkpt>
      <trkpt lat="43.71638" lon="5.97219">
        <ele>363.4</ele>
        <time>2023-06-11T12:09:04Z</time>
      </trkpt>
      <trkpt lat="43.71636" lon="5.9722">
        <ele>363.4</ele>
        <time>2023-06-11T12:09:05Z</time>
      </trkpt>
      <trkpt lat="43.71635" lon="5.9722">
        <ele>363.3</ele>
        <time>2023-06-11T12:09:06Z</time>
      </trkpt>
      <trkpt lat="43.71634" lon="5.97221">
        <ele>363.3</ele>
        <time>2023-06-11T12:09:07Z</time>
      </trkpt>
      <trkpt lat="43.71633" lon="5.97222">
        <ele>363.3</ele>
        <time>2023-06-11T12:09:08Z</time>
      </trkpt>
      <trkpt lat="43.71631" lon="5.97223">
        <ele>363.1</ele>
        <time>2023-06-11T12:09:09Z</time>
      </trkpt>
      <trkpt lat="43.7163" lon="5.97223">
        <ele>362.9</ele>
        <time>2023-06-11T12:09:10Z</time>
      </trkpt>
      <trkpt lat="43.71629" lon="5.97224">
        <ele>362.9</ele>
        <time>2023-06-11T12:09:11Z</time>
      </trkpt>
      <trkpt lat="43.71628" lon="5.97225">
        <ele>362.8</ele>
        <time>2023-06-11T12:09:12Z</time>
      </trkpt>
      <trkpt lat="43.71627" lon="5.97225">
        <ele>362.8</ele>
        <time>2023-06-11T12:09:13Z</time>
      </trkpt>
      <trkpt lat="43.71626" lon="5.97226">
        <ele>362.7</ele>
        <time>2023-06-11T12:09:14Z</time>
      </trkpt>
      <trkpt lat="43.71625" lon="5.97227">
        <ele>362.7</ele>
        <time>2023-06-11T12:09:15Z</time>
      </trkpt>
      <trkpt lat="43.71624" lon="5.97228">
        <ele>362.7</ele>
        <time>2023-06-11T12:09:16Z</time>
      </trkpt>
      <trkpt lat="43.71623" lon="5.97228">
        <ele>362.6</ele>
        <time>2023-06-11T12:09:17Z</time>
      </trkpt>
      <trkpt lat="43.71622" lon="5.97229">
        <ele>362.6</ele>
        <time>2023-06-11T12:09:18Z</time>
      </trkpt>
      <trkpt lat="43.71621" lon="5.9723">
        <ele>362.6</ele>
        <time>2023-06-11T12:09:19Z</time>
      </trkpt>
      <trkpt lat="43.7162" lon="5.97231">
        <ele>362.7</ele>
        <time>2023-06-11T12:09:20Z</time>
      </trkpt>
      <trkpt lat="43.71619" lon="5.97232">
        <ele>362.7</ele>
        <time>2023-06-11T12:09:21Z</time>
      </trkpt>
      <trkpt lat="43.71618" lon="5.97233">
        <ele>362.7</ele>
        <time>2023-06-11T12:09:22Z</time>
      </trkpt>
      <trkpt lat="43.71617" lon="5.97234">
        <ele>362.7</ele>
        <time>2023-06-11T12:09:23Z</time>
      </trkpt>
      <trkpt lat="43.71616" lon="5.97235">
        <ele>362.8</ele>
        <time>2023-06-11T12:09:24Z</time>
      </trkpt>
      <trkpt lat="43.71615" lon="5.97236">
        <ele>362.8</ele>
        <time>2023-06-11T12:09:25Z</time>
      </trkpt>
      <trkpt lat="43.71615" lon="5.97237">
        <ele>362.7</ele>
        <time>2023-06-11T12:09:26Z</time>
      </trkpt>
      <trkpt lat="43.71614" lon="5.97237">
        <ele>362.7</ele>
        <time>2023-06-11T12:09:27Z</time>
      </trkpt>
      <trkpt lat="43.71613" lon="5.97238">
        <ele>362.8</ele>
        <time>2023-06-11T12:09:28Z</time>
      </trkpt>
      <trkpt lat="43.71612" lon="5.97239">
        <ele>362.8</ele>
        <time>2023-06-11T12:09:29Z</time>
      </trkpt>
      <trkpt lat="43.71611" lon="5.9724">
        <ele>362.8</ele>
        <time>2023-06-11T12:09:30Z</time>
      </trkpt>
      <trkpt lat="43.7161" lon="5.97241">
        <ele>363</ele>
        <time>2023-06-11T12:09:31Z</time>
      </trkpt>
      <trkpt lat="43.7161" lon="5.97242">
        <ele>363</ele>
        <time>2023-06-11T12:09:32Z</time>
      </trkpt>
      <trkpt lat="43.71609" lon="5.97243">
        <ele>363</ele>
        <time>2023-06-11T12:09:33Z</time>
      </trkpt>
      <trkpt lat="43.71608" lon="5.97244">
        <ele>363</ele>
        <time>2023-06-11T12:09:34Z</time>
      </trkpt>
      <trkpt lat="43.71607" lon="5.97245">
        <ele>363.1</ele>
        <time>2023-06-11T12:09:35Z</time>
      </trkpt>
      <trkpt lat="43.71606" lon="5.97245">
        <ele>363.1</ele>
        <time>2023-06-11T12:09:36Z</time>
      </trkpt>
      <trkpt lat="43.71605" lon="5.97246">
        <ele>363.2</ele>
        <time>2023-06-11T12:09:37Z</time>
      </trkpt>
      <trkpt lat="43.71604" lon="5.97247">
        <ele>363.2</ele>
        <time>2023-06-11T12:09:38Z</time>
      </trkpt>
      <trkpt lat="43.71603" lon="5.97248">
        <ele>363.2</ele>
        <time>2023-06-11T12:09:39Z</time>
      </trkpt>
      <trkpt lat="43.71603" lon="5.97249">
        <ele>363.1</ele>
        <time>2023-06-11T12:09:40Z</time>
      </trkpt>
      <trkpt lat="43.71602" lon="5.97249">
        <ele>363.1</ele>
        <time>2023-06-11T12:09:41Z</time>
      </trkpt>
      <trkpt lat="43.71601" lon="5.9725">
        <ele>363.1</ele>
        <time>2023-06-11T12:09:42Z</time>
      </trkpt>
      <trkpt lat="43.716" lon="5.97251">
        <ele>363.1</ele>
        <time>2023-06-11T12:09:43Z</time>
      </trkpt>
      <trkpt lat="43.71599" lon="5.97251">
        <ele>363.1</ele>
        <time>2023-06-11T12:09:44Z</time>
      </trkpt>
      <trkpt lat="43.71598" lon="5.97252">
        <ele>363.2</ele>
        <time>2023-06-11T12:09:45Z</time>
      </trkpt>
      <trkpt lat="43.71597" lon="5.97253">
        <ele>363.2</ele>
        <time>2023-06-11T12:09:46Z</time>
      </trkpt>
      <trkpt lat="43.71596" lon="5.97254">
        <ele>363.2</ele>
        <time>2023-06-11T12:09:47Z</time>
      </trkpt>
      <trkpt lat="43.71595" lon="5.97254">
        <ele>363.1</ele>
        <time>2023-06-11T12:09:48Z</time>
      </trkpt>
      <trkpt lat="43.71594" lon="5.97255">
        <ele>363.1</ele>
        <time>2023-06-11T12:09:49Z</time>
      </trkpt>
      <trkpt lat="43.71593" lon="5.97256">
        <ele>363.2</ele>
        <time>2023-06-11T12:09:50Z</time>
      </trkpt>
      <trkpt lat="43.71592" lon="5.97257">
        <ele>363.1</ele>
        <time>2023-06-11T12:09:51Z</time>
      </trkpt>
      <trkpt lat="43.71591" lon="5.97257">
        <ele>363.1</ele>
        <time>2023-06-11T12:09:52Z</time>
      </trkpt>
      <trkpt lat="43.7159" lon="5.97258">
        <ele>363.1</ele>
        <time>2023-06-11T12:09:53Z</time>
      </trkpt>
      <trkpt lat="43.71589" lon="5.97259">
        <ele>363.1</ele>
        <time>2023-06-11T12:09:54Z</time>
      </trkpt>
      <trkpt lat="43.71588" lon="5.97259">
        <ele>363.2</ele>
        <time>2023-06-11T12:09:55Z</time>
      </trkpt>
      <trkpt lat="43.71587" lon="5.9726">
        <ele>363.2</ele>
        <time>2023-06-11T12:09:56Z</time>
      </trkpt>
      <trkpt lat="43.71586" lon="5.97261">
        <ele>363.2</ele>
        <time>2023-06-11T12:09:57Z</time>
      </trkpt>
      <trkpt lat="43.71585" lon="5.97262">
        <ele>363.3</ele>
        <time>2023-06-11T12:09:58Z</time>
      </trkpt>
      <trkpt lat="43.71583" lon="5.97262">
        <ele>363.3</ele>
        <time>2023-06-11T12:09:59Z</time>
      </trkpt>
      <trkpt lat="43.71582" lon="5.97263">
        <ele>363.3</ele>
        <time>2023-06-11T12:10:00Z</time>
      </trkpt>
      <trkpt lat="43.71581" lon="5.97263">
        <ele>363.3</ele>
        <time>2023-06-11T12:10:01Z</time>
      </trkpt>
      <trkpt lat="43.7158" lon="5.97264">
        <ele>363.3</ele>
        <time>2023-06-11T12:10:02Z</time>
      </trkpt>
      <trkpt lat="43.71579" lon="5.97265">
        <ele>363.3</ele>
        <time>2023-06-11T12:10:03Z</time>
      </trkpt>
      <trkpt lat="43.71578" lon="5.97265">
        <ele>363.3</ele>
        <time>2023-06-11T12:10:04Z</time>
      </trkpt>
      <trkpt lat="43.71577" lon="5.97266">
        <ele>363.2</ele>
        <time>2023-06-11T12:10:05Z</time>
      </trkpt>
      <trkpt lat="43.71576" lon="5.97267">
        <ele>363.2</ele>
        <time>2023-06-11T12:10:06Z</time>
      </trkpt>
      <trkpt lat="43.71575" lon="5.97267">
        <ele>363.2</ele>
        <time>2023-06-11T12:10:07Z</time>
      </trkpt>
      <trkpt lat="43.71573" lon="5.97268">
        <ele>363.2</ele>
        <time>2023-06-11T12:10:08Z</time>
      </trkpt>
      <trkpt lat="43.71572" lon="5.97269">
        <ele>363.2</ele>
        <time>2023-06-11T12:10:09Z</time>
      </trkpt>
      <trkpt lat="43.71571" lon="5.97269">
        <ele>363.2</ele>
        <time>2023-06-11T12:10:10Z</time>
      </trkpt>
      <trkpt lat="43.7157" lon="5.9727">
        <ele>363.2</ele>
        <time>2023-06-11T12:10:11Z</time>
      </trkpt>
      <trkpt lat="43.71569" lon="5.97271">
        <ele>363.2</ele>
        <time>2023-06-11T12:10:12Z</time>
      </trkpt>
      <trkpt lat="43.71569" lon="5.97272">
        <ele>363.3</ele>
        <time>2023-06-11T12:10:13Z</time>
      </trkpt>
      <trkpt lat="43.71568" lon="5.97273">
        <ele>363.2</ele>
        <time>2023-06-11T12:10:14Z</time>
      </trkpt>
      <trkpt lat="43.71567" lon="5.97274">
        <ele>363.2</ele>
        <time>2023-06-11T12:10:15Z</time>
      </trkpt>
      <trkpt lat="43.71566" lon="5.97275">
        <ele>363.2</ele>
        <time>2023-06-11T12:10:16Z</time>
      </trkpt>
      <trkpt lat="43.71565" lon="5.97276">
        <ele>363.2</ele>
        <time>2023-06-11T12:10:17Z</time>
      </trkpt>
      <trkpt lat="43.71564" lon="5.97277">
        <ele>363.2</ele>
        <time>2023-06-11T12:10:18Z</time>
      </trkpt>
      <trkpt lat="43.71563" lon="5.97278">
        <ele>363.2</ele>
        <time>2023-06-11T12:10:19Z</time>
      </trkpt>
      <trkpt lat="43.71562" lon="5.97279">
        <ele>363.2</ele>
        <time>2023-06-11T12:10:20Z</time>
      </trkpt>
      <trkpt lat="43.71561" lon="5.9728">
        <ele>363.3</ele>
        <time>2023-06-11T12:10:21Z</time>
      </trkpt>
      <trkpt lat="43.7156" lon="5.97281">
        <ele>363.3</ele>
        <time>2023-06-11T12:10:22Z</time>
      </trkpt>
      <trkpt lat="43.71559" lon="5.97283">
        <ele>363.3</ele>
        <time>2023-06-11T12:10:23Z</time>
      </trkpt>
      <trkpt lat="43.71558" lon="5.97284">
        <ele>363.4</ele>
        <time>2023-06-11T12:10:24Z</time>
      </trkpt>
      <trkpt lat="43.71557" lon="5.97285">
        <ele>363.4</ele>
        <time>2023-06-11T12:10:25Z</time>
      </trkpt>
      <trkpt lat="43.71556" lon="5.97286">
        <ele>363.4</ele>
        <time>2023-06-11T12:10:26Z</time>
      </trkpt>
      <trkpt lat="43.71555" lon="5.97287">
        <ele>363.4</ele>
        <time>2023-06-11T12:10:27Z</time>
      </trkpt>
      <trkpt lat="43.71554" lon="5.97289">
        <ele>363.4</ele>
        <time>2023-06-11T12:10:28Z</time>
      </trkpt>
      <trkpt lat="43.71554" lon="5.9729">
        <ele>363.3</ele>
        <time>2023-06-11T12:10:29Z</time>
      </trkpt>
      <trkpt lat="43.71553" lon="5.97291">
        <ele>363.3</ele>
        <time>2023-06-11T12:10:30Z</time>
      </trkpt>
      <trkpt lat="43.71552" lon="5.97292">
        <ele>363.3</ele>
        <time>2023-06-11T12:10:31Z</time>
      </trkpt>
      <trkpt lat="43.71551" lon="5.97293">
        <ele>363.3</ele>
        <time>2023-06-11T12:10:32Z</time>
      </trkpt>
      <trkpt lat="43.7155" lon="5.97294">
        <ele>363.3</ele>
        <time>2023-06-11T12:10:33Z</time>
      </trkpt>
      <trkpt lat="43.71549" lon="5.97295">
        <ele>363.4</ele>
        <time>2023-06-11T12:10:34Z</time>
      </trkpt>
      <trkpt lat="43.71548" lon="5.97296">
        <ele>363.5</ele>
        <time>2023-06-11T12:10:35Z</time>
      </trkpt>
      <trkpt lat="43.71547" lon="5.97297">
        <ele>363.4</ele>
        <time>2023-06-11T12:10:36Z</time>
      </trkpt>
      <trkpt lat="43.71546" lon="5.97298">
        <ele>363.4</ele>
        <time>2023-06-11T12:10:37Z</time>
      </trkpt>
      <trkpt lat="43.71545" lon="5.97299">
        <ele>363.5</ele>
        <time>2023-06-11T12:10:38Z</time>
      </trkpt>
      <trkpt lat="43.71544" lon="5.973">
        <ele>363.5</ele>
        <time>2023-06-11T12:10:39Z</time>
      </trkpt>
      <trkpt lat="43.71543" lon="5.97301">
        <ele>363.5</ele>
        <time>2023-06-11T12:10:40Z</time>
      </trkpt>
      <trkpt lat="43.71542" lon="5.97302">
        <ele>363.4</ele>
        <time>2023-06-11T12:10:41Z</time>
      </trkpt>
      <trkpt lat="43.71541" lon="5.97303">
        <ele>363.4</ele>
        <time>2023-06-11T12:10:42Z</time>
      </trkpt>
      <trkpt lat="43.7154" lon="5.97304">
        <ele>363.3</ele>
        <time>2023-06-11T12:10:43Z</time>
      </trkpt>
      <trkpt lat="43.71539" lon="5.97305">
        <ele>363.3</ele>
        <time>2023-06-11T12:10:44Z</time>
      </trkpt>
      <trkpt lat="43.71538" lon="5.97306">
        <ele>363.3</ele>
        <time>2023-06-11T12:10:45Z</time>
      </trkpt>
      <trkpt lat="43.71538" lon="5.97307">
        <ele>363.3</ele>
        <time>2023-06-11T12:10:46Z</time>
      </trkpt>
      <trkpt lat="43.71537" lon="5.97308">
        <ele>363.2</ele>
        <time>2023-06-11T12:10:47Z</time>
      </trkpt>
      <trkpt lat="43.71536" lon="5.97309">
        <ele>363.1</ele>
        <time>2023-06-11T12:10:48Z</time>
      </trkpt>
      <trkpt lat="43.71535" lon="5.9731">
        <ele>363</ele>
        <time>2023-06-11T12:10:49Z</time>
      </trkpt>
      <trkpt lat="43.71534" lon="5.97311">
        <ele>363</ele>
        <time>2023-06-11T12:10:50Z</time>
      </trkpt>
      <trkpt lat="43.71534" lon="5.97312">
        <ele>363</ele>
        <time>2023-06-11T12:10:51Z</time>
      </trkpt>
      <trkpt lat="43.71533" lon="5.97314">
        <ele>363.1</ele>
        <time>2023-06-11T12:10:52Z</time>
      </trkpt>
      <trkpt lat="43.71533" lon="5.97315">
        <ele>363.2</ele>
        <time>2023-06-11T12:10:53Z</time>
      </trkpt>
      <trkpt lat="43.71533" lon="5.97316">
        <ele>363.2</ele>
        <time>2023-06-11T12:10:54Z</time>
      </trkpt>
      <trkpt lat="43.71532" lon="5.97317">
        <ele>363.2</ele>
        <time>2023-06-11T12:10:55Z</time>
      </trkpt>
      <trkpt lat="43.71532" lon="5.97319">
        <ele>363.2</ele>
        <time>2023-06-11T12:10:56Z</time>
      </trkpt>
      <trkpt lat="43.71532" lon="5.9732">
        <ele>363.1</ele>
        <time>2023-06-11T12:10:57Z</time>
      </trkpt>
      <trkpt lat="43.71532" lon="5.97321">
        <ele>363.1</ele>
        <time>2023-06-11T12:10:58Z</time>
      </trkpt>
      <trkpt lat="43.71532" lon="5.97322">
        <ele>363.1</ele>
        <time>2023-06-11T12:10:59Z</time>
      </trkpt>
      <trkpt lat="43.71532" lon="5.97323">
        <ele>363.2</ele>
        <time>2023-06-11T12:11:00Z</time>
      </trkpt>
      <trkpt lat="43.71531" lon="5.97324">
        <ele>363.3</ele>
        <time>2023-06-11T12:11:01Z</time>
      </trkpt>
      <trkpt lat="43.71531" lon="5.97326">
        <ele>363.3</ele>
        <time>2023-06-11T12:11:02Z</time>
      </trkpt>
      <trkpt lat="43.71531" lon="5.97327">
        <ele>363.4</ele>
        <time>2023-06-11T12:11:03Z</time>
      </trkpt>
      <trkpt lat="43.71531" lon="5.97328">
        <ele>363.5</ele>
        <time>2023-06-11T12:11:04Z</time>
      </trkpt>
      <trkpt lat="43.71531" lon="5.97329">
        <ele>363.5</ele>
        <time>2023-06-11T12:11:05Z</time>
      </trkpt>
      <trkpt lat="43.71531" lon="5.9733">
        <ele>363.5</ele>
        <time>2023-06-11T12:11:06Z</time>
      </trkpt>
      <trkpt lat="43.7153" lon="5.97332">
        <ele>363.5</ele>
        <time>2023-06-11T12:11:07Z</time>
      </trkpt>
      <trkpt lat="43.7153" lon="5.97333">
        <ele>363.6</ele>
        <time>2023-06-11T12:11:08Z</time>
      </trkpt>
      <trkpt lat="43.7153" lon="5.97334">
        <ele>363.6</ele>
        <time>2023-06-11T12:11:09Z</time>
      </trkpt>
      <trkpt lat="43.71529" lon="5.97335">
        <ele>363.5</ele>
        <time>2023-06-11T12:11:10Z</time>
      </trkpt>
      <trkpt lat="43.71529" lon="5.97337">
        <ele>363.5</ele>
        <time>2023-06-11T12:11:11Z</time>
      </trkpt>
      <trkpt lat="43.71529" lon="5.97338">
        <ele>363.4</ele>
        <time>2023-06-11T12:11:12Z</time>
      </trkpt>
      <trkpt lat="43.71528" lon="5.97339">
        <ele>363.4</ele>
        <time>2023-06-11T12:11:13Z</time>
      </trkpt>
      <trkpt lat="43.71528" lon="5.9734">
        <ele>363.4</ele>
        <time>2023-06-11T12:11:14Z</time>
      </trkpt>
      <trkpt lat="43.71527" lon="5.97341">
        <ele>363.4</ele>
        <time>2023-06-11T12:11:15Z</time>
      </trkpt>
      <trkpt lat="43.71527" lon="5.97342">
        <ele>363.4</ele>
        <time>2023-06-11T12:11:16Z</time>
      </trkpt>
      <trkpt lat="43.71526" lon="5.97343">
        <ele>363.4</ele>
        <time>2023-06-11T12:11:17Z</time>
      </trkpt>
      <trkpt lat="43.71526" lon="5.97344">
        <ele>363.4</ele>
        <time>2023-06-11T12:11:18Z</time>
      </trkpt>
      <trkpt lat="43.71525" lon="5.97345">
        <ele>363.4</ele>
        <time>2023-06-11T12:11:19Z</time>
      </trkpt>
      <trkpt lat="43.71525" lon="5.97345">
        <ele>363.4</ele>
        <time>2023-06-11T12:11:20Z</time>
      </trkpt>
      <trkpt lat="43.71524" lon="5.97346">
        <ele>363.3</ele>
        <time>2023-06-11T12:11:21Z</time>
      </trkpt>
      <trkpt lat="43.71524" lon="5.97347">
        <ele>363.3</ele>
        <time>2023-06-11T12:11:22Z</time>
      </trkpt>
      <trkpt lat="43.71523" lon="5.97348">
        <ele>363.2</ele>
        <time>2023-06-11T12:11:23Z</time>
      </trkpt>
      <trkpt lat="43.71523" lon="5.97349">
        <ele>363.2</ele>
        <time>2023-06-11T12:11:24Z</time>
      </trkpt>
      <trkpt lat="43.71522" lon="5.9735">
        <ele>363.2</ele>
        <time>2023-06-11T12:11:25Z</time>
      </trkpt>
      <trkpt lat="43.71522" lon="5.97351">
        <ele>363.2</ele>
        <time>2023-06-11T12:11:26Z</time>
      </trkpt>
      <trkpt lat="43.71521" lon="5.97352">
        <ele>363.1</ele>
        <time>2023-06-11T12:11:27Z</time>
      </trkpt>
      <trkpt lat="43.71521" lon="5.97353">
        <ele>363.1</ele>
        <time>2023-06-11T12:11:28Z</time>
      </trkpt>
      <trkpt lat="43.71521" lon="5.97354">
        <ele>363</ele>
        <time>2023-06-11T12:11:29Z</time>
      </trkpt>
      <trkpt lat="43.71521" lon="5.97355">
        <ele>363.1</ele>
        <time>2023-06-11T12:11:30Z</time>
      </trkpt>
      <trkpt lat="43.71521" lon="5.97356">
        <ele>363.1</ele>
        <time>2023-06-11T12:11:31Z</time>
      </trkpt>
      <trkpt lat="43.71521" lon="5.97357">
        <ele>363.1</ele>
        <time>2023-06-11T12:11:32Z</time>
      </trkpt>
      <trkpt lat="43.71521" lon="5.97358">
        <ele>363.2</ele>
        <time>2023-06-11T12:11:33Z</time>
      </trkpt>
      <trkpt lat="43.71521" lon="5.97359">
        <ele>363.2</ele>
        <time>2023-06-11T12:11:34Z</time>
      </trkpt>
      <trkpt lat="43.71521" lon="5.9736">
        <ele>363.2</ele>
        <time>2023-06-11T12:11:35Z</time>
      </trkpt>
      <trkpt lat="43.71521" lon="5.97361">
        <ele>363.1</ele>
        <time>2023-06-11T12:11:36Z</time>
      </trkpt>
      <trkpt lat="43.71521" lon="5.97362">
        <ele>363.1</ele>
        <time>2023-06-11T12:11:37Z</time>
      </trkpt>
      <trkpt lat="43.71522" lon="5.97363">
        <ele>363</ele>
        <time>2023-06-11T12:11:38Z</time>
      </trkpt>
      <trkpt lat="43.71522" lon="5.97364">
        <ele>363</ele>
        <time>2023-06-11T12:11:39Z</time>
      </trkpt>
      <trkpt lat="43.71522" lon="5.97365">
        <ele>363</ele>
        <time>2023-06-11T12:11:40Z</time>
      </trkpt>
      <trkpt lat="43.71522" lon="5.97366">
        <ele>363</ele>
        <time>2023-06-11T12:11:41Z</time>
      </trkpt>
      <trkpt lat="43.71522" lon="5.97367">
        <ele>363</ele>
        <time>2023-06-11T12:11:42Z</time>
      </trkpt>
      <trkpt lat="43.71522" lon="5.97368">
        <ele>363</ele>
        <time>2023-06-11T12:11:43Z</time>
      </trkpt>
      <trkpt lat="43.71522" lon="5.97369">
        <ele>363.1</ele>
        <time>2023-06-11T12:11:44Z</time>
      </trkpt>
      <trkpt lat="43.71522" lon="5.9737">
        <ele>363.1</ele>
        <time>2023-06-11T12:11:45Z</time>
      </trkpt>
      <trkpt lat="43.71521" lon="5.97371">
        <ele>363</ele>
        <time>2023-06-11T12:11:46Z</time>
      </trkpt>
      <trkpt lat="43.71521" lon="5.97372">
        <ele>363</ele>
        <time>2023-06-11T12:11:47Z</time>
      </trkpt>
      <trkpt lat="43.71521" lon="5.97373">
        <ele>363</ele>
        <time>2023-06-11T12:11:48Z</time>
      </trkpt>
      <trkpt lat="43.71521" lon="5.97374">
        <ele>363.1</ele>
        <time>2023-06-11T12:11:49Z</time>
      </trkpt>
      <trkpt lat="43.7152" lon="5.97375">
        <ele>363.1</ele>
        <time>2023-06-11T12:11:50Z</time>
      </trkpt>
      <trkpt lat="43.7152" lon="5.97376">
        <ele>363.1</ele>
        <time>2023-06-11T12:11:51Z</time>
      </trkpt>
      <trkpt lat="43.7152" lon="5.97377">
        <ele>363.2</ele>
        <time>2023-06-11T12:11:52Z</time>
      </trkpt>
      <trkpt lat="43.71519" lon="5.97378">
        <ele>363.2</ele>
        <time>2023-06-11T12:11:53Z</time>
      </trkpt>
      <trkpt lat="43.71519" lon="5.97379">
        <ele>363.2</ele>
        <time>2023-06-11T12:11:54Z</time>
      </trkpt>
      <trkpt lat="43.71519" lon="5.9738">
        <ele>363.2</ele>
        <time>2023-06-11T12:11:55Z</time>
      </trkpt>
      <trkpt lat="43.71518" lon="5.97381">
        <ele>363.2</ele>
        <time>2023-06-11T12:11:56Z</time>
      </trkpt>
      <trkpt lat="43.71518" lon="5.97382">
        <ele>363.2</ele>
        <time>2023-06-11T12:11:57Z</time>
      </trkpt>
      <trkpt lat="43.71517" lon="5.97383">
        <ele>363.3</ele>
        <time>2023-06-11T12:11:58Z</time>
      </trkpt>
      <trkpt lat="43.71517" lon="5.97384">
        <ele>363.3</ele>
        <time>2023-06-11T12:11:59Z</time>
      </trkpt>
      <trkpt lat="43.71516" lon="5.97386">
        <ele>363.2</ele>
        <time>2023-06-11T12:12:00Z</time>
      </trkpt>
      <trkpt lat="43.71516" lon="5.97387">
        <ele>363.3</ele>
        <time>2023-06-11T12:12:01Z</time>
      </trkpt>
      <trkpt lat="43.71515" lon="5.97388">
        <ele>363.3</ele>
        <time>2023-06-11T12:12:02Z</time>
      </trkpt>
      <trkpt lat="43.71515" lon="5.97389">
        <ele>363.3</ele>
        <time>2023-06-11T12:12:03Z</time>
      </trkpt>
      <trkpt lat="43.71514" lon="5.9739">
        <ele>363.4</ele>
        <time>2023-06-11T12:12:04Z</time>
      </trkpt>
      <trkpt lat="43.71514" lon="5.97391">
        <ele>363.3</ele>
        <time>2023-06-11T12:12:05Z</time>
      </trkpt>
      <trkpt lat="43.71513" lon="5.97392">
        <ele>363.3</ele>
        <time>2023-06-11T12:12:06Z</time>
      </trkpt>
      <trkpt lat="43.71513" lon="5.97393">
        <ele>363.3</ele>
        <time>2023-06-11T12:12:07Z</time>
      </trkpt>
      <trkpt lat="43.71512" lon="5.97395">
        <ele>363.3</ele>
        <time>2023-06-11T12:12:08Z</time>
      </trkpt>
      <trkpt lat="43.71512" lon="5.97396">
        <ele>363.3</ele>
        <time>2023-06-11T12:12:09Z</time>
      </trkpt>
      <trkpt lat="43.71511" lon="5.97397">
        <ele>363.3</ele>
        <time>2023-06-11T12:12:10Z</time>
      </trkpt>
      <trkpt lat="43.71511" lon="5.97398">
        <ele>363.3</ele>
        <time>2023-06-11T12:12:11Z</time>
      </trkpt>
      <trkpt lat="43.7151" lon="5.97399">
        <ele>363.3</ele>
        <time>2023-06-11T12:12:12Z</time>
      </trkpt>
      <trkpt lat="43.7151" lon="5.974">
        <ele>363.2</ele>
        <time>2023-06-11T12:12:13Z</time>
      </trkpt>
      <trkpt lat="43.71509" lon="5.97402">
        <ele>363.2</ele>
        <time>2023-06-11T12:12:14Z</time>
      </trkpt>
      <trkpt lat="43.71509" lon="5.97403">
        <ele>363.2</ele>
        <time>2023-06-11T12:12:15Z</time>
      </trkpt>
      <trkpt lat="43.71508" lon="5.97404">
        <ele>363.2</ele>
        <time>2023-06-11T12:12:16Z</time>
      </trkpt>
      <trkpt lat="43.71508" lon="5.97405">
        <ele>363.1</ele>
        <time>2023-06-11T12:12:17Z</time>
      </trkpt>
      <trkpt lat="43.71507" lon="5.97406">
        <ele>363.1</ele>
        <time>2023-06-11T12:12:18Z</time>
      </trkpt>
      <trkpt lat="43.71507" lon="5.97407">
        <ele>363</ele>
        <time>2023-06-11T12:12:19Z</time>
      </trkpt>
      <trkpt lat="43.71506" lon="5.97408">
        <ele>363</ele>
        <time>2023-06-11T12:12:20Z</time>
      </trkpt>
      <trkpt lat="43.71506" lon="5.97409">
        <ele>363</ele>
        <time>2023-06-11T12:12:21Z</time>
      </trkpt>
      <trkpt lat="43.71506" lon="5.9741">
        <ele>363.1</ele>
        <time>2023-06-11T12:12:22Z</time>
      </trkpt>
      <trkpt lat="43.71506" lon="5.97411">
        <ele>363.2</ele>
        <time>2023-06-11T12:12:23Z</time>
      </trkpt>
      <trkpt lat="43.71505" lon="5.97412">
        <ele>363.3</ele>
        <time>2023-06-11T12:12:24Z</time>
      </trkpt>
      <trkpt lat="43.71505" lon="5.97413">
        <ele>363.3</ele>
        <time>2023-06-11T12:12:25Z</time>
      </trkpt>
      <trkpt lat="43.71505" lon="5.97414">
        <ele>363.4</ele>
        <time>2023-06-11T12:12:26Z</time>
      </trkpt>
      <trkpt lat="43.71505" lon="5.97415">
        <ele>363.4</ele>
        <time>2023-06-11T12:12:27Z</time>
      </trkpt>
      <trkpt lat="43.71505" lon="5.97415">
        <ele>363.4</ele>
        <time>2023-06-11T12:12:28Z</time>
      </trkpt>
      <trkpt lat="43.71504" lon="5.97416">
        <ele>363.5</ele>
        <time>2023-06-11T12:12:29Z</time>
      </trkpt>
      <trkpt lat="43.71504" lon="5.97417">
        <ele>363.5</ele>
        <time>2023-06-11T12:12:30Z</time>
      </trkpt>
      <trkpt lat="43.71504" lon="5.97418">
        <ele>363.5</ele>
        <time>2023-06-11T12:12:31Z</time>
      </trkpt>
      <trkpt lat="43.71504" lon="5.97419">
        <ele>363.5</ele>
        <time>2023-06-11T12:12:32Z</time>
      </trkpt>
      <trkpt lat="43.71504" lon="5.9742">
        <ele>363.6</ele>
        <time>2023-06-11T12:12:33Z</time>
      </trkpt>
      <trkpt lat="43.71503" lon="5.97421">
        <ele>363.6</ele>
        <time>2023-06-11T12:12:34Z</time>
      </trkpt>
      <trkpt lat="43.71503" lon="5.97422">
        <ele>363.6</ele>
        <time>2023-06-11T12:12:35Z</time>
      </trkpt>
      <trkpt lat="43.71502" lon="5.97423">
        <ele>363.6</ele>
        <time>2023-06-11T12:12:36Z</time>
      </trkpt>
      <trkpt lat="43.71502" lon="5.97424">
        <ele>363.6</ele>
        <time>2023-06-11T12:12:37Z</time>
      </trkpt>
      <trkpt lat="43.71501" lon="5.97425">
        <ele>363.6</ele>
        <time>2023-06-11T12:12:38Z</time>
      </trkpt>
      <trkpt lat="43.71501" lon="5.97426">
        <ele>363.5</ele>
        <time>2023-06-11T12:12:39Z</time>
      </trkpt>
      <trkpt lat="43.71501" lon="5.97427">
        <ele>363.5</ele>
        <time>2023-06-11T12:12:40Z</time>
      </trkpt>
      <trkpt lat="43.715" lon="5.97428">
        <ele>363.6</ele>
        <time>2023-06-11T12:12:41Z</time>
      </trkpt>
      <trkpt lat="43.715" lon="5.9743">
        <ele>363.5</ele>
        <time>2023-06-11T12:12:42Z</time>
      </trkpt>
      <trkpt lat="43.715" lon="5.97431">
        <ele>363.5</ele>
        <time>2023-06-11T12:12:43Z</time>
      </trkpt>
      <trkpt lat="43.71499" lon="5.97432">
        <ele>363.5</ele>
        <time>2023-06-11T12:12:44Z</time>
      </trkpt>
      <trkpt lat="43.71499" lon="5.97433">
        <ele>363.6</ele>
        <time>2023-06-11T12:12:45Z</time>
      </trkpt>
      <trkpt lat="43.71499" lon="5.97433">
        <ele>363.6</ele>
        <time>2023-06-11T12:12:46Z</time>
      </trkpt>
      <trkpt lat="43.71499" lon="5.97434">
        <ele>363.6</ele>
        <time>2023-06-11T12:12:47Z</time>
      </trkpt>
      <trkpt lat="43.71499" lon="5.97435">
        <ele>363.6</ele>
        <time>2023-06-11T12:12:48Z</time>
      </trkpt>
      <trkpt lat="43.71499" lon="5.97436">
        <ele>363.7</ele>
        <time>2023-06-11T12:12:49Z</time>
      </trkpt>
      <trkpt lat="43.71498" lon="5.97437">
        <ele>363.7</ele>
        <time>2023-06-11T12:12:50Z</time>
      </trkpt>
      <trkpt lat="43.71498" lon="5.97439">
        <ele>363.7</ele>
        <time>2023-06-11T12:12:51Z</time>
      </trkpt>
      <trkpt lat="43.71498" lon="5.9744">
        <ele>363.7</ele>
        <time>2023-06-11T12:12:52Z</time>
      </trkpt>
      <trkpt lat="43.71498" lon="5.97441">
        <ele>363.7</ele>
        <time>2023-06-11T12:12:53Z</time>
      </trkpt>
      <trkpt lat="43.71498" lon="5.97442">
        <ele>363.7</ele>
        <time>2023-06-11T12:12:54Z</time>
      </trkpt>
      <trkpt lat="43.71497" lon="5.97443">
        <ele>363.7</ele>
        <time>2023-06-11T12:12:55Z</time>
      </trkpt>
      <trkpt lat="43.71497" lon="5.97444">
        <ele>363.7</ele>
        <time>2023-06-11T12:12:56Z</time>
      </trkpt>
      <trkpt lat="43.71496" lon="5.97445">
        <ele>363.6</ele>
        <time>2023-06-11T12:12:57Z</time>
      </trkpt>
      <trkpt lat="43.71496" lon="5.97446">
        <ele>363.6</ele>
        <time>2023-06-11T12:12:58Z</time>
      </trkpt>
      <trkpt lat="43.71495" lon="5.97447">
        <ele>363.5</ele>
        <time>2023-06-11T12:12:59Z</time>
      </trkpt>
      <trkpt lat="43.71495" lon="5.97448">
        <ele>363.5</ele>
        <time>2023-06-11T12:13:00Z</time>
      </trkpt>
      <trkpt lat="43.71494" lon="5.97449">
        <ele>363.5</ele>
        <time>2023-06-11T12:13:01Z</time>
      </trkpt>
      <trkpt lat="43.71494" lon="5.9745">
        <ele>363.4</ele>
        <time>2023-06-11T12:13:02Z</time>
      </trkpt>
      <trkpt lat="43.71493" lon="5.97451">
        <ele>363.4</ele>
        <time>2023-06-11T12:13:03Z</time>
      </trkpt>
      <trkpt lat="43.71493" lon="5.97452">
        <ele>363.4</ele>
        <time>2023-06-11T12:13:04Z</time>
      </trkpt>
      <trkpt lat="43.71493" lon="5.97453">
        <ele>363.5</ele>
        <time>2023-06-11T12:13:05Z</time>
      </trkpt>
      <trkpt lat="43.71492" lon="5.97455">
        <ele>363.5</ele>
        <time>2023-06-11T12:13:06Z</time>
      </trkpt>
      <trkpt lat="43.71492" lon="5.97456">
        <ele>363.5</ele>
        <time>2023-06-11T12:13:07Z</time>
      </trkpt>
      <trkpt lat="43.71492" lon="5.97458">
        <ele>363.5</ele>
        <time>2023-06-11T12:13:08Z</time>
      </trkpt>
      <trkpt lat="43.71491" lon="5.97459">
        <ele>363.5</ele>
        <time>2023-06-11T12:13:09Z</time>
      </trkpt>
      <trkpt lat="43.71491" lon="5.9746">
        <ele>363.5</ele>
        <time>2023-06-11T12:13:10Z</time>
      </trkpt>
      <trkpt lat="43.7149" lon="5.97461">
        <ele>363.5</ele>
        <time>2023-06-11T12:13:11Z</time>
      </trkpt>
      <trkpt lat="43.71489" lon="5.97463">
        <ele>363.5</ele>
        <time>2023-06-11T12:13:12Z</time>
      </trkpt>
      <trkpt lat="43.71488" lon="5.97464">
        <ele>363.5</ele>
        <time>2023-06-11T12:13:13Z</time>
      </trkpt>
      <trkpt lat="43.71488" lon="5.97465">
        <ele>363.5</ele>
        <time>2023-06-11T12:13:14Z</time>
      </trkpt>
      <trkpt lat="43.71487" lon="5.97467">
        <ele>363.5</ele>
        <time>2023-06-11T12:13:15Z</time>
      </trkpt>
      <trkpt lat="43.71487" lon="5.97468">
        <ele>363.4</ele>
        <time>2023-06-11T12:13:16Z</time>
      </trkpt>
      <trkpt lat="43.71486" lon="5.9747">
        <ele>363.4</ele>
        <time>2023-06-11T12:13:17Z</time>
      </trkpt>
      <trkpt lat="43.71486" lon="5.97472">
        <ele>363.4</ele>
        <time>2023-06-11T12:13:18Z</time>
      </trkpt>
      <trkpt lat="43.71486" lon="5.97474">
        <ele>363.4</ele>
        <time>2023-06-11T12:13:19Z</time>
      </trkpt>
      <trkpt lat="43.71485" lon="5.97476">
        <ele>363.3</ele>
        <time>2023-06-11T12:13:20Z</time>
      </trkpt>
      <trkpt lat="43.71485" lon="5.97477">
        <ele>363.2</ele>
        <time>2023-06-11T12:13:21Z</time>
      </trkpt>
      <trkpt lat="43.71485" lon="5.97479">
        <ele>363.2</ele>
        <time>2023-06-11T12:13:22Z</time>
      </trkpt>
      <trkpt lat="43.71485" lon="5.97481">
        <ele>363.1</ele>
        <time>2023-06-11T12:13:23Z</time>
      </trkpt>
      <trkpt lat="43.71485" lon="5.97483">
        <ele>363.1</ele>
        <time>2023-06-11T12:13:24Z</time>
      </trkpt>
      <trkpt lat="43.71485" lon="5.97485">
        <ele>363.2</ele>
        <time>2023-06-11T12:13:25Z</time>
      </trkpt>
      <trkpt lat="43.71485" lon="5.97487">
        <ele>363.2</ele>
        <time>2023-06-11T12:13:26Z</time>
      </trkpt>
      <trkpt lat="43.71484" lon="5.97489">
        <ele>363.3</ele>
        <time>2023-06-11T12:13:27Z</time>
      </trkpt>
      <trkpt lat="43.71484" lon="5.97491">
        <ele>363.3</ele>
        <time>2023-06-11T12:13:28Z</time>
      </trkpt>
      <trkpt lat="43.71483" lon="5.97493">
        <ele>363.4</ele>
        <time>2023-06-11T12:13:29Z</time>
      </trkpt>
      <trkpt lat="43.71483" lon="5.97495">
        <ele>363.4</ele>
        <time>2023-06-11T12:13:30Z</time>
      </trkpt>
      <trkpt lat="43.71482" lon="5.97496">
        <ele>363.4</ele>
        <time>2023-06-11T12:13:31Z</time>
      </trkpt>
      <trkpt lat="43.71482" lon="5.97498">
        <ele>363.4</ele>
        <time>2023-06-11T12:13:32Z</time>
      </trkpt>
      <trkpt lat="43.71481" lon="5.975">
        <ele>363.5</ele>
        <time>2023-06-11T12:13:33Z</time>
      </trkpt>
      <trkpt lat="43.71481" lon="5.97502">
        <ele>363.5</ele>
        <time>2023-06-11T12:13:34Z</time>
      </trkpt>
      <trkpt lat="43.71481" lon="5.97504">
        <ele>363.7</ele>
        <time>2023-06-11T12:13:35Z</time>
      </trkpt>
      <trkpt lat="43.7148" lon="5.97506">
        <ele>363.8</ele>
        <time>2023-06-11T12:13:36Z</time>
      </trkpt>
      <trkpt lat="43.7148" lon="5.97508">
        <ele>363.8</ele>
        <time>2023-06-11T12:13:37Z</time>
      </trkpt>
      <trkpt lat="43.7148" lon="5.9751">
        <ele>363.8</ele>
        <time>2023-06-11T12:13:38Z</time>
      </trkpt>
      <trkpt lat="43.7148" lon="5.97512">
        <ele>363.9</ele>
        <time>2023-06-11T12:13:39Z</time>
      </trkpt>
      <trkpt lat="43.7148" lon="5.97514">
        <ele>363.9</ele>
        <time>2023-06-11T12:13:40Z</time>
      </trkpt>
      <trkpt lat="43.7148" lon="5.97516">
        <ele>363.9</ele>
        <time>2023-06-11T12:13:41Z</time>
      </trkpt>
      <trkpt lat="43.7148" lon="5.97518">
        <ele>363.9</ele>
        <time>2023-06-11T12:13:42Z</time>
      </trkpt>
      <trkpt lat="43.7148" lon="5.9752">
        <ele>363.9</ele>
        <time>2023-06-11T12:13:43Z</time>
      </trkpt>
      <trkpt lat="43.7148" lon="5.97522">
        <ele>364</ele>
        <time>2023-06-11T12:13:44Z</time>
      </trkpt>
      <trkpt lat="43.7148" lon="5.97523">
        <ele>364</ele>
        <time>2023-06-11T12:13:45Z</time>
      </trkpt>
      <trkpt lat="43.7148" lon="5.97525">
        <ele>364</ele>
        <time>2023-06-11T12:13:46Z</time>
      </trkpt>
      <trkpt lat="43.7148" lon="5.97527">
        <ele>364.1</ele>
        <time>2023-06-11T12:13:47Z</time>
      </trkpt>
      <trkpt lat="43.71479" lon="5.97529">
        <ele>364.1</ele>
        <time>2023-06-11T12:13:48Z</time>
      </trkpt>
      <trkpt lat="43.71479" lon="5.97531">
        <ele>364.1</ele>
        <time>2023-06-11T12:13:49Z</time>
      </trkpt>
      <trkpt lat="43.71479" lon="5.97533">
        <ele>364.1</ele>
        <time>2023-06-11T12:13:50Z</time>
      </trkpt>
      <trkpt lat="43.71478" lon="5.97535">
        <ele>364.1</ele>
        <time>2023-06-11T12:13:51Z</time>
      </trkpt>
      <trkpt lat="43.71478" lon="5.97537">
        <ele>364.1</ele>
        <time>2023-06-11T12:13:52Z</time>
      </trkpt>
      <trkpt lat="43.71478" lon="5.97539">
        <ele>364.1</ele>
        <time>2023-06-11T12:13:53Z</time>
      </trkpt>
      <trkpt lat="43.71477" lon="5.97541">
        <ele>364.2</ele>
        <time>2023-06-11T12:13:54Z</time>
      </trkpt>
      <trkpt lat="43.71477" lon="5.97543">
        <ele>364.2</ele>
        <time>2023-06-11T12:13:55Z</time>
      </trkpt>
      <trkpt lat="43.71478" lon="5.97545">
        <ele>364.2</ele>
        <time>2023-06-11T12:13:56Z</time>
      </trkpt>
      <trkpt lat="43.71478" lon="5.97547">
        <ele>364.2</ele>
        <time>2023-06-11T12:13:57Z</time>
      </trkpt>
      <trkpt lat="43.71478" lon="5.97548">
        <ele>364.2</ele>
        <time>2023-06-11T12:13:58Z</time>
      </trkpt>
      <trkpt lat="43.71479" lon="5.9755">
        <ele>364.2</ele>
        <time>2023-06-11T12:13:59Z</time>
      </trkpt>
      <trkpt lat="43.71479" lon="5.97552">
        <ele>364.3</ele>
        <time>2023-06-11T12:14:00Z</time>
      </trkpt>
      <trkpt lat="43.71479" lon="5.97554">
        <ele>364.3</ele>
        <time>2023-06-11T12:14:01Z</time>
      </trkpt>
      <trkpt lat="43.71479" lon="5.97556">
        <ele>364.4</ele>
        <time>2023-06-11T12:14:02Z</time>
      </trkpt>
      <trkpt lat="43.71478" lon="5.97558">
        <ele>364.4</ele>
        <time>2023-06-11T12:14:03Z</time>
      </trkpt>
      <trkpt lat="43.71478" lon="5.97559">
        <ele>364.5</ele>
        <time>2023-06-11T12:14:04Z</time>
      </trkpt>
      <trkpt lat="43.71478" lon="5.97561">
        <ele>364.6</ele>
        <time>2023-06-11T12:14:05Z</time>
      </trkpt>
      <trkpt lat="43.71477" lon="5.97563">
        <ele>364.6</ele>
        <time>2023-06-11T12:14:06Z</time>
      </trkpt>
      <trkpt lat="43.71477" lon="5.97564">
        <ele>364.7</ele>
        <time>2023-06-11T12:14:07Z</time>
      </trkpt>
      <trkpt lat="43.71476" lon="5.97566">
        <ele>364.5</ele>
        <time>2023-06-11T12:14:08Z</time>
      </trkpt>
      <trkpt lat="43.71476" lon="5.97567">
        <ele>364.5</ele>
        <time>2023-06-11T12:14:09Z</time>
      </trkpt>
      <trkpt lat="43.71476" lon="5.97569">
        <ele>364.4</ele>
        <time>2023-06-11T12:14:10Z</time>
      </trkpt>
      <trkpt lat="43.71476" lon="5.9757">
        <ele>364.4</ele>
        <time>2023-06-11T12:14:11Z</time>
      </trkpt>
      <trkpt lat="43.71476" lon="5.97572">
        <ele>364.4</ele>
        <time>2023-06-11T12:14:12Z</time>
      </trkpt>
      <trkpt lat="43.71477" lon="5.97573">
        <ele>364.4</ele>
        <time>2023-06-11T12:14:13Z</time>
      </trkpt>
      <trkpt lat="43.71477" lon="5.97574">
        <ele>364.4</ele>
        <time>2023-06-11T12:14:14Z</time>
      </trkpt>
      <trkpt lat="43.71478" lon="5.97576">
        <ele>364.4</ele>
        <time>2023-06-11T12:14:15Z</time>
      </trkpt>
      <trkpt lat="43.71478" lon="5.97577">
        <ele>364.4</ele>
        <time>2023-06-11T12:14:16Z</time>
      </trkpt>
      <trkpt lat="43.71479" lon="5.97578">
        <ele>364.4</ele>
        <time>2023-06-11T12:14:17Z</time>
      </trkpt>
      <trkpt lat="43.7148" lon="5.97579">
        <ele>364.5</ele>
        <time>2023-06-11T12:14:18Z</time>
      </trkpt>
      <trkpt lat="43.7148" lon="5.9758">
        <ele>364.5</ele>
        <time>2023-06-11T12:14:19Z</time>
      </trkpt>
      <trkpt lat="43.71481" lon="5.97582">
        <ele>364.5</ele>
        <time>2023-06-11T12:14:20Z</time>
      </trkpt>
      <trkpt lat="43.71482" lon="5.97583">
        <ele>364.5</ele>
        <time>2023-06-11T12:14:21Z</time>
      </trkpt>
      <trkpt lat="43.71482" lon="5.97585">
        <ele>364.5</ele>
        <time>2023-06-11T12:14:22Z</time>
      </trkpt>
      <trkpt lat="43.71483" lon="5.97586">
        <ele>364.5</ele>
        <time>2023-06-11T12:14:23Z</time>
      </trkpt>
      <trkpt lat="43.71483" lon="5.97588">
        <ele>364.4</ele>
        <time>2023-06-11T12:14:24Z</time>
      </trkpt>
      <trkpt lat="43.71483" lon="5.97589">
        <ele>364.4</ele>
        <time>2023-06-11T12:14:25Z</time>
      </trkpt>
      <trkpt lat="43.71484" lon="5.97591">
        <ele>364.4</ele>
        <time>2023-06-11T12:14:26Z</time>
      </trkpt>
      <trkpt lat="43.71484" lon="5.97593">
        <ele>364.4</ele>
        <time>2023-06-11T12:14:27Z</time>
      </trkpt>
      <trkpt lat="43.71484" lon="5.97595">
        <ele>364.3</ele>
        <time>2023-06-11T12:14:28Z</time>
      </trkpt>
      <trkpt lat="43.71484" lon="5.97597">
        <ele>364.3</ele>
        <time>2023-06-11T12:14:29Z</time>
      </trkpt>
      <trkpt lat="43.71484" lon="5.97598">
        <ele>364.3</ele>
        <time>2023-06-11T12:14:30Z</time>
      </trkpt>
      <trkpt lat="43.71484" lon="5.976">
        <ele>364.3</ele>
        <time>2023-06-11T12:14:31Z</time>
      </trkpt>
      <trkpt lat="43.71484" lon="5.97602">
        <ele>364.3</ele>
        <time>2023-06-11T12:14:32Z</time>
      </trkpt>
      <trkpt lat="43.71484" lon="5.97604">
        <ele>364.3</ele>
        <time>2023-06-11T12:14:33Z</time>
      </trkpt>
      <trkpt lat="43.71484" lon="5.97606">
        <ele>364.4</ele>
        <time>2023-06-11T12:14:34Z</time>
      </trkpt>
      <trkpt lat="43.71484" lon="5.97608">
        <ele>364.4</ele>
        <time>2023-06-11T12:14:35Z</time>
      </trkpt>
      <trkpt lat="43.71484" lon="5.97609">
        <ele>364.4</ele>
        <time>2023-06-11T12:14:36Z</time>
      </trkpt>
      <trkpt lat="43.71484" lon="5.97611">
        <ele>364.5</ele>
        <time>2023-06-11T12:14:37Z</time>
      </trkpt>
      <trkpt lat="43.71485" lon="5.97613">
        <ele>364.5</ele>
        <time>2023-06-11T12:14:38Z</time>
      </trkpt>
      <trkpt lat="43.71485" lon="5.97615">
        <ele>364.5</ele>
        <time>2023-06-11T12:14:39Z</time>
      </trkpt>
      <trkpt lat="43.71485" lon="5.97616">
        <ele>364.5</ele>
        <time>2023-06-11T12:14:40Z</time>
      </trkpt>
      <trkpt lat="43.71486" lon="5.97618">
        <ele>364.5</ele>
        <time>2023-06-11T12:14:41Z</time>
      </trkpt>
      <trkpt lat="43.71486" lon="5.97619">
        <ele>364.4</ele>
        <time>2023-06-11T12:14:42Z</time>
      </trkpt>
      <trkpt lat="43.71487" lon="5.97621">
        <ele>364.4</ele>
        <time>2023-06-11T12:14:43Z</time>
      </trkpt>
      <trkpt lat="43.71487" lon="5.97622">
        <ele>364.4</ele>
        <time>2023-06-11T12:14:44Z</time>
      </trkpt>
      <trkpt lat="43.71488" lon="5.97624">
        <ele>364.4</ele>
        <time>2023-06-11T12:14:45Z</time>
      </trkpt>
      <trkpt lat="43.71489" lon="5.97625">
        <ele>364.4</ele>
        <time>2023-06-11T12:14:46Z</time>
      </trkpt>
      <trkpt lat="43.7149" lon="5.97627">
        <ele>364.5</ele>
        <time>2023-06-11T12:14:47Z</time>
      </trkpt>
      <trkpt lat="43.71491" lon="5.97628">
        <ele>364.5</ele>
        <time>2023-06-11T12:14:48Z</time>
      </trkpt>
      <trkpt lat="43.71491" lon="5.97629">
        <ele>364.5</ele>
        <time>2023-06-11T12:14:49Z</time>
      </trkpt>
      <trkpt lat="43.71492" lon="5.97631">
        <ele>364.5</ele>
        <time>2023-06-11T12:14:50Z</time>
      </trkpt>
      <trkpt lat="43.71493" lon="5.97632">
        <ele>364.5</ele>
        <time>2023-06-11T12:14:51Z</time>
      </trkpt>
      <trkpt lat="43.71494" lon="5.97633">
        <ele>364.5</ele>
        <time>2023-06-11T12:14:52Z</time>
      </trkpt>
      <trkpt lat="43.71494" lon="5.97634">
        <ele>364.6</ele>
        <time>2023-06-11T12:14:53Z</time>
      </trkpt>
      <trkpt lat="43.71495" lon="5.97635">
        <ele>364.6</ele>
        <time>2023-06-11T12:14:54Z</time>
      </trkpt>
      <trkpt lat="43.71496" lon="5.97636">
        <ele>364.7</ele>
        <time>2023-06-11T12:14:55Z</time>
      </trkpt>
      <trkpt lat="43.71497" lon="5.97637">
        <ele>364.6</ele>
        <time>2023-06-11T12:14:56Z</time>
      </trkpt>
      <trkpt lat="43.71497" lon="5.97638">
        <ele>364.6</ele>
        <time>2023-06-11T12:14:57Z</time>
      </trkpt>
      <trkpt lat="43.71498" lon="5.97639">
        <ele>364.6</ele>
        <time>2023-06-11T12:14:58Z</time>
      </trkpt>
      <trkpt lat="43.71499" lon="5.9764">
        <ele>364.6</ele>
        <time>2023-06-11T12:14:59Z</time>
      </trkpt>
      <trkpt lat="43.71499" lon="5.97642">
        <ele>364.6</ele>
        <time>2023-06-11T12:15:00Z</time>
      </trkpt>
      <trkpt lat="43.715" lon="5.97642">
        <ele>364.5</ele>
        <time>2023-06-11T12:15:01Z</time>
      </trkpt>
      <trkpt lat="43.71501" lon="5.97643">
        <ele>364.5</ele>
        <time>2023-06-11T12:15:02Z</time>
      </trkpt>
      <trkpt lat="43.715" lon="5.97644">
        <ele>364.5</ele>
        <time>2023-06-11T12:15:03Z</time>
      </trkpt>
      <trkpt lat="43.715" lon="5.97644">
        <ele>364.4</ele>
        <time>2023-06-11T12:15:04Z</time>
      </trkpt>
      <trkpt lat="43.71501" lon="5.97645">
        <ele>364.4</ele>
        <time>2023-06-11T12:15:05Z</time>
      </trkpt>
      <trkpt lat="43.71501" lon="5.97645">
        <ele>364.4</ele>
        <time>2023-06-11T12:15:06Z</time>
      </trkpt>
      <trkpt lat="43.71501" lon="5.97646">
        <ele>364.4</ele>
        <time>2023-06-11T12:15:07Z</time>
      </trkpt>
      <trkpt lat="43.71501" lon="5.97646">
        <ele>364.4</ele>
        <time>2023-06-11T12:15:08Z</time>
      </trkpt>
      <trkpt lat="43.71502" lon="5.97646">
        <ele>364.3</ele>
        <time>2023-06-11T12:15:09Z</time>
      </trkpt>
      <trkpt lat="43.71502" lon="5.97646">
        <ele>364.4</ele>
        <time>2023-06-11T12:15:10Z</time>
      </trkpt>
      <trkpt lat="43.71502" lon="5.97646">
        <ele>364.4</ele>
        <time>2023-06-11T12:15:11Z</time>
      </trkpt>
      <trkpt lat="43.71502" lon="5.97647">
        <ele>364.3</ele>
        <time>2023-06-11T12:15:12Z</time>
      </trkpt>
      <trkpt lat="43.71502" lon="5.97647">
        <ele>364.2</ele>
        <time>2023-06-11T12:15:13Z</time>
      </trkpt>
      <trkpt lat="43.71502" lon="5.97647">
        <ele>364.2</ele>
        <time>2023-06-11T12:15:14Z</time>
      </trkpt>
      <trkpt lat="43.71502" lon="5.97647">
        <ele>364.2</ele>
        <time>2023-06-11T12:15:15Z</time>
      </trkpt>
      <trkpt lat="43.71502" lon="5.97647">
        <ele>364.2</ele>
        <time>2023-06-11T12:15:16Z</time>
      </trkpt>
      <trkpt lat="43.71502" lon="5.97647">
        <ele>364.2</ele>
        <time>2023-06-11T12:15:17Z</time>
      </trkpt>
      <trkpt lat="43.71502" lon="5.97647">
        <ele>364.2</ele>
        <time>2023-06-11T12:15:18Z</time>
      </trkpt>
      <trkpt lat="43.71502" lon="5.97647">
        <ele>364.3</ele>
        <time>2023-06-11T12:15:19Z</time>
      </trkpt>
      <trkpt lat="43.71502" lon="5.97647">
        <ele>364.3</ele>
        <time>2023-06-11T12:15:20Z</time>
      </trkpt>
      <trkpt lat="43.71502" lon="5.97647">
        <ele>364.4</ele>
        <time>2023-06-11T12:15:21Z</time>
      </trkpt>
      <trkpt lat="43.71502" lon="5.97647">
        <ele>364.4</ele>
        <time>2023-06-11T12:15:22Z</time>
      </trkpt>
      <trkpt lat="43.71503" lon="5.97647">
        <ele>364.4</ele>
        <time>2023-06-11T12:15:23Z</time>
      </trkpt>
      <trkpt lat="43.71503" lon="5.97647">
        <ele>364.4</ele>
        <time>2023-06-11T12:15:24Z</time>
      </trkpt>
      <trkpt lat="43.71503" lon="5.97647">
        <ele>364.4</ele>
        <time>2023-06-11T12:15:25Z</time>
      </trkpt>
      <trkpt lat="43.71504" lon="5.97647">
        <ele>364.4</ele>
        <time>2023-06-11T12:15:26Z</time>
      </trkpt>
      <trkpt lat="43.71504" lon="5.97647">
        <ele>364.4</ele>
        <time>2023-06-11T12:15:27Z</time>
      </trkpt>
      <trkpt lat="43.71504" lon="5.97646">
        <ele>364.4</ele>
        <time>2023-06-11T12:15:28Z</time>
      </trkpt>
      <trkpt lat="43.71505" lon="5.97646">
        <ele>364.5</ele>
        <time>2023-06-11T12:15:29Z</time>
      </trkpt>
      <trkpt lat="43.71505" lon="5.97645">
        <ele>364.3</ele>
        <time>2023-06-11T12:15:30Z</time>
      </trkpt>
      <trkpt lat="43.71505" lon="5.97645">
        <ele>364.3</ele>
        <time>2023-06-11T12:15:31Z</time>
      </trkpt>
      <trkpt lat="43.71505" lon="5.97644">
        <ele>364.4</ele>
        <time>2023-06-11T12:15:32Z</time>
      </trkpt>
      <trkpt lat="43.71505" lon="5.97644">
        <ele>364.5</ele>
        <time>2023-06-11T12:15:33Z</time>
      </trkpt>
      <trkpt lat="43.71504" lon="5.97643">
        <ele>364.4</ele>
        <time>2023-06-11T12:15:34Z</time>
      </trkpt>
      <trkpt lat="43.71504" lon="5.97642">
        <ele>364.4</ele>
        <time>2023-06-11T12:15:35Z</time>
      </trkpt>
      <trkpt lat="43.71503" lon="5.97642">
        <ele>364.3</ele>
        <time>2023-06-11T12:15:36Z</time>
      </trkpt>
      <trkpt lat="43.71503" lon="5.97642">
        <ele>364.3</ele>
        <time>2023-06-11T12:15:37Z</time>
      </trkpt>
      <trkpt lat="43.71502" lon="5.97641">
        <ele>364.4</ele>
        <time>2023-06-11T12:15:38Z</time>
      </trkpt>
      <trkpt lat="43.71501" lon="5.97641">
        <ele>364.5</ele>
        <time>2023-06-11T12:15:39Z</time>
      </trkpt>
      <trkpt lat="43.715" lon="5.97641">
        <ele>364.5</ele>
        <time>2023-06-11T12:15:40Z</time>
      </trkpt>
      <trkpt lat="43.715" lon="5.97641">
        <ele>364.5</ele>
        <time>2023-06-11T12:15:41Z</time>
      </trkpt>
      <trkpt lat="43.71499" lon="5.9764">
        <ele>364.5</ele>
        <time>2023-06-11T12:15:42Z</time>
      </trkpt>
      <trkpt lat="43.71498" lon="5.9764">
        <ele>364.5</ele>
        <time>2023-06-11T12:15:43Z</time>
      </trkpt>
      <trkpt lat="43.71497" lon="5.97639">
        <ele>364.4</ele>
        <time>2023-06-11T12:15:44Z</time>
      </trkpt>
      <trkpt lat="43.71497" lon="5.97638">
        <ele>364.5</ele>
        <time>2023-06-11T12:15:45Z</time>
      </trkpt>
      <trkpt lat="43.71496" lon="5.97636">
        <ele>364.5</ele>
        <time>2023-06-11T12:15:46Z</time>
      </trkpt>
      <trkpt lat="43.71496" lon="5.97635">
        <ele>364.6</ele>
        <time>2023-06-11T12:15:47Z</time>
      </trkpt>
      <trkpt lat="43.71496" lon="5.97634">
        <ele>364.5</ele>
        <time>2023-06-11T12:15:48Z</time>
      </trkpt>
      <trkpt lat="43.71496" lon="5.97633">
        <ele>364.5</ele>
        <time>2023-06-11T12:15:49Z</time>
      </trkpt>
      <trkpt lat="43.71496" lon="5.97631">
        <ele>364.5</ele>
        <time>2023-06-11T12:15:50Z</time>
      </trkpt>
      <trkpt lat="43.71496" lon="5.9763">
        <ele>364.5</ele>
        <time>2023-06-11T12:15:51Z</time>
      </trkpt>
      <trkpt lat="43.71497" lon="5.97629">
        <ele>364.4</ele>
        <time>2023-06-11T12:15:52Z</time>
      </trkpt>
      <trkpt lat="43.71497" lon="5.97628">
        <ele>364.4</ele>
        <time>2023-06-11T12:15:53Z</time>
      </trkpt>
      <trkpt lat="43.71497" lon="5.97627">
        <ele>364.4</ele>
        <time>2023-06-11T12:15:54Z</time>
      </trkpt>
      <trkpt lat="43.71497" lon="5.97626">
        <ele>364.4</ele>
        <time>2023-06-11T12:15:55Z</time>
      </trkpt>
      <trkpt lat="43.71497" lon="5.97625">
        <ele>364.4</ele>
        <time>2023-06-11T12:15:56Z</time>
      </trkpt>
      <trkpt lat="43.71496" lon="5.97624">
        <ele>364.4</ele>
        <time>2023-06-11T12:15:57Z</time>
      </trkpt>
      <trkpt lat="43.71496" lon="5.97623">
        <ele>364.4</ele>
        <time>2023-06-11T12:15:58Z</time>
      </trkpt>
      <trkpt lat="43.71495" lon="5.97622">
        <ele>364.4</ele>
        <time>2023-06-11T12:15:59Z</time>
      </trkpt>
      <trkpt lat="43.71494" lon="5.97622">
        <ele>364.4</ele>
        <time>2023-06-11T12:16:00Z</time>
      </trkpt>
      <trkpt lat="43.71493" lon="5.97621">
        <ele>364.4</ele>
        <time>2023-06-11T12:16:01Z</time>
      </trkpt>
      <trkpt lat="43.71492" lon="5.97621">
        <ele>364.3</ele>
        <time>2023-06-11T12:16:02Z</time>
      </trkpt>
      <trkpt lat="43.71491" lon="5.97621">
        <ele>364.3</ele>
        <time>2023-06-11T12:16:03Z</time>
      </trkpt>
      <trkpt lat="43.7149" lon="5.97621">
        <ele>364.3</ele>
        <time>2023-06-11T12:16:04Z</time>
      </trkpt>
      <trkpt lat="43.71489" lon="5.9762">
        <ele>364.3</ele>
        <time>2023-06-11T12:16:05Z</time>
      </trkpt>
      <trkpt lat="43.71488" lon="5.9762">
        <ele>364.2</ele>
        <time>2023-06-11T12:16:06Z</time>
      </trkpt>
      <trkpt lat="43.71487" lon="5.9762">
        <ele>364.3</ele>
        <time>2023-06-11T12:16:07Z</time>
      </trkpt>
      <trkpt lat="43.71486" lon="5.9762">
        <ele>364.3</ele>
        <time>2023-06-11T12:16:08Z</time>
      </trkpt>
      <trkpt lat="43.71485" lon="5.97619">
        <ele>364.3</ele>
        <time>2023-06-11T12:16:09Z</time>
      </trkpt>
      <trkpt lat="43.71484" lon="5.97619">
        <ele>364.3</ele>
        <time>2023-06-11T12:16:10Z</time>
      </trkpt>
      <trkpt lat="43.71482" lon="5.97618">
        <ele>364.4</ele>
        <time>2023-06-11T12:16:11Z</time>
      </trkpt>
      <trkpt lat="43.71481" lon="5.97617">
        <ele>364.4</ele>
        <time>2023-06-11T12:16:12Z</time>
      </trkpt>
      <trkpt lat="43.7148" lon="5.97616">
        <ele>364.4</ele>
        <time>2023-06-11T12:16:13Z</time>
      </trkpt>
      <trkpt lat="43.71479" lon="5.97615">
        <ele>364.4</ele>
        <time>2023-06-11T12:16:14Z</time>
      </trkpt>
      <trkpt lat="43.71478" lon="5.97614">
        <ele>364.4</ele>
        <time>2023-06-11T12:16:15Z</time>
      </trkpt>
      <trkpt lat="43.71477" lon="5.97613">
        <ele>364.3</ele>
        <time>2023-06-11T12:16:16Z</time>
      </trkpt>
      <trkpt lat="43.71476" lon="5.97612">
        <ele>364.2</ele>
        <time>2023-06-11T12:16:17Z</time>
      </trkpt>
      <trkpt lat="43.71475" lon="5.97611">
        <ele>364.2</ele>
        <time>2023-06-11T12:16:18Z</time>
      </trkpt>
      <trkpt lat="43.71475" lon="5.97609">
        <ele>364.2</ele>
        <time>2023-06-11T12:16:19Z</time>
      </trkpt>
      <trkpt lat="43.71474" lon="5.97608">
        <ele>364.2</ele>
        <time>2023-06-11T12:16:20Z</time>
      </trkpt>
      <trkpt lat="43.71474" lon="5.97606">
        <ele>364.3</ele>
        <time>2023-06-11T12:16:21Z</time>
      </trkpt>
      <trkpt lat="43.71473" lon="5.97605">
        <ele>364.3</ele>
        <time>2023-06-11T12:16:22Z</time>
      </trkpt>
      <trkpt lat="43.71473" lon="5.97603">
        <ele>364.3</ele>
        <time>2023-06-11T12:16:23Z</time>
      </trkpt>
      <trkpt lat="43.71473" lon="5.97602">
        <ele>364.3</ele>
        <time>2023-06-11T12:16:24Z</time>
      </trkpt>
      <trkpt lat="43.71473" lon="5.976">
        <ele>364.2</ele>
        <time>2023-06-11T12:16:25Z</time>
      </trkpt>
      <trkpt lat="43.71473" lon="5.97598">
        <ele>364.2</ele>
        <time>2023-06-11T12:16:26Z</time>
      </trkpt>
      <trkpt lat="43.71473" lon="5.97597">
        <ele>364.2</ele>
        <time>2023-06-11T12:16:27Z</time>
      </trkpt>
      <trkpt lat="43.71473" lon="5.97595">
        <ele>364.2</ele>
        <time>2023-06-11T12:16:28Z</time>
      </trkpt>
      <trkpt lat="43.71473" lon="5.97594">
        <ele>364.2</ele>
        <time>2023-06-11T12:16:29Z</time>
      </trkpt>
      <trkpt lat="43.71473" lon="5.97592">
        <ele>364</ele>
        <time>2023-06-11T12:16:30Z</time>
      </trkpt>
      <trkpt lat="43.71473" lon="5.9759">
        <ele>364</ele>
        <time>2023-06-11T12:16:31Z</time>
      </trkpt>
      <trkpt lat="43.71473" lon="5.97589">
        <ele>364.1</ele>
        <time>2023-06-11T12:16:32Z</time>
      </trkpt>
      <trkpt lat="43.71473" lon="5.97587">
        <ele>364.1</ele>
        <time>2023-06-11T12:16:33Z</time>
      </trkpt>
      <trkpt lat="43.71473" lon="5.97586">
        <ele>364.1</ele>
        <time>2023-06-11T12:16:34Z</time>
      </trkpt>
      <trkpt lat="43.71473" lon="5.97584">
        <ele>364.1</ele>
        <time>2023-06-11T12:16:35Z</time>
      </trkpt>
      <trkpt lat="43.71473" lon="5.97583">
        <ele>364.1</ele>
        <time>2023-06-11T12:16:36Z</time>
      </trkpt>
      <trkpt lat="43.71473" lon="5.97581">
        <ele>364.2</ele>
        <time>2023-06-11T12:16:37Z</time>
      </trkpt>
      <trkpt lat="43.71473" lon="5.9758">
        <ele>364.2</ele>
        <time>2023-06-11T12:16:38Z</time>
      </trkpt>
      <trkpt lat="43.71473" lon="5.97578">
        <ele>364.2</ele>
        <time>2023-06-11T12:16:39Z</time>
      </trkpt>
      <trkpt lat="43.71473" lon="5.97576">
        <ele>364.3</ele>
        <time>2023-06-11T12:16:40Z</time>
      </trkpt>
      <trkpt lat="43.71473" lon="5.97575">
        <ele>364.3</ele>
        <time>2023-06-11T12:16:41Z</time>
      </trkpt>
      <trkpt lat="43.71473" lon="5.97573">
        <ele>364.3</ele>
        <time>2023-06-11T12:16:42Z</time>
      </trkpt>
      <trkpt lat="43.71473" lon="5.97571">
        <ele>364.3</ele>
        <time>2023-06-11T12:16:43Z</time>
      </trkpt>
      <trkpt lat="43.71472" lon="5.9757">
        <ele>364.3</ele>
        <time>2023-06-11T12:16:44Z</time>
      </trkpt>
      <trkpt lat="43.71472" lon="5.97568">
        <ele>364.2</ele>
        <time>2023-06-11T12:16:45Z</time>
      </trkpt>
      <trkpt lat="43.71472" lon="5.97566">
        <ele>364.2</ele>
        <time>2023-06-11T12:16:46Z</time>
      </trkpt>
      <trkpt lat="43.71472" lon="5.97564">
        <ele>364.1</ele>
        <time>2023-06-11T12:16:47Z</time>
      </trkpt>
      <trkpt lat="43.71471" lon="5.97563">
        <ele>364.2</ele>
        <time>2023-06-11T12:16:48Z</time>
      </trkpt>
      <trkpt lat="43.71472" lon="5.97561">
        <ele>364.2</ele>
        <time>2023-06-11T12:16:49Z</time>
      </trkpt>
      <trkpt lat="43.71472" lon="5.9756">
        <ele>364.2</ele>
        <time>2023-06-11T12:16:50Z</time>
      </trkpt>
      <trkpt lat="43.71471" lon="5.97558">
        <ele>364.2</ele>
        <time>2023-06-11T12:16:51Z</time>
      </trkpt>
      <trkpt lat="43.71472" lon="5.97557">
        <ele>364.2</ele>
        <time>2023-06-11T12:16:52Z</time>
      </trkpt>
      <trkpt lat="43.71471" lon="5.97555">
        <ele>364.3</ele>
        <time>2023-06-11T12:16:53Z</time>
      </trkpt>
      <trkpt lat="43.71471" lon="5.97554">
        <ele>364.3</ele>
        <time>2023-06-11T12:16:54Z</time>
      </trkpt>
      <trkpt lat="43.71471" lon="5.97552">
        <ele>364.3</ele>
        <time>2023-06-11T12:16:55Z</time>
      </trkpt>
      <trkpt lat="43.71471" lon="5.97551">
        <ele>364.2</ele>
        <time>2023-06-11T12:16:56Z</time>
      </trkpt>
      <trkpt lat="43.7147" lon="5.97549">
        <ele>364.2</ele>
        <time>2023-06-11T12:16:57Z</time>
      </trkpt>
      <trkpt lat="43.7147" lon="5.97548">
        <ele>364.2</ele>
        <time>2023-06-11T12:16:58Z</time>
      </trkpt>
      <trkpt lat="43.71469" lon="5.97547">
        <ele>364.2</ele>
        <time>2023-06-11T12:16:59Z</time>
      </trkpt>
      <trkpt lat="43.71469" lon="5.97545">
        <ele>364.2</ele>
        <time>2023-06-11T12:17:00Z</time>
      </trkpt>
      <trkpt lat="43.71469" lon="5.97544">
        <ele>364.1</ele>
        <time>2023-06-11T12:17:01Z</time>
      </trkpt>
      <trkpt lat="43.71469" lon="5.97543">
        <ele>364.1</ele>
        <time>2023-06-11T12:17:02Z</time>
      </trkpt>
      <trkpt lat="43.71469" lon="5.97542">
        <ele>364</ele>
        <time>2023-06-11T12:17:03Z</time>
      </trkpt>
      <trkpt lat="43.71468" lon="5.97541">
        <ele>364</ele>
        <time>2023-06-11T12:17:04Z</time>
      </trkpt>
      <trkpt lat="43.71468" lon="5.9754">
        <ele>363.9</ele>
        <time>2023-06-11T12:17:05Z</time>
      </trkpt>
      <trkpt lat="43.71468" lon="5.97539">
        <ele>363.9</ele>
        <time>2023-06-11T12:17:06Z</time>
      </trkpt>
      <trkpt lat="43.71468" lon="5.97538">
        <ele>363.9</ele>
        <time>2023-06-11T12:17:07Z</time>
      </trkpt>
      <trkpt lat="43.71467" lon="5.97537">
        <ele>363.9</ele>
        <time>2023-06-11T12:17:08Z</time>
      </trkpt>
      <trkpt lat="43.71467" lon="5.97536">
        <ele>363.9</ele>
        <time>2023-06-11T12:17:09Z</time>
      </trkpt>
      <trkpt lat="43.71467" lon="5.97535">
        <ele>363.9</ele>
        <time>2023-06-11T12:17:10Z</time>
      </trkpt>
      <trkpt lat="43.71467" lon="5.97534">
        <ele>363.8</ele>
        <time>2023-06-11T12:17:11Z</time>
      </trkpt>
      <trkpt lat="43.71467" lon="5.97533">
        <ele>363.8</ele>
        <time>2023-06-11T12:17:12Z</time>
      </trkpt>
      <trkpt lat="43.71466" lon="5.97532">
        <ele>363.8</ele>
        <time>2023-06-11T12:17:13Z</time>
      </trkpt>
      <trkpt lat="43.71466" lon="5.97531">
        <ele>363.8</ele>
        <time>2023-06-11T12:17:14Z</time>
      </trkpt>
      <trkpt lat="43.71465" lon="5.9753">
        <ele>363.8</ele>
        <time>2023-06-11T12:17:15Z</time>
      </trkpt>
      <trkpt lat="43.71465" lon="5.97529">
        <ele>363.8</ele>
        <time>2023-06-11T12:17:16Z</time>
      </trkpt>
      <trkpt lat="43.71464" lon="5.97528">
        <ele>363.8</ele>
        <time>2023-06-11T12:17:17Z</time>
      </trkpt>
      <trkpt lat="43.71463" lon="5.97527">
        <ele>363.8</ele>
        <time>2023-06-11T12:17:18Z</time>
      </trkpt>
      <trkpt lat="43.71463" lon="5.97526">
        <ele>363.9</ele>
        <time>2023-06-11T12:17:19Z</time>
      </trkpt>
      <trkpt lat="43.71462" lon="5.97525">
        <ele>363.9</ele>
        <time>2023-06-11T12:17:20Z</time>
      </trkpt>
      <trkpt lat="43.71462" lon="5.97524">
        <ele>363.9</ele>
        <time>2023-06-11T12:17:21Z</time>
      </trkpt>
      <trkpt lat="43.71461" lon="5.97522">
        <ele>364</ele>
        <time>2023-06-11T12:17:22Z</time>
      </trkpt>
      <trkpt lat="43.7146" lon="5.97521">
        <ele>364</ele>
        <time>2023-06-11T12:17:23Z</time>
      </trkpt>
      <trkpt lat="43.7146" lon="5.9752">
        <ele>364.1</ele>
        <time>2023-06-11T12:17:24Z</time>
      </trkpt>
      <trkpt lat="43.71459" lon="5.97519">
        <ele>364.1</ele>
        <time>2023-06-11T12:17:25Z</time>
      </trkpt>
      <trkpt lat="43.71459" lon="5.97517">
        <ele>364.1</ele>
        <time>2023-06-11T12:17:26Z</time>
      </trkpt>
      <trkpt lat="43.71458" lon="5.97516">
        <ele>364.1</ele>
        <time>2023-06-11T12:17:27Z</time>
      </trkpt>
      <trkpt lat="43.71457" lon="5.97515">
        <ele>364.1</ele>
        <time>2023-06-11T12:17:28Z</time>
      </trkpt>
      <trkpt lat="43.71457" lon="5.97513">
        <ele>364.1</ele>
        <time>2023-06-11T12:17:29Z</time>
      </trkpt>
      <trkpt lat="43.71456" lon="5.97512">
        <ele>364.1</ele>
        <time>2023-06-11T12:17:30Z</time>
      </trkpt>
      <trkpt lat="43.71456" lon="5.97511">
        <ele>364</ele>
        <time>2023-06-11T12:17:31Z</time>
      </trkpt>
      <trkpt lat="43.71455" lon="5.97509">
        <ele>364</ele>
        <time>2023-06-11T12:17:32Z</time>
      </trkpt>
      <trkpt lat="43.71455" lon="5.97508">
        <ele>364</ele>
        <time>2023-06-11T12:17:33Z</time>
      </trkpt>
      <trkpt lat="43.71454" lon="5.97506">
        <ele>364</ele>
        <time>2023-06-11T12:17:34Z</time>
      </trkpt>
      <trkpt lat="43.71453" lon="5.97505">
        <ele>364</ele>
        <time>2023-06-11T12:17:35Z</time>
      </trkpt>
      <trkpt lat="43.71452" lon="5.97503">
        <ele>364</ele>
        <time>2023-06-11T12:17:36Z</time>
      </trkpt>
      <trkpt lat="43.71452" lon="5.97502">
        <ele>364</ele>
        <time>2023-06-11T12:17:37Z</time>
      </trkpt>
      <trkpt lat="43.71451" lon="5.975">
        <ele>364</ele>
        <time>2023-06-11T12:17:38Z</time>
      </trkpt>
      <trkpt lat="43.7145" lon="5.97499">
        <ele>364.1</ele>
        <time>2023-06-11T12:17:39Z</time>
      </trkpt>
      <trkpt lat="43.7145" lon="5.97497">
        <ele>364.1</ele>
        <time>2023-06-11T12:17:40Z</time>
      </trkpt>
      <trkpt lat="43.71449" lon="5.97496">
        <ele>364.2</ele>
        <time>2023-06-11T12:17:41Z</time>
      </trkpt>
      <trkpt lat="43.71448" lon="5.97494">
        <ele>364.2</ele>
        <time>2023-06-11T12:17:42Z</time>
      </trkpt>
      <trkpt lat="43.71448" lon="5.97493">
        <ele>364.3</ele>
        <time>2023-06-11T12:17:43Z</time>
      </trkpt>
      <trkpt lat="43.71447" lon="5.97491">
        <ele>364.3</ele>
        <time>2023-06-11T12:17:44Z</time>
      </trkpt>
      <trkpt lat="43.71446" lon="5.97489">
        <ele>364.4</ele>
        <time>2023-06-11T12:17:45Z</time>
      </trkpt>
      <trkpt lat="43.71445" lon="5.97488">
        <ele>364.2</ele>
        <time>2023-06-11T12:17:46Z</time>
      </trkpt>
      <trkpt lat="43.71445" lon="5.97486">
        <ele>364.3</ele>
        <time>2023-06-11T12:17:47Z</time>
      </trkpt>
      <trkpt lat="43.71444" lon="5.97485">
        <ele>364.3</ele>
        <time>2023-06-11T12:17:48Z</time>
      </trkpt>
      <trkpt lat="43.71443" lon="5.97483">
        <ele>364.4</ele>
        <time>2023-06-11T12:17:49Z</time>
      </trkpt>
      <trkpt lat="43.71442" lon="5.97482">
        <ele>364.3</ele>
        <time>2023-06-11T12:17:50Z</time>
      </trkpt>
      <trkpt lat="43.71442" lon="5.9748">
        <ele>364.3</ele>
        <time>2023-06-11T12:17:51Z</time>
      </trkpt>
      <trkpt lat="43.71441" lon="5.97479">
        <ele>364.2</ele>
        <time>2023-06-11T12:17:52Z</time>
      </trkpt>
      <trkpt lat="43.71441" lon="5.97477">
        <ele>364.2</ele>
        <time>2023-06-11T12:17:53Z</time>
      </trkpt>
      <trkpt lat="43.7144" lon="5.97475">
        <ele>364.2</ele>
        <time>2023-06-11T12:17:54Z</time>
      </trkpt>
      <trkpt lat="43.71439" lon="5.97474">
        <ele>364.2</ele>
        <time>2023-06-11T12:17:55Z</time>
      </trkpt>
      <trkpt lat="43.71439" lon="5.97472">
        <ele>364.2</ele>
        <time>2023-06-11T12:17:56Z</time>
      </trkpt>
      <trkpt lat="43.71438" lon="5.97471">
        <ele>364.2</ele>
        <time>2023-06-11T12:17:57Z</time>
      </trkpt>
      <trkpt lat="43.71438" lon="5.97469">
        <ele>364.3</ele>
        <time>2023-06-11T12:17:58Z</time>
      </trkpt>
      <trkpt lat="43.71437" lon="5.97467">
        <ele>364.3</ele>
        <time>2023-06-11T12:17:59Z</time>
      </trkpt>
      <trkpt lat="43.71437" lon="5.97466">
        <ele>364.3</ele>
        <time>2023-06-11T12:18:00Z</time>
      </trkpt>
      <trkpt lat="43.71436" lon="5.97464">
        <ele>364.3</ele>
        <time>2023-06-11T12:18:01Z</time>
      </trkpt>
      <trkpt lat="43.71436" lon="5.97462">
        <ele>364.2</ele>
        <time>2023-06-11T12:18:02Z</time>
      </trkpt>
      <trkpt lat="43.71436" lon="5.97461">
        <ele>364.2</ele>
        <time>2023-06-11T12:18:03Z</time>
      </trkpt>
      <trkpt lat="43.71436" lon="5.9746">
        <ele>364.1</ele>
        <time>2023-06-11T12:18:04Z</time>
      </trkpt>
      <trkpt lat="43.71436" lon="5.97458">
        <ele>364.1</ele>
        <time>2023-06-11T12:18:05Z</time>
      </trkpt>
      <trkpt lat="43.71436" lon="5.97457">
        <ele>364.1</ele>
        <time>2023-06-11T12:18:06Z</time>
      </trkpt>
      <trkpt lat="43.71436" lon="5.97455">
        <ele>364.1</ele>
        <time>2023-06-11T12:18:07Z</time>
      </trkpt>
      <trkpt lat="43.71435" lon="5.97454">
        <ele>364.2</ele>
        <time>2023-06-11T12:18:08Z</time>
      </trkpt>
      <trkpt lat="43.71435" lon="5.97452">
        <ele>364.3</ele>
        <time>2023-06-11T12:18:09Z</time>
      </trkpt>
      <trkpt lat="43.71435" lon="5.97451">
        <ele>364.2</ele>
        <time>2023-06-11T12:18:10Z</time>
      </trkpt>
      <trkpt lat="43.71435" lon="5.97449">
        <ele>364.3</ele>
        <time>2023-06-11T12:18:11Z</time>
      </trkpt>
      <trkpt lat="43.71434" lon="5.97448">
        <ele>364.3</ele>
        <time>2023-06-11T12:18:12Z</time>
      </trkpt>
      <trkpt lat="43.71434" lon="5.97446">
        <ele>364.3</ele>
        <time>2023-06-11T12:18:13Z</time>
      </trkpt>
      <trkpt lat="43.71434" lon="5.97444">
        <ele>364.4</ele>
        <time>2023-06-11T12:18:14Z</time>
      </trkpt>
      <trkpt lat="43.71434" lon="5.97443">
        <ele>364.4</ele>
        <time>2023-06-11T12:18:15Z</time>
      </trkpt>
      <trkpt lat="43.71434" lon="5.97441">
        <ele>364.3</ele>
        <time>2023-06-11T12:18:16Z</time>
      </trkpt>
      <trkpt lat="43.71433" lon="5.9744">
        <ele>364.2</ele>
        <time>2023-06-11T12:18:17Z</time>
      </trkpt>
      <trkpt lat="43.71433" lon="5.97438">
        <ele>364.2</ele>
        <time>2023-06-11T12:18:18Z</time>
      </trkpt>
      <trkpt lat="43.71433" lon="5.97436">
        <ele>364.2</ele>
        <time>2023-06-11T12:18:19Z</time>
      </trkpt>
      <trkpt lat="43.71433" lon="5.97435">
        <ele>364.2</ele>
        <time>2023-06-11T12:18:20Z</time>
      </trkpt>
      <trkpt lat="43.71433" lon="5.97433">
        <ele>364.1</ele>
        <time>2023-06-11T12:18:21Z</time>
      </trkpt>
      <trkpt lat="43.71433" lon="5.97432">
        <ele>364</ele>
        <time>2023-06-11T12:18:22Z</time>
      </trkpt>
      <trkpt lat="43.71434" lon="5.9743">
        <ele>364</ele>
        <time>2023-06-11T12:18:23Z</time>
      </trkpt>
      <trkpt lat="43.71434" lon="5.97428">
        <ele>364.1</ele>
        <time>2023-06-11T12:18:24Z</time>
      </trkpt>
      <trkpt lat="43.71434" lon="5.97427">
        <ele>364.2</ele>
        <time>2023-06-11T12:18:25Z</time>
      </trkpt>
      <trkpt lat="43.71434" lon="5.97425">
        <ele>364.2</ele>
        <time>2023-06-11T12:18:26Z</time>
      </trkpt>
      <trkpt lat="43.71434" lon="5.97423">
        <ele>364.2</ele>
        <time>2023-06-11T12:18:27Z</time>
      </trkpt>
      <trkpt lat="43.71434" lon="5.97421">
        <ele>364.2</ele>
        <time>2023-06-11T12:18:28Z</time>
      </trkpt>
      <trkpt lat="43.71434" lon="5.9742">
        <ele>364.1</ele>
        <time>2023-06-11T12:18:29Z</time>
      </trkpt>
      <trkpt lat="43.71434" lon="5.97418">
        <ele>364.2</ele>
        <time>2023-06-11T12:18:30Z</time>
      </trkpt>
      <trkpt lat="43.71434" lon="5.97416">
        <ele>364.2</ele>
        <time>2023-06-11T12:18:31Z</time>
      </trkpt>
      <trkpt lat="43.71434" lon="5.97414">
        <ele>364.2</ele>
        <time>2023-06-11T12:18:32Z</time>
      </trkpt>
      <trkpt lat="43.71434" lon="5.97413">
        <ele>364.3</ele>
        <time>2023-06-11T12:18:33Z</time>
      </trkpt>
      <trkpt lat="43.71434" lon="5.97411">
        <ele>364.3</ele>
        <time>2023-06-11T12:18:34Z</time>
      </trkpt>
      <trkpt lat="43.71434" lon="5.97409">
        <ele>364.3</ele>
        <time>2023-06-11T12:18:35Z</time>
      </trkpt>
      <trkpt lat="43.71434" lon="5.97407">
        <ele>364.3</ele>
        <time>2023-06-11T12:18:36Z</time>
      </trkpt>
      <trkpt lat="43.71434" lon="5.97406">
        <ele>364.2</ele>
        <time>2023-06-11T12:18:37Z</time>
      </trkpt>
      <trkpt lat="43.71434" lon="5.97404">
        <ele>364.2</ele>
        <time>2023-06-11T12:18:38Z</time>
      </trkpt>
      <trkpt lat="43.71435" lon="5.97402">
        <ele>364.1</ele>
        <time>2023-06-11T12:18:39Z</time>
      </trkpt>
      <trkpt lat="43.71434" lon="5.97401">
        <ele>364.1</ele>
        <time>2023-06-11T12:18:40Z</time>
      </trkpt>
      <trkpt lat="43.71434" lon="5.97399">
        <ele>364</ele>
        <time>2023-06-11T12:18:41Z</time>
      </trkpt>
      <trkpt lat="43.71434" lon="5.97398">
        <ele>364</ele>
        <time>2023-06-11T12:18:42Z</time>
      </trkpt>
      <trkpt lat="43.71434" lon="5.97396">
        <ele>363.9</ele>
        <time>2023-06-11T12:18:43Z</time>
      </trkpt>
      <trkpt lat="43.71433" lon="5.97395">
        <ele>363.9</ele>
        <time>2023-06-11T12:18:44Z</time>
      </trkpt>
      <trkpt lat="43.71433" lon="5.97394">
        <ele>363.8</ele>
        <time>2023-06-11T12:18:45Z</time>
      </trkpt>
      <trkpt lat="43.71432" lon="5.97393">
        <ele>363.8</ele>
        <time>2023-06-11T12:18:46Z</time>
      </trkpt>
      <trkpt lat="43.71431" lon="5.97392">
        <ele>363.7</ele>
        <time>2023-06-11T12:18:47Z</time>
      </trkpt>
      <trkpt lat="43.7143" lon="5.97391">
        <ele>363.7</ele>
        <time>2023-06-11T12:18:48Z</time>
      </trkpt>
      <trkpt lat="43.7143" lon="5.97389">
        <ele>363.6</ele>
        <time>2023-06-11T12:18:49Z</time>
      </trkpt>
      <trkpt lat="43.71429" lon="5.97388">
        <ele>363.7</ele>
        <time>2023-06-11T12:18:50Z</time>
      </trkpt>
      <trkpt lat="43.71428" lon="5.97387">
        <ele>363.8</ele>
        <time>2023-06-11T12:18:51Z</time>
      </trkpt>
      <trkpt lat="43.71428" lon="5.97386">
        <ele>363.8</ele>
        <time>2023-06-11T12:18:52Z</time>
      </trkpt>
      <trkpt lat="43.71427" lon="5.97385">
        <ele>363.8</ele>
        <time>2023-06-11T12:18:53Z</time>
      </trkpt>
      <trkpt lat="43.71426" lon="5.97384">
        <ele>363.7</ele>
        <time>2023-06-11T12:18:54Z</time>
      </trkpt>
      <trkpt lat="43.71426" lon="5.97383">
        <ele>363.7</ele>
        <time>2023-06-11T12:18:55Z</time>
      </trkpt>
      <trkpt lat="43.71425" lon="5.97383">
        <ele>363.6</ele>
        <time>2023-06-11T12:18:56Z</time>
      </trkpt>
      <trkpt lat="43.71425" lon="5.97382">
        <ele>363.6</ele>
        <time>2023-06-11T12:18:57Z</time>
      </trkpt>
      <trkpt lat="43.71425" lon="5.97381">
        <ele>363.6</ele>
        <time>2023-06-11T12:18:58Z</time>
      </trkpt>
      <trkpt lat="43.71424" lon="5.97381">
        <ele>363.6</ele>
        <time>2023-06-11T12:18:59Z</time>
      </trkpt>
      <trkpt lat="43.71424" lon="5.9738">
        <ele>363.7</ele>
        <time>2023-06-11T12:19:00Z</time>
      </trkpt>
      <trkpt lat="43.71424" lon="5.9738">
        <ele>363.8</ele>
        <time>2023-06-11T12:19:01Z</time>
      </trkpt>
      <trkpt lat="43.71424" lon="5.97379">
        <ele>363.8</ele>
        <time>2023-06-11T12:19:02Z</time>
      </trkpt>
      <trkpt lat="43.71424" lon="5.97379">
        <ele>363.9</ele>
        <time>2023-06-11T12:19:03Z</time>
      </trkpt>
      <trkpt lat="43.71423" lon="5.97378">
        <ele>363.9</ele>
        <time>2023-06-11T12:19:04Z</time>
      </trkpt>
      <trkpt lat="43.71423" lon="5.97378">
        <ele>364</ele>
        <time>2023-06-11T12:19:05Z</time>
      </trkpt>
      <trkpt lat="43.71423" lon="5.97378">
        <ele>364</ele>
        <time>2023-06-11T12:19:06Z</time>
      </trkpt>
      <trkpt lat="43.71423" lon="5.97378">
        <ele>364</ele>
        <time>2023-06-11T12:19:07Z</time>
      </trkpt>
      <trkpt lat="43.71423" lon="5.97377">
        <ele>364</ele>
        <time>2023-06-11T12:19:08Z</time>
      </trkpt>
      <trkpt lat="43.71423" lon="5.97377">
        <ele>364.1</ele>
        <time>2023-06-11T12:19:09Z</time>
      </trkpt>
      <trkpt lat="43.71423" lon="5.97377">
        <ele>364.1</ele>
        <time>2023-06-11T12:19:10Z</time>
      </trkpt>
      <trkpt lat="43.71423" lon="5.97377">
        <ele>364.1</ele>
        <time>2023-06-11T12:19:11Z</time>
      </trkpt>
      <trkpt lat="43.71423" lon="5.97377">
        <ele>364.1</ele>
        <time>2023-06-11T12:19:12Z</time>
      </trkpt>
      <trkpt lat="43.71423" lon="5.97376">
        <ele>364</ele>
        <time>2023-06-11T12:19:13Z</time>
      </trkpt>
      <trkpt lat="43.71423" lon="5.97376">
        <ele>364</ele>
        <time>2023-06-11T12:19:14Z</time>
      </trkpt>
      <trkpt lat="43.71422" lon="5.97376">
        <ele>363.9</ele>
        <time>2023-06-11T12:19:15Z</time>
      </trkpt>
      <trkpt lat="43.71422" lon="5.97376">
        <ele>363.9</ele>
        <time>2023-06-11T12:19:16Z</time>
      </trkpt>
      <trkpt lat="43.71422" lon="5.97377">
        <ele>363.8</ele>
        <time>2023-06-11T12:19:17Z</time>
      </trkpt>
      <trkpt lat="43.71421" lon="5.97377">
        <ele>363.8</ele>
        <time>2023-06-11T12:19:18Z</time>
      </trkpt>
      <trkpt lat="43.71421" lon="5.97377">
        <ele>363.8</ele>
        <time>2023-06-11T12:19:19Z</time>
      </trkpt>
      <trkpt lat="43.71421" lon="5.97377">
        <ele>363.8</ele>
        <time>2023-06-11T12:19:20Z</time>
      </trkpt>
      <trkpt lat="43.71421" lon="5.97377">
        <ele>363.8</ele>
        <time>2023-06-11T12:19:21Z</time>
      </trkpt>
      <trkpt lat="43.71421" lon="5.97377">
        <ele>363.8</ele>
        <time>2023-06-11T12:19:22Z</time>
      </trkpt>
      <trkpt lat="43.71421" lon="5.97377">
        <ele>363.8</ele>
        <time>2023-06-11T12:19:23Z</time>
      </trkpt>
      <trkpt lat="43.71421" lon="5.97377">
        <ele>363.8</ele>
        <time>2023-06-11T12:19:24Z</time>
      </trkpt>
      <trkpt lat="43.7142" lon="5.97376">
        <ele>363.8</ele>
        <time>2023-06-11T12:19:25Z</time>
      </trkpt>
      <trkpt lat="43.7142" lon="5.97376">
        <ele>363.8</ele>
        <time>2023-06-11T12:19:26Z</time>
      </trkpt>
      <trkpt lat="43.7142" lon="5.97375">
        <ele>363.8</ele>
        <time>2023-06-11T12:19:27Z</time>
      </trkpt>
      <trkpt lat="43.7142" lon="5.97375">
        <ele>363.8</ele>
        <time>2023-06-11T12:19:28Z</time>
      </trkpt>
      <trkpt lat="43.7142" lon="5.97374">
        <ele>363.8</ele>
        <time>2023-06-11T12:19:29Z</time>
      </trkpt>
      <trkpt lat="43.7142" lon="5.97373">
        <ele>363.8</ele>
        <time>2023-06-11T12:19:30Z</time>
      </trkpt>
      <trkpt lat="43.7142" lon="5.97373">
        <ele>363.9</ele>
        <time>2023-06-11T12:19:31Z</time>
      </trkpt>
      <trkpt lat="43.71421" lon="5.97372">
        <ele>364</ele>
        <time>2023-06-11T12:19:32Z</time>
      </trkpt>
      <trkpt lat="43.71421" lon="5.97371">
        <ele>364</ele>
        <time>2023-06-11T12:19:33Z</time>
      </trkpt>
      <trkpt lat="43.71421" lon="5.97371">
        <ele>364</ele>
        <time>2023-06-11T12:19:34Z</time>
      </trkpt>
      <trkpt lat="43.71422" lon="5.9737">
        <ele>364.1</ele>
        <time>2023-06-11T12:19:35Z</time>
      </trkpt>
      <trkpt lat="43.71422" lon="5.97369">
        <ele>364</ele>
        <time>2023-06-11T12:19:36Z</time>
      </trkpt>
      <trkpt lat="43.71422" lon="5.97369">
        <ele>364.2</ele>
        <time>2023-06-11T12:19:37Z</time>
      </trkpt>
      <trkpt lat="43.71422" lon="5.97368">
        <ele>364.3</ele>
        <time>2023-06-11T12:19:38Z</time>
      </trkpt>
      <trkpt lat="43.71422" lon="5.97368">
        <ele>364.2</ele>
        <time>2023-06-11T12:19:39Z</time>
      </trkpt>
      <trkpt lat="43.71423" lon="5.97367">
        <ele>364.1</ele>
        <time>2023-06-11T12:19:40Z</time>
      </trkpt>
      <trkpt lat="43.71423" lon="5.97366">
        <ele>364.1</ele>
        <time>2023-06-11T12:19:41Z</time>
      </trkpt>
      <trkpt lat="43.71423" lon="5.97366">
        <ele>364.2</ele>
        <time>2023-06-11T12:19:42Z</time>
      </trkpt>
      <trkpt lat="43.71423" lon="5.97365">
        <ele>364.2</ele>
        <time>2023-06-11T12:19:43Z</time>
      </trkpt>
      <trkpt lat="43.71423" lon="5.97365">
        <ele>364.2</ele>
        <time>2023-06-11T12:19:44Z</time>
      </trkpt>
      <trkpt lat="43.71423" lon="5.97364">
        <ele>364.2</ele>
        <time>2023-06-11T12:19:45Z</time>
      </trkpt>
      <trkpt lat="43.71424" lon="5.97364">
        <ele>364.3</ele>
        <time>2023-06-11T12:19:46Z</time>
      </trkpt>
      <trkpt lat="43.71424" lon="5.97364">
        <ele>364.3</ele>
        <time>2023-06-11T12:19:47Z</time>
      </trkpt>
      <trkpt lat="43.71424" lon="5.97363">
        <ele>364.3</ele>
        <time>2023-06-11T12:19:48Z</time>
      </trkpt>
      <trkpt lat="43.71424" lon="5.97363">
        <ele>364.3</ele>
        <time>2023-06-11T12:19:49Z</time>
      </trkpt>
      <trkpt lat="43.71424" lon="5.97363">
        <ele>364.2</ele>
        <time>2023-06-11T12:19:50Z</time>
      </trkpt>
      <trkpt lat="43.71424" lon="5.97362">
        <ele>364.3</ele>
        <time>2023-06-11T12:19:51Z</time>
      </trkpt>
      <trkpt lat="43.71425" lon="5.97362">
        <ele>364.3</ele>
        <time>2023-06-11T12:19:52Z</time>
      </trkpt>
      <trkpt lat="43.71425" lon="5.97362">
        <ele>364.3</ele>
        <time>2023-06-11T12:19:53Z</time>
      </trkpt>
      <trkpt lat="43.71425" lon="5.97362">
        <ele>364.2</ele>
        <time>2023-06-11T12:19:54Z</time>
      </trkpt>
      <trkpt lat="43.71425" lon="5.97362">
        <ele>364.2</ele>
        <time>2023-06-11T12:19:55Z</time>
      </trkpt>
      <trkpt lat="43.71425" lon="5.97361">
        <ele>364.3</ele>
        <time>2023-06-11T12:19:56Z</time>
      </trkpt>
      <trkpt lat="43.71426" lon="5.97361">
        <ele>364.3</ele>
        <time>2023-06-11T12:19:57Z</time>
      </trkpt>
      <trkpt lat="43.71426" lon="5.97361">
        <ele>364.2</ele>
        <time>2023-06-11T12:19:58Z</time>
      </trkpt>
      <trkpt lat="43.71426" lon="5.97361">
        <ele>364.1</ele>
        <time>2023-06-11T12:19:59Z</time>
      </trkpt>
      <trkpt lat="43.71426" lon="5.97361">
        <ele>364</ele>
        <time>2023-06-11T12:20:00Z</time>
      </trkpt>
      <trkpt lat="43.71427" lon="5.97361">
        <ele>364</ele>
        <time>2023-06-11T12:20:01Z</time>
      </trkpt>
      <trkpt lat="43.71427" lon="5.97361">
        <ele>364</ele>
        <time>2023-06-11T12:20:02Z</time>
      </trkpt>
      <trkpt lat="43.71427" lon="5.97361">
        <ele>363.9</ele>
        <time>2023-06-11T12:20:03Z</time>
      </trkpt>
      <trkpt lat="43.71427" lon="5.97361">
        <ele>363.9</ele>
        <time>2023-06-11T12:20:04Z</time>
      </trkpt>
      <trkpt lat="43.71427" lon="5.97361">
        <ele>363.9</ele>
        <time>2023-06-11T12:20:05Z</time>
      </trkpt>
      <trkpt lat="43.71427" lon="5.97361">
        <ele>363.9</ele>
        <time>2023-06-11T12:20:06Z</time>
      </trkpt>
      <trkpt lat="43.71427" lon="5.97361">
        <ele>363.9</ele>
        <time>2023-06-11T12:20:07Z</time>
      </trkpt>
      <trkpt lat="43.71427" lon="5.97361">
        <ele>363.9</ele>
        <time>2023-06-11T12:20:08Z</time>
      </trkpt>
      <trkpt lat="43.71427" lon="5.97361">
        <ele>363.9</ele>
        <time>2023-06-11T12:20:09Z</time>
      </trkpt>
      <trkpt lat="43.71427" lon="5.97361">
        <ele>364</ele>
        <time>2023-06-11T12:20:10Z</time>
      </trkpt>
      <trkpt lat="43.71427" lon="5.97361">
        <ele>364.1</ele>
        <time>2023-06-11T12:20:11Z</time>
      </trkpt>
      <trkpt lat="43.71427" lon="5.97361">
        <ele>364.2</ele>
        <time>2023-06-11T12:20:12Z</time>
      </trkpt>
      <trkpt lat="43.71427" lon="5.97361">
        <ele>364.2</ele>
        <time>2023-06-11T12:20:13Z</time>
      </trkpt>
      <trkpt lat="43.71427" lon="5.97361">
        <ele>364.2</ele>
        <time>2023-06-11T12:20:14Z</time>
      </trkpt>
      <trkpt lat="43.71427" lon="5.97361">
        <ele>364.2</ele>
        <time>2023-06-11T12:20:15Z</time>
      </trkpt>
      <trkpt lat="43.71427" lon="5.97361">
        <ele>364.3</ele>
        <time>2023-06-11T12:20:16Z</time>
      </trkpt>
      <trkpt lat="43.71427" lon="5.9736">
        <ele>364.3</ele>
        <time>2023-06-11T12:20:17Z</time>
      </trkpt>
      <trkpt lat="43.71427" lon="5.9736">
        <ele>364.3</ele>
        <time>2023-06-11T12:20:18Z</time>
      </trkpt>
      <trkpt lat="43.71427" lon="5.9736">
        <ele>364.3</ele>
        <time>2023-06-11T12:20:19Z</time>
      </trkpt>
      <trkpt lat="43.71427" lon="5.9736">
        <ele>364.3</ele>
        <time>2023-06-11T12:20:20Z</time>
      </trkpt>
      <trkpt lat="43.71426" lon="5.9736">
        <ele>364.1</ele>
        <time>2023-06-11T12:20:21Z</time>
      </trkpt>
      <trkpt lat="43.71426" lon="5.9736">
        <ele>364.1</ele>
        <time>2023-06-11T12:20:22Z</time>
      </trkpt>
      <trkpt lat="43.71426" lon="5.9736">
        <ele>364.2</ele>
        <time>2023-06-11T12:20:23Z</time>
      </trkpt>
      <trkpt lat="43.71426" lon="5.9736">
        <ele>364.1</ele>
        <time>2023-06-11T12:20:24Z</time>
      </trkpt>
      <trkpt lat="43.71426" lon="5.9736">
        <ele>364.1</ele>
        <time>2023-06-11T12:20:25Z</time>
      </trkpt>
      <trkpt lat="43.71426" lon="5.9736">
        <ele>364.2</ele>
        <time>2023-06-11T12:20:26Z</time>
      </trkpt>
      <trkpt lat="43.71426" lon="5.9736">
        <ele>364.3</ele>
        <time>2023-06-11T12:20:27Z</time>
      </trkpt>
      <trkpt lat="43.71426" lon="5.9736">
        <ele>364.3</ele>
        <time>2023-06-11T12:20:28Z</time>
      </trkpt>
      <trkpt lat="43.71426" lon="5.9736">
        <ele>364.3</ele>
        <time>2023-06-11T12:20:29Z</time>
      </trkpt>
      <trkpt lat="43.71426" lon="5.9736">
        <ele>364.4</ele>
        <time>2023-06-11T12:20:30Z</time>
      </trkpt>
      <trkpt lat="43.71426" lon="5.9736">
        <ele>364.4</ele>
        <time>2023-06-11T12:20:31Z</time>
      </trkpt>
      <trkpt lat="43.71426" lon="5.9736">
        <ele>364.5</ele>
        <time>2023-06-11T12:20:32Z</time>
      </trkpt>
      <trkpt lat="43.71426" lon="5.9736">
        <ele>364.5</ele>
        <time>2023-06-11T12:20:33Z</time>
      </trkpt>
      <trkpt lat="43.71426" lon="5.9736">
        <ele>364.5</ele>
        <time>2023-06-11T12:20:34Z</time>
      </trkpt>
      <trkpt lat="43.71426" lon="5.9736">
        <ele>364.6</ele>
        <time>2023-06-11T12:20:35Z</time>
      </trkpt>
      <trkpt lat="43.71426" lon="5.9736">
        <ele>364.5</ele>
        <time>2023-06-11T12:20:36Z</time>
      </trkpt>
      <trkpt lat="43.71426" lon="5.9736">
        <ele>364.4</ele>
        <time>2023-06-11T12:20:37Z</time>
      </trkpt>
      <trkpt lat="43.71426" lon="5.9736">
        <ele>364.4</ele>
        <time>2023-06-11T12:20:38Z</time>
      </trkpt>
      <trkpt lat="43.71426" lon="5.9736">
        <ele>364.3</ele>
        <time>2023-06-11T12:20:39Z</time>
      </trkpt>
      <trkpt lat="43.71426" lon="5.9736">
        <ele>364.3</ele>
        <time>2023-06-11T12:20:40Z</time>
      </trkpt>
      <trkpt lat="43.71426" lon="5.9736">
        <ele>364.3</ele>
        <time>2023-06-11T12:20:41Z</time>
      </trkpt>
      <trkpt lat="43.71426" lon="5.9736">
        <ele>364.4</ele>
        <time>2023-06-11T12:20:42Z</time>
      </trkpt>
      <trkpt lat="43.71426" lon="5.9736">
        <ele>364.4</ele>
        <time>2023-06-11T12:20:43Z</time>
      </trkpt>
      <trkpt lat="43.71426" lon="5.9736">
        <ele>364.5</ele>
        <time>2023-06-11T12:20:44Z</time>
      </trkpt>
      <trkpt lat="43.71426" lon="5.9736">
        <ele>364.5</ele>
        <time>2023-06-11T12:20:45Z</time>
      </trkpt>
      <trkpt lat="43.71426" lon="5.9736">
        <ele>364.5</ele>
        <time>2023-06-11T12:20:46Z</time>
      </trkpt>
      <trkpt lat="43.71426" lon="5.9736">
        <ele>364.4</ele>
        <time>2023-06-11T12:20:47Z</time>
      </trkpt>
      <trkpt lat="43.71426" lon="5.9736">
        <ele>364.4</ele>
        <time>2023-06-11T12:20:48Z</time>
      </trkpt>
      <trkpt lat="43.71426" lon="5.9736">
        <ele>364.4</ele>
        <time>2023-06-11T12:20:49Z</time>
      </trkpt>
      <trkpt lat="43.71426" lon="5.9736">
        <ele>364.4</ele>
        <time>2023-06-11T12:20:50Z</time>
      </trkpt>
      <trkpt lat="43.71426" lon="5.9736">
        <ele>364.3</ele>
        <time>2023-06-11T12:20:51Z</time>
      </trkpt>
      <trkpt lat="43.71426" lon="5.9736">
        <ele>364.1</ele>
        <time>2023-06-11T12:20:52Z</time>
      </trkpt>
      <trkpt lat="43.71426" lon="5.9736">
        <ele>364.1</ele>
        <time>2023-06-11T12:20:53Z</time>
      </trkpt>
      <trkpt lat="43.71426" lon="5.9736">
        <ele>364.1</ele>
        <time>2023-06-11T12:20:54Z</time>
      </trkpt>
      <trkpt lat="43.71425" lon="5.9736">
        <ele>364.1</ele>
        <time>2023-06-11T12:20:55Z</time>
      </trkpt>
      <trkpt lat="43.71425" lon="5.9736">
        <ele>364.2</ele>
        <time>2023-06-11T12:20:56Z</time>
      </trkpt>
      <trkpt lat="43.71425" lon="5.9736">
        <ele>364.2</ele>
        <time>2023-06-11T12:20:57Z</time>
      </trkpt>
      <trkpt lat="43.71425" lon="5.97359">
        <ele>364.2</ele>
        <time>2023-06-11T12:20:58Z</time>
      </trkpt>
      <trkpt lat="43.71425" lon="5.97359">
        <ele>364.2</ele>
        <time>2023-06-11T12:20:59Z</time>
      </trkpt>
      <trkpt lat="43.71424" lon="5.97359">
        <ele>364.2</ele>
        <time>2023-06-11T12:21:00Z</time>
      </trkpt>
      <trkpt lat="43.71424" lon="5.97359">
        <ele>364.2</ele>
        <time>2023-06-11T12:21:01Z</time>
      </trkpt>
      <trkpt lat="43.71423" lon="5.97359">
        <ele>364.2</ele>
        <time>2023-06-11T12:21:02Z</time>
      </trkpt>
      <trkpt lat="43.71422" lon="5.97359">
        <ele>364.2</ele>
        <time>2023-06-11T12:21:03Z</time>
      </trkpt>
      <trkpt lat="43.71422" lon="5.97359">
        <ele>364.2</ele>
        <time>2023-06-11T12:21:04Z</time>
      </trkpt>
      <trkpt lat="43.71421" lon="5.9736">
        <ele>364.2</ele>
        <time>2023-06-11T12:21:05Z</time>
      </trkpt>
      <trkpt lat="43.71421" lon="5.97361">
        <ele>364.1</ele>
        <time>2023-06-11T12:21:06Z</time>
      </trkpt>
      <trkpt lat="43.71421" lon="5.97362">
        <ele>363</ele>
        <time>2023-06-11T12:21:07Z</time>
      </trkpt>
      <trkpt lat="43.71421" lon="5.97363">
        <ele>362.9</ele>
        <time>2023-06-11T12:21:08Z</time>
      </trkpt>
      <trkpt lat="43.7142" lon="5.97364">
        <ele>363.1</ele>
        <time>2023-06-11T12:21:09Z</time>
      </trkpt>
      <trkpt lat="43.71421" lon="5.97365">
        <ele>363.2</ele>
        <time>2023-06-11T12:21:10Z</time>
      </trkpt>
      <trkpt lat="43.71421" lon="5.97367">
        <ele>363.3</ele>
        <time>2023-06-11T12:21:11Z</time>
      </trkpt>
      <trkpt lat="43.71421" lon="5.97369">
        <ele>363.6</ele>
        <time>2023-06-11T12:21:12Z</time>
      </trkpt>
      <trkpt lat="43.71421" lon="5.9737">
        <ele>363.8</ele>
        <time>2023-06-11T12:21:13Z</time>
      </trkpt>
      <trkpt lat="43.71421" lon="5.97372">
        <ele>363.9</ele>
        <time>2023-06-11T12:21:14Z</time>
      </trkpt>
      <trkpt lat="43.71421" lon="5.97374">
        <ele>364</ele>
        <time>2023-06-11T12:21:15Z</time>
      </trkpt>
      <trkpt lat="43.71421" lon="5.97376">
        <ele>364.1</ele>
        <time>2023-06-11T12:21:16Z</time>
      </trkpt>
      <trkpt lat="43.71421" lon="5.97378">
        <ele>364.1</ele>
        <time>2023-06-11T12:21:17Z</time>
      </trkpt>
      <trkpt lat="43.71421" lon="5.97379">
        <ele>364.2</ele>
        <time>2023-06-11T12:21:18Z</time>
      </trkpt>
      <trkpt lat="43.71422" lon="5.97381">
        <ele>364.2</ele>
        <time>2023-06-11T12:21:19Z</time>
      </trkpt>
      <trkpt lat="43.71422" lon="5.97383">
        <ele>364.3</ele>
        <time>2023-06-11T12:21:20Z</time>
      </trkpt>
      <trkpt lat="43.71422" lon="5.97385">
        <ele>364.3</ele>
        <time>2023-06-11T12:21:21Z</time>
      </trkpt>
      <trkpt lat="43.71422" lon="5.97387">
        <ele>364.3</ele>
        <time>2023-06-11T12:21:22Z</time>
      </trkpt>
      <trkpt lat="43.71422" lon="5.97389">
        <ele>364.4</ele>
        <time>2023-06-11T12:21:23Z</time>
      </trkpt>
      <trkpt lat="43.71423" lon="5.9739">
        <ele>364.4</ele>
        <time>2023-06-11T12:21:24Z</time>
      </trkpt>
      <trkpt lat="43.71423" lon="5.97392">
        <ele>364.4</ele>
        <time>2023-06-11T12:21:25Z</time>
      </trkpt>
      <trkpt lat="43.71423" lon="5.97394">
        <ele>364.5</ele>
        <time>2023-06-11T12:21:26Z</time>
      </trkpt>
      <trkpt lat="43.71423" lon="5.97396">
        <ele>364.4</ele>
        <time>2023-06-11T12:21:27Z</time>
      </trkpt>
      <trkpt lat="43.71424" lon="5.97398">
        <ele>364.5</ele>
        <time>2023-06-11T12:21:28Z</time>
      </trkpt>
      <trkpt lat="43.71424" lon="5.974">
        <ele>364.5</ele>
        <time>2023-06-11T12:21:29Z</time>
      </trkpt>
      <trkpt lat="43.71424" lon="5.97401">
        <ele>364.5</ele>
        <time>2023-06-11T12:21:30Z</time>
      </trkpt>
      <trkpt lat="43.71424" lon="5.97403">
        <ele>364.5</ele>
        <time>2023-06-11T12:21:31Z</time>
      </trkpt>
      <trkpt lat="43.71425" lon="5.97405">
        <ele>364.5</ele>
        <time>2023-06-11T12:21:32Z</time>
      </trkpt>
      <trkpt lat="43.71425" lon="5.97407">
        <ele>364.5</ele>
        <time>2023-06-11T12:21:33Z</time>
      </trkpt>
      <trkpt lat="43.71425" lon="5.97409">
        <ele>364.5</ele>
        <time>2023-06-11T12:21:34Z</time>
      </trkpt>
      <trkpt lat="43.71425" lon="5.97411">
        <ele>364.4</ele>
        <time>2023-06-11T12:21:35Z</time>
      </trkpt>
      <trkpt lat="43.71425" lon="5.97413">
        <ele>364.4</ele>
        <time>2023-06-11T12:21:36Z</time>
      </trkpt>
      <trkpt lat="43.71426" lon="5.97414">
        <ele>364.4</ele>
        <time>2023-06-11T12:21:37Z</time>
      </trkpt>
      <trkpt lat="43.71426" lon="5.97416">
        <ele>364.4</ele>
        <time>2023-06-11T12:21:38Z</time>
      </trkpt>
      <trkpt lat="43.71426" lon="5.97418">
        <ele>364.3</ele>
        <time>2023-06-11T12:21:39Z</time>
      </trkpt>
      <trkpt lat="43.71427" lon="5.9742">
        <ele>364.3</ele>
        <time>2023-06-11T12:21:40Z</time>
      </trkpt>
      <trkpt lat="43.71427" lon="5.97422">
        <ele>364.2</ele>
        <time>2023-06-11T12:21:41Z</time>
      </trkpt>
      <trkpt lat="43.71427" lon="5.97424">
        <ele>364.1</ele>
        <time>2023-06-11T12:21:42Z</time>
      </trkpt>
      <trkpt lat="43.71428" lon="5.97426">
        <ele>364</ele>
        <time>2023-06-11T12:21:43Z</time>
      </trkpt>
      <trkpt lat="43.71428" lon="5.97427">
        <ele>364.1</ele>
        <time>2023-06-11T12:21:44Z</time>
      </trkpt>
      <trkpt lat="43.71429" lon="5.97429">
        <ele>364.1</ele>
        <time>2023-06-11T12:21:45Z</time>
      </trkpt>
      <trkpt lat="43.71429" lon="5.97431">
        <ele>364.1</ele>
        <time>2023-06-11T12:21:46Z</time>
      </trkpt>
      <trkpt lat="43.71429" lon="5.97433">
        <ele>364.1</ele>
        <time>2023-06-11T12:21:47Z</time>
      </trkpt>
      <trkpt lat="43.7143" lon="5.97435">
        <ele>364.2</ele>
        <time>2023-06-11T12:21:48Z</time>
      </trkpt>
      <trkpt lat="43.7143" lon="5.97437">
        <ele>364.2</ele>
        <time>2023-06-11T12:21:49Z</time>
      </trkpt>
      <trkpt lat="43.71431" lon="5.97438">
        <ele>364.2</ele>
        <time>2023-06-11T12:21:50Z</time>
      </trkpt>
      <trkpt lat="43.71431" lon="5.9744">
        <ele>364.2</ele>
        <time>2023-06-11T12:21:51Z</time>
      </trkpt>
      <trkpt lat="43.71432" lon="5.97442">
        <ele>364.2</ele>
        <time>2023-06-11T12:21:52Z</time>
      </trkpt>
      <trkpt lat="43.71432" lon="5.97444">
        <ele>364.2</ele>
        <time>2023-06-11T12:21:53Z</time>
      </trkpt>
      <trkpt lat="43.71433" lon="5.97445">
        <ele>364.2</ele>
        <time>2023-06-11T12:21:54Z</time>
      </trkpt>
      <trkpt lat="43.71433" lon="5.97447">
        <ele>364.2</ele>
        <time>2023-06-11T12:21:55Z</time>
      </trkpt>
      <trkpt lat="43.71434" lon="5.97449">
        <ele>364.2</ele>
        <time>2023-06-11T12:21:56Z</time>
      </trkpt>
      <trkpt lat="43.71434" lon="5.97451">
        <ele>364.2</ele>
        <time>2023-06-11T12:21:57Z</time>
      </trkpt>
      <trkpt lat="43.71435" lon="5.97453">
        <ele>364.2</ele>
        <time>2023-06-11T12:21:58Z</time>
      </trkpt>
      <trkpt lat="43.71435" lon="5.97455">
        <ele>364.3</ele>
        <time>2023-06-11T12:21:59Z</time>
      </trkpt>
      <trkpt lat="43.71435" lon="5.97456">
        <ele>364.3</ele>
        <time>2023-06-11T12:22:00Z</time>
      </trkpt>
      <trkpt lat="43.71436" lon="5.97458">
        <ele>364.4</ele>
        <time>2023-06-11T12:22:01Z</time>
      </trkpt>
      <trkpt lat="43.71436" lon="5.9746">
        <ele>364.4</ele>
        <time>2023-06-11T12:22:02Z</time>
      </trkpt>
      <trkpt lat="43.71437" lon="5.97462">
        <ele>364.5</ele>
        <time>2023-06-11T12:22:03Z</time>
      </trkpt>
      <trkpt lat="43.71437" lon="5.97464">
        <ele>364.5</ele>
        <time>2023-06-11T12:22:04Z</time>
      </trkpt>
      <trkpt lat="43.71437" lon="5.97466">
        <ele>364.5</ele>
        <time>2023-06-11T12:22:05Z</time>
      </trkpt>
      <trkpt lat="43.71438" lon="5.97468">
        <ele>364.6</ele>
        <time>2023-06-11T12:22:06Z</time>
      </trkpt>
      <trkpt lat="43.71438" lon="5.9747">
        <ele>364.7</ele>
        <time>2023-06-11T12:22:07Z</time>
      </trkpt>
      <trkpt lat="43.71439" lon="5.97471">
        <ele>364.7</ele>
        <time>2023-06-11T12:22:08Z</time>
      </trkpt>
      <trkpt lat="43.71439" lon="5.97473">
        <ele>364.7</ele>
        <time>2023-06-11T12:22:09Z</time>
      </trkpt>
      <trkpt lat="43.71439" lon="5.97475">
        <ele>364.7</ele>
        <time>2023-06-11T12:22:10Z</time>
      </trkpt>
      <trkpt lat="43.7144" lon="5.97477">
        <ele>364.7</ele>
        <time>2023-06-11T12:22:11Z</time>
      </trkpt>
      <trkpt lat="43.7144" lon="5.97479">
        <ele>364.7</ele>
        <time>2023-06-11T12:22:12Z</time>
      </trkpt>
      <trkpt lat="43.7144" lon="5.97481">
        <ele>364.7</ele>
        <time>2023-06-11T12:22:13Z</time>
      </trkpt>
      <trkpt lat="43.71441" lon="5.97483">
        <ele>364.6</ele>
        <time>2023-06-11T12:22:14Z</time>
      </trkpt>
      <trkpt lat="43.71441" lon="5.97485">
        <ele>364.5</ele>
        <time>2023-06-11T12:22:15Z</time>
      </trkpt>
      <trkpt lat="43.71442" lon="5.97487">
        <ele>364.7</ele>
        <time>2023-06-11T12:22:16Z</time>
      </trkpt>
      <trkpt lat="43.71442" lon="5.97488">
        <ele>364.7</ele>
        <time>2023-06-11T12:22:17Z</time>
      </trkpt>
      <trkpt lat="43.71443" lon="5.9749">
        <ele>364.7</ele>
        <time>2023-06-11T12:22:18Z</time>
      </trkpt>
      <trkpt lat="43.71443" lon="5.97492">
        <ele>364.6</ele>
        <time>2023-06-11T12:22:19Z</time>
      </trkpt>
      <trkpt lat="43.71443" lon="5.97494">
        <ele>364.5</ele>
        <time>2023-06-11T12:22:20Z</time>
      </trkpt>
      <trkpt lat="43.71444" lon="5.97496">
        <ele>364.5</ele>
        <time>2023-06-11T12:22:21Z</time>
      </trkpt>
      <trkpt lat="43.71444" lon="5.97498">
        <ele>364.5</ele>
        <time>2023-06-11T12:22:22Z</time>
      </trkpt>
      <trkpt lat="43.71445" lon="5.975">
        <ele>364.5</ele>
        <time>2023-06-11T12:22:23Z</time>
      </trkpt>
      <trkpt lat="43.71445" lon="5.97502">
        <ele>364.5</ele>
        <time>2023-06-11T12:22:24Z</time>
      </trkpt>
      <trkpt lat="43.71446" lon="5.97504">
        <ele>364.4</ele>
        <time>2023-06-11T12:22:25Z</time>
      </trkpt>
      <trkpt lat="43.71446" lon="5.97506">
        <ele>364.4</ele>
        <time>2023-06-11T12:22:26Z</time>
      </trkpt>
      <trkpt lat="43.71447" lon="5.97508">
        <ele>364.5</ele>
        <time>2023-06-11T12:22:27Z</time>
      </trkpt>
      <trkpt lat="43.71447" lon="5.9751">
        <ele>364.5</ele>
        <time>2023-06-11T12:22:28Z</time>
      </trkpt>
      <trkpt lat="43.71448" lon="5.97512">
        <ele>364.7</ele>
        <time>2023-06-11T12:22:29Z</time>
      </trkpt>
      <trkpt lat="43.71448" lon="5.97514">
        <ele>364.5</ele>
        <time>2023-06-11T12:22:30Z</time>
      </trkpt>
      <trkpt lat="43.71449" lon="5.97516">
        <ele>364.6</ele>
        <time>2023-06-11T12:22:31Z</time>
      </trkpt>
      <trkpt lat="43.71449" lon="5.97518">
        <ele>364.6</ele>
        <time>2023-06-11T12:22:32Z</time>
      </trkpt>
      <trkpt lat="43.71449" lon="5.9752">
        <ele>364.5</ele>
        <time>2023-06-11T12:22:33Z</time>
      </trkpt>
      <trkpt lat="43.7145" lon="5.97522">
        <ele>364.5</ele>
        <time>2023-06-11T12:22:34Z</time>
      </trkpt>
      <trkpt lat="43.7145" lon="5.97524">
        <ele>364.4</ele>
        <time>2023-06-11T12:22:35Z</time>
      </trkpt>
      <trkpt lat="43.71451" lon="5.97526">
        <ele>364.4</ele>
        <time>2023-06-11T12:22:36Z</time>
      </trkpt>
      <trkpt lat="43.71451" lon="5.97528">
        <ele>364.4</ele>
        <time>2023-06-11T12:22:37Z</time>
      </trkpt>
      <trkpt lat="43.71452" lon="5.9753">
        <ele>364.4</ele>
        <time>2023-06-11T12:22:38Z</time>
      </trkpt>
      <trkpt lat="43.71452" lon="5.97532">
        <ele>364.3</ele>
        <time>2023-06-11T12:22:39Z</time>
      </trkpt>
      <trkpt lat="43.71453" lon="5.97534">
        <ele>364.4</ele>
        <time>2023-06-11T12:22:40Z</time>
      </trkpt>
      <trkpt lat="43.71453" lon="5.97536">
        <ele>364.5</ele>
        <time>2023-06-11T12:22:41Z</time>
      </trkpt>
      <trkpt lat="43.71454" lon="5.97538">
        <ele>364.5</ele>
        <time>2023-06-11T12:22:42Z</time>
      </trkpt>
      <trkpt lat="43.71454" lon="5.97539">
        <ele>364.6</ele>
        <time>2023-06-11T12:22:43Z</time>
      </trkpt>
      <trkpt lat="43.71455" lon="5.97541">
        <ele>364.6</ele>
        <time>2023-06-11T12:22:44Z</time>
      </trkpt>
      <trkpt lat="43.71456" lon="5.97543">
        <ele>364.6</ele>
        <time>2023-06-11T12:22:45Z</time>
      </trkpt>
      <trkpt lat="43.71456" lon="5.97545">
        <ele>364.6</ele>
        <time>2023-06-11T12:22:46Z</time>
      </trkpt>
      <trkpt lat="43.71457" lon="5.97547">
        <ele>364.6</ele>
        <time>2023-06-11T12:22:47Z</time>
      </trkpt>
      <trkpt lat="43.71457" lon="5.97549">
        <ele>364.5</ele>
        <time>2023-06-11T12:22:48Z</time>
      </trkpt>
      <trkpt lat="43.71458" lon="5.97551">
        <ele>364.5</ele>
        <time>2023-06-11T12:22:49Z</time>
      </trkpt>
      <trkpt lat="43.71459" lon="5.97552">
        <ele>364.4</ele>
        <time>2023-06-11T12:22:50Z</time>
      </trkpt>
      <trkpt lat="43.71459" lon="5.97554">
        <ele>364.4</ele>
        <time>2023-06-11T12:22:51Z</time>
      </trkpt>
      <trkpt lat="43.7146" lon="5.97556">
        <ele>364.4</ele>
        <time>2023-06-11T12:22:52Z</time>
      </trkpt>
      <trkpt lat="43.7146" lon="5.97558">
        <ele>364.4</ele>
        <time>2023-06-11T12:22:53Z</time>
      </trkpt>
      <trkpt lat="43.71461" lon="5.9756">
        <ele>364.4</ele>
        <time>2023-06-11T12:22:54Z</time>
      </trkpt>
      <trkpt lat="43.71461" lon="5.97561">
        <ele>364.3</ele>
        <time>2023-06-11T12:22:55Z</time>
      </trkpt>
      <trkpt lat="43.71462" lon="5.97563">
        <ele>364.4</ele>
        <time>2023-06-11T12:22:56Z</time>
      </trkpt>
      <trkpt lat="43.71463" lon="5.97565">
        <ele>364.4</ele>
        <time>2023-06-11T12:22:57Z</time>
      </trkpt>
      <trkpt lat="43.71463" lon="5.97567">
        <ele>364.4</ele>
        <time>2023-06-11T12:22:58Z</time>
      </trkpt>
      <trkpt lat="43.71464" lon="5.97569">
        <ele>364.3</ele>
        <time>2023-06-11T12:22:59Z</time>
      </trkpt>
      <trkpt lat="43.71464" lon="5.9757">
        <ele>364.4</ele>
        <time>2023-06-11T12:23:00Z</time>
      </trkpt>
      <trkpt lat="43.71465" lon="5.97572">
        <ele>364.3</ele>
        <time>2023-06-11T12:23:01Z</time>
      </trkpt>
      <trkpt lat="43.71465" lon="5.97574">
        <ele>364.2</ele>
        <time>2023-06-11T12:23:02Z</time>
      </trkpt>
      <trkpt lat="43.71466" lon="5.97576">
        <ele>364.2</ele>
        <time>2023-06-11T12:23:03Z</time>
      </trkpt>
      <trkpt lat="43.71466" lon="5.97578">
        <ele>364.2</ele>
        <time>2023-06-11T12:23:04Z</time>
      </trkpt>
      <trkpt lat="43.71467" lon="5.9758">
        <ele>364.2</ele>
        <time>2023-06-11T12:23:05Z</time>
      </trkpt>
      <trkpt lat="43.71468" lon="5.97581">
        <ele>364.2</ele>
        <time>2023-06-11T12:23:06Z</time>
      </trkpt>
      <trkpt lat="43.71468" lon="5.97583">
        <ele>364.1</ele>
        <time>2023-06-11T12:23:07Z</time>
      </trkpt>
      <trkpt lat="43.71469" lon="5.97585">
        <ele>364.1</ele>
        <time>2023-06-11T12:23:08Z</time>
      </trkpt>
      <trkpt lat="43.71469" lon="5.97587">
        <ele>364.1</ele>
        <time>2023-06-11T12:23:09Z</time>
      </trkpt>
      <trkpt lat="43.7147" lon="5.97589">
        <ele>364.1</ele>
        <time>2023-06-11T12:23:10Z</time>
      </trkpt>
      <trkpt lat="43.7147" lon="5.9759">
        <ele>364.1</ele>
        <time>2023-06-11T12:23:11Z</time>
      </trkpt>
      <trkpt lat="43.71471" lon="5.97592">
        <ele>364.1</ele>
        <time>2023-06-11T12:23:12Z</time>
      </trkpt>
      <trkpt lat="43.71471" lon="5.97594">
        <ele>364.1</ele>
        <time>2023-06-11T12:23:13Z</time>
      </trkpt>
      <trkpt lat="43.71472" lon="5.97596">
        <ele>364.1</ele>
        <time>2023-06-11T12:23:14Z</time>
      </trkpt>
      <trkpt lat="43.71473" lon="5.97597">
        <ele>364.1</ele>
        <time>2023-06-11T12:23:15Z</time>
      </trkpt>
      <trkpt lat="43.71474" lon="5.97599">
        <ele>364.1</ele>
        <time>2023-06-11T12:23:16Z</time>
      </trkpt>
      <trkpt lat="43.71474" lon="5.97601">
        <ele>364.2</ele>
        <time>2023-06-11T12:23:17Z</time>
      </trkpt>
      <trkpt lat="43.71475" lon="5.97602">
        <ele>364.2</ele>
        <time>2023-06-11T12:23:18Z</time>
      </trkpt>
      <trkpt lat="43.71476" lon="5.97604">
        <ele>364.2</ele>
        <time>2023-06-11T12:23:19Z</time>
      </trkpt>
      <trkpt lat="43.71476" lon="5.97606">
        <ele>364.2</ele>
        <time>2023-06-11T12:23:20Z</time>
      </trkpt>
      <trkpt lat="43.71477" lon="5.97608">
        <ele>364.3</ele>
        <time>2023-06-11T12:23:21Z</time>
      </trkpt>
      <trkpt lat="43.71477" lon="5.9761">
        <ele>364.3</ele>
        <time>2023-06-11T12:23:22Z</time>
      </trkpt>
      <trkpt lat="43.71478" lon="5.97612">
        <ele>364.3</ele>
        <time>2023-06-11T12:23:23Z</time>
      </trkpt>
      <trkpt lat="43.71479" lon="5.97613">
        <ele>364.4</ele>
        <time>2023-06-11T12:23:24Z</time>
      </trkpt>
      <trkpt lat="43.71479" lon="5.97615">
        <ele>364.4</ele>
        <time>2023-06-11T12:23:25Z</time>
      </trkpt>
      <trkpt lat="43.7148" lon="5.97617">
        <ele>364.4</ele>
        <time>2023-06-11T12:23:26Z</time>
      </trkpt>
      <trkpt lat="43.71481" lon="5.97619">
        <ele>364.4</ele>
        <time>2023-06-11T12:23:27Z</time>
      </trkpt>
      <trkpt lat="43.71481" lon="5.97621">
        <ele>364.4</ele>
        <time>2023-06-11T12:23:28Z</time>
      </trkpt>
      <trkpt lat="43.71482" lon="5.97622">
        <ele>364.4</ele>
        <time>2023-06-11T12:23:29Z</time>
      </trkpt>
      <trkpt lat="43.71483" lon="5.97624">
        <ele>364.3</ele>
        <time>2023-06-11T12:23:30Z</time>
      </trkpt>
      <trkpt lat="43.71483" lon="5.97626">
        <ele>364.2</ele>
        <time>2023-06-11T12:23:31Z</time>
      </trkpt>
      <trkpt lat="43.71484" lon="5.97628">
        <ele>364.2</ele>
        <time>2023-06-11T12:23:32Z</time>
      </trkpt>
      <trkpt lat="43.71485" lon="5.97629">
        <ele>364.2</ele>
        <time>2023-06-11T12:23:33Z</time>
      </trkpt>
      <trkpt lat="43.71486" lon="5.97631">
        <ele>364.2</ele>
        <time>2023-06-11T12:23:34Z</time>
      </trkpt>
      <trkpt lat="43.71487" lon="5.97633">
        <ele>364.2</ele>
        <time>2023-06-11T12:23:35Z</time>
      </trkpt>
      <trkpt lat="43.71487" lon="5.97634">
        <ele>364.1</ele>
        <time>2023-06-11T12:23:36Z</time>
      </trkpt>
      <trkpt lat="43.71488" lon="5.97636">
        <ele>364.1</ele>
        <time>2023-06-11T12:23:37Z</time>
      </trkpt>
      <trkpt lat="43.71489" lon="5.97638">
        <ele>364.1</ele>
        <time>2023-06-11T12:23:38Z</time>
      </trkpt>
      <trkpt lat="43.71489" lon="5.9764">
        <ele>364.1</ele>
        <time>2023-06-11T12:23:39Z</time>
      </trkpt>
      <trkpt lat="43.7149" lon="5.97642">
        <ele>364.1</ele>
        <time>2023-06-11T12:23:40Z</time>
      </trkpt>
      <trkpt lat="43.71491" lon="5.97643">
        <ele>364.1</ele>
        <time>2023-06-11T12:23:41Z</time>
      </trkpt>
      <trkpt lat="43.71491" lon="5.97645">
        <ele>364.1</ele>
        <time>2023-06-11T12:23:42Z</time>
      </trkpt>
      <trkpt lat="43.71492" lon="5.97647">
        <ele>364.1</ele>
        <time>2023-06-11T12:23:43Z</time>
      </trkpt>
      <trkpt lat="43.71493" lon="5.97649">
        <ele>364.1</ele>
        <time>2023-06-11T12:23:44Z</time>
      </trkpt>
      <trkpt lat="43.71493" lon="5.97651">
        <ele>364</ele>
        <time>2023-06-11T12:23:45Z</time>
      </trkpt>
      <trkpt lat="43.71494" lon="5.97653">
        <ele>364.1</ele>
        <time>2023-06-11T12:23:46Z</time>
      </trkpt>
      <trkpt lat="43.71494" lon="5.97655">
        <ele>364.1</ele>
        <time>2023-06-11T12:23:47Z</time>
      </trkpt>
      <trkpt lat="43.71495" lon="5.97657">
        <ele>364.1</ele>
        <time>2023-06-11T12:23:48Z</time>
      </trkpt>
      <trkpt lat="43.71496" lon="5.97658">
        <ele>364</ele>
        <time>2023-06-11T12:23:49Z</time>
      </trkpt>
      <trkpt lat="43.71496" lon="5.9766">
        <ele>363.9</ele>
        <time>2023-06-11T12:23:50Z</time>
      </trkpt>
      <trkpt lat="43.71497" lon="5.97662">
        <ele>363.7</ele>
        <time>2023-06-11T12:23:51Z</time>
      </trkpt>
      <trkpt lat="43.71498" lon="5.97664">
        <ele>363.7</ele>
        <time>2023-06-11T12:23:52Z</time>
      </trkpt>
      <trkpt lat="43.71498" lon="5.97666">
        <ele>363.7</ele>
        <time>2023-06-11T12:23:53Z</time>
      </trkpt>
      <trkpt lat="43.71499" lon="5.97667">
        <ele>363.6</ele>
        <time>2023-06-11T12:23:54Z</time>
      </trkpt>
      <trkpt lat="43.71499" lon="5.97669">
        <ele>363.7</ele>
        <time>2023-06-11T12:23:55Z</time>
      </trkpt>
      <trkpt lat="43.715" lon="5.97671">
        <ele>363.7</ele>
        <time>2023-06-11T12:23:56Z</time>
      </trkpt>
      <trkpt lat="43.715" lon="5.97673">
        <ele>363.7</ele>
        <time>2023-06-11T12:23:57Z</time>
      </trkpt>
      <trkpt lat="43.71501" lon="5.97674">
        <ele>363.7</ele>
        <time>2023-06-11T12:23:58Z</time>
      </trkpt>
      <trkpt lat="43.71502" lon="5.97676">
        <ele>363.7</ele>
        <time>2023-06-11T12:23:59Z</time>
      </trkpt>
      <trkpt lat="43.71502" lon="5.97678">
        <ele>363.7</ele>
        <time>2023-06-11T12:24:00Z</time>
      </trkpt>
      <trkpt lat="43.71503" lon="5.9768">
        <ele>363.7</ele>
        <time>2023-06-11T12:24:01Z</time>
      </trkpt>
      <trkpt lat="43.71504" lon="5.97681">
        <ele>363.7</ele>
        <time>2023-06-11T12:24:02Z</time>
      </trkpt>
      <trkpt lat="43.71504" lon="5.97683">
        <ele>363.7</ele>
        <time>2023-06-11T12:24:03Z</time>
      </trkpt>
      <trkpt lat="43.71505" lon="5.97685">
        <ele>363.7</ele>
        <time>2023-06-11T12:24:04Z</time>
      </trkpt>
      <trkpt lat="43.71506" lon="5.97686">
        <ele>363.7</ele>
        <time>2023-06-11T12:24:05Z</time>
      </trkpt>
      <trkpt lat="43.71507" lon="5.97688">
        <ele>363.7</ele>
        <time>2023-06-11T12:24:06Z</time>
      </trkpt>
      <trkpt lat="43.71508" lon="5.9769">
        <ele>363.7</ele>
        <time>2023-06-11T12:24:07Z</time>
      </trkpt>
      <trkpt lat="43.71509" lon="5.97692">
        <ele>363.7</ele>
        <time>2023-06-11T12:24:08Z</time>
      </trkpt>
      <trkpt lat="43.7151" lon="5.97693">
        <ele>363.7</ele>
        <time>2023-06-11T12:24:09Z</time>
      </trkpt>
      <trkpt lat="43.7151" lon="5.97695">
        <ele>363.7</ele>
        <time>2023-06-11T12:24:10Z</time>
      </trkpt>
      <trkpt lat="43.71511" lon="5.97697">
        <ele>363.7</ele>
        <time>2023-06-11T12:24:11Z</time>
      </trkpt>
      <trkpt lat="43.71512" lon="5.97698">
        <ele>363.7</ele>
        <time>2023-06-11T12:24:12Z</time>
      </trkpt>
      <trkpt lat="43.71513" lon="5.977">
        <ele>363.7</ele>
        <time>2023-06-11T12:24:13Z</time>
      </trkpt>
      <trkpt lat="43.71513" lon="5.97702">
        <ele>363.7</ele>
        <time>2023-06-11T12:24:14Z</time>
      </trkpt>
      <trkpt lat="43.71514" lon="5.97703">
        <ele>363.7</ele>
        <time>2023-06-11T12:24:15Z</time>
      </trkpt>
      <trkpt lat="43.71515" lon="5.97705">
        <ele>363.8</ele>
        <time>2023-06-11T12:24:16Z</time>
      </trkpt>
      <trkpt lat="43.71516" lon="5.97706">
        <ele>363.8</ele>
        <time>2023-06-11T12:24:17Z</time>
      </trkpt>
      <trkpt lat="43.71516" lon="5.97708">
        <ele>363.8</ele>
        <time>2023-06-11T12:24:18Z</time>
      </trkpt>
      <trkpt lat="43.71517" lon="5.97709">
        <ele>363.9</ele>
        <time>2023-06-11T12:24:19Z</time>
      </trkpt>
      <trkpt lat="43.71517" lon="5.97711">
        <ele>364</ele>
        <time>2023-06-11T12:24:20Z</time>
      </trkpt>
      <trkpt lat="43.71518" lon="5.97713">
        <ele>364</ele>
        <time>2023-06-11T12:24:21Z</time>
      </trkpt>
      <trkpt lat="43.71519" lon="5.97715">
        <ele>364</ele>
        <time>2023-06-11T12:24:22Z</time>
      </trkpt>
      <trkpt lat="43.71519" lon="5.97716">
        <ele>364</ele>
        <time>2023-06-11T12:24:23Z</time>
      </trkpt>
      <trkpt lat="43.7152" lon="5.97718">
        <ele>364</ele>
        <time>2023-06-11T12:24:24Z</time>
      </trkpt>
      <trkpt lat="43.7152" lon="5.9772">
        <ele>363.9</ele>
        <time>2023-06-11T12:24:25Z</time>
      </trkpt>
      <trkpt lat="43.71521" lon="5.97722">
        <ele>363.9</ele>
        <time>2023-06-11T12:24:26Z</time>
      </trkpt>
      <trkpt lat="43.71521" lon="5.97724">
        <ele>363.9</ele>
        <time>2023-06-11T12:24:27Z</time>
      </trkpt>
      <trkpt lat="43.71522" lon="5.97725">
        <ele>363.9</ele>
        <time>2023-06-11T12:24:28Z</time>
      </trkpt>
      <trkpt lat="43.71522" lon="5.97727">
        <ele>364</ele>
        <time>2023-06-11T12:24:29Z</time>
      </trkpt>
      <trkpt lat="43.71523" lon="5.97729">
        <ele>364</ele>
        <time>2023-06-11T12:24:30Z</time>
      </trkpt>
      <trkpt lat="43.71524" lon="5.97731">
        <ele>364.1</ele>
        <time>2023-06-11T12:24:31Z</time>
      </trkpt>
      <trkpt lat="43.71525" lon="5.97733">
        <ele>364.1</ele>
        <time>2023-06-11T12:24:32Z</time>
      </trkpt>
      <trkpt lat="43.71525" lon="5.97735">
        <ele>364.1</ele>
        <time>2023-06-11T12:24:33Z</time>
      </trkpt>
      <trkpt lat="43.71526" lon="5.97737">
        <ele>364.2</ele>
        <time>2023-06-11T12:24:34Z</time>
      </trkpt>
      <trkpt lat="43.71526" lon="5.97738">
        <ele>364.2</ele>
        <time>2023-06-11T12:24:35Z</time>
      </trkpt>
      <trkpt lat="43.71527" lon="5.9774">
        <ele>364.2</ele>
        <time>2023-06-11T12:24:36Z</time>
      </trkpt>
      <trkpt lat="43.71527" lon="5.97742">
        <ele>364.2</ele>
        <time>2023-06-11T12:24:37Z</time>
      </trkpt>
      <trkpt lat="43.71528" lon="5.97744">
        <ele>364.1</ele>
        <time>2023-06-11T12:24:38Z</time>
      </trkpt>
      <trkpt lat="43.71528" lon="5.97746">
        <ele>364.1</ele>
        <time>2023-06-11T12:24:39Z</time>
      </trkpt>
      <trkpt lat="43.71529" lon="5.97748">
        <ele>364</ele>
        <time>2023-06-11T12:24:40Z</time>
      </trkpt>
      <trkpt lat="43.71529" lon="5.9775">
        <ele>363.9</ele>
        <time>2023-06-11T12:24:41Z</time>
      </trkpt>
      <trkpt lat="43.71529" lon="5.97752">
        <ele>363.9</ele>
        <time>2023-06-11T12:24:42Z</time>
      </trkpt>
      <trkpt lat="43.7153" lon="5.97754">
        <ele>364</ele>
        <time>2023-06-11T12:24:43Z</time>
      </trkpt>
      <trkpt lat="43.7153" lon="5.97756">
        <ele>364</ele>
        <time>2023-06-11T12:24:44Z</time>
      </trkpt>
      <trkpt lat="43.71531" lon="5.97758">
        <ele>364</ele>
        <time>2023-06-11T12:24:45Z</time>
      </trkpt>
      <trkpt lat="43.71531" lon="5.9776">
        <ele>364</ele>
        <time>2023-06-11T12:24:46Z</time>
      </trkpt>
      <trkpt lat="43.71532" lon="5.97762">
        <ele>364.1</ele>
        <time>2023-06-11T12:24:47Z</time>
      </trkpt>
      <trkpt lat="43.71532" lon="5.97764">
        <ele>364.1</ele>
        <time>2023-06-11T12:24:48Z</time>
      </trkpt>
      <trkpt lat="43.71532" lon="5.97766">
        <ele>364.1</ele>
        <time>2023-06-11T12:24:49Z</time>
      </trkpt>
      <trkpt lat="43.71532" lon="5.97768">
        <ele>364</ele>
        <time>2023-06-11T12:24:50Z</time>
      </trkpt>
      <trkpt lat="43.71533" lon="5.9777">
        <ele>364</ele>
        <time>2023-06-11T12:24:51Z</time>
      </trkpt>
      <trkpt lat="43.71533" lon="5.97772">
        <ele>364</ele>
        <time>2023-06-11T12:24:52Z</time>
      </trkpt>
      <trkpt lat="43.71534" lon="5.97774">
        <ele>363.9</ele>
        <time>2023-06-11T12:24:53Z</time>
      </trkpt>
      <trkpt lat="43.71534" lon="5.97776">
        <ele>364</ele>
        <time>2023-06-11T12:24:54Z</time>
      </trkpt>
      <trkpt lat="43.71535" lon="5.97778">
        <ele>364</ele>
        <time>2023-06-11T12:24:55Z</time>
      </trkpt>
      <trkpt lat="43.71535" lon="5.9778">
        <ele>364.1</ele>
        <time>2023-06-11T12:24:56Z</time>
      </trkpt>
      <trkpt lat="43.71536" lon="5.97782">
        <ele>364.2</ele>
        <time>2023-06-11T12:24:57Z</time>
      </trkpt>
      <trkpt lat="43.71536" lon="5.97783">
        <ele>364.3</ele>
        <time>2023-06-11T12:24:58Z</time>
      </trkpt>
      <trkpt lat="43.71537" lon="5.97785">
        <ele>364.3</ele>
        <time>2023-06-11T12:24:59Z</time>
      </trkpt>
      <trkpt lat="43.71537" lon="5.97787">
        <ele>364.3</ele>
        <time>2023-06-11T12:25:00Z</time>
      </trkpt>
      <trkpt lat="43.71538" lon="5.97789">
        <ele>364.3</ele>
        <time>2023-06-11T12:25:01Z</time>
      </trkpt>
      <trkpt lat="43.71538" lon="5.97791">
        <ele>364.3</ele>
        <time>2023-06-11T12:25:02Z</time>
      </trkpt>
      <trkpt lat="43.71539" lon="5.97793">
        <ele>364.3</ele>
        <time>2023-06-11T12:25:03Z</time>
      </trkpt>
      <trkpt lat="43.7154" lon="5.97794">
        <ele>364.3</ele>
        <time>2023-06-11T12:25:04Z</time>
      </trkpt>
      <trkpt lat="43.7154" lon="5.97796">
        <ele>364.4</ele>
        <time>2023-06-11T12:25:05Z</time>
      </trkpt>
      <trkpt lat="43.71541" lon="5.97798">
        <ele>364.4</ele>
        <time>2023-06-11T12:25:06Z</time>
      </trkpt>
      <trkpt lat="43.71541" lon="5.978">
        <ele>364.5</ele>
        <time>2023-06-11T12:25:07Z</time>
      </trkpt>
      <trkpt lat="43.71542" lon="5.97802">
        <ele>364.5</ele>
        <time>2023-06-11T12:25:08Z</time>
      </trkpt>
      <trkpt lat="43.71542" lon="5.97804">
        <ele>364.5</ele>
        <time>2023-06-11T12:25:09Z</time>
      </trkpt>
      <trkpt lat="43.71543" lon="5.97806">
        <ele>364.3</ele>
        <time>2023-06-11T12:25:10Z</time>
      </trkpt>
      <trkpt lat="43.71544" lon="5.97808">
        <ele>364.4</ele>
        <time>2023-06-11T12:25:11Z</time>
      </trkpt>
      <trkpt lat="43.71544" lon="5.9781">
        <ele>364.3</ele>
        <time>2023-06-11T12:25:12Z</time>
      </trkpt>
      <trkpt lat="43.71545" lon="5.97812">
        <ele>364.3</ele>
        <time>2023-06-11T12:25:13Z</time>
      </trkpt>
      <trkpt lat="43.71546" lon="5.97814">
        <ele>364.3</ele>
        <time>2023-06-11T12:25:14Z</time>
      </trkpt>
      <trkpt lat="43.71546" lon="5.97816">
        <ele>364.2</ele>
        <time>2023-06-11T12:25:15Z</time>
      </trkpt>
      <trkpt lat="43.71546" lon="5.97818">
        <ele>364.3</ele>
        <time>2023-06-11T12:25:16Z</time>
      </trkpt>
      <trkpt lat="43.71547" lon="5.9782">
        <ele>364.3</ele>
        <time>2023-06-11T12:25:17Z</time>
      </trkpt>
      <trkpt lat="43.71547" lon="5.97821">
        <ele>364.3</ele>
        <time>2023-06-11T12:25:18Z</time>
      </trkpt>
      <trkpt lat="43.71548" lon="5.97823">
        <ele>364.3</ele>
        <time>2023-06-11T12:25:19Z</time>
      </trkpt>
      <trkpt lat="43.71548" lon="5.97825">
        <ele>364.4</ele>
        <time>2023-06-11T12:25:20Z</time>
      </trkpt>
      <trkpt lat="43.71549" lon="5.97827">
        <ele>364.4</ele>
        <time>2023-06-11T12:25:21Z</time>
      </trkpt>
      <trkpt lat="43.71549" lon="5.97829">
        <ele>364.4</ele>
        <time>2023-06-11T12:25:22Z</time>
      </trkpt>
      <trkpt lat="43.7155" lon="5.97831">
        <ele>364.4</ele>
        <time>2023-06-11T12:25:23Z</time>
      </trkpt>
      <trkpt lat="43.71551" lon="5.97833">
        <ele>364.5</ele>
        <time>2023-06-11T12:25:24Z</time>
      </trkpt>
      <trkpt lat="43.71552" lon="5.97834">
        <ele>364.6</ele>
        <time>2023-06-11T12:25:25Z</time>
      </trkpt>
      <trkpt lat="43.71553" lon="5.97836">
        <ele>364.6</ele>
        <time>2023-06-11T12:25:26Z</time>
      </trkpt>
      <trkpt lat="43.71554" lon="5.97838">
        <ele>364.6</ele>
        <time>2023-06-11T12:25:27Z</time>
      </trkpt>
      <trkpt lat="43.71554" lon="5.9784">
        <ele>364.6</ele>
        <time>2023-06-11T12:25:28Z</time>
      </trkpt>
      <trkpt lat="43.71556" lon="5.97842">
        <ele>364.6</ele>
        <time>2023-06-11T12:25:29Z</time>
      </trkpt>
      <trkpt lat="43.71556" lon="5.97844">
        <ele>364.7</ele>
        <time>2023-06-11T12:25:30Z</time>
      </trkpt>
      <trkpt lat="43.71557" lon="5.97846">
        <ele>364.7</ele>
        <time>2023-06-11T12:25:31Z</time>
      </trkpt>
      <trkpt lat="43.71558" lon="5.97848">
        <ele>364.7</ele>
        <time>2023-06-11T12:25:32Z</time>
      </trkpt>
      <trkpt lat="43.71558" lon="5.97849">
        <ele>364.7</ele>
        <time>2023-06-11T12:25:33Z</time>
      </trkpt>
      <trkpt lat="43.71558" lon="5.97852">
        <ele>364.8</ele>
        <time>2023-06-11T12:25:34Z</time>
      </trkpt>
      <trkpt lat="43.71559" lon="5.97853">
        <ele>364.8</ele>
        <time>2023-06-11T12:25:35Z</time>
      </trkpt>
      <trkpt lat="43.71559" lon="5.97855">
        <ele>364.8</ele>
        <time>2023-06-11T12:25:36Z</time>
      </trkpt>
      <trkpt lat="43.7156" lon="5.97857">
        <ele>364.8</ele>
        <time>2023-06-11T12:25:37Z</time>
      </trkpt>
      <trkpt lat="43.7156" lon="5.97859">
        <ele>364.8</ele>
        <time>2023-06-11T12:25:38Z</time>
      </trkpt>
      <trkpt lat="43.71561" lon="5.97861">
        <ele>364.8</ele>
        <time>2023-06-11T12:25:39Z</time>
      </trkpt>
      <trkpt lat="43.71561" lon="5.97863">
        <ele>364.8</ele>
        <time>2023-06-11T12:25:40Z</time>
      </trkpt>
      <trkpt lat="43.71561" lon="5.97865">
        <ele>364.7</ele>
        <time>2023-06-11T12:25:41Z</time>
      </trkpt>
      <trkpt lat="43.71562" lon="5.97867">
        <ele>364.7</ele>
        <time>2023-06-11T12:25:42Z</time>
      </trkpt>
      <trkpt lat="43.71562" lon="5.97869">
        <ele>364.7</ele>
        <time>2023-06-11T12:25:43Z</time>
      </trkpt>
      <trkpt lat="43.71562" lon="5.97871">
        <ele>364.7</ele>
        <time>2023-06-11T12:25:44Z</time>
      </trkpt>
      <trkpt lat="43.71563" lon="5.97873">
        <ele>364.7</ele>
        <time>2023-06-11T12:25:45Z</time>
      </trkpt>
      <trkpt lat="43.71563" lon="5.97875">
        <ele>364.8</ele>
        <time>2023-06-11T12:25:46Z</time>
      </trkpt>
      <trkpt lat="43.71564" lon="5.97877">
        <ele>364.7</ele>
        <time>2023-06-11T12:25:47Z</time>
      </trkpt>
      <trkpt lat="43.71564" lon="5.97879">
        <ele>364.7</ele>
        <time>2023-06-11T12:25:48Z</time>
      </trkpt>
      <trkpt lat="43.71564" lon="5.97881">
        <ele>364.7</ele>
        <time>2023-06-11T12:25:49Z</time>
      </trkpt>
      <trkpt lat="43.71565" lon="5.97882">
        <ele>364.7</ele>
        <time>2023-06-11T12:25:50Z</time>
      </trkpt>
      <trkpt lat="43.71565" lon="5.97884">
        <ele>364.7</ele>
        <time>2023-06-11T12:25:51Z</time>
      </trkpt>
      <trkpt lat="43.71565" lon="5.97886">
        <ele>364.8</ele>
        <time>2023-06-11T12:25:52Z</time>
      </trkpt>
      <trkpt lat="43.71565" lon="5.97888">
        <ele>364.7</ele>
        <time>2023-06-11T12:25:53Z</time>
      </trkpt>
      <trkpt lat="43.71566" lon="5.9789">
        <ele>364.7</ele>
        <time>2023-06-11T12:25:54Z</time>
      </trkpt>
      <trkpt lat="43.71566" lon="5.97891">
        <ele>364.7</ele>
        <time>2023-06-11T12:25:55Z</time>
      </trkpt>
      <trkpt lat="43.71566" lon="5.97893">
        <ele>364.7</ele>
        <time>2023-06-11T12:25:56Z</time>
      </trkpt>
      <trkpt lat="43.71566" lon="5.97895">
        <ele>364.8</ele>
        <time>2023-06-11T12:25:57Z</time>
      </trkpt>
      <trkpt lat="43.71567" lon="5.97896">
        <ele>364.7</ele>
        <time>2023-06-11T12:25:58Z</time>
      </trkpt>
      <trkpt lat="43.71567" lon="5.97898">
        <ele>364.7</ele>
        <time>2023-06-11T12:25:59Z</time>
      </trkpt>
      <trkpt lat="43.71567" lon="5.979">
        <ele>364.7</ele>
        <time>2023-06-11T12:26:00Z</time>
      </trkpt>
      <trkpt lat="43.71568" lon="5.97901">
        <ele>364.7</ele>
        <time>2023-06-11T12:26:01Z</time>
      </trkpt>
      <trkpt lat="43.71568" lon="5.97902">
        <ele>364.7</ele>
        <time>2023-06-11T12:26:02Z</time>
      </trkpt>
      <trkpt lat="43.71568" lon="5.97904">
        <ele>364.7</ele>
        <time>2023-06-11T12:26:03Z</time>
      </trkpt>
      <trkpt lat="43.71568" lon="5.97906">
        <ele>364.7</ele>
        <time>2023-06-11T12:26:04Z</time>
      </trkpt>
      <trkpt lat="43.71569" lon="5.97907">
        <ele>364.6</ele>
        <time>2023-06-11T12:26:05Z</time>
      </trkpt>
      <trkpt lat="43.71569" lon="5.97909">
        <ele>364.7</ele>
        <time>2023-06-11T12:26:06Z</time>
      </trkpt>
      <trkpt lat="43.71569" lon="5.9791">
        <ele>364.8</ele>
        <time>2023-06-11T12:26:07Z</time>
      </trkpt>
      <trkpt lat="43.7157" lon="5.97912">
        <ele>364.8</ele>
        <time>2023-06-11T12:26:08Z</time>
      </trkpt>
      <trkpt lat="43.7157" lon="5.97913">
        <ele>364.9</ele>
        <time>2023-06-11T12:26:09Z</time>
      </trkpt>
      <trkpt lat="43.71571" lon="5.97915">
        <ele>364.9</ele>
        <time>2023-06-11T12:26:10Z</time>
      </trkpt>
      <trkpt lat="43.71571" lon="5.97916">
        <ele>364.9</ele>
        <time>2023-06-11T12:26:11Z</time>
      </trkpt>
      <trkpt lat="43.71572" lon="5.97918">
        <ele>364.8</ele>
        <time>2023-06-11T12:26:12Z</time>
      </trkpt>
      <trkpt lat="43.71573" lon="5.97919">
        <ele>364.7</ele>
        <time>2023-06-11T12:26:13Z</time>
      </trkpt>
      <trkpt lat="43.71573" lon="5.97921">
        <ele>364.8</ele>
        <time>2023-06-11T12:26:14Z</time>
      </trkpt>
      <trkpt lat="43.71574" lon="5.97923">
        <ele>364.9</ele>
        <time>2023-06-11T12:26:15Z</time>
      </trkpt>
      <trkpt lat="43.71574" lon="5.97924">
        <ele>364.8</ele>
        <time>2023-06-11T12:26:16Z</time>
      </trkpt>
      <trkpt lat="43.71574" lon="5.97926">
        <ele>364.8</ele>
        <time>2023-06-11T12:26:17Z</time>
      </trkpt>
      <trkpt lat="43.71575" lon="5.97928">
        <ele>364.7</ele>
        <time>2023-06-11T12:26:18Z</time>
      </trkpt>
      <trkpt lat="43.71575" lon="5.97929">
        <ele>364.7</ele>
        <time>2023-06-11T12:26:19Z</time>
      </trkpt>
      <trkpt lat="43.71576" lon="5.97931">
        <ele>364.7</ele>
        <time>2023-06-11T12:26:20Z</time>
      </trkpt>
      <trkpt lat="43.71577" lon="5.97933">
        <ele>364.6</ele>
        <time>2023-06-11T12:26:21Z</time>
      </trkpt>
      <trkpt lat="43.71577" lon="5.97934">
        <ele>364.6</ele>
        <time>2023-06-11T12:26:22Z</time>
      </trkpt>
      <trkpt lat="43.71578" lon="5.97936">
        <ele>364.6</ele>
        <time>2023-06-11T12:26:23Z</time>
      </trkpt>
      <trkpt lat="43.71578" lon="5.97938">
        <ele>364.5</ele>
        <time>2023-06-11T12:26:24Z</time>
      </trkpt>
      <trkpt lat="43.71579" lon="5.9794">
        <ele>364.5</ele>
        <time>2023-06-11T12:26:25Z</time>
      </trkpt>
      <trkpt lat="43.71579" lon="5.97941">
        <ele>364.5</ele>
        <time>2023-06-11T12:26:26Z</time>
      </trkpt>
      <trkpt lat="43.7158" lon="5.97943">
        <ele>364.5</ele>
        <time>2023-06-11T12:26:27Z</time>
      </trkpt>
      <trkpt lat="43.7158" lon="5.97945">
        <ele>364.5</ele>
        <time>2023-06-11T12:26:28Z</time>
      </trkpt>
      <trkpt lat="43.71581" lon="5.97947">
        <ele>364.4</ele>
        <time>2023-06-11T12:26:29Z</time>
      </trkpt>
      <trkpt lat="43.71582" lon="5.97948">
        <ele>364.3</ele>
        <time>2023-06-11T12:26:30Z</time>
      </trkpt>
      <trkpt lat="43.71582" lon="5.9795">
        <ele>364.3</ele>
        <time>2023-06-11T12:26:31Z</time>
      </trkpt>
      <trkpt lat="43.71583" lon="5.97952">
        <ele>364.3</ele>
        <time>2023-06-11T12:26:32Z</time>
      </trkpt>
      <trkpt lat="43.71583" lon="5.97954">
        <ele>364.3</ele>
        <time>2023-06-11T12:26:33Z</time>
      </trkpt>
      <trkpt lat="43.71584" lon="5.97956">
        <ele>364.3</ele>
        <time>2023-06-11T12:26:34Z</time>
      </trkpt>
      <trkpt lat="43.71585" lon="5.97957">
        <ele>364.4</ele>
        <time>2023-06-11T12:26:35Z</time>
      </trkpt>
      <trkpt lat="43.71586" lon="5.97959">
        <ele>364.4</ele>
        <time>2023-06-11T12:26:36Z</time>
      </trkpt>
      <trkpt lat="43.71587" lon="5.97961">
        <ele>364.4</ele>
        <time>2023-06-11T12:26:37Z</time>
      </trkpt>
      <trkpt lat="43.71587" lon="5.97962">
        <ele>364.4</ele>
        <time>2023-06-11T12:26:38Z</time>
      </trkpt>
      <trkpt lat="43.71588" lon="5.97964">
        <ele>364.4</ele>
        <time>2023-06-11T12:26:39Z</time>
      </trkpt>
      <trkpt lat="43.71589" lon="5.97966">
        <ele>364.3</ele>
        <time>2023-06-11T12:26:40Z</time>
      </trkpt>
      <trkpt lat="43.7159" lon="5.97967">
        <ele>364.3</ele>
        <time>2023-06-11T12:26:41Z</time>
      </trkpt>
      <trkpt lat="43.7159" lon="5.97969">
        <ele>364.3</ele>
        <time>2023-06-11T12:26:42Z</time>
      </trkpt>
      <trkpt lat="43.71591" lon="5.9797">
        <ele>364.3</ele>
        <time>2023-06-11T12:26:43Z</time>
      </trkpt>
      <trkpt lat="43.71592" lon="5.97972">
        <ele>364.3</ele>
        <time>2023-06-11T12:26:44Z</time>
      </trkpt>
      <trkpt lat="43.71592" lon="5.97974">
        <ele>364.3</ele>
        <time>2023-06-11T12:26:45Z</time>
      </trkpt>
      <trkpt lat="43.71593" lon="5.97975">
        <ele>364.3</ele>
        <time>2023-06-11T12:26:46Z</time>
      </trkpt>
      <trkpt lat="43.71594" lon="5.97977">
        <ele>364.3</ele>
        <time>2023-06-11T12:26:47Z</time>
      </trkpt>
      <trkpt lat="43.71594" lon="5.97978">
        <ele>364.2</ele>
        <time>2023-06-11T12:26:48Z</time>
      </trkpt>
      <trkpt lat="43.71595" lon="5.9798">
        <ele>364.1</ele>
        <time>2023-06-11T12:26:49Z</time>
      </trkpt>
      <trkpt lat="43.71596" lon="5.97982">
        <ele>364.1</ele>
        <time>2023-06-11T12:26:50Z</time>
      </trkpt>
      <trkpt lat="43.71596" lon="5.97983">
        <ele>364</ele>
        <time>2023-06-11T12:26:51Z</time>
      </trkpt>
      <trkpt lat="43.71597" lon="5.97985">
        <ele>364.1</ele>
        <time>2023-06-11T12:26:52Z</time>
      </trkpt>
      <trkpt lat="43.71597" lon="5.97986">
        <ele>364.2</ele>
        <time>2023-06-11T12:26:53Z</time>
      </trkpt>
      <trkpt lat="43.71598" lon="5.97988">
        <ele>364.2</ele>
        <time>2023-06-11T12:26:54Z</time>
      </trkpt>
      <trkpt lat="43.71598" lon="5.9799">
        <ele>364.3</ele>
        <time>2023-06-11T12:26:55Z</time>
      </trkpt>
      <trkpt lat="43.71598" lon="5.97992">
        <ele>364.3</ele>
        <time>2023-06-11T12:26:56Z</time>
      </trkpt>
      <trkpt lat="43.71598" lon="5.97994">
        <ele>364.3</ele>
        <time>2023-06-11T12:26:57Z</time>
      </trkpt>
      <trkpt lat="43.71598" lon="5.97996">
        <ele>364.3</ele>
        <time>2023-06-11T12:26:58Z</time>
      </trkpt>
      <trkpt lat="43.71599" lon="5.97997">
        <ele>364.2</ele>
        <time>2023-06-11T12:26:59Z</time>
      </trkpt>
      <trkpt lat="43.71598" lon="5.97999">
        <ele>364.3</ele>
        <time>2023-06-11T12:27:00Z</time>
      </trkpt>
      <trkpt lat="43.71598" lon="5.98001">
        <ele>364.2</ele>
        <time>2023-06-11T12:27:01Z</time>
      </trkpt>
      <trkpt lat="43.71598" lon="5.98003">
        <ele>364.2</ele>
        <time>2023-06-11T12:27:02Z</time>
      </trkpt>
      <trkpt lat="43.71599" lon="5.98004">
        <ele>364.2</ele>
        <time>2023-06-11T12:27:03Z</time>
      </trkpt>
      <trkpt lat="43.71599" lon="5.98005">
        <ele>364.2</ele>
        <time>2023-06-11T12:27:04Z</time>
      </trkpt>
      <trkpt lat="43.71599" lon="5.98007">
        <ele>364.3</ele>
        <time>2023-06-11T12:27:05Z</time>
      </trkpt>
      <trkpt lat="43.71599" lon="5.98008">
        <ele>364.3</ele>
        <time>2023-06-11T12:27:06Z</time>
      </trkpt>
      <trkpt lat="43.71599" lon="5.9801">
        <ele>364.3</ele>
        <time>2023-06-11T12:27:07Z</time>
      </trkpt>
      <trkpt lat="43.71599" lon="5.98011">
        <ele>364.3</ele>
        <time>2023-06-11T12:27:08Z</time>
      </trkpt>
      <trkpt lat="43.71599" lon="5.98012">
        <ele>364.3</ele>
        <time>2023-06-11T12:27:09Z</time>
      </trkpt>
      <trkpt lat="43.71599" lon="5.98012">
        <ele>364.2</ele>
        <time>2023-06-11T12:27:10Z</time>
      </trkpt>
      <trkpt lat="43.71599" lon="5.98013">
        <ele>364.2</ele>
        <time>2023-06-11T12:27:11Z</time>
      </trkpt>
      <trkpt lat="43.71598" lon="5.98014">
        <ele>364.2</ele>
        <time>2023-06-11T12:27:12Z</time>
      </trkpt>
      <trkpt lat="43.71598" lon="5.98015">
        <ele>364.2</ele>
        <time>2023-06-11T12:27:13Z</time>
      </trkpt>
      <trkpt lat="43.71598" lon="5.98015">
        <ele>364.2</ele>
        <time>2023-06-11T12:27:14Z</time>
      </trkpt>
      <trkpt lat="43.71598" lon="5.98016">
        <ele>364.3</ele>
        <time>2023-06-11T12:27:15Z</time>
      </trkpt>
      <trkpt lat="43.71598" lon="5.98016">
        <ele>364.3</ele>
        <time>2023-06-11T12:27:16Z</time>
      </trkpt>
      <trkpt lat="43.71598" lon="5.98017">
        <ele>364.3</ele>
        <time>2023-06-11T12:27:17Z</time>
      </trkpt>
      <trkpt lat="43.71598" lon="5.98019">
        <ele>364.3</ele>
        <time>2023-06-11T12:27:18Z</time>
      </trkpt>
      <trkpt lat="43.71598" lon="5.9802">
        <ele>364.3</ele>
        <time>2023-06-11T12:27:19Z</time>
      </trkpt>
      <trkpt lat="43.71598" lon="5.98021">
        <ele>364.3</ele>
        <time>2023-06-11T12:27:20Z</time>
      </trkpt>
      <trkpt lat="43.71598" lon="5.98021">
        <ele>364.2</ele>
        <time>2023-06-11T12:27:21Z</time>
      </trkpt>
      <trkpt lat="43.71598" lon="5.98022">
        <ele>364.2</ele>
        <time>2023-06-11T12:27:22Z</time>
      </trkpt>
      <trkpt lat="43.71598" lon="5.98022">
        <ele>364.2</ele>
        <time>2023-06-11T12:27:23Z</time>
      </trkpt>
      <trkpt lat="43.71598" lon="5.98023">
        <ele>364.1</ele>
        <time>2023-06-11T12:27:24Z</time>
      </trkpt>
      <trkpt lat="43.71598" lon="5.98023">
        <ele>364.1</ele>
        <time>2023-06-11T12:27:25Z</time>
      </trkpt>
      <trkpt lat="43.71598" lon="5.98023">
        <ele>364.1</ele>
        <time>2023-06-11T12:27:26Z</time>
      </trkpt>
      <trkpt lat="43.71598" lon="5.98023">
        <ele>364.1</ele>
        <time>2023-06-11T12:27:27Z</time>
      </trkpt>
      <trkpt lat="43.71598" lon="5.98023">
        <ele>364.2</ele>
        <time>2023-06-11T12:27:28Z</time>
      </trkpt>
      <trkpt lat="43.71597" lon="5.98024">
        <ele>364.3</ele>
        <time>2023-06-11T12:27:29Z</time>
      </trkpt>
      <trkpt lat="43.71597" lon="5.98024">
        <ele>364.3</ele>
        <time>2023-06-11T12:27:30Z</time>
      </trkpt>
      <trkpt lat="43.71597" lon="5.98024">
        <ele>364.4</ele>
        <time>2023-06-11T12:27:31Z</time>
      </trkpt>
      <trkpt lat="43.71597" lon="5.98024">
        <ele>364.4</ele>
        <time>2023-06-11T12:27:32Z</time>
      </trkpt>
      <trkpt lat="43.71597" lon="5.98024">
        <ele>364.4</ele>
        <time>2023-06-11T12:27:33Z</time>
      </trkpt>
      <trkpt lat="43.71597" lon="5.98024">
        <ele>364.3</ele>
        <time>2023-06-11T12:27:34Z</time>
      </trkpt>
      <trkpt lat="43.71597" lon="5.98024">
        <ele>364.2</ele>
        <time>2023-06-11T12:27:35Z</time>
      </trkpt>
      <trkpt lat="43.71597" lon="5.98024">
        <ele>364.1</ele>
        <time>2023-06-11T12:27:36Z</time>
      </trkpt>
      <trkpt lat="43.71596" lon="5.98024">
        <ele>364</ele>
        <time>2023-06-11T12:27:37Z</time>
      </trkpt>
      <trkpt lat="43.71596" lon="5.98024">
        <ele>364</ele>
        <time>2023-06-11T12:27:38Z</time>
      </trkpt>
      <trkpt lat="43.71597" lon="5.98024">
        <ele>364</ele>
        <time>2023-06-11T12:27:39Z</time>
      </trkpt>
      <trkpt lat="43.71597" lon="5.98025">
        <ele>363.9</ele>
        <time>2023-06-11T12:27:40Z</time>
      </trkpt>
      <trkpt lat="43.71597" lon="5.98025">
        <ele>363.9</ele>
        <time>2023-06-11T12:27:41Z</time>
      </trkpt>
      <trkpt lat="43.71596" lon="5.98026">
        <ele>363.9</ele>
        <time>2023-06-11T12:27:42Z</time>
      </trkpt>
      <trkpt lat="43.71596" lon="5.98027">
        <ele>364</ele>
        <time>2023-06-11T12:27:43Z</time>
      </trkpt>
      <trkpt lat="43.71596" lon="5.98028">
        <ele>364</ele>
        <time>2023-06-11T12:27:44Z</time>
      </trkpt>
      <trkpt lat="43.71595" lon="5.98029">
        <ele>364</ele>
        <time>2023-06-11T12:27:45Z</time>
      </trkpt>
      <trkpt lat="43.71595" lon="5.9803">
        <ele>364</ele>
        <time>2023-06-11T12:27:46Z</time>
      </trkpt>
      <trkpt lat="43.71594" lon="5.98031">
        <ele>364</ele>
        <time>2023-06-11T12:27:47Z</time>
      </trkpt>
      <trkpt lat="43.71594" lon="5.98033">
        <ele>364</ele>
        <time>2023-06-11T12:27:48Z</time>
      </trkpt>
      <trkpt lat="43.71594" lon="5.98034">
        <ele>364</ele>
        <time>2023-06-11T12:27:49Z</time>
      </trkpt>
      <trkpt lat="43.71594" lon="5.98035">
        <ele>364</ele>
        <time>2023-06-11T12:27:50Z</time>
      </trkpt>
      <trkpt lat="43.71593" lon="5.98037">
        <ele>363.9</ele>
        <time>2023-06-11T12:27:51Z</time>
      </trkpt>
      <trkpt lat="43.71592" lon="5.98038">
        <ele>364</ele>
        <time>2023-06-11T12:27:52Z</time>
      </trkpt>
      <trkpt lat="43.71592" lon="5.9804">
        <ele>364</ele>
        <time>2023-06-11T12:27:53Z</time>
      </trkpt>
      <trkpt lat="43.71591" lon="5.98041">
        <ele>364</ele>
        <time>2023-06-11T12:27:54Z</time>
      </trkpt>
      <trkpt lat="43.71591" lon="5.98043">
        <ele>364</ele>
        <time>2023-06-11T12:27:55Z</time>
      </trkpt>
      <trkpt lat="43.71591" lon="5.98045">
        <ele>364</ele>
        <time>2023-06-11T12:27:56Z</time>
      </trkpt>
      <trkpt lat="43.7159" lon="5.98046">
        <ele>364</ele>
        <time>2023-06-11T12:27:57Z</time>
      </trkpt>
      <trkpt lat="43.71589" lon="5.98048">
        <ele>364.2</ele>
        <time>2023-06-11T12:27:58Z</time>
      </trkpt>
      <trkpt lat="43.71588" lon="5.9805">
        <ele>364.1</ele>
        <time>2023-06-11T12:27:59Z</time>
      </trkpt>
      <trkpt lat="43.71587" lon="5.98051">
        <ele>364</ele>
        <time>2023-06-11T12:28:00Z</time>
      </trkpt>
      <trkpt lat="43.71586" lon="5.98053">
        <ele>364.1</ele>
        <time>2023-06-11T12:28:01Z</time>
      </trkpt>
      <trkpt lat="43.71586" lon="5.98055">
        <ele>364.1</ele>
        <time>2023-06-11T12:28:02Z</time>
      </trkpt>
      <trkpt lat="43.71585" lon="5.98056">
        <ele>364.1</ele>
        <time>2023-06-11T12:28:03Z</time>
      </trkpt>
      <trkpt lat="43.71584" lon="5.98059">
        <ele>364.1</ele>
        <time>2023-06-11T12:28:04Z</time>
      </trkpt>
      <trkpt lat="43.71584" lon="5.9806">
        <ele>364.1</ele>
        <time>2023-06-11T12:28:05Z</time>
      </trkpt>
      <trkpt lat="43.71583" lon="5.98062">
        <ele>364</ele>
        <time>2023-06-11T12:28:06Z</time>
      </trkpt>
      <trkpt lat="43.71582" lon="5.98064">
        <ele>364</ele>
        <time>2023-06-11T12:28:07Z</time>
      </trkpt>
      <trkpt lat="43.71581" lon="5.98066">
        <ele>363.9</ele>
        <time>2023-06-11T12:28:08Z</time>
      </trkpt>
      <trkpt lat="43.7158" lon="5.98067">
        <ele>363.9</ele>
        <time>2023-06-11T12:28:09Z</time>
      </trkpt>
      <trkpt lat="43.7158" lon="5.98069">
        <ele>363.8</ele>
        <time>2023-06-11T12:28:10Z</time>
      </trkpt>
      <trkpt lat="43.71579" lon="5.98071">
        <ele>363.8</ele>
        <time>2023-06-11T12:28:11Z</time>
      </trkpt>
      <trkpt lat="43.71578" lon="5.98073">
        <ele>363.8</ele>
        <time>2023-06-11T12:28:12Z</time>
      </trkpt>
      <trkpt lat="43.71577" lon="5.98075">
        <ele>363.8</ele>
        <time>2023-06-11T12:28:13Z</time>
      </trkpt>
      <trkpt lat="43.71576" lon="5.98077">
        <ele>363.7</ele>
        <time>2023-06-11T12:28:14Z</time>
      </trkpt>
      <trkpt lat="43.71576" lon="5.98079">
        <ele>363.7</ele>
        <time>2023-06-11T12:28:15Z</time>
      </trkpt>
      <trkpt lat="43.71575" lon="5.98081">
        <ele>363.6</ele>
        <time>2023-06-11T12:28:16Z</time>
      </trkpt>
      <trkpt lat="43.71575" lon="5.98083">
        <ele>363.6</ele>
        <time>2023-06-11T12:28:17Z</time>
      </trkpt>
      <trkpt lat="43.71574" lon="5.98085">
        <ele>363.7</ele>
        <time>2023-06-11T12:28:18Z</time>
      </trkpt>
      <trkpt lat="43.71573" lon="5.98087">
        <ele>363.7</ele>
        <time>2023-06-11T12:28:19Z</time>
      </trkpt>
      <trkpt lat="43.71573" lon="5.98089">
        <ele>363.7</ele>
        <time>2023-06-11T12:28:20Z</time>
      </trkpt>
      <trkpt lat="43.71572" lon="5.98091">
        <ele>363.7</ele>
        <time>2023-06-11T12:28:21Z</time>
      </trkpt>
      <trkpt lat="43.71572" lon="5.98093">
        <ele>363.7</ele>
        <time>2023-06-11T12:28:22Z</time>
      </trkpt>
      <trkpt lat="43.71571" lon="5.98095">
        <ele>363.7</ele>
        <time>2023-06-11T12:28:23Z</time>
      </trkpt>
      <trkpt lat="43.7157" lon="5.98097">
        <ele>363.7</ele>
        <time>2023-06-11T12:28:24Z</time>
      </trkpt>
      <trkpt lat="43.7157" lon="5.98098">
        <ele>363.7</ele>
        <time>2023-06-11T12:28:25Z</time>
      </trkpt>
      <trkpt lat="43.71569" lon="5.981">
        <ele>363.7</ele>
        <time>2023-06-11T12:28:26Z</time>
      </trkpt>
      <trkpt lat="43.71569" lon="5.98102">
        <ele>363.8</ele>
        <time>2023-06-11T12:28:27Z</time>
      </trkpt>
      <trkpt lat="43.71568" lon="5.98104">
        <ele>363.8</ele>
        <time>2023-06-11T12:28:28Z</time>
      </trkpt>
      <trkpt lat="43.71568" lon="5.98106">
        <ele>363.8</ele>
        <time>2023-06-11T12:28:29Z</time>
      </trkpt>
      <trkpt lat="43.71567" lon="5.98108">
        <ele>363.9</ele>
        <time>2023-06-11T12:28:30Z</time>
      </trkpt>
      <trkpt lat="43.71567" lon="5.98109">
        <ele>363.9</ele>
        <time>2023-06-11T12:28:31Z</time>
      </trkpt>
      <trkpt lat="43.71566" lon="5.98111">
        <ele>363.9</ele>
        <time>2023-06-11T12:28:32Z</time>
      </trkpt>
      <trkpt lat="43.71566" lon="5.98113">
        <ele>363.9</ele>
        <time>2023-06-11T12:28:33Z</time>
      </trkpt>
      <trkpt lat="43.71565" lon="5.98115">
        <ele>363.8</ele>
        <time>2023-06-11T12:28:34Z</time>
      </trkpt>
      <trkpt lat="43.71565" lon="5.98116">
        <ele>363.8</ele>
        <time>2023-06-11T12:28:35Z</time>
      </trkpt>
      <trkpt lat="43.71564" lon="5.98118">
        <ele>363.7</ele>
        <time>2023-06-11T12:28:36Z</time>
      </trkpt>
      <trkpt lat="43.71564" lon="5.9812">
        <ele>363.6</ele>
        <time>2023-06-11T12:28:37Z</time>
      </trkpt>
      <trkpt lat="43.71563" lon="5.98121">
        <ele>363.6</ele>
        <time>2023-06-11T12:28:38Z</time>
      </trkpt>
      <trkpt lat="43.71563" lon="5.98123">
        <ele>363.6</ele>
        <time>2023-06-11T12:28:39Z</time>
      </trkpt>
      <trkpt lat="43.71562" lon="5.98125">
        <ele>363.5</ele>
        <time>2023-06-11T12:28:40Z</time>
      </trkpt>
      <trkpt lat="43.71562" lon="5.98127">
        <ele>363.5</ele>
        <time>2023-06-11T12:28:41Z</time>
      </trkpt>
      <trkpt lat="43.71561" lon="5.98129">
        <ele>363.6</ele>
        <time>2023-06-11T12:28:42Z</time>
      </trkpt>
      <trkpt lat="43.7156" lon="5.9813">
        <ele>363.5</ele>
        <time>2023-06-11T12:28:43Z</time>
      </trkpt>
      <trkpt lat="43.7156" lon="5.98132">
        <ele>363.5</ele>
        <time>2023-06-11T12:28:44Z</time>
      </trkpt>
      <trkpt lat="43.71559" lon="5.98134">
        <ele>363.5</ele>
        <time>2023-06-11T12:28:45Z</time>
      </trkpt>
      <trkpt lat="43.71558" lon="5.98136">
        <ele>363.5</ele>
        <time>2023-06-11T12:28:46Z</time>
      </trkpt>
      <trkpt lat="43.71558" lon="5.98138">
        <ele>363.5</ele>
        <time>2023-06-11T12:28:47Z</time>
      </trkpt>
      <trkpt lat="43.71557" lon="5.9814">
        <ele>363.6</ele>
        <time>2023-06-11T12:28:48Z</time>
      </trkpt>
      <trkpt lat="43.71556" lon="5.98142">
        <ele>363.6</ele>
        <time>2023-06-11T12:28:49Z</time>
      </trkpt>
      <trkpt lat="43.71556" lon="5.98143">
        <ele>363.6</ele>
        <time>2023-06-11T12:28:50Z</time>
      </trkpt>
      <trkpt lat="43.71555" lon="5.98145">
        <ele>363.6</ele>
        <time>2023-06-11T12:28:51Z</time>
      </trkpt>
      <trkpt lat="43.71555" lon="5.98147">
        <ele>363.7</ele>
        <time>2023-06-11T12:28:52Z</time>
      </trkpt>
      <trkpt lat="43.71554" lon="5.98149">
        <ele>363.8</ele>
        <time>2023-06-11T12:28:53Z</time>
      </trkpt>
      <trkpt lat="43.71553" lon="5.98151">
        <ele>363.8</ele>
        <time>2023-06-11T12:28:54Z</time>
      </trkpt>
      <trkpt lat="43.71553" lon="5.98152">
        <ele>363.8</ele>
        <time>2023-06-11T12:28:55Z</time>
      </trkpt>
      <trkpt lat="43.71552" lon="5.98154">
        <ele>363.8</ele>
        <time>2023-06-11T12:28:56Z</time>
      </trkpt>
      <trkpt lat="43.71551" lon="5.98156">
        <ele>363.8</ele>
        <time>2023-06-11T12:28:57Z</time>
      </trkpt>
      <trkpt lat="43.71551" lon="5.98157">
        <ele>363.7</ele>
        <time>2023-06-11T12:28:58Z</time>
      </trkpt>
      <trkpt lat="43.7155" lon="5.98159">
        <ele>363.7</ele>
        <time>2023-06-11T12:28:59Z</time>
      </trkpt>
      <trkpt lat="43.71549" lon="5.98161">
        <ele>363.6</ele>
        <time>2023-06-11T12:29:00Z</time>
      </trkpt>
      <trkpt lat="43.71549" lon="5.98162">
        <ele>363.5</ele>
        <time>2023-06-11T12:29:01Z</time>
      </trkpt>
      <trkpt lat="43.71548" lon="5.98164">
        <ele>363.4</ele>
        <time>2023-06-11T12:29:02Z</time>
      </trkpt>
      <trkpt lat="43.71548" lon="5.98166">
        <ele>363.4</ele>
        <time>2023-06-11T12:29:03Z</time>
      </trkpt>
      <trkpt lat="43.71547" lon="5.98168">
        <ele>363.6</ele>
        <time>2023-06-11T12:29:04Z</time>
      </trkpt>
      <trkpt lat="43.71547" lon="5.9817">
        <ele>363.6</ele>
        <time>2023-06-11T12:29:05Z</time>
      </trkpt>
      <trkpt lat="43.71546" lon="5.98171">
        <ele>363.7</ele>
        <time>2023-06-11T12:29:06Z</time>
      </trkpt>
      <trkpt lat="43.71546" lon="5.98173">
        <ele>363.7</ele>
        <time>2023-06-11T12:29:07Z</time>
      </trkpt>
      <trkpt lat="43.71546" lon="5.98175">
        <ele>363.7</ele>
        <time>2023-06-11T12:29:08Z</time>
      </trkpt>
      <trkpt lat="43.71545" lon="5.98177">
        <ele>363.7</ele>
        <time>2023-06-11T12:29:09Z</time>
      </trkpt>
      <trkpt lat="43.71544" lon="5.98179">
        <ele>363.7</ele>
        <time>2023-06-11T12:29:10Z</time>
      </trkpt>
      <trkpt lat="43.71544" lon="5.98181">
        <ele>363.7</ele>
        <time>2023-06-11T12:29:11Z</time>
      </trkpt>
      <trkpt lat="43.71543" lon="5.98183">
        <ele>363.6</ele>
        <time>2023-06-11T12:29:12Z</time>
      </trkpt>
      <trkpt lat="43.71542" lon="5.98184">
        <ele>363.6</ele>
        <time>2023-06-11T12:29:13Z</time>
      </trkpt>
      <trkpt lat="43.71542" lon="5.98186">
        <ele>363.6</ele>
        <time>2023-06-11T12:29:14Z</time>
      </trkpt>
      <trkpt lat="43.71541" lon="5.98188">
        <ele>363.6</ele>
        <time>2023-06-11T12:29:15Z</time>
      </trkpt>
      <trkpt lat="43.71541" lon="5.9819">
        <ele>363.6</ele>
        <time>2023-06-11T12:29:16Z</time>
      </trkpt>
      <trkpt lat="43.7154" lon="5.98192">
        <ele>363.5</ele>
        <time>2023-06-11T12:29:17Z</time>
      </trkpt>
      <trkpt lat="43.71539" lon="5.98194">
        <ele>363.4</ele>
        <time>2023-06-11T12:29:18Z</time>
      </trkpt>
      <trkpt lat="43.71539" lon="5.98196">
        <ele>363.4</ele>
        <time>2023-06-11T12:29:19Z</time>
      </trkpt>
      <trkpt lat="43.71538" lon="5.98198">
        <ele>363.4</ele>
        <time>2023-06-11T12:29:20Z</time>
      </trkpt>
      <trkpt lat="43.71538" lon="5.982">
        <ele>363.3</ele>
        <time>2023-06-11T12:29:21Z</time>
      </trkpt>
      <trkpt lat="43.71537" lon="5.98202">
        <ele>363.3</ele>
        <time>2023-06-11T12:29:22Z</time>
      </trkpt>
      <trkpt lat="43.71537" lon="5.98203">
        <ele>363.3</ele>
        <time>2023-06-11T12:29:23Z</time>
      </trkpt>
      <trkpt lat="43.71536" lon="5.98205">
        <ele>363.4</ele>
        <time>2023-06-11T12:29:24Z</time>
      </trkpt>
      <trkpt lat="43.71535" lon="5.98207">
        <ele>363.4</ele>
        <time>2023-06-11T12:29:25Z</time>
      </trkpt>
      <trkpt lat="43.71535" lon="5.98209">
        <ele>363.5</ele>
        <time>2023-06-11T12:29:26Z</time>
      </trkpt>
      <trkpt lat="43.71534" lon="5.98211">
        <ele>363.5</ele>
        <time>2023-06-11T12:29:27Z</time>
      </trkpt>
      <trkpt lat="43.71534" lon="5.98212">
        <ele>363.6</ele>
        <time>2023-06-11T12:29:28Z</time>
      </trkpt>
      <trkpt lat="43.71534" lon="5.98214">
        <ele>363.6</ele>
        <time>2023-06-11T12:29:29Z</time>
      </trkpt>
      <trkpt lat="43.71533" lon="5.98216">
        <ele>363.7</ele>
        <time>2023-06-11T12:29:30Z</time>
      </trkpt>
      <trkpt lat="43.71533" lon="5.98218">
        <ele>363.6</ele>
        <time>2023-06-11T12:29:31Z</time>
      </trkpt>
      <trkpt lat="43.71532" lon="5.9822">
        <ele>363.6</ele>
        <time>2023-06-11T12:29:32Z</time>
      </trkpt>
      <trkpt lat="43.71532" lon="5.98222">
        <ele>363.7</ele>
        <time>2023-06-11T12:29:33Z</time>
      </trkpt>
      <trkpt lat="43.71531" lon="5.98224">
        <ele>363.8</ele>
        <time>2023-06-11T12:29:34Z</time>
      </trkpt>
      <trkpt lat="43.71531" lon="5.98226">
        <ele>363.8</ele>
        <time>2023-06-11T12:29:35Z</time>
      </trkpt>
      <trkpt lat="43.7153" lon="5.98228">
        <ele>363.9</ele>
        <time>2023-06-11T12:29:36Z</time>
      </trkpt>
      <trkpt lat="43.7153" lon="5.9823">
        <ele>363.9</ele>
        <time>2023-06-11T12:29:37Z</time>
      </trkpt>
      <trkpt lat="43.71529" lon="5.98232">
        <ele>364</ele>
        <time>2023-06-11T12:29:38Z</time>
      </trkpt>
      <trkpt lat="43.71528" lon="5.98234">
        <ele>364</ele>
        <time>2023-06-11T12:29:39Z</time>
      </trkpt>
      <trkpt lat="43.71528" lon="5.98235">
        <ele>364</ele>
        <time>2023-06-11T12:29:40Z</time>
      </trkpt>
      <trkpt lat="43.71527" lon="5.98237">
        <ele>363.9</ele>
        <time>2023-06-11T12:29:41Z</time>
      </trkpt>
      <trkpt lat="43.71526" lon="5.98238">
        <ele>363.9</ele>
        <time>2023-06-11T12:29:42Z</time>
      </trkpt>
      <trkpt lat="43.71526" lon="5.9824">
        <ele>363.8</ele>
        <time>2023-06-11T12:29:43Z</time>
      </trkpt>
      <trkpt lat="43.71525" lon="5.98242">
        <ele>363.8</ele>
        <time>2023-06-11T12:29:44Z</time>
      </trkpt>
      <trkpt lat="43.71524" lon="5.98244">
        <ele>363.8</ele>
        <time>2023-06-11T12:29:45Z</time>
      </trkpt>
      <trkpt lat="43.71523" lon="5.98246">
        <ele>363.8</ele>
        <time>2023-06-11T12:29:46Z</time>
      </trkpt>
      <trkpt lat="43.71523" lon="5.98248">
        <ele>363.8</ele>
        <time>2023-06-11T12:29:47Z</time>
      </trkpt>
      <trkpt lat="43.71522" lon="5.9825">
        <ele>363.8</ele>
        <time>2023-06-11T12:29:48Z</time>
      </trkpt>
      <trkpt lat="43.71522" lon="5.98251">
        <ele>363.8</ele>
        <time>2023-06-11T12:29:49Z</time>
      </trkpt>
      <trkpt lat="43.71521" lon="5.98253">
        <ele>363.7</ele>
        <time>2023-06-11T12:29:50Z</time>
      </trkpt>
      <trkpt lat="43.7152" lon="5.98255">
        <ele>363.7</ele>
        <time>2023-06-11T12:29:51Z</time>
      </trkpt>
      <trkpt lat="43.71519" lon="5.98256">
        <ele>363.7</ele>
        <time>2023-06-11T12:29:52Z</time>
      </trkpt>
      <trkpt lat="43.71519" lon="5.98258">
        <ele>363.7</ele>
        <time>2023-06-11T12:29:53Z</time>
      </trkpt>
      <trkpt lat="43.71518" lon="5.9826">
        <ele>363.7</ele>
        <time>2023-06-11T12:29:54Z</time>
      </trkpt>
      <trkpt lat="43.71517" lon="5.98262">
        <ele>363.7</ele>
        <time>2023-06-11T12:29:55Z</time>
      </trkpt>
      <trkpt lat="43.71517" lon="5.98264">
        <ele>363.7</ele>
        <time>2023-06-11T12:29:56Z</time>
      </trkpt>
      <trkpt lat="43.71516" lon="5.98265">
        <ele>363.7</ele>
        <time>2023-06-11T12:29:57Z</time>
      </trkpt>
      <trkpt lat="43.71515" lon="5.98267">
        <ele>363.7</ele>
        <time>2023-06-11T12:29:58Z</time>
      </trkpt>
      <trkpt lat="43.71515" lon="5.98269">
        <ele>363.7</ele>
        <time>2023-06-11T12:29:59Z</time>
      </trkpt>
      <trkpt lat="43.71514" lon="5.9827">
        <ele>363.7</ele>
        <time>2023-06-11T12:30:00Z</time>
      </trkpt>
      <trkpt lat="43.71513" lon="5.98272">
        <ele>363.6</ele>
        <time>2023-06-11T12:30:01Z</time>
      </trkpt>
      <trkpt lat="43.71512" lon="5.98273">
        <ele>363.6</ele>
        <time>2023-06-11T12:30:02Z</time>
      </trkpt>
      <trkpt lat="43.71512" lon="5.98275">
        <ele>363.7</ele>
        <time>2023-06-11T12:30:03Z</time>
      </trkpt>
      <trkpt lat="43.71511" lon="5.98277">
        <ele>363.7</ele>
        <time>2023-06-11T12:30:04Z</time>
      </trkpt>
      <trkpt lat="43.7151" lon="5.98278">
        <ele>363.7</ele>
        <time>2023-06-11T12:30:05Z</time>
      </trkpt>
      <trkpt lat="43.71509" lon="5.9828">
        <ele>363.8</ele>
        <time>2023-06-11T12:30:06Z</time>
      </trkpt>
      <trkpt lat="43.71509" lon="5.98281">
        <ele>363.8</ele>
        <time>2023-06-11T12:30:07Z</time>
      </trkpt>
      <trkpt lat="43.71508" lon="5.98283">
        <ele>363.8</ele>
        <time>2023-06-11T12:30:08Z</time>
      </trkpt>
      <trkpt lat="43.71507" lon="5.98285">
        <ele>363.8</ele>
        <time>2023-06-11T12:30:09Z</time>
      </trkpt>
      <trkpt lat="43.71506" lon="5.98286">
        <ele>363.8</ele>
        <time>2023-06-11T12:30:10Z</time>
      </trkpt>
      <trkpt lat="43.71505" lon="5.98288">
        <ele>363.7</ele>
        <time>2023-06-11T12:30:11Z</time>
      </trkpt>
      <trkpt lat="43.71505" lon="5.9829">
        <ele>363.8</ele>
        <time>2023-06-11T12:30:12Z</time>
      </trkpt>
      <trkpt lat="43.71504" lon="5.98291">
        <ele>363.8</ele>
        <time>2023-06-11T12:30:13Z</time>
      </trkpt>
      <trkpt lat="43.71503" lon="5.98293">
        <ele>363.9</ele>
        <time>2023-06-11T12:30:14Z</time>
      </trkpt>
      <trkpt lat="43.71502" lon="5.98295">
        <ele>364</ele>
        <time>2023-06-11T12:30:15Z</time>
      </trkpt>
      <trkpt lat="43.71502" lon="5.98296">
        <ele>364</ele>
        <time>2023-06-11T12:30:16Z</time>
      </trkpt>
      <trkpt lat="43.71501" lon="5.98298">
        <ele>364.1</ele>
        <time>2023-06-11T12:30:17Z</time>
      </trkpt>
      <trkpt lat="43.715" lon="5.983">
        <ele>364.2</ele>
        <time>2023-06-11T12:30:18Z</time>
      </trkpt>
      <trkpt lat="43.71499" lon="5.98301">
        <ele>364.3</ele>
        <time>2023-06-11T12:30:19Z</time>
      </trkpt>
      <trkpt lat="43.71499" lon="5.98303">
        <ele>364.4</ele>
        <time>2023-06-11T12:30:20Z</time>
      </trkpt>
      <trkpt lat="43.71498" lon="5.98304">
        <ele>364.3</ele>
        <time>2023-06-11T12:30:21Z</time>
      </trkpt>
      <trkpt lat="43.71497" lon="5.98306">
        <ele>364.3</ele>
        <time>2023-06-11T12:30:22Z</time>
      </trkpt>
      <trkpt lat="43.71496" lon="5.98308">
        <ele>364.3</ele>
        <time>2023-06-11T12:30:23Z</time>
      </trkpt>
      <trkpt lat="43.71496" lon="5.9831">
        <ele>364.3</ele>
        <time>2023-06-11T12:30:24Z</time>
      </trkpt>
      <trkpt lat="43.71495" lon="5.98311">
        <ele>364.3</ele>
        <time>2023-06-11T12:30:25Z</time>
      </trkpt>
      <trkpt lat="43.71494" lon="5.98313">
        <ele>364.3</ele>
        <time>2023-06-11T12:30:26Z</time>
      </trkpt>
      <trkpt lat="43.71493" lon="5.98315">
        <ele>364.3</ele>
        <time>2023-06-11T12:30:27Z</time>
      </trkpt>
      <trkpt lat="43.71492" lon="5.98317">
        <ele>364.5</ele>
        <time>2023-06-11T12:30:28Z</time>
      </trkpt>
      <trkpt lat="43.71492" lon="5.98319">
        <ele>364.1</ele>
        <time>2023-06-11T12:30:29Z</time>
      </trkpt>
      <trkpt lat="43.71491" lon="5.9832">
        <ele>364.5</ele>
        <time>2023-06-11T12:30:30Z</time>
      </trkpt>
      <trkpt lat="43.7149" lon="5.98322">
        <ele>364.4</ele>
        <time>2023-06-11T12:30:31Z</time>
      </trkpt>
      <trkpt lat="43.71489" lon="5.98324">
        <ele>364.4</ele>
        <time>2023-06-11T12:30:32Z</time>
      </trkpt>
      <trkpt lat="43.71489" lon="5.98325">
        <ele>364.3</ele>
        <time>2023-06-11T12:30:33Z</time>
      </trkpt>
      <trkpt lat="43.71488" lon="5.98327">
        <ele>364.2</ele>
        <time>2023-06-11T12:30:34Z</time>
      </trkpt>
      <trkpt lat="43.71487" lon="5.98329">
        <ele>364.2</ele>
        <time>2023-06-11T12:30:35Z</time>
      </trkpt>
      <trkpt lat="43.71486" lon="5.98331">
        <ele>364.1</ele>
        <time>2023-06-11T12:30:36Z</time>
      </trkpt>
      <trkpt lat="43.71486" lon="5.98332">
        <ele>364.2</ele>
        <time>2023-06-11T12:30:37Z</time>
      </trkpt>
      <trkpt lat="43.71485" lon="5.98334">
        <ele>364.2</ele>
        <time>2023-06-11T12:30:38Z</time>
      </trkpt>
      <trkpt lat="43.71484" lon="5.98336">
        <ele>364.1</ele>
        <time>2023-06-11T12:30:39Z</time>
      </trkpt>
      <trkpt lat="43.71483" lon="5.98337">
        <ele>364.2</ele>
        <time>2023-06-11T12:30:40Z</time>
      </trkpt>
      <trkpt lat="43.71483" lon="5.98339">
        <ele>364.3</ele>
        <time>2023-06-11T12:30:41Z</time>
      </trkpt>
      <trkpt lat="43.71482" lon="5.98341">
        <ele>364.3</ele>
        <time>2023-06-11T12:30:42Z</time>
      </trkpt>
      <trkpt lat="43.71481" lon="5.98342">
        <ele>364.3</ele>
        <time>2023-06-11T12:30:43Z</time>
      </trkpt>
      <trkpt lat="43.7148" lon="5.98344">
        <ele>364.3</ele>
        <time>2023-06-11T12:30:44Z</time>
      </trkpt>
      <trkpt lat="43.71479" lon="5.98346">
        <ele>364.3</ele>
        <time>2023-06-11T12:30:45Z</time>
      </trkpt>
      <trkpt lat="43.71478" lon="5.98347">
        <ele>364.3</ele>
        <time>2023-06-11T12:30:46Z</time>
      </trkpt>
      <trkpt lat="43.71478" lon="5.98349">
        <ele>364.3</ele>
        <time>2023-06-11T12:30:47Z</time>
      </trkpt>
      <trkpt lat="43.71477" lon="5.98351">
        <ele>364.3</ele>
        <time>2023-06-11T12:30:48Z</time>
      </trkpt>
      <trkpt lat="43.71476" lon="5.98353">
        <ele>364.3</ele>
        <time>2023-06-11T12:30:49Z</time>
      </trkpt>
      <trkpt lat="43.71475" lon="5.98354">
        <ele>364.3</ele>
        <time>2023-06-11T12:30:50Z</time>
      </trkpt>
      <trkpt lat="43.71475" lon="5.98356">
        <ele>364.3</ele>
        <time>2023-06-11T12:30:51Z</time>
      </trkpt>
      <trkpt lat="43.71474" lon="5.98357">
        <ele>364.3</ele>
        <time>2023-06-11T12:30:52Z</time>
      </trkpt>
      <trkpt lat="43.71473" lon="5.98359">
        <ele>364.3</ele>
        <time>2023-06-11T12:30:53Z</time>
      </trkpt>
      <trkpt lat="43.71473" lon="5.98361">
        <ele>364.4</ele>
        <time>2023-06-11T12:30:54Z</time>
      </trkpt>
      <trkpt lat="43.71472" lon="5.98363">
        <ele>364.4</ele>
        <time>2023-06-11T12:30:55Z</time>
      </trkpt>
      <trkpt lat="43.71471" lon="5.98365">
        <ele>364.5</ele>
        <time>2023-06-11T12:30:56Z</time>
      </trkpt>
      <trkpt lat="43.7147" lon="5.98366">
        <ele>364.5</ele>
        <time>2023-06-11T12:30:57Z</time>
      </trkpt>
      <trkpt lat="43.7147" lon="5.98368">
        <ele>364.5</ele>
        <time>2023-06-11T12:30:58Z</time>
      </trkpt>
      <trkpt lat="43.71469" lon="5.9837">
        <ele>364.4</ele>
        <time>2023-06-11T12:30:59Z</time>
      </trkpt>
      <trkpt lat="43.71468" lon="5.98372">
        <ele>364.3</ele>
        <time>2023-06-11T12:31:00Z</time>
      </trkpt>
      <trkpt lat="43.71467" lon="5.98374">
        <ele>364.3</ele>
        <time>2023-06-11T12:31:01Z</time>
      </trkpt>
      <trkpt lat="43.71467" lon="5.98375">
        <ele>364.3</ele>
        <time>2023-06-11T12:31:02Z</time>
      </trkpt>
      <trkpt lat="43.71466" lon="5.98377">
        <ele>364.2</ele>
        <time>2023-06-11T12:31:03Z</time>
      </trkpt>
      <trkpt lat="43.71465" lon="5.98379">
        <ele>364.3</ele>
        <time>2023-06-11T12:31:04Z</time>
      </trkpt>
      <trkpt lat="43.71464" lon="5.9838">
        <ele>364.4</ele>
        <time>2023-06-11T12:31:05Z</time>
      </trkpt>
      <trkpt lat="43.71464" lon="5.98382">
        <ele>364.5</ele>
        <time>2023-06-11T12:31:06Z</time>
      </trkpt>
      <trkpt lat="43.71463" lon="5.98384">
        <ele>364.6</ele>
        <time>2023-06-11T12:31:07Z</time>
      </trkpt>
      <trkpt lat="43.71462" lon="5.98386">
        <ele>364.5</ele>
        <time>2023-06-11T12:31:08Z</time>
      </trkpt>
      <trkpt lat="43.71461" lon="5.98388">
        <ele>364.7</ele>
        <time>2023-06-11T12:31:09Z</time>
      </trkpt>
      <trkpt lat="43.71461" lon="5.98389">
        <ele>364.7</ele>
        <time>2023-06-11T12:31:10Z</time>
      </trkpt>
      <trkpt lat="43.7146" lon="5.98391">
        <ele>364.5</ele>
        <time>2023-06-11T12:31:11Z</time>
      </trkpt>
      <trkpt lat="43.71459" lon="5.98393">
        <ele>364.5</ele>
        <time>2023-06-11T12:31:12Z</time>
      </trkpt>
      <trkpt lat="43.71458" lon="5.98395">
        <ele>364.5</ele>
        <time>2023-06-11T12:31:13Z</time>
      </trkpt>
      <trkpt lat="43.71458" lon="5.98396">
        <ele>364.5</ele>
        <time>2023-06-11T12:31:14Z</time>
      </trkpt>
      <trkpt lat="43.71457" lon="5.98398">
        <ele>364.5</ele>
        <time>2023-06-11T12:31:15Z</time>
      </trkpt>
      <trkpt lat="43.71456" lon="5.984">
        <ele>364.5</ele>
        <time>2023-06-11T12:31:16Z</time>
      </trkpt>
      <trkpt lat="43.71455" lon="5.98401">
        <ele>364.6</ele>
        <time>2023-06-11T12:31:17Z</time>
      </trkpt>
      <trkpt lat="43.71455" lon="5.98403">
        <ele>364.6</ele>
        <time>2023-06-11T12:31:18Z</time>
      </trkpt>
      <trkpt lat="43.71454" lon="5.98405">
        <ele>364.6</ele>
        <time>2023-06-11T12:31:19Z</time>
      </trkpt>
      <trkpt lat="43.71453" lon="5.98407">
        <ele>364.6</ele>
        <time>2023-06-11T12:31:20Z</time>
      </trkpt>
      <trkpt lat="43.71452" lon="5.98408">
        <ele>364.6</ele>
        <time>2023-06-11T12:31:21Z</time>
      </trkpt>
      <trkpt lat="43.71452" lon="5.9841">
        <ele>364.7</ele>
        <time>2023-06-11T12:31:22Z</time>
      </trkpt>
      <trkpt lat="43.71451" lon="5.98412">
        <ele>364.8</ele>
        <time>2023-06-11T12:31:23Z</time>
      </trkpt>
      <trkpt lat="43.7145" lon="5.98413">
        <ele>364.7</ele>
        <time>2023-06-11T12:31:24Z</time>
      </trkpt>
      <trkpt lat="43.7145" lon="5.98415">
        <ele>364.8</ele>
        <time>2023-06-11T12:31:25Z</time>
      </trkpt>
      <trkpt lat="43.71449" lon="5.98417">
        <ele>364.8</ele>
        <time>2023-06-11T12:31:26Z</time>
      </trkpt>
      <trkpt lat="43.71448" lon="5.98419">
        <ele>364.7</ele>
        <time>2023-06-11T12:31:27Z</time>
      </trkpt>
      <trkpt lat="43.71447" lon="5.98421">
        <ele>364.7</ele>
        <time>2023-06-11T12:31:28Z</time>
      </trkpt>
      <trkpt lat="43.71446" lon="5.98422">
        <ele>364.7</ele>
        <time>2023-06-11T12:31:29Z</time>
      </trkpt>
      <trkpt lat="43.71446" lon="5.98424">
        <ele>364.7</ele>
        <time>2023-06-11T12:31:30Z</time>
      </trkpt>
      <trkpt lat="43.71445" lon="5.98426">
        <ele>364.6</ele>
        <time>2023-06-11T12:31:31Z</time>
      </trkpt>
      <trkpt lat="43.71444" lon="5.98427">
        <ele>364.6</ele>
        <time>2023-06-11T12:31:32Z</time>
      </trkpt>
      <trkpt lat="43.71444" lon="5.98429">
        <ele>364.5</ele>
        <time>2023-06-11T12:31:33Z</time>
      </trkpt>
      <trkpt lat="43.71443" lon="5.98431">
        <ele>364.5</ele>
        <time>2023-06-11T12:31:34Z</time>
      </trkpt>
      <trkpt lat="43.71442" lon="5.98433">
        <ele>364.4</ele>
        <time>2023-06-11T12:31:35Z</time>
      </trkpt>
      <trkpt lat="43.71442" lon="5.98435">
        <ele>364.4</ele>
        <time>2023-06-11T12:31:36Z</time>
      </trkpt>
      <trkpt lat="43.71441" lon="5.98436">
        <ele>364.4</ele>
        <time>2023-06-11T12:31:37Z</time>
      </trkpt>
      <trkpt lat="43.7144" lon="5.98438">
        <ele>364.4</ele>
        <time>2023-06-11T12:31:38Z</time>
      </trkpt>
      <trkpt lat="43.71439" lon="5.9844">
        <ele>364.4</ele>
        <time>2023-06-11T12:31:39Z</time>
      </trkpt>
      <trkpt lat="43.71439" lon="5.98442">
        <ele>364.4</ele>
        <time>2023-06-11T12:31:40Z</time>
      </trkpt>
      <trkpt lat="43.71438" lon="5.98443">
        <ele>364.4</ele>
        <time>2023-06-11T12:31:41Z</time>
      </trkpt>
      <trkpt lat="43.71437" lon="5.98445">
        <ele>364.4</ele>
        <time>2023-06-11T12:31:42Z</time>
      </trkpt>
      <trkpt lat="43.71437" lon="5.98447">
        <ele>364.4</ele>
        <time>2023-06-11T12:31:43Z</time>
      </trkpt>
      <trkpt lat="43.71436" lon="5.98449">
        <ele>364.4</ele>
        <time>2023-06-11T12:31:44Z</time>
      </trkpt>
      <trkpt lat="43.71435" lon="5.9845">
        <ele>364.4</ele>
        <time>2023-06-11T12:31:45Z</time>
      </trkpt>
      <trkpt lat="43.71434" lon="5.98452">
        <ele>364.2</ele>
        <time>2023-06-11T12:31:46Z</time>
      </trkpt>
      <trkpt lat="43.71433" lon="5.98454">
        <ele>364</ele>
        <time>2023-06-11T12:31:47Z</time>
      </trkpt>
      <trkpt lat="43.71433" lon="5.98456">
        <ele>363.6</ele>
        <time>2023-06-11T12:31:48Z</time>
      </trkpt>
      <trkpt lat="43.71432" lon="5.98457">
        <ele>363.6</ele>
        <time>2023-06-11T12:31:49Z</time>
      </trkpt>
      <trkpt lat="43.71431" lon="5.98459">
        <ele>363.7</ele>
        <time>2023-06-11T12:31:50Z</time>
      </trkpt>
      <trkpt lat="43.71431" lon="5.98461">
        <ele>364.8</ele>
        <time>2023-06-11T12:31:51Z</time>
      </trkpt>
      <trkpt lat="43.7143" lon="5.98462">
        <ele>364.7</ele>
        <time>2023-06-11T12:31:52Z</time>
      </trkpt>
      <trkpt lat="43.71429" lon="5.98463">
        <ele>364.7</ele>
        <time>2023-06-11T12:31:53Z</time>
      </trkpt>
      <trkpt lat="43.71428" lon="5.98465">
        <ele>364.6</ele>
        <time>2023-06-11T12:31:54Z</time>
      </trkpt>
      <trkpt lat="43.71428" lon="5.98467">
        <ele>364.6</ele>
        <time>2023-06-11T12:31:55Z</time>
      </trkpt>
      <trkpt lat="43.71427" lon="5.98468">
        <ele>364.7</ele>
        <time>2023-06-11T12:31:56Z</time>
      </trkpt>
      <trkpt lat="43.71427" lon="5.9847">
        <ele>364.7</ele>
        <time>2023-06-11T12:31:57Z</time>
      </trkpt>
      <trkpt lat="43.71426" lon="5.98471">
        <ele>364.7</ele>
        <time>2023-06-11T12:31:58Z</time>
      </trkpt>
      <trkpt lat="43.71426" lon="5.98473">
        <ele>364.7</ele>
        <time>2023-06-11T12:31:59Z</time>
      </trkpt>
      <trkpt lat="43.71425" lon="5.98474">
        <ele>364.6</ele>
        <time>2023-06-11T12:32:00Z</time>
      </trkpt>
      <trkpt lat="43.71424" lon="5.98476">
        <ele>364.7</ele>
        <time>2023-06-11T12:32:01Z</time>
      </trkpt>
      <trkpt lat="43.71424" lon="5.98478">
        <ele>364.7</ele>
        <time>2023-06-11T12:32:02Z</time>
      </trkpt>
      <trkpt lat="43.71423" lon="5.98479">
        <ele>364.7</ele>
        <time>2023-06-11T12:32:03Z</time>
      </trkpt>
      <trkpt lat="43.71422" lon="5.98481">
        <ele>364.7</ele>
        <time>2023-06-11T12:32:04Z</time>
      </trkpt>
      <trkpt lat="43.71422" lon="5.98482">
        <ele>364.7</ele>
        <time>2023-06-11T12:32:05Z</time>
      </trkpt>
      <trkpt lat="43.71421" lon="5.98484">
        <ele>364.7</ele>
        <time>2023-06-11T12:32:06Z</time>
      </trkpt>
      <trkpt lat="43.7142" lon="5.98486">
        <ele>364.7</ele>
        <time>2023-06-11T12:32:07Z</time>
      </trkpt>
      <trkpt lat="43.71419" lon="5.98487">
        <ele>364.8</ele>
        <time>2023-06-11T12:32:08Z</time>
      </trkpt>
      <trkpt lat="43.71419" lon="5.98489">
        <ele>364.8</ele>
        <time>2023-06-11T12:32:09Z</time>
      </trkpt>
      <trkpt lat="43.71418" lon="5.98491">
        <ele>364.8</ele>
        <time>2023-06-11T12:32:10Z</time>
      </trkpt>
      <trkpt lat="43.71417" lon="5.98492">
        <ele>364.8</ele>
        <time>2023-06-11T12:32:11Z</time>
      </trkpt>
      <trkpt lat="43.71416" lon="5.98494">
        <ele>364.7</ele>
        <time>2023-06-11T12:32:12Z</time>
      </trkpt>
      <trkpt lat="43.71416" lon="5.98495">
        <ele>364.7</ele>
        <time>2023-06-11T12:32:13Z</time>
      </trkpt>
      <trkpt lat="43.71415" lon="5.98497">
        <ele>364.8</ele>
        <time>2023-06-11T12:32:14Z</time>
      </trkpt>
      <trkpt lat="43.71414" lon="5.98498">
        <ele>364.9</ele>
        <time>2023-06-11T12:32:15Z</time>
      </trkpt>
      <trkpt lat="43.71413" lon="5.985">
        <ele>364.9</ele>
        <time>2023-06-11T12:32:16Z</time>
      </trkpt>
      <trkpt lat="43.71413" lon="5.98502">
        <ele>364.9</ele>
        <time>2023-06-11T12:32:17Z</time>
      </trkpt>
      <trkpt lat="43.71412" lon="5.98503">
        <ele>364.9</ele>
        <time>2023-06-11T12:32:18Z</time>
      </trkpt>
      <trkpt lat="43.71411" lon="5.98505">
        <ele>364.9</ele>
        <time>2023-06-11T12:32:19Z</time>
      </trkpt>
      <trkpt lat="43.7141" lon="5.98507">
        <ele>364.9</ele>
        <time>2023-06-11T12:32:20Z</time>
      </trkpt>
      <trkpt lat="43.71409" lon="5.98508">
        <ele>364.8</ele>
        <time>2023-06-11T12:32:21Z</time>
      </trkpt>
      <trkpt lat="43.71408" lon="5.9851">
        <ele>364.8</ele>
        <time>2023-06-11T12:32:22Z</time>
      </trkpt>
      <trkpt lat="43.71408" lon="5.98511">
        <ele>364.7</ele>
        <time>2023-06-11T12:32:23Z</time>
      </trkpt>
      <trkpt lat="43.71407" lon="5.98513">
        <ele>364.7</ele>
        <time>2023-06-11T12:32:24Z</time>
      </trkpt>
      <trkpt lat="43.71406" lon="5.98514">
        <ele>364.7</ele>
        <time>2023-06-11T12:32:25Z</time>
      </trkpt>
      <trkpt lat="43.71405" lon="5.98516">
        <ele>364.7</ele>
        <time>2023-06-11T12:32:26Z</time>
      </trkpt>
      <trkpt lat="43.71405" lon="5.98518">
        <ele>364.8</ele>
        <time>2023-06-11T12:32:27Z</time>
      </trkpt>
      <trkpt lat="43.71404" lon="5.98519">
        <ele>364.8</ele>
        <time>2023-06-11T12:32:28Z</time>
      </trkpt>
      <trkpt lat="43.71403" lon="5.98521">
        <ele>364.8</ele>
        <time>2023-06-11T12:32:29Z</time>
      </trkpt>
      <trkpt lat="43.71402" lon="5.98523">
        <ele>364.8</ele>
        <time>2023-06-11T12:32:30Z</time>
      </trkpt>
      <trkpt lat="43.71401" lon="5.98524">
        <ele>364.9</ele>
        <time>2023-06-11T12:32:31Z</time>
      </trkpt>
      <trkpt lat="43.714" lon="5.98526">
        <ele>364.9</ele>
        <time>2023-06-11T12:32:32Z</time>
      </trkpt>
      <trkpt lat="43.71399" lon="5.98528">
        <ele>364.9</ele>
        <time>2023-06-11T12:32:33Z</time>
      </trkpt>
      <trkpt lat="43.71399" lon="5.98529">
        <ele>364.9</ele>
        <time>2023-06-11T12:32:34Z</time>
      </trkpt>
      <trkpt lat="43.71398" lon="5.98531">
        <ele>364.9</ele>
        <time>2023-06-11T12:32:35Z</time>
      </trkpt>
      <trkpt lat="43.71397" lon="5.98533">
        <ele>364.9</ele>
        <time>2023-06-11T12:32:36Z</time>
      </trkpt>
      <trkpt lat="43.71396" lon="5.98534">
        <ele>365</ele>
        <time>2023-06-11T12:32:37Z</time>
      </trkpt>
      <trkpt lat="43.71396" lon="5.98536">
        <ele>365.1</ele>
        <time>2023-06-11T12:32:38Z</time>
      </trkpt>
      <trkpt lat="43.71395" lon="5.98538">
        <ele>365.1</ele>
        <time>2023-06-11T12:32:39Z</time>
      </trkpt>
      <trkpt lat="43.71394" lon="5.9854">
        <ele>365.1</ele>
        <time>2023-06-11T12:32:40Z</time>
      </trkpt>
      <trkpt lat="43.71393" lon="5.98541">
        <ele>365.1</ele>
        <time>2023-06-11T12:32:41Z</time>
      </trkpt>
      <trkpt lat="43.71392" lon="5.98543">
        <ele>365.1</ele>
        <time>2023-06-11T12:32:42Z</time>
      </trkpt>
      <trkpt lat="43.71392" lon="5.98545">
        <ele>365</ele>
        <time>2023-06-11T12:32:43Z</time>
      </trkpt>
      <trkpt lat="43.71391" lon="5.98546">
        <ele>365</ele>
        <time>2023-06-11T12:32:44Z</time>
      </trkpt>
      <trkpt lat="43.71391" lon="5.98548">
        <ele>365</ele>
        <time>2023-06-11T12:32:45Z</time>
      </trkpt>
      <trkpt lat="43.7139" lon="5.98549">
        <ele>365</ele>
        <time>2023-06-11T12:32:46Z</time>
      </trkpt>
      <trkpt lat="43.71389" lon="5.98551">
        <ele>365</ele>
        <time>2023-06-11T12:32:47Z</time>
      </trkpt>
      <trkpt lat="43.71389" lon="5.98553">
        <ele>364.9</ele>
        <time>2023-06-11T12:32:48Z</time>
      </trkpt>
      <trkpt lat="43.71388" lon="5.98554">
        <ele>364.8</ele>
        <time>2023-06-11T12:32:49Z</time>
      </trkpt>
      <trkpt lat="43.71387" lon="5.98556">
        <ele>364.8</ele>
        <time>2023-06-11T12:32:50Z</time>
      </trkpt>
      <trkpt lat="43.71387" lon="5.98557">
        <ele>364.8</ele>
        <time>2023-06-11T12:32:51Z</time>
      </trkpt>
      <trkpt lat="43.71386" lon="5.98559">
        <ele>364.8</ele>
        <time>2023-06-11T12:32:52Z</time>
      </trkpt>
      <trkpt lat="43.71385" lon="5.98561">
        <ele>364.8</ele>
        <time>2023-06-11T12:32:53Z</time>
      </trkpt>
      <trkpt lat="43.71385" lon="5.98562">
        <ele>364.8</ele>
        <time>2023-06-11T12:32:54Z</time>
      </trkpt>
      <trkpt lat="43.71384" lon="5.98564">
        <ele>364.8</ele>
        <time>2023-06-11T12:32:55Z</time>
      </trkpt>
      <trkpt lat="43.71383" lon="5.98566">
        <ele>364.8</ele>
        <time>2023-06-11T12:32:56Z</time>
      </trkpt>
      <trkpt lat="43.71383" lon="5.98567">
        <ele>364.8</ele>
        <time>2023-06-11T12:32:57Z</time>
      </trkpt>
      <trkpt lat="43.71382" lon="5.98569">
        <ele>364.8</ele>
        <time>2023-06-11T12:32:58Z</time>
      </trkpt>
      <trkpt lat="43.71382" lon="5.98571">
        <ele>364.8</ele>
        <time>2023-06-11T12:32:59Z</time>
      </trkpt>
      <trkpt lat="43.71381" lon="5.98572">
        <ele>364.9</ele>
        <time>2023-06-11T12:33:00Z</time>
      </trkpt>
      <trkpt lat="43.71381" lon="5.98574">
        <ele>364.9</ele>
        <time>2023-06-11T12:33:01Z</time>
      </trkpt>
      <trkpt lat="43.71381" lon="5.98575">
        <ele>365</ele>
        <time>2023-06-11T12:33:02Z</time>
      </trkpt>
      <trkpt lat="43.7138" lon="5.98577">
        <ele>365</ele>
        <time>2023-06-11T12:33:03Z</time>
      </trkpt>
      <trkpt lat="43.71379" lon="5.98579">
        <ele>364.9</ele>
        <time>2023-06-11T12:33:04Z</time>
      </trkpt>
      <trkpt lat="43.71379" lon="5.9858">
        <ele>364.9</ele>
        <time>2023-06-11T12:33:05Z</time>
      </trkpt>
      <trkpt lat="43.71378" lon="5.98582">
        <ele>365</ele>
        <time>2023-06-11T12:33:06Z</time>
      </trkpt>
      <trkpt lat="43.71377" lon="5.98583">
        <ele>365</ele>
        <time>2023-06-11T12:33:07Z</time>
      </trkpt>
      <trkpt lat="43.71376" lon="5.98585">
        <ele>365</ele>
        <time>2023-06-11T12:33:08Z</time>
      </trkpt>
      <trkpt lat="43.71376" lon="5.98586">
        <ele>365</ele>
        <time>2023-06-11T12:33:09Z</time>
      </trkpt>
      <trkpt lat="43.71375" lon="5.98588">
        <ele>365</ele>
        <time>2023-06-11T12:33:10Z</time>
      </trkpt>
      <trkpt lat="43.71374" lon="5.9859">
        <ele>365.1</ele>
        <time>2023-06-11T12:33:11Z</time>
      </trkpt>
      <trkpt lat="43.71373" lon="5.98591">
        <ele>365.1</ele>
        <time>2023-06-11T12:33:12Z</time>
      </trkpt>
      <trkpt lat="43.71372" lon="5.98593">
        <ele>365.1</ele>
        <time>2023-06-11T12:33:13Z</time>
      </trkpt>
      <trkpt lat="43.71371" lon="5.98595">
        <ele>365.1</ele>
        <time>2023-06-11T12:33:14Z</time>
      </trkpt>
      <trkpt lat="43.71371" lon="5.98596">
        <ele>365.1</ele>
        <time>2023-06-11T12:33:15Z</time>
      </trkpt>
      <trkpt lat="43.7137" lon="5.98598">
        <ele>365.2</ele>
        <time>2023-06-11T12:33:16Z</time>
      </trkpt>
      <trkpt lat="43.71369" lon="5.98599">
        <ele>365.3</ele>
        <time>2023-06-11T12:33:17Z</time>
      </trkpt>
      <trkpt lat="43.71368" lon="5.98601">
        <ele>365.3</ele>
        <time>2023-06-11T12:33:18Z</time>
      </trkpt>
      <trkpt lat="43.71367" lon="5.98602">
        <ele>365.4</ele>
        <time>2023-06-11T12:33:19Z</time>
      </trkpt>
      <trkpt lat="43.71366" lon="5.98604">
        <ele>365.4</ele>
        <time>2023-06-11T12:33:20Z</time>
      </trkpt>
      <trkpt lat="43.71366" lon="5.98605">
        <ele>365.4</ele>
        <time>2023-06-11T12:33:21Z</time>
      </trkpt>
      <trkpt lat="43.71365" lon="5.98607">
        <ele>365.4</ele>
        <time>2023-06-11T12:33:22Z</time>
      </trkpt>
      <trkpt lat="43.71364" lon="5.98608">
        <ele>365.4</ele>
        <time>2023-06-11T12:33:23Z</time>
      </trkpt>
      <trkpt lat="43.71363" lon="5.9861">
        <ele>365.4</ele>
        <time>2023-06-11T12:33:24Z</time>
      </trkpt>
      <trkpt lat="43.71362" lon="5.98612">
        <ele>365.4</ele>
        <time>2023-06-11T12:33:25Z</time>
      </trkpt>
      <trkpt lat="43.71362" lon="5.98613">
        <ele>365.5</ele>
        <time>2023-06-11T12:33:26Z</time>
      </trkpt>
      <trkpt lat="43.71361" lon="5.98615">
        <ele>365.6</ele>
        <time>2023-06-11T12:33:27Z</time>
      </trkpt>
      <trkpt lat="43.7136" lon="5.98616">
        <ele>365.6</ele>
        <time>2023-06-11T12:33:28Z</time>
      </trkpt>
      <trkpt lat="43.71359" lon="5.98618">
        <ele>365.6</ele>
        <time>2023-06-11T12:33:29Z</time>
      </trkpt>
      <trkpt lat="43.71359" lon="5.98619">
        <ele>365.6</ele>
        <time>2023-06-11T12:33:30Z</time>
      </trkpt>
      <trkpt lat="43.71358" lon="5.98621">
        <ele>365.6</ele>
        <time>2023-06-11T12:33:31Z</time>
      </trkpt>
      <trkpt lat="43.71357" lon="5.98623">
        <ele>365.6</ele>
        <time>2023-06-11T12:33:32Z</time>
      </trkpt>
      <trkpt lat="43.71356" lon="5.98624">
        <ele>365.6</ele>
        <time>2023-06-11T12:33:33Z</time>
      </trkpt>
      <trkpt lat="43.71355" lon="5.98626">
        <ele>365.6</ele>
        <time>2023-06-11T12:33:34Z</time>
      </trkpt>
      <trkpt lat="43.71354" lon="5.98627">
        <ele>365.6</ele>
        <time>2023-06-11T12:33:35Z</time>
      </trkpt>
      <trkpt lat="43.71354" lon="5.98629">
        <ele>365.6</ele>
        <time>2023-06-11T12:33:36Z</time>
      </trkpt>
      <trkpt lat="43.71353" lon="5.9863">
        <ele>365.6</ele>
        <time>2023-06-11T12:33:37Z</time>
      </trkpt>
      <trkpt lat="43.71352" lon="5.98632">
        <ele>365.6</ele>
        <time>2023-06-11T12:33:38Z</time>
      </trkpt>
      <trkpt lat="43.71351" lon="5.98634">
        <ele>365.6</ele>
        <time>2023-06-11T12:33:39Z</time>
      </trkpt>
      <trkpt lat="43.7135" lon="5.98635">
        <ele>365.6</ele>
        <time>2023-06-11T12:33:40Z</time>
      </trkpt>
      <trkpt lat="43.71349" lon="5.98637">
        <ele>365.7</ele>
        <time>2023-06-11T12:33:41Z</time>
      </trkpt>
      <trkpt lat="43.71348" lon="5.98638">
        <ele>365.8</ele>
        <time>2023-06-11T12:33:42Z</time>
      </trkpt>
      <trkpt lat="43.71347" lon="5.9864">
        <ele>365.8</ele>
        <time>2023-06-11T12:33:43Z</time>
      </trkpt>
      <trkpt lat="43.71346" lon="5.98641">
        <ele>365.9</ele>
        <time>2023-06-11T12:33:44Z</time>
      </trkpt>
      <trkpt lat="43.71345" lon="5.98643">
        <ele>365.9</ele>
        <time>2023-06-11T12:33:45Z</time>
      </trkpt>
      <trkpt lat="43.71345" lon="5.98644">
        <ele>365.8</ele>
        <time>2023-06-11T12:33:46Z</time>
      </trkpt>
      <trkpt lat="43.71344" lon="5.98646">
        <ele>365.7</ele>
        <time>2023-06-11T12:33:47Z</time>
      </trkpt>
      <trkpt lat="43.71343" lon="5.98647">
        <ele>365.7</ele>
        <time>2023-06-11T12:33:48Z</time>
      </trkpt>
      <trkpt lat="43.71343" lon="5.98649">
        <ele>365.6</ele>
        <time>2023-06-11T12:33:49Z</time>
      </trkpt>
      <trkpt lat="43.71342" lon="5.9865">
        <ele>365.6</ele>
        <time>2023-06-11T12:33:50Z</time>
      </trkpt>
      <trkpt lat="43.71341" lon="5.98652">
        <ele>365.6</ele>
        <time>2023-06-11T12:33:51Z</time>
      </trkpt>
      <trkpt lat="43.7134" lon="5.98653">
        <ele>365.6</ele>
        <time>2023-06-11T12:33:52Z</time>
      </trkpt>
      <trkpt lat="43.7134" lon="5.98655">
        <ele>365.6</ele>
        <time>2023-06-11T12:33:53Z</time>
      </trkpt>
      <trkpt lat="43.71339" lon="5.98657">
        <ele>365.5</ele>
        <time>2023-06-11T12:33:54Z</time>
      </trkpt>
      <trkpt lat="43.71338" lon="5.98658">
        <ele>365.4</ele>
        <time>2023-06-11T12:33:55Z</time>
      </trkpt>
      <trkpt lat="43.71337" lon="5.9866">
        <ele>365.4</ele>
        <time>2023-06-11T12:33:56Z</time>
      </trkpt>
      <trkpt lat="43.71336" lon="5.98662">
        <ele>365.4</ele>
        <time>2023-06-11T12:33:57Z</time>
      </trkpt>
      <trkpt lat="43.71335" lon="5.98663">
        <ele>365.4</ele>
        <time>2023-06-11T12:33:58Z</time>
      </trkpt>
      <trkpt lat="43.71334" lon="5.98665">
        <ele>365.4</ele>
        <time>2023-06-11T12:33:59Z</time>
      </trkpt>
      <trkpt lat="43.71333" lon="5.98666">
        <ele>365.5</ele>
        <time>2023-06-11T12:34:00Z</time>
      </trkpt>
      <trkpt lat="43.71332" lon="5.98668">
        <ele>365.5</ele>
        <time>2023-06-11T12:34:01Z</time>
      </trkpt>
      <trkpt lat="43.71331" lon="5.9867">
        <ele>365.4</ele>
        <time>2023-06-11T12:34:02Z</time>
      </trkpt>
      <trkpt lat="43.7133" lon="5.98671">
        <ele>365.3</ele>
        <time>2023-06-11T12:34:03Z</time>
      </trkpt>
      <trkpt lat="43.71329" lon="5.98673">
        <ele>365.4</ele>
        <time>2023-06-11T12:34:04Z</time>
      </trkpt>
      <trkpt lat="43.71327" lon="5.98674">
        <ele>365.4</ele>
        <time>2023-06-11T12:34:05Z</time>
      </trkpt>
      <trkpt lat="43.71326" lon="5.98676">
        <ele>365.5</ele>
        <time>2023-06-11T12:34:06Z</time>
      </trkpt>
      <trkpt lat="43.71324" lon="5.98678">
        <ele>365.4</ele>
        <time>2023-06-11T12:34:07Z</time>
      </trkpt>
      <trkpt lat="43.71323" lon="5.98679">
        <ele>365.4</ele>
        <time>2023-06-11T12:34:08Z</time>
      </trkpt>
      <trkpt lat="43.71321" lon="5.98681">
        <ele>365.4</ele>
        <time>2023-06-11T12:34:09Z</time>
      </trkpt>
      <trkpt lat="43.7132" lon="5.98682">
        <ele>365.5</ele>
        <time>2023-06-11T12:34:10Z</time>
      </trkpt>
      <trkpt lat="43.71319" lon="5.98684">
        <ele>365.5</ele>
        <time>2023-06-11T12:34:11Z</time>
      </trkpt>
      <trkpt lat="43.71318" lon="5.98686">
        <ele>365.5</ele>
        <time>2023-06-11T12:34:12Z</time>
      </trkpt>
      <trkpt lat="43.71317" lon="5.98687">
        <ele>365.5</ele>
        <time>2023-06-11T12:34:13Z</time>
      </trkpt>
      <trkpt lat="43.71316" lon="5.98689">
        <ele>365.4</ele>
        <time>2023-06-11T12:34:14Z</time>
      </trkpt>
      <trkpt lat="43.71314" lon="5.9869">
        <ele>365.4</ele>
        <time>2023-06-11T12:34:15Z</time>
      </trkpt>
      <trkpt lat="43.71313" lon="5.98692">
        <ele>365.3</ele>
        <time>2023-06-11T12:34:16Z</time>
      </trkpt>
      <trkpt lat="43.71312" lon="5.98693">
        <ele>365.3</ele>
        <time>2023-06-11T12:34:17Z</time>
      </trkpt>
      <trkpt lat="43.71311" lon="5.98695">
        <ele>365.3</ele>
        <time>2023-06-11T12:34:18Z</time>
      </trkpt>
      <trkpt lat="43.7131" lon="5.98697">
        <ele>365.4</ele>
        <time>2023-06-11T12:34:19Z</time>
      </trkpt>
      <trkpt lat="43.71309" lon="5.98698">
        <ele>365.4</ele>
        <time>2023-06-11T12:34:20Z</time>
      </trkpt>
      <trkpt lat="43.71308" lon="5.987">
        <ele>365.4</ele>
        <time>2023-06-11T12:34:21Z</time>
      </trkpt>
      <trkpt lat="43.71307" lon="5.98701">
        <ele>365.4</ele>
        <time>2023-06-11T12:34:22Z</time>
      </trkpt>
      <trkpt lat="43.71306" lon="5.98703">
        <ele>365.4</ele>
        <time>2023-06-11T12:34:23Z</time>
      </trkpt>
      <trkpt lat="43.71304" lon="5.98704">
        <ele>365.4</ele>
        <time>2023-06-11T12:34:24Z</time>
      </trkpt>
      <trkpt lat="43.71303" lon="5.98706">
        <ele>365.4</ele>
        <time>2023-06-11T12:34:25Z</time>
      </trkpt>
      <trkpt lat="43.71302" lon="5.98707">
        <ele>365.4</ele>
        <time>2023-06-11T12:34:26Z</time>
      </trkpt>
      <trkpt lat="43.71301" lon="5.98709">
        <ele>365.3</ele>
        <time>2023-06-11T12:34:27Z</time>
      </trkpt>
      <trkpt lat="43.713" lon="5.9871">
        <ele>365.3</ele>
        <time>2023-06-11T12:34:28Z</time>
      </trkpt>
      <trkpt lat="43.71298" lon="5.98712">
        <ele>365.3</ele>
        <time>2023-06-11T12:34:29Z</time>
      </trkpt>
      <trkpt lat="43.71297" lon="5.98714">
        <ele>365.2</ele>
        <time>2023-06-11T12:34:30Z</time>
      </trkpt>
      <trkpt lat="43.71296" lon="5.98715">
        <ele>365.2</ele>
        <time>2023-06-11T12:34:31Z</time>
      </trkpt>
      <trkpt lat="43.71294" lon="5.98717">
        <ele>365.2</ele>
        <time>2023-06-11T12:34:32Z</time>
      </trkpt>
      <trkpt lat="43.71293" lon="5.98718">
        <ele>365.3</ele>
        <time>2023-06-11T12:34:33Z</time>
      </trkpt>
      <trkpt lat="43.71291" lon="5.9872">
        <ele>365.3</ele>
        <time>2023-06-11T12:34:34Z</time>
      </trkpt>
      <trkpt lat="43.7129" lon="5.98721">
        <ele>365.3</ele>
        <time>2023-06-11T12:34:35Z</time>
      </trkpt>
      <trkpt lat="43.71289" lon="5.98723">
        <ele>365.4</ele>
        <time>2023-06-11T12:34:36Z</time>
      </trkpt>
      <trkpt lat="43.71288" lon="5.98724">
        <ele>365.4</ele>
        <time>2023-06-11T12:34:37Z</time>
      </trkpt>
      <trkpt lat="43.71287" lon="5.98726">
        <ele>365.4</ele>
        <time>2023-06-11T12:34:38Z</time>
      </trkpt>
      <trkpt lat="43.71286" lon="5.98727">
        <ele>365.4</ele>
        <time>2023-06-11T12:34:39Z</time>
      </trkpt>
      <trkpt lat="43.71284" lon="5.98729">
        <ele>365.4</ele>
        <time>2023-06-11T12:34:40Z</time>
      </trkpt>
      <trkpt lat="43.71283" lon="5.9873">
        <ele>365.4</ele>
        <time>2023-06-11T12:34:41Z</time>
      </trkpt>
      <trkpt lat="43.71282" lon="5.98731">
        <ele>365.4</ele>
        <time>2023-06-11T12:34:42Z</time>
      </trkpt>
      <trkpt lat="43.71281" lon="5.98733">
        <ele>365.4</ele>
        <time>2023-06-11T12:34:43Z</time>
      </trkpt>
      <trkpt lat="43.7128" lon="5.98734">
        <ele>365.3</ele>
        <time>2023-06-11T12:34:44Z</time>
      </trkpt>
      <trkpt lat="43.71278" lon="5.98736">
        <ele>365.3</ele>
        <time>2023-06-11T12:34:45Z</time>
      </trkpt>
      <trkpt lat="43.71277" lon="5.98737">
        <ele>365.3</ele>
        <time>2023-06-11T12:34:46Z</time>
      </trkpt>
      <trkpt lat="43.71276" lon="5.98739">
        <ele>365.3</ele>
        <time>2023-06-11T12:34:47Z</time>
      </trkpt>
      <trkpt lat="43.71275" lon="5.9874">
        <ele>365.3</ele>
        <time>2023-06-11T12:34:48Z</time>
      </trkpt>
      <trkpt lat="43.71274" lon="5.98741">
        <ele>365.3</ele>
        <time>2023-06-11T12:34:49Z</time>
      </trkpt>
      <trkpt lat="43.71273" lon="5.98743">
        <ele>365.3</ele>
        <time>2023-06-11T12:34:50Z</time>
      </trkpt>
      <trkpt lat="43.71272" lon="5.98744">
        <ele>365.3</ele>
        <time>2023-06-11T12:34:51Z</time>
      </trkpt>
      <trkpt lat="43.71271" lon="5.98745">
        <ele>365.3</ele>
        <time>2023-06-11T12:34:52Z</time>
      </trkpt>
      <trkpt lat="43.7127" lon="5.98747">
        <ele>365.3</ele>
        <time>2023-06-11T12:34:53Z</time>
      </trkpt>
      <trkpt lat="43.71269" lon="5.98748">
        <ele>365.3</ele>
        <time>2023-06-11T12:34:54Z</time>
      </trkpt>
      <trkpt lat="43.71268" lon="5.98749">
        <ele>365.2</ele>
        <time>2023-06-11T12:34:55Z</time>
      </trkpt>
      <trkpt lat="43.71267" lon="5.98751">
        <ele>365.2</ele>
        <time>2023-06-11T12:34:56Z</time>
      </trkpt>
      <trkpt lat="43.71265" lon="5.98752">
        <ele>365.1</ele>
        <time>2023-06-11T12:34:57Z</time>
      </trkpt>
      <trkpt lat="43.71264" lon="5.98753">
        <ele>365</ele>
        <time>2023-06-11T12:34:58Z</time>
      </trkpt>
      <trkpt lat="43.71263" lon="5.98755">
        <ele>365</ele>
        <time>2023-06-11T12:34:59Z</time>
      </trkpt>
      <trkpt lat="43.71262" lon="5.98756">
        <ele>365</ele>
        <time>2023-06-11T12:35:00Z</time>
      </trkpt>
      <trkpt lat="43.71261" lon="5.98758">
        <ele>365</ele>
        <time>2023-06-11T12:35:01Z</time>
      </trkpt>
      <trkpt lat="43.7126" lon="5.98759">
        <ele>365</ele>
        <time>2023-06-11T12:35:02Z</time>
      </trkpt>
      <trkpt lat="43.71259" lon="5.98761">
        <ele>365</ele>
        <time>2023-06-11T12:35:03Z</time>
      </trkpt>
      <trkpt lat="43.71258" lon="5.98762">
        <ele>365.1</ele>
        <time>2023-06-11T12:35:04Z</time>
      </trkpt>
      <trkpt lat="43.71257" lon="5.98764">
        <ele>365</ele>
        <time>2023-06-11T12:35:05Z</time>
      </trkpt>
      <trkpt lat="43.71256" lon="5.98765">
        <ele>365</ele>
        <time>2023-06-11T12:35:06Z</time>
      </trkpt>
      <trkpt lat="43.71255" lon="5.98767">
        <ele>365</ele>
        <time>2023-06-11T12:35:07Z</time>
      </trkpt>
      <trkpt lat="43.71254" lon="5.98768">
        <ele>365</ele>
        <time>2023-06-11T12:35:08Z</time>
      </trkpt>
      <trkpt lat="43.71253" lon="5.9877">
        <ele>365</ele>
        <time>2023-06-11T12:35:09Z</time>
      </trkpt>
      <trkpt lat="43.71251" lon="5.98771">
        <ele>365</ele>
        <time>2023-06-11T12:35:10Z</time>
      </trkpt>
      <trkpt lat="43.7125" lon="5.98773">
        <ele>365</ele>
        <time>2023-06-11T12:35:11Z</time>
      </trkpt>
      <trkpt lat="43.71249" lon="5.98774">
        <ele>365</ele>
        <time>2023-06-11T12:35:12Z</time>
      </trkpt>
      <trkpt lat="43.71248" lon="5.98776">
        <ele>365</ele>
        <time>2023-06-11T12:35:13Z</time>
      </trkpt>
      <trkpt lat="43.71247" lon="5.98777">
        <ele>365</ele>
        <time>2023-06-11T12:35:14Z</time>
      </trkpt>
      <trkpt lat="43.71246" lon="5.98779">
        <ele>365</ele>
        <time>2023-06-11T12:35:15Z</time>
      </trkpt>
      <trkpt lat="43.71245" lon="5.98781">
        <ele>365</ele>
        <time>2023-06-11T12:35:16Z</time>
      </trkpt>
      <trkpt lat="43.71244" lon="5.98782">
        <ele>365</ele>
        <time>2023-06-11T12:35:17Z</time>
      </trkpt>
      <trkpt lat="43.71243" lon="5.98784">
        <ele>365</ele>
        <time>2023-06-11T12:35:18Z</time>
      </trkpt>
      <trkpt lat="43.71242" lon="5.98785">
        <ele>365</ele>
        <time>2023-06-11T12:35:19Z</time>
      </trkpt>
      <trkpt lat="43.71241" lon="5.98787">
        <ele>365</ele>
        <time>2023-06-11T12:35:20Z</time>
      </trkpt>
      <trkpt lat="43.7124" lon="5.98788">
        <ele>365</ele>
        <time>2023-06-11T12:35:21Z</time>
      </trkpt>
      <trkpt lat="43.71239" lon="5.9879">
        <ele>364.9</ele>
        <time>2023-06-11T12:35:22Z</time>
      </trkpt>
      <trkpt lat="43.71238" lon="5.98791">
        <ele>364.9</ele>
        <time>2023-06-11T12:35:23Z</time>
      </trkpt>
      <trkpt lat="43.71237" lon="5.98793">
        <ele>365</ele>
        <time>2023-06-11T12:35:24Z</time>
      </trkpt>
      <trkpt lat="43.71236" lon="5.98795">
        <ele>365</ele>
        <time>2023-06-11T12:35:25Z</time>
      </trkpt>
      <trkpt lat="43.71235" lon="5.98796">
        <ele>365</ele>
        <time>2023-06-11T12:35:26Z</time>
      </trkpt>
      <trkpt lat="43.71234" lon="5.98798">
        <ele>365</ele>
        <time>2023-06-11T12:35:27Z</time>
      </trkpt>
      <trkpt lat="43.71233" lon="5.98799">
        <ele>365</ele>
        <time>2023-06-11T12:35:28Z</time>
      </trkpt>
      <trkpt lat="43.71232" lon="5.98801">
        <ele>365</ele>
        <time>2023-06-11T12:35:29Z</time>
      </trkpt>
      <trkpt lat="43.71231" lon="5.98802">
        <ele>365</ele>
        <time>2023-06-11T12:35:30Z</time>
      </trkpt>
      <trkpt lat="43.7123" lon="5.98804">
        <ele>365</ele>
        <time>2023-06-11T12:35:31Z</time>
      </trkpt>
      <trkpt lat="43.71229" lon="5.98806">
        <ele>364.9</ele>
        <time>2023-06-11T12:35:32Z</time>
      </trkpt>
      <trkpt lat="43.71228" lon="5.98807">
        <ele>364.9</ele>
        <time>2023-06-11T12:35:33Z</time>
      </trkpt>
      <trkpt lat="43.71227" lon="5.98809">
        <ele>364.9</ele>
        <time>2023-06-11T12:35:34Z</time>
      </trkpt>
      <trkpt lat="43.71227" lon="5.98811">
        <ele>364.8</ele>
        <time>2023-06-11T12:35:35Z</time>
      </trkpt>
      <trkpt lat="43.71226" lon="5.98813">
        <ele>364.8</ele>
        <time>2023-06-11T12:35:36Z</time>
      </trkpt>
      <trkpt lat="43.71225" lon="5.98814">
        <ele>364.9</ele>
        <time>2023-06-11T12:35:37Z</time>
      </trkpt>
      <trkpt lat="43.71224" lon="5.98816">
        <ele>364.9</ele>
        <time>2023-06-11T12:35:38Z</time>
      </trkpt>
      <trkpt lat="43.71223" lon="5.98818">
        <ele>364.9</ele>
        <time>2023-06-11T12:35:39Z</time>
      </trkpt>
      <trkpt lat="43.71222" lon="5.9882">
        <ele>364.8</ele>
        <time>2023-06-11T12:35:40Z</time>
      </trkpt>
      <trkpt lat="43.71222" lon="5.98821">
        <ele>364.8</ele>
        <time>2023-06-11T12:35:41Z</time>
      </trkpt>
      <trkpt lat="43.71221" lon="5.98823">
        <ele>364.9</ele>
        <time>2023-06-11T12:35:42Z</time>
      </trkpt>
      <trkpt lat="43.7122" lon="5.98825">
        <ele>364.9</ele>
        <time>2023-06-11T12:35:43Z</time>
      </trkpt>
      <trkpt lat="43.71219" lon="5.98826">
        <ele>364.9</ele>
        <time>2023-06-11T12:35:44Z</time>
      </trkpt>
      <trkpt lat="43.71218" lon="5.98828">
        <ele>364.9</ele>
        <time>2023-06-11T12:35:45Z</time>
      </trkpt>
      <trkpt lat="43.71218" lon="5.98829">
        <ele>364.9</ele>
        <time>2023-06-11T12:35:46Z</time>
      </trkpt>
      <trkpt lat="43.71217" lon="5.98831">
        <ele>365</ele>
        <time>2023-06-11T12:35:47Z</time>
      </trkpt>
      <trkpt lat="43.71216" lon="5.98833">
        <ele>365.2</ele>
        <time>2023-06-11T12:35:48Z</time>
      </trkpt>
      <trkpt lat="43.71215" lon="5.98834">
        <ele>365.2</ele>
        <time>2023-06-11T12:35:49Z</time>
      </trkpt>
      <trkpt lat="43.71214" lon="5.98836">
        <ele>365.2</ele>
        <time>2023-06-11T12:35:50Z</time>
      </trkpt>
      <trkpt lat="43.71213" lon="5.98838">
        <ele>365.2</ele>
        <time>2023-06-11T12:35:51Z</time>
      </trkpt>
      <trkpt lat="43.71212" lon="5.9884">
        <ele>365.2</ele>
        <time>2023-06-11T12:35:52Z</time>
      </trkpt>
      <trkpt lat="43.71212" lon="5.98841">
        <ele>365.3</ele>
        <time>2023-06-11T12:35:53Z</time>
      </trkpt>
      <trkpt lat="43.71211" lon="5.98843">
        <ele>365.4</ele>
        <time>2023-06-11T12:35:54Z</time>
      </trkpt>
      <trkpt lat="43.7121" lon="5.98845">
        <ele>365.5</ele>
        <time>2023-06-11T12:35:55Z</time>
      </trkpt>
      <trkpt lat="43.7121" lon="5.98846">
        <ele>365.6</ele>
        <time>2023-06-11T12:35:56Z</time>
      </trkpt>
      <trkpt lat="43.71209" lon="5.98848">
        <ele>365.6</ele>
        <time>2023-06-11T12:35:57Z</time>
      </trkpt>
      <trkpt lat="43.71208" lon="5.9885">
        <ele>365.6</ele>
        <time>2023-06-11T12:35:58Z</time>
      </trkpt>
      <trkpt lat="43.71208" lon="5.98852">
        <ele>365.6</ele>
        <time>2023-06-11T12:35:59Z</time>
      </trkpt>
      <trkpt lat="43.71207" lon="5.98854">
        <ele>365.6</ele>
        <time>2023-06-11T12:36:00Z</time>
      </trkpt>
      <trkpt lat="43.71206" lon="5.98855">
        <ele>365.5</ele>
        <time>2023-06-11T12:36:01Z</time>
      </trkpt>
      <trkpt lat="43.71206" lon="5.98857">
        <ele>365.5</ele>
        <time>2023-06-11T12:36:02Z</time>
      </trkpt>
      <trkpt lat="43.71205" lon="5.98859">
        <ele>365.5</ele>
        <time>2023-06-11T12:36:03Z</time>
      </trkpt>
      <trkpt lat="43.71205" lon="5.98861">
        <ele>365.5</ele>
        <time>2023-06-11T12:36:04Z</time>
      </trkpt>
      <trkpt lat="43.71204" lon="5.98863">
        <ele>365.4</ele>
        <time>2023-06-11T12:36:05Z</time>
      </trkpt>
      <trkpt lat="43.71204" lon="5.98865">
        <ele>365.4</ele>
        <time>2023-06-11T12:36:06Z</time>
      </trkpt>
      <trkpt lat="43.71203" lon="5.98867">
        <ele>365.3</ele>
        <time>2023-06-11T12:36:07Z</time>
      </trkpt>
      <trkpt lat="43.71202" lon="5.98868">
        <ele>365.3</ele>
        <time>2023-06-11T12:36:08Z</time>
      </trkpt>
      <trkpt lat="43.71202" lon="5.9887">
        <ele>365.3</ele>
        <time>2023-06-11T12:36:09Z</time>
      </trkpt>
      <trkpt lat="43.71201" lon="5.98872">
        <ele>365.3</ele>
        <time>2023-06-11T12:36:10Z</time>
      </trkpt>
      <trkpt lat="43.712" lon="5.98874">
        <ele>365.3</ele>
        <time>2023-06-11T12:36:11Z</time>
      </trkpt>
      <trkpt lat="43.712" lon="5.98876">
        <ele>365.3</ele>
        <time>2023-06-11T12:36:12Z</time>
      </trkpt>
      <trkpt lat="43.71199" lon="5.98878">
        <ele>365.3</ele>
        <time>2023-06-11T12:36:13Z</time>
      </trkpt>
      <trkpt lat="43.71198" lon="5.98879">
        <ele>365.4</ele>
        <time>2023-06-11T12:36:14Z</time>
      </trkpt>
      <trkpt lat="43.71198" lon="5.98881">
        <ele>365.3</ele>
        <time>2023-06-11T12:36:15Z</time>
      </trkpt>
      <trkpt lat="43.71197" lon="5.98883">
        <ele>365.4</ele>
        <time>2023-06-11T12:36:16Z</time>
      </trkpt>
      <trkpt lat="43.71197" lon="5.98885">
        <ele>365.4</ele>
        <time>2023-06-11T12:36:17Z</time>
      </trkpt>
      <trkpt lat="43.71196" lon="5.98886">
        <ele>365.4</ele>
        <time>2023-06-11T12:36:18Z</time>
      </trkpt>
      <trkpt lat="43.71195" lon="5.98888">
        <ele>365.3</ele>
        <time>2023-06-11T12:36:19Z</time>
      </trkpt>
      <trkpt lat="43.71195" lon="5.9889">
        <ele>365.3</ele>
        <time>2023-06-11T12:36:20Z</time>
      </trkpt>
      <trkpt lat="43.71194" lon="5.98892">
        <ele>365.4</ele>
        <time>2023-06-11T12:36:21Z</time>
      </trkpt>
      <trkpt lat="43.71194" lon="5.98893">
        <ele>365.4</ele>
        <time>2023-06-11T12:36:22Z</time>
      </trkpt>
      <trkpt lat="43.71193" lon="5.98895">
        <ele>365.4</ele>
        <time>2023-06-11T12:36:23Z</time>
      </trkpt>
      <trkpt lat="43.71193" lon="5.98897">
        <ele>365.5</ele>
        <time>2023-06-11T12:36:24Z</time>
      </trkpt>
      <trkpt lat="43.71192" lon="5.98899">
        <ele>365.5</ele>
        <time>2023-06-11T12:36:25Z</time>
      </trkpt>
      <trkpt lat="43.71192" lon="5.98901">
        <ele>365.5</ele>
        <time>2023-06-11T12:36:26Z</time>
      </trkpt>
      <trkpt lat="43.71191" lon="5.98902">
        <ele>365.5</ele>
        <time>2023-06-11T12:36:27Z</time>
      </trkpt>
      <trkpt lat="43.71191" lon="5.98904">
        <ele>365.5</ele>
        <time>2023-06-11T12:36:28Z</time>
      </trkpt>
      <trkpt lat="43.7119" lon="5.98906">
        <ele>365.5</ele>
        <time>2023-06-11T12:36:29Z</time>
      </trkpt>
      <trkpt lat="43.71189" lon="5.98908">
        <ele>365.5</ele>
        <time>2023-06-11T12:36:30Z</time>
      </trkpt>
      <trkpt lat="43.71189" lon="5.98909">
        <ele>365.5</ele>
        <time>2023-06-11T12:36:31Z</time>
      </trkpt>
      <trkpt lat="43.71189" lon="5.98911">
        <ele>365.5</ele>
        <time>2023-06-11T12:36:32Z</time>
      </trkpt>
      <trkpt lat="43.71188" lon="5.98913">
        <ele>365.5</ele>
        <time>2023-06-11T12:36:33Z</time>
      </trkpt>
      <trkpt lat="43.71188" lon="5.98915">
        <ele>365.5</ele>
        <time>2023-06-11T12:36:34Z</time>
      </trkpt>
      <trkpt lat="43.71187" lon="5.98917">
        <ele>365.4</ele>
        <time>2023-06-11T12:36:35Z</time>
      </trkpt>
      <trkpt lat="43.71186" lon="5.98919">
        <ele>365.3</ele>
        <time>2023-06-11T12:36:36Z</time>
      </trkpt>
      <trkpt lat="43.71186" lon="5.98921">
        <ele>365.3</ele>
        <time>2023-06-11T12:36:37Z</time>
      </trkpt>
      <trkpt lat="43.71185" lon="5.98923">
        <ele>365.2</ele>
        <time>2023-06-11T12:36:38Z</time>
      </trkpt>
      <trkpt lat="43.71184" lon="5.98925">
        <ele>365.2</ele>
        <time>2023-06-11T12:36:39Z</time>
      </trkpt>
      <trkpt lat="43.71184" lon="5.98927">
        <ele>365.1</ele>
        <time>2023-06-11T12:36:40Z</time>
      </trkpt>
      <trkpt lat="43.71183" lon="5.98928">
        <ele>365.1</ele>
        <time>2023-06-11T12:36:41Z</time>
      </trkpt>
      <trkpt lat="43.71183" lon="5.9893">
        <ele>365</ele>
        <time>2023-06-11T12:36:42Z</time>
      </trkpt>
      <trkpt lat="43.71182" lon="5.98932">
        <ele>365</ele>
        <time>2023-06-11T12:36:43Z</time>
      </trkpt>
      <trkpt lat="43.71181" lon="5.98934">
        <ele>365.1</ele>
        <time>2023-06-11T12:36:44Z</time>
      </trkpt>
      <trkpt lat="43.71181" lon="5.98936">
        <ele>365</ele>
        <time>2023-06-11T12:36:45Z</time>
      </trkpt>
      <trkpt lat="43.7118" lon="5.98938">
        <ele>365</ele>
        <time>2023-06-11T12:36:46Z</time>
      </trkpt>
      <trkpt lat="43.7118" lon="5.9894">
        <ele>365</ele>
        <time>2023-06-11T12:36:47Z</time>
      </trkpt>
      <trkpt lat="43.71179" lon="5.98942">
        <ele>365.1</ele>
        <time>2023-06-11T12:36:48Z</time>
      </trkpt>
      <trkpt lat="43.71179" lon="5.98944">
        <ele>365.2</ele>
        <time>2023-06-11T12:36:49Z</time>
      </trkpt>
      <trkpt lat="43.71178" lon="5.98945">
        <ele>365.3</ele>
        <time>2023-06-11T12:36:50Z</time>
      </trkpt>
      <trkpt lat="43.71178" lon="5.98947">
        <ele>365.3</ele>
        <time>2023-06-11T12:36:51Z</time>
      </trkpt>
      <trkpt lat="43.71177" lon="5.98949">
        <ele>365.3</ele>
        <time>2023-06-11T12:36:52Z</time>
      </trkpt>
      <trkpt lat="43.71177" lon="5.98951">
        <ele>365.3</ele>
        <time>2023-06-11T12:36:53Z</time>
      </trkpt>
      <trkpt lat="43.71176" lon="5.98953">
        <ele>365.2</ele>
        <time>2023-06-11T12:36:54Z</time>
      </trkpt>
      <trkpt lat="43.71176" lon="5.98955">
        <ele>365.2</ele>
        <time>2023-06-11T12:36:55Z</time>
      </trkpt>
      <trkpt lat="43.71175" lon="5.98956">
        <ele>365.2</ele>
        <time>2023-06-11T12:36:56Z</time>
      </trkpt>
      <trkpt lat="43.71175" lon="5.98958">
        <ele>365.2</ele>
        <time>2023-06-11T12:36:57Z</time>
      </trkpt>
      <trkpt lat="43.71175" lon="5.9896">
        <ele>365.3</ele>
        <time>2023-06-11T12:36:58Z</time>
      </trkpt>
      <trkpt lat="43.71174" lon="5.98962">
        <ele>365.3</ele>
        <time>2023-06-11T12:36:59Z</time>
      </trkpt>
      <trkpt lat="43.71173" lon="5.98964">
        <ele>365.3</ele>
        <time>2023-06-11T12:37:00Z</time>
      </trkpt>
      <trkpt lat="43.71173" lon="5.98966">
        <ele>365.3</ele>
        <time>2023-06-11T12:37:01Z</time>
      </trkpt>
      <trkpt lat="43.71172" lon="5.98968">
        <ele>365.3</ele>
        <time>2023-06-11T12:37:02Z</time>
      </trkpt>
      <trkpt lat="43.71172" lon="5.9897">
        <ele>365.2</ele>
        <time>2023-06-11T12:37:03Z</time>
      </trkpt>
      <trkpt lat="43.71172" lon="5.98971">
        <ele>365.1</ele>
        <time>2023-06-11T12:37:04Z</time>
      </trkpt>
      <trkpt lat="43.71171" lon="5.98973">
        <ele>365</ele>
        <time>2023-06-11T12:37:05Z</time>
      </trkpt>
      <trkpt lat="43.71171" lon="5.98975">
        <ele>365.1</ele>
        <time>2023-06-11T12:37:06Z</time>
      </trkpt>
      <trkpt lat="43.7117" lon="5.98977">
        <ele>364.9</ele>
        <time>2023-06-11T12:37:07Z</time>
      </trkpt>
      <trkpt lat="43.7117" lon="5.98979">
        <ele>365</ele>
        <time>2023-06-11T12:37:08Z</time>
      </trkpt>
      <trkpt lat="43.71169" lon="5.98981">
        <ele>365</ele>
        <time>2023-06-11T12:37:09Z</time>
      </trkpt>
      <trkpt lat="43.71169" lon="5.98983">
        <ele>365</ele>
        <time>2023-06-11T12:37:10Z</time>
      </trkpt>
      <trkpt lat="43.71168" lon="5.98985">
        <ele>365.1</ele>
        <time>2023-06-11T12:37:11Z</time>
      </trkpt>
      <trkpt lat="43.71168" lon="5.98986">
        <ele>365.2</ele>
        <time>2023-06-11T12:37:12Z</time>
      </trkpt>
      <trkpt lat="43.71167" lon="5.98988">
        <ele>365.2</ele>
        <time>2023-06-11T12:37:13Z</time>
      </trkpt>
      <trkpt lat="43.71167" lon="5.9899">
        <ele>365.2</ele>
        <time>2023-06-11T12:37:14Z</time>
      </trkpt>
      <trkpt lat="43.71167" lon="5.98992">
        <ele>365.2</ele>
        <time>2023-06-11T12:37:15Z</time>
      </trkpt>
      <trkpt lat="43.71166" lon="5.98994">
        <ele>365.2</ele>
        <time>2023-06-11T12:37:16Z</time>
      </trkpt>
      <trkpt lat="43.71166" lon="5.98996">
        <ele>365.2</ele>
        <time>2023-06-11T12:37:17Z</time>
      </trkpt>
      <trkpt lat="43.71165" lon="5.98998">
        <ele>365.2</ele>
        <time>2023-06-11T12:37:18Z</time>
      </trkpt>
      <trkpt lat="43.71165" lon="5.99">
        <ele>365.2</ele>
        <time>2023-06-11T12:37:19Z</time>
      </trkpt>
      <trkpt lat="43.71164" lon="5.99002">
        <ele>365.2</ele>
        <time>2023-06-11T12:37:20Z</time>
      </trkpt>
      <trkpt lat="43.71164" lon="5.99004">
        <ele>365.2</ele>
        <time>2023-06-11T12:37:21Z</time>
      </trkpt>
      <trkpt lat="43.71164" lon="5.99006">
        <ele>365.2</ele>
        <time>2023-06-11T12:37:22Z</time>
      </trkpt>
      <trkpt lat="43.71163" lon="5.99007">
        <ele>365.2</ele>
        <time>2023-06-11T12:37:23Z</time>
      </trkpt>
      <trkpt lat="43.71163" lon="5.99009">
        <ele>365.2</ele>
        <time>2023-06-11T12:37:24Z</time>
      </trkpt>
      <trkpt lat="43.71162" lon="5.99011">
        <ele>365.2</ele>
        <time>2023-06-11T12:37:25Z</time>
      </trkpt>
      <trkpt lat="43.71162" lon="5.99013">
        <ele>365.3</ele>
        <time>2023-06-11T12:37:26Z</time>
      </trkpt>
      <trkpt lat="43.71161" lon="5.99015">
        <ele>365.4</ele>
        <time>2023-06-11T12:37:27Z</time>
      </trkpt>
      <trkpt lat="43.71161" lon="5.99017">
        <ele>365.5</ele>
        <time>2023-06-11T12:37:28Z</time>
      </trkpt>
      <trkpt lat="43.71161" lon="5.99019">
        <ele>365.4</ele>
        <time>2023-06-11T12:37:29Z</time>
      </trkpt>
      <trkpt lat="43.7116" lon="5.99021">
        <ele>365.4</ele>
        <time>2023-06-11T12:37:30Z</time>
      </trkpt>
      <trkpt lat="43.7116" lon="5.99023">
        <ele>365.3</ele>
        <time>2023-06-11T12:37:31Z</time>
      </trkpt>
      <trkpt lat="43.7116" lon="5.99025">
        <ele>365.3</ele>
        <time>2023-06-11T12:37:32Z</time>
      </trkpt>
      <trkpt lat="43.71159" lon="5.99027">
        <ele>365.2</ele>
        <time>2023-06-11T12:37:33Z</time>
      </trkpt>
      <trkpt lat="43.71159" lon="5.99028">
        <ele>365.2</ele>
        <time>2023-06-11T12:37:34Z</time>
      </trkpt>
      <trkpt lat="43.71159" lon="5.9903">
        <ele>365.2</ele>
        <time>2023-06-11T12:37:35Z</time>
      </trkpt>
      <trkpt lat="43.71158" lon="5.99032">
        <ele>365.2</ele>
        <time>2023-06-11T12:37:36Z</time>
      </trkpt>
      <trkpt lat="43.71158" lon="5.99034">
        <ele>365.3</ele>
        <time>2023-06-11T12:37:37Z</time>
      </trkpt>
      <trkpt lat="43.71158" lon="5.99036">
        <ele>365.3</ele>
        <time>2023-06-11T12:37:38Z</time>
      </trkpt>
      <trkpt lat="43.71158" lon="5.99038">
        <ele>365.4</ele>
        <time>2023-06-11T12:37:39Z</time>
      </trkpt>
      <trkpt lat="43.71158" lon="5.9904">
        <ele>365.4</ele>
        <time>2023-06-11T12:37:40Z</time>
      </trkpt>
      <trkpt lat="43.71157" lon="5.99042">
        <ele>365.4</ele>
        <time>2023-06-11T12:37:41Z</time>
      </trkpt>
      <trkpt lat="43.71157" lon="5.99044">
        <ele>365.4</ele>
        <time>2023-06-11T12:37:42Z</time>
      </trkpt>
      <trkpt lat="43.71157" lon="5.99046">
        <ele>365.5</ele>
        <time>2023-06-11T12:37:43Z</time>
      </trkpt>
      <trkpt lat="43.71157" lon="5.99048">
        <ele>365.5</ele>
        <time>2023-06-11T12:37:44Z</time>
      </trkpt>
      <trkpt lat="43.71156" lon="5.9905">
        <ele>365.5</ele>
        <time>2023-06-11T12:37:45Z</time>
      </trkpt>
      <trkpt lat="43.71156" lon="5.99052">
        <ele>365.4</ele>
        <time>2023-06-11T12:37:46Z</time>
      </trkpt>
      <trkpt lat="43.71156" lon="5.99054">
        <ele>365.4</ele>
        <time>2023-06-11T12:37:47Z</time>
      </trkpt>
      <trkpt lat="43.71156" lon="5.99056">
        <ele>365.4</ele>
        <time>2023-06-11T12:37:48Z</time>
      </trkpt>
      <trkpt lat="43.71156" lon="5.99058">
        <ele>365.4</ele>
        <time>2023-06-11T12:37:49Z</time>
      </trkpt>
      <trkpt lat="43.71155" lon="5.9906">
        <ele>365.4</ele>
        <time>2023-06-11T12:37:50Z</time>
      </trkpt>
      <trkpt lat="43.71155" lon="5.99062">
        <ele>365.4</ele>
        <time>2023-06-11T12:37:51Z</time>
      </trkpt>
      <trkpt lat="43.71155" lon="5.99064">
        <ele>365.4</ele>
        <time>2023-06-11T12:37:52Z</time>
      </trkpt>
      <trkpt lat="43.71155" lon="5.99065">
        <ele>365.4</ele>
        <time>2023-06-11T12:37:53Z</time>
      </trkpt>
      <trkpt lat="43.71154" lon="5.99067">
        <ele>365.4</ele>
        <time>2023-06-11T12:37:54Z</time>
      </trkpt>
      <trkpt lat="43.71154" lon="5.99069">
        <ele>365.3</ele>
        <time>2023-06-11T12:37:55Z</time>
      </trkpt>
      <trkpt lat="43.71154" lon="5.99071">
        <ele>365.3</ele>
        <time>2023-06-11T12:37:56Z</time>
      </trkpt>
      <trkpt lat="43.71154" lon="5.99073">
        <ele>365.3</ele>
        <time>2023-06-11T12:37:57Z</time>
      </trkpt>
      <trkpt lat="43.71153" lon="5.99075">
        <ele>365.3</ele>
        <time>2023-06-11T12:37:58Z</time>
      </trkpt>
      <trkpt lat="43.71153" lon="5.99077">
        <ele>365.2</ele>
        <time>2023-06-11T12:37:59Z</time>
      </trkpt>
      <trkpt lat="43.71153" lon="5.99079">
        <ele>365.2</ele>
        <time>2023-06-11T12:38:00Z</time>
      </trkpt>
      <trkpt lat="43.71152" lon="5.99081">
        <ele>365.2</ele>
        <time>2023-06-11T12:38:01Z</time>
      </trkpt>
      <trkpt lat="43.71152" lon="5.99083">
        <ele>365.3</ele>
        <time>2023-06-11T12:38:02Z</time>
      </trkpt>
      <trkpt lat="43.71152" lon="5.99085">
        <ele>365.4</ele>
        <time>2023-06-11T12:38:03Z</time>
      </trkpt>
      <trkpt lat="43.71152" lon="5.99087">
        <ele>365.4</ele>
        <time>2023-06-11T12:38:04Z</time>
      </trkpt>
      <trkpt lat="43.71151" lon="5.99089">
        <ele>365.4</ele>
        <time>2023-06-11T12:38:05Z</time>
      </trkpt>
      <trkpt lat="43.71151" lon="5.9909">
        <ele>365.4</ele>
        <time>2023-06-11T12:38:06Z</time>
      </trkpt>
      <trkpt lat="43.71151" lon="5.99092">
        <ele>365.4</ele>
        <time>2023-06-11T12:38:07Z</time>
      </trkpt>
      <trkpt lat="43.7115" lon="5.99094">
        <ele>365.4</ele>
        <time>2023-06-11T12:38:08Z</time>
      </trkpt>
      <trkpt lat="43.7115" lon="5.99096">
        <ele>365.4</ele>
        <time>2023-06-11T12:38:09Z</time>
      </trkpt>
      <trkpt lat="43.7115" lon="5.99098">
        <ele>365.4</ele>
        <time>2023-06-11T12:38:10Z</time>
      </trkpt>
      <trkpt lat="43.71149" lon="5.991">
        <ele>365.3</ele>
        <time>2023-06-11T12:38:11Z</time>
      </trkpt>
      <trkpt lat="43.71149" lon="5.99102">
        <ele>365.3</ele>
        <time>2023-06-11T12:38:12Z</time>
      </trkpt>
      <trkpt lat="43.71149" lon="5.99104">
        <ele>365.4</ele>
        <time>2023-06-11T12:38:13Z</time>
      </trkpt>
      <trkpt lat="43.71148" lon="5.99106">
        <ele>365.4</ele>
        <time>2023-06-11T12:38:14Z</time>
      </trkpt>
      <trkpt lat="43.71148" lon="5.99108">
        <ele>365.4</ele>
        <time>2023-06-11T12:38:15Z</time>
      </trkpt>
      <trkpt lat="43.71148" lon="5.9911">
        <ele>365.4</ele>
        <time>2023-06-11T12:38:16Z</time>
      </trkpt>
      <trkpt lat="43.71147" lon="5.99111">
        <ele>365.3</ele>
        <time>2023-06-11T12:38:17Z</time>
      </trkpt>
      <trkpt lat="43.71147" lon="5.99113">
        <ele>365.3</ele>
        <time>2023-06-11T12:38:18Z</time>
      </trkpt>
      <trkpt lat="43.71147" lon="5.99115">
        <ele>365.2</ele>
        <time>2023-06-11T12:38:19Z</time>
      </trkpt>
      <trkpt lat="43.71147" lon="5.99117">
        <ele>365.2</ele>
        <time>2023-06-11T12:38:20Z</time>
      </trkpt>
      <trkpt lat="43.71146" lon="5.99119">
        <ele>365.1</ele>
        <time>2023-06-11T12:38:21Z</time>
      </trkpt>
      <trkpt lat="43.71146" lon="5.99121">
        <ele>365.1</ele>
        <time>2023-06-11T12:38:22Z</time>
      </trkpt>
      <trkpt lat="43.71146" lon="5.99123">
        <ele>365.1</ele>
        <time>2023-06-11T12:38:23Z</time>
      </trkpt>
      <trkpt lat="43.71146" lon="5.99125">
        <ele>365.1</ele>
        <time>2023-06-11T12:38:24Z</time>
      </trkpt>
      <trkpt lat="43.71145" lon="5.99126">
        <ele>365.1</ele>
        <time>2023-06-11T12:38:25Z</time>
      </trkpt>
      <trkpt lat="43.71145" lon="5.99128">
        <ele>365</ele>
        <time>2023-06-11T12:38:26Z</time>
      </trkpt>
      <trkpt lat="43.71145" lon="5.9913">
        <ele>365</ele>
        <time>2023-06-11T12:38:27Z</time>
      </trkpt>
      <trkpt lat="43.71144" lon="5.99132">
        <ele>365</ele>
        <time>2023-06-11T12:38:28Z</time>
      </trkpt>
      <trkpt lat="43.71144" lon="5.99134">
        <ele>365.1</ele>
        <time>2023-06-11T12:38:29Z</time>
      </trkpt>
      <trkpt lat="43.71144" lon="5.99136">
        <ele>365.1</ele>
        <time>2023-06-11T12:38:30Z</time>
      </trkpt>
      <trkpt lat="43.71144" lon="5.99138">
        <ele>365</ele>
        <time>2023-06-11T12:38:31Z</time>
      </trkpt>
      <trkpt lat="43.71144" lon="5.9914">
        <ele>365</ele>
        <time>2023-06-11T12:38:32Z</time>
      </trkpt>
      <trkpt lat="43.71144" lon="5.99142">
        <ele>365</ele>
        <time>2023-06-11T12:38:33Z</time>
      </trkpt>
      <trkpt lat="43.71143" lon="5.99144">
        <ele>365</ele>
        <time>2023-06-11T12:38:34Z</time>
      </trkpt>
      <trkpt lat="43.71143" lon="5.99146">
        <ele>365</ele>
        <time>2023-06-11T12:38:35Z</time>
      </trkpt>
      <trkpt lat="43.71143" lon="5.99148">
        <ele>365</ele>
        <time>2023-06-11T12:38:36Z</time>
      </trkpt>
      <trkpt lat="43.71143" lon="5.99149">
        <ele>365</ele>
        <time>2023-06-11T12:38:37Z</time>
      </trkpt>
      <trkpt lat="43.71143" lon="5.99151">
        <ele>365.1</ele>
        <time>2023-06-11T12:38:38Z</time>
      </trkpt>
      <trkpt lat="43.71142" lon="5.99153">
        <ele>365.1</ele>
        <time>2023-06-11T12:38:39Z</time>
      </trkpt>
      <trkpt lat="43.71142" lon="5.99155">
        <ele>365.1</ele>
        <time>2023-06-11T12:38:40Z</time>
      </trkpt>
      <trkpt lat="43.71142" lon="5.99157">
        <ele>365.1</ele>
        <time>2023-06-11T12:38:41Z</time>
      </trkpt>
      <trkpt lat="43.71142" lon="5.99159">
        <ele>365.1</ele>
        <time>2023-06-11T12:38:42Z</time>
      </trkpt>
      <trkpt lat="43.71142" lon="5.99161">
        <ele>365.1</ele>
        <time>2023-06-11T12:38:43Z</time>
      </trkpt>
      <trkpt lat="43.71142" lon="5.99163">
        <ele>365.1</ele>
        <time>2023-06-11T12:38:44Z</time>
      </trkpt>
      <trkpt lat="43.71141" lon="5.99165">
        <ele>365.1</ele>
        <time>2023-06-11T12:38:45Z</time>
      </trkpt>
      <trkpt lat="43.71141" lon="5.99167">
        <ele>365.1</ele>
        <time>2023-06-11T12:38:46Z</time>
      </trkpt>
      <trkpt lat="43.71141" lon="5.99168">
        <ele>365.1</ele>
        <time>2023-06-11T12:38:47Z</time>
      </trkpt>
      <trkpt lat="43.71141" lon="5.9917">
        <ele>365.1</ele>
        <time>2023-06-11T12:38:48Z</time>
      </trkpt>
      <trkpt lat="43.71141" lon="5.99172">
        <ele>365.1</ele>
        <time>2023-06-11T12:38:49Z</time>
      </trkpt>
      <trkpt lat="43.7114" lon="5.99174">
        <ele>365.1</ele>
        <time>2023-06-11T12:38:50Z</time>
      </trkpt>
      <trkpt lat="43.7114" lon="5.99176">
        <ele>365</ele>
        <time>2023-06-11T12:38:51Z</time>
      </trkpt>
      <trkpt lat="43.7114" lon="5.99178">
        <ele>365</ele>
        <time>2023-06-11T12:38:52Z</time>
      </trkpt>
      <trkpt lat="43.7114" lon="5.9918">
        <ele>365</ele>
        <time>2023-06-11T12:38:53Z</time>
      </trkpt>
      <trkpt lat="43.7114" lon="5.99182">
        <ele>365.1</ele>
        <time>2023-06-11T12:38:54Z</time>
      </trkpt>
      <trkpt lat="43.71139" lon="5.99184">
        <ele>365.1</ele>
        <time>2023-06-11T12:38:55Z</time>
      </trkpt>
      <trkpt lat="43.71139" lon="5.99186">
        <ele>365.1</ele>
        <time>2023-06-11T12:38:56Z</time>
      </trkpt>
      <trkpt lat="43.71139" lon="5.99188">
        <ele>365.1</ele>
        <time>2023-06-11T12:38:57Z</time>
      </trkpt>
      <trkpt lat="43.71139" lon="5.9919">
        <ele>365.1</ele>
        <time>2023-06-11T12:38:58Z</time>
      </trkpt>
      <trkpt lat="43.71139" lon="5.99192">
        <ele>365.1</ele>
        <time>2023-06-11T12:38:59Z</time>
      </trkpt>
      <trkpt lat="43.71139" lon="5.99194">
        <ele>365.1</ele>
        <time>2023-06-11T12:39:00Z</time>
      </trkpt>
      <trkpt lat="43.71139" lon="5.99196">
        <ele>365.1</ele>
        <time>2023-06-11T12:39:01Z</time>
      </trkpt>
      <trkpt lat="43.71138" lon="5.99197">
        <ele>365.1</ele>
        <time>2023-06-11T12:39:02Z</time>
      </trkpt>
      <trkpt lat="43.71138" lon="5.99199">
        <ele>365.1</ele>
        <time>2023-06-11T12:39:03Z</time>
      </trkpt>
      <trkpt lat="43.71138" lon="5.99201">
        <ele>365.2</ele>
        <time>2023-06-11T12:39:04Z</time>
      </trkpt>
      <trkpt lat="43.71138" lon="5.99203">
        <ele>365.3</ele>
        <time>2023-06-11T12:39:05Z</time>
      </trkpt>
      <trkpt lat="43.71137" lon="5.99205">
        <ele>365.3</ele>
        <time>2023-06-11T12:39:06Z</time>
      </trkpt>
      <trkpt lat="43.71137" lon="5.99207">
        <ele>365.3</ele>
        <time>2023-06-11T12:39:07Z</time>
      </trkpt>
      <trkpt lat="43.71136" lon="5.99209">
        <ele>365.3</ele>
        <time>2023-06-11T12:39:08Z</time>
      </trkpt>
      <trkpt lat="43.71136" lon="5.99211">
        <ele>365.3</ele>
        <time>2023-06-11T12:39:09Z</time>
      </trkpt>
      <trkpt lat="43.71136" lon="5.99213">
        <ele>365.3</ele>
        <time>2023-06-11T12:39:10Z</time>
      </trkpt>
      <trkpt lat="43.71136" lon="5.99215">
        <ele>365.2</ele>
        <time>2023-06-11T12:39:11Z</time>
      </trkpt>
      <trkpt lat="43.71135" lon="5.99217">
        <ele>365.2</ele>
        <time>2023-06-11T12:39:12Z</time>
      </trkpt>
      <trkpt lat="43.71135" lon="5.99219">
        <ele>365.3</ele>
        <time>2023-06-11T12:39:13Z</time>
      </trkpt>
      <trkpt lat="43.71134" lon="5.9922">
        <ele>365.3</ele>
        <time>2023-06-11T12:39:14Z</time>
      </trkpt>
      <trkpt lat="43.71134" lon="5.99222">
        <ele>365.2</ele>
        <time>2023-06-11T12:39:15Z</time>
      </trkpt>
      <trkpt lat="43.71133" lon="5.99224">
        <ele>365.2</ele>
        <time>2023-06-11T12:39:16Z</time>
      </trkpt>
      <trkpt lat="43.71133" lon="5.99226">
        <ele>365.2</ele>
        <time>2023-06-11T12:39:17Z</time>
      </trkpt>
      <trkpt lat="43.71132" lon="5.99228">
        <ele>365.2</ele>
        <time>2023-06-11T12:39:18Z</time>
      </trkpt>
      <trkpt lat="43.71131" lon="5.9923">
        <ele>365.2</ele>
        <time>2023-06-11T12:39:19Z</time>
      </trkpt>
      <trkpt lat="43.71131" lon="5.99232">
        <ele>365.1</ele>
        <time>2023-06-11T12:39:20Z</time>
      </trkpt>
      <trkpt lat="43.71131" lon="5.99234">
        <ele>365.1</ele>
        <time>2023-06-11T12:39:21Z</time>
      </trkpt>
      <trkpt lat="43.7113" lon="5.99236">
        <ele>365.1</ele>
        <time>2023-06-11T12:39:22Z</time>
      </trkpt>
      <trkpt lat="43.7113" lon="5.99238">
        <ele>365.1</ele>
        <time>2023-06-11T12:39:23Z</time>
      </trkpt>
      <trkpt lat="43.71129" lon="5.9924">
        <ele>365.1</ele>
        <time>2023-06-11T12:39:24Z</time>
      </trkpt>
      <trkpt lat="43.71129" lon="5.99242">
        <ele>365.1</ele>
        <time>2023-06-11T12:39:25Z</time>
      </trkpt>
      <trkpt lat="43.71129" lon="5.99244">
        <ele>365.2</ele>
        <time>2023-06-11T12:39:26Z</time>
      </trkpt>
      <trkpt lat="43.71128" lon="5.99245">
        <ele>365.2</ele>
        <time>2023-06-11T12:39:27Z</time>
      </trkpt>
      <trkpt lat="43.71128" lon="5.99248">
        <ele>365.2</ele>
        <time>2023-06-11T12:39:28Z</time>
      </trkpt>
      <trkpt lat="43.71127" lon="5.9925">
        <ele>365.3</ele>
        <time>2023-06-11T12:39:29Z</time>
      </trkpt>
      <trkpt lat="43.71127" lon="5.99251">
        <ele>365.3</ele>
        <time>2023-06-11T12:39:30Z</time>
      </trkpt>
      <trkpt lat="43.71126" lon="5.99254">
        <ele>365.3</ele>
        <time>2023-06-11T12:39:31Z</time>
      </trkpt>
      <trkpt lat="43.71126" lon="5.99256">
        <ele>365.4</ele>
        <time>2023-06-11T12:39:32Z</time>
      </trkpt>
      <trkpt lat="43.71125" lon="5.99257">
        <ele>365.4</ele>
        <time>2023-06-11T12:39:33Z</time>
      </trkpt>
      <trkpt lat="43.71125" lon="5.99259">
        <ele>365.5</ele>
        <time>2023-06-11T12:39:34Z</time>
      </trkpt>
      <trkpt lat="43.71124" lon="5.99261">
        <ele>365.5</ele>
        <time>2023-06-11T12:39:35Z</time>
      </trkpt>
      <trkpt lat="43.71124" lon="5.99263">
        <ele>365.4</ele>
        <time>2023-06-11T12:39:36Z</time>
      </trkpt>
      <trkpt lat="43.71124" lon="5.99265">
        <ele>365.4</ele>
        <time>2023-06-11T12:39:37Z</time>
      </trkpt>
      <trkpt lat="43.71123" lon="5.99267">
        <ele>365.4</ele>
        <time>2023-06-11T12:39:38Z</time>
      </trkpt>
      <trkpt lat="43.71123" lon="5.99269">
        <ele>365.3</ele>
        <time>2023-06-11T12:39:39Z</time>
      </trkpt>
      <trkpt lat="43.71122" lon="5.99271">
        <ele>365.3</ele>
        <time>2023-06-11T12:39:40Z</time>
      </trkpt>
      <trkpt lat="43.71122" lon="5.99273">
        <ele>365.3</ele>
        <time>2023-06-11T12:39:41Z</time>
      </trkpt>
      <trkpt lat="43.71121" lon="5.99275">
        <ele>365.4</ele>
        <time>2023-06-11T12:39:42Z</time>
      </trkpt>
      <trkpt lat="43.71121" lon="5.99277">
        <ele>365.3</ele>
        <time>2023-06-11T12:39:43Z</time>
      </trkpt>
      <trkpt lat="43.71121" lon="5.99279">
        <ele>365.4</ele>
        <time>2023-06-11T12:39:44Z</time>
      </trkpt>
      <trkpt lat="43.7112" lon="5.99281">
        <ele>365.4</ele>
        <time>2023-06-11T12:39:45Z</time>
      </trkpt>
      <trkpt lat="43.7112" lon="5.99283">
        <ele>365.4</ele>
        <time>2023-06-11T12:39:46Z</time>
      </trkpt>
      <trkpt lat="43.7112" lon="5.99285">
        <ele>365.4</ele>
        <time>2023-06-11T12:39:47Z</time>
      </trkpt>
      <trkpt lat="43.71119" lon="5.99287">
        <ele>365.4</ele>
        <time>2023-06-11T12:39:48Z</time>
      </trkpt>
      <trkpt lat="43.71119" lon="5.99289">
        <ele>365.5</ele>
        <time>2023-06-11T12:39:49Z</time>
      </trkpt>
      <trkpt lat="43.71119" lon="5.99291">
        <ele>365.5</ele>
        <time>2023-06-11T12:39:50Z</time>
      </trkpt>
      <trkpt lat="43.71118" lon="5.99293">
        <ele>365.4</ele>
        <time>2023-06-11T12:39:51Z</time>
      </trkpt>
      <trkpt lat="43.71118" lon="5.99295">
        <ele>365.4</ele>
        <time>2023-06-11T12:39:52Z</time>
      </trkpt>
      <trkpt lat="43.71118" lon="5.99297">
        <ele>365.4</ele>
        <time>2023-06-11T12:39:53Z</time>
      </trkpt>
      <trkpt lat="43.71118" lon="5.99299">
        <ele>365.3</ele>
        <time>2023-06-11T12:39:54Z</time>
      </trkpt>
      <trkpt lat="43.71118" lon="5.99301">
        <ele>365.3</ele>
        <time>2023-06-11T12:39:55Z</time>
      </trkpt>
      <trkpt lat="43.71118" lon="5.99303">
        <ele>365.3</ele>
        <time>2023-06-11T12:39:56Z</time>
      </trkpt>
      <trkpt lat="43.71117" lon="5.99305">
        <ele>365.2</ele>
        <time>2023-06-11T12:39:57Z</time>
      </trkpt>
      <trkpt lat="43.71117" lon="5.99307">
        <ele>365.2</ele>
        <time>2023-06-11T12:39:58Z</time>
      </trkpt>
      <trkpt lat="43.71117" lon="5.99309">
        <ele>365.2</ele>
        <time>2023-06-11T12:39:59Z</time>
      </trkpt>
      <trkpt lat="43.71117" lon="5.99311">
        <ele>365.2</ele>
        <time>2023-06-11T12:40:00Z</time>
      </trkpt>
      <trkpt lat="43.71117" lon="5.99312">
        <ele>365.2</ele>
        <time>2023-06-11T12:40:01Z</time>
      </trkpt>
      <trkpt lat="43.71117" lon="5.99314">
        <ele>365.2</ele>
        <time>2023-06-11T12:40:02Z</time>
      </trkpt>
      <trkpt lat="43.71117" lon="5.99316">
        <ele>365.1</ele>
        <time>2023-06-11T12:40:03Z</time>
      </trkpt>
      <trkpt lat="43.71117" lon="5.99318">
        <ele>365.1</ele>
        <time>2023-06-11T12:40:04Z</time>
      </trkpt>
      <trkpt lat="43.71116" lon="5.9932">
        <ele>365</ele>
        <time>2023-06-11T12:40:05Z</time>
      </trkpt>
      <trkpt lat="43.71116" lon="5.99322">
        <ele>365.1</ele>
        <time>2023-06-11T12:40:06Z</time>
      </trkpt>
      <trkpt lat="43.71116" lon="5.99324">
        <ele>365.1</ele>
        <time>2023-06-11T12:40:07Z</time>
      </trkpt>
      <trkpt lat="43.71116" lon="5.99325">
        <ele>365.1</ele>
        <time>2023-06-11T12:40:08Z</time>
      </trkpt>
      <trkpt lat="43.71116" lon="5.99327">
        <ele>365.1</ele>
        <time>2023-06-11T12:40:09Z</time>
      </trkpt>
      <trkpt lat="43.71115" lon="5.99329">
        <ele>365.1</ele>
        <time>2023-06-11T12:40:10Z</time>
      </trkpt>
      <trkpt lat="43.71115" lon="5.99331">
        <ele>365.1</ele>
        <time>2023-06-11T12:40:11Z</time>
      </trkpt>
      <trkpt lat="43.71115" lon="5.99333">
        <ele>365.1</ele>
        <time>2023-06-11T12:40:12Z</time>
      </trkpt>
      <trkpt lat="43.71115" lon="5.99335">
        <ele>365.1</ele>
        <time>2023-06-11T12:40:13Z</time>
      </trkpt>
      <trkpt lat="43.71115" lon="5.99337">
        <ele>365.1</ele>
        <time>2023-06-11T12:40:14Z</time>
      </trkpt>
      <trkpt lat="43.71115" lon="5.99339">
        <ele>365.1</ele>
        <time>2023-06-11T12:40:15Z</time>
      </trkpt>
      <trkpt lat="43.71115" lon="5.99341">
        <ele>365.1</ele>
        <time>2023-06-11T12:40:16Z</time>
      </trkpt>
      <trkpt lat="43.71115" lon="5.99343">
        <ele>365.1</ele>
        <time>2023-06-11T12:40:17Z</time>
      </trkpt>
      <trkpt lat="43.71115" lon="5.99344">
        <ele>365.2</ele>
        <time>2023-06-11T12:40:18Z</time>
      </trkpt>
      <trkpt lat="43.71115" lon="5.99346">
        <ele>365.2</ele>
        <time>2023-06-11T12:40:19Z</time>
      </trkpt>
      <trkpt lat="43.71114" lon="5.99348">
        <ele>365.1</ele>
        <time>2023-06-11T12:40:20Z</time>
      </trkpt>
      <trkpt lat="43.71114" lon="5.9935">
        <ele>365.1</ele>
        <time>2023-06-11T12:40:21Z</time>
      </trkpt>
      <trkpt lat="43.71114" lon="5.99352">
        <ele>365.1</ele>
        <time>2023-06-11T12:40:22Z</time>
      </trkpt>
      <trkpt lat="43.71114" lon="5.99353">
        <ele>365.1</ele>
        <time>2023-06-11T12:40:23Z</time>
      </trkpt>
      <trkpt lat="43.71114" lon="5.99355">
        <ele>365.3</ele>
        <time>2023-06-11T12:40:24Z</time>
      </trkpt>
      <trkpt lat="43.71114" lon="5.99357">
        <ele>365.3</ele>
        <time>2023-06-11T12:40:25Z</time>
      </trkpt>
      <trkpt lat="43.71114" lon="5.99359">
        <ele>365.4</ele>
        <time>2023-06-11T12:40:26Z</time>
      </trkpt>
      <trkpt lat="43.71114" lon="5.99361">
        <ele>365.4</ele>
        <time>2023-06-11T12:40:27Z</time>
      </trkpt>
      <trkpt lat="43.71114" lon="5.99363">
        <ele>365.3</ele>
        <time>2023-06-11T12:40:28Z</time>
      </trkpt>
      <trkpt lat="43.71114" lon="5.99365">
        <ele>365.3</ele>
        <time>2023-06-11T12:40:29Z</time>
      </trkpt>
      <trkpt lat="43.71114" lon="5.99367">
        <ele>365.2</ele>
        <time>2023-06-11T12:40:30Z</time>
      </trkpt>
      <trkpt lat="43.71114" lon="5.99369">
        <ele>365.2</ele>
        <time>2023-06-11T12:40:31Z</time>
      </trkpt>
      <trkpt lat="43.71114" lon="5.99371">
        <ele>365.2</ele>
        <time>2023-06-11T12:40:32Z</time>
      </trkpt>
      <trkpt lat="43.71114" lon="5.99372">
        <ele>365.1</ele>
        <time>2023-06-11T12:40:33Z</time>
      </trkpt>
      <trkpt lat="43.71115" lon="5.99374">
        <ele>365.1</ele>
        <time>2023-06-11T12:40:34Z</time>
      </trkpt>
      <trkpt lat="43.71115" lon="5.99376">
        <ele>365.1</ele>
        <time>2023-06-11T12:40:35Z</time>
      </trkpt>
      <trkpt lat="43.71115" lon="5.99378">
        <ele>365.1</ele>
        <time>2023-06-11T12:40:36Z</time>
      </trkpt>
      <trkpt lat="43.71115" lon="5.99379">
        <ele>365</ele>
        <time>2023-06-11T12:40:37Z</time>
      </trkpt>
      <trkpt lat="43.71115" lon="5.99381">
        <ele>365</ele>
        <time>2023-06-11T12:40:38Z</time>
      </trkpt>
      <trkpt lat="43.71115" lon="5.99383">
        <ele>365</ele>
        <time>2023-06-11T12:40:39Z</time>
      </trkpt>
      <trkpt lat="43.71115" lon="5.99385">
        <ele>365</ele>
        <time>2023-06-11T12:40:40Z</time>
      </trkpt>
      <trkpt lat="43.71115" lon="5.99387">
        <ele>364.9</ele>
        <time>2023-06-11T12:40:41Z</time>
      </trkpt>
      <trkpt lat="43.71115" lon="5.99389">
        <ele>364.9</ele>
        <time>2023-06-11T12:40:42Z</time>
      </trkpt>
      <trkpt lat="43.71115" lon="5.9939">
        <ele>364.9</ele>
        <time>2023-06-11T12:40:43Z</time>
      </trkpt>
      <trkpt lat="43.71115" lon="5.99392">
        <ele>365</ele>
        <time>2023-06-11T12:40:44Z</time>
      </trkpt>
      <trkpt lat="43.71115" lon="5.99394">
        <ele>365</ele>
        <time>2023-06-11T12:40:45Z</time>
      </trkpt>
      <trkpt lat="43.71115" lon="5.99396">
        <ele>365</ele>
        <time>2023-06-11T12:40:46Z</time>
      </trkpt>
      <trkpt lat="43.71115" lon="5.99398">
        <ele>365</ele>
        <time>2023-06-11T12:40:47Z</time>
      </trkpt>
      <trkpt lat="43.71114" lon="5.994">
        <ele>365.1</ele>
        <time>2023-06-11T12:40:48Z</time>
      </trkpt>
      <trkpt lat="43.71114" lon="5.99402">
        <ele>365.2</ele>
        <time>2023-06-11T12:40:49Z</time>
      </trkpt>
      <trkpt lat="43.71114" lon="5.99404">
        <ele>365.2</ele>
        <time>2023-06-11T12:40:50Z</time>
      </trkpt>
      <trkpt lat="43.71114" lon="5.99405">
        <ele>365.2</ele>
        <time>2023-06-11T12:40:51Z</time>
      </trkpt>
      <trkpt lat="43.71114" lon="5.99407">
        <ele>365.2</ele>
        <time>2023-06-11T12:40:52Z</time>
      </trkpt>
      <trkpt lat="43.71114" lon="5.99409">
        <ele>365.2</ele>
        <time>2023-06-11T12:40:53Z</time>
      </trkpt>
      <trkpt lat="43.71114" lon="5.99411">
        <ele>365.2</ele>
        <time>2023-06-11T12:40:54Z</time>
      </trkpt>
      <trkpt lat="43.71114" lon="5.99413">
        <ele>365.2</ele>
        <time>2023-06-11T12:40:55Z</time>
      </trkpt>
      <trkpt lat="43.71114" lon="5.99415">
        <ele>365.2</ele>
        <time>2023-06-11T12:40:56Z</time>
      </trkpt>
      <trkpt lat="43.71114" lon="5.99417">
        <ele>365.2</ele>
        <time>2023-06-11T12:40:57Z</time>
      </trkpt>
      <trkpt lat="43.71114" lon="5.99419">
        <ele>365.3</ele>
        <time>2023-06-11T12:40:58Z</time>
      </trkpt>
      <trkpt lat="43.71114" lon="5.99421">
        <ele>365.3</ele>
        <time>2023-06-11T12:40:59Z</time>
      </trkpt>
      <trkpt lat="43.71114" lon="5.99423">
        <ele>365.2</ele>
        <time>2023-06-11T12:41:00Z</time>
      </trkpt>
      <trkpt lat="43.71114" lon="5.99424">
        <ele>365.2</ele>
        <time>2023-06-11T12:41:01Z</time>
      </trkpt>
      <trkpt lat="43.71114" lon="5.99426">
        <ele>365.2</ele>
        <time>2023-06-11T12:41:02Z</time>
      </trkpt>
      <trkpt lat="43.71114" lon="5.99428">
        <ele>365.2</ele>
        <time>2023-06-11T12:41:03Z</time>
      </trkpt>
      <trkpt lat="43.71114" lon="5.9943">
        <ele>365.3</ele>
        <time>2023-06-11T12:41:04Z</time>
      </trkpt>
      <trkpt lat="43.71114" lon="5.99432">
        <ele>365.3</ele>
        <time>2023-06-11T12:41:05Z</time>
      </trkpt>
      <trkpt lat="43.71114" lon="5.99433">
        <ele>365.3</ele>
        <time>2023-06-11T12:41:06Z</time>
      </trkpt>
      <trkpt lat="43.71114" lon="5.99435">
        <ele>365.4</ele>
        <time>2023-06-11T12:41:07Z</time>
      </trkpt>
      <trkpt lat="43.71114" lon="5.99437">
        <ele>365.4</ele>
        <time>2023-06-11T12:41:08Z</time>
      </trkpt>
      <trkpt lat="43.71114" lon="5.99438">
        <ele>365.4</ele>
        <time>2023-06-11T12:41:09Z</time>
      </trkpt>
      <trkpt lat="43.71114" lon="5.9944">
        <ele>365.4</ele>
        <time>2023-06-11T12:41:10Z</time>
      </trkpt>
      <trkpt lat="43.71114" lon="5.99442">
        <ele>365.4</ele>
        <time>2023-06-11T12:41:11Z</time>
      </trkpt>
      <trkpt lat="43.71114" lon="5.99444">
        <ele>365.4</ele>
        <time>2023-06-11T12:41:12Z</time>
      </trkpt>
      <trkpt lat="43.71114" lon="5.99446">
        <ele>365.4</ele>
        <time>2023-06-11T12:41:13Z</time>
      </trkpt>
      <trkpt lat="43.71114" lon="5.99447">
        <ele>365.4</ele>
        <time>2023-06-11T12:41:14Z</time>
      </trkpt>
      <trkpt lat="43.71114" lon="5.99449">
        <ele>365.3</ele>
        <time>2023-06-11T12:41:15Z</time>
      </trkpt>
      <trkpt lat="43.71114" lon="5.99451">
        <ele>365.4</ele>
        <time>2023-06-11T12:41:16Z</time>
      </trkpt>
      <trkpt lat="43.71114" lon="5.99453">
        <ele>365.3</ele>
        <time>2023-06-11T12:41:17Z</time>
      </trkpt>
      <trkpt lat="43.71114" lon="5.99455">
        <ele>365.3</ele>
        <time>2023-06-11T12:41:18Z</time>
      </trkpt>
      <trkpt lat="43.71114" lon="5.99457">
        <ele>365.4</ele>
        <time>2023-06-11T12:41:19Z</time>
      </trkpt>
      <trkpt lat="43.71115" lon="5.99459">
        <ele>365.5</ele>
        <time>2023-06-11T12:41:20Z</time>
      </trkpt>
      <trkpt lat="43.71115" lon="5.9946">
        <ele>365.4</ele>
        <time>2023-06-11T12:41:21Z</time>
      </trkpt>
      <trkpt lat="43.71115" lon="5.99462">
        <ele>365.4</ele>
        <time>2023-06-11T12:41:22Z</time>
      </trkpt>
      <trkpt lat="43.71115" lon="5.99464">
        <ele>365.4</ele>
        <time>2023-06-11T12:41:23Z</time>
      </trkpt>
      <trkpt lat="43.71115" lon="5.99466">
        <ele>365.4</ele>
        <time>2023-06-11T12:41:24Z</time>
      </trkpt>
      <trkpt lat="43.71115" lon="5.99467">
        <ele>365.4</ele>
        <time>2023-06-11T12:41:25Z</time>
      </trkpt>
      <trkpt lat="43.71115" lon="5.99469">
        <ele>365.4</ele>
        <time>2023-06-11T12:41:26Z</time>
      </trkpt>
      <trkpt lat="43.71115" lon="5.99471">
        <ele>365.4</ele>
        <time>2023-06-11T12:41:27Z</time>
      </trkpt>
      <trkpt lat="43.71115" lon="5.99473">
        <ele>365.4</ele>
        <time>2023-06-11T12:41:28Z</time>
      </trkpt>
      <trkpt lat="43.71115" lon="5.99475">
        <ele>365.4</ele>
        <time>2023-06-11T12:41:29Z</time>
      </trkpt>
      <trkpt lat="43.71115" lon="5.99477">
        <ele>365.4</ele>
        <time>2023-06-11T12:41:30Z</time>
      </trkpt>
      <trkpt lat="43.71115" lon="5.99479">
        <ele>365.3</ele>
        <time>2023-06-11T12:41:31Z</time>
      </trkpt>
      <trkpt lat="43.71115" lon="5.99481">
        <ele>365.2</ele>
        <time>2023-06-11T12:41:32Z</time>
      </trkpt>
      <trkpt lat="43.71115" lon="5.99482">
        <ele>365.2</ele>
        <time>2023-06-11T12:41:33Z</time>
      </trkpt>
      <trkpt lat="43.71115" lon="5.99484">
        <ele>365.3</ele>
        <time>2023-06-11T12:41:34Z</time>
      </trkpt>
      <trkpt lat="43.71115" lon="5.99486">
        <ele>365.3</ele>
        <time>2023-06-11T12:41:35Z</time>
      </trkpt>
      <trkpt lat="43.71115" lon="5.99488">
        <ele>365.3</ele>
        <time>2023-06-11T12:41:36Z</time>
      </trkpt>
      <trkpt lat="43.71116" lon="5.9949">
        <ele>365.3</ele>
        <time>2023-06-11T12:41:37Z</time>
      </trkpt>
      <trkpt lat="43.71116" lon="5.99492">
        <ele>365.3</ele>
        <time>2023-06-11T12:41:38Z</time>
      </trkpt>
      <trkpt lat="43.71116" lon="5.99494">
        <ele>365.3</ele>
        <time>2023-06-11T12:41:39Z</time>
      </trkpt>
      <trkpt lat="43.71116" lon="5.99496">
        <ele>365.4</ele>
        <time>2023-06-11T12:41:40Z</time>
      </trkpt>
      <trkpt lat="43.71116" lon="5.99498">
        <ele>365.3</ele>
        <time>2023-06-11T12:41:41Z</time>
      </trkpt>
      <trkpt lat="43.71116" lon="5.995">
        <ele>365.3</ele>
        <time>2023-06-11T12:41:42Z</time>
      </trkpt>
      <trkpt lat="43.71116" lon="5.99502">
        <ele>365.3</ele>
        <time>2023-06-11T12:41:43Z</time>
      </trkpt>
      <trkpt lat="43.71116" lon="5.99504">
        <ele>365.3</ele>
        <time>2023-06-11T12:41:44Z</time>
      </trkpt>
      <trkpt lat="43.71116" lon="5.99505">
        <ele>365.3</ele>
        <time>2023-06-11T12:41:45Z</time>
      </trkpt>
      <trkpt lat="43.71116" lon="5.99507">
        <ele>365.4</ele>
        <time>2023-06-11T12:41:46Z</time>
      </trkpt>
      <trkpt lat="43.71116" lon="5.99509">
        <ele>365.4</ele>
        <time>2023-06-11T12:41:47Z</time>
      </trkpt>
      <trkpt lat="43.71116" lon="5.99511">
        <ele>365.4</ele>
        <time>2023-06-11T12:41:48Z</time>
      </trkpt>
      <trkpt lat="43.71116" lon="5.99513">
        <ele>365.4</ele>
        <time>2023-06-11T12:41:49Z</time>
      </trkpt>
      <trkpt lat="43.71117" lon="5.99515">
        <ele>365.4</ele>
        <time>2023-06-11T12:41:50Z</time>
      </trkpt>
      <trkpt lat="43.71117" lon="5.99517">
        <ele>365.4</ele>
        <time>2023-06-11T12:41:51Z</time>
      </trkpt>
      <trkpt lat="43.71117" lon="5.99519">
        <ele>365.4</ele>
        <time>2023-06-11T12:41:52Z</time>
      </trkpt>
      <trkpt lat="43.71117" lon="5.99521">
        <ele>365.4</ele>
        <time>2023-06-11T12:41:53Z</time>
      </trkpt>
      <trkpt lat="43.71117" lon="5.99523">
        <ele>365.4</ele>
        <time>2023-06-11T12:41:54Z</time>
      </trkpt>
      <trkpt lat="43.71117" lon="5.99525">
        <ele>365.4</ele>
        <time>2023-06-11T12:41:55Z</time>
      </trkpt>
      <trkpt lat="43.71117" lon="5.99526">
        <ele>365.4</ele>
        <time>2023-06-11T12:41:56Z</time>
      </trkpt>
      <trkpt lat="43.71117" lon="5.99528">
        <ele>365.4</ele>
        <time>2023-06-11T12:41:57Z</time>
      </trkpt>
      <trkpt lat="43.71117" lon="5.9953">
        <ele>365.4</ele>
        <time>2023-06-11T12:41:58Z</time>
      </trkpt>
      <trkpt lat="43.71117" lon="5.99532">
        <ele>365.4</ele>
        <time>2023-06-11T12:41:59Z</time>
      </trkpt>
      <trkpt lat="43.71117" lon="5.99534">
        <ele>365.5</ele>
        <time>2023-06-11T12:42:00Z</time>
      </trkpt>
      <trkpt lat="43.71117" lon="5.99536">
        <ele>365.5</ele>
        <time>2023-06-11T12:42:01Z</time>
      </trkpt>
      <trkpt lat="43.71117" lon="5.99538">
        <ele>365.4</ele>
        <time>2023-06-11T12:42:02Z</time>
      </trkpt>
      <trkpt lat="43.71118" lon="5.99539">
        <ele>365.4</ele>
        <time>2023-06-11T12:42:03Z</time>
      </trkpt>
      <trkpt lat="43.71118" lon="5.99541">
        <ele>365.4</ele>
        <time>2023-06-11T12:42:04Z</time>
      </trkpt>
      <trkpt lat="43.71118" lon="5.99543">
        <ele>365.4</ele>
        <time>2023-06-11T12:42:05Z</time>
      </trkpt>
      <trkpt lat="43.71118" lon="5.99545">
        <ele>365.4</ele>
        <time>2023-06-11T12:42:06Z</time>
      </trkpt>
      <trkpt lat="43.71118" lon="5.99547">
        <ele>365.4</ele>
        <time>2023-06-11T12:42:07Z</time>
      </trkpt>
      <trkpt lat="43.71118" lon="5.99549">
        <ele>365.3</ele>
        <time>2023-06-11T12:42:08Z</time>
      </trkpt>
      <trkpt lat="43.71118" lon="5.99551">
        <ele>365.3</ele>
        <time>2023-06-11T12:42:09Z</time>
      </trkpt>
      <trkpt lat="43.71118" lon="5.99553">
        <ele>365.3</ele>
        <time>2023-06-11T12:42:10Z</time>
      </trkpt>
      <trkpt lat="43.71118" lon="5.99555">
        <ele>365.3</ele>
        <time>2023-06-11T12:42:11Z</time>
      </trkpt>
      <trkpt lat="43.71118" lon="5.99556">
        <ele>365.3</ele>
        <time>2023-06-11T12:42:12Z</time>
      </trkpt>
      <trkpt lat="43.71118" lon="5.99558">
        <ele>365.3</ele>
        <time>2023-06-11T12:42:13Z</time>
      </trkpt>
      <trkpt lat="43.71118" lon="5.9956">
        <ele>365.3</ele>
        <time>2023-06-11T12:42:14Z</time>
      </trkpt>
      <trkpt lat="43.71119" lon="5.99562">
        <ele>365.2</ele>
        <time>2023-06-11T12:42:15Z</time>
      </trkpt>
      <trkpt lat="43.71119" lon="5.99564">
        <ele>365.1</ele>
        <time>2023-06-11T12:42:16Z</time>
      </trkpt>
      <trkpt lat="43.71119" lon="5.99566">
        <ele>365.1</ele>
        <time>2023-06-11T12:42:17Z</time>
      </trkpt>
      <trkpt lat="43.71119" lon="5.99568">
        <ele>365.1</ele>
        <time>2023-06-11T12:42:18Z</time>
      </trkpt>
      <trkpt lat="43.71119" lon="5.9957">
        <ele>365.1</ele>
        <time>2023-06-11T12:42:19Z</time>
      </trkpt>
      <trkpt lat="43.71119" lon="5.99571">
        <ele>365.1</ele>
        <time>2023-06-11T12:42:20Z</time>
      </trkpt>
      <trkpt lat="43.71119" lon="5.99573">
        <ele>365.1</ele>
        <time>2023-06-11T12:42:21Z</time>
      </trkpt>
      <trkpt lat="43.71119" lon="5.99575">
        <ele>365.1</ele>
        <time>2023-06-11T12:42:22Z</time>
      </trkpt>
      <trkpt lat="43.71119" lon="5.99577">
        <ele>365.2</ele>
        <time>2023-06-11T12:42:23Z</time>
      </trkpt>
      <trkpt lat="43.71119" lon="5.99579">
        <ele>365.2</ele>
        <time>2023-06-11T12:42:24Z</time>
      </trkpt>
      <trkpt lat="43.71119" lon="5.99581">
        <ele>365.3</ele>
        <time>2023-06-11T12:42:25Z</time>
      </trkpt>
      <trkpt lat="43.71119" lon="5.99582">
        <ele>365.3</ele>
        <time>2023-06-11T12:42:26Z</time>
      </trkpt>
      <trkpt lat="43.71119" lon="5.99584">
        <ele>365.3</ele>
        <time>2023-06-11T12:42:27Z</time>
      </trkpt>
      <trkpt lat="43.71119" lon="5.99586">
        <ele>365.4</ele>
        <time>2023-06-11T12:42:28Z</time>
      </trkpt>
      <trkpt lat="43.71119" lon="5.99588">
        <ele>365.4</ele>
        <time>2023-06-11T12:42:29Z</time>
      </trkpt>
      <trkpt lat="43.71119" lon="5.9959">
        <ele>365.4</ele>
        <time>2023-06-11T12:42:30Z</time>
      </trkpt>
      <trkpt lat="43.71119" lon="5.99592">
        <ele>365.4</ele>
        <time>2023-06-11T12:42:31Z</time>
      </trkpt>
      <trkpt lat="43.71119" lon="5.99593">
        <ele>365.5</ele>
        <time>2023-06-11T12:42:32Z</time>
      </trkpt>
      <trkpt lat="43.71119" lon="5.99595">
        <ele>365.6</ele>
        <time>2023-06-11T12:42:33Z</time>
      </trkpt>
      <trkpt lat="43.71119" lon="5.99597">
        <ele>365.6</ele>
        <time>2023-06-11T12:42:34Z</time>
      </trkpt>
      <trkpt lat="43.71119" lon="5.99599">
        <ele>365.6</ele>
        <time>2023-06-11T12:42:35Z</time>
      </trkpt>
      <trkpt lat="43.71119" lon="5.99601">
        <ele>365.7</ele>
        <time>2023-06-11T12:42:36Z</time>
      </trkpt>
      <trkpt lat="43.71119" lon="5.99603">
        <ele>365.7</ele>
        <time>2023-06-11T12:42:37Z</time>
      </trkpt>
      <trkpt lat="43.71119" lon="5.99604">
        <ele>365.7</ele>
        <time>2023-06-11T12:42:38Z</time>
      </trkpt>
      <trkpt lat="43.71119" lon="5.99606">
        <ele>365.6</ele>
        <time>2023-06-11T12:42:39Z</time>
      </trkpt>
      <trkpt lat="43.71119" lon="5.99608">
        <ele>365.5</ele>
        <time>2023-06-11T12:42:40Z</time>
      </trkpt>
      <trkpt lat="43.71119" lon="5.9961">
        <ele>365.5</ele>
        <time>2023-06-11T12:42:41Z</time>
      </trkpt>
      <trkpt lat="43.71119" lon="5.99612">
        <ele>365.5</ele>
        <time>2023-06-11T12:42:42Z</time>
      </trkpt>
      <trkpt lat="43.71119" lon="5.99614">
        <ele>365.5</ele>
        <time>2023-06-11T12:42:43Z</time>
      </trkpt>
      <trkpt lat="43.71119" lon="5.99616">
        <ele>365.4</ele>
        <time>2023-06-11T12:42:44Z</time>
      </trkpt>
      <trkpt lat="43.71119" lon="5.99617">
        <ele>365.4</ele>
        <time>2023-06-11T12:42:45Z</time>
      </trkpt>
      <trkpt lat="43.71119" lon="5.99619">
        <ele>365.3</ele>
        <time>2023-06-11T12:42:46Z</time>
      </trkpt>
      <trkpt lat="43.71119" lon="5.99621">
        <ele>365.3</ele>
        <time>2023-06-11T12:42:47Z</time>
      </trkpt>
      <trkpt lat="43.71119" lon="5.99623">
        <ele>365.3</ele>
        <time>2023-06-11T12:42:48Z</time>
      </trkpt>
      <trkpt lat="43.71119" lon="5.99625">
        <ele>365.2</ele>
        <time>2023-06-11T12:42:49Z</time>
      </trkpt>
      <trkpt lat="43.7112" lon="5.99626">
        <ele>365.2</ele>
        <time>2023-06-11T12:42:50Z</time>
      </trkpt>
      <trkpt lat="43.7112" lon="5.99628">
        <ele>365.2</ele>
        <time>2023-06-11T12:42:51Z</time>
      </trkpt>
      <trkpt lat="43.7112" lon="5.9963">
        <ele>365.2</ele>
        <time>2023-06-11T12:42:52Z</time>
      </trkpt>
      <trkpt lat="43.7112" lon="5.99632">
        <ele>365.2</ele>
        <time>2023-06-11T12:42:53Z</time>
      </trkpt>
      <trkpt lat="43.7112" lon="5.99634">
        <ele>365.3</ele>
        <time>2023-06-11T12:42:54Z</time>
      </trkpt>
      <trkpt lat="43.7112" lon="5.99635">
        <ele>365.2</ele>
        <time>2023-06-11T12:42:55Z</time>
      </trkpt>
      <trkpt lat="43.7112" lon="5.99637">
        <ele>365.3</ele>
        <time>2023-06-11T12:42:56Z</time>
      </trkpt>
      <trkpt lat="43.7112" lon="5.99639">
        <ele>365.3</ele>
        <time>2023-06-11T12:42:57Z</time>
      </trkpt>
      <trkpt lat="43.7112" lon="5.99641">
        <ele>365.3</ele>
        <time>2023-06-11T12:42:58Z</time>
      </trkpt>
      <trkpt lat="43.7112" lon="5.99643">
        <ele>365.3</ele>
        <time>2023-06-11T12:42:59Z</time>
      </trkpt>
      <trkpt lat="43.7112" lon="5.99644">
        <ele>365.2</ele>
        <time>2023-06-11T12:43:00Z</time>
      </trkpt>
      <trkpt lat="43.7112" lon="5.99646">
        <ele>365.2</ele>
        <time>2023-06-11T12:43:01Z</time>
      </trkpt>
      <trkpt lat="43.7112" lon="5.99648">
        <ele>365.2</ele>
        <time>2023-06-11T12:43:02Z</time>
      </trkpt>
      <trkpt lat="43.71121" lon="5.9965">
        <ele>365.3</ele>
        <time>2023-06-11T12:43:03Z</time>
      </trkpt>
      <trkpt lat="43.71121" lon="5.99651">
        <ele>365.3</ele>
        <time>2023-06-11T12:43:04Z</time>
      </trkpt>
      <trkpt lat="43.71121" lon="5.99653">
        <ele>365.4</ele>
        <time>2023-06-11T12:43:05Z</time>
      </trkpt>
      <trkpt lat="43.71121" lon="5.99655">
        <ele>365.6</ele>
        <time>2023-06-11T12:43:06Z</time>
      </trkpt>
      <trkpt lat="43.71121" lon="5.99657">
        <ele>365.7</ele>
        <time>2023-06-11T12:43:07Z</time>
      </trkpt>
      <trkpt lat="43.71121" lon="5.99659">
        <ele>365.7</ele>
        <time>2023-06-11T12:43:08Z</time>
      </trkpt>
      <trkpt lat="43.71121" lon="5.9966">
        <ele>365.7</ele>
        <time>2023-06-11T12:43:09Z</time>
      </trkpt>
      <trkpt lat="43.71121" lon="5.99662">
        <ele>365.8</ele>
        <time>2023-06-11T12:43:10Z</time>
      </trkpt>
      <trkpt lat="43.71121" lon="5.99664">
        <ele>365.8</ele>
        <time>2023-06-11T12:43:11Z</time>
      </trkpt>
      <trkpt lat="43.71121" lon="5.99666">
        <ele>365.8</ele>
        <time>2023-06-11T12:43:12Z</time>
      </trkpt>
      <trkpt lat="43.71121" lon="5.99668">
        <ele>365.8</ele>
        <time>2023-06-11T12:43:13Z</time>
      </trkpt>
      <trkpt lat="43.71121" lon="5.99669">
        <ele>365.8</ele>
        <time>2023-06-11T12:43:14Z</time>
      </trkpt>
      <trkpt lat="43.71121" lon="5.99671">
        <ele>365.9</ele>
        <time>2023-06-11T12:43:15Z</time>
      </trkpt>
      <trkpt lat="43.71121" lon="5.99673">
        <ele>365.8</ele>
        <time>2023-06-11T12:43:16Z</time>
      </trkpt>
      <trkpt lat="43.71122" lon="5.99675">
        <ele>365.9</ele>
        <time>2023-06-11T12:43:17Z</time>
      </trkpt>
      <trkpt lat="43.71122" lon="5.99677">
        <ele>365.9</ele>
        <time>2023-06-11T12:43:18Z</time>
      </trkpt>
      <trkpt lat="43.71122" lon="5.99679">
        <ele>365.9</ele>
        <time>2023-06-11T12:43:19Z</time>
      </trkpt>
      <trkpt lat="43.71122" lon="5.9968">
        <ele>365.9</ele>
        <time>2023-06-11T12:43:20Z</time>
      </trkpt>
      <trkpt lat="43.71122" lon="5.99682">
        <ele>365.9</ele>
        <time>2023-06-11T12:43:21Z</time>
      </trkpt>
      <trkpt lat="43.71122" lon="5.99684">
        <ele>365.8</ele>
        <time>2023-06-11T12:43:22Z</time>
      </trkpt>
      <trkpt lat="43.71123" lon="5.99686">
        <ele>365.8</ele>
        <time>2023-06-11T12:43:23Z</time>
      </trkpt>
      <trkpt lat="43.71123" lon="5.99688">
        <ele>365.8</ele>
        <time>2023-06-11T12:43:24Z</time>
      </trkpt>
      <trkpt lat="43.71123" lon="5.9969">
        <ele>365.7</ele>
        <time>2023-06-11T12:43:25Z</time>
      </trkpt>
      <trkpt lat="43.71123" lon="5.99692">
        <ele>365.7</ele>
        <time>2023-06-11T12:43:26Z</time>
      </trkpt>
      <trkpt lat="43.71123" lon="5.99693">
        <ele>365.6</ele>
        <time>2023-06-11T12:43:27Z</time>
      </trkpt>
      <trkpt lat="43.71123" lon="5.99695">
        <ele>365.6</ele>
        <time>2023-06-11T12:43:28Z</time>
      </trkpt>
      <trkpt lat="43.71123" lon="5.99697">
        <ele>365.7</ele>
        <time>2023-06-11T12:43:29Z</time>
      </trkpt>
      <trkpt lat="43.71123" lon="5.99699">
        <ele>365.8</ele>
        <time>2023-06-11T12:43:30Z</time>
      </trkpt>
      <trkpt lat="43.71123" lon="5.99701">
        <ele>365.8</ele>
        <time>2023-06-11T12:43:31Z</time>
      </trkpt>
      <trkpt lat="43.71123" lon="5.99703">
        <ele>365.8</ele>
        <time>2023-06-11T12:43:32Z</time>
      </trkpt>
      <trkpt lat="43.71123" lon="5.99704">
        <ele>365.8</ele>
        <time>2023-06-11T12:43:33Z</time>
      </trkpt>
      <trkpt lat="43.71123" lon="5.99706">
        <ele>365.8</ele>
        <time>2023-06-11T12:43:34Z</time>
      </trkpt>
      <trkpt lat="43.71123" lon="5.99708">
        <ele>365.7</ele>
        <time>2023-06-11T12:43:35Z</time>
      </trkpt>
      <trkpt lat="43.71123" lon="5.99709">
        <ele>365.7</ele>
        <time>2023-06-11T12:43:36Z</time>
      </trkpt>
      <trkpt lat="43.71123" lon="5.99711">
        <ele>365.8</ele>
        <time>2023-06-11T12:43:37Z</time>
      </trkpt>
      <trkpt lat="43.71123" lon="5.99712">
        <ele>365.8</ele>
        <time>2023-06-11T12:43:38Z</time>
      </trkpt>
      <trkpt lat="43.71123" lon="5.99714">
        <ele>365.8</ele>
        <time>2023-06-11T12:43:39Z</time>
      </trkpt>
      <trkpt lat="43.71123" lon="5.99716">
        <ele>365.9</ele>
        <time>2023-06-11T12:43:40Z</time>
      </trkpt>
      <trkpt lat="43.71123" lon="5.99718">
        <ele>365.9</ele>
        <time>2023-06-11T12:43:41Z</time>
      </trkpt>
      <trkpt lat="43.71123" lon="5.9972">
        <ele>365.9</ele>
        <time>2023-06-11T12:43:42Z</time>
      </trkpt>
      <trkpt lat="43.71123" lon="5.99721">
        <ele>365.9</ele>
        <time>2023-06-11T12:43:43Z</time>
      </trkpt>
      <trkpt lat="43.71123" lon="5.99723">
        <ele>365.9</ele>
        <time>2023-06-11T12:43:44Z</time>
      </trkpt>
      <trkpt lat="43.71123" lon="5.99725">
        <ele>365.9</ele>
        <time>2023-06-11T12:43:45Z</time>
      </trkpt>
      <trkpt lat="43.71123" lon="5.99727">
        <ele>366</ele>
        <time>2023-06-11T12:43:46Z</time>
      </trkpt>
      <trkpt lat="43.71123" lon="5.99729">
        <ele>366</ele>
        <time>2023-06-11T12:43:47Z</time>
      </trkpt>
      <trkpt lat="43.71123" lon="5.99731">
        <ele>366</ele>
        <time>2023-06-11T12:43:48Z</time>
      </trkpt>
      <trkpt lat="43.71123" lon="5.99732">
        <ele>366</ele>
        <time>2023-06-11T12:43:49Z</time>
      </trkpt>
      <trkpt lat="43.71123" lon="5.99734">
        <ele>366</ele>
        <time>2023-06-11T12:43:50Z</time>
      </trkpt>
      <trkpt lat="43.71123" lon="5.99736">
        <ele>366.1</ele>
        <time>2023-06-11T12:43:51Z</time>
      </trkpt>
      <trkpt lat="43.71123" lon="5.99738">
        <ele>366.1</ele>
        <time>2023-06-11T12:43:52Z</time>
      </trkpt>
      <trkpt lat="43.71123" lon="5.9974">
        <ele>366.2</ele>
        <time>2023-06-11T12:43:53Z</time>
      </trkpt>
      <trkpt lat="43.71123" lon="5.99742">
        <ele>366.2</ele>
        <time>2023-06-11T12:43:54Z</time>
      </trkpt>
      <trkpt lat="43.71123" lon="5.99744">
        <ele>366.1</ele>
        <time>2023-06-11T12:43:55Z</time>
      </trkpt>
      <trkpt lat="43.71123" lon="5.99746">
        <ele>366.1</ele>
        <time>2023-06-11T12:43:56Z</time>
      </trkpt>
      <trkpt lat="43.71122" lon="5.99748">
        <ele>366.1</ele>
        <time>2023-06-11T12:43:57Z</time>
      </trkpt>
      <trkpt lat="43.71122" lon="5.99749">
        <ele>366.1</ele>
        <time>2023-06-11T12:43:58Z</time>
      </trkpt>
      <trkpt lat="43.71122" lon="5.99751">
        <ele>366.1</ele>
        <time>2023-06-11T12:43:59Z</time>
      </trkpt>
      <trkpt lat="43.71122" lon="5.99753">
        <ele>366</ele>
        <time>2023-06-11T12:44:00Z</time>
      </trkpt>
      <trkpt lat="43.71122" lon="5.99755">
        <ele>366</ele>
        <time>2023-06-11T12:44:01Z</time>
      </trkpt>
      <trkpt lat="43.71121" lon="5.99757">
        <ele>366</ele>
        <time>2023-06-11T12:44:02Z</time>
      </trkpt>
      <trkpt lat="43.71121" lon="5.99759">
        <ele>366.1</ele>
        <time>2023-06-11T12:44:03Z</time>
      </trkpt>
      <trkpt lat="43.71121" lon="5.99761">
        <ele>366</ele>
        <time>2023-06-11T12:44:04Z</time>
      </trkpt>
      <trkpt lat="43.71121" lon="5.99763">
        <ele>366</ele>
        <time>2023-06-11T12:44:05Z</time>
      </trkpt>
      <trkpt lat="43.7112" lon="5.99764">
        <ele>366.1</ele>
        <time>2023-06-11T12:44:06Z</time>
      </trkpt>
      <trkpt lat="43.7112" lon="5.99766">
        <ele>366.1</ele>
        <time>2023-06-11T12:44:07Z</time>
      </trkpt>
      <trkpt lat="43.7112" lon="5.99768">
        <ele>366.1</ele>
        <time>2023-06-11T12:44:08Z</time>
      </trkpt>
      <trkpt lat="43.7112" lon="5.9977">
        <ele>366.1</ele>
        <time>2023-06-11T12:44:09Z</time>
      </trkpt>
      <trkpt lat="43.71119" lon="5.99772">
        <ele>366.1</ele>
        <time>2023-06-11T12:44:10Z</time>
      </trkpt>
      <trkpt lat="43.71119" lon="5.99774">
        <ele>366.1</ele>
        <time>2023-06-11T12:44:11Z</time>
      </trkpt>
      <trkpt lat="43.71119" lon="5.99776">
        <ele>366.2</ele>
        <time>2023-06-11T12:44:12Z</time>
      </trkpt>
      <trkpt lat="43.71119" lon="5.99777">
        <ele>366.1</ele>
        <time>2023-06-11T12:44:13Z</time>
      </trkpt>
      <trkpt lat="43.71119" lon="5.99779">
        <ele>366</ele>
        <time>2023-06-11T12:44:14Z</time>
      </trkpt>
      <trkpt lat="43.71119" lon="5.99781">
        <ele>366</ele>
        <time>2023-06-11T12:44:15Z</time>
      </trkpt>
      <trkpt lat="43.71119" lon="5.99783">
        <ele>365.9</ele>
        <time>2023-06-11T12:44:16Z</time>
      </trkpt>
      <trkpt lat="43.71118" lon="5.99785">
        <ele>365.9</ele>
        <time>2023-06-11T12:44:17Z</time>
      </trkpt>
      <trkpt lat="43.71118" lon="5.99787">
        <ele>365.9</ele>
        <time>2023-06-11T12:44:18Z</time>
      </trkpt>
      <trkpt lat="43.71118" lon="5.99789">
        <ele>365.9</ele>
        <time>2023-06-11T12:44:19Z</time>
      </trkpt>
      <trkpt lat="43.71118" lon="5.99791">
        <ele>365.9</ele>
        <time>2023-06-11T12:44:20Z</time>
      </trkpt>
      <trkpt lat="43.71118" lon="5.99793">
        <ele>365.8</ele>
        <time>2023-06-11T12:44:21Z</time>
      </trkpt>
      <trkpt lat="43.71118" lon="5.99795">
        <ele>365.8</ele>
        <time>2023-06-11T12:44:22Z</time>
      </trkpt>
      <trkpt lat="43.71118" lon="5.99797">
        <ele>365.8</ele>
        <time>2023-06-11T12:44:23Z</time>
      </trkpt>
      <trkpt lat="43.71117" lon="5.99799">
        <ele>365.9</ele>
        <time>2023-06-11T12:44:24Z</time>
      </trkpt>
      <trkpt lat="43.71117" lon="5.99801">
        <ele>365.9</ele>
        <time>2023-06-11T12:44:25Z</time>
      </trkpt>
      <trkpt lat="43.71117" lon="5.99803">
        <ele>365.9</ele>
        <time>2023-06-11T12:44:26Z</time>
      </trkpt>
      <trkpt lat="43.71117" lon="5.99805">
        <ele>365.9</ele>
        <time>2023-06-11T12:44:27Z</time>
      </trkpt>
      <trkpt lat="43.71117" lon="5.99807">
        <ele>365.9</ele>
        <time>2023-06-11T12:44:28Z</time>
      </trkpt>
      <trkpt lat="43.71117" lon="5.99809">
        <ele>365.9</ele>
        <time>2023-06-11T12:44:29Z</time>
      </trkpt>
      <trkpt lat="43.71116" lon="5.99811">
        <ele>365.9</ele>
        <time>2023-06-11T12:44:30Z</time>
      </trkpt>
      <trkpt lat="43.71116" lon="5.99813">
        <ele>366</ele>
        <time>2023-06-11T12:44:31Z</time>
      </trkpt>
      <trkpt lat="43.71116" lon="5.99815">
        <ele>365.9</ele>
        <time>2023-06-11T12:44:32Z</time>
      </trkpt>
      <trkpt lat="43.71116" lon="5.99816">
        <ele>366</ele>
        <time>2023-06-11T12:44:33Z</time>
      </trkpt>
      <trkpt lat="43.71116" lon="5.99818">
        <ele>366</ele>
        <time>2023-06-11T12:44:34Z</time>
      </trkpt>
      <trkpt lat="43.71115" lon="5.9982">
        <ele>366.1</ele>
        <time>2023-06-11T12:44:35Z</time>
      </trkpt>
      <trkpt lat="43.71115" lon="5.99822">
        <ele>366.1</ele>
        <time>2023-06-11T12:44:36Z</time>
      </trkpt>
      <trkpt lat="43.71114" lon="5.99824">
        <ele>366.1</ele>
        <time>2023-06-11T12:44:37Z</time>
      </trkpt>
      <trkpt lat="43.71114" lon="5.99826">
        <ele>366.1</ele>
        <time>2023-06-11T12:44:38Z</time>
      </trkpt>
      <trkpt lat="43.71113" lon="5.99828">
        <ele>366.1</ele>
        <time>2023-06-11T12:44:39Z</time>
      </trkpt>
      <trkpt lat="43.71113" lon="5.9983">
        <ele>366.2</ele>
        <time>2023-06-11T12:44:40Z</time>
      </trkpt>
      <trkpt lat="43.71112" lon="5.99832">
        <ele>366.1</ele>
        <time>2023-06-11T12:44:41Z</time>
      </trkpt>
      <trkpt lat="43.71112" lon="5.99833">
        <ele>366.1</ele>
        <time>2023-06-11T12:44:42Z</time>
      </trkpt>
      <trkpt lat="43.71111" lon="5.99835">
        <ele>366</ele>
        <time>2023-06-11T12:44:43Z</time>
      </trkpt>
      <trkpt lat="43.71111" lon="5.99837">
        <ele>366</ele>
        <time>2023-06-11T12:44:44Z</time>
      </trkpt>
      <trkpt lat="43.7111" lon="5.99839">
        <ele>366</ele>
        <time>2023-06-11T12:44:45Z</time>
      </trkpt>
      <trkpt lat="43.7111" lon="5.99841">
        <ele>366</ele>
        <time>2023-06-11T12:44:46Z</time>
      </trkpt>
      <trkpt lat="43.71109" lon="5.99842">
        <ele>366</ele>
        <time>2023-06-11T12:44:47Z</time>
      </trkpt>
      <trkpt lat="43.71109" lon="5.99844">
        <ele>366.1</ele>
        <time>2023-06-11T12:44:48Z</time>
      </trkpt>
      <trkpt lat="43.71108" lon="5.99846">
        <ele>366.1</ele>
        <time>2023-06-11T12:44:49Z</time>
      </trkpt>
      <trkpt lat="43.71107" lon="5.99847">
        <ele>366.1</ele>
        <time>2023-06-11T12:44:50Z</time>
      </trkpt>
      <trkpt lat="43.71107" lon="5.99849">
        <ele>366</ele>
        <time>2023-06-11T12:44:51Z</time>
      </trkpt>
      <trkpt lat="43.71106" lon="5.99851">
        <ele>366</ele>
        <time>2023-06-11T12:44:52Z</time>
      </trkpt>
      <trkpt lat="43.71105" lon="5.99852">
        <ele>366</ele>
        <time>2023-06-11T12:44:53Z</time>
      </trkpt>
      <trkpt lat="43.71105" lon="5.99854">
        <ele>366</ele>
        <time>2023-06-11T12:44:54Z</time>
      </trkpt>
      <trkpt lat="43.71104" lon="5.99855">
        <ele>365.9</ele>
        <time>2023-06-11T12:44:55Z</time>
      </trkpt>
      <trkpt lat="43.71103" lon="5.99857">
        <ele>365.9</ele>
        <time>2023-06-11T12:44:56Z</time>
      </trkpt>
      <trkpt lat="43.71103" lon="5.99858">
        <ele>365.9</ele>
        <time>2023-06-11T12:44:57Z</time>
      </trkpt>
      <trkpt lat="43.71102" lon="5.9986">
        <ele>365.9</ele>
        <time>2023-06-11T12:44:58Z</time>
      </trkpt>
      <trkpt lat="43.71102" lon="5.99861">
        <ele>365.9</ele>
        <time>2023-06-11T12:44:59Z</time>
      </trkpt>
      <trkpt lat="43.71101" lon="5.99863">
        <ele>366</ele>
        <time>2023-06-11T12:45:00Z</time>
      </trkpt>
      <trkpt lat="43.71101" lon="5.99864">
        <ele>366</ele>
        <time>2023-06-11T12:45:01Z</time>
      </trkpt>
      <trkpt lat="43.711" lon="5.99866">
        <ele>366</ele>
        <time>2023-06-11T12:45:02Z</time>
      </trkpt>
      <trkpt lat="43.711" lon="5.99867">
        <ele>366</ele>
        <time>2023-06-11T12:45:03Z</time>
      </trkpt>
      <trkpt lat="43.71099" lon="5.99869">
        <ele>366</ele>
        <time>2023-06-11T12:45:04Z</time>
      </trkpt>
      <trkpt lat="43.71098" lon="5.9987">
        <ele>366</ele>
        <time>2023-06-11T12:45:05Z</time>
      </trkpt>
      <trkpt lat="43.71098" lon="5.99872">
        <ele>366</ele>
        <time>2023-06-11T12:45:06Z</time>
      </trkpt>
      <trkpt lat="43.71097" lon="5.99873">
        <ele>365.9</ele>
        <time>2023-06-11T12:45:07Z</time>
      </trkpt>
      <trkpt lat="43.71097" lon="5.99875">
        <ele>365.9</ele>
        <time>2023-06-11T12:45:08Z</time>
      </trkpt>
      <trkpt lat="43.71096" lon="5.99876">
        <ele>366</ele>
        <time>2023-06-11T12:45:09Z</time>
      </trkpt>
      <trkpt lat="43.71096" lon="5.99877">
        <ele>366.1</ele>
        <time>2023-06-11T12:45:10Z</time>
      </trkpt>
      <trkpt lat="43.71095" lon="5.99879">
        <ele>366.2</ele>
        <time>2023-06-11T12:45:11Z</time>
      </trkpt>
      <trkpt lat="43.71094" lon="5.9988">
        <ele>366.1</ele>
        <time>2023-06-11T12:45:12Z</time>
      </trkpt>
      <trkpt lat="43.71094" lon="5.99881">
        <ele>366.1</ele>
        <time>2023-06-11T12:45:13Z</time>
      </trkpt>
      <trkpt lat="43.71093" lon="5.99883">
        <ele>366.1</ele>
        <time>2023-06-11T12:45:14Z</time>
      </trkpt>
      <trkpt lat="43.71092" lon="5.99884">
        <ele>366.2</ele>
        <time>2023-06-11T12:45:15Z</time>
      </trkpt>
      <trkpt lat="43.71091" lon="5.99886">
        <ele>366.1</ele>
        <time>2023-06-11T12:45:16Z</time>
      </trkpt>
      <trkpt lat="43.7109" lon="5.99888">
        <ele>366.1</ele>
        <time>2023-06-11T12:45:17Z</time>
      </trkpt>
      <trkpt lat="43.71088" lon="5.99889">
        <ele>366.2</ele>
        <time>2023-06-11T12:45:18Z</time>
      </trkpt>
      <trkpt lat="43.71087" lon="5.99891">
        <ele>366.2</ele>
        <time>2023-06-11T12:45:19Z</time>
      </trkpt>
      <trkpt lat="43.71086" lon="5.99893">
        <ele>366.2</ele>
        <time>2023-06-11T12:45:20Z</time>
      </trkpt>
      <trkpt lat="43.71085" lon="5.99894">
        <ele>366.2</ele>
        <time>2023-06-11T12:45:21Z</time>
      </trkpt>
      <trkpt lat="43.71084" lon="5.99896">
        <ele>366.2</ele>
        <time>2023-06-11T12:45:22Z</time>
      </trkpt>
      <trkpt lat="43.71083" lon="5.99897">
        <ele>366.2</ele>
        <time>2023-06-11T12:45:23Z</time>
      </trkpt>
      <trkpt lat="43.71082" lon="5.99899">
        <ele>366.1</ele>
        <time>2023-06-11T12:45:24Z</time>
      </trkpt>
      <trkpt lat="43.71081" lon="5.999">
        <ele>366</ele>
        <time>2023-06-11T12:45:25Z</time>
      </trkpt>
      <trkpt lat="43.71081" lon="5.99902">
        <ele>365.9</ele>
        <time>2023-06-11T12:45:26Z</time>
      </trkpt>
      <trkpt lat="43.71081" lon="5.99903">
        <ele>365.9</ele>
        <time>2023-06-11T12:45:27Z</time>
      </trkpt>
      <trkpt lat="43.7108" lon="5.99904">
        <ele>365.8</ele>
        <time>2023-06-11T12:45:28Z</time>
      </trkpt>
      <trkpt lat="43.7108" lon="5.99905">
        <ele>365.8</ele>
        <time>2023-06-11T12:45:29Z</time>
      </trkpt>
      <trkpt lat="43.71079" lon="5.99907">
        <ele>365.8</ele>
        <time>2023-06-11T12:45:30Z</time>
      </trkpt>
      <trkpt lat="43.71079" lon="5.99908">
        <ele>365.8</ele>
        <time>2023-06-11T12:45:31Z</time>
      </trkpt>
      <trkpt lat="43.71078" lon="5.9991">
        <ele>365.8</ele>
        <time>2023-06-11T12:45:32Z</time>
      </trkpt>
      <trkpt lat="43.71078" lon="5.99911">
        <ele>365.8</ele>
        <time>2023-06-11T12:45:33Z</time>
      </trkpt>
      <trkpt lat="43.71077" lon="5.99912">
        <ele>365.8</ele>
        <time>2023-06-11T12:45:34Z</time>
      </trkpt>
      <trkpt lat="43.71076" lon="5.99914">
        <ele>365.8</ele>
        <time>2023-06-11T12:45:35Z</time>
      </trkpt>
      <trkpt lat="43.71076" lon="5.99915">
        <ele>365.9</ele>
        <time>2023-06-11T12:45:36Z</time>
      </trkpt>
      <trkpt lat="43.71075" lon="5.99916">
        <ele>365.9</ele>
        <time>2023-06-11T12:45:37Z</time>
      </trkpt>
      <trkpt lat="43.71074" lon="5.99918">
        <ele>365.9</ele>
        <time>2023-06-11T12:45:38Z</time>
      </trkpt>
      <trkpt lat="43.71074" lon="5.99919">
        <ele>365.9</ele>
        <time>2023-06-11T12:45:39Z</time>
      </trkpt>
      <trkpt lat="43.71073" lon="5.99921">
        <ele>366</ele>
        <time>2023-06-11T12:45:40Z</time>
      </trkpt>
      <trkpt lat="43.71073" lon="5.99922">
        <ele>366</ele>
        <time>2023-06-11T12:45:41Z</time>
      </trkpt>
      <trkpt lat="43.71072" lon="5.99923">
        <ele>366.1</ele>
        <time>2023-06-11T12:45:42Z</time>
      </trkpt>
      <trkpt lat="43.71071" lon="5.99925">
        <ele>366.1</ele>
        <time>2023-06-11T12:45:43Z</time>
      </trkpt>
      <trkpt lat="43.7107" lon="5.99927">
        <ele>366.2</ele>
        <time>2023-06-11T12:45:44Z</time>
      </trkpt>
      <trkpt lat="43.71069" lon="5.99928">
        <ele>366.3</ele>
        <time>2023-06-11T12:45:45Z</time>
      </trkpt>
      <trkpt lat="43.71068" lon="5.9993">
        <ele>366.4</ele>
        <time>2023-06-11T12:45:46Z</time>
      </trkpt>
      <trkpt lat="43.71068" lon="5.99931">
        <ele>366.4</ele>
        <time>2023-06-11T12:45:47Z</time>
      </trkpt>
      <trkpt lat="43.71067" lon="5.99932">
        <ele>366.5</ele>
        <time>2023-06-11T12:45:48Z</time>
      </trkpt>
      <trkpt lat="43.71066" lon="5.99934">
        <ele>366.5</ele>
        <time>2023-06-11T12:45:49Z</time>
      </trkpt>
      <trkpt lat="43.71065" lon="5.99935">
        <ele>366.6</ele>
        <time>2023-06-11T12:45:50Z</time>
      </trkpt>
      <trkpt lat="43.71065" lon="5.99937">
        <ele>366.5</ele>
        <time>2023-06-11T12:45:51Z</time>
      </trkpt>
      <trkpt lat="43.71064" lon="5.99938">
        <ele>366.4</ele>
        <time>2023-06-11T12:45:52Z</time>
      </trkpt>
      <trkpt lat="43.71063" lon="5.9994">
        <ele>366.4</ele>
        <time>2023-06-11T12:45:53Z</time>
      </trkpt>
      <trkpt lat="43.71062" lon="5.99941">
        <ele>366.5</ele>
        <time>2023-06-11T12:45:54Z</time>
      </trkpt>
      <trkpt lat="43.71061" lon="5.99943">
        <ele>366.4</ele>
        <time>2023-06-11T12:45:55Z</time>
      </trkpt>
      <trkpt lat="43.71061" lon="5.99944">
        <ele>366.4</ele>
        <time>2023-06-11T12:45:56Z</time>
      </trkpt>
      <trkpt lat="43.7106" lon="5.99946">
        <ele>366.4</ele>
        <time>2023-06-11T12:45:57Z</time>
      </trkpt>
      <trkpt lat="43.71059" lon="5.99947">
        <ele>366.3</ele>
        <time>2023-06-11T12:45:58Z</time>
      </trkpt>
      <trkpt lat="43.71058" lon="5.99949">
        <ele>366.3</ele>
        <time>2023-06-11T12:45:59Z</time>
      </trkpt>
      <trkpt lat="43.71057" lon="5.9995">
        <ele>366.2</ele>
        <time>2023-06-11T12:46:00Z</time>
      </trkpt>
      <trkpt lat="43.71057" lon="5.99952">
        <ele>366.2</ele>
        <time>2023-06-11T12:46:01Z</time>
      </trkpt>
      <trkpt lat="43.71056" lon="5.99953">
        <ele>366.3</ele>
        <time>2023-06-11T12:46:02Z</time>
      </trkpt>
      <trkpt lat="43.71055" lon="5.99955">
        <ele>366.3</ele>
        <time>2023-06-11T12:46:03Z</time>
      </trkpt>
      <trkpt lat="43.71054" lon="5.99956">
        <ele>366.3</ele>
        <time>2023-06-11T12:46:04Z</time>
      </trkpt>
      <trkpt lat="43.71054" lon="5.99958">
        <ele>366.4</ele>
        <time>2023-06-11T12:46:05Z</time>
      </trkpt>
      <trkpt lat="43.71053" lon="5.99959">
        <ele>366.4</ele>
        <time>2023-06-11T12:46:06Z</time>
      </trkpt>
      <trkpt lat="43.71052" lon="5.99961">
        <ele>366.4</ele>
        <time>2023-06-11T12:46:07Z</time>
      </trkpt>
      <trkpt lat="43.71051" lon="5.99962">
        <ele>366.4</ele>
        <time>2023-06-11T12:46:08Z</time>
      </trkpt>
      <trkpt lat="43.71051" lon="5.99964">
        <ele>366.4</ele>
        <time>2023-06-11T12:46:09Z</time>
      </trkpt>
      <trkpt lat="43.7105" lon="5.99965">
        <ele>366.4</ele>
        <time>2023-06-11T12:46:10Z</time>
      </trkpt>
      <trkpt lat="43.71049" lon="5.99967">
        <ele>366.3</ele>
        <time>2023-06-11T12:46:11Z</time>
      </trkpt>
      <trkpt lat="43.71048" lon="5.99968">
        <ele>366.3</ele>
        <time>2023-06-11T12:46:12Z</time>
      </trkpt>
      <trkpt lat="43.71047" lon="5.9997">
        <ele>366.2</ele>
        <time>2023-06-11T12:46:13Z</time>
      </trkpt>
      <trkpt lat="43.71046" lon="5.99971">
        <ele>366.2</ele>
        <time>2023-06-11T12:46:14Z</time>
      </trkpt>
      <trkpt lat="43.71045" lon="5.99973">
        <ele>366.3</ele>
        <time>2023-06-11T12:46:15Z</time>
      </trkpt>
      <trkpt lat="43.71045" lon="5.99974">
        <ele>366.3</ele>
        <time>2023-06-11T12:46:16Z</time>
      </trkpt>
      <trkpt lat="43.71044" lon="5.99976">
        <ele>366.3</ele>
        <time>2023-06-11T12:46:17Z</time>
      </trkpt>
      <trkpt lat="43.71042" lon="5.99977">
        <ele>366.3</ele>
        <time>2023-06-11T12:46:18Z</time>
      </trkpt>
      <trkpt lat="43.71042" lon="5.99979">
        <ele>366.3</ele>
        <time>2023-06-11T12:46:19Z</time>
      </trkpt>
      <trkpt lat="43.71041" lon="5.9998">
        <ele>366.3</ele>
        <time>2023-06-11T12:46:20Z</time>
      </trkpt>
      <trkpt lat="43.71039" lon="5.99982">
        <ele>366.3</ele>
        <time>2023-06-11T12:46:21Z</time>
      </trkpt>
      <trkpt lat="43.71038" lon="5.99983">
        <ele>366.3</ele>
        <time>2023-06-11T12:46:22Z</time>
      </trkpt>
      <trkpt lat="43.71037" lon="5.99985">
        <ele>366.3</ele>
        <time>2023-06-11T12:46:23Z</time>
      </trkpt>
      <trkpt lat="43.71036" lon="5.99987">
        <ele>366.3</ele>
        <time>2023-06-11T12:46:24Z</time>
      </trkpt>
      <trkpt lat="43.71035" lon="5.99988">
        <ele>366.3</ele>
        <time>2023-06-11T12:46:25Z</time>
      </trkpt>
      <trkpt lat="43.71035" lon="5.9999">
        <ele>366.3</ele>
        <time>2023-06-11T12:46:26Z</time>
      </trkpt>
      <trkpt lat="43.71034" lon="5.99991">
        <ele>366.3</ele>
        <time>2023-06-11T12:46:27Z</time>
      </trkpt>
      <trkpt lat="43.71033" lon="5.99993">
        <ele>366.2</ele>
        <time>2023-06-11T12:46:28Z</time>
      </trkpt>
      <trkpt lat="43.71032" lon="5.99994">
        <ele>366.2</ele>
        <time>2023-06-11T12:46:29Z</time>
      </trkpt>
      <trkpt lat="43.71031" lon="5.99996">
        <ele>366.2</ele>
        <time>2023-06-11T12:46:30Z</time>
      </trkpt>
      <trkpt lat="43.7103" lon="5.99997">
        <ele>366.2</ele>
        <time>2023-06-11T12:46:31Z</time>
      </trkpt>
      <trkpt lat="43.7103" lon="5.99999">
        <ele>366.1</ele>
        <time>2023-06-11T12:46:32Z</time>
      </trkpt>
      <trkpt lat="43.71029" lon="6">
        <ele>366.1</ele>
        <time>2023-06-11T12:46:33Z</time>
      </trkpt>
      <trkpt lat="43.71028" lon="6.00002">
        <ele>366.1</ele>
        <time>2023-06-11T12:46:34Z</time>
      </trkpt>
      <trkpt lat="43.71027" lon="6.00004">
        <ele>366.1</ele>
        <time>2023-06-11T12:46:35Z</time>
      </trkpt>
      <trkpt lat="43.71026" lon="6.00005">
        <ele>366.1</ele>
        <time>2023-06-11T12:46:36Z</time>
      </trkpt>
      <trkpt lat="43.71025" lon="6.00007">
        <ele>366.1</ele>
        <time>2023-06-11T12:46:37Z</time>
      </trkpt>
      <trkpt lat="43.71025" lon="6.00008">
        <ele>366.1</ele>
        <time>2023-06-11T12:46:38Z</time>
      </trkpt>
      <trkpt lat="43.71024" lon="6.0001">
        <ele>366</ele>
        <time>2023-06-11T12:46:39Z</time>
      </trkpt>
      <trkpt lat="43.71023" lon="6.00011">
        <ele>366.1</ele>
        <time>2023-06-11T12:46:40Z</time>
      </trkpt>
      <trkpt lat="43.71022" lon="6.00013">
        <ele>366.1</ele>
        <time>2023-06-11T12:46:41Z</time>
      </trkpt>
      <trkpt lat="43.71021" lon="6.00014">
        <ele>366.2</ele>
        <time>2023-06-11T12:46:42Z</time>
      </trkpt>
      <trkpt lat="43.7102" lon="6.00016">
        <ele>366.2</ele>
        <time>2023-06-11T12:46:43Z</time>
      </trkpt>
      <trkpt lat="43.71019" lon="6.00017">
        <ele>366.1</ele>
        <time>2023-06-11T12:46:44Z</time>
      </trkpt>
      <trkpt lat="43.71018" lon="6.00019">
        <ele>366.1</ele>
        <time>2023-06-11T12:46:45Z</time>
      </trkpt>
      <trkpt lat="43.71017" lon="6.0002">
        <ele>366.1</ele>
        <time>2023-06-11T12:46:46Z</time>
      </trkpt>
      <trkpt lat="43.71016" lon="6.00022">
        <ele>366.1</ele>
        <time>2023-06-11T12:46:47Z</time>
      </trkpt>
      <trkpt lat="43.71015" lon="6.00023">
        <ele>366.1</ele>
        <time>2023-06-11T12:46:48Z</time>
      </trkpt>
      <trkpt lat="43.71014" lon="6.00025">
        <ele>366.1</ele>
        <time>2023-06-11T12:46:49Z</time>
      </trkpt>
      <trkpt lat="43.71013" lon="6.00026">
        <ele>366.1</ele>
        <time>2023-06-11T12:46:50Z</time>
      </trkpt>
      <trkpt lat="43.71012" lon="6.00028">
        <ele>366.1</ele>
        <time>2023-06-11T12:46:51Z</time>
      </trkpt>
      <trkpt lat="43.7101" lon="6.00029">
        <ele>366.1</ele>
        <time>2023-06-11T12:46:52Z</time>
      </trkpt>
      <trkpt lat="43.71009" lon="6.00031">
        <ele>366.1</ele>
        <time>2023-06-11T12:46:53Z</time>
      </trkpt>
      <trkpt lat="43.71008" lon="6.00032">
        <ele>366</ele>
        <time>2023-06-11T12:46:54Z</time>
      </trkpt>
      <trkpt lat="43.71007" lon="6.00034">
        <ele>366.1</ele>
        <time>2023-06-11T12:46:55Z</time>
      </trkpt>
      <trkpt lat="43.71006" lon="6.00035">
        <ele>366.1</ele>
        <time>2023-06-11T12:46:56Z</time>
      </trkpt>
      <trkpt lat="43.71005" lon="6.00037">
        <ele>366.1</ele>
        <time>2023-06-11T12:46:57Z</time>
      </trkpt>
      <trkpt lat="43.71004" lon="6.00038">
        <ele>366.1</ele>
        <time>2023-06-11T12:46:58Z</time>
      </trkpt>
      <trkpt lat="43.71003" lon="6.00039">
        <ele>366.2</ele>
        <time>2023-06-11T12:46:59Z</time>
      </trkpt>
      <trkpt lat="43.71001" lon="6.00041">
        <ele>366.2</ele>
        <time>2023-06-11T12:47:00Z</time>
      </trkpt>
      <trkpt lat="43.71" lon="6.00042">
        <ele>366.2</ele>
        <time>2023-06-11T12:47:01Z</time>
      </trkpt>
      <trkpt lat="43.70999" lon="6.00043">
        <ele>366.2</ele>
        <time>2023-06-11T12:47:02Z</time>
      </trkpt>
      <trkpt lat="43.70998" lon="6.00045">
        <ele>366.3</ele>
        <time>2023-06-11T12:47:03Z</time>
      </trkpt>
      <trkpt lat="43.70996" lon="6.00046">
        <ele>366.3</ele>
        <time>2023-06-11T12:47:04Z</time>
      </trkpt>
      <trkpt lat="43.70996" lon="6.00048">
        <ele>366.3</ele>
        <time>2023-06-11T12:47:05Z</time>
      </trkpt>
      <trkpt lat="43.70994" lon="6.00049">
        <ele>366.3</ele>
        <time>2023-06-11T12:47:06Z</time>
      </trkpt>
      <trkpt lat="43.70993" lon="6.00051">
        <ele>366.3</ele>
        <time>2023-06-11T12:47:07Z</time>
      </trkpt>
      <trkpt lat="43.70992" lon="6.00052">
        <ele>366.2</ele>
        <time>2023-06-11T12:47:08Z</time>
      </trkpt>
      <trkpt lat="43.70991" lon="6.00053">
        <ele>366.2</ele>
        <time>2023-06-11T12:47:09Z</time>
      </trkpt>
      <trkpt lat="43.7099" lon="6.00055">
        <ele>366.2</ele>
        <time>2023-06-11T12:47:10Z</time>
      </trkpt>
      <trkpt lat="43.70989" lon="6.00056">
        <ele>366.1</ele>
        <time>2023-06-11T12:47:11Z</time>
      </trkpt>
      <trkpt lat="43.70988" lon="6.00057">
        <ele>366.2</ele>
        <time>2023-06-11T12:47:12Z</time>
      </trkpt>
      <trkpt lat="43.70986" lon="6.00059">
        <ele>366.2</ele>
        <time>2023-06-11T12:47:13Z</time>
      </trkpt>
      <trkpt lat="43.70985" lon="6.00061">
        <ele>366.1</ele>
        <time>2023-06-11T12:47:14Z</time>
      </trkpt>
      <trkpt lat="43.70984" lon="6.00062">
        <ele>366.1</ele>
        <time>2023-06-11T12:47:15Z</time>
      </trkpt>
      <trkpt lat="43.70983" lon="6.00064">
        <ele>366.1</ele>
        <time>2023-06-11T12:47:16Z</time>
      </trkpt>
      <trkpt lat="43.70983" lon="6.00065">
        <ele>366.1</ele>
        <time>2023-06-11T12:47:17Z</time>
      </trkpt>
      <trkpt lat="43.70982" lon="6.00066">
        <ele>366.2</ele>
        <time>2023-06-11T12:47:18Z</time>
      </trkpt>
      <trkpt lat="43.70981" lon="6.00068">
        <ele>366.2</ele>
        <time>2023-06-11T12:47:19Z</time>
      </trkpt>
      <trkpt lat="43.7098" lon="6.00069">
        <ele>366.2</ele>
        <time>2023-06-11T12:47:20Z</time>
      </trkpt>
      <trkpt lat="43.70979" lon="6.0007">
        <ele>366.2</ele>
        <time>2023-06-11T12:47:21Z</time>
      </trkpt>
      <trkpt lat="43.70978" lon="6.00072">
        <ele>366.2</ele>
        <time>2023-06-11T12:47:22Z</time>
      </trkpt>
      <trkpt lat="43.70977" lon="6.00073">
        <ele>366.1</ele>
        <time>2023-06-11T12:47:23Z</time>
      </trkpt>
      <trkpt lat="43.70977" lon="6.00075">
        <ele>366</ele>
        <time>2023-06-11T12:47:24Z</time>
      </trkpt>
      <trkpt lat="43.70976" lon="6.00076">
        <ele>366</ele>
        <time>2023-06-11T12:47:25Z</time>
      </trkpt>
      <trkpt lat="43.70975" lon="6.00078">
        <ele>366</ele>
        <time>2023-06-11T12:47:26Z</time>
      </trkpt>
      <trkpt lat="43.70974" lon="6.00079">
        <ele>366</ele>
        <time>2023-06-11T12:47:27Z</time>
      </trkpt>
      <trkpt lat="43.70973" lon="6.0008">
        <ele>366</ele>
        <time>2023-06-11T12:47:28Z</time>
      </trkpt>
      <trkpt lat="43.70973" lon="6.00082">
        <ele>366</ele>
        <time>2023-06-11T12:47:29Z</time>
      </trkpt>
      <trkpt lat="43.70972" lon="6.00083">
        <ele>366</ele>
        <time>2023-06-11T12:47:30Z</time>
      </trkpt>
      <trkpt lat="43.70971" lon="6.00084">
        <ele>365.9</ele>
        <time>2023-06-11T12:47:31Z</time>
      </trkpt>
      <trkpt lat="43.7097" lon="6.00086">
        <ele>365.8</ele>
        <time>2023-06-11T12:47:32Z</time>
      </trkpt>
      <trkpt lat="43.7097" lon="6.00087">
        <ele>365.8</ele>
        <time>2023-06-11T12:47:33Z</time>
      </trkpt>
      <trkpt lat="43.7097" lon="6.00088">
        <ele>365.8</ele>
        <time>2023-06-11T12:47:34Z</time>
      </trkpt>
      <trkpt lat="43.70969" lon="6.0009">
        <ele>365.8</ele>
        <time>2023-06-11T12:47:35Z</time>
      </trkpt>
      <trkpt lat="43.70968" lon="6.00091">
        <ele>365.8</ele>
        <time>2023-06-11T12:47:36Z</time>
      </trkpt>
      <trkpt lat="43.70968" lon="6.00092">
        <ele>365.8</ele>
        <time>2023-06-11T12:47:37Z</time>
      </trkpt>
      <trkpt lat="43.70967" lon="6.00093">
        <ele>365.9</ele>
        <time>2023-06-11T12:47:38Z</time>
      </trkpt>
      <trkpt lat="43.70966" lon="6.00094">
        <ele>365.9</ele>
        <time>2023-06-11T12:47:39Z</time>
      </trkpt>
      <trkpt lat="43.70965" lon="6.00095">
        <ele>366</ele>
        <time>2023-06-11T12:47:40Z</time>
      </trkpt>
      <trkpt lat="43.70964" lon="6.00097">
        <ele>366.1</ele>
        <time>2023-06-11T12:47:41Z</time>
      </trkpt>
      <trkpt lat="43.70964" lon="6.00098">
        <ele>366.2</ele>
        <time>2023-06-11T12:47:42Z</time>
      </trkpt>
      <trkpt lat="43.70963" lon="6.00099">
        <ele>366.2</ele>
        <time>2023-06-11T12:47:43Z</time>
      </trkpt>
      <trkpt lat="43.70962" lon="6.001">
        <ele>366.2</ele>
        <time>2023-06-11T12:47:44Z</time>
      </trkpt>
      <trkpt lat="43.70961" lon="6.00101">
        <ele>366.2</ele>
        <time>2023-06-11T12:47:45Z</time>
      </trkpt>
      <trkpt lat="43.7096" lon="6.00103">
        <ele>366.1</ele>
        <time>2023-06-11T12:47:46Z</time>
      </trkpt>
      <trkpt lat="43.7096" lon="6.00104">
        <ele>366.1</ele>
        <time>2023-06-11T12:47:47Z</time>
      </trkpt>
      <trkpt lat="43.70959" lon="6.00105">
        <ele>366.2</ele>
        <time>2023-06-11T12:47:48Z</time>
      </trkpt>
      <trkpt lat="43.70958" lon="6.00106">
        <ele>366.1</ele>
        <time>2023-06-11T12:47:49Z</time>
      </trkpt>
      <trkpt lat="43.70957" lon="6.00108">
        <ele>366</ele>
        <time>2023-06-11T12:47:50Z</time>
      </trkpt>
      <trkpt lat="43.70957" lon="6.00109">
        <ele>366</ele>
        <time>2023-06-11T12:47:51Z</time>
      </trkpt>
      <trkpt lat="43.70956" lon="6.0011">
        <ele>366</ele>
        <time>2023-06-11T12:47:52Z</time>
      </trkpt>
      <trkpt lat="43.70955" lon="6.00112">
        <ele>365.9</ele>
        <time>2023-06-11T12:47:53Z</time>
      </trkpt>
      <trkpt lat="43.70954" lon="6.00113">
        <ele>365.9</ele>
        <time>2023-06-11T12:47:54Z</time>
      </trkpt>
      <trkpt lat="43.70954" lon="6.00114">
        <ele>365.9</ele>
        <time>2023-06-11T12:47:55Z</time>
      </trkpt>
      <trkpt lat="43.70953" lon="6.00116">
        <ele>366</ele>
        <time>2023-06-11T12:47:56Z</time>
      </trkpt>
      <trkpt lat="43.70952" lon="6.00117">
        <ele>366</ele>
        <time>2023-06-11T12:47:57Z</time>
      </trkpt>
      <trkpt lat="43.70951" lon="6.00118">
        <ele>366</ele>
        <time>2023-06-11T12:47:58Z</time>
      </trkpt>
      <trkpt lat="43.7095" lon="6.0012">
        <ele>365.9</ele>
        <time>2023-06-11T12:47:59Z</time>
      </trkpt>
      <trkpt lat="43.7095" lon="6.00121">
        <ele>365.9</ele>
        <time>2023-06-11T12:48:00Z</time>
      </trkpt>
      <trkpt lat="43.70949" lon="6.00122">
        <ele>365.9</ele>
        <time>2023-06-11T12:48:01Z</time>
      </trkpt>
      <trkpt lat="43.70948" lon="6.00123">
        <ele>365.9</ele>
        <time>2023-06-11T12:48:02Z</time>
      </trkpt>
      <trkpt lat="43.70947" lon="6.00125">
        <ele>365.9</ele>
        <time>2023-06-11T12:48:03Z</time>
      </trkpt>
      <trkpt lat="43.70946" lon="6.00126">
        <ele>365.8</ele>
        <time>2023-06-11T12:48:04Z</time>
      </trkpt>
      <trkpt lat="43.70945" lon="6.00127">
        <ele>365.9</ele>
        <time>2023-06-11T12:48:05Z</time>
      </trkpt>
      <trkpt lat="43.70945" lon="6.00129">
        <ele>365.8</ele>
        <time>2023-06-11T12:48:06Z</time>
      </trkpt>
      <trkpt lat="43.70943" lon="6.0013">
        <ele>365.8</ele>
        <time>2023-06-11T12:48:07Z</time>
      </trkpt>
      <trkpt lat="43.70942" lon="6.00132">
        <ele>365.8</ele>
        <time>2023-06-11T12:48:08Z</time>
      </trkpt>
      <trkpt lat="43.70941" lon="6.00133">
        <ele>365.9</ele>
        <time>2023-06-11T12:48:09Z</time>
      </trkpt>
      <trkpt lat="43.7094" lon="6.00134">
        <ele>365.9</ele>
        <time>2023-06-11T12:48:10Z</time>
      </trkpt>
      <trkpt lat="43.70938" lon="6.00136">
        <ele>365.9</ele>
        <time>2023-06-11T12:48:11Z</time>
      </trkpt>
      <trkpt lat="43.70937" lon="6.00137">
        <ele>365.9</ele>
        <time>2023-06-11T12:48:12Z</time>
      </trkpt>
      <trkpt lat="43.70936" lon="6.00138">
        <ele>365.9</ele>
        <time>2023-06-11T12:48:13Z</time>
      </trkpt>
      <trkpt lat="43.70935" lon="6.0014">
        <ele>366</ele>
        <time>2023-06-11T12:48:14Z</time>
      </trkpt>
      <trkpt lat="43.70934" lon="6.00141">
        <ele>366.1</ele>
        <time>2023-06-11T12:48:15Z</time>
      </trkpt>
      <trkpt lat="43.70933" lon="6.00143">
        <ele>366.1</ele>
        <time>2023-06-11T12:48:16Z</time>
      </trkpt>
      <trkpt lat="43.70933" lon="6.00144">
        <ele>366.1</ele>
        <time>2023-06-11T12:48:17Z</time>
      </trkpt>
      <trkpt lat="43.70932" lon="6.00145">
        <ele>366.1</ele>
        <time>2023-06-11T12:48:18Z</time>
      </trkpt>
      <trkpt lat="43.70931" lon="6.00147">
        <ele>366.1</ele>
        <time>2023-06-11T12:48:19Z</time>
      </trkpt>
      <trkpt lat="43.7093" lon="6.00148">
        <ele>366.2</ele>
        <time>2023-06-11T12:48:20Z</time>
      </trkpt>
      <trkpt lat="43.70929" lon="6.00149">
        <ele>366.3</ele>
        <time>2023-06-11T12:48:21Z</time>
      </trkpt>
      <trkpt lat="43.70929" lon="6.00151">
        <ele>366.2</ele>
        <time>2023-06-11T12:48:22Z</time>
      </trkpt>
      <trkpt lat="43.70927" lon="6.00152">
        <ele>366.2</ele>
        <time>2023-06-11T12:48:23Z</time>
      </trkpt>
      <trkpt lat="43.70927" lon="6.00153">
        <ele>366.3</ele>
        <time>2023-06-11T12:48:24Z</time>
      </trkpt>
      <trkpt lat="43.70926" lon="6.00154">
        <ele>366.3</ele>
        <time>2023-06-11T12:48:25Z</time>
      </trkpt>
      <trkpt lat="43.70925" lon="6.00156">
        <ele>366.4</ele>
        <time>2023-06-11T12:48:26Z</time>
      </trkpt>
      <trkpt lat="43.70924" lon="6.00157">
        <ele>366.4</ele>
        <time>2023-06-11T12:48:27Z</time>
      </trkpt>
      <trkpt lat="43.70924" lon="6.00158">
        <ele>366.4</ele>
        <time>2023-06-11T12:48:28Z</time>
      </trkpt>
      <trkpt lat="43.70923" lon="6.0016">
        <ele>366.4</ele>
        <time>2023-06-11T12:48:29Z</time>
      </trkpt>
      <trkpt lat="43.70923" lon="6.00161">
        <ele>366.3</ele>
        <time>2023-06-11T12:48:30Z</time>
      </trkpt>
      <trkpt lat="43.70922" lon="6.00162">
        <ele>366.3</ele>
        <time>2023-06-11T12:48:31Z</time>
      </trkpt>
      <trkpt lat="43.70921" lon="6.00164">
        <ele>366.2</ele>
        <time>2023-06-11T12:48:32Z</time>
      </trkpt>
      <trkpt lat="43.70921" lon="6.00165">
        <ele>366.2</ele>
        <time>2023-06-11T12:48:33Z</time>
      </trkpt>
      <trkpt lat="43.7092" lon="6.00166">
        <ele>366.2</ele>
        <time>2023-06-11T12:48:34Z</time>
      </trkpt>
      <trkpt lat="43.70919" lon="6.00167">
        <ele>366.1</ele>
        <time>2023-06-11T12:48:35Z</time>
      </trkpt>
      <trkpt lat="43.70918" lon="6.00169">
        <ele>366.1</ele>
        <time>2023-06-11T12:48:36Z</time>
      </trkpt>
      <trkpt lat="43.70918" lon="6.0017">
        <ele>366.1</ele>
        <time>2023-06-11T12:48:37Z</time>
      </trkpt>
      <trkpt lat="43.70917" lon="6.00171">
        <ele>366.1</ele>
        <time>2023-06-11T12:48:38Z</time>
      </trkpt>
      <trkpt lat="43.70916" lon="6.00172">
        <ele>366.1</ele>
        <time>2023-06-11T12:48:39Z</time>
      </trkpt>
      <trkpt lat="43.70915" lon="6.00174">
        <ele>366.2</ele>
        <time>2023-06-11T12:48:40Z</time>
      </trkpt>
      <trkpt lat="43.70914" lon="6.00175">
        <ele>366.2</ele>
        <time>2023-06-11T12:48:41Z</time>
      </trkpt>
      <trkpt lat="43.70913" lon="6.00176">
        <ele>366.2</ele>
        <time>2023-06-11T12:48:42Z</time>
      </trkpt>
      <trkpt lat="43.70912" lon="6.00177">
        <ele>366.2</ele>
        <time>2023-06-11T12:48:43Z</time>
      </trkpt>
      <trkpt lat="43.70911" lon="6.00178">
        <ele>366.2</ele>
        <time>2023-06-11T12:48:44Z</time>
      </trkpt>
      <trkpt lat="43.7091" lon="6.00179">
        <ele>366.1</ele>
        <time>2023-06-11T12:48:45Z</time>
      </trkpt>
      <trkpt lat="43.70909" lon="6.0018">
        <ele>366.1</ele>
        <time>2023-06-11T12:48:46Z</time>
      </trkpt>
      <trkpt lat="43.70908" lon="6.00182">
        <ele>366.1</ele>
        <time>2023-06-11T12:48:47Z</time>
      </trkpt>
      <trkpt lat="43.70908" lon="6.00183">
        <ele>366</ele>
        <time>2023-06-11T12:48:48Z</time>
      </trkpt>
      <trkpt lat="43.70907" lon="6.00184">
        <ele>366</ele>
        <time>2023-06-11T12:48:49Z</time>
      </trkpt>
      <trkpt lat="43.70906" lon="6.00186">
        <ele>366</ele>
        <time>2023-06-11T12:48:50Z</time>
      </trkpt>
      <trkpt lat="43.70905" lon="6.00187">
        <ele>366.1</ele>
        <time>2023-06-11T12:48:51Z</time>
      </trkpt>
      <trkpt lat="43.70904" lon="6.00188">
        <ele>366.1</ele>
        <time>2023-06-11T12:48:52Z</time>
      </trkpt>
      <trkpt lat="43.70904" lon="6.00189">
        <ele>366.1</ele>
        <time>2023-06-11T12:48:53Z</time>
      </trkpt>
      <trkpt lat="43.70903" lon="6.0019">
        <ele>366.2</ele>
        <time>2023-06-11T12:48:54Z</time>
      </trkpt>
      <trkpt lat="43.70901" lon="6.00191">
        <ele>366.2</ele>
        <time>2023-06-11T12:48:55Z</time>
      </trkpt>
      <trkpt lat="43.70898" lon="6.00193">
        <ele>366.2</ele>
        <time>2023-06-11T12:48:56Z</time>
      </trkpt>
      <trkpt lat="43.70896" lon="6.00194">
        <ele>366.2</ele>
        <time>2023-06-11T12:48:57Z</time>
      </trkpt>
      <trkpt lat="43.70894" lon="6.00196">
        <ele>366.2</ele>
        <time>2023-06-11T12:48:58Z</time>
      </trkpt>
      <trkpt lat="43.70892" lon="6.00198">
        <ele>366.1</ele>
        <time>2023-06-11T12:48:59Z</time>
      </trkpt>
      <trkpt lat="43.7089" lon="6.00199">
        <ele>366.1</ele>
        <time>2023-06-11T12:49:00Z</time>
      </trkpt>
      <trkpt lat="43.70889" lon="6.00201">
        <ele>366.1</ele>
        <time>2023-06-11T12:49:01Z</time>
      </trkpt>
      <trkpt lat="43.70887" lon="6.00203">
        <ele>366</ele>
        <time>2023-06-11T12:49:02Z</time>
      </trkpt>
      <trkpt lat="43.70886" lon="6.00204">
        <ele>366</ele>
        <time>2023-06-11T12:49:03Z</time>
      </trkpt>
      <trkpt lat="43.70885" lon="6.00206">
        <ele>366</ele>
        <time>2023-06-11T12:49:04Z</time>
      </trkpt>
      <trkpt lat="43.70883" lon="6.00207">
        <ele>366</ele>
        <time>2023-06-11T12:49:05Z</time>
      </trkpt>
      <trkpt lat="43.70882" lon="6.00209">
        <ele>366</ele>
        <time>2023-06-11T12:49:06Z</time>
      </trkpt>
      <trkpt lat="43.70881" lon="6.00211">
        <ele>365.9</ele>
        <time>2023-06-11T12:49:07Z</time>
      </trkpt>
      <trkpt lat="43.7088" lon="6.00212">
        <ele>365.9</ele>
        <time>2023-06-11T12:49:08Z</time>
      </trkpt>
      <trkpt lat="43.70879" lon="6.00214">
        <ele>365.9</ele>
        <time>2023-06-11T12:49:09Z</time>
      </trkpt>
      <trkpt lat="43.70878" lon="6.00215">
        <ele>366</ele>
        <time>2023-06-11T12:49:10Z</time>
      </trkpt>
      <trkpt lat="43.70877" lon="6.00217">
        <ele>366.1</ele>
        <time>2023-06-11T12:49:11Z</time>
      </trkpt>
      <trkpt lat="43.70876" lon="6.00219">
        <ele>366.1</ele>
        <time>2023-06-11T12:49:12Z</time>
      </trkpt>
      <trkpt lat="43.70876" lon="6.0022">
        <ele>366.1</ele>
        <time>2023-06-11T12:49:13Z</time>
      </trkpt>
      <trkpt lat="43.70875" lon="6.00222">
        <ele>366.1</ele>
        <time>2023-06-11T12:49:14Z</time>
      </trkpt>
      <trkpt lat="43.70874" lon="6.00223">
        <ele>366</ele>
        <time>2023-06-11T12:49:15Z</time>
      </trkpt>
      <trkpt lat="43.70873" lon="6.00225">
        <ele>366</ele>
        <time>2023-06-11T12:49:16Z</time>
      </trkpt>
      <trkpt lat="43.70872" lon="6.00227">
        <ele>366</ele>
        <time>2023-06-11T12:49:17Z</time>
      </trkpt>
      <trkpt lat="43.70871" lon="6.00228">
        <ele>366</ele>
        <time>2023-06-11T12:49:18Z</time>
      </trkpt>
      <trkpt lat="43.70871" lon="6.0023">
        <ele>366</ele>
        <time>2023-06-11T12:49:19Z</time>
      </trkpt>
      <trkpt lat="43.7087" lon="6.00231">
        <ele>366.1</ele>
        <time>2023-06-11T12:49:20Z</time>
      </trkpt>
      <trkpt lat="43.70869" lon="6.00233">
        <ele>366.2</ele>
        <time>2023-06-11T12:49:21Z</time>
      </trkpt>
      <trkpt lat="43.70868" lon="6.00234">
        <ele>366.3</ele>
        <time>2023-06-11T12:49:22Z</time>
      </trkpt>
      <trkpt lat="43.70867" lon="6.00236">
        <ele>366.3</ele>
        <time>2023-06-11T12:49:23Z</time>
      </trkpt>
      <trkpt lat="43.70867" lon="6.00237">
        <ele>366.3</ele>
        <time>2023-06-11T12:49:24Z</time>
      </trkpt>
      <trkpt lat="43.70866" lon="6.00239">
        <ele>366.4</ele>
        <time>2023-06-11T12:49:25Z</time>
      </trkpt>
      <trkpt lat="43.70865" lon="6.0024">
        <ele>366.3</ele>
        <time>2023-06-11T12:49:26Z</time>
      </trkpt>
      <trkpt lat="43.70864" lon="6.00242">
        <ele>366.3</ele>
        <time>2023-06-11T12:49:27Z</time>
      </trkpt>
      <trkpt lat="43.70864" lon="6.00243">
        <ele>366.3</ele>
        <time>2023-06-11T12:49:28Z</time>
      </trkpt>
      <trkpt lat="43.70863" lon="6.00245">
        <ele>366.3</ele>
        <time>2023-06-11T12:49:29Z</time>
      </trkpt>
      <trkpt lat="43.70862" lon="6.00246">
        <ele>366.5</ele>
        <time>2023-06-11T12:49:30Z</time>
      </trkpt>
      <trkpt lat="43.70861" lon="6.00248">
        <ele>366.5</ele>
        <time>2023-06-11T12:49:31Z</time>
      </trkpt>
      <trkpt lat="43.7086" lon="6.00249">
        <ele>366.6</ele>
        <time>2023-06-11T12:49:32Z</time>
      </trkpt>
      <trkpt lat="43.70859" lon="6.00251">
        <ele>366.7</ele>
        <time>2023-06-11T12:49:33Z</time>
      </trkpt>
      <trkpt lat="43.70859" lon="6.00252">
        <ele>366.8</ele>
        <time>2023-06-11T12:49:34Z</time>
      </trkpt>
      <trkpt lat="43.70858" lon="6.00254">
        <ele>366.8</ele>
        <time>2023-06-11T12:49:35Z</time>
      </trkpt>
      <trkpt lat="43.70857" lon="6.00255">
        <ele>366.8</ele>
        <time>2023-06-11T12:49:36Z</time>
      </trkpt>
      <trkpt lat="43.70857" lon="6.00257">
        <ele>366.9</ele>
        <time>2023-06-11T12:49:37Z</time>
      </trkpt>
      <trkpt lat="43.70856" lon="6.00258">
        <ele>366.9</ele>
        <time>2023-06-11T12:49:38Z</time>
      </trkpt>
      <trkpt lat="43.70856" lon="6.0026">
        <ele>366.9</ele>
        <time>2023-06-11T12:49:39Z</time>
      </trkpt>
      <trkpt lat="43.70855" lon="6.00262">
        <ele>366.9</ele>
        <time>2023-06-11T12:49:40Z</time>
      </trkpt>
      <trkpt lat="43.70854" lon="6.00263">
        <ele>366.7</ele>
        <time>2023-06-11T12:49:41Z</time>
      </trkpt>
      <trkpt lat="43.70854" lon="6.00265">
        <ele>366.7</ele>
        <time>2023-06-11T12:49:42Z</time>
      </trkpt>
      <trkpt lat="43.70853" lon="6.00267">
        <ele>366.6</ele>
        <time>2023-06-11T12:49:43Z</time>
      </trkpt>
      <trkpt lat="43.70852" lon="6.00268">
        <ele>366.6</ele>
        <time>2023-06-11T12:49:44Z</time>
      </trkpt>
      <trkpt lat="43.70851" lon="6.0027">
        <ele>366.6</ele>
        <time>2023-06-11T12:49:45Z</time>
      </trkpt>
      <trkpt lat="43.70851" lon="6.00272">
        <ele>366.6</ele>
        <time>2023-06-11T12:49:46Z</time>
      </trkpt>
      <trkpt lat="43.7085" lon="6.00273">
        <ele>366.6</ele>
        <time>2023-06-11T12:49:47Z</time>
      </trkpt>
      <trkpt lat="43.70849" lon="6.00275">
        <ele>366.6</ele>
        <time>2023-06-11T12:49:48Z</time>
      </trkpt>
      <trkpt lat="43.70849" lon="6.00276">
        <ele>366.5</ele>
        <time>2023-06-11T12:49:49Z</time>
      </trkpt>
      <trkpt lat="43.70848" lon="6.00278">
        <ele>366.5</ele>
        <time>2023-06-11T12:49:50Z</time>
      </trkpt>
      <trkpt lat="43.70848" lon="6.00279">
        <ele>366.4</ele>
        <time>2023-06-11T12:49:51Z</time>
      </trkpt>
      <trkpt lat="43.70847" lon="6.00281">
        <ele>366.4</ele>
        <time>2023-06-11T12:49:52Z</time>
      </trkpt>
      <trkpt lat="43.70847" lon="6.00282">
        <ele>366.4</ele>
        <time>2023-06-11T12:49:53Z</time>
      </trkpt>
      <trkpt lat="43.70846" lon="6.00284">
        <ele>366.5</ele>
        <time>2023-06-11T12:49:54Z</time>
      </trkpt>
      <trkpt lat="43.70845" lon="6.00285">
        <ele>366.5</ele>
        <time>2023-06-11T12:49:55Z</time>
      </trkpt>
      <trkpt lat="43.70845" lon="6.00287">
        <ele>366.5</ele>
        <time>2023-06-11T12:49:56Z</time>
      </trkpt>
      <trkpt lat="43.70844" lon="6.00289">
        <ele>366.5</ele>
        <time>2023-06-11T12:49:57Z</time>
      </trkpt>
      <trkpt lat="43.70844" lon="6.0029">
        <ele>366.4</ele>
        <time>2023-06-11T12:49:58Z</time>
      </trkpt>
      <trkpt lat="43.70843" lon="6.00292">
        <ele>366.4</ele>
        <time>2023-06-11T12:49:59Z</time>
      </trkpt>
      <trkpt lat="43.70842" lon="6.00293">
        <ele>366.3</ele>
        <time>2023-06-11T12:50:00Z</time>
      </trkpt>
      <trkpt lat="43.70842" lon="6.00295">
        <ele>366.2</ele>
        <time>2023-06-11T12:50:01Z</time>
      </trkpt>
      <trkpt lat="43.70842" lon="6.00296">
        <ele>366.2</ele>
        <time>2023-06-11T12:50:02Z</time>
      </trkpt>
      <trkpt lat="43.70841" lon="6.00298">
        <ele>366.3</ele>
        <time>2023-06-11T12:50:03Z</time>
      </trkpt>
      <trkpt lat="43.70841" lon="6.003">
        <ele>366.3</ele>
        <time>2023-06-11T12:50:04Z</time>
      </trkpt>
      <trkpt lat="43.7084" lon="6.00301">
        <ele>366.3</ele>
        <time>2023-06-11T12:50:05Z</time>
      </trkpt>
      <trkpt lat="43.7084" lon="6.00303">
        <ele>366.3</ele>
        <time>2023-06-11T12:50:06Z</time>
      </trkpt>
      <trkpt lat="43.7084" lon="6.00305">
        <ele>366.2</ele>
        <time>2023-06-11T12:50:07Z</time>
      </trkpt>
      <trkpt lat="43.70839" lon="6.00307">
        <ele>366.2</ele>
        <time>2023-06-11T12:50:08Z</time>
      </trkpt>
      <trkpt lat="43.70839" lon="6.00308">
        <ele>366.2</ele>
        <time>2023-06-11T12:50:09Z</time>
      </trkpt>
      <trkpt lat="43.70838" lon="6.0031">
        <ele>366.2</ele>
        <time>2023-06-11T12:50:10Z</time>
      </trkpt>
      <trkpt lat="43.70838" lon="6.00312">
        <ele>366.2</ele>
        <time>2023-06-11T12:50:11Z</time>
      </trkpt>
      <trkpt lat="43.70838" lon="6.00314">
        <ele>366.2</ele>
        <time>2023-06-11T12:50:12Z</time>
      </trkpt>
      <trkpt lat="43.70837" lon="6.00315">
        <ele>366.2</ele>
        <time>2023-06-11T12:50:13Z</time>
      </trkpt>
      <trkpt lat="43.70837" lon="6.00317">
        <ele>366.2</ele>
        <time>2023-06-11T12:50:14Z</time>
      </trkpt>
      <trkpt lat="43.70836" lon="6.00319">
        <ele>366.2</ele>
        <time>2023-06-11T12:50:15Z</time>
      </trkpt>
      <trkpt lat="43.70836" lon="6.0032">
        <ele>366.2</ele>
        <time>2023-06-11T12:50:16Z</time>
      </trkpt>
      <trkpt lat="43.70835" lon="6.00322">
        <ele>366.2</ele>
        <time>2023-06-11T12:50:17Z</time>
      </trkpt>
      <trkpt lat="43.70835" lon="6.00324">
        <ele>366.2</ele>
        <time>2023-06-11T12:50:18Z</time>
      </trkpt>
      <trkpt lat="43.70835" lon="6.00326">
        <ele>366.2</ele>
        <time>2023-06-11T12:50:19Z</time>
      </trkpt>
      <trkpt lat="43.70835" lon="6.00327">
        <ele>366.2</ele>
        <time>2023-06-11T12:50:20Z</time>
      </trkpt>
      <trkpt lat="43.70834" lon="6.00329">
        <ele>366.3</ele>
        <time>2023-06-11T12:50:21Z</time>
      </trkpt>
      <trkpt lat="43.70834" lon="6.00331">
        <ele>366.4</ele>
        <time>2023-06-11T12:50:22Z</time>
      </trkpt>
      <trkpt lat="43.70834" lon="6.00332">
        <ele>366.3</ele>
        <time>2023-06-11T12:50:23Z</time>
      </trkpt>
      <trkpt lat="43.70834" lon="6.00334">
        <ele>366.2</ele>
        <time>2023-06-11T12:50:24Z</time>
      </trkpt>
      <trkpt lat="43.70833" lon="6.00336">
        <ele>366.3</ele>
        <time>2023-06-11T12:50:25Z</time>
      </trkpt>
      <trkpt lat="43.70833" lon="6.00338">
        <ele>366.3</ele>
        <time>2023-06-11T12:50:26Z</time>
      </trkpt>
      <trkpt lat="43.70833" lon="6.00339">
        <ele>366.3</ele>
        <time>2023-06-11T12:50:27Z</time>
      </trkpt>
      <trkpt lat="43.70833" lon="6.00341">
        <ele>366.3</ele>
        <time>2023-06-11T12:50:28Z</time>
      </trkpt>
      <trkpt lat="43.70833" lon="6.00343">
        <ele>366.3</ele>
        <time>2023-06-11T12:50:29Z</time>
      </trkpt>
      <trkpt lat="43.70833" lon="6.00344">
        <ele>366.4</ele>
        <time>2023-06-11T12:50:30Z</time>
      </trkpt>
      <trkpt lat="43.70833" lon="6.00346">
        <ele>366.4</ele>
        <time>2023-06-11T12:50:31Z</time>
      </trkpt>
      <trkpt lat="43.70833" lon="6.00348">
        <ele>366.3</ele>
        <time>2023-06-11T12:50:32Z</time>
      </trkpt>
      <trkpt lat="43.70832" lon="6.0035">
        <ele>366.4</ele>
        <time>2023-06-11T12:50:33Z</time>
      </trkpt>
      <trkpt lat="43.70832" lon="6.00351">
        <ele>366.4</ele>
        <time>2023-06-11T12:50:34Z</time>
      </trkpt>
      <trkpt lat="43.70832" lon="6.00353">
        <ele>366.5</ele>
        <time>2023-06-11T12:50:35Z</time>
      </trkpt>
      <trkpt lat="43.70832" lon="6.00355">
        <ele>366.5</ele>
        <time>2023-06-11T12:50:36Z</time>
      </trkpt>
      <trkpt lat="43.70832" lon="6.00357">
        <ele>366.5</ele>
        <time>2023-06-11T12:50:37Z</time>
      </trkpt>
      <trkpt lat="43.70832" lon="6.00359">
        <ele>366.5</ele>
        <time>2023-06-11T12:50:38Z</time>
      </trkpt>
      <trkpt lat="43.70831" lon="6.0036">
        <ele>366.5</ele>
        <time>2023-06-11T12:50:39Z</time>
      </trkpt>
      <trkpt lat="43.70831" lon="6.00362">
        <ele>366.5</ele>
        <time>2023-06-11T12:50:40Z</time>
      </trkpt>
      <trkpt lat="43.70831" lon="6.00364">
        <ele>366.5</ele>
        <time>2023-06-11T12:50:41Z</time>
      </trkpt>
      <trkpt lat="43.70831" lon="6.00366">
        <ele>366.4</ele>
        <time>2023-06-11T12:50:42Z</time>
      </trkpt>
      <trkpt lat="43.70831" lon="6.00368">
        <ele>366.5</ele>
        <time>2023-06-11T12:50:43Z</time>
      </trkpt>
      <trkpt lat="43.70832" lon="6.0037">
        <ele>366.5</ele>
        <time>2023-06-11T12:50:44Z</time>
      </trkpt>
      <trkpt lat="43.70832" lon="6.00371">
        <ele>366.5</ele>
        <time>2023-06-11T12:50:45Z</time>
      </trkpt>
      <trkpt lat="43.70832" lon="6.00373">
        <ele>366.5</ele>
        <time>2023-06-11T12:50:46Z</time>
      </trkpt>
      <trkpt lat="43.70832" lon="6.00375">
        <ele>366.6</ele>
        <time>2023-06-11T12:50:47Z</time>
      </trkpt>
      <trkpt lat="43.70832" lon="6.00377">
        <ele>366.4</ele>
        <time>2023-06-11T12:50:48Z</time>
      </trkpt>
      <trkpt lat="43.70832" lon="6.00379">
        <ele>366.3</ele>
        <time>2023-06-11T12:50:49Z</time>
      </trkpt>
      <trkpt lat="43.70832" lon="6.00381">
        <ele>366.2</ele>
        <time>2023-06-11T12:50:50Z</time>
      </trkpt>
      <trkpt lat="43.70831" lon="6.00383">
        <ele>366.4</ele>
        <time>2023-06-11T12:50:51Z</time>
      </trkpt>
      <trkpt lat="43.7083" lon="6.00385">
        <ele>366.4</ele>
        <time>2023-06-11T12:50:52Z</time>
      </trkpt>
      <trkpt lat="43.70829" lon="6.00387">
        <ele>366.5</ele>
        <time>2023-06-11T12:50:53Z</time>
      </trkpt>
      <trkpt lat="43.70829" lon="6.00389">
        <ele>366.6</ele>
        <time>2023-06-11T12:50:54Z</time>
      </trkpt>
      <trkpt lat="43.70829" lon="6.0039">
        <ele>366.7</ele>
        <time>2023-06-11T12:50:55Z</time>
      </trkpt>
      <trkpt lat="43.70829" lon="6.00392">
        <ele>366.7</ele>
        <time>2023-06-11T12:50:56Z</time>
      </trkpt>
      <trkpt lat="43.70828" lon="6.00394">
        <ele>366.7</ele>
        <time>2023-06-11T12:50:57Z</time>
      </trkpt>
      <trkpt lat="43.70828" lon="6.00396">
        <ele>366.7</ele>
        <time>2023-06-11T12:50:58Z</time>
      </trkpt>
      <trkpt lat="43.70828" lon="6.00398">
        <ele>366.7</ele>
        <time>2023-06-11T12:50:59Z</time>
      </trkpt>
      <trkpt lat="43.70827" lon="6.004">
        <ele>366.7</ele>
        <time>2023-06-11T12:51:00Z</time>
      </trkpt>
      <trkpt lat="43.70828" lon="6.00402">
        <ele>366.8</ele>
        <time>2023-06-11T12:51:01Z</time>
      </trkpt>
      <trkpt lat="43.70828" lon="6.00404">
        <ele>366.8</ele>
        <time>2023-06-11T12:51:02Z</time>
      </trkpt>
      <trkpt lat="43.70827" lon="6.00406">
        <ele>366.9</ele>
        <time>2023-06-11T12:51:03Z</time>
      </trkpt>
      <trkpt lat="43.70828" lon="6.00408">
        <ele>366.9</ele>
        <time>2023-06-11T12:51:04Z</time>
      </trkpt>
      <trkpt lat="43.70828" lon="6.0041">
        <ele>366.9</ele>
        <time>2023-06-11T12:51:05Z</time>
      </trkpt>
      <trkpt lat="43.70828" lon="6.00412">
        <ele>366.9</ele>
        <time>2023-06-11T12:51:06Z</time>
      </trkpt>
      <trkpt lat="43.70828" lon="6.00414">
        <ele>366.9</ele>
        <time>2023-06-11T12:51:07Z</time>
      </trkpt>
      <trkpt lat="43.70828" lon="6.00416">
        <ele>366.9</ele>
        <time>2023-06-11T12:51:08Z</time>
      </trkpt>
      <trkpt lat="43.70828" lon="6.00418">
        <ele>367</ele>
        <time>2023-06-11T12:51:09Z</time>
      </trkpt>
      <trkpt lat="43.70828" lon="6.0042">
        <ele>367</ele>
        <time>2023-06-11T12:51:10Z</time>
      </trkpt>
      <trkpt lat="43.70828" lon="6.00422">
        <ele>367</ele>
        <time>2023-06-11T12:51:11Z</time>
      </trkpt>
      <trkpt lat="43.70828" lon="6.00424">
        <ele>367.1</ele>
        <time>2023-06-11T12:51:12Z</time>
      </trkpt>
      <trkpt lat="43.70828" lon="6.00426">
        <ele>367.1</ele>
        <time>2023-06-11T12:51:13Z</time>
      </trkpt>
      <trkpt lat="43.70828" lon="6.00428">
        <ele>367.1</ele>
        <time>2023-06-11T12:51:14Z</time>
      </trkpt>
      <trkpt lat="43.70828" lon="6.0043">
        <ele>367.1</ele>
        <time>2023-06-11T12:51:15Z</time>
      </trkpt>
      <trkpt lat="43.70828" lon="6.00432">
        <ele>367.1</ele>
        <time>2023-06-11T12:51:16Z</time>
      </trkpt>
      <trkpt lat="43.70828" lon="6.00434">
        <ele>367</ele>
        <time>2023-06-11T12:51:17Z</time>
      </trkpt>
      <trkpt lat="43.70828" lon="6.00436">
        <ele>367</ele>
        <time>2023-06-11T12:51:18Z</time>
      </trkpt>
      <trkpt lat="43.70828" lon="6.00437">
        <ele>366.9</ele>
        <time>2023-06-11T12:51:19Z</time>
      </trkpt>
      <trkpt lat="43.70829" lon="6.00439">
        <ele>366.9</ele>
        <time>2023-06-11T12:51:20Z</time>
      </trkpt>
      <trkpt lat="43.70829" lon="6.00441">
        <ele>366.9</ele>
        <time>2023-06-11T12:51:21Z</time>
      </trkpt>
      <trkpt lat="43.70829" lon="6.00443">
        <ele>366.9</ele>
        <time>2023-06-11T12:51:22Z</time>
      </trkpt>
      <trkpt lat="43.70829" lon="6.00445">
        <ele>366.9</ele>
        <time>2023-06-11T12:51:23Z</time>
      </trkpt>
      <trkpt lat="43.70829" lon="6.00447">
        <ele>366.9</ele>
        <time>2023-06-11T12:51:24Z</time>
      </trkpt>
      <trkpt lat="43.7083" lon="6.00449">
        <ele>366.9</ele>
        <time>2023-06-11T12:51:25Z</time>
      </trkpt>
      <trkpt lat="43.7083" lon="6.00451">
        <ele>366.9</ele>
        <time>2023-06-11T12:51:26Z</time>
      </trkpt>
      <trkpt lat="43.7083" lon="6.00453">
        <ele>366.9</ele>
        <time>2023-06-11T12:51:27Z</time>
      </trkpt>
      <trkpt lat="43.7083" lon="6.00455">
        <ele>366.8</ele>
        <time>2023-06-11T12:51:28Z</time>
      </trkpt>
      <trkpt lat="43.7083" lon="6.00456">
        <ele>366.7</ele>
        <time>2023-06-11T12:51:29Z</time>
      </trkpt>
      <trkpt lat="43.7083" lon="6.00458">
        <ele>366.6</ele>
        <time>2023-06-11T12:51:30Z</time>
      </trkpt>
      <trkpt lat="43.7083" lon="6.0046">
        <ele>366.5</ele>
        <time>2023-06-11T12:51:31Z</time>
      </trkpt>
      <trkpt lat="43.7083" lon="6.00461">
        <ele>366.4</ele>
        <time>2023-06-11T12:51:32Z</time>
      </trkpt>
      <trkpt lat="43.7083" lon="6.00463">
        <ele>366.4</ele>
        <time>2023-06-11T12:51:33Z</time>
      </trkpt>
      <trkpt lat="43.7083" lon="6.00465">
        <ele>366.4</ele>
        <time>2023-06-11T12:51:34Z</time>
      </trkpt>
      <trkpt lat="43.7083" lon="6.00467">
        <ele>366.4</ele>
        <time>2023-06-11T12:51:35Z</time>
      </trkpt>
      <trkpt lat="43.7083" lon="6.00468">
        <ele>366.5</ele>
        <time>2023-06-11T12:51:36Z</time>
      </trkpt>
      <trkpt lat="43.7083" lon="6.0047">
        <ele>366.5</ele>
        <time>2023-06-11T12:51:37Z</time>
      </trkpt>
      <trkpt lat="43.7083" lon="6.00472">
        <ele>366.5</ele>
        <time>2023-06-11T12:51:38Z</time>
      </trkpt>
      <trkpt lat="43.7083" lon="6.00474">
        <ele>366.5</ele>
        <time>2023-06-11T12:51:39Z</time>
      </trkpt>
      <trkpt lat="43.7083" lon="6.00476">
        <ele>366.5</ele>
        <time>2023-06-11T12:51:40Z</time>
      </trkpt>
      <trkpt lat="43.7083" lon="6.00478">
        <ele>366.4</ele>
        <time>2023-06-11T12:51:41Z</time>
      </trkpt>
      <trkpt lat="43.7083" lon="6.0048">
        <ele>366.4</ele>
        <time>2023-06-11T12:51:42Z</time>
      </trkpt>
      <trkpt lat="43.7083" lon="6.00482">
        <ele>366.3</ele>
        <time>2023-06-11T12:51:43Z</time>
      </trkpt>
      <trkpt lat="43.7083" lon="6.00484">
        <ele>366.2</ele>
        <time>2023-06-11T12:51:44Z</time>
      </trkpt>
      <trkpt lat="43.7083" lon="6.00486">
        <ele>366.2</ele>
        <time>2023-06-11T12:51:45Z</time>
      </trkpt>
      <trkpt lat="43.7083" lon="6.00488">
        <ele>366.2</ele>
        <time>2023-06-11T12:51:46Z</time>
      </trkpt>
      <trkpt lat="43.7083" lon="6.00489">
        <ele>366.2</ele>
        <time>2023-06-11T12:51:47Z</time>
      </trkpt>
      <trkpt lat="43.7083" lon="6.00491">
        <ele>366.2</ele>
        <time>2023-06-11T12:51:48Z</time>
      </trkpt>
      <trkpt lat="43.7083" lon="6.00493">
        <ele>366.2</ele>
        <time>2023-06-11T12:51:49Z</time>
      </trkpt>
      <trkpt lat="43.70831" lon="6.00495">
        <ele>366.2</ele>
        <time>2023-06-11T12:51:50Z</time>
      </trkpt>
      <trkpt lat="43.70831" lon="6.00496">
        <ele>366.1</ele>
        <time>2023-06-11T12:51:51Z</time>
      </trkpt>
      <trkpt lat="43.70831" lon="6.00498">
        <ele>366.1</ele>
        <time>2023-06-11T12:51:52Z</time>
      </trkpt>
      <trkpt lat="43.70831" lon="6.005">
        <ele>366.2</ele>
        <time>2023-06-11T12:51:53Z</time>
      </trkpt>
      <trkpt lat="43.70831" lon="6.00502">
        <ele>366.2</ele>
        <time>2023-06-11T12:51:54Z</time>
      </trkpt>
      <trkpt lat="43.70832" lon="6.00503">
        <ele>366.2</ele>
        <time>2023-06-11T12:51:55Z</time>
      </trkpt>
      <trkpt lat="43.70832" lon="6.00505">
        <ele>366.2</ele>
        <time>2023-06-11T12:51:56Z</time>
      </trkpt>
      <trkpt lat="43.70832" lon="6.00507">
        <ele>366.2</ele>
        <time>2023-06-11T12:51:57Z</time>
      </trkpt>
      <trkpt lat="43.70832" lon="6.00509">
        <ele>366.2</ele>
        <time>2023-06-11T12:51:58Z</time>
      </trkpt>
      <trkpt lat="43.70832" lon="6.00511">
        <ele>366.2</ele>
        <time>2023-06-11T12:51:59Z</time>
      </trkpt>
      <trkpt lat="43.70832" lon="6.00513">
        <ele>366.2</ele>
        <time>2023-06-11T12:52:00Z</time>
      </trkpt>
      <trkpt lat="43.70832" lon="6.00515">
        <ele>366.2</ele>
        <time>2023-06-11T12:52:01Z</time>
      </trkpt>
      <trkpt lat="43.70833" lon="6.00517">
        <ele>366.2</ele>
        <time>2023-06-11T12:52:02Z</time>
      </trkpt>
      <trkpt lat="43.70833" lon="6.00519">
        <ele>366.1</ele>
        <time>2023-06-11T12:52:03Z</time>
      </trkpt>
      <trkpt lat="43.70833" lon="6.0052">
        <ele>366</ele>
        <time>2023-06-11T12:52:04Z</time>
      </trkpt>
      <trkpt lat="43.70833" lon="6.00522">
        <ele>365.9</ele>
        <time>2023-06-11T12:52:05Z</time>
      </trkpt>
      <trkpt lat="43.70833" lon="6.00524">
        <ele>366</ele>
        <time>2023-06-11T12:52:06Z</time>
      </trkpt>
      <trkpt lat="43.70834" lon="6.00526">
        <ele>366</ele>
        <time>2023-06-11T12:52:07Z</time>
      </trkpt>
      <trkpt lat="43.70834" lon="6.00528">
        <ele>366.1</ele>
        <time>2023-06-11T12:52:08Z</time>
      </trkpt>
      <trkpt lat="43.70834" lon="6.0053">
        <ele>366.1</ele>
        <time>2023-06-11T12:52:09Z</time>
      </trkpt>
      <trkpt lat="43.70835" lon="6.00531">
        <ele>366.1</ele>
        <time>2023-06-11T12:52:10Z</time>
      </trkpt>
      <trkpt lat="43.70835" lon="6.00533">
        <ele>366.1</ele>
        <time>2023-06-11T12:52:11Z</time>
      </trkpt>
      <trkpt lat="43.70835" lon="6.00535">
        <ele>366</ele>
        <time>2023-06-11T12:52:12Z</time>
      </trkpt>
      <trkpt lat="43.70835" lon="6.00537">
        <ele>366.1</ele>
        <time>2023-06-11T12:52:13Z</time>
      </trkpt>
      <trkpt lat="43.70835" lon="6.00539">
        <ele>366.1</ele>
        <time>2023-06-11T12:52:14Z</time>
      </trkpt>
      <trkpt lat="43.70836" lon="6.00541">
        <ele>366.1</ele>
        <time>2023-06-11T12:52:15Z</time>
      </trkpt>
      <trkpt lat="43.70836" lon="6.00542">
        <ele>366.2</ele>
        <time>2023-06-11T12:52:16Z</time>
      </trkpt>
      <trkpt lat="43.70836" lon="6.00544">
        <ele>366.2</ele>
        <time>2023-06-11T12:52:17Z</time>
      </trkpt>
      <trkpt lat="43.70836" lon="6.00546">
        <ele>366.2</ele>
        <time>2023-06-11T12:52:18Z</time>
      </trkpt>
      <trkpt lat="43.70836" lon="6.00548">
        <ele>366.2</ele>
        <time>2023-06-11T12:52:19Z</time>
      </trkpt>
      <trkpt lat="43.70837" lon="6.0055">
        <ele>366.2</ele>
        <time>2023-06-11T12:52:20Z</time>
      </trkpt>
      <trkpt lat="43.70837" lon="6.00551">
        <ele>366.2</ele>
        <time>2023-06-11T12:52:21Z</time>
      </trkpt>
      <trkpt lat="43.70838" lon="6.00553">
        <ele>366.2</ele>
        <time>2023-06-11T12:52:22Z</time>
      </trkpt>
      <trkpt lat="43.70838" lon="6.00554">
        <ele>366.2</ele>
        <time>2023-06-11T12:52:23Z</time>
      </trkpt>
      <trkpt lat="43.70839" lon="6.00556">
        <ele>366.1</ele>
        <time>2023-06-11T12:52:24Z</time>
      </trkpt>
      <trkpt lat="43.70839" lon="6.00558">
        <ele>366</ele>
        <time>2023-06-11T12:52:25Z</time>
      </trkpt>
      <trkpt lat="43.70839" lon="6.0056">
        <ele>365.9</ele>
        <time>2023-06-11T12:52:26Z</time>
      </trkpt>
      <trkpt lat="43.7084" lon="6.00561">
        <ele>365.9</ele>
        <time>2023-06-11T12:52:27Z</time>
      </trkpt>
      <trkpt lat="43.7084" lon="6.00563">
        <ele>365.8</ele>
        <time>2023-06-11T12:52:28Z</time>
      </trkpt>
      <trkpt lat="43.70841" lon="6.00565">
        <ele>365.8</ele>
        <time>2023-06-11T12:52:29Z</time>
      </trkpt>
      <trkpt lat="43.70841" lon="6.00567">
        <ele>365.7</ele>
        <time>2023-06-11T12:52:30Z</time>
      </trkpt>
      <trkpt lat="43.70842" lon="6.00568">
        <ele>365.8</ele>
        <time>2023-06-11T12:52:31Z</time>
      </trkpt>
      <trkpt lat="43.70843" lon="6.0057">
        <ele>365.8</ele>
        <time>2023-06-11T12:52:32Z</time>
      </trkpt>
      <trkpt lat="43.70843" lon="6.00572">
        <ele>365.9</ele>
        <time>2023-06-11T12:52:33Z</time>
      </trkpt>
      <trkpt lat="43.70844" lon="6.00573">
        <ele>365.9</ele>
        <time>2023-06-11T12:52:34Z</time>
      </trkpt>
      <trkpt lat="43.70844" lon="6.00575">
        <ele>365.9</ele>
        <time>2023-06-11T12:52:35Z</time>
      </trkpt>
      <trkpt lat="43.70844" lon="6.00577">
        <ele>365.9</ele>
        <time>2023-06-11T12:52:36Z</time>
      </trkpt>
      <trkpt lat="43.70845" lon="6.00578">
        <ele>365.9</ele>
        <time>2023-06-11T12:52:37Z</time>
      </trkpt>
      <trkpt lat="43.70845" lon="6.0058">
        <ele>365.9</ele>
        <time>2023-06-11T12:52:38Z</time>
      </trkpt>
      <trkpt lat="43.70845" lon="6.00582">
        <ele>366</ele>
        <time>2023-06-11T12:52:39Z</time>
      </trkpt>
      <trkpt lat="43.70845" lon="6.00584">
        <ele>366.1</ele>
        <time>2023-06-11T12:52:40Z</time>
      </trkpt>
      <trkpt lat="43.70846" lon="6.00585">
        <ele>366.1</ele>
        <time>2023-06-11T12:52:41Z</time>
      </trkpt>
      <trkpt lat="43.70846" lon="6.00587">
        <ele>366.1</ele>
        <time>2023-06-11T12:52:42Z</time>
      </trkpt>
      <trkpt lat="43.70847" lon="6.00589">
        <ele>366.1</ele>
        <time>2023-06-11T12:52:43Z</time>
      </trkpt>
      <trkpt lat="43.70847" lon="6.0059">
        <ele>366.2</ele>
        <time>2023-06-11T12:52:44Z</time>
      </trkpt>
      <trkpt lat="43.70847" lon="6.00592">
        <ele>366.2</ele>
        <time>2023-06-11T12:52:45Z</time>
      </trkpt>
      <trkpt lat="43.70847" lon="6.00593">
        <ele>366.2</ele>
        <time>2023-06-11T12:52:46Z</time>
      </trkpt>
      <trkpt lat="43.70848" lon="6.00595">
        <ele>366.1</ele>
        <time>2023-06-11T12:52:47Z</time>
      </trkpt>
      <trkpt lat="43.70848" lon="6.00597">
        <ele>366.1</ele>
        <time>2023-06-11T12:52:48Z</time>
      </trkpt>
      <trkpt lat="43.70849" lon="6.00598">
        <ele>366.2</ele>
        <time>2023-06-11T12:52:49Z</time>
      </trkpt>
      <trkpt lat="43.70849" lon="6.006">
        <ele>366.1</ele>
        <time>2023-06-11T12:52:50Z</time>
      </trkpt>
      <trkpt lat="43.7085" lon="6.00601">
        <ele>366.1</ele>
        <time>2023-06-11T12:52:51Z</time>
      </trkpt>
      <trkpt lat="43.7085" lon="6.00603">
        <ele>366.1</ele>
        <time>2023-06-11T12:52:52Z</time>
      </trkpt>
      <trkpt lat="43.7085" lon="6.00604">
        <ele>366.1</ele>
        <time>2023-06-11T12:52:53Z</time>
      </trkpt>
      <trkpt lat="43.70851" lon="6.00606">
        <ele>366.1</ele>
        <time>2023-06-11T12:52:54Z</time>
      </trkpt>
      <trkpt lat="43.70851" lon="6.00608">
        <ele>366.1</ele>
        <time>2023-06-11T12:52:55Z</time>
      </trkpt>
      <trkpt lat="43.70851" lon="6.00609">
        <ele>366.2</ele>
        <time>2023-06-11T12:52:56Z</time>
      </trkpt>
      <trkpt lat="43.70852" lon="6.00611">
        <ele>366.3</ele>
        <time>2023-06-11T12:52:57Z</time>
      </trkpt>
      <trkpt lat="43.70852" lon="6.00613">
        <ele>366.4</ele>
        <time>2023-06-11T12:52:58Z</time>
      </trkpt>
      <trkpt lat="43.70853" lon="6.00615">
        <ele>366.5</ele>
        <time>2023-06-11T12:52:59Z</time>
      </trkpt>
      <trkpt lat="43.70853" lon="6.00617">
        <ele>366.5</ele>
        <time>2023-06-11T12:53:00Z</time>
      </trkpt>
      <trkpt lat="43.70853" lon="6.00618">
        <ele>366.5</ele>
        <time>2023-06-11T12:53:01Z</time>
      </trkpt>
      <trkpt lat="43.70853" lon="6.0062">
        <ele>366.4</ele>
        <time>2023-06-11T12:53:02Z</time>
      </trkpt>
      <trkpt lat="43.70854" lon="6.00622">
        <ele>366.4</ele>
        <time>2023-06-11T12:53:03Z</time>
      </trkpt>
      <trkpt lat="43.70854" lon="6.00624">
        <ele>366.4</ele>
        <time>2023-06-11T12:53:04Z</time>
      </trkpt>
      <trkpt lat="43.70854" lon="6.00626">
        <ele>366.5</ele>
        <time>2023-06-11T12:53:05Z</time>
      </trkpt>
      <trkpt lat="43.70854" lon="6.00628">
        <ele>366.5</ele>
        <time>2023-06-11T12:53:06Z</time>
      </trkpt>
      <trkpt lat="43.70855" lon="6.0063">
        <ele>366.5</ele>
        <time>2023-06-11T12:53:07Z</time>
      </trkpt>
      <trkpt lat="43.70855" lon="6.00631">
        <ele>366.5</ele>
        <time>2023-06-11T12:53:08Z</time>
      </trkpt>
      <trkpt lat="43.70855" lon="6.00633">
        <ele>366.6</ele>
        <time>2023-06-11T12:53:09Z</time>
      </trkpt>
      <trkpt lat="43.70855" lon="6.00635">
        <ele>366.6</ele>
        <time>2023-06-11T12:53:10Z</time>
      </trkpt>
      <trkpt lat="43.70856" lon="6.00637">
        <ele>366.4</ele>
        <time>2023-06-11T12:53:11Z</time>
      </trkpt>
      <trkpt lat="43.70856" lon="6.00639">
        <ele>366.4</ele>
        <time>2023-06-11T12:53:12Z</time>
      </trkpt>
      <trkpt lat="43.70856" lon="6.00641">
        <ele>366.5</ele>
        <time>2023-06-11T12:53:13Z</time>
      </trkpt>
      <trkpt lat="43.70856" lon="6.00643">
        <ele>366.5</ele>
        <time>2023-06-11T12:53:14Z</time>
      </trkpt>
      <trkpt lat="43.70856" lon="6.00645">
        <ele>366.6</ele>
        <time>2023-06-11T12:53:15Z</time>
      </trkpt>
      <trkpt lat="43.70856" lon="6.00647">
        <ele>366.5</ele>
        <time>2023-06-11T12:53:16Z</time>
      </trkpt>
      <trkpt lat="43.70857" lon="6.00648">
        <ele>366.4</ele>
        <time>2023-06-11T12:53:17Z</time>
      </trkpt>
      <trkpt lat="43.70857" lon="6.0065">
        <ele>366.4</ele>
        <time>2023-06-11T12:53:18Z</time>
      </trkpt>
      <trkpt lat="43.70856" lon="6.00652">
        <ele>366.3</ele>
        <time>2023-06-11T12:53:19Z</time>
      </trkpt>
      <trkpt lat="43.70857" lon="6.00654">
        <ele>366.2</ele>
        <time>2023-06-11T12:53:20Z</time>
      </trkpt>
      <trkpt lat="43.70857" lon="6.00656">
        <ele>366.2</ele>
        <time>2023-06-11T12:53:21Z</time>
      </trkpt>
      <trkpt lat="43.70857" lon="6.00658">
        <ele>366.2</ele>
        <time>2023-06-11T12:53:22Z</time>
      </trkpt>
      <trkpt lat="43.70857" lon="6.00659">
        <ele>366.2</ele>
        <time>2023-06-11T12:53:23Z</time>
      </trkpt>
      <trkpt lat="43.70857" lon="6.00661">
        <ele>366.2</ele>
        <time>2023-06-11T12:53:24Z</time>
      </trkpt>
      <trkpt lat="43.70857" lon="6.00663">
        <ele>366.2</ele>
        <time>2023-06-11T12:53:25Z</time>
      </trkpt>
      <trkpt lat="43.70857" lon="6.00664">
        <ele>366.2</ele>
        <time>2023-06-11T12:53:26Z</time>
      </trkpt>
      <trkpt lat="43.70857" lon="6.00666">
        <ele>366.2</ele>
        <time>2023-06-11T12:53:27Z</time>
      </trkpt>
      <trkpt lat="43.70857" lon="6.00667">
        <ele>366.3</ele>
        <time>2023-06-11T12:53:28Z</time>
      </trkpt>
      <trkpt lat="43.70857" lon="6.00669">
        <ele>366.3</ele>
        <time>2023-06-11T12:53:29Z</time>
      </trkpt>
      <trkpt lat="43.70857" lon="6.00671">
        <ele>366.3</ele>
        <time>2023-06-11T12:53:30Z</time>
      </trkpt>
      <trkpt lat="43.70856" lon="6.00673">
        <ele>366.2</ele>
        <time>2023-06-11T12:53:31Z</time>
      </trkpt>
      <trkpt lat="43.70856" lon="6.00674">
        <ele>366.2</ele>
        <time>2023-06-11T12:53:32Z</time>
      </trkpt>
      <trkpt lat="43.70856" lon="6.00676">
        <ele>366.3</ele>
        <time>2023-06-11T12:53:33Z</time>
      </trkpt>
      <trkpt lat="43.70856" lon="6.00678">
        <ele>366.4</ele>
        <time>2023-06-11T12:53:34Z</time>
      </trkpt>
      <trkpt lat="43.70855" lon="6.00679">
        <ele>366.5</ele>
        <time>2023-06-11T12:53:35Z</time>
      </trkpt>
      <trkpt lat="43.70855" lon="6.00681">
        <ele>366.5</ele>
        <time>2023-06-11T12:53:36Z</time>
      </trkpt>
      <trkpt lat="43.70854" lon="6.00682">
        <ele>366.6</ele>
        <time>2023-06-11T12:53:37Z</time>
      </trkpt>
      <trkpt lat="43.70853" lon="6.00684">
        <ele>366.6</ele>
        <time>2023-06-11T12:53:38Z</time>
      </trkpt>
      <trkpt lat="43.70853" lon="6.00685">
        <ele>366.6</ele>
        <time>2023-06-11T12:53:39Z</time>
      </trkpt>
      <trkpt lat="43.70852" lon="6.00686">
        <ele>366.6</ele>
        <time>2023-06-11T12:53:40Z</time>
      </trkpt>
      <trkpt lat="43.70851" lon="6.00688">
        <ele>366.6</ele>
        <time>2023-06-11T12:53:41Z</time>
      </trkpt>
      <trkpt lat="43.7085" lon="6.00689">
        <ele>366.5</ele>
        <time>2023-06-11T12:53:42Z</time>
      </trkpt>
      <trkpt lat="43.70849" lon="6.0069">
        <ele>366.4</ele>
        <time>2023-06-11T12:53:43Z</time>
      </trkpt>
      <trkpt lat="43.70848" lon="6.00692">
        <ele>366.4</ele>
        <time>2023-06-11T12:53:44Z</time>
      </trkpt>
      <trkpt lat="43.70848" lon="6.00693">
        <ele>366.3</ele>
        <time>2023-06-11T12:53:45Z</time>
      </trkpt>
      <trkpt lat="43.70847" lon="6.00694">
        <ele>366.3</ele>
        <time>2023-06-11T12:53:46Z</time>
      </trkpt>
      <trkpt lat="43.70846" lon="6.00696">
        <ele>366.3</ele>
        <time>2023-06-11T12:53:47Z</time>
      </trkpt>
      <trkpt lat="43.70846" lon="6.00697">
        <ele>366.3</ele>
        <time>2023-06-11T12:53:48Z</time>
      </trkpt>
      <trkpt lat="43.70845" lon="6.00698">
        <ele>366.3</ele>
        <time>2023-06-11T12:53:49Z</time>
      </trkpt>
      <trkpt lat="43.70844" lon="6.00699">
        <ele>366.3</ele>
        <time>2023-06-11T12:53:50Z</time>
      </trkpt>
      <trkpt lat="43.70843" lon="6.007">
        <ele>366.4</ele>
        <time>2023-06-11T12:53:51Z</time>
      </trkpt>
      <trkpt lat="43.70842" lon="6.00701">
        <ele>366.4</ele>
        <time>2023-06-11T12:53:52Z</time>
      </trkpt>
      <trkpt lat="43.70841" lon="6.00702">
        <ele>366.4</ele>
        <time>2023-06-11T12:53:53Z</time>
      </trkpt>
      <trkpt lat="43.70839" lon="6.00703">
        <ele>366.3</ele>
        <time>2023-06-11T12:53:54Z</time>
      </trkpt>
      <trkpt lat="43.70838" lon="6.00704">
        <ele>366.3</ele>
        <time>2023-06-11T12:53:55Z</time>
      </trkpt>
      <trkpt lat="43.70837" lon="6.00705">
        <ele>366.4</ele>
        <time>2023-06-11T12:53:56Z</time>
      </trkpt>
      <trkpt lat="43.70836" lon="6.00706">
        <ele>366.4</ele>
        <time>2023-06-11T12:53:57Z</time>
      </trkpt>
      <trkpt lat="43.70835" lon="6.00707">
        <ele>366.3</ele>
        <time>2023-06-11T12:53:58Z</time>
      </trkpt>
      <trkpt lat="43.70834" lon="6.00708">
        <ele>366.3</ele>
        <time>2023-06-11T12:53:59Z</time>
      </trkpt>
      <trkpt lat="43.70832" lon="6.00709">
        <ele>366.3</ele>
        <time>2023-06-11T12:54:00Z</time>
      </trkpt>
      <trkpt lat="43.70831" lon="6.0071">
        <ele>366.3</ele>
        <time>2023-06-11T12:54:01Z</time>
      </trkpt>
      <trkpt lat="43.7083" lon="6.00711">
        <ele>366.3</ele>
        <time>2023-06-11T12:54:02Z</time>
      </trkpt>
      <trkpt lat="43.70828" lon="6.00713">
        <ele>366.3</ele>
        <time>2023-06-11T12:54:03Z</time>
      </trkpt>
      <trkpt lat="43.70826" lon="6.00714">
        <ele>366.4</ele>
        <time>2023-06-11T12:54:04Z</time>
      </trkpt>
      <trkpt lat="43.70825" lon="6.00715">
        <ele>366.4</ele>
        <time>2023-06-11T12:54:05Z</time>
      </trkpt>
      <trkpt lat="43.70824" lon="6.00715">
        <ele>366.4</ele>
        <time>2023-06-11T12:54:06Z</time>
      </trkpt>
      <trkpt lat="43.70822" lon="6.00716">
        <ele>366.5</ele>
        <time>2023-06-11T12:54:07Z</time>
      </trkpt>
      <trkpt lat="43.70821" lon="6.00717">
        <ele>366.5</ele>
        <time>2023-06-11T12:54:08Z</time>
      </trkpt>
      <trkpt lat="43.7082" lon="6.00717">
        <ele>366.5</ele>
        <time>2023-06-11T12:54:09Z</time>
      </trkpt>
      <trkpt lat="43.70818" lon="6.00718">
        <ele>366.5</ele>
        <time>2023-06-11T12:54:10Z</time>
      </trkpt>
      <trkpt lat="43.70817" lon="6.00719">
        <ele>366.5</ele>
        <time>2023-06-11T12:54:11Z</time>
      </trkpt>
      <trkpt lat="43.70816" lon="6.00719">
        <ele>366.4</ele>
        <time>2023-06-11T12:54:12Z</time>
      </trkpt>
      <trkpt lat="43.70814" lon="6.0072">
        <ele>366.3</ele>
        <time>2023-06-11T12:54:13Z</time>
      </trkpt>
      <trkpt lat="43.70813" lon="6.00721">
        <ele>366.2</ele>
        <time>2023-06-11T12:54:14Z</time>
      </trkpt>
      <trkpt lat="43.70812" lon="6.00721">
        <ele>366.2</ele>
        <time>2023-06-11T12:54:15Z</time>
      </trkpt>
      <trkpt lat="43.7081" lon="6.00722">
        <ele>366.2</ele>
        <time>2023-06-11T12:54:16Z</time>
      </trkpt>
      <trkpt lat="43.70809" lon="6.00722">
        <ele>366.1</ele>
        <time>2023-06-11T12:54:17Z</time>
      </trkpt>
      <trkpt lat="43.70808" lon="6.00723">
        <ele>366.2</ele>
        <time>2023-06-11T12:54:18Z</time>
      </trkpt>
      <trkpt lat="43.70806" lon="6.00723">
        <ele>366.2</ele>
        <time>2023-06-11T12:54:19Z</time>
      </trkpt>
      <trkpt lat="43.70805" lon="6.00723">
        <ele>366.3</ele>
        <time>2023-06-11T12:54:20Z</time>
      </trkpt>
      <trkpt lat="43.70804" lon="6.00724">
        <ele>366.2</ele>
        <time>2023-06-11T12:54:21Z</time>
      </trkpt>
      <trkpt lat="43.70802" lon="6.00724">
        <ele>366.2</ele>
        <time>2023-06-11T12:54:22Z</time>
      </trkpt>
      <trkpt lat="43.70801" lon="6.00724">
        <ele>365.1</ele>
        <time>2023-06-11T12:54:23Z</time>
      </trkpt>
      <trkpt lat="43.708" lon="6.00725">
        <ele>364.6</ele>
        <time>2023-06-11T12:54:24Z</time>
      </trkpt>
      <trkpt lat="43.70799" lon="6.00725">
        <ele>365.1</ele>
        <time>2023-06-11T12:54:25Z</time>
      </trkpt>
      <trkpt lat="43.70797" lon="6.00726">
        <ele>361.7</ele>
        <time>2023-06-11T12:54:26Z</time>
      </trkpt>
      <trkpt lat="43.70796" lon="6.00726">
        <ele>360</ele>
        <time>2023-06-11T12:54:27Z</time>
      </trkpt>
      <trkpt lat="43.70794" lon="6.00726">
        <ele>359.6</ele>
        <time>2023-06-11T12:54:28Z</time>
      </trkpt>
      <trkpt lat="43.70793" lon="6.00726">
        <ele>361.7</ele>
        <time>2023-06-11T12:54:29Z</time>
      </trkpt>
      <trkpt lat="43.70791" lon="6.00726">
        <ele>362.7</ele>
        <time>2023-06-11T12:54:30Z</time>
      </trkpt>
      <trkpt lat="43.7079" lon="6.00727">
        <ele>365.7</ele>
        <time>2023-06-11T12:54:31Z</time>
      </trkpt>
      <trkpt lat="43.70789" lon="6.00727">
        <ele>366.8</ele>
        <time>2023-06-11T12:54:32Z</time>
      </trkpt>
      <trkpt lat="43.70788" lon="6.00728">
        <ele>367.4</ele>
        <time>2023-06-11T12:54:33Z</time>
      </trkpt>
      <trkpt lat="43.70786" lon="6.00728">
        <ele>367.2</ele>
        <time>2023-06-11T12:54:34Z</time>
      </trkpt>
      <trkpt lat="43.70784" lon="6.00728">
        <ele>366.3</ele>
        <time>2023-06-11T12:54:35Z</time>
      </trkpt>
      <trkpt lat="43.70783" lon="6.00728">
        <ele>367.4</ele>
        <time>2023-06-11T12:54:36Z</time>
      </trkpt>
      <trkpt lat="43.70782" lon="6.00728">
        <ele>367.3</ele>
        <time>2023-06-11T12:54:37Z</time>
      </trkpt>
      <trkpt lat="43.70781" lon="6.0073">
        <ele>367.2</ele>
        <time>2023-06-11T12:54:38Z</time>
      </trkpt>
      <trkpt lat="43.70779" lon="6.0073">
        <ele>367.1</ele>
        <time>2023-06-11T12:54:39Z</time>
      </trkpt>
      <trkpt lat="43.70778" lon="6.00731">
        <ele>367</ele>
        <time>2023-06-11T12:54:40Z</time>
      </trkpt>
      <trkpt lat="43.70777" lon="6.00731">
        <ele>367</ele>
        <time>2023-06-11T12:54:41Z</time>
      </trkpt>
      <trkpt lat="43.70776" lon="6.00731">
        <ele>366.8</ele>
        <time>2023-06-11T12:54:42Z</time>
      </trkpt>
      <trkpt lat="43.70775" lon="6.00732">
        <ele>366.6</ele>
        <time>2023-06-11T12:54:43Z</time>
      </trkpt>
      <trkpt lat="43.70773" lon="6.00732">
        <ele>366.6</ele>
        <time>2023-06-11T12:54:44Z</time>
      </trkpt>
      <trkpt lat="43.70772" lon="6.00732">
        <ele>366.6</ele>
        <time>2023-06-11T12:54:45Z</time>
      </trkpt>
      <trkpt lat="43.7077" lon="6.00732">
        <ele>366.6</ele>
        <time>2023-06-11T12:54:46Z</time>
      </trkpt>
      <trkpt lat="43.70769" lon="6.00732">
        <ele>366.8</ele>
        <time>2023-06-11T12:54:47Z</time>
      </trkpt>
      <trkpt lat="43.70768" lon="6.00732">
        <ele>366.9</ele>
        <time>2023-06-11T12:54:48Z</time>
      </trkpt>
      <trkpt lat="43.70766" lon="6.00732">
        <ele>366.9</ele>
        <time>2023-06-11T12:54:49Z</time>
      </trkpt>
      <trkpt lat="43.70764" lon="6.00732">
        <ele>366.8</ele>
        <time>2023-06-11T12:54:50Z</time>
      </trkpt>
      <trkpt lat="43.70763" lon="6.00732">
        <ele>366.7</ele>
        <time>2023-06-11T12:54:51Z</time>
      </trkpt>
      <trkpt lat="43.70761" lon="6.00732">
        <ele>366.8</ele>
        <time>2023-06-11T12:54:52Z</time>
      </trkpt>
      <trkpt lat="43.70759" lon="6.00732">
        <ele>366.8</ele>
        <time>2023-06-11T12:54:53Z</time>
      </trkpt>
      <trkpt lat="43.70758" lon="6.00732">
        <ele>366.9</ele>
        <time>2023-06-11T12:54:54Z</time>
      </trkpt>
      <trkpt lat="43.70755" lon="6.0073">
        <ele>366.8</ele>
        <time>2023-06-11T12:54:55Z</time>
      </trkpt>
      <trkpt lat="43.70754" lon="6.0073">
        <ele>366.8</ele>
        <time>2023-06-11T12:54:56Z</time>
      </trkpt>
      <trkpt lat="43.70752" lon="6.00731">
        <ele>366.8</ele>
        <time>2023-06-11T12:54:57Z</time>
      </trkpt>
      <trkpt lat="43.70751" lon="6.00731">
        <ele>366.7</ele>
        <time>2023-06-11T12:54:58Z</time>
      </trkpt>
      <trkpt lat="43.70749" lon="6.0073">
        <ele>366.6</ele>
        <time>2023-06-11T12:54:59Z</time>
      </trkpt>
      <trkpt lat="43.70748" lon="6.0073">
        <ele>366.4</ele>
        <time>2023-06-11T12:55:00Z</time>
      </trkpt>
      <trkpt lat="43.70747" lon="6.0073">
        <ele>366.5</ele>
        <time>2023-06-11T12:55:01Z</time>
      </trkpt>
      <trkpt lat="43.70745" lon="6.0073">
        <ele>366.3</ele>
        <time>2023-06-11T12:55:02Z</time>
      </trkpt>
      <trkpt lat="43.70744" lon="6.0073">
        <ele>366.3</ele>
        <time>2023-06-11T12:55:03Z</time>
      </trkpt>
      <trkpt lat="43.70742" lon="6.0073">
        <ele>366.3</ele>
        <time>2023-06-11T12:55:04Z</time>
      </trkpt>
      <trkpt lat="43.70742" lon="6.00731">
        <ele>366.1</ele>
        <time>2023-06-11T12:55:05Z</time>
      </trkpt>
      <trkpt lat="43.7074" lon="6.00731">
        <ele>366.2</ele>
        <time>2023-06-11T12:55:06Z</time>
      </trkpt>
      <trkpt lat="43.70739" lon="6.00731">
        <ele>367.2</ele>
        <time>2023-06-11T12:55:07Z</time>
      </trkpt>
      <trkpt lat="43.70738" lon="6.00731">
        <ele>367.1</ele>
        <time>2023-06-11T12:55:08Z</time>
      </trkpt>
      <trkpt lat="43.70737" lon="6.00731">
        <ele>367.1</ele>
        <time>2023-06-11T12:55:09Z</time>
      </trkpt>
      <trkpt lat="43.70735" lon="6.00731">
        <ele>367</ele>
        <time>2023-06-11T12:55:10Z</time>
      </trkpt>
      <trkpt lat="43.70734" lon="6.00732">
        <ele>365.3</ele>
        <time>2023-06-11T12:55:11Z</time>
      </trkpt>
      <trkpt lat="43.70732" lon="6.00732">
        <ele>366.5</ele>
        <time>2023-06-11T12:55:12Z</time>
      </trkpt>
      <trkpt lat="43.70731" lon="6.00733">
        <ele>364.8</ele>
        <time>2023-06-11T12:55:13Z</time>
      </trkpt>
      <trkpt lat="43.70729" lon="6.00733">
        <ele>358</ele>
        <time>2023-06-11T12:55:14Z</time>
      </trkpt>
      <trkpt lat="43.70728" lon="6.00734">
        <ele>368.4</ele>
        <time>2023-06-11T12:55:15Z</time>
      </trkpt>
      <trkpt lat="43.70726" lon="6.00735">
        <ele>362.9</ele>
        <time>2023-06-11T12:55:16Z</time>
      </trkpt>
      <trkpt lat="43.70725" lon="6.00735">
        <ele>362.7</ele>
        <time>2023-06-11T12:55:17Z</time>
      </trkpt>
      <trkpt lat="43.70723" lon="6.00736">
        <ele>359.3</ele>
        <time>2023-06-11T12:55:18Z</time>
      </trkpt>
      <trkpt lat="43.70723" lon="6.00737">
        <ele>357.6</ele>
        <time>2023-06-11T12:55:19Z</time>
      </trkpt>
      <trkpt lat="43.70721" lon="6.00737">
        <ele>364.7</ele>
        <time>2023-06-11T12:55:20Z</time>
      </trkpt>
      <trkpt lat="43.7072" lon="6.00739">
        <ele>366.5</ele>
        <time>2023-06-11T12:55:21Z</time>
      </trkpt>
      <trkpt lat="43.70718" lon="6.0074">
        <ele>361.8</ele>
        <time>2023-06-11T12:55:22Z</time>
      </trkpt>
      <trkpt lat="43.70717" lon="6.0074">
        <ele>364.4</ele>
        <time>2023-06-11T12:55:23Z</time>
      </trkpt>
      <trkpt lat="43.70716" lon="6.00741">
        <ele>369.8</ele>
        <time>2023-06-11T12:55:24Z</time>
      </trkpt>
      <trkpt lat="43.70715" lon="6.00741">
        <ele>363.2</ele>
        <time>2023-06-11T12:55:25Z</time>
      </trkpt>
      <trkpt lat="43.70714" lon="6.00741">
        <ele>362.9</ele>
        <time>2023-06-11T12:55:26Z</time>
      </trkpt>
      <trkpt lat="43.70712" lon="6.00743">
        <ele>365.6</ele>
        <time>2023-06-11T12:55:27Z</time>
      </trkpt>
      <trkpt lat="43.7071" lon="6.00744">
        <ele>372</ele>
        <time>2023-06-11T12:55:28Z</time>
      </trkpt>
      <trkpt lat="43.70709" lon="6.00746">
        <ele>369.8</ele>
        <time>2023-06-11T12:55:29Z</time>
      </trkpt>
      <trkpt lat="43.70708" lon="6.00746">
        <ele>365.9</ele>
        <time>2023-06-11T12:55:30Z</time>
      </trkpt>
      <trkpt lat="43.70707" lon="6.00748">
        <ele>365.7</ele>
        <time>2023-06-11T12:55:31Z</time>
      </trkpt>
      <trkpt lat="43.70705" lon="6.00748">
        <ele>369.8</ele>
        <time>2023-06-11T12:55:32Z</time>
      </trkpt>
      <trkpt lat="43.70704" lon="6.00749">
        <ele>362</ele>
        <time>2023-06-11T12:55:33Z</time>
      </trkpt>
      <trkpt lat="43.70703" lon="6.00751">
        <ele>363.4</ele>
        <time>2023-06-11T12:55:34Z</time>
      </trkpt>
      <trkpt lat="43.70701" lon="6.00754">
        <ele>367</ele>
        <time>2023-06-11T12:55:35Z</time>
      </trkpt>
      <trkpt lat="43.70701" lon="6.00756">
        <ele>363</ele>
        <time>2023-06-11T12:55:36Z</time>
      </trkpt>
      <trkpt lat="43.707" lon="6.00756">
        <ele>363.3</ele>
        <time>2023-06-11T12:55:37Z</time>
      </trkpt>
      <trkpt lat="43.70699" lon="6.00757">
        <ele>364</ele>
        <time>2023-06-11T12:55:38Z</time>
      </trkpt>
      <trkpt lat="43.70698" lon="6.00757">
        <ele>364.7</ele>
        <time>2023-06-11T12:55:39Z</time>
      </trkpt>
      <trkpt lat="43.70697" lon="6.00756">
        <ele>365.1</ele>
        <time>2023-06-11T12:55:40Z</time>
      </trkpt>
      <trkpt lat="43.70695" lon="6.00755">
        <ele>365.4</ele>
        <time>2023-06-11T12:55:41Z</time>
      </trkpt>
      <trkpt lat="43.70694" lon="6.00754">
        <ele>365.7</ele>
        <time>2023-06-11T12:55:42Z</time>
      </trkpt>
      <trkpt lat="43.70692" lon="6.00753">
        <ele>366.8</ele>
        <time>2023-06-11T12:55:43Z</time>
      </trkpt>
      <trkpt lat="43.70691" lon="6.00753">
        <ele>363.5</ele>
        <time>2023-06-11T12:55:44Z</time>
      </trkpt>
      <trkpt lat="43.7069" lon="6.00754">
        <ele>363.4</ele>
        <time>2023-06-11T12:55:45Z</time>
      </trkpt>
      <trkpt lat="43.70688" lon="6.00754">
        <ele>364.1</ele>
        <time>2023-06-11T12:55:46Z</time>
      </trkpt>
      <trkpt lat="43.70687" lon="6.00754">
        <ele>364.6</ele>
        <time>2023-06-11T12:55:47Z</time>
      </trkpt>
      <trkpt lat="43.70686" lon="6.00755">
        <ele>365</ele>
        <time>2023-06-11T12:55:48Z</time>
      </trkpt>
      <trkpt lat="43.70685" lon="6.00755">
        <ele>365.9</ele>
        <time>2023-06-11T12:55:49Z</time>
      </trkpt>
      <trkpt lat="43.70683" lon="6.00755">
        <ele>366.5</ele>
        <time>2023-06-11T12:55:50Z</time>
      </trkpt>
      <trkpt lat="43.70681" lon="6.00755">
        <ele>366.7</ele>
        <time>2023-06-11T12:55:51Z</time>
      </trkpt>
      <trkpt lat="43.7068" lon="6.00756">
        <ele>366.5</ele>
        <time>2023-06-11T12:55:52Z</time>
      </trkpt>
      <trkpt lat="43.70678" lon="6.00756">
        <ele>366.2</ele>
        <time>2023-06-11T12:55:53Z</time>
      </trkpt>
      <trkpt lat="43.70678" lon="6.00758">
        <ele>366</ele>
        <time>2023-06-11T12:55:54Z</time>
      </trkpt>
      <trkpt lat="43.70677" lon="6.00759">
        <ele>366.1</ele>
        <time>2023-06-11T12:55:55Z</time>
      </trkpt>
      <trkpt lat="43.70675" lon="6.0076">
        <ele>366.1</ele>
        <time>2023-06-11T12:55:56Z</time>
      </trkpt>
      <trkpt lat="43.70675" lon="6.00761">
        <ele>366.1</ele>
        <time>2023-06-11T12:55:57Z</time>
      </trkpt>
      <trkpt lat="43.70673" lon="6.00761">
        <ele>366.3</ele>
        <time>2023-06-11T12:55:58Z</time>
      </trkpt>
      <trkpt lat="43.70672" lon="6.00762">
        <ele>366.4</ele>
        <time>2023-06-11T12:55:59Z</time>
      </trkpt>
      <trkpt lat="43.70671" lon="6.00762">
        <ele>367</ele>
        <time>2023-06-11T12:56:00Z</time>
      </trkpt>
      <trkpt lat="43.7067" lon="6.00763">
        <ele>367.3</ele>
        <time>2023-06-11T12:56:01Z</time>
      </trkpt>
      <trkpt lat="43.70669" lon="6.00764">
        <ele>367.2</ele>
        <time>2023-06-11T12:56:02Z</time>
      </trkpt>
      <trkpt lat="43.70668" lon="6.00765">
        <ele>367</ele>
        <time>2023-06-11T12:56:03Z</time>
      </trkpt>
      <trkpt lat="43.70666" lon="6.00766">
        <ele>366.9</ele>
        <time>2023-06-11T12:56:04Z</time>
      </trkpt>
      <trkpt lat="43.70665" lon="6.00766">
        <ele>366.8</ele>
        <time>2023-06-11T12:56:05Z</time>
      </trkpt>
      <trkpt lat="43.70663" lon="6.00766">
        <ele>366.7</ele>
        <time>2023-06-11T12:56:06Z</time>
      </trkpt>
      <trkpt lat="43.70662" lon="6.00767">
        <ele>366.7</ele>
        <time>2023-06-11T12:56:07Z</time>
      </trkpt>
      <trkpt lat="43.7066" lon="6.00767">
        <ele>366.7</ele>
        <time>2023-06-11T12:56:08Z</time>
      </trkpt>
      <trkpt lat="43.70659" lon="6.00768">
        <ele>366.7</ele>
        <time>2023-06-11T12:56:09Z</time>
      </trkpt>
      <trkpt lat="43.70658" lon="6.00769">
        <ele>366.7</ele>
        <time>2023-06-11T12:56:10Z</time>
      </trkpt>
      <trkpt lat="43.70656" lon="6.0077">
        <ele>365.2</ele>
        <time>2023-06-11T12:56:11Z</time>
      </trkpt>
      <trkpt lat="43.70655" lon="6.00771">
        <ele>365.5</ele>
        <time>2023-06-11T12:56:12Z</time>
      </trkpt>
      <trkpt lat="43.70654" lon="6.00772">
        <ele>365.8</ele>
        <time>2023-06-11T12:56:13Z</time>
      </trkpt>
      <trkpt lat="43.70652" lon="6.00772">
        <ele>365.9</ele>
        <time>2023-06-11T12:56:14Z</time>
      </trkpt>
      <trkpt lat="43.70651" lon="6.00774">
        <ele>366.1</ele>
        <time>2023-06-11T12:56:15Z</time>
      </trkpt>
      <trkpt lat="43.7065" lon="6.00774">
        <ele>366.2</ele>
        <time>2023-06-11T12:56:16Z</time>
      </trkpt>
      <trkpt lat="43.70649" lon="6.00775">
        <ele>366.3</ele>
        <time>2023-06-11T12:56:17Z</time>
      </trkpt>
      <trkpt lat="43.70648" lon="6.00777">
        <ele>365.8</ele>
        <time>2023-06-11T12:56:18Z</time>
      </trkpt>
      <trkpt lat="43.70647" lon="6.00776">
        <ele>365.9</ele>
        <time>2023-06-11T12:56:19Z</time>
      </trkpt>
      <trkpt lat="43.70645" lon="6.00777">
        <ele>365.8</ele>
        <time>2023-06-11T12:56:20Z</time>
      </trkpt>
      <trkpt lat="43.70644" lon="6.00776">
        <ele>366.1</ele>
        <time>2023-06-11T12:56:21Z</time>
      </trkpt>
      <trkpt lat="43.70643" lon="6.00776">
        <ele>366.2</ele>
        <time>2023-06-11T12:56:22Z</time>
      </trkpt>
      <trkpt lat="43.70641" lon="6.00777">
        <ele>363.2</ele>
        <time>2023-06-11T12:56:23Z</time>
      </trkpt>
      <trkpt lat="43.7064" lon="6.00778">
        <ele>363.9</ele>
        <time>2023-06-11T12:56:24Z</time>
      </trkpt>
      <trkpt lat="43.70639" lon="6.00779">
        <ele>364.4</ele>
        <time>2023-06-11T12:56:25Z</time>
      </trkpt>
      <trkpt lat="43.70638" lon="6.0078">
        <ele>365</ele>
        <time>2023-06-11T12:56:26Z</time>
      </trkpt>
      <trkpt lat="43.70636" lon="6.00781">
        <ele>365.5</ele>
        <time>2023-06-11T12:56:27Z</time>
      </trkpt>
      <trkpt lat="43.70635" lon="6.0078">
        <ele>366.2</ele>
        <time>2023-06-11T12:56:28Z</time>
      </trkpt>
      <trkpt lat="43.70634" lon="6.0078">
        <ele>367.8</ele>
        <time>2023-06-11T12:56:29Z</time>
      </trkpt>
      <trkpt lat="43.70633" lon="6.00781">
        <ele>367.4</ele>
        <time>2023-06-11T12:56:30Z</time>
      </trkpt>
      <trkpt lat="43.70631" lon="6.0078">
        <ele>367.4</ele>
        <time>2023-06-11T12:56:31Z</time>
      </trkpt>
      <trkpt lat="43.70629" lon="6.00781">
        <ele>367.9</ele>
        <time>2023-06-11T12:56:32Z</time>
      </trkpt>
      <trkpt lat="43.70627" lon="6.0078">
        <ele>367.6</ele>
        <time>2023-06-11T12:56:33Z</time>
      </trkpt>
      <trkpt lat="43.70626" lon="6.0078">
        <ele>367.4</ele>
        <time>2023-06-11T12:56:34Z</time>
      </trkpt>
      <trkpt lat="43.70625" lon="6.00781">
        <ele>366.9</ele>
        <time>2023-06-11T12:56:35Z</time>
      </trkpt>
      <trkpt lat="43.70624" lon="6.0078">
        <ele>368.5</ele>
        <time>2023-06-11T12:56:36Z</time>
      </trkpt>
      <trkpt lat="43.70622" lon="6.00781">
        <ele>367.3</ele>
        <time>2023-06-11T12:56:37Z</time>
      </trkpt>
      <trkpt lat="43.70621" lon="6.00782">
        <ele>367</ele>
        <time>2023-06-11T12:56:38Z</time>
      </trkpt>
      <trkpt lat="43.70619" lon="6.00782">
        <ele>366.9</ele>
        <time>2023-06-11T12:56:39Z</time>
      </trkpt>
      <trkpt lat="43.70618" lon="6.00783">
        <ele>365.2</ele>
        <time>2023-06-11T12:56:40Z</time>
      </trkpt>
      <trkpt lat="43.70616" lon="6.00783">
        <ele>365.2</ele>
        <time>2023-06-11T12:56:41Z</time>
      </trkpt>
      <trkpt lat="43.70614" lon="6.00783">
        <ele>365.3</ele>
        <time>2023-06-11T12:56:42Z</time>
      </trkpt>
      <trkpt lat="43.70613" lon="6.00784">
        <ele>365.3</ele>
        <time>2023-06-11T12:56:43Z</time>
      </trkpt>
      <trkpt lat="43.70612" lon="6.00784">
        <ele>365</ele>
        <time>2023-06-11T12:56:44Z</time>
      </trkpt>
      <trkpt lat="43.7061" lon="6.00784">
        <ele>366.3</ele>
        <time>2023-06-11T12:56:45Z</time>
      </trkpt>
      <trkpt lat="43.70609" lon="6.00784">
        <ele>366.6</ele>
        <time>2023-06-11T12:56:46Z</time>
      </trkpt>
      <trkpt lat="43.70607" lon="6.00783">
        <ele>366.7</ele>
        <time>2023-06-11T12:56:47Z</time>
      </trkpt>
      <trkpt lat="43.70605" lon="6.00784">
        <ele>367</ele>
        <time>2023-06-11T12:56:48Z</time>
      </trkpt>
      <trkpt lat="43.70604" lon="6.00783">
        <ele>367.1</ele>
        <time>2023-06-11T12:56:49Z</time>
      </trkpt>
      <trkpt lat="43.70602" lon="6.00783">
        <ele>367</ele>
        <time>2023-06-11T12:56:50Z</time>
      </trkpt>
      <trkpt lat="43.706" lon="6.00782">
        <ele>366.7</ele>
        <time>2023-06-11T12:56:51Z</time>
      </trkpt>
      <trkpt lat="43.70599" lon="6.00782">
        <ele>367.3</ele>
        <time>2023-06-11T12:56:52Z</time>
      </trkpt>
      <trkpt lat="43.70597" lon="6.00782">
        <ele>367.1</ele>
        <time>2023-06-11T12:56:53Z</time>
      </trkpt>
      <trkpt lat="43.70596" lon="6.00782">
        <ele>367.1</ele>
        <time>2023-06-11T12:56:54Z</time>
      </trkpt>
      <trkpt lat="43.70594" lon="6.00782">
        <ele>366.7</ele>
        <time>2023-06-11T12:56:55Z</time>
      </trkpt>
      <trkpt lat="43.70592" lon="6.00781">
        <ele>366.7</ele>
        <time>2023-06-11T12:56:56Z</time>
      </trkpt>
      <trkpt lat="43.70591" lon="6.00781">
        <ele>366.8</ele>
        <time>2023-06-11T12:56:57Z</time>
      </trkpt>
      <trkpt lat="43.7059" lon="6.00781">
        <ele>366.8</ele>
        <time>2023-06-11T12:56:58Z</time>
      </trkpt>
      <trkpt lat="43.70588" lon="6.0078">
        <ele>366.8</ele>
        <time>2023-06-11T12:56:59Z</time>
      </trkpt>
      <trkpt lat="43.70587" lon="6.0078">
        <ele>366.7</ele>
        <time>2023-06-11T12:57:00Z</time>
      </trkpt>
      <trkpt lat="43.70585" lon="6.0078">
        <ele>367</ele>
        <time>2023-06-11T12:57:01Z</time>
      </trkpt>
      <trkpt lat="43.70584" lon="6.0078">
        <ele>367</ele>
        <time>2023-06-11T12:57:02Z</time>
      </trkpt>
      <trkpt lat="43.70582" lon="6.0078">
        <ele>367.4</ele>
        <time>2023-06-11T12:57:03Z</time>
      </trkpt>
      <trkpt lat="43.70581" lon="6.00779">
        <ele>367.2</ele>
        <time>2023-06-11T12:57:04Z</time>
      </trkpt>
      <trkpt lat="43.70579" lon="6.00778">
        <ele>366.6</ele>
        <time>2023-06-11T12:57:05Z</time>
      </trkpt>
      <trkpt lat="43.70578" lon="6.00778">
        <ele>366.6</ele>
        <time>2023-06-11T12:57:06Z</time>
      </trkpt>
      <trkpt lat="43.70576" lon="6.00778">
        <ele>366.5</ele>
        <time>2023-06-11T12:57:07Z</time>
      </trkpt>
      <trkpt lat="43.70574" lon="6.00778">
        <ele>366.5</ele>
        <time>2023-06-11T12:57:08Z</time>
      </trkpt>
      <trkpt lat="43.70573" lon="6.00778">
        <ele>366.5</ele>
        <time>2023-06-11T12:57:09Z</time>
      </trkpt>
      <trkpt lat="43.70571" lon="6.00779">
        <ele>365.3</ele>
        <time>2023-06-11T12:57:10Z</time>
      </trkpt>
      <trkpt lat="43.7057" lon="6.0078">
        <ele>365</ele>
        <time>2023-06-11T12:57:11Z</time>
      </trkpt>
      <trkpt lat="43.70568" lon="6.00779">
        <ele>365.4</ele>
        <time>2023-06-11T12:57:12Z</time>
      </trkpt>
      <trkpt lat="43.70567" lon="6.00779">
        <ele>365.6</ele>
        <time>2023-06-11T12:57:13Z</time>
      </trkpt>
      <trkpt lat="43.70566" lon="6.00779">
        <ele>365.9</ele>
        <time>2023-06-11T12:57:14Z</time>
      </trkpt>
      <trkpt lat="43.70564" lon="6.00779">
        <ele>366.5</ele>
        <time>2023-06-11T12:57:15Z</time>
      </trkpt>
      <trkpt lat="43.70563" lon="6.00779">
        <ele>366.3</ele>
        <time>2023-06-11T12:57:16Z</time>
      </trkpt>
      <trkpt lat="43.70561" lon="6.0078">
        <ele>366.3</ele>
        <time>2023-06-11T12:57:17Z</time>
      </trkpt>
      <trkpt lat="43.7056" lon="6.0078">
        <ele>366.4</ele>
        <time>2023-06-11T12:57:18Z</time>
      </trkpt>
      <trkpt lat="43.70559" lon="6.00779">
        <ele>366.6</ele>
        <time>2023-06-11T12:57:19Z</time>
      </trkpt>
      <trkpt lat="43.70557" lon="6.00777">
        <ele>366.7</ele>
        <time>2023-06-11T12:57:20Z</time>
      </trkpt>
      <trkpt lat="43.70556" lon="6.00774">
        <ele>366.8</ele>
        <time>2023-06-11T12:57:21Z</time>
      </trkpt>
      <trkpt lat="43.70555" lon="6.00774">
        <ele>366.8</ele>
        <time>2023-06-11T12:57:22Z</time>
      </trkpt>
      <trkpt lat="43.70553" lon="6.00774">
        <ele>366.9</ele>
        <time>2023-06-11T12:57:23Z</time>
      </trkpt>
      <trkpt lat="43.70552" lon="6.00774">
        <ele>366.8</ele>
        <time>2023-06-11T12:57:24Z</time>
      </trkpt>
      <trkpt lat="43.7055" lon="6.00774">
        <ele>366.7</ele>
        <time>2023-06-11T12:57:25Z</time>
      </trkpt>
      <trkpt lat="43.70549" lon="6.00773">
        <ele>366.7</ele>
        <time>2023-06-11T12:57:26Z</time>
      </trkpt>
      <trkpt lat="43.70548" lon="6.00773">
        <ele>366.7</ele>
        <time>2023-06-11T12:57:27Z</time>
      </trkpt>
      <trkpt lat="43.70546" lon="6.00773">
        <ele>366.7</ele>
        <time>2023-06-11T12:57:28Z</time>
      </trkpt>
      <trkpt lat="43.70545" lon="6.00773">
        <ele>366.6</ele>
        <time>2023-06-11T12:57:29Z</time>
      </trkpt>
      <trkpt lat="43.70543" lon="6.00773">
        <ele>366.6</ele>
        <time>2023-06-11T12:57:30Z</time>
      </trkpt>
      <trkpt lat="43.70542" lon="6.00773">
        <ele>366.6</ele>
        <time>2023-06-11T12:57:31Z</time>
      </trkpt>
      <trkpt lat="43.7054" lon="6.00773">
        <ele>366.6</ele>
        <time>2023-06-11T12:57:32Z</time>
      </trkpt>
      <trkpt lat="43.70539" lon="6.00772">
        <ele>366.7</ele>
        <time>2023-06-11T12:57:33Z</time>
      </trkpt>
      <trkpt lat="43.70538" lon="6.00772">
        <ele>366.7</ele>
        <time>2023-06-11T12:57:34Z</time>
      </trkpt>
      <trkpt lat="43.70536" lon="6.00772">
        <ele>366.6</ele>
        <time>2023-06-11T12:57:35Z</time>
      </trkpt>
      <trkpt lat="43.70535" lon="6.00772">
        <ele>366.6</ele>
        <time>2023-06-11T12:57:36Z</time>
      </trkpt>
      <trkpt lat="43.70533" lon="6.00772">
        <ele>366.6</ele>
        <time>2023-06-11T12:57:37Z</time>
      </trkpt>
      <trkpt lat="43.70532" lon="6.00772">
        <ele>366.6</ele>
        <time>2023-06-11T12:57:38Z</time>
      </trkpt>
      <trkpt lat="43.7053" lon="6.00772">
        <ele>366.5</ele>
        <time>2023-06-11T12:57:39Z</time>
      </trkpt>
      <trkpt lat="43.70529" lon="6.00772">
        <ele>366.6</ele>
        <time>2023-06-11T12:57:40Z</time>
      </trkpt>
      <trkpt lat="43.70527" lon="6.00772">
        <ele>366.6</ele>
        <time>2023-06-11T12:57:41Z</time>
      </trkpt>
      <trkpt lat="43.70526" lon="6.00771">
        <ele>366.7</ele>
        <time>2023-06-11T12:57:42Z</time>
      </trkpt>
      <trkpt lat="43.70524" lon="6.00771">
        <ele>366.7</ele>
        <time>2023-06-11T12:57:43Z</time>
      </trkpt>
      <trkpt lat="43.70523" lon="6.00771">
        <ele>366.7</ele>
        <time>2023-06-11T12:57:44Z</time>
      </trkpt>
      <trkpt lat="43.70522" lon="6.00771">
        <ele>366.6</ele>
        <time>2023-06-11T12:57:45Z</time>
      </trkpt>
      <trkpt lat="43.7052" lon="6.00771">
        <ele>366.6</ele>
        <time>2023-06-11T12:57:46Z</time>
      </trkpt>
      <trkpt lat="43.70519" lon="6.00771">
        <ele>366.5</ele>
        <time>2023-06-11T12:57:47Z</time>
      </trkpt>
      <trkpt lat="43.70517" lon="6.00771">
        <ele>366.5</ele>
        <time>2023-06-11T12:57:48Z</time>
      </trkpt>
      <trkpt lat="43.70516" lon="6.0077">
        <ele>366.5</ele>
        <time>2023-06-11T12:57:49Z</time>
      </trkpt>
      <trkpt lat="43.70515" lon="6.0077">
        <ele>366.5</ele>
        <time>2023-06-11T12:57:50Z</time>
      </trkpt>
      <trkpt lat="43.70513" lon="6.0077">
        <ele>366.5</ele>
        <time>2023-06-11T12:57:51Z</time>
      </trkpt>
      <trkpt lat="43.70512" lon="6.0077">
        <ele>366.5</ele>
        <time>2023-06-11T12:57:52Z</time>
      </trkpt>
      <trkpt lat="43.70511" lon="6.0077">
        <ele>366.4</ele>
        <time>2023-06-11T12:57:53Z</time>
      </trkpt>
      <trkpt lat="43.70509" lon="6.0077">
        <ele>366.4</ele>
        <time>2023-06-11T12:57:54Z</time>
      </trkpt>
      <trkpt lat="43.70508" lon="6.0077">
        <ele>366.4</ele>
        <time>2023-06-11T12:57:55Z</time>
      </trkpt>
      <trkpt lat="43.70506" lon="6.0077">
        <ele>366.3</ele>
        <time>2023-06-11T12:57:56Z</time>
      </trkpt>
      <trkpt lat="43.70505" lon="6.0077">
        <ele>366.3</ele>
        <time>2023-06-11T12:57:57Z</time>
      </trkpt>
      <trkpt lat="43.70504" lon="6.0077">
        <ele>366.2</ele>
        <time>2023-06-11T12:57:58Z</time>
      </trkpt>
      <trkpt lat="43.70502" lon="6.0077">
        <ele>366.2</ele>
        <time>2023-06-11T12:57:59Z</time>
      </trkpt>
      <trkpt lat="43.70501" lon="6.0077">
        <ele>366.1</ele>
        <time>2023-06-11T12:58:00Z</time>
      </trkpt>
      <trkpt lat="43.70499" lon="6.0077">
        <ele>366.1</ele>
        <time>2023-06-11T12:58:01Z</time>
      </trkpt>
      <trkpt lat="43.70498" lon="6.0077">
        <ele>366.1</ele>
        <time>2023-06-11T12:58:02Z</time>
      </trkpt>
      <trkpt lat="43.70497" lon="6.00769">
        <ele>366.1</ele>
        <time>2023-06-11T12:58:03Z</time>
      </trkpt>
      <trkpt lat="43.70495" lon="6.00768">
        <ele>366.1</ele>
        <time>2023-06-11T12:58:04Z</time>
      </trkpt>
      <trkpt lat="43.70494" lon="6.00768">
        <ele>366.1</ele>
        <time>2023-06-11T12:58:05Z</time>
      </trkpt>
      <trkpt lat="43.70492" lon="6.00767">
        <ele>366.1</ele>
        <time>2023-06-11T12:58:06Z</time>
      </trkpt>
      <trkpt lat="43.70491" lon="6.00767">
        <ele>366.1</ele>
        <time>2023-06-11T12:58:07Z</time>
      </trkpt>
      <trkpt lat="43.7049" lon="6.00767">
        <ele>366</ele>
        <time>2023-06-11T12:58:08Z</time>
      </trkpt>
      <trkpt lat="43.70488" lon="6.00767">
        <ele>366</ele>
        <time>2023-06-11T12:58:09Z</time>
      </trkpt>
      <trkpt lat="43.70487" lon="6.00767">
        <ele>366</ele>
        <time>2023-06-11T12:58:10Z</time>
      </trkpt>
      <trkpt lat="43.70485" lon="6.00766">
        <ele>366</ele>
        <time>2023-06-11T12:58:11Z</time>
      </trkpt>
      <trkpt lat="43.70484" lon="6.00765">
        <ele>366</ele>
        <time>2023-06-11T12:58:12Z</time>
      </trkpt>
      <trkpt lat="43.70482" lon="6.00763">
        <ele>366</ele>
        <time>2023-06-11T12:58:13Z</time>
      </trkpt>
      <trkpt lat="43.7048" lon="6.00763">
        <ele>366</ele>
        <time>2023-06-11T12:58:14Z</time>
      </trkpt>
      <trkpt lat="43.70479" lon="6.00763">
        <ele>366</ele>
        <time>2023-06-11T12:58:15Z</time>
      </trkpt>
      <trkpt lat="43.70477" lon="6.00762">
        <ele>366</ele>
        <time>2023-06-11T12:58:16Z</time>
      </trkpt>
      <trkpt lat="43.70476" lon="6.00762">
        <ele>366</ele>
        <time>2023-06-11T12:58:17Z</time>
      </trkpt>
      <trkpt lat="43.70474" lon="6.00761">
        <ele>366</ele>
        <time>2023-06-11T12:58:18Z</time>
      </trkpt>
      <trkpt lat="43.70472" lon="6.00761">
        <ele>366</ele>
        <time>2023-06-11T12:58:19Z</time>
      </trkpt>
      <trkpt lat="43.70471" lon="6.00761">
        <ele>366</ele>
        <time>2023-06-11T12:58:20Z</time>
      </trkpt>
      <trkpt lat="43.70469" lon="6.0076">
        <ele>366</ele>
        <time>2023-06-11T12:58:21Z</time>
      </trkpt>
      <trkpt lat="43.70467" lon="6.0076">
        <ele>365.9</ele>
        <time>2023-06-11T12:58:22Z</time>
      </trkpt>
      <trkpt lat="43.70466" lon="6.0076">
        <ele>365.9</ele>
        <time>2023-06-11T12:58:23Z</time>
      </trkpt>
      <trkpt lat="43.70464" lon="6.00759">
        <ele>365.9</ele>
        <time>2023-06-11T12:58:24Z</time>
      </trkpt>
      <trkpt lat="43.70462" lon="6.00759">
        <ele>366</ele>
        <time>2023-06-11T12:58:25Z</time>
      </trkpt>
      <trkpt lat="43.70461" lon="6.00759">
        <ele>366</ele>
        <time>2023-06-11T12:58:26Z</time>
      </trkpt>
      <trkpt lat="43.70459" lon="6.00759">
        <ele>366.1</ele>
        <time>2023-06-11T12:58:27Z</time>
      </trkpt>
      <trkpt lat="43.70458" lon="6.00759">
        <ele>366.1</ele>
        <time>2023-06-11T12:58:28Z</time>
      </trkpt>
      <trkpt lat="43.70456" lon="6.00759">
        <ele>366.1</ele>
        <time>2023-06-11T12:58:29Z</time>
      </trkpt>
      <trkpt lat="43.70454" lon="6.00759">
        <ele>366</ele>
        <time>2023-06-11T12:58:30Z</time>
      </trkpt>
      <trkpt lat="43.70453" lon="6.00759">
        <ele>366</ele>
        <time>2023-06-11T12:58:31Z</time>
      </trkpt>
      <trkpt lat="43.70451" lon="6.00759">
        <ele>366</ele>
        <time>2023-06-11T12:58:32Z</time>
      </trkpt>
      <trkpt lat="43.7045" lon="6.00759">
        <ele>366</ele>
        <time>2023-06-11T12:58:33Z</time>
      </trkpt>
      <trkpt lat="43.70448" lon="6.0076">
        <ele>366</ele>
        <time>2023-06-11T12:58:34Z</time>
      </trkpt>
      <trkpt lat="43.70447" lon="6.0076">
        <ele>365.9</ele>
        <time>2023-06-11T12:58:35Z</time>
      </trkpt>
      <trkpt lat="43.70445" lon="6.0076">
        <ele>365.9</ele>
        <time>2023-06-11T12:58:36Z</time>
      </trkpt>
      <trkpt lat="43.70444" lon="6.0076">
        <ele>366</ele>
        <time>2023-06-11T12:58:37Z</time>
      </trkpt>
      <trkpt lat="43.70442" lon="6.0076">
        <ele>366</ele>
        <time>2023-06-11T12:58:38Z</time>
      </trkpt>
      <trkpt lat="43.7044" lon="6.00761">
        <ele>366.1</ele>
        <time>2023-06-11T12:58:39Z</time>
      </trkpt>
      <trkpt lat="43.70439" lon="6.00761">
        <ele>366.1</ele>
        <time>2023-06-11T12:58:40Z</time>
      </trkpt>
      <trkpt lat="43.70437" lon="6.00761">
        <ele>366.1</ele>
        <time>2023-06-11T12:58:41Z</time>
      </trkpt>
      <trkpt lat="43.70436" lon="6.00762">
        <ele>366.1</ele>
        <time>2023-06-11T12:58:42Z</time>
      </trkpt>
      <trkpt lat="43.70434" lon="6.00762">
        <ele>366.1</ele>
        <time>2023-06-11T12:58:43Z</time>
      </trkpt>
      <trkpt lat="43.70433" lon="6.00762">
        <ele>366.1</ele>
        <time>2023-06-11T12:58:44Z</time>
      </trkpt>
      <trkpt lat="43.70431" lon="6.00763">
        <ele>366.1</ele>
        <time>2023-06-11T12:58:45Z</time>
      </trkpt>
      <trkpt lat="43.7043" lon="6.00763">
        <ele>366.1</ele>
        <time>2023-06-11T12:58:46Z</time>
      </trkpt>
      <trkpt lat="43.70428" lon="6.00764">
        <ele>366.1</ele>
        <time>2023-06-11T12:58:47Z</time>
      </trkpt>
      <trkpt lat="43.70427" lon="6.00764">
        <ele>366.1</ele>
        <time>2023-06-11T12:58:48Z</time>
      </trkpt>
      <trkpt lat="43.70425" lon="6.00765">
        <ele>366.2</ele>
        <time>2023-06-11T12:58:49Z</time>
      </trkpt>
      <trkpt lat="43.70424" lon="6.00766">
        <ele>366.2</ele>
        <time>2023-06-11T12:58:50Z</time>
      </trkpt>
      <trkpt lat="43.70423" lon="6.00767">
        <ele>366.2</ele>
        <time>2023-06-11T12:58:51Z</time>
      </trkpt>
      <trkpt lat="43.70422" lon="6.00768">
        <ele>366.4</ele>
        <time>2023-06-11T12:58:52Z</time>
      </trkpt>
      <trkpt lat="43.7042" lon="6.0077">
        <ele>366.2</ele>
        <time>2023-06-11T12:58:53Z</time>
      </trkpt>
      <trkpt lat="43.70419" lon="6.0077">
        <ele>366.2</ele>
        <time>2023-06-11T12:58:54Z</time>
      </trkpt>
      <trkpt lat="43.70417" lon="6.00771">
        <ele>366.4</ele>
        <time>2023-06-11T12:58:55Z</time>
      </trkpt>
      <trkpt lat="43.70416" lon="6.00772">
        <ele>366.5</ele>
        <time>2023-06-11T12:58:56Z</time>
      </trkpt>
      <trkpt lat="43.70415" lon="6.00773">
        <ele>366.6</ele>
        <time>2023-06-11T12:58:57Z</time>
      </trkpt>
      <trkpt lat="43.70414" lon="6.00774">
        <ele>366.6</ele>
        <time>2023-06-11T12:58:58Z</time>
      </trkpt>
      <trkpt lat="43.70412" lon="6.00775">
        <ele>366.6</ele>
        <time>2023-06-11T12:58:59Z</time>
      </trkpt>
      <trkpt lat="43.70411" lon="6.00776">
        <ele>366.6</ele>
        <time>2023-06-11T12:59:00Z</time>
      </trkpt>
      <trkpt lat="43.7041" lon="6.00778">
        <ele>366.6</ele>
        <time>2023-06-11T12:59:01Z</time>
      </trkpt>
      <trkpt lat="43.70409" lon="6.00779">
        <ele>366.5</ele>
        <time>2023-06-11T12:59:02Z</time>
      </trkpt>
      <trkpt lat="43.70408" lon="6.0078">
        <ele>366.5</ele>
        <time>2023-06-11T12:59:03Z</time>
      </trkpt>
      <trkpt lat="43.70407" lon="6.00782">
        <ele>366.5</ele>
        <time>2023-06-11T12:59:04Z</time>
      </trkpt>
      <trkpt lat="43.70406" lon="6.00783">
        <ele>366.5</ele>
        <time>2023-06-11T12:59:05Z</time>
      </trkpt>
      <trkpt lat="43.70405" lon="6.00784">
        <ele>366.5</ele>
        <time>2023-06-11T12:59:06Z</time>
      </trkpt>
      <trkpt lat="43.70404" lon="6.00786">
        <ele>366.5</ele>
        <time>2023-06-11T12:59:07Z</time>
      </trkpt>
      <trkpt lat="43.70403" lon="6.00787">
        <ele>366.6</ele>
        <time>2023-06-11T12:59:08Z</time>
      </trkpt>
      <trkpt lat="43.70402" lon="6.00789">
        <ele>366.6</ele>
        <time>2023-06-11T12:59:09Z</time>
      </trkpt>
      <trkpt lat="43.704" lon="6.0079">
        <ele>366.6</ele>
        <time>2023-06-11T12:59:10Z</time>
      </trkpt>
      <trkpt lat="43.70399" lon="6.00791">
        <ele>366.6</ele>
        <time>2023-06-11T12:59:11Z</time>
      </trkpt>
      <trkpt lat="43.70398" lon="6.00793">
        <ele>366.6</ele>
        <time>2023-06-11T12:59:12Z</time>
      </trkpt>
      <trkpt lat="43.70397" lon="6.00794">
        <ele>366.6</ele>
        <time>2023-06-11T12:59:13Z</time>
      </trkpt>
      <trkpt lat="43.70396" lon="6.00796">
        <ele>366.7</ele>
        <time>2023-06-11T12:59:14Z</time>
      </trkpt>
      <trkpt lat="43.70395" lon="6.00797">
        <ele>366.6</ele>
        <time>2023-06-11T12:59:15Z</time>
      </trkpt>
      <trkpt lat="43.70394" lon="6.00798">
        <ele>366.6</ele>
        <time>2023-06-11T12:59:16Z</time>
      </trkpt>
      <trkpt lat="43.70393" lon="6.008">
        <ele>366.5</ele>
        <time>2023-06-11T12:59:17Z</time>
      </trkpt>
      <trkpt lat="43.70392" lon="6.00801">
        <ele>366.5</ele>
        <time>2023-06-11T12:59:18Z</time>
      </trkpt>
      <trkpt lat="43.70391" lon="6.00802">
        <ele>366.5</ele>
        <time>2023-06-11T12:59:19Z</time>
      </trkpt>
      <trkpt lat="43.7039" lon="6.00803">
        <ele>366.5</ele>
        <time>2023-06-11T12:59:20Z</time>
      </trkpt>
      <trkpt lat="43.70389" lon="6.00805">
        <ele>366.5</ele>
        <time>2023-06-11T12:59:21Z</time>
      </trkpt>
      <trkpt lat="43.70388" lon="6.00806">
        <ele>366.5</ele>
        <time>2023-06-11T12:59:22Z</time>
      </trkpt>
      <trkpt lat="43.70387" lon="6.00808">
        <ele>366.5</ele>
        <time>2023-06-11T12:59:23Z</time>
      </trkpt>
      <trkpt lat="43.70386" lon="6.00809">
        <ele>366.4</ele>
        <time>2023-06-11T12:59:24Z</time>
      </trkpt>
      <trkpt lat="43.70385" lon="6.00811">
        <ele>366.4</ele>
        <time>2023-06-11T12:59:25Z</time>
      </trkpt>
      <trkpt lat="43.70384" lon="6.00812">
        <ele>366.3</ele>
        <time>2023-06-11T12:59:26Z</time>
      </trkpt>
      <trkpt lat="43.70383" lon="6.00814">
        <ele>366.3</ele>
        <time>2023-06-11T12:59:27Z</time>
      </trkpt>
      <trkpt lat="43.70382" lon="6.00815">
        <ele>366.3</ele>
        <time>2023-06-11T12:59:28Z</time>
      </trkpt>
      <trkpt lat="43.70381" lon="6.00817">
        <ele>366.3</ele>
        <time>2023-06-11T12:59:29Z</time>
      </trkpt>
      <trkpt lat="43.7038" lon="6.00818">
        <ele>366.2</ele>
        <time>2023-06-11T12:59:30Z</time>
      </trkpt>
      <trkpt lat="43.70379" lon="6.00819">
        <ele>366.2</ele>
        <time>2023-06-11T12:59:31Z</time>
      </trkpt>
      <trkpt lat="43.70378" lon="6.00821">
        <ele>366.2</ele>
        <time>2023-06-11T12:59:32Z</time>
      </trkpt>
      <trkpt lat="43.70377" lon="6.00822">
        <ele>366.2</ele>
        <time>2023-06-11T12:59:33Z</time>
      </trkpt>
      <trkpt lat="43.70376" lon="6.00823">
        <ele>366.2</ele>
        <time>2023-06-11T12:59:34Z</time>
      </trkpt>
      <trkpt lat="43.70375" lon="6.00825">
        <ele>366.1</ele>
        <time>2023-06-11T12:59:35Z</time>
      </trkpt>
      <trkpt lat="43.70374" lon="6.00826">
        <ele>366.1</ele>
        <time>2023-06-11T12:59:36Z</time>
      </trkpt>
      <trkpt lat="43.70373" lon="6.00828">
        <ele>366.2</ele>
        <time>2023-06-11T12:59:37Z</time>
      </trkpt>
      <trkpt lat="43.70372" lon="6.00829">
        <ele>366.2</ele>
        <time>2023-06-11T12:59:38Z</time>
      </trkpt>
      <trkpt lat="43.70371" lon="6.00831">
        <ele>366.2</ele>
        <time>2023-06-11T12:59:39Z</time>
      </trkpt>
      <trkpt lat="43.70371" lon="6.00833">
        <ele>366.2</ele>
        <time>2023-06-11T12:59:40Z</time>
      </trkpt>
      <trkpt lat="43.7037" lon="6.00834">
        <ele>366.2</ele>
        <time>2023-06-11T12:59:41Z</time>
      </trkpt>
      <trkpt lat="43.70369" lon="6.00836">
        <ele>366.2</ele>
        <time>2023-06-11T12:59:42Z</time>
      </trkpt>
      <trkpt lat="43.70369" lon="6.00837">
        <ele>366.2</ele>
        <time>2023-06-11T12:59:43Z</time>
      </trkpt>
      <trkpt lat="43.70368" lon="6.00839">
        <ele>366.2</ele>
        <time>2023-06-11T12:59:44Z</time>
      </trkpt>
      <trkpt lat="43.70367" lon="6.00841">
        <ele>366.3</ele>
        <time>2023-06-11T12:59:45Z</time>
      </trkpt>
      <trkpt lat="43.70367" lon="6.00843">
        <ele>366.3</ele>
        <time>2023-06-11T12:59:46Z</time>
      </trkpt>
      <trkpt lat="43.70366" lon="6.00844">
        <ele>366.4</ele>
        <time>2023-06-11T12:59:47Z</time>
      </trkpt>
      <trkpt lat="43.70366" lon="6.00846">
        <ele>366.4</ele>
        <time>2023-06-11T12:59:48Z</time>
      </trkpt>
      <trkpt lat="43.70365" lon="6.00848">
        <ele>366.5</ele>
        <time>2023-06-11T12:59:49Z</time>
      </trkpt>
      <trkpt lat="43.70365" lon="6.0085">
        <ele>366.5</ele>
        <time>2023-06-11T12:59:50Z</time>
      </trkpt>
      <trkpt lat="43.70364" lon="6.00852">
        <ele>366.5</ele>
        <time>2023-06-11T12:59:51Z</time>
      </trkpt>
      <trkpt lat="43.70364" lon="6.00853">
        <ele>366.5</ele>
        <time>2023-06-11T12:59:52Z</time>
      </trkpt>
      <trkpt lat="43.70363" lon="6.00855">
        <ele>366.5</ele>
        <time>2023-06-11T12:59:53Z</time>
      </trkpt>
      <trkpt lat="43.70363" lon="6.00857">
        <ele>366.5</ele>
        <time>2023-06-11T12:59:54Z</time>
      </trkpt>
      <trkpt lat="43.70363" lon="6.00859">
        <ele>366.5</ele>
        <time>2023-06-11T12:59:55Z</time>
      </trkpt>
      <trkpt lat="43.70362" lon="6.00861">
        <ele>366.5</ele>
        <time>2023-06-11T12:59:56Z</time>
      </trkpt>
      <trkpt lat="43.70362" lon="6.00863">
        <ele>366.5</ele>
        <time>2023-06-11T12:59:57Z</time>
      </trkpt>
      <trkpt lat="43.70362" lon="6.00865">
        <ele>366.5</ele>
        <time>2023-06-11T12:59:58Z</time>
      </trkpt>
      <trkpt lat="43.70361" lon="6.00866">
        <ele>366.5</ele>
        <time>2023-06-11T12:59:59Z</time>
      </trkpt>
      <trkpt lat="43.70361" lon="6.00868">
        <ele>366.4</ele>
        <time>2023-06-11T13:00:00Z</time>
      </trkpt>
      <trkpt lat="43.7036" lon="6.0087">
        <ele>366.4</ele>
        <time>2023-06-11T13:00:01Z</time>
      </trkpt>
      <trkpt lat="43.7036" lon="6.00872">
        <ele>366.3</ele>
        <time>2023-06-11T13:00:02Z</time>
      </trkpt>
      <trkpt lat="43.70359" lon="6.00874">
        <ele>366.3</ele>
        <time>2023-06-11T13:00:03Z</time>
      </trkpt>
      <trkpt lat="43.70359" lon="6.00875">
        <ele>366.4</ele>
        <time>2023-06-11T13:00:04Z</time>
      </trkpt>
      <trkpt lat="43.70359" lon="6.00877">
        <ele>366.4</ele>
        <time>2023-06-11T13:00:05Z</time>
      </trkpt>
      <trkpt lat="43.70358" lon="6.00879">
        <ele>366.4</ele>
        <time>2023-06-11T13:00:06Z</time>
      </trkpt>
      <trkpt lat="43.70358" lon="6.00881">
        <ele>366.4</ele>
        <time>2023-06-11T13:00:07Z</time>
      </trkpt>
      <trkpt lat="43.70357" lon="6.00883">
        <ele>366.4</ele>
        <time>2023-06-11T13:00:08Z</time>
      </trkpt>
      <trkpt lat="43.70357" lon="6.00885">
        <ele>366.5</ele>
        <time>2023-06-11T13:00:09Z</time>
      </trkpt>
      <trkpt lat="43.70356" lon="6.00887">
        <ele>366.5</ele>
        <time>2023-06-11T13:00:10Z</time>
      </trkpt>
      <trkpt lat="43.70356" lon="6.00888">
        <ele>366.6</ele>
        <time>2023-06-11T13:00:11Z</time>
      </trkpt>
      <trkpt lat="43.70355" lon="6.0089">
        <ele>366.6</ele>
        <time>2023-06-11T13:00:12Z</time>
      </trkpt>
      <trkpt lat="43.70355" lon="6.00892">
        <ele>366.7</ele>
        <time>2023-06-11T13:00:13Z</time>
      </trkpt>
      <trkpt lat="43.70355" lon="6.00894">
        <ele>366.7</ele>
        <time>2023-06-11T13:00:14Z</time>
      </trkpt>
      <trkpt lat="43.70354" lon="6.00896">
        <ele>366.7</ele>
        <time>2023-06-11T13:00:15Z</time>
      </trkpt>
      <trkpt lat="43.70354" lon="6.00898">
        <ele>366.7</ele>
        <time>2023-06-11T13:00:16Z</time>
      </trkpt>
      <trkpt lat="43.70354" lon="6.009">
        <ele>366.7</ele>
        <time>2023-06-11T13:00:17Z</time>
      </trkpt>
      <trkpt lat="43.70353" lon="6.00901">
        <ele>366.7</ele>
        <time>2023-06-11T13:00:18Z</time>
      </trkpt>
      <trkpt lat="43.70353" lon="6.00903">
        <ele>366.6</ele>
        <time>2023-06-11T13:00:19Z</time>
      </trkpt>
      <trkpt lat="43.70352" lon="6.00905">
        <ele>366.6</ele>
        <time>2023-06-11T13:00:20Z</time>
      </trkpt>
      <trkpt lat="43.70352" lon="6.00907">
        <ele>366.5</ele>
        <time>2023-06-11T13:00:21Z</time>
      </trkpt>
      <trkpt lat="43.70352" lon="6.00909">
        <ele>366.5</ele>
        <time>2023-06-11T13:00:22Z</time>
      </trkpt>
      <trkpt lat="43.70351" lon="6.00911">
        <ele>366.5</ele>
        <time>2023-06-11T13:00:23Z</time>
      </trkpt>
      <trkpt lat="43.70351" lon="6.00913">
        <ele>366.4</ele>
        <time>2023-06-11T13:00:24Z</time>
      </trkpt>
      <trkpt lat="43.70351" lon="6.00915">
        <ele>366.5</ele>
        <time>2023-06-11T13:00:25Z</time>
      </trkpt>
      <trkpt lat="43.7035" lon="6.00916">
        <ele>366.6</ele>
        <time>2023-06-11T13:00:26Z</time>
      </trkpt>
      <trkpt lat="43.7035" lon="6.00918">
        <ele>366.6</ele>
        <time>2023-06-11T13:00:27Z</time>
      </trkpt>
      <trkpt lat="43.7035" lon="6.0092">
        <ele>366.6</ele>
        <time>2023-06-11T13:00:28Z</time>
      </trkpt>
      <trkpt lat="43.7035" lon="6.00922">
        <ele>366.6</ele>
        <time>2023-06-11T13:00:29Z</time>
      </trkpt>
      <trkpt lat="43.70349" lon="6.00923">
        <ele>366.6</ele>
        <time>2023-06-11T13:00:30Z</time>
      </trkpt>
      <trkpt lat="43.70349" lon="6.00925">
        <ele>366.6</ele>
        <time>2023-06-11T13:00:31Z</time>
      </trkpt>
      <trkpt lat="43.70349" lon="6.00927">
        <ele>366.6</ele>
        <time>2023-06-11T13:00:32Z</time>
      </trkpt>
      <trkpt lat="43.70348" lon="6.00929">
        <ele>366.6</ele>
        <time>2023-06-11T13:00:33Z</time>
      </trkpt>
      <trkpt lat="43.70348" lon="6.00931">
        <ele>366.7</ele>
        <time>2023-06-11T13:00:34Z</time>
      </trkpt>
      <trkpt lat="43.70348" lon="6.00933">
        <ele>366.7</ele>
        <time>2023-06-11T13:00:35Z</time>
      </trkpt>
      <trkpt lat="43.70348" lon="6.00935">
        <ele>366.7</ele>
        <time>2023-06-11T13:00:36Z</time>
      </trkpt>
      <trkpt lat="43.70348" lon="6.00936">
        <ele>366.7</ele>
        <time>2023-06-11T13:00:37Z</time>
      </trkpt>
      <trkpt lat="43.70348" lon="6.00938">
        <ele>366.6</ele>
        <time>2023-06-11T13:00:38Z</time>
      </trkpt>
      <trkpt lat="43.70348" lon="6.0094">
        <ele>366.6</ele>
        <time>2023-06-11T13:00:39Z</time>
      </trkpt>
      <trkpt lat="43.70347" lon="6.00942">
        <ele>366.6</ele>
        <time>2023-06-11T13:00:40Z</time>
      </trkpt>
      <trkpt lat="43.70347" lon="6.00944">
        <ele>366.6</ele>
        <time>2023-06-11T13:00:41Z</time>
      </trkpt>
      <trkpt lat="43.70347" lon="6.00946">
        <ele>366.6</ele>
        <time>2023-06-11T13:00:42Z</time>
      </trkpt>
      <trkpt lat="43.70347" lon="6.00948">
        <ele>366.6</ele>
        <time>2023-06-11T13:00:43Z</time>
      </trkpt>
      <trkpt lat="43.70347" lon="6.0095">
        <ele>366.7</ele>
        <time>2023-06-11T13:00:44Z</time>
      </trkpt>
      <trkpt lat="43.70347" lon="6.00952">
        <ele>366.7</ele>
        <time>2023-06-11T13:00:45Z</time>
      </trkpt>
      <trkpt lat="43.70346" lon="6.00953">
        <ele>366.7</ele>
        <time>2023-06-11T13:00:46Z</time>
      </trkpt>
      <trkpt lat="43.70346" lon="6.00955">
        <ele>366.7</ele>
        <time>2023-06-11T13:00:47Z</time>
      </trkpt>
      <trkpt lat="43.70346" lon="6.00957">
        <ele>366.7</ele>
        <time>2023-06-11T13:00:48Z</time>
      </trkpt>
      <trkpt lat="43.70345" lon="6.00959">
        <ele>366.6</ele>
        <time>2023-06-11T13:00:49Z</time>
      </trkpt>
      <trkpt lat="43.70345" lon="6.0096">
        <ele>366.6</ele>
        <time>2023-06-11T13:00:50Z</time>
      </trkpt>
      <trkpt lat="43.70345" lon="6.00962">
        <ele>366.6</ele>
        <time>2023-06-11T13:00:51Z</time>
      </trkpt>
      <trkpt lat="43.70344" lon="6.00964">
        <ele>366.6</ele>
        <time>2023-06-11T13:00:52Z</time>
      </trkpt>
      <trkpt lat="43.70344" lon="6.00966">
        <ele>366.4</ele>
        <time>2023-06-11T13:00:53Z</time>
      </trkpt>
      <trkpt lat="43.70344" lon="6.00968">
        <ele>366.5</ele>
        <time>2023-06-11T13:00:54Z</time>
      </trkpt>
      <trkpt lat="43.70344" lon="6.00969">
        <ele>366.5</ele>
        <time>2023-06-11T13:00:55Z</time>
      </trkpt>
      <trkpt lat="43.70344" lon="6.00971">
        <ele>366.5</ele>
        <time>2023-06-11T13:00:56Z</time>
      </trkpt>
      <trkpt lat="43.70344" lon="6.00973">
        <ele>366.5</ele>
        <time>2023-06-11T13:00:57Z</time>
      </trkpt>
      <trkpt lat="43.70343" lon="6.00975">
        <ele>366.6</ele>
        <time>2023-06-11T13:00:58Z</time>
      </trkpt>
      <trkpt lat="43.70343" lon="6.00977">
        <ele>366.6</ele>
        <time>2023-06-11T13:00:59Z</time>
      </trkpt>
      <trkpt lat="43.70343" lon="6.00979">
        <ele>366.7</ele>
        <time>2023-06-11T13:01:00Z</time>
      </trkpt>
      <trkpt lat="43.70342" lon="6.00981">
        <ele>366.6</ele>
        <time>2023-06-11T13:01:01Z</time>
      </trkpt>
      <trkpt lat="43.70342" lon="6.00982">
        <ele>366.7</ele>
        <time>2023-06-11T13:01:02Z</time>
      </trkpt>
      <trkpt lat="43.70342" lon="6.00984">
        <ele>366.6</ele>
        <time>2023-06-11T13:01:03Z</time>
      </trkpt>
      <trkpt lat="43.70342" lon="6.00986">
        <ele>366.6</ele>
        <time>2023-06-11T13:01:04Z</time>
      </trkpt>
      <trkpt lat="43.70342" lon="6.00988">
        <ele>366.7</ele>
        <time>2023-06-11T13:01:05Z</time>
      </trkpt>
      <trkpt lat="43.70342" lon="6.0099">
        <ele>366.7</ele>
        <time>2023-06-11T13:01:06Z</time>
      </trkpt>
      <trkpt lat="43.70342" lon="6.00992">
        <ele>366.8</ele>
        <time>2023-06-11T13:01:07Z</time>
      </trkpt>
      <trkpt lat="43.70341" lon="6.00994">
        <ele>366.8</ele>
        <time>2023-06-11T13:01:08Z</time>
      </trkpt>
      <trkpt lat="43.70341" lon="6.00996">
        <ele>366.8</ele>
        <time>2023-06-11T13:01:09Z</time>
      </trkpt>
      <trkpt lat="43.70341" lon="6.00998">
        <ele>366.8</ele>
        <time>2023-06-11T13:01:10Z</time>
      </trkpt>
      <trkpt lat="43.70341" lon="6.01">
        <ele>366.9</ele>
        <time>2023-06-11T13:01:11Z</time>
      </trkpt>
      <trkpt lat="43.70341" lon="6.01003">
        <ele>366.9</ele>
        <time>2023-06-11T13:01:12Z</time>
      </trkpt>
      <trkpt lat="43.70341" lon="6.01005">
        <ele>366.9</ele>
        <time>2023-06-11T13:01:13Z</time>
      </trkpt>
      <trkpt lat="43.70341" lon="6.01007">
        <ele>367</ele>
        <time>2023-06-11T13:01:14Z</time>
      </trkpt>
      <trkpt lat="43.70341" lon="6.01009">
        <ele>367</ele>
        <time>2023-06-11T13:01:15Z</time>
      </trkpt>
      <trkpt lat="43.70341" lon="6.01011">
        <ele>367</ele>
        <time>2023-06-11T13:01:16Z</time>
      </trkpt>
      <trkpt lat="43.70341" lon="6.01013">
        <ele>367.1</ele>
        <time>2023-06-11T13:01:17Z</time>
      </trkpt>
      <trkpt lat="43.70341" lon="6.01015">
        <ele>367</ele>
        <time>2023-06-11T13:01:18Z</time>
      </trkpt>
      <trkpt lat="43.70341" lon="6.01017">
        <ele>367</ele>
        <time>2023-06-11T13:01:19Z</time>
      </trkpt>
      <trkpt lat="43.70341" lon="6.01018">
        <ele>366.9</ele>
        <time>2023-06-11T13:01:20Z</time>
      </trkpt>
      <trkpt lat="43.70341" lon="6.0102">
        <ele>366.9</ele>
        <time>2023-06-11T13:01:21Z</time>
      </trkpt>
      <trkpt lat="43.70341" lon="6.01022">
        <ele>366.8</ele>
        <time>2023-06-11T13:01:22Z</time>
      </trkpt>
      <trkpt lat="43.70341" lon="6.01025">
        <ele>366.8</ele>
        <time>2023-06-11T13:01:23Z</time>
      </trkpt>
      <trkpt lat="43.70341" lon="6.01027">
        <ele>366.8</ele>
        <time>2023-06-11T13:01:24Z</time>
      </trkpt>
      <trkpt lat="43.70341" lon="6.01029">
        <ele>366.7</ele>
        <time>2023-06-11T13:01:25Z</time>
      </trkpt>
      <trkpt lat="43.7034" lon="6.01031">
        <ele>366.7</ele>
        <time>2023-06-11T13:01:26Z</time>
      </trkpt>
      <trkpt lat="43.7034" lon="6.01033">
        <ele>366.7</ele>
        <time>2023-06-11T13:01:27Z</time>
      </trkpt>
      <trkpt lat="43.7034" lon="6.01035">
        <ele>366.7</ele>
        <time>2023-06-11T13:01:28Z</time>
      </trkpt>
      <trkpt lat="43.7034" lon="6.01037">
        <ele>366.7</ele>
        <time>2023-06-11T13:01:29Z</time>
      </trkpt>
      <trkpt lat="43.7034" lon="6.01039">
        <ele>366.8</ele>
        <time>2023-06-11T13:01:30Z</time>
      </trkpt>
      <trkpt lat="43.7034" lon="6.01041">
        <ele>366.8</ele>
        <time>2023-06-11T13:01:31Z</time>
      </trkpt>
      <trkpt lat="43.7034" lon="6.01043">
        <ele>366.9</ele>
        <time>2023-06-11T13:01:32Z</time>
      </trkpt>
      <trkpt lat="43.7034" lon="6.01045">
        <ele>366.8</ele>
        <time>2023-06-11T13:01:33Z</time>
      </trkpt>
      <trkpt lat="43.70339" lon="6.01047">
        <ele>366.8</ele>
        <time>2023-06-11T13:01:34Z</time>
      </trkpt>
      <trkpt lat="43.70339" lon="6.01049">
        <ele>366.8</ele>
        <time>2023-06-11T13:01:35Z</time>
      </trkpt>
      <trkpt lat="43.70339" lon="6.01051">
        <ele>366.7</ele>
        <time>2023-06-11T13:01:36Z</time>
      </trkpt>
      <trkpt lat="43.70339" lon="6.01053">
        <ele>366.7</ele>
        <time>2023-06-11T13:01:37Z</time>
      </trkpt>
      <trkpt lat="43.70339" lon="6.01055">
        <ele>366.7</ele>
        <time>2023-06-11T13:01:38Z</time>
      </trkpt>
      <trkpt lat="43.70338" lon="6.01057">
        <ele>366.8</ele>
        <time>2023-06-11T13:01:39Z</time>
      </trkpt>
      <trkpt lat="43.70338" lon="6.01058">
        <ele>366.8</ele>
        <time>2023-06-11T13:01:40Z</time>
      </trkpt>
      <trkpt lat="43.70338" lon="6.0106">
        <ele>366.8</ele>
        <time>2023-06-11T13:01:41Z</time>
      </trkpt>
      <trkpt lat="43.70338" lon="6.01062">
        <ele>366.8</ele>
        <time>2023-06-11T13:01:42Z</time>
      </trkpt>
      <trkpt lat="43.70337" lon="6.01064">
        <ele>366.7</ele>
        <time>2023-06-11T13:01:43Z</time>
      </trkpt>
      <trkpt lat="43.70337" lon="6.01066">
        <ele>366.7</ele>
        <time>2023-06-11T13:01:44Z</time>
      </trkpt>
      <trkpt lat="43.70337" lon="6.01068">
        <ele>366.7</ele>
        <time>2023-06-11T13:01:45Z</time>
      </trkpt>
      <trkpt lat="43.70337" lon="6.0107">
        <ele>366.8</ele>
        <time>2023-06-11T13:01:46Z</time>
      </trkpt>
      <trkpt lat="43.70337" lon="6.01072">
        <ele>366.8</ele>
        <time>2023-06-11T13:01:47Z</time>
      </trkpt>
      <trkpt lat="43.70336" lon="6.01074">
        <ele>366.9</ele>
        <time>2023-06-11T13:01:48Z</time>
      </trkpt>
      <trkpt lat="43.70336" lon="6.01076">
        <ele>366.9</ele>
        <time>2023-06-11T13:01:49Z</time>
      </trkpt>
      <trkpt lat="43.70336" lon="6.01078">
        <ele>367</ele>
        <time>2023-06-11T13:01:50Z</time>
      </trkpt>
      <trkpt lat="43.70336" lon="6.0108">
        <ele>367.1</ele>
        <time>2023-06-11T13:01:51Z</time>
      </trkpt>
      <trkpt lat="43.70336" lon="6.01082">
        <ele>367.1</ele>
        <time>2023-06-11T13:01:52Z</time>
      </trkpt>
      <trkpt lat="43.70335" lon="6.01084">
        <ele>367.1</ele>
        <time>2023-06-11T13:01:53Z</time>
      </trkpt>
      <trkpt lat="43.70335" lon="6.01086">
        <ele>367.1</ele>
        <time>2023-06-11T13:01:54Z</time>
      </trkpt>
      <trkpt lat="43.70335" lon="6.01088">
        <ele>367.1</ele>
        <time>2023-06-11T13:01:55Z</time>
      </trkpt>
      <trkpt lat="43.70335" lon="6.01089">
        <ele>367.1</ele>
        <time>2023-06-11T13:01:56Z</time>
      </trkpt>
      <trkpt lat="43.70334" lon="6.01091">
        <ele>367.1</ele>
        <time>2023-06-11T13:01:57Z</time>
      </trkpt>
      <trkpt lat="43.70334" lon="6.01093">
        <ele>367.1</ele>
        <time>2023-06-11T13:01:58Z</time>
      </trkpt>
      <trkpt lat="43.70334" lon="6.01095">
        <ele>366.9</ele>
        <time>2023-06-11T13:01:59Z</time>
      </trkpt>
      <trkpt lat="43.70334" lon="6.01097">
        <ele>366.9</ele>
        <time>2023-06-11T13:02:00Z</time>
      </trkpt>
      <trkpt lat="43.70334" lon="6.01099">
        <ele>366.9</ele>
        <time>2023-06-11T13:02:01Z</time>
      </trkpt>
      <trkpt lat="43.70333" lon="6.01101">
        <ele>366.9</ele>
        <time>2023-06-11T13:02:02Z</time>
      </trkpt>
      <trkpt lat="43.70333" lon="6.01103">
        <ele>366.9</ele>
        <time>2023-06-11T13:02:03Z</time>
      </trkpt>
      <trkpt lat="43.70333" lon="6.01105">
        <ele>366.9</ele>
        <time>2023-06-11T13:02:04Z</time>
      </trkpt>
      <trkpt lat="43.70332" lon="6.01107">
        <ele>366.9</ele>
        <time>2023-06-11T13:02:05Z</time>
      </trkpt>
      <trkpt lat="43.70332" lon="6.01108">
        <ele>366.9</ele>
        <time>2023-06-11T13:02:06Z</time>
      </trkpt>
      <trkpt lat="43.70332" lon="6.0111">
        <ele>366.9</ele>
        <time>2023-06-11T13:02:07Z</time>
      </trkpt>
      <trkpt lat="43.70331" lon="6.01112">
        <ele>366.8</ele>
        <time>2023-06-11T13:02:08Z</time>
      </trkpt>
      <trkpt lat="43.70331" lon="6.01114">
        <ele>366.9</ele>
        <time>2023-06-11T13:02:09Z</time>
      </trkpt>
      <trkpt lat="43.7033" lon="6.01116">
        <ele>366.9</ele>
        <time>2023-06-11T13:02:10Z</time>
      </trkpt>
      <trkpt lat="43.7033" lon="6.01118">
        <ele>367</ele>
        <time>2023-06-11T13:02:11Z</time>
      </trkpt>
      <trkpt lat="43.70329" lon="6.0112">
        <ele>367</ele>
        <time>2023-06-11T13:02:12Z</time>
      </trkpt>
      <trkpt lat="43.70329" lon="6.01121">
        <ele>367.1</ele>
        <time>2023-06-11T13:02:13Z</time>
      </trkpt>
      <trkpt lat="43.70328" lon="6.01123">
        <ele>367.1</ele>
        <time>2023-06-11T13:02:14Z</time>
      </trkpt>
      <trkpt lat="43.70328" lon="6.01125">
        <ele>367.2</ele>
        <time>2023-06-11T13:02:15Z</time>
      </trkpt>
      <trkpt lat="43.70327" lon="6.01127">
        <ele>367.2</ele>
        <time>2023-06-11T13:02:16Z</time>
      </trkpt>
      <trkpt lat="43.70327" lon="6.01128">
        <ele>367.2</ele>
        <time>2023-06-11T13:02:17Z</time>
      </trkpt>
      <trkpt lat="43.70327" lon="6.0113">
        <ele>367.2</ele>
        <time>2023-06-11T13:02:18Z</time>
      </trkpt>
      <trkpt lat="43.70326" lon="6.01132">
        <ele>367.3</ele>
        <time>2023-06-11T13:02:19Z</time>
      </trkpt>
      <trkpt lat="43.70326" lon="6.01134">
        <ele>367.4</ele>
        <time>2023-06-11T13:02:20Z</time>
      </trkpt>
      <trkpt lat="43.70325" lon="6.01136">
        <ele>367.4</ele>
        <time>2023-06-11T13:02:21Z</time>
      </trkpt>
      <trkpt lat="43.70325" lon="6.01137">
        <ele>367.4</ele>
        <time>2023-06-11T13:02:22Z</time>
      </trkpt>
      <trkpt lat="43.70324" lon="6.01139">
        <ele>367.4</ele>
        <time>2023-06-11T13:02:23Z</time>
      </trkpt>
      <trkpt lat="43.70323" lon="6.01141">
        <ele>367.3</ele>
        <time>2023-06-11T13:02:24Z</time>
      </trkpt>
      <trkpt lat="43.70323" lon="6.01143">
        <ele>367.3</ele>
        <time>2023-06-11T13:02:25Z</time>
      </trkpt>
      <trkpt lat="43.70322" lon="6.01144">
        <ele>367.3</ele>
        <time>2023-06-11T13:02:26Z</time>
      </trkpt>
      <trkpt lat="43.70322" lon="6.01146">
        <ele>367.3</ele>
        <time>2023-06-11T13:02:27Z</time>
      </trkpt>
      <trkpt lat="43.70321" lon="6.01148">
        <ele>367.3</ele>
        <time>2023-06-11T13:02:28Z</time>
      </trkpt>
      <trkpt lat="43.70321" lon="6.0115">
        <ele>367.2</ele>
        <time>2023-06-11T13:02:29Z</time>
      </trkpt>
      <trkpt lat="43.7032" lon="6.01152">
        <ele>367.1</ele>
        <time>2023-06-11T13:02:30Z</time>
      </trkpt>
      <trkpt lat="43.7032" lon="6.01154">
        <ele>367.1</ele>
        <time>2023-06-11T13:02:31Z</time>
      </trkpt>
      <trkpt lat="43.70319" lon="6.01156">
        <ele>367</ele>
        <time>2023-06-11T13:02:32Z</time>
      </trkpt>
      <trkpt lat="43.70318" lon="6.01157">
        <ele>367</ele>
        <time>2023-06-11T13:02:33Z</time>
      </trkpt>
      <trkpt lat="43.70318" lon="6.01159">
        <ele>367.1</ele>
        <time>2023-06-11T13:02:34Z</time>
      </trkpt>
      <trkpt lat="43.70317" lon="6.01161">
        <ele>367.1</ele>
        <time>2023-06-11T13:02:35Z</time>
      </trkpt>
      <trkpt lat="43.70316" lon="6.01163">
        <ele>367.1</ele>
        <time>2023-06-11T13:02:36Z</time>
      </trkpt>
      <trkpt lat="43.70316" lon="6.01165">
        <ele>367.1</ele>
        <time>2023-06-11T13:02:37Z</time>
      </trkpt>
      <trkpt lat="43.70315" lon="6.01167">
        <ele>367.2</ele>
        <time>2023-06-11T13:02:38Z</time>
      </trkpt>
      <trkpt lat="43.70315" lon="6.01169">
        <ele>367.2</ele>
        <time>2023-06-11T13:02:39Z</time>
      </trkpt>
      <trkpt lat="43.70314" lon="6.01171">
        <ele>367.2</ele>
        <time>2023-06-11T13:02:40Z</time>
      </trkpt>
      <trkpt lat="43.70314" lon="6.01172">
        <ele>367.2</ele>
        <time>2023-06-11T13:02:41Z</time>
      </trkpt>
      <trkpt lat="43.70313" lon="6.01174">
        <ele>367.2</ele>
        <time>2023-06-11T13:02:42Z</time>
      </trkpt>
      <trkpt lat="43.70313" lon="6.01176">
        <ele>367.3</ele>
        <time>2023-06-11T13:02:43Z</time>
      </trkpt>
      <trkpt lat="43.70312" lon="6.01178">
        <ele>367.3</ele>
        <time>2023-06-11T13:02:44Z</time>
      </trkpt>
      <trkpt lat="43.70312" lon="6.0118">
        <ele>367.2</ele>
        <time>2023-06-11T13:02:45Z</time>
      </trkpt>
      <trkpt lat="43.70312" lon="6.01182">
        <ele>367.2</ele>
        <time>2023-06-11T13:02:46Z</time>
      </trkpt>
      <trkpt lat="43.70311" lon="6.01184">
        <ele>367.2</ele>
        <time>2023-06-11T13:02:47Z</time>
      </trkpt>
      <trkpt lat="43.70311" lon="6.01186">
        <ele>367.2</ele>
        <time>2023-06-11T13:02:48Z</time>
      </trkpt>
      <trkpt lat="43.7031" lon="6.01188">
        <ele>367.1</ele>
        <time>2023-06-11T13:02:49Z</time>
      </trkpt>
      <trkpt lat="43.7031" lon="6.0119">
        <ele>367.1</ele>
        <time>2023-06-11T13:02:50Z</time>
      </trkpt>
      <trkpt lat="43.70309" lon="6.01192">
        <ele>367.2</ele>
        <time>2023-06-11T13:02:51Z</time>
      </trkpt>
      <trkpt lat="43.70308" lon="6.01193">
        <ele>367.1</ele>
        <time>2023-06-11T13:02:52Z</time>
      </trkpt>
      <trkpt lat="43.70308" lon="6.01195">
        <ele>367.1</ele>
        <time>2023-06-11T13:02:53Z</time>
      </trkpt>
      <trkpt lat="43.70307" lon="6.01197">
        <ele>367</ele>
        <time>2023-06-11T13:02:54Z</time>
      </trkpt>
      <trkpt lat="43.70307" lon="6.01199">
        <ele>367</ele>
        <time>2023-06-11T13:02:55Z</time>
      </trkpt>
      <trkpt lat="43.70306" lon="6.01201">
        <ele>367</ele>
        <time>2023-06-11T13:02:56Z</time>
      </trkpt>
      <trkpt lat="43.70305" lon="6.01202">
        <ele>367</ele>
        <time>2023-06-11T13:02:57Z</time>
      </trkpt>
      <trkpt lat="43.70305" lon="6.01204">
        <ele>366.9</ele>
        <time>2023-06-11T13:02:58Z</time>
      </trkpt>
      <trkpt lat="43.70304" lon="6.01206">
        <ele>366.9</ele>
        <time>2023-06-11T13:02:59Z</time>
      </trkpt>
      <trkpt lat="43.70304" lon="6.01208">
        <ele>366.9</ele>
        <time>2023-06-11T13:03:00Z</time>
      </trkpt>
      <trkpt lat="43.70303" lon="6.0121">
        <ele>366.9</ele>
        <time>2023-06-11T13:03:01Z</time>
      </trkpt>
      <trkpt lat="43.70303" lon="6.01212">
        <ele>366.9</ele>
        <time>2023-06-11T13:03:02Z</time>
      </trkpt>
      <trkpt lat="43.70303" lon="6.01214">
        <ele>366.9</ele>
        <time>2023-06-11T13:03:03Z</time>
      </trkpt>
      <trkpt lat="43.70302" lon="6.01216">
        <ele>366.9</ele>
        <time>2023-06-11T13:03:04Z</time>
      </trkpt>
      <trkpt lat="43.70301" lon="6.01218">
        <ele>367</ele>
        <time>2023-06-11T13:03:05Z</time>
      </trkpt>
      <trkpt lat="43.70301" lon="6.01219">
        <ele>367</ele>
        <time>2023-06-11T13:03:06Z</time>
      </trkpt>
      <trkpt lat="43.703" lon="6.01221">
        <ele>367.1</ele>
        <time>2023-06-11T13:03:07Z</time>
      </trkpt>
      <trkpt lat="43.703" lon="6.01223">
        <ele>367.1</ele>
        <time>2023-06-11T13:03:08Z</time>
      </trkpt>
      <trkpt lat="43.70299" lon="6.01225">
        <ele>367.1</ele>
        <time>2023-06-11T13:03:09Z</time>
      </trkpt>
      <trkpt lat="43.70299" lon="6.01227">
        <ele>367.1</ele>
        <time>2023-06-11T13:03:10Z</time>
      </trkpt>
      <trkpt lat="43.70299" lon="6.01229">
        <ele>367.1</ele>
        <time>2023-06-11T13:03:11Z</time>
      </trkpt>
      <trkpt lat="43.70299" lon="6.01231">
        <ele>367.1</ele>
        <time>2023-06-11T13:03:12Z</time>
      </trkpt>
      <trkpt lat="43.70299" lon="6.01234">
        <ele>367.2</ele>
        <time>2023-06-11T13:03:13Z</time>
      </trkpt>
      <trkpt lat="43.70299" lon="6.01236">
        <ele>367.3</ele>
        <time>2023-06-11T13:03:14Z</time>
      </trkpt>
      <trkpt lat="43.70298" lon="6.01238">
        <ele>367.3</ele>
        <time>2023-06-11T13:03:15Z</time>
      </trkpt>
      <trkpt lat="43.70298" lon="6.0124">
        <ele>367.3</ele>
        <time>2023-06-11T13:03:16Z</time>
      </trkpt>
      <trkpt lat="43.70297" lon="6.01241">
        <ele>367.3</ele>
        <time>2023-06-11T13:03:17Z</time>
      </trkpt>
      <trkpt lat="43.70297" lon="6.01243">
        <ele>367.4</ele>
        <time>2023-06-11T13:03:18Z</time>
      </trkpt>
      <trkpt lat="43.70296" lon="6.01245">
        <ele>367.3</ele>
        <time>2023-06-11T13:03:19Z</time>
      </trkpt>
      <trkpt lat="43.70296" lon="6.01247">
        <ele>367.2</ele>
        <time>2023-06-11T13:03:20Z</time>
      </trkpt>
      <trkpt lat="43.70295" lon="6.01249">
        <ele>367.2</ele>
        <time>2023-06-11T13:03:21Z</time>
      </trkpt>
      <trkpt lat="43.70295" lon="6.01251">
        <ele>367.2</ele>
        <time>2023-06-11T13:03:22Z</time>
      </trkpt>
      <trkpt lat="43.70295" lon="6.01253">
        <ele>367.2</ele>
        <time>2023-06-11T13:03:23Z</time>
      </trkpt>
      <trkpt lat="43.70294" lon="6.01255">
        <ele>367.2</ele>
        <time>2023-06-11T13:03:24Z</time>
      </trkpt>
      <trkpt lat="43.70294" lon="6.01257">
        <ele>367.2</ele>
        <time>2023-06-11T13:03:25Z</time>
      </trkpt>
      <trkpt lat="43.70293" lon="6.01258">
        <ele>367.2</ele>
        <time>2023-06-11T13:03:26Z</time>
      </trkpt>
      <trkpt lat="43.70293" lon="6.0126">
        <ele>367.2</ele>
        <time>2023-06-11T13:03:27Z</time>
      </trkpt>
      <trkpt lat="43.70292" lon="6.01262">
        <ele>367.2</ele>
        <time>2023-06-11T13:03:28Z</time>
      </trkpt>
      <trkpt lat="43.70291" lon="6.01264">
        <ele>367.2</ele>
        <time>2023-06-11T13:03:29Z</time>
      </trkpt>
      <trkpt lat="43.70291" lon="6.01266">
        <ele>367.1</ele>
        <time>2023-06-11T13:03:30Z</time>
      </trkpt>
      <trkpt lat="43.7029" lon="6.01267">
        <ele>367.2</ele>
        <time>2023-06-11T13:03:31Z</time>
      </trkpt>
      <trkpt lat="43.7029" lon="6.01269">
        <ele>367.2</ele>
        <time>2023-06-11T13:03:32Z</time>
      </trkpt>
      <trkpt lat="43.70289" lon="6.01271">
        <ele>367.2</ele>
        <time>2023-06-11T13:03:33Z</time>
      </trkpt>
      <trkpt lat="43.70288" lon="6.01273">
        <ele>367.3</ele>
        <time>2023-06-11T13:03:34Z</time>
      </trkpt>
      <trkpt lat="43.70288" lon="6.01274">
        <ele>367.4</ele>
        <time>2023-06-11T13:03:35Z</time>
      </trkpt>
      <trkpt lat="43.70287" lon="6.01276">
        <ele>367.4</ele>
        <time>2023-06-11T13:03:36Z</time>
      </trkpt>
      <trkpt lat="43.70287" lon="6.01278">
        <ele>367.3</ele>
        <time>2023-06-11T13:03:37Z</time>
      </trkpt>
      <trkpt lat="43.70286" lon="6.0128">
        <ele>367.3</ele>
        <time>2023-06-11T13:03:38Z</time>
      </trkpt>
      <trkpt lat="43.70285" lon="6.01281">
        <ele>367.3</ele>
        <time>2023-06-11T13:03:39Z</time>
      </trkpt>
      <trkpt lat="43.70285" lon="6.01283">
        <ele>367.3</ele>
        <time>2023-06-11T13:03:40Z</time>
      </trkpt>
      <trkpt lat="43.70284" lon="6.01285">
        <ele>367.3</ele>
        <time>2023-06-11T13:03:41Z</time>
      </trkpt>
      <trkpt lat="43.70284" lon="6.01287">
        <ele>367.3</ele>
        <time>2023-06-11T13:03:42Z</time>
      </trkpt>
      <trkpt lat="43.70283" lon="6.01289">
        <ele>367.2</ele>
        <time>2023-06-11T13:03:43Z</time>
      </trkpt>
      <trkpt lat="43.70283" lon="6.01291">
        <ele>367.2</ele>
        <time>2023-06-11T13:03:44Z</time>
      </trkpt>
      <trkpt lat="43.70282" lon="6.01293">
        <ele>367.2</ele>
        <time>2023-06-11T13:03:45Z</time>
      </trkpt>
      <trkpt lat="43.70282" lon="6.01295">
        <ele>367.2</ele>
        <time>2023-06-11T13:03:46Z</time>
      </trkpt>
      <trkpt lat="43.70281" lon="6.01296">
        <ele>367.2</ele>
        <time>2023-06-11T13:03:47Z</time>
      </trkpt>
      <trkpt lat="43.70281" lon="6.01298">
        <ele>367.2</ele>
        <time>2023-06-11T13:03:48Z</time>
      </trkpt>
      <trkpt lat="43.7028" lon="6.013">
        <ele>367.2</ele>
        <time>2023-06-11T13:03:49Z</time>
      </trkpt>
      <trkpt lat="43.7028" lon="6.01302">
        <ele>367.2</ele>
        <time>2023-06-11T13:03:50Z</time>
      </trkpt>
      <trkpt lat="43.70279" lon="6.01304">
        <ele>367.2</ele>
        <time>2023-06-11T13:03:51Z</time>
      </trkpt>
      <trkpt lat="43.70279" lon="6.01306">
        <ele>367.2</ele>
        <time>2023-06-11T13:03:52Z</time>
      </trkpt>
      <trkpt lat="43.70278" lon="6.01308">
        <ele>367.2</ele>
        <time>2023-06-11T13:03:53Z</time>
      </trkpt>
      <trkpt lat="43.70278" lon="6.01309">
        <ele>367.1</ele>
        <time>2023-06-11T13:03:54Z</time>
      </trkpt>
      <trkpt lat="43.70277" lon="6.01311">
        <ele>367.2</ele>
        <time>2023-06-11T13:03:55Z</time>
      </trkpt>
      <trkpt lat="43.70277" lon="6.01313">
        <ele>367.2</ele>
        <time>2023-06-11T13:03:56Z</time>
      </trkpt>
      <trkpt lat="43.70276" lon="6.01315">
        <ele>367.1</ele>
        <time>2023-06-11T13:03:57Z</time>
      </trkpt>
      <trkpt lat="43.70276" lon="6.01317">
        <ele>367.1</ele>
        <time>2023-06-11T13:03:58Z</time>
      </trkpt>
      <trkpt lat="43.70275" lon="6.01319">
        <ele>367.1</ele>
        <time>2023-06-11T13:03:59Z</time>
      </trkpt>
      <trkpt lat="43.70275" lon="6.0132">
        <ele>367.2</ele>
        <time>2023-06-11T13:04:00Z</time>
      </trkpt>
      <trkpt lat="43.70274" lon="6.01322">
        <ele>367.2</ele>
        <time>2023-06-11T13:04:01Z</time>
      </trkpt>
      <trkpt lat="43.70274" lon="6.01324">
        <ele>367.2</ele>
        <time>2023-06-11T13:04:02Z</time>
      </trkpt>
      <trkpt lat="43.70273" lon="6.01325">
        <ele>367.1</ele>
        <time>2023-06-11T13:04:03Z</time>
      </trkpt>
      <trkpt lat="43.70272" lon="6.01327">
        <ele>367.2</ele>
        <time>2023-06-11T13:04:04Z</time>
      </trkpt>
      <trkpt lat="43.70272" lon="6.01329">
        <ele>367.2</ele>
        <time>2023-06-11T13:04:05Z</time>
      </trkpt>
      <trkpt lat="43.70271" lon="6.01331">
        <ele>367.2</ele>
        <time>2023-06-11T13:04:06Z</time>
      </trkpt>
      <trkpt lat="43.7027" lon="6.01332">
        <ele>367.2</ele>
        <time>2023-06-11T13:04:07Z</time>
      </trkpt>
      <trkpt lat="43.7027" lon="6.01334">
        <ele>367.3</ele>
        <time>2023-06-11T13:04:08Z</time>
      </trkpt>
      <trkpt lat="43.70269" lon="6.01336">
        <ele>367.3</ele>
        <time>2023-06-11T13:04:09Z</time>
      </trkpt>
      <trkpt lat="43.70268" lon="6.01338">
        <ele>367.2</ele>
        <time>2023-06-11T13:04:10Z</time>
      </trkpt>
      <trkpt lat="43.70267" lon="6.01339">
        <ele>367.2</ele>
        <time>2023-06-11T13:04:11Z</time>
      </trkpt>
      <trkpt lat="43.70267" lon="6.01341">
        <ele>367.2</ele>
        <time>2023-06-11T13:04:12Z</time>
      </trkpt>
      <trkpt lat="43.70266" lon="6.01343">
        <ele>367.1</ele>
        <time>2023-06-11T13:04:13Z</time>
      </trkpt>
      <trkpt lat="43.70266" lon="6.01345">
        <ele>367.1</ele>
        <time>2023-06-11T13:04:14Z</time>
      </trkpt>
      <trkpt lat="43.70265" lon="6.01346">
        <ele>367.2</ele>
        <time>2023-06-11T13:04:15Z</time>
      </trkpt>
      <trkpt lat="43.70264" lon="6.01348">
        <ele>367.2</ele>
        <time>2023-06-11T13:04:16Z</time>
      </trkpt>
      <trkpt lat="43.70263" lon="6.0135">
        <ele>367.1</ele>
        <time>2023-06-11T13:04:17Z</time>
      </trkpt>
      <trkpt lat="43.70263" lon="6.01352">
        <ele>367.1</ele>
        <time>2023-06-11T13:04:18Z</time>
      </trkpt>
      <trkpt lat="43.70262" lon="6.01353">
        <ele>367.1</ele>
        <time>2023-06-11T13:04:19Z</time>
      </trkpt>
      <trkpt lat="43.70261" lon="6.01355">
        <ele>367.2</ele>
        <time>2023-06-11T13:04:20Z</time>
      </trkpt>
      <trkpt lat="43.70261" lon="6.01357">
        <ele>367.2</ele>
        <time>2023-06-11T13:04:21Z</time>
      </trkpt>
      <trkpt lat="43.7026" lon="6.01359">
        <ele>367.2</ele>
        <time>2023-06-11T13:04:22Z</time>
      </trkpt>
      <trkpt lat="43.70259" lon="6.0136">
        <ele>367.2</ele>
        <time>2023-06-11T13:04:23Z</time>
      </trkpt>
      <trkpt lat="43.70258" lon="6.01362">
        <ele>367.2</ele>
        <time>2023-06-11T13:04:24Z</time>
      </trkpt>
      <trkpt lat="43.70257" lon="6.01364">
        <ele>367.2</ele>
        <time>2023-06-11T13:04:25Z</time>
      </trkpt>
      <trkpt lat="43.70256" lon="6.01365">
        <ele>367.2</ele>
        <time>2023-06-11T13:04:26Z</time>
      </trkpt>
      <trkpt lat="43.70256" lon="6.01367">
        <ele>367.1</ele>
        <time>2023-06-11T13:04:27Z</time>
      </trkpt>
      <trkpt lat="43.70255" lon="6.01369">
        <ele>367.1</ele>
        <time>2023-06-11T13:04:28Z</time>
      </trkpt>
      <trkpt lat="43.70254" lon="6.0137">
        <ele>367.1</ele>
        <time>2023-06-11T13:04:29Z</time>
      </trkpt>
      <trkpt lat="43.70253" lon="6.01372">
        <ele>367.1</ele>
        <time>2023-06-11T13:04:30Z</time>
      </trkpt>
      <trkpt lat="43.70252" lon="6.01374">
        <ele>367.1</ele>
        <time>2023-06-11T13:04:31Z</time>
      </trkpt>
      <trkpt lat="43.70251" lon="6.01375">
        <ele>367.2</ele>
        <time>2023-06-11T13:04:32Z</time>
      </trkpt>
      <trkpt lat="43.70251" lon="6.01377">
        <ele>367.2</ele>
        <time>2023-06-11T13:04:33Z</time>
      </trkpt>
      <trkpt lat="43.7025" lon="6.01379">
        <ele>367.2</ele>
        <time>2023-06-11T13:04:34Z</time>
      </trkpt>
      <trkpt lat="43.70249" lon="6.0138">
        <ele>367.2</ele>
        <time>2023-06-11T13:04:35Z</time>
      </trkpt>
      <trkpt lat="43.70248" lon="6.01382">
        <ele>367.2</ele>
        <time>2023-06-11T13:04:36Z</time>
      </trkpt>
      <trkpt lat="43.70247" lon="6.01383">
        <ele>367.2</ele>
        <time>2023-06-11T13:04:37Z</time>
      </trkpt>
      <trkpt lat="43.70246" lon="6.01385">
        <ele>367.2</ele>
        <time>2023-06-11T13:04:38Z</time>
      </trkpt>
      <trkpt lat="43.70245" lon="6.01386">
        <ele>367.2</ele>
        <time>2023-06-11T13:04:39Z</time>
      </trkpt>
      <trkpt lat="43.70244" lon="6.01388">
        <ele>367.3</ele>
        <time>2023-06-11T13:04:40Z</time>
      </trkpt>
      <trkpt lat="43.70242" lon="6.01389">
        <ele>367.3</ele>
        <time>2023-06-11T13:04:41Z</time>
      </trkpt>
      <trkpt lat="43.70241" lon="6.0139">
        <ele>367.3</ele>
        <time>2023-06-11T13:04:42Z</time>
      </trkpt>
      <trkpt lat="43.7024" lon="6.01392">
        <ele>367.3</ele>
        <time>2023-06-11T13:04:43Z</time>
      </trkpt>
      <trkpt lat="43.70239" lon="6.01393">
        <ele>367.3</ele>
        <time>2023-06-11T13:04:44Z</time>
      </trkpt>
      <trkpt lat="43.70238" lon="6.01395">
        <ele>367.4</ele>
        <time>2023-06-11T13:04:45Z</time>
      </trkpt>
      <trkpt lat="43.70237" lon="6.01396">
        <ele>367.4</ele>
        <time>2023-06-11T13:04:46Z</time>
      </trkpt>
      <trkpt lat="43.70236" lon="6.01397">
        <ele>367.5</ele>
        <time>2023-06-11T13:04:47Z</time>
      </trkpt>
      <trkpt lat="43.70235" lon="6.01399">
        <ele>367.5</ele>
        <time>2023-06-11T13:04:48Z</time>
      </trkpt>
      <trkpt lat="43.70234" lon="6.014">
        <ele>367.5</ele>
        <time>2023-06-11T13:04:49Z</time>
      </trkpt>
      <trkpt lat="43.70232" lon="6.01401">
        <ele>367.5</ele>
        <time>2023-06-11T13:04:50Z</time>
      </trkpt>
      <trkpt lat="43.70231" lon="6.01403">
        <ele>367.5</ele>
        <time>2023-06-11T13:04:51Z</time>
      </trkpt>
      <trkpt lat="43.70229" lon="6.01403">
        <ele>367.5</ele>
        <time>2023-06-11T13:04:52Z</time>
      </trkpt>
      <trkpt lat="43.70227" lon="6.01403">
        <ele>367.5</ele>
        <time>2023-06-11T13:04:53Z</time>
      </trkpt>
      <trkpt lat="43.70225" lon="6.01403">
        <ele>367.5</ele>
        <time>2023-06-11T13:04:54Z</time>
      </trkpt>
      <trkpt lat="43.70224" lon="6.01404">
        <ele>367.5</ele>
        <time>2023-06-11T13:04:55Z</time>
      </trkpt>
      <trkpt lat="43.70223" lon="6.01406">
        <ele>367.5</ele>
        <time>2023-06-11T13:04:56Z</time>
      </trkpt>
      <trkpt lat="43.70222" lon="6.01407">
        <ele>367.5</ele>
        <time>2023-06-11T13:04:57Z</time>
      </trkpt>
      <trkpt lat="43.7022" lon="6.01408">
        <ele>367.6</ele>
        <time>2023-06-11T13:04:58Z</time>
      </trkpt>
      <trkpt lat="43.70219" lon="6.01409">
        <ele>367.6</ele>
        <time>2023-06-11T13:04:59Z</time>
      </trkpt>
      <trkpt lat="43.70219" lon="6.01411">
        <ele>367.6</ele>
        <time>2023-06-11T13:05:00Z</time>
      </trkpt>
      <trkpt lat="43.70218" lon="6.01412">
        <ele>367.6</ele>
        <time>2023-06-11T13:05:01Z</time>
      </trkpt>
      <trkpt lat="43.70216" lon="6.01413">
        <ele>367.6</ele>
        <time>2023-06-11T13:05:02Z</time>
      </trkpt>
      <trkpt lat="43.70215" lon="6.01414">
        <ele>367.6</ele>
        <time>2023-06-11T13:05:03Z</time>
      </trkpt>
      <trkpt lat="43.70214" lon="6.01415">
        <ele>367.7</ele>
        <time>2023-06-11T13:05:04Z</time>
      </trkpt>
      <trkpt lat="43.70213" lon="6.01417">
        <ele>367.7</ele>
        <time>2023-06-11T13:05:05Z</time>
      </trkpt>
      <trkpt lat="43.70212" lon="6.01418">
        <ele>367.7</ele>
        <time>2023-06-11T13:05:06Z</time>
      </trkpt>
      <trkpt lat="43.70211" lon="6.0142">
        <ele>367.7</ele>
        <time>2023-06-11T13:05:07Z</time>
      </trkpt>
      <trkpt lat="43.7021" lon="6.01421">
        <ele>367.7</ele>
        <time>2023-06-11T13:05:08Z</time>
      </trkpt>
      <trkpt lat="43.70209" lon="6.01422">
        <ele>367.6</ele>
        <time>2023-06-11T13:05:09Z</time>
      </trkpt>
      <trkpt lat="43.70208" lon="6.01423">
        <ele>367.6</ele>
        <time>2023-06-11T13:05:10Z</time>
      </trkpt>
      <trkpt lat="43.70207" lon="6.01425">
        <ele>367.7</ele>
        <time>2023-06-11T13:05:11Z</time>
      </trkpt>
      <trkpt lat="43.70206" lon="6.01426">
        <ele>367.7</ele>
        <time>2023-06-11T13:05:12Z</time>
      </trkpt>
      <trkpt lat="43.70204" lon="6.01426">
        <ele>367.6</ele>
        <time>2023-06-11T13:05:13Z</time>
      </trkpt>
      <trkpt lat="43.70203" lon="6.01428">
        <ele>367.6</ele>
        <time>2023-06-11T13:05:14Z</time>
      </trkpt>
      <trkpt lat="43.70202" lon="6.01429">
        <ele>367.6</ele>
        <time>2023-06-11T13:05:15Z</time>
      </trkpt>
      <trkpt lat="43.70202" lon="6.01431">
        <ele>367.7</ele>
        <time>2023-06-11T13:05:16Z</time>
      </trkpt>
      <trkpt lat="43.70201" lon="6.01433">
        <ele>367.7</ele>
        <time>2023-06-11T13:05:17Z</time>
      </trkpt>
      <trkpt lat="43.70201" lon="6.01435">
        <ele>367.7</ele>
        <time>2023-06-11T13:05:18Z</time>
      </trkpt>
      <trkpt lat="43.70201" lon="6.01438">
        <ele>367.7</ele>
        <time>2023-06-11T13:05:19Z</time>
      </trkpt>
      <trkpt lat="43.702" lon="6.01439">
        <ele>367.7</ele>
        <time>2023-06-11T13:05:20Z</time>
      </trkpt>
      <trkpt lat="43.702" lon="6.01441">
        <ele>367.8</ele>
        <time>2023-06-11T13:05:21Z</time>
      </trkpt>
      <trkpt lat="43.70199" lon="6.01443">
        <ele>367.6</ele>
        <time>2023-06-11T13:05:22Z</time>
      </trkpt>
      <trkpt lat="43.70198" lon="6.01444">
        <ele>367.5</ele>
        <time>2023-06-11T13:05:23Z</time>
      </trkpt>
      <trkpt lat="43.70197" lon="6.01445">
        <ele>367.4</ele>
        <time>2023-06-11T13:05:24Z</time>
      </trkpt>
      <trkpt lat="43.70196" lon="6.01447">
        <ele>367.3</ele>
        <time>2023-06-11T13:05:25Z</time>
      </trkpt>
      <trkpt lat="43.70195" lon="6.01448">
        <ele>367.3</ele>
        <time>2023-06-11T13:05:26Z</time>
      </trkpt>
      <trkpt lat="43.70195" lon="6.01449">
        <ele>367.2</ele>
        <time>2023-06-11T13:05:27Z</time>
      </trkpt>
      <trkpt lat="43.70194" lon="6.01451">
        <ele>367.2</ele>
        <time>2023-06-11T13:05:28Z</time>
      </trkpt>
      <trkpt lat="43.70193" lon="6.01452">
        <ele>367.2</ele>
        <time>2023-06-11T13:05:29Z</time>
      </trkpt>
      <trkpt lat="43.70193" lon="6.01454">
        <ele>367.1</ele>
        <time>2023-06-11T13:05:30Z</time>
      </trkpt>
      <trkpt lat="43.70192" lon="6.01455">
        <ele>367.1</ele>
        <time>2023-06-11T13:05:31Z</time>
      </trkpt>
      <trkpt lat="43.70191" lon="6.01457">
        <ele>367.1</ele>
        <time>2023-06-11T13:05:32Z</time>
      </trkpt>
      <trkpt lat="43.70191" lon="6.01458">
        <ele>367.1</ele>
        <time>2023-06-11T13:05:33Z</time>
      </trkpt>
      <trkpt lat="43.7019" lon="6.0146">
        <ele>367.1</ele>
        <time>2023-06-11T13:05:34Z</time>
      </trkpt>
      <trkpt lat="43.70189" lon="6.01461">
        <ele>367.1</ele>
        <time>2023-06-11T13:05:35Z</time>
      </trkpt>
      <trkpt lat="43.70188" lon="6.01463">
        <ele>367.2</ele>
        <time>2023-06-11T13:05:36Z</time>
      </trkpt>
      <trkpt lat="43.70188" lon="6.01464">
        <ele>367.2</ele>
        <time>2023-06-11T13:05:37Z</time>
      </trkpt>
      <trkpt lat="43.70187" lon="6.01466">
        <ele>367.3</ele>
        <time>2023-06-11T13:05:38Z</time>
      </trkpt>
      <trkpt lat="43.70187" lon="6.01468">
        <ele>367.3</ele>
        <time>2023-06-11T13:05:39Z</time>
      </trkpt>
      <trkpt lat="43.70186" lon="6.01469">
        <ele>367.3</ele>
        <time>2023-06-11T13:05:40Z</time>
      </trkpt>
      <trkpt lat="43.70186" lon="6.01471">
        <ele>367.3</ele>
        <time>2023-06-11T13:05:41Z</time>
      </trkpt>
      <trkpt lat="43.70185" lon="6.01473">
        <ele>367.3</ele>
        <time>2023-06-11T13:05:42Z</time>
      </trkpt>
      <trkpt lat="43.70184" lon="6.01474">
        <ele>367.3</ele>
        <time>2023-06-11T13:05:43Z</time>
      </trkpt>
      <trkpt lat="43.70184" lon="6.01476">
        <ele>367.3</ele>
        <time>2023-06-11T13:05:44Z</time>
      </trkpt>
      <trkpt lat="43.70183" lon="6.01477">
        <ele>367.2</ele>
        <time>2023-06-11T13:05:45Z</time>
      </trkpt>
      <trkpt lat="43.70183" lon="6.01479">
        <ele>367.2</ele>
        <time>2023-06-11T13:05:46Z</time>
      </trkpt>
      <trkpt lat="43.70182" lon="6.01481">
        <ele>367.1</ele>
        <time>2023-06-11T13:05:47Z</time>
      </trkpt>
      <trkpt lat="43.70181" lon="6.01482">
        <ele>367.1</ele>
        <time>2023-06-11T13:05:48Z</time>
      </trkpt>
      <trkpt lat="43.70181" lon="6.01484">
        <ele>367.1</ele>
        <time>2023-06-11T13:05:49Z</time>
      </trkpt>
      <trkpt lat="43.7018" lon="6.01485">
        <ele>367.1</ele>
        <time>2023-06-11T13:05:50Z</time>
      </trkpt>
      <trkpt lat="43.7018" lon="6.01487">
        <ele>367.2</ele>
        <time>2023-06-11T13:05:51Z</time>
      </trkpt>
      <trkpt lat="43.70179" lon="6.01489">
        <ele>367.2</ele>
        <time>2023-06-11T13:05:52Z</time>
      </trkpt>
      <trkpt lat="43.70178" lon="6.0149">
        <ele>367.2</ele>
        <time>2023-06-11T13:05:53Z</time>
      </trkpt>
      <trkpt lat="43.70178" lon="6.01492">
        <ele>367.2</ele>
        <time>2023-06-11T13:05:54Z</time>
      </trkpt>
      <trkpt lat="43.70177" lon="6.01493">
        <ele>367.2</ele>
        <time>2023-06-11T13:05:55Z</time>
      </trkpt>
      <trkpt lat="43.70176" lon="6.01495">
        <ele>367.1</ele>
        <time>2023-06-11T13:05:56Z</time>
      </trkpt>
      <trkpt lat="43.70176" lon="6.01497">
        <ele>367.1</ele>
        <time>2023-06-11T13:05:57Z</time>
      </trkpt>
      <trkpt lat="43.70175" lon="6.01498">
        <ele>367</ele>
        <time>2023-06-11T13:05:58Z</time>
      </trkpt>
      <trkpt lat="43.70175" lon="6.015">
        <ele>367</ele>
        <time>2023-06-11T13:05:59Z</time>
      </trkpt>
      <trkpt lat="43.70174" lon="6.01502">
        <ele>367</ele>
        <time>2023-06-11T13:06:00Z</time>
      </trkpt>
      <trkpt lat="43.70173" lon="6.01503">
        <ele>367</ele>
        <time>2023-06-11T13:06:01Z</time>
      </trkpt>
      <trkpt lat="43.70173" lon="6.01505">
        <ele>367</ele>
        <time>2023-06-11T13:06:02Z</time>
      </trkpt>
      <trkpt lat="43.70172" lon="6.01507">
        <ele>367.1</ele>
        <time>2023-06-11T13:06:03Z</time>
      </trkpt>
      <trkpt lat="43.70172" lon="6.0151">
        <ele>367.1</ele>
        <time>2023-06-11T13:06:04Z</time>
      </trkpt>
      <trkpt lat="43.70172" lon="6.01512">
        <ele>367.1</ele>
        <time>2023-06-11T13:06:05Z</time>
      </trkpt>
      <trkpt lat="43.70172" lon="6.01514">
        <ele>367.2</ele>
        <time>2023-06-11T13:06:06Z</time>
      </trkpt>
      <trkpt lat="43.70172" lon="6.01516">
        <ele>367.2</ele>
        <time>2023-06-11T13:06:07Z</time>
      </trkpt>
      <trkpt lat="43.70171" lon="6.01518">
        <ele>367.3</ele>
        <time>2023-06-11T13:06:08Z</time>
      </trkpt>
      <trkpt lat="43.70171" lon="6.0152">
        <ele>367.3</ele>
        <time>2023-06-11T13:06:09Z</time>
      </trkpt>
      <trkpt lat="43.70171" lon="6.01522">
        <ele>367.3</ele>
        <time>2023-06-11T13:06:10Z</time>
      </trkpt>
      <trkpt lat="43.7017" lon="6.01524">
        <ele>367.2</ele>
        <time>2023-06-11T13:06:11Z</time>
      </trkpt>
      <trkpt lat="43.7017" lon="6.01526">
        <ele>367.2</ele>
        <time>2023-06-11T13:06:12Z</time>
      </trkpt>
      <trkpt lat="43.70169" lon="6.01528">
        <ele>367.3</ele>
        <time>2023-06-11T13:06:13Z</time>
      </trkpt>
      <trkpt lat="43.70169" lon="6.0153">
        <ele>367.3</ele>
        <time>2023-06-11T13:06:14Z</time>
      </trkpt>
      <trkpt lat="43.70169" lon="6.01532">
        <ele>367.3</ele>
        <time>2023-06-11T13:06:15Z</time>
      </trkpt>
      <trkpt lat="43.70168" lon="6.01534">
        <ele>367.2</ele>
        <time>2023-06-11T13:06:16Z</time>
      </trkpt>
      <trkpt lat="43.70168" lon="6.01536">
        <ele>367.2</ele>
        <time>2023-06-11T13:06:17Z</time>
      </trkpt>
      <trkpt lat="43.70167" lon="6.01538">
        <ele>367.2</ele>
        <time>2023-06-11T13:06:18Z</time>
      </trkpt>
      <trkpt lat="43.70167" lon="6.01539">
        <ele>367.2</ele>
        <time>2023-06-11T13:06:19Z</time>
      </trkpt>
      <trkpt lat="43.70166" lon="6.01541">
        <ele>367.2</ele>
        <time>2023-06-11T13:06:20Z</time>
      </trkpt>
      <trkpt lat="43.70166" lon="6.01543">
        <ele>367.3</ele>
        <time>2023-06-11T13:06:21Z</time>
      </trkpt>
      <trkpt lat="43.70166" lon="6.01545">
        <ele>367.3</ele>
        <time>2023-06-11T13:06:22Z</time>
      </trkpt>
      <trkpt lat="43.70165" lon="6.01546">
        <ele>367.3</ele>
        <time>2023-06-11T13:06:23Z</time>
      </trkpt>
      <trkpt lat="43.70165" lon="6.01548">
        <ele>367.2</ele>
        <time>2023-06-11T13:06:24Z</time>
      </trkpt>
      <trkpt lat="43.70164" lon="6.01549">
        <ele>367.2</ele>
        <time>2023-06-11T13:06:25Z</time>
      </trkpt>
      <trkpt lat="43.70164" lon="6.01551">
        <ele>367.1</ele>
        <time>2023-06-11T13:06:26Z</time>
      </trkpt>
      <trkpt lat="43.70163" lon="6.01553">
        <ele>367.1</ele>
        <time>2023-06-11T13:06:27Z</time>
      </trkpt>
      <trkpt lat="43.70163" lon="6.01554">
        <ele>367</ele>
        <time>2023-06-11T13:06:28Z</time>
      </trkpt>
      <trkpt lat="43.70163" lon="6.01556">
        <ele>367</ele>
        <time>2023-06-11T13:06:29Z</time>
      </trkpt>
      <trkpt lat="43.70163" lon="6.01558">
        <ele>367</ele>
        <time>2023-06-11T13:06:30Z</time>
      </trkpt>
      <trkpt lat="43.70162" lon="6.0156">
        <ele>367.1</ele>
        <time>2023-06-11T13:06:31Z</time>
      </trkpt>
      <trkpt lat="43.70162" lon="6.01561">
        <ele>367.1</ele>
        <time>2023-06-11T13:06:32Z</time>
      </trkpt>
      <trkpt lat="43.70162" lon="6.01563">
        <ele>367.1</ele>
        <time>2023-06-11T13:06:33Z</time>
      </trkpt>
      <trkpt lat="43.70162" lon="6.01565">
        <ele>367.1</ele>
        <time>2023-06-11T13:06:34Z</time>
      </trkpt>
      <trkpt lat="43.70161" lon="6.01567">
        <ele>367.1</ele>
        <time>2023-06-11T13:06:35Z</time>
      </trkpt>
      <trkpt lat="43.70161" lon="6.01569">
        <ele>367.1</ele>
        <time>2023-06-11T13:06:36Z</time>
      </trkpt>
      <trkpt lat="43.70161" lon="6.01571">
        <ele>367.3</ele>
        <time>2023-06-11T13:06:37Z</time>
      </trkpt>
      <trkpt lat="43.70161" lon="6.01572">
        <ele>367.2</ele>
        <time>2023-06-11T13:06:38Z</time>
      </trkpt>
      <trkpt lat="43.70161" lon="6.01574">
        <ele>367.3</ele>
        <time>2023-06-11T13:06:39Z</time>
      </trkpt>
      <trkpt lat="43.70161" lon="6.01576">
        <ele>367.4</ele>
        <time>2023-06-11T13:06:40Z</time>
      </trkpt>
      <trkpt lat="43.70161" lon="6.01578">
        <ele>367.5</ele>
        <time>2023-06-11T13:06:41Z</time>
      </trkpt>
      <trkpt lat="43.70161" lon="6.0158">
        <ele>367.5</ele>
        <time>2023-06-11T13:06:42Z</time>
      </trkpt>
      <trkpt lat="43.70161" lon="6.01582">
        <ele>367.6</ele>
        <time>2023-06-11T13:06:43Z</time>
      </trkpt>
      <trkpt lat="43.70161" lon="6.01584">
        <ele>367.5</ele>
        <time>2023-06-11T13:06:44Z</time>
      </trkpt>
      <trkpt lat="43.70161" lon="6.01586">
        <ele>367.5</ele>
        <time>2023-06-11T13:06:45Z</time>
      </trkpt>
      <trkpt lat="43.70161" lon="6.01588">
        <ele>367.5</ele>
        <time>2023-06-11T13:06:46Z</time>
      </trkpt>
      <trkpt lat="43.70161" lon="6.0159">
        <ele>367.5</ele>
        <time>2023-06-11T13:06:47Z</time>
      </trkpt>
      <trkpt lat="43.70161" lon="6.01592">
        <ele>367.5</ele>
        <time>2023-06-11T13:06:48Z</time>
      </trkpt>
      <trkpt lat="43.70161" lon="6.01594">
        <ele>367.5</ele>
        <time>2023-06-11T13:06:49Z</time>
      </trkpt>
      <trkpt lat="43.70161" lon="6.01596">
        <ele>367.6</ele>
        <time>2023-06-11T13:06:50Z</time>
      </trkpt>
      <trkpt lat="43.7016" lon="6.01597">
        <ele>367.5</ele>
        <time>2023-06-11T13:06:51Z</time>
      </trkpt>
      <trkpt lat="43.7016" lon="6.01599">
        <ele>367.6</ele>
        <time>2023-06-11T13:06:52Z</time>
      </trkpt>
      <trkpt lat="43.7016" lon="6.01601">
        <ele>367.6</ele>
        <time>2023-06-11T13:06:53Z</time>
      </trkpt>
      <trkpt lat="43.7016" lon="6.01603">
        <ele>367.6</ele>
        <time>2023-06-11T13:06:54Z</time>
      </trkpt>
      <trkpt lat="43.7016" lon="6.01605">
        <ele>367.6</ele>
        <time>2023-06-11T13:06:55Z</time>
      </trkpt>
      <trkpt lat="43.70159" lon="6.01607">
        <ele>367.6</ele>
        <time>2023-06-11T13:06:56Z</time>
      </trkpt>
      <trkpt lat="43.70159" lon="6.01608">
        <ele>367.6</ele>
        <time>2023-06-11T13:06:57Z</time>
      </trkpt>
      <trkpt lat="43.70159" lon="6.0161">
        <ele>367.6</ele>
        <time>2023-06-11T13:06:58Z</time>
      </trkpt>
      <trkpt lat="43.70159" lon="6.01612">
        <ele>367.6</ele>
        <time>2023-06-11T13:06:59Z</time>
      </trkpt>
      <trkpt lat="43.70159" lon="6.01614">
        <ele>367.5</ele>
        <time>2023-06-11T13:07:00Z</time>
      </trkpt>
      <trkpt lat="43.70159" lon="6.01616">
        <ele>367.5</ele>
        <time>2023-06-11T13:07:01Z</time>
      </trkpt>
      <trkpt lat="43.70159" lon="6.01618">
        <ele>367.5</ele>
        <time>2023-06-11T13:07:02Z</time>
      </trkpt>
      <trkpt lat="43.70159" lon="6.0162">
        <ele>367.5</ele>
        <time>2023-06-11T13:07:03Z</time>
      </trkpt>
      <trkpt lat="43.70159" lon="6.01622">
        <ele>367.5</ele>
        <time>2023-06-11T13:07:04Z</time>
      </trkpt>
      <trkpt lat="43.7016" lon="6.01624">
        <ele>367.4</ele>
        <time>2023-06-11T13:07:05Z</time>
      </trkpt>
      <trkpt lat="43.7016" lon="6.01626">
        <ele>367.3</ele>
        <time>2023-06-11T13:07:06Z</time>
      </trkpt>
      <trkpt lat="43.7016" lon="6.01627">
        <ele>367.3</ele>
        <time>2023-06-11T13:07:07Z</time>
      </trkpt>
      <trkpt lat="43.7016" lon="6.01629">
        <ele>367.2</ele>
        <time>2023-06-11T13:07:08Z</time>
      </trkpt>
      <trkpt lat="43.7016" lon="6.01631">
        <ele>367.2</ele>
        <time>2023-06-11T13:07:09Z</time>
      </trkpt>
      <trkpt lat="43.7016" lon="6.01633">
        <ele>367.3</ele>
        <time>2023-06-11T13:07:10Z</time>
      </trkpt>
      <trkpt lat="43.7016" lon="6.01635">
        <ele>367.4</ele>
        <time>2023-06-11T13:07:11Z</time>
      </trkpt>
      <trkpt lat="43.7016" lon="6.01637">
        <ele>367.3</ele>
        <time>2023-06-11T13:07:12Z</time>
      </trkpt>
      <trkpt lat="43.7016" lon="6.01638">
        <ele>367.2</ele>
        <time>2023-06-11T13:07:13Z</time>
      </trkpt>
      <trkpt lat="43.7016" lon="6.0164">
        <ele>367.2</ele>
        <time>2023-06-11T13:07:14Z</time>
      </trkpt>
      <trkpt lat="43.7016" lon="6.01642">
        <ele>367.2</ele>
        <time>2023-06-11T13:07:15Z</time>
      </trkpt>
      <trkpt lat="43.70159" lon="6.01644">
        <ele>367.1</ele>
        <time>2023-06-11T13:07:16Z</time>
      </trkpt>
      <trkpt lat="43.70159" lon="6.01646">
        <ele>367.2</ele>
        <time>2023-06-11T13:07:17Z</time>
      </trkpt>
      <trkpt lat="43.70159" lon="6.01648">
        <ele>367.3</ele>
        <time>2023-06-11T13:07:18Z</time>
      </trkpt>
      <trkpt lat="43.70159" lon="6.0165">
        <ele>367.3</ele>
        <time>2023-06-11T13:07:19Z</time>
      </trkpt>
      <trkpt lat="43.70159" lon="6.01652">
        <ele>367.3</ele>
        <time>2023-06-11T13:07:20Z</time>
      </trkpt>
      <trkpt lat="43.70159" lon="6.01653">
        <ele>367.3</ele>
        <time>2023-06-11T13:07:21Z</time>
      </trkpt>
      <trkpt lat="43.70159" lon="6.01655">
        <ele>367.4</ele>
        <time>2023-06-11T13:07:22Z</time>
      </trkpt>
      <trkpt lat="43.7016" lon="6.01657">
        <ele>367.4</ele>
        <time>2023-06-11T13:07:23Z</time>
      </trkpt>
      <trkpt lat="43.7016" lon="6.01659">
        <ele>367.4</ele>
        <time>2023-06-11T13:07:24Z</time>
      </trkpt>
      <trkpt lat="43.7016" lon="6.01661">
        <ele>367.4</ele>
        <time>2023-06-11T13:07:25Z</time>
      </trkpt>
      <trkpt lat="43.7016" lon="6.01663">
        <ele>367.5</ele>
        <time>2023-06-11T13:07:26Z</time>
      </trkpt>
      <trkpt lat="43.7016" lon="6.01665">
        <ele>367.5</ele>
        <time>2023-06-11T13:07:27Z</time>
      </trkpt>
      <trkpt lat="43.7016" lon="6.01667">
        <ele>367.6</ele>
        <time>2023-06-11T13:07:28Z</time>
      </trkpt>
      <trkpt lat="43.7016" lon="6.01669">
        <ele>367.6</ele>
        <time>2023-06-11T13:07:29Z</time>
      </trkpt>
      <trkpt lat="43.7016" lon="6.01671">
        <ele>367.6</ele>
        <time>2023-06-11T13:07:30Z</time>
      </trkpt>
      <trkpt lat="43.7016" lon="6.01673">
        <ele>367.5</ele>
        <time>2023-06-11T13:07:31Z</time>
      </trkpt>
      <trkpt lat="43.7016" lon="6.01675">
        <ele>367.5</ele>
        <time>2023-06-11T13:07:32Z</time>
      </trkpt>
      <trkpt lat="43.7016" lon="6.01676">
        <ele>367.5</ele>
        <time>2023-06-11T13:07:33Z</time>
      </trkpt>
      <trkpt lat="43.7016" lon="6.01678">
        <ele>367.5</ele>
        <time>2023-06-11T13:07:34Z</time>
      </trkpt>
      <trkpt lat="43.70161" lon="6.0168">
        <ele>367.4</ele>
        <time>2023-06-11T13:07:35Z</time>
      </trkpt>
      <trkpt lat="43.70161" lon="6.01682">
        <ele>367.4</ele>
        <time>2023-06-11T13:07:36Z</time>
      </trkpt>
      <trkpt lat="43.70161" lon="6.01684">
        <ele>367.4</ele>
        <time>2023-06-11T13:07:37Z</time>
      </trkpt>
      <trkpt lat="43.70161" lon="6.01686">
        <ele>367.4</ele>
        <time>2023-06-11T13:07:38Z</time>
      </trkpt>
      <trkpt lat="43.70161" lon="6.01688">
        <ele>367.4</ele>
        <time>2023-06-11T13:07:39Z</time>
      </trkpt>
      <trkpt lat="43.70161" lon="6.0169">
        <ele>367.4</ele>
        <time>2023-06-11T13:07:40Z</time>
      </trkpt>
      <trkpt lat="43.70161" lon="6.01692">
        <ele>367.4</ele>
        <time>2023-06-11T13:07:41Z</time>
      </trkpt>
      <trkpt lat="43.70161" lon="6.01694">
        <ele>367.4</ele>
        <time>2023-06-11T13:07:42Z</time>
      </trkpt>
      <trkpt lat="43.70161" lon="6.01696">
        <ele>367.4</ele>
        <time>2023-06-11T13:07:43Z</time>
      </trkpt>
      <trkpt lat="43.70161" lon="6.01698">
        <ele>367.4</ele>
        <time>2023-06-11T13:07:44Z</time>
      </trkpt>
      <trkpt lat="43.70161" lon="6.017">
        <ele>367.5</ele>
        <time>2023-06-11T13:07:45Z</time>
      </trkpt>
      <trkpt lat="43.70161" lon="6.01702">
        <ele>367.4</ele>
        <time>2023-06-11T13:07:46Z</time>
      </trkpt>
      <trkpt lat="43.70162" lon="6.01704">
        <ele>367.4</ele>
        <time>2023-06-11T13:07:47Z</time>
      </trkpt>
      <trkpt lat="43.70162" lon="6.01706">
        <ele>367.3</ele>
        <time>2023-06-11T13:07:48Z</time>
      </trkpt>
      <trkpt lat="43.70163" lon="6.01708">
        <ele>367.3</ele>
        <time>2023-06-11T13:07:49Z</time>
      </trkpt>
      <trkpt lat="43.70163" lon="6.0171">
        <ele>367.3</ele>
        <time>2023-06-11T13:07:50Z</time>
      </trkpt>
      <trkpt lat="43.70163" lon="6.01712">
        <ele>367.3</ele>
        <time>2023-06-11T13:07:51Z</time>
      </trkpt>
      <trkpt lat="43.70163" lon="6.01714">
        <ele>367.3</ele>
        <time>2023-06-11T13:07:52Z</time>
      </trkpt>
      <trkpt lat="43.70163" lon="6.01716">
        <ele>367.3</ele>
        <time>2023-06-11T13:07:53Z</time>
      </trkpt>
      <trkpt lat="43.70163" lon="6.01718">
        <ele>367.3</ele>
        <time>2023-06-11T13:07:54Z</time>
      </trkpt>
      <trkpt lat="43.70162" lon="6.0172">
        <ele>367.3</ele>
        <time>2023-06-11T13:07:55Z</time>
      </trkpt>
      <trkpt lat="43.70163" lon="6.01722">
        <ele>367.3</ele>
        <time>2023-06-11T13:07:56Z</time>
      </trkpt>
      <trkpt lat="43.70162" lon="6.01724">
        <ele>367.3</ele>
        <time>2023-06-11T13:07:57Z</time>
      </trkpt>
      <trkpt lat="43.70162" lon="6.01725">
        <ele>367.3</ele>
        <time>2023-06-11T13:07:58Z</time>
      </trkpt>
      <trkpt lat="43.70162" lon="6.01727">
        <ele>367.3</ele>
        <time>2023-06-11T13:07:59Z</time>
      </trkpt>
      <trkpt lat="43.70163" lon="6.01729">
        <ele>367.2</ele>
        <time>2023-06-11T13:08:00Z</time>
      </trkpt>
      <trkpt lat="43.70163" lon="6.01731">
        <ele>367.2</ele>
        <time>2023-06-11T13:08:01Z</time>
      </trkpt>
      <trkpt lat="43.70163" lon="6.01733">
        <ele>367.2</ele>
        <time>2023-06-11T13:08:02Z</time>
      </trkpt>
      <trkpt lat="43.70163" lon="6.01735">
        <ele>367.2</ele>
        <time>2023-06-11T13:08:03Z</time>
      </trkpt>
      <trkpt lat="43.70163" lon="6.01737">
        <ele>367.3</ele>
        <time>2023-06-11T13:08:04Z</time>
      </trkpt>
      <trkpt lat="43.70163" lon="6.01739">
        <ele>367.3</ele>
        <time>2023-06-11T13:08:05Z</time>
      </trkpt>
      <trkpt lat="43.70163" lon="6.01741">
        <ele>367.4</ele>
        <time>2023-06-11T13:08:06Z</time>
      </trkpt>
      <trkpt lat="43.70163" lon="6.01743">
        <ele>367.4</ele>
        <time>2023-06-11T13:08:07Z</time>
      </trkpt>
      <trkpt lat="43.70163" lon="6.01744">
        <ele>367.4</ele>
        <time>2023-06-11T13:08:08Z</time>
      </trkpt>
      <trkpt lat="43.70162" lon="6.01746">
        <ele>367.4</ele>
        <time>2023-06-11T13:08:09Z</time>
      </trkpt>
      <trkpt lat="43.70162" lon="6.01748">
        <ele>367.4</ele>
        <time>2023-06-11T13:08:10Z</time>
      </trkpt>
      <trkpt lat="43.70162" lon="6.0175">
        <ele>367.4</ele>
        <time>2023-06-11T13:08:11Z</time>
      </trkpt>
      <trkpt lat="43.70162" lon="6.01752">
        <ele>367.4</ele>
        <time>2023-06-11T13:08:12Z</time>
      </trkpt>
      <trkpt lat="43.70162" lon="6.01754">
        <ele>367.5</ele>
        <time>2023-06-11T13:08:13Z</time>
      </trkpt>
      <trkpt lat="43.70161" lon="6.01755">
        <ele>367.4</ele>
        <time>2023-06-11T13:08:14Z</time>
      </trkpt>
      <trkpt lat="43.70161" lon="6.01757">
        <ele>367.4</ele>
        <time>2023-06-11T13:08:15Z</time>
      </trkpt>
      <trkpt lat="43.70161" lon="6.01759">
        <ele>367.4</ele>
        <time>2023-06-11T13:08:16Z</time>
      </trkpt>
      <trkpt lat="43.70162" lon="6.01761">
        <ele>367.4</ele>
        <time>2023-06-11T13:08:17Z</time>
      </trkpt>
      <trkpt lat="43.70162" lon="6.01763">
        <ele>367.5</ele>
        <time>2023-06-11T13:08:18Z</time>
      </trkpt>
      <trkpt lat="43.70162" lon="6.01765">
        <ele>367.6</ele>
        <time>2023-06-11T13:08:19Z</time>
      </trkpt>
      <trkpt lat="43.70163" lon="6.01767">
        <ele>367.6</ele>
        <time>2023-06-11T13:08:20Z</time>
      </trkpt>
      <trkpt lat="43.70163" lon="6.01769">
        <ele>367.7</ele>
        <time>2023-06-11T13:08:21Z</time>
      </trkpt>
      <trkpt lat="43.70163" lon="6.01771">
        <ele>367.6</ele>
        <time>2023-06-11T13:08:22Z</time>
      </trkpt>
      <trkpt lat="43.70163" lon="6.01773">
        <ele>367.5</ele>
        <time>2023-06-11T13:08:23Z</time>
      </trkpt>
      <trkpt lat="43.70164" lon="6.01775">
        <ele>367.5</ele>
        <time>2023-06-11T13:08:24Z</time>
      </trkpt>
      <trkpt lat="43.70164" lon="6.01777">
        <ele>367.4</ele>
        <time>2023-06-11T13:08:25Z</time>
      </trkpt>
      <trkpt lat="43.70164" lon="6.01779">
        <ele>367.5</ele>
        <time>2023-06-11T13:08:26Z</time>
      </trkpt>
      <trkpt lat="43.70164" lon="6.01781">
        <ele>367.6</ele>
        <time>2023-06-11T13:08:27Z</time>
      </trkpt>
      <trkpt lat="43.70164" lon="6.01783">
        <ele>367.7</ele>
        <time>2023-06-11T13:08:28Z</time>
      </trkpt>
      <trkpt lat="43.70164" lon="6.01785">
        <ele>367.8</ele>
        <time>2023-06-11T13:08:29Z</time>
      </trkpt>
      <trkpt lat="43.70165" lon="6.01787">
        <ele>367.8</ele>
        <time>2023-06-11T13:08:30Z</time>
      </trkpt>
      <trkpt lat="43.70165" lon="6.01789">
        <ele>367.7</ele>
        <time>2023-06-11T13:08:31Z</time>
      </trkpt>
      <trkpt lat="43.70165" lon="6.01791">
        <ele>367.7</ele>
        <time>2023-06-11T13:08:32Z</time>
      </trkpt>
      <trkpt lat="43.70165" lon="6.01793">
        <ele>367.7</ele>
        <time>2023-06-11T13:08:33Z</time>
      </trkpt>
      <trkpt lat="43.70165" lon="6.01795">
        <ele>367.6</ele>
        <time>2023-06-11T13:08:34Z</time>
      </trkpt>
      <trkpt lat="43.70165" lon="6.01797">
        <ele>367.5</ele>
        <time>2023-06-11T13:08:35Z</time>
      </trkpt>
      <trkpt lat="43.70165" lon="6.01798">
        <ele>367.5</ele>
        <time>2023-06-11T13:08:36Z</time>
      </trkpt>
      <trkpt lat="43.70165" lon="6.018">
        <ele>367.5</ele>
        <time>2023-06-11T13:08:37Z</time>
      </trkpt>
      <trkpt lat="43.70165" lon="6.01802">
        <ele>367.5</ele>
        <time>2023-06-11T13:08:38Z</time>
      </trkpt>
      <trkpt lat="43.70165" lon="6.01804">
        <ele>367.4</ele>
        <time>2023-06-11T13:08:39Z</time>
      </trkpt>
      <trkpt lat="43.70165" lon="6.01806">
        <ele>367.3</ele>
        <time>2023-06-11T13:08:40Z</time>
      </trkpt>
      <trkpt lat="43.70166" lon="6.01808">
        <ele>367.3</ele>
        <time>2023-06-11T13:08:41Z</time>
      </trkpt>
      <trkpt lat="43.70166" lon="6.0181">
        <ele>367.2</ele>
        <time>2023-06-11T13:08:42Z</time>
      </trkpt>
      <trkpt lat="43.70165" lon="6.01812">
        <ele>367.2</ele>
        <time>2023-06-11T13:08:43Z</time>
      </trkpt>
      <trkpt lat="43.70165" lon="6.01813">
        <ele>367.2</ele>
        <time>2023-06-11T13:08:44Z</time>
      </trkpt>
      <trkpt lat="43.70165" lon="6.01815">
        <ele>367.2</ele>
        <time>2023-06-11T13:08:45Z</time>
      </trkpt>
      <trkpt lat="43.70165" lon="6.01817">
        <ele>367.2</ele>
        <time>2023-06-11T13:08:46Z</time>
      </trkpt>
      <trkpt lat="43.70165" lon="6.01819">
        <ele>367.2</ele>
        <time>2023-06-11T13:08:47Z</time>
      </trkpt>
      <trkpt lat="43.70165" lon="6.01821">
        <ele>367.2</ele>
        <time>2023-06-11T13:08:48Z</time>
      </trkpt>
      <trkpt lat="43.70165" lon="6.01822">
        <ele>367.2</ele>
        <time>2023-06-11T13:08:49Z</time>
      </trkpt>
      <trkpt lat="43.70165" lon="6.01824">
        <ele>367.2</ele>
        <time>2023-06-11T13:08:50Z</time>
      </trkpt>
      <trkpt lat="43.70165" lon="6.01826">
        <ele>367.2</ele>
        <time>2023-06-11T13:08:51Z</time>
      </trkpt>
      <trkpt lat="43.70165" lon="6.01828">
        <ele>367.2</ele>
        <time>2023-06-11T13:08:52Z</time>
      </trkpt>
      <trkpt lat="43.70165" lon="6.0183">
        <ele>367.1</ele>
        <time>2023-06-11T13:08:53Z</time>
      </trkpt>
      <trkpt lat="43.70165" lon="6.01832">
        <ele>367.1</ele>
        <time>2023-06-11T13:08:54Z</time>
      </trkpt>
      <trkpt lat="43.70165" lon="6.01834">
        <ele>367.1</ele>
        <time>2023-06-11T13:08:55Z</time>
      </trkpt>
      <trkpt lat="43.70165" lon="6.01836">
        <ele>367.1</ele>
        <time>2023-06-11T13:08:56Z</time>
      </trkpt>
      <trkpt lat="43.70165" lon="6.01837">
        <ele>367.2</ele>
        <time>2023-06-11T13:08:57Z</time>
      </trkpt>
      <trkpt lat="43.70165" lon="6.01839">
        <ele>367.2</ele>
        <time>2023-06-11T13:08:58Z</time>
      </trkpt>
      <trkpt lat="43.70165" lon="6.01841">
        <ele>367.1</ele>
        <time>2023-06-11T13:08:59Z</time>
      </trkpt>
      <trkpt lat="43.70165" lon="6.01843">
        <ele>367.1</ele>
        <time>2023-06-11T13:09:00Z</time>
      </trkpt>
      <trkpt lat="43.70165" lon="6.01845">
        <ele>367.1</ele>
        <time>2023-06-11T13:09:01Z</time>
      </trkpt>
      <trkpt lat="43.70165" lon="6.01847">
        <ele>367</ele>
        <time>2023-06-11T13:09:02Z</time>
      </trkpt>
      <trkpt lat="43.70165" lon="6.01849">
        <ele>367.1</ele>
        <time>2023-06-11T13:09:03Z</time>
      </trkpt>
      <trkpt lat="43.70165" lon="6.01851">
        <ele>367.1</ele>
        <time>2023-06-11T13:09:04Z</time>
      </trkpt>
      <trkpt lat="43.70164" lon="6.01852">
        <ele>367</ele>
        <time>2023-06-11T13:09:05Z</time>
      </trkpt>
      <trkpt lat="43.70164" lon="6.01854">
        <ele>367</ele>
        <time>2023-06-11T13:09:06Z</time>
      </trkpt>
      <trkpt lat="43.70164" lon="6.01856">
        <ele>367</ele>
        <time>2023-06-11T13:09:07Z</time>
      </trkpt>
      <trkpt lat="43.70164" lon="6.01858">
        <ele>367</ele>
        <time>2023-06-11T13:09:08Z</time>
      </trkpt>
      <trkpt lat="43.70163" lon="6.0186">
        <ele>367.1</ele>
        <time>2023-06-11T13:09:09Z</time>
      </trkpt>
      <trkpt lat="43.70163" lon="6.01861">
        <ele>367.1</ele>
        <time>2023-06-11T13:09:10Z</time>
      </trkpt>
      <trkpt lat="43.70162" lon="6.01863">
        <ele>367.2</ele>
        <time>2023-06-11T13:09:11Z</time>
      </trkpt>
      <trkpt lat="43.70162" lon="6.01865">
        <ele>367.2</ele>
        <time>2023-06-11T13:09:12Z</time>
      </trkpt>
      <trkpt lat="43.70161" lon="6.01867">
        <ele>367.2</ele>
        <time>2023-06-11T13:09:13Z</time>
      </trkpt>
      <trkpt lat="43.70161" lon="6.01868">
        <ele>367.3</ele>
        <time>2023-06-11T13:09:14Z</time>
      </trkpt>
      <trkpt lat="43.70161" lon="6.0187">
        <ele>367.3</ele>
        <time>2023-06-11T13:09:15Z</time>
      </trkpt>
      <trkpt lat="43.70161" lon="6.01872">
        <ele>367.2</ele>
        <time>2023-06-11T13:09:16Z</time>
      </trkpt>
      <trkpt lat="43.7016" lon="6.01874">
        <ele>367.2</ele>
        <time>2023-06-11T13:09:17Z</time>
      </trkpt>
      <trkpt lat="43.7016" lon="6.01876">
        <ele>367.2</ele>
        <time>2023-06-11T13:09:18Z</time>
      </trkpt>
      <trkpt lat="43.70159" lon="6.01877">
        <ele>367.2</ele>
        <time>2023-06-11T13:09:19Z</time>
      </trkpt>
      <trkpt lat="43.70159" lon="6.01879">
        <ele>367.2</ele>
        <time>2023-06-11T13:09:20Z</time>
      </trkpt>
      <trkpt lat="43.70159" lon="6.01881">
        <ele>367.2</ele>
        <time>2023-06-11T13:09:21Z</time>
      </trkpt>
      <trkpt lat="43.70158" lon="6.01883">
        <ele>367.2</ele>
        <time>2023-06-11T13:09:22Z</time>
      </trkpt>
      <trkpt lat="43.70158" lon="6.01884">
        <ele>367.2</ele>
        <time>2023-06-11T13:09:23Z</time>
      </trkpt>
      <trkpt lat="43.70157" lon="6.01886">
        <ele>367.1</ele>
        <time>2023-06-11T13:09:24Z</time>
      </trkpt>
      <trkpt lat="43.70157" lon="6.01888">
        <ele>367.1</ele>
        <time>2023-06-11T13:09:25Z</time>
      </trkpt>
      <trkpt lat="43.70156" lon="6.01889">
        <ele>367</ele>
        <time>2023-06-11T13:09:26Z</time>
      </trkpt>
      <trkpt lat="43.70156" lon="6.01891">
        <ele>367</ele>
        <time>2023-06-11T13:09:27Z</time>
      </trkpt>
      <trkpt lat="43.70155" lon="6.01892">
        <ele>367</ele>
        <time>2023-06-11T13:09:28Z</time>
      </trkpt>
      <trkpt lat="43.70154" lon="6.01893">
        <ele>367.1</ele>
        <time>2023-06-11T13:09:29Z</time>
      </trkpt>
      <trkpt lat="43.70154" lon="6.01894">
        <ele>367.1</ele>
        <time>2023-06-11T13:09:30Z</time>
      </trkpt>
      <trkpt lat="43.70153" lon="6.01896">
        <ele>367.1</ele>
        <time>2023-06-11T13:09:31Z</time>
      </trkpt>
      <trkpt lat="43.70153" lon="6.01897">
        <ele>367.1</ele>
        <time>2023-06-11T13:09:32Z</time>
      </trkpt>
      <trkpt lat="43.70152" lon="6.01899">
        <ele>367</ele>
        <time>2023-06-11T13:09:33Z</time>
      </trkpt>
      <trkpt lat="43.70152" lon="6.01901">
        <ele>367</ele>
        <time>2023-06-11T13:09:34Z</time>
      </trkpt>
      <trkpt lat="43.70151" lon="6.01902">
        <ele>366.9</ele>
        <time>2023-06-11T13:09:35Z</time>
      </trkpt>
      <trkpt lat="43.70151" lon="6.01904">
        <ele>366.9</ele>
        <time>2023-06-11T13:09:36Z</time>
      </trkpt>
      <trkpt lat="43.70151" lon="6.01906">
        <ele>366.8</ele>
        <time>2023-06-11T13:09:37Z</time>
      </trkpt>
      <trkpt lat="43.70151" lon="6.01907">
        <ele>366.8</ele>
        <time>2023-06-11T13:09:38Z</time>
      </trkpt>
      <trkpt lat="43.7015" lon="6.01909">
        <ele>366.8</ele>
        <time>2023-06-11T13:09:39Z</time>
      </trkpt>
      <trkpt lat="43.7015" lon="6.01911">
        <ele>366.8</ele>
        <time>2023-06-11T13:09:40Z</time>
      </trkpt>
      <trkpt lat="43.70149" lon="6.01913">
        <ele>367</ele>
        <time>2023-06-11T13:09:41Z</time>
      </trkpt>
      <trkpt lat="43.70149" lon="6.01914">
        <ele>367</ele>
        <time>2023-06-11T13:09:42Z</time>
      </trkpt>
      <trkpt lat="43.70149" lon="6.01916">
        <ele>367.1</ele>
        <time>2023-06-11T13:09:43Z</time>
      </trkpt>
      <trkpt lat="43.70148" lon="6.01918">
        <ele>367.1</ele>
        <time>2023-06-11T13:09:44Z</time>
      </trkpt>
      <trkpt lat="43.70148" lon="6.01919">
        <ele>367.2</ele>
        <time>2023-06-11T13:09:45Z</time>
      </trkpt>
      <trkpt lat="43.70148" lon="6.01921">
        <ele>367.3</ele>
        <time>2023-06-11T13:09:46Z</time>
      </trkpt>
      <trkpt lat="43.70147" lon="6.01923">
        <ele>367.5</ele>
        <time>2023-06-11T13:09:47Z</time>
      </trkpt>
      <trkpt lat="43.70147" lon="6.01925">
        <ele>367.6</ele>
        <time>2023-06-11T13:09:48Z</time>
      </trkpt>
      <trkpt lat="43.70146" lon="6.01927">
        <ele>367.6</ele>
        <time>2023-06-11T13:09:49Z</time>
      </trkpt>
      <trkpt lat="43.70146" lon="6.01929">
        <ele>367.7</ele>
        <time>2023-06-11T13:09:50Z</time>
      </trkpt>
      <trkpt lat="43.70146" lon="6.0193">
        <ele>367.7</ele>
        <time>2023-06-11T13:09:51Z</time>
      </trkpt>
      <trkpt lat="43.70146" lon="6.01932">
        <ele>367.7</ele>
        <time>2023-06-11T13:09:52Z</time>
      </trkpt>
      <trkpt lat="43.70145" lon="6.01934">
        <ele>367.7</ele>
        <time>2023-06-11T13:09:53Z</time>
      </trkpt>
      <trkpt lat="43.70145" lon="6.01936">
        <ele>367.8</ele>
        <time>2023-06-11T13:09:54Z</time>
      </trkpt>
      <trkpt lat="43.70145" lon="6.01938">
        <ele>367.9</ele>
        <time>2023-06-11T13:09:55Z</time>
      </trkpt>
      <trkpt lat="43.70145" lon="6.0194">
        <ele>368</ele>
        <time>2023-06-11T13:09:56Z</time>
      </trkpt>
      <trkpt lat="43.70144" lon="6.01942">
        <ele>368</ele>
        <time>2023-06-11T13:09:57Z</time>
      </trkpt>
      <trkpt lat="43.70144" lon="6.01944">
        <ele>368</ele>
        <time>2023-06-11T13:09:58Z</time>
      </trkpt>
      <trkpt lat="43.70143" lon="6.01946">
        <ele>367.9</ele>
        <time>2023-06-11T13:09:59Z</time>
      </trkpt>
      <trkpt lat="43.70143" lon="6.01948">
        <ele>367.9</ele>
        <time>2023-06-11T13:10:00Z</time>
      </trkpt>
      <trkpt lat="43.70142" lon="6.0195">
        <ele>367.9</ele>
        <time>2023-06-11T13:10:01Z</time>
      </trkpt>
      <trkpt lat="43.70142" lon="6.01952">
        <ele>367.9</ele>
        <time>2023-06-11T13:10:02Z</time>
      </trkpt>
      <trkpt lat="43.70142" lon="6.01953">
        <ele>367.8</ele>
        <time>2023-06-11T13:10:03Z</time>
      </trkpt>
      <trkpt lat="43.70141" lon="6.01955">
        <ele>367.8</ele>
        <time>2023-06-11T13:10:04Z</time>
      </trkpt>
      <trkpt lat="43.7014" lon="6.01957">
        <ele>367.8</ele>
        <time>2023-06-11T13:10:05Z</time>
      </trkpt>
      <trkpt lat="43.7014" lon="6.01959">
        <ele>367.8</ele>
        <time>2023-06-11T13:10:06Z</time>
      </trkpt>
      <trkpt lat="43.7014" lon="6.01961">
        <ele>367.7</ele>
        <time>2023-06-11T13:10:07Z</time>
      </trkpt>
      <trkpt lat="43.70139" lon="6.01963">
        <ele>367.7</ele>
        <time>2023-06-11T13:10:08Z</time>
      </trkpt>
      <trkpt lat="43.70139" lon="6.01964">
        <ele>367.7</ele>
        <time>2023-06-11T13:10:09Z</time>
      </trkpt>
      <trkpt lat="43.70138" lon="6.01966">
        <ele>367.8</ele>
        <time>2023-06-11T13:10:10Z</time>
      </trkpt>
      <trkpt lat="43.70138" lon="6.01968">
        <ele>367.9</ele>
        <time>2023-06-11T13:10:11Z</time>
      </trkpt>
      <trkpt lat="43.70137" lon="6.0197">
        <ele>368</ele>
        <time>2023-06-11T13:10:12Z</time>
      </trkpt>
      <trkpt lat="43.70137" lon="6.01971">
        <ele>368.1</ele>
        <time>2023-06-11T13:10:13Z</time>
      </trkpt>
      <trkpt lat="43.70136" lon="6.01973">
        <ele>368.1</ele>
        <time>2023-06-11T13:10:14Z</time>
      </trkpt>
      <trkpt lat="43.70136" lon="6.01975">
        <ele>368.1</ele>
        <time>2023-06-11T13:10:15Z</time>
      </trkpt>
      <trkpt lat="43.70136" lon="6.01977">
        <ele>368.2</ele>
        <time>2023-06-11T13:10:16Z</time>
      </trkpt>
      <trkpt lat="43.70136" lon="6.01979">
        <ele>368.1</ele>
        <time>2023-06-11T13:10:17Z</time>
      </trkpt>
      <trkpt lat="43.70136" lon="6.01981">
        <ele>368.1</ele>
        <time>2023-06-11T13:10:18Z</time>
      </trkpt>
      <trkpt lat="43.70136" lon="6.01983">
        <ele>368</ele>
        <time>2023-06-11T13:10:19Z</time>
      </trkpt>
      <trkpt lat="43.70136" lon="6.01985">
        <ele>368</ele>
        <time>2023-06-11T13:10:20Z</time>
      </trkpt>
      <trkpt lat="43.70136" lon="6.01987">
        <ele>367.9</ele>
        <time>2023-06-11T13:10:21Z</time>
      </trkpt>
      <trkpt lat="43.70136" lon="6.01989">
        <ele>367.9</ele>
        <time>2023-06-11T13:10:22Z</time>
      </trkpt>
      <trkpt lat="43.70136" lon="6.01991">
        <ele>367.9</ele>
        <time>2023-06-11T13:10:23Z</time>
      </trkpt>
      <trkpt lat="43.70136" lon="6.01993">
        <ele>367.9</ele>
        <time>2023-06-11T13:10:24Z</time>
      </trkpt>
      <trkpt lat="43.70136" lon="6.01995">
        <ele>367.8</ele>
        <time>2023-06-11T13:10:25Z</time>
      </trkpt>
      <trkpt lat="43.70136" lon="6.01997">
        <ele>367.8</ele>
        <time>2023-06-11T13:10:26Z</time>
      </trkpt>
      <trkpt lat="43.70136" lon="6.01999">
        <ele>367.7</ele>
        <time>2023-06-11T13:10:27Z</time>
      </trkpt>
      <trkpt lat="43.70137" lon="6.02002">
        <ele>367.6</ele>
        <time>2023-06-11T13:10:28Z</time>
      </trkpt>
      <trkpt lat="43.70137" lon="6.02004">
        <ele>367.5</ele>
        <time>2023-06-11T13:10:29Z</time>
      </trkpt>
      <trkpt lat="43.70137" lon="6.02006">
        <ele>367.6</ele>
        <time>2023-06-11T13:10:30Z</time>
      </trkpt>
      <trkpt lat="43.70138" lon="6.02008">
        <ele>367.6</ele>
        <time>2023-06-11T13:10:31Z</time>
      </trkpt>
      <trkpt lat="43.70137" lon="6.0201">
        <ele>367.6</ele>
        <time>2023-06-11T13:10:32Z</time>
      </trkpt>
      <trkpt lat="43.70137" lon="6.02012">
        <ele>367.6</ele>
        <time>2023-06-11T13:10:33Z</time>
      </trkpt>
      <trkpt lat="43.70137" lon="6.02014">
        <ele>367.6</ele>
        <time>2023-06-11T13:10:34Z</time>
      </trkpt>
      <trkpt lat="43.70137" lon="6.02016">
        <ele>367.6</ele>
        <time>2023-06-11T13:10:35Z</time>
      </trkpt>
      <trkpt lat="43.70137" lon="6.02018">
        <ele>367.6</ele>
        <time>2023-06-11T13:10:36Z</time>
      </trkpt>
      <trkpt lat="43.70137" lon="6.0202">
        <ele>367.6</ele>
        <time>2023-06-11T13:10:37Z</time>
      </trkpt>
      <trkpt lat="43.70138" lon="6.02022">
        <ele>367.7</ele>
        <time>2023-06-11T13:10:38Z</time>
      </trkpt>
      <trkpt lat="43.70138" lon="6.02024">
        <ele>367.7</ele>
        <time>2023-06-11T13:10:39Z</time>
      </trkpt>
      <trkpt lat="43.70138" lon="6.02026">
        <ele>367.7</ele>
        <time>2023-06-11T13:10:40Z</time>
      </trkpt>
      <trkpt lat="43.70138" lon="6.02028">
        <ele>367.7</ele>
        <time>2023-06-11T13:10:41Z</time>
      </trkpt>
      <trkpt lat="43.70138" lon="6.0203">
        <ele>367.8</ele>
        <time>2023-06-11T13:10:42Z</time>
      </trkpt>
      <trkpt lat="43.70139" lon="6.02032">
        <ele>367.8</ele>
        <time>2023-06-11T13:10:43Z</time>
      </trkpt>
      <trkpt lat="43.7014" lon="6.02034">
        <ele>367.8</ele>
        <time>2023-06-11T13:10:44Z</time>
      </trkpt>
      <trkpt lat="43.7014" lon="6.02036">
        <ele>367.9</ele>
        <time>2023-06-11T13:10:45Z</time>
      </trkpt>
      <trkpt lat="43.70141" lon="6.02038">
        <ele>367.9</ele>
        <time>2023-06-11T13:10:46Z</time>
      </trkpt>
      <trkpt lat="43.70141" lon="6.0204">
        <ele>367.9</ele>
        <time>2023-06-11T13:10:47Z</time>
      </trkpt>
      <trkpt lat="43.70141" lon="6.02042">
        <ele>367.9</ele>
        <time>2023-06-11T13:10:48Z</time>
      </trkpt>
      <trkpt lat="43.70142" lon="6.02044">
        <ele>367.9</ele>
        <time>2023-06-11T13:10:49Z</time>
      </trkpt>
      <trkpt lat="43.70142" lon="6.02046">
        <ele>367.8</ele>
        <time>2023-06-11T13:10:50Z</time>
      </trkpt>
      <trkpt lat="43.70142" lon="6.02048">
        <ele>367.7</ele>
        <time>2023-06-11T13:10:51Z</time>
      </trkpt>
      <trkpt lat="43.70142" lon="6.0205">
        <ele>367.7</ele>
        <time>2023-06-11T13:10:52Z</time>
      </trkpt>
      <trkpt lat="43.70142" lon="6.02052">
        <ele>367.7</ele>
        <time>2023-06-11T13:10:53Z</time>
      </trkpt>
      <trkpt lat="43.70142" lon="6.02053">
        <ele>367.8</ele>
        <time>2023-06-11T13:10:54Z</time>
      </trkpt>
      <trkpt lat="43.70142" lon="6.02055">
        <ele>367.8</ele>
        <time>2023-06-11T13:10:55Z</time>
      </trkpt>
      <trkpt lat="43.70143" lon="6.02057">
        <ele>367.8</ele>
        <time>2023-06-11T13:10:56Z</time>
      </trkpt>
      <trkpt lat="43.70144" lon="6.02059">
        <ele>367.8</ele>
        <time>2023-06-11T13:10:57Z</time>
      </trkpt>
      <trkpt lat="43.70144" lon="6.02061">
        <ele>367.9</ele>
        <time>2023-06-11T13:10:58Z</time>
      </trkpt>
      <trkpt lat="43.70145" lon="6.02063">
        <ele>367.9</ele>
        <time>2023-06-11T13:10:59Z</time>
      </trkpt>
      <trkpt lat="43.70146" lon="6.02065">
        <ele>367.9</ele>
        <time>2023-06-11T13:11:00Z</time>
      </trkpt>
      <trkpt lat="43.70146" lon="6.02067">
        <ele>368</ele>
        <time>2023-06-11T13:11:01Z</time>
      </trkpt>
      <trkpt lat="43.70146" lon="6.02069">
        <ele>368</ele>
        <time>2023-06-11T13:11:02Z</time>
      </trkpt>
      <trkpt lat="43.70147" lon="6.02071">
        <ele>368</ele>
        <time>2023-06-11T13:11:03Z</time>
      </trkpt>
      <trkpt lat="43.70147" lon="6.02073">
        <ele>368</ele>
        <time>2023-06-11T13:11:04Z</time>
      </trkpt>
      <trkpt lat="43.70147" lon="6.02074">
        <ele>367.9</ele>
        <time>2023-06-11T13:11:05Z</time>
      </trkpt>
      <trkpt lat="43.70147" lon="6.02076">
        <ele>367.9</ele>
        <time>2023-06-11T13:11:06Z</time>
      </trkpt>
      <trkpt lat="43.70147" lon="6.02078">
        <ele>368</ele>
        <time>2023-06-11T13:11:07Z</time>
      </trkpt>
      <trkpt lat="43.70148" lon="6.0208">
        <ele>368</ele>
        <time>2023-06-11T13:11:08Z</time>
      </trkpt>
      <trkpt lat="43.70148" lon="6.02081">
        <ele>368</ele>
        <time>2023-06-11T13:11:09Z</time>
      </trkpt>
      <trkpt lat="43.70148" lon="6.02083">
        <ele>368</ele>
        <time>2023-06-11T13:11:10Z</time>
      </trkpt>
      <trkpt lat="43.70148" lon="6.02085">
        <ele>368.1</ele>
        <time>2023-06-11T13:11:11Z</time>
      </trkpt>
      <trkpt lat="43.7015" lon="6.02087">
        <ele>368.1</ele>
        <time>2023-06-11T13:11:12Z</time>
      </trkpt>
      <trkpt lat="43.7015" lon="6.02089">
        <ele>368.1</ele>
        <time>2023-06-11T13:11:13Z</time>
      </trkpt>
      <trkpt lat="43.70151" lon="6.02091">
        <ele>368.1</ele>
        <time>2023-06-11T13:11:14Z</time>
      </trkpt>
      <trkpt lat="43.70152" lon="6.02093">
        <ele>368.1</ele>
        <time>2023-06-11T13:11:15Z</time>
      </trkpt>
      <trkpt lat="43.70152" lon="6.02095">
        <ele>368.2</ele>
        <time>2023-06-11T13:11:16Z</time>
      </trkpt>
      <trkpt lat="43.70153" lon="6.02097">
        <ele>368.2</ele>
        <time>2023-06-11T13:11:17Z</time>
      </trkpt>
      <trkpt lat="43.70154" lon="6.02098">
        <ele>368.2</ele>
        <time>2023-06-11T13:11:18Z</time>
      </trkpt>
      <trkpt lat="43.70154" lon="6.021">
        <ele>368.1</ele>
        <time>2023-06-11T13:11:19Z</time>
      </trkpt>
      <trkpt lat="43.70155" lon="6.02102">
        <ele>368</ele>
        <time>2023-06-11T13:11:20Z</time>
      </trkpt>
      <trkpt lat="43.70156" lon="6.02104">
        <ele>368.1</ele>
        <time>2023-06-11T13:11:21Z</time>
      </trkpt>
      <trkpt lat="43.70156" lon="6.02105">
        <ele>368.1</ele>
        <time>2023-06-11T13:11:22Z</time>
      </trkpt>
      <trkpt lat="43.70157" lon="6.02107">
        <ele>368</ele>
        <time>2023-06-11T13:11:23Z</time>
      </trkpt>
      <trkpt lat="43.70157" lon="6.02108">
        <ele>368.1</ele>
        <time>2023-06-11T13:11:24Z</time>
      </trkpt>
      <trkpt lat="43.70158" lon="6.0211">
        <ele>368.1</ele>
        <time>2023-06-11T13:11:25Z</time>
      </trkpt>
      <trkpt lat="43.70159" lon="6.02112">
        <ele>368</ele>
        <time>2023-06-11T13:11:26Z</time>
      </trkpt>
      <trkpt lat="43.7016" lon="6.02113">
        <ele>367.9</ele>
        <time>2023-06-11T13:11:27Z</time>
      </trkpt>
      <trkpt lat="43.7016" lon="6.02115">
        <ele>367.9</ele>
        <time>2023-06-11T13:11:28Z</time>
      </trkpt>
      <trkpt lat="43.70161" lon="6.02117">
        <ele>367.8</ele>
        <time>2023-06-11T13:11:29Z</time>
      </trkpt>
      <trkpt lat="43.70163" lon="6.02119">
        <ele>367.7</ele>
        <time>2023-06-11T13:11:30Z</time>
      </trkpt>
      <trkpt lat="43.70164" lon="6.02121">
        <ele>367.7</ele>
        <time>2023-06-11T13:11:31Z</time>
      </trkpt>
      <trkpt lat="43.70165" lon="6.02122">
        <ele>367.7</ele>
        <time>2023-06-11T13:11:32Z</time>
      </trkpt>
      <trkpt lat="43.70166" lon="6.02124">
        <ele>367.7</ele>
        <time>2023-06-11T13:11:33Z</time>
      </trkpt>
      <trkpt lat="43.70167" lon="6.02126">
        <ele>367.7</ele>
        <time>2023-06-11T13:11:34Z</time>
      </trkpt>
      <trkpt lat="43.70167" lon="6.02128">
        <ele>367.7</ele>
        <time>2023-06-11T13:11:35Z</time>
      </trkpt>
      <trkpt lat="43.70168" lon="6.02129">
        <ele>367.7</ele>
        <time>2023-06-11T13:11:36Z</time>
      </trkpt>
      <trkpt lat="43.70169" lon="6.02131">
        <ele>367.7</ele>
        <time>2023-06-11T13:11:37Z</time>
      </trkpt>
      <trkpt lat="43.70169" lon="6.02133">
        <ele>367.8</ele>
        <time>2023-06-11T13:11:38Z</time>
      </trkpt>
      <trkpt lat="43.7017" lon="6.02135">
        <ele>367.9</ele>
        <time>2023-06-11T13:11:39Z</time>
      </trkpt>
      <trkpt lat="43.7017" lon="6.02136">
        <ele>368</ele>
        <time>2023-06-11T13:11:40Z</time>
      </trkpt>
      <trkpt lat="43.70171" lon="6.02138">
        <ele>368</ele>
        <time>2023-06-11T13:11:41Z</time>
      </trkpt>
      <trkpt lat="43.70171" lon="6.0214">
        <ele>368.1</ele>
        <time>2023-06-11T13:11:42Z</time>
      </trkpt>
      <trkpt lat="43.70172" lon="6.02142">
        <ele>368.1</ele>
        <time>2023-06-11T13:11:43Z</time>
      </trkpt>
      <trkpt lat="43.70173" lon="6.02143">
        <ele>368</ele>
        <time>2023-06-11T13:11:44Z</time>
      </trkpt>
      <trkpt lat="43.70173" lon="6.02145">
        <ele>367.9</ele>
        <time>2023-06-11T13:11:45Z</time>
      </trkpt>
      <trkpt lat="43.70174" lon="6.02147">
        <ele>367.9</ele>
        <time>2023-06-11T13:11:46Z</time>
      </trkpt>
      <trkpt lat="43.70175" lon="6.02148">
        <ele>367.8</ele>
        <time>2023-06-11T13:11:47Z</time>
      </trkpt>
      <trkpt lat="43.70175" lon="6.0215">
        <ele>367.8</ele>
        <time>2023-06-11T13:11:48Z</time>
      </trkpt>
      <trkpt lat="43.70176" lon="6.02152">
        <ele>367.8</ele>
        <time>2023-06-11T13:11:49Z</time>
      </trkpt>
      <trkpt lat="43.70176" lon="6.02153">
        <ele>367.8</ele>
        <time>2023-06-11T13:11:50Z</time>
      </trkpt>
      <trkpt lat="43.70177" lon="6.02155">
        <ele>367.8</ele>
        <time>2023-06-11T13:11:51Z</time>
      </trkpt>
      <trkpt lat="43.70178" lon="6.02157">
        <ele>367.8</ele>
        <time>2023-06-11T13:11:52Z</time>
      </trkpt>
      <trkpt lat="43.70178" lon="6.02158">
        <ele>367.8</ele>
        <time>2023-06-11T13:11:53Z</time>
      </trkpt>
      <trkpt lat="43.70179" lon="6.0216">
        <ele>367.9</ele>
        <time>2023-06-11T13:11:54Z</time>
      </trkpt>
      <trkpt lat="43.7018" lon="6.02162">
        <ele>367.9</ele>
        <time>2023-06-11T13:11:55Z</time>
      </trkpt>
      <trkpt lat="43.7018" lon="6.02164">
        <ele>367.9</ele>
        <time>2023-06-11T13:11:56Z</time>
      </trkpt>
      <trkpt lat="43.70181" lon="6.02165">
        <ele>368</ele>
        <time>2023-06-11T13:11:57Z</time>
      </trkpt>
      <trkpt lat="43.70181" lon="6.02167">
        <ele>368.1</ele>
        <time>2023-06-11T13:11:58Z</time>
      </trkpt>
      <trkpt lat="43.70182" lon="6.02169">
        <ele>368</ele>
        <time>2023-06-11T13:11:59Z</time>
      </trkpt>
      <trkpt lat="43.70182" lon="6.02171">
        <ele>368</ele>
        <time>2023-06-11T13:12:00Z</time>
      </trkpt>
      <trkpt lat="43.70183" lon="6.02172">
        <ele>368</ele>
        <time>2023-06-11T13:12:01Z</time>
      </trkpt>
      <trkpt lat="43.70183" lon="6.02174">
        <ele>368</ele>
        <time>2023-06-11T13:12:02Z</time>
      </trkpt>
      <trkpt lat="43.70184" lon="6.02176">
        <ele>368</ele>
        <time>2023-06-11T13:12:03Z</time>
      </trkpt>
      <trkpt lat="43.70184" lon="6.02177">
        <ele>368.1</ele>
        <time>2023-06-11T13:12:04Z</time>
      </trkpt>
      <trkpt lat="43.70185" lon="6.02179">
        <ele>368.1</ele>
        <time>2023-06-11T13:12:05Z</time>
      </trkpt>
      <trkpt lat="43.70186" lon="6.02181">
        <ele>368</ele>
        <time>2023-06-11T13:12:06Z</time>
      </trkpt>
      <trkpt lat="43.70186" lon="6.02183">
        <ele>367.9</ele>
        <time>2023-06-11T13:12:07Z</time>
      </trkpt>
      <trkpt lat="43.70187" lon="6.02184">
        <ele>367.9</ele>
        <time>2023-06-11T13:12:08Z</time>
      </trkpt>
      <trkpt lat="43.70188" lon="6.02186">
        <ele>367.9</ele>
        <time>2023-06-11T13:12:09Z</time>
      </trkpt>
      <trkpt lat="43.70188" lon="6.02188">
        <ele>367.9</ele>
        <time>2023-06-11T13:12:10Z</time>
      </trkpt>
      <trkpt lat="43.70188" lon="6.02189">
        <ele>368</ele>
        <time>2023-06-11T13:12:11Z</time>
      </trkpt>
      <trkpt lat="43.70189" lon="6.02191">
        <ele>368.1</ele>
        <time>2023-06-11T13:12:12Z</time>
      </trkpt>
      <trkpt lat="43.70189" lon="6.02192">
        <ele>368.1</ele>
        <time>2023-06-11T13:12:13Z</time>
      </trkpt>
      <trkpt lat="43.7019" lon="6.02194">
        <ele>368.1</ele>
        <time>2023-06-11T13:12:14Z</time>
      </trkpt>
      <trkpt lat="43.7019" lon="6.02196">
        <ele>368.1</ele>
        <time>2023-06-11T13:12:15Z</time>
      </trkpt>
      <trkpt lat="43.70191" lon="6.02197">
        <ele>368.2</ele>
        <time>2023-06-11T13:12:16Z</time>
      </trkpt>
      <trkpt lat="43.70191" lon="6.02199">
        <ele>368.1</ele>
        <time>2023-06-11T13:12:17Z</time>
      </trkpt>
      <trkpt lat="43.70192" lon="6.02201">
        <ele>368.1</ele>
        <time>2023-06-11T13:12:18Z</time>
      </trkpt>
      <trkpt lat="43.70192" lon="6.02202">
        <ele>368.1</ele>
        <time>2023-06-11T13:12:19Z</time>
      </trkpt>
      <trkpt lat="43.70192" lon="6.02204">
        <ele>368.2</ele>
        <time>2023-06-11T13:12:20Z</time>
      </trkpt>
      <trkpt lat="43.70193" lon="6.02205">
        <ele>368.2</ele>
        <time>2023-06-11T13:12:21Z</time>
      </trkpt>
      <trkpt lat="43.70194" lon="6.02207">
        <ele>368.3</ele>
        <time>2023-06-11T13:12:22Z</time>
      </trkpt>
      <trkpt lat="43.70194" lon="6.02209">
        <ele>368.3</ele>
        <time>2023-06-11T13:12:23Z</time>
      </trkpt>
      <trkpt lat="43.70195" lon="6.0221">
        <ele>368.3</ele>
        <time>2023-06-11T13:12:24Z</time>
      </trkpt>
      <trkpt lat="43.70195" lon="6.02211">
        <ele>368.3</ele>
        <time>2023-06-11T13:12:25Z</time>
      </trkpt>
      <trkpt lat="43.70195" lon="6.02213">
        <ele>368.3</ele>
        <time>2023-06-11T13:12:26Z</time>
      </trkpt>
      <trkpt lat="43.70196" lon="6.02214">
        <ele>368.4</ele>
        <time>2023-06-11T13:12:27Z</time>
      </trkpt>
      <trkpt lat="43.70196" lon="6.02216">
        <ele>368.4</ele>
        <time>2023-06-11T13:12:28Z</time>
      </trkpt>
      <trkpt lat="43.70197" lon="6.02217">
        <ele>368.4</ele>
        <time>2023-06-11T13:12:29Z</time>
      </trkpt>
      <trkpt lat="43.70198" lon="6.02219">
        <ele>368.4</ele>
        <time>2023-06-11T13:12:30Z</time>
      </trkpt>
      <trkpt lat="43.70198" lon="6.02221">
        <ele>368.4</ele>
        <time>2023-06-11T13:12:31Z</time>
      </trkpt>
      <trkpt lat="43.70199" lon="6.02222">
        <ele>368.4</ele>
        <time>2023-06-11T13:12:32Z</time>
      </trkpt>
      <trkpt lat="43.702" lon="6.02224">
        <ele>368.4</ele>
        <time>2023-06-11T13:12:33Z</time>
      </trkpt>
      <trkpt lat="43.70201" lon="6.02225">
        <ele>368.3</ele>
        <time>2023-06-11T13:12:34Z</time>
      </trkpt>
      <trkpt lat="43.70201" lon="6.02227">
        <ele>368.3</ele>
        <time>2023-06-11T13:12:35Z</time>
      </trkpt>
      <trkpt lat="43.70202" lon="6.02228">
        <ele>368.2</ele>
        <time>2023-06-11T13:12:36Z</time>
      </trkpt>
      <trkpt lat="43.70203" lon="6.0223">
        <ele>368.2</ele>
        <time>2023-06-11T13:12:37Z</time>
      </trkpt>
      <trkpt lat="43.70203" lon="6.02232">
        <ele>368.2</ele>
        <time>2023-06-11T13:12:38Z</time>
      </trkpt>
      <trkpt lat="43.70204" lon="6.02233">
        <ele>368.1</ele>
        <time>2023-06-11T13:12:39Z</time>
      </trkpt>
      <trkpt lat="43.70205" lon="6.02235">
        <ele>368.1</ele>
        <time>2023-06-11T13:12:40Z</time>
      </trkpt>
      <trkpt lat="43.70205" lon="6.02236">
        <ele>368.1</ele>
        <time>2023-06-11T13:12:41Z</time>
      </trkpt>
      <trkpt lat="43.70206" lon="6.02238">
        <ele>368.1</ele>
        <time>2023-06-11T13:12:42Z</time>
      </trkpt>
      <trkpt lat="43.70207" lon="6.0224">
        <ele>368.2</ele>
        <time>2023-06-11T13:12:43Z</time>
      </trkpt>
      <trkpt lat="43.70207" lon="6.02241">
        <ele>368.2</ele>
        <time>2023-06-11T13:12:44Z</time>
      </trkpt>
      <trkpt lat="43.70208" lon="6.02243">
        <ele>368.2</ele>
        <time>2023-06-11T13:12:45Z</time>
      </trkpt>
      <trkpt lat="43.70208" lon="6.02245">
        <ele>368.2</ele>
        <time>2023-06-11T13:12:46Z</time>
      </trkpt>
      <trkpt lat="43.70209" lon="6.02246">
        <ele>368.3</ele>
        <time>2023-06-11T13:12:47Z</time>
      </trkpt>
      <trkpt lat="43.70209" lon="6.02248">
        <ele>368.2</ele>
        <time>2023-06-11T13:12:48Z</time>
      </trkpt>
      <trkpt lat="43.7021" lon="6.0225">
        <ele>368.2</ele>
        <time>2023-06-11T13:12:49Z</time>
      </trkpt>
      <trkpt lat="43.7021" lon="6.02251">
        <ele>368.2</ele>
        <time>2023-06-11T13:12:50Z</time>
      </trkpt>
      <trkpt lat="43.7021" lon="6.02253">
        <ele>368.1</ele>
        <time>2023-06-11T13:12:51Z</time>
      </trkpt>
      <trkpt lat="43.70211" lon="6.02255">
        <ele>368.2</ele>
        <time>2023-06-11T13:12:52Z</time>
      </trkpt>
      <trkpt lat="43.70211" lon="6.02256">
        <ele>368.2</ele>
        <time>2023-06-11T13:12:53Z</time>
      </trkpt>
      <trkpt lat="43.70211" lon="6.02258">
        <ele>368.2</ele>
        <time>2023-06-11T13:12:54Z</time>
      </trkpt>
      <trkpt lat="43.70211" lon="6.0226">
        <ele>368.3</ele>
        <time>2023-06-11T13:12:55Z</time>
      </trkpt>
      <trkpt lat="43.70211" lon="6.02262">
        <ele>368.3</ele>
        <time>2023-06-11T13:12:56Z</time>
      </trkpt>
      <trkpt lat="43.70211" lon="6.02263">
        <ele>368.2</ele>
        <time>2023-06-11T13:12:57Z</time>
      </trkpt>
      <trkpt lat="43.70211" lon="6.02265">
        <ele>368.3</ele>
        <time>2023-06-11T13:12:58Z</time>
      </trkpt>
      <trkpt lat="43.70212" lon="6.02267">
        <ele>368.3</ele>
        <time>2023-06-11T13:12:59Z</time>
      </trkpt>
      <trkpt lat="43.70212" lon="6.02269">
        <ele>368.3</ele>
        <time>2023-06-11T13:13:00Z</time>
      </trkpt>
      <trkpt lat="43.70212" lon="6.0227">
        <ele>368.3</ele>
        <time>2023-06-11T13:13:01Z</time>
      </trkpt>
      <trkpt lat="43.70212" lon="6.02272">
        <ele>368.3</ele>
        <time>2023-06-11T13:13:02Z</time>
      </trkpt>
      <trkpt lat="43.70212" lon="6.02274">
        <ele>368.4</ele>
        <time>2023-06-11T13:13:03Z</time>
      </trkpt>
      <trkpt lat="43.70212" lon="6.02276">
        <ele>368.5</ele>
        <time>2023-06-11T13:13:04Z</time>
      </trkpt>
      <trkpt lat="43.70212" lon="6.02278">
        <ele>368.6</ele>
        <time>2023-06-11T13:13:05Z</time>
      </trkpt>
      <trkpt lat="43.70212" lon="6.02279">
        <ele>368.7</ele>
        <time>2023-06-11T13:13:06Z</time>
      </trkpt>
      <trkpt lat="43.70212" lon="6.02281">
        <ele>368.8</ele>
        <time>2023-06-11T13:13:07Z</time>
      </trkpt>
      <trkpt lat="43.70212" lon="6.02283">
        <ele>368.8</ele>
        <time>2023-06-11T13:13:08Z</time>
      </trkpt>
      <trkpt lat="43.70213" lon="6.02284">
        <ele>368.9</ele>
        <time>2023-06-11T13:13:09Z</time>
      </trkpt>
      <trkpt lat="43.70213" lon="6.02286">
        <ele>369</ele>
        <time>2023-06-11T13:13:10Z</time>
      </trkpt>
      <trkpt lat="43.70213" lon="6.02288">
        <ele>369</ele>
        <time>2023-06-11T13:13:11Z</time>
      </trkpt>
      <trkpt lat="43.70214" lon="6.02289">
        <ele>368.9</ele>
        <time>2023-06-11T13:13:12Z</time>
      </trkpt>
      <trkpt lat="43.70214" lon="6.02291">
        <ele>368.9</ele>
        <time>2023-06-11T13:13:13Z</time>
      </trkpt>
      <trkpt lat="43.70214" lon="6.02293">
        <ele>368.9</ele>
        <time>2023-06-11T13:13:14Z</time>
      </trkpt>
      <trkpt lat="43.70214" lon="6.02295">
        <ele>368.9</ele>
        <time>2023-06-11T13:13:15Z</time>
      </trkpt>
      <trkpt lat="43.70214" lon="6.02296">
        <ele>368.9</ele>
        <time>2023-06-11T13:13:16Z</time>
      </trkpt>
      <trkpt lat="43.70214" lon="6.02298">
        <ele>368.8</ele>
        <time>2023-06-11T13:13:17Z</time>
      </trkpt>
      <trkpt lat="43.70215" lon="6.023">
        <ele>368.8</ele>
        <time>2023-06-11T13:13:18Z</time>
      </trkpt>
      <trkpt lat="43.70215" lon="6.02302">
        <ele>368.8</ele>
        <time>2023-06-11T13:13:19Z</time>
      </trkpt>
      <trkpt lat="43.70215" lon="6.02303">
        <ele>368.8</ele>
        <time>2023-06-11T13:13:20Z</time>
      </trkpt>
      <trkpt lat="43.70215" lon="6.02305">
        <ele>368.8</ele>
        <time>2023-06-11T13:13:21Z</time>
      </trkpt>
      <trkpt lat="43.70215" lon="6.02307">
        <ele>368.8</ele>
        <time>2023-06-11T13:13:22Z</time>
      </trkpt>
      <trkpt lat="43.70215" lon="6.02309">
        <ele>368.6</ele>
        <time>2023-06-11T13:13:23Z</time>
      </trkpt>
      <trkpt lat="43.70215" lon="6.02311">
        <ele>368.5</ele>
        <time>2023-06-11T13:13:24Z</time>
      </trkpt>
      <trkpt lat="43.70215" lon="6.02312">
        <ele>368.7</ele>
        <time>2023-06-11T13:13:25Z</time>
      </trkpt>
      <trkpt lat="43.70215" lon="6.02314">
        <ele>368.8</ele>
        <time>2023-06-11T13:13:26Z</time>
      </trkpt>
      <trkpt lat="43.70215" lon="6.02316">
        <ele>368.8</ele>
        <time>2023-06-11T13:13:27Z</time>
      </trkpt>
      <trkpt lat="43.70216" lon="6.02318">
        <ele>368.7</ele>
        <time>2023-06-11T13:13:28Z</time>
      </trkpt>
      <trkpt lat="43.70216" lon="6.0232">
        <ele>368.7</ele>
        <time>2023-06-11T13:13:29Z</time>
      </trkpt>
      <trkpt lat="43.70216" lon="6.02322">
        <ele>368.7</ele>
        <time>2023-06-11T13:13:30Z</time>
      </trkpt>
      <trkpt lat="43.70216" lon="6.02323">
        <ele>368.7</ele>
        <time>2023-06-11T13:13:31Z</time>
      </trkpt>
      <trkpt lat="43.70216" lon="6.02325">
        <ele>368.7</ele>
        <time>2023-06-11T13:13:32Z</time>
      </trkpt>
      <trkpt lat="43.70216" lon="6.02327">
        <ele>368.7</ele>
        <time>2023-06-11T13:13:33Z</time>
      </trkpt>
      <trkpt lat="43.70216" lon="6.02329">
        <ele>368.7</ele>
        <time>2023-06-11T13:13:34Z</time>
      </trkpt>
      <trkpt lat="43.70216" lon="6.02331">
        <ele>368.6</ele>
        <time>2023-06-11T13:13:35Z</time>
      </trkpt>
      <trkpt lat="43.70216" lon="6.02333">
        <ele>368.6</ele>
        <time>2023-06-11T13:13:36Z</time>
      </trkpt>
      <trkpt lat="43.70216" lon="6.02334">
        <ele>368.6</ele>
        <time>2023-06-11T13:13:37Z</time>
      </trkpt>
      <trkpt lat="43.70216" lon="6.02336">
        <ele>368.5</ele>
        <time>2023-06-11T13:13:38Z</time>
      </trkpt>
      <trkpt lat="43.70216" lon="6.02338">
        <ele>368.5</ele>
        <time>2023-06-11T13:13:39Z</time>
      </trkpt>
      <trkpt lat="43.70216" lon="6.0234">
        <ele>368.5</ele>
        <time>2023-06-11T13:13:40Z</time>
      </trkpt>
      <trkpt lat="43.70215" lon="6.02342">
        <ele>368.4</ele>
        <time>2023-06-11T13:13:41Z</time>
      </trkpt>
      <trkpt lat="43.70215" lon="6.02344">
        <ele>368.4</ele>
        <time>2023-06-11T13:13:42Z</time>
      </trkpt>
      <trkpt lat="43.70215" lon="6.02346">
        <ele>368.3</ele>
        <time>2023-06-11T13:13:43Z</time>
      </trkpt>
      <trkpt lat="43.70215" lon="6.02347">
        <ele>368.3</ele>
        <time>2023-06-11T13:13:44Z</time>
      </trkpt>
      <trkpt lat="43.70215" lon="6.02349">
        <ele>368.1</ele>
        <time>2023-06-11T13:13:45Z</time>
      </trkpt>
      <trkpt lat="43.70215" lon="6.02351">
        <ele>368.1</ele>
        <time>2023-06-11T13:13:46Z</time>
      </trkpt>
      <trkpt lat="43.70215" lon="6.02353">
        <ele>368.1</ele>
        <time>2023-06-11T13:13:47Z</time>
      </trkpt>
      <trkpt lat="43.70215" lon="6.02355">
        <ele>368.2</ele>
        <time>2023-06-11T13:13:48Z</time>
      </trkpt>
      <trkpt lat="43.70214" lon="6.02356">
        <ele>368.2</ele>
        <time>2023-06-11T13:13:49Z</time>
      </trkpt>
      <trkpt lat="43.70214" lon="6.02358">
        <ele>368.2</ele>
        <time>2023-06-11T13:13:50Z</time>
      </trkpt>
      <trkpt lat="43.70214" lon="6.0236">
        <ele>368.2</ele>
        <time>2023-06-11T13:13:51Z</time>
      </trkpt>
      <trkpt lat="43.70214" lon="6.02362">
        <ele>368.2</ele>
        <time>2023-06-11T13:13:52Z</time>
      </trkpt>
      <trkpt lat="43.70213" lon="6.02364">
        <ele>368.3</ele>
        <time>2023-06-11T13:13:53Z</time>
      </trkpt>
      <trkpt lat="43.70213" lon="6.02366">
        <ele>368.3</ele>
        <time>2023-06-11T13:13:54Z</time>
      </trkpt>
      <trkpt lat="43.70213" lon="6.02368">
        <ele>368.3</ele>
        <time>2023-06-11T13:13:55Z</time>
      </trkpt>
      <trkpt lat="43.70213" lon="6.0237">
        <ele>368.3</ele>
        <time>2023-06-11T13:13:56Z</time>
      </trkpt>
      <trkpt lat="43.70212" lon="6.02372">
        <ele>368.3</ele>
        <time>2023-06-11T13:13:57Z</time>
      </trkpt>
      <trkpt lat="43.70212" lon="6.02374">
        <ele>368.3</ele>
        <time>2023-06-11T13:13:58Z</time>
      </trkpt>
      <trkpt lat="43.70212" lon="6.02376">
        <ele>368.3</ele>
        <time>2023-06-11T13:13:59Z</time>
      </trkpt>
      <trkpt lat="43.70212" lon="6.02378">
        <ele>368.4</ele>
        <time>2023-06-11T13:14:00Z</time>
      </trkpt>
      <trkpt lat="43.70211" lon="6.0238">
        <ele>368.4</ele>
        <time>2023-06-11T13:14:01Z</time>
      </trkpt>
      <trkpt lat="43.70211" lon="6.02382">
        <ele>368.4</ele>
        <time>2023-06-11T13:14:02Z</time>
      </trkpt>
      <trkpt lat="43.70211" lon="6.02383">
        <ele>368.4</ele>
        <time>2023-06-11T13:14:03Z</time>
      </trkpt>
      <trkpt lat="43.7021" lon="6.02385">
        <ele>368.5</ele>
        <time>2023-06-11T13:14:04Z</time>
      </trkpt>
      <trkpt lat="43.7021" lon="6.02387">
        <ele>368.6</ele>
        <time>2023-06-11T13:14:05Z</time>
      </trkpt>
      <trkpt lat="43.7021" lon="6.02389">
        <ele>368.6</ele>
        <time>2023-06-11T13:14:06Z</time>
      </trkpt>
      <trkpt lat="43.70209" lon="6.02391">
        <ele>368.7</ele>
        <time>2023-06-11T13:14:07Z</time>
      </trkpt>
      <trkpt lat="43.70209" lon="6.02393">
        <ele>368.7</ele>
        <time>2023-06-11T13:14:08Z</time>
      </trkpt>
      <trkpt lat="43.70208" lon="6.02395">
        <ele>368.7</ele>
        <time>2023-06-11T13:14:09Z</time>
      </trkpt>
      <trkpt lat="43.70208" lon="6.02396">
        <ele>368.6</ele>
        <time>2023-06-11T13:14:10Z</time>
      </trkpt>
      <trkpt lat="43.70207" lon="6.02398">
        <ele>368.6</ele>
        <time>2023-06-11T13:14:11Z</time>
      </trkpt>
      <trkpt lat="43.70207" lon="6.024">
        <ele>368.6</ele>
        <time>2023-06-11T13:14:12Z</time>
      </trkpt>
      <trkpt lat="43.70207" lon="6.02402">
        <ele>368.6</ele>
        <time>2023-06-11T13:14:13Z</time>
      </trkpt>
      <trkpt lat="43.70206" lon="6.02403">
        <ele>368.6</ele>
        <time>2023-06-11T13:14:14Z</time>
      </trkpt>
      <trkpt lat="43.70206" lon="6.02405">
        <ele>368.6</ele>
        <time>2023-06-11T13:14:15Z</time>
      </trkpt>
      <trkpt lat="43.70205" lon="6.02407">
        <ele>368.6</ele>
        <time>2023-06-11T13:14:16Z</time>
      </trkpt>
      <trkpt lat="43.70205" lon="6.02409">
        <ele>368.6</ele>
        <time>2023-06-11T13:14:17Z</time>
      </trkpt>
      <trkpt lat="43.70204" lon="6.0241">
        <ele>368.6</ele>
        <time>2023-06-11T13:14:18Z</time>
      </trkpt>
      <trkpt lat="43.70204" lon="6.02412">
        <ele>368.5</ele>
        <time>2023-06-11T13:14:19Z</time>
      </trkpt>
      <trkpt lat="43.70203" lon="6.02414">
        <ele>368.6</ele>
        <time>2023-06-11T13:14:20Z</time>
      </trkpt>
      <trkpt lat="43.70203" lon="6.02415">
        <ele>368.6</ele>
        <time>2023-06-11T13:14:21Z</time>
      </trkpt>
      <trkpt lat="43.70202" lon="6.02417">
        <ele>368.6</ele>
        <time>2023-06-11T13:14:22Z</time>
      </trkpt>
      <trkpt lat="43.70201" lon="6.02418">
        <ele>368.7</ele>
        <time>2023-06-11T13:14:23Z</time>
      </trkpt>
      <trkpt lat="43.702" lon="6.02419">
        <ele>368.9</ele>
        <time>2023-06-11T13:14:24Z</time>
      </trkpt>
      <trkpt lat="43.702" lon="6.0242">
        <ele>368.9</ele>
        <time>2023-06-11T13:14:25Z</time>
      </trkpt>
      <trkpt lat="43.70199" lon="6.02422">
        <ele>369</ele>
        <time>2023-06-11T13:14:26Z</time>
      </trkpt>
      <trkpt lat="43.70198" lon="6.02423">
        <ele>369</ele>
        <time>2023-06-11T13:14:27Z</time>
      </trkpt>
      <trkpt lat="43.70197" lon="6.02424">
        <ele>369</ele>
        <time>2023-06-11T13:14:28Z</time>
      </trkpt>
      <trkpt lat="43.70196" lon="6.02426">
        <ele>369</ele>
        <time>2023-06-11T13:14:29Z</time>
      </trkpt>
      <trkpt lat="43.70196" lon="6.02427">
        <ele>369</ele>
        <time>2023-06-11T13:14:30Z</time>
      </trkpt>
      <trkpt lat="43.70195" lon="6.02428">
        <ele>369.1</ele>
        <time>2023-06-11T13:14:31Z</time>
      </trkpt>
      <trkpt lat="43.70194" lon="6.0243">
        <ele>369</ele>
        <time>2023-06-11T13:14:32Z</time>
      </trkpt>
      <trkpt lat="43.70193" lon="6.02431">
        <ele>369</ele>
        <time>2023-06-11T13:14:33Z</time>
      </trkpt>
      <trkpt lat="43.70191" lon="6.02432">
        <ele>369</ele>
        <time>2023-06-11T13:14:34Z</time>
      </trkpt>
      <trkpt lat="43.70191" lon="6.02434">
        <ele>368.9</ele>
        <time>2023-06-11T13:14:35Z</time>
      </trkpt>
      <trkpt lat="43.7019" lon="6.02435">
        <ele>368.9</ele>
        <time>2023-06-11T13:14:36Z</time>
      </trkpt>
      <trkpt lat="43.70189" lon="6.02436">
        <ele>368.9</ele>
        <time>2023-06-11T13:14:37Z</time>
      </trkpt>
      <trkpt lat="43.70188" lon="6.02438">
        <ele>369</ele>
        <time>2023-06-11T13:14:38Z</time>
      </trkpt>
      <trkpt lat="43.70187" lon="6.02439">
        <ele>369</ele>
        <time>2023-06-11T13:14:39Z</time>
      </trkpt>
      <trkpt lat="43.70187" lon="6.02441">
        <ele>368.9</ele>
        <time>2023-06-11T13:14:40Z</time>
      </trkpt>
      <trkpt lat="43.70186" lon="6.02442">
        <ele>368.9</ele>
        <time>2023-06-11T13:14:41Z</time>
      </trkpt>
      <trkpt lat="43.70185" lon="6.02444">
        <ele>369</ele>
        <time>2023-06-11T13:14:42Z</time>
      </trkpt>
      <trkpt lat="43.70185" lon="6.02446">
        <ele>369</ele>
        <time>2023-06-11T13:14:43Z</time>
      </trkpt>
      <trkpt lat="43.70184" lon="6.02447">
        <ele>369.1</ele>
        <time>2023-06-11T13:14:44Z</time>
      </trkpt>
      <trkpt lat="43.70183" lon="6.02449">
        <ele>369.1</ele>
        <time>2023-06-11T13:14:45Z</time>
      </trkpt>
      <trkpt lat="43.70183" lon="6.0245">
        <ele>369.1</ele>
        <time>2023-06-11T13:14:46Z</time>
      </trkpt>
      <trkpt lat="43.70182" lon="6.02452">
        <ele>369.1</ele>
        <time>2023-06-11T13:14:47Z</time>
      </trkpt>
      <trkpt lat="43.70181" lon="6.02453">
        <ele>369</ele>
        <time>2023-06-11T13:14:48Z</time>
      </trkpt>
      <trkpt lat="43.70181" lon="6.02455">
        <ele>369</ele>
        <time>2023-06-11T13:14:49Z</time>
      </trkpt>
      <trkpt lat="43.7018" lon="6.02456">
        <ele>368.9</ele>
        <time>2023-06-11T13:14:50Z</time>
      </trkpt>
      <trkpt lat="43.70179" lon="6.02458">
        <ele>368.9</ele>
        <time>2023-06-11T13:14:51Z</time>
      </trkpt>
      <trkpt lat="43.70178" lon="6.02459">
        <ele>368.8</ele>
        <time>2023-06-11T13:14:52Z</time>
      </trkpt>
      <trkpt lat="43.70177" lon="6.0246">
        <ele>368.8</ele>
        <time>2023-06-11T13:14:53Z</time>
      </trkpt>
      <trkpt lat="43.70176" lon="6.02462">
        <ele>368.8</ele>
        <time>2023-06-11T13:14:54Z</time>
      </trkpt>
      <trkpt lat="43.70176" lon="6.02463">
        <ele>368.8</ele>
        <time>2023-06-11T13:14:55Z</time>
      </trkpt>
      <trkpt lat="43.70175" lon="6.02465">
        <ele>368.7</ele>
        <time>2023-06-11T13:14:56Z</time>
      </trkpt>
      <trkpt lat="43.70174" lon="6.02466">
        <ele>368.7</ele>
        <time>2023-06-11T13:14:57Z</time>
      </trkpt>
      <trkpt lat="43.70173" lon="6.02468">
        <ele>368.7</ele>
        <time>2023-06-11T13:14:58Z</time>
      </trkpt>
      <trkpt lat="43.70173" lon="6.02469">
        <ele>368.7</ele>
        <time>2023-06-11T13:14:59Z</time>
      </trkpt>
      <trkpt lat="43.70172" lon="6.0247">
        <ele>368.7</ele>
        <time>2023-06-11T13:15:00Z</time>
      </trkpt>
      <trkpt lat="43.70171" lon="6.02472">
        <ele>368.7</ele>
        <time>2023-06-11T13:15:01Z</time>
      </trkpt>
      <trkpt lat="43.7017" lon="6.02473">
        <ele>368.9</ele>
        <time>2023-06-11T13:15:02Z</time>
      </trkpt>
      <trkpt lat="43.70169" lon="6.02475">
        <ele>368.9</ele>
        <time>2023-06-11T13:15:03Z</time>
      </trkpt>
      <trkpt lat="43.70168" lon="6.02476">
        <ele>369</ele>
        <time>2023-06-11T13:15:04Z</time>
      </trkpt>
      <trkpt lat="43.70168" lon="6.02477">
        <ele>369</ele>
        <time>2023-06-11T13:15:05Z</time>
      </trkpt>
      <trkpt lat="43.70167" lon="6.02478">
        <ele>369</ele>
        <time>2023-06-11T13:15:06Z</time>
      </trkpt>
      <trkpt lat="43.70166" lon="6.02479">
        <ele>369</ele>
        <time>2023-06-11T13:15:07Z</time>
      </trkpt>
      <trkpt lat="43.70166" lon="6.0248">
        <ele>369</ele>
        <time>2023-06-11T13:15:08Z</time>
      </trkpt>
      <trkpt lat="43.70165" lon="6.02481">
        <ele>369.1</ele>
        <time>2023-06-11T13:15:09Z</time>
      </trkpt>
      <trkpt lat="43.70164" lon="6.02481">
        <ele>369.2</ele>
        <time>2023-06-11T13:15:10Z</time>
      </trkpt>
      <trkpt lat="43.70164" lon="6.02483">
        <ele>369.3</ele>
        <time>2023-06-11T13:15:11Z</time>
      </trkpt>
      <trkpt lat="43.70163" lon="6.02484">
        <ele>369.3</ele>
        <time>2023-06-11T13:15:12Z</time>
      </trkpt>
      <trkpt lat="43.70162" lon="6.02485">
        <ele>369.3</ele>
        <time>2023-06-11T13:15:13Z</time>
      </trkpt>
      <trkpt lat="43.70161" lon="6.02486">
        <ele>369.3</ele>
        <time>2023-06-11T13:15:14Z</time>
      </trkpt>
      <trkpt lat="43.7016" lon="6.02487">
        <ele>369.3</ele>
        <time>2023-06-11T13:15:15Z</time>
      </trkpt>
      <trkpt lat="43.7016" lon="6.02488">
        <ele>369.2</ele>
        <time>2023-06-11T13:15:16Z</time>
      </trkpt>
      <trkpt lat="43.70159" lon="6.0249">
        <ele>369.1</ele>
        <time>2023-06-11T13:15:17Z</time>
      </trkpt>
      <trkpt lat="43.70158" lon="6.02491">
        <ele>369</ele>
        <time>2023-06-11T13:15:18Z</time>
      </trkpt>
      <trkpt lat="43.70157" lon="6.02493">
        <ele>369</ele>
        <time>2023-06-11T13:15:19Z</time>
      </trkpt>
      <trkpt lat="43.70156" lon="6.02494">
        <ele>369</ele>
        <time>2023-06-11T13:15:20Z</time>
      </trkpt>
      <trkpt lat="43.70155" lon="6.02495">
        <ele>369</ele>
        <time>2023-06-11T13:15:21Z</time>
      </trkpt>
      <trkpt lat="43.70155" lon="6.02496">
        <ele>369</ele>
        <time>2023-06-11T13:15:22Z</time>
      </trkpt>
      <trkpt lat="43.70154" lon="6.02498">
        <ele>369.1</ele>
        <time>2023-06-11T13:15:23Z</time>
      </trkpt>
      <trkpt lat="43.70153" lon="6.02499">
        <ele>369</ele>
        <time>2023-06-11T13:15:24Z</time>
      </trkpt>
      <trkpt lat="43.70151" lon="6.025">
        <ele>368.9</ele>
        <time>2023-06-11T13:15:25Z</time>
      </trkpt>
      <trkpt lat="43.7015" lon="6.02501">
        <ele>368.9</ele>
        <time>2023-06-11T13:15:26Z</time>
      </trkpt>
      <trkpt lat="43.70149" lon="6.02502">
        <ele>368.9</ele>
        <time>2023-06-11T13:15:27Z</time>
      </trkpt>
      <trkpt lat="43.70148" lon="6.02503">
        <ele>368.9</ele>
        <time>2023-06-11T13:15:28Z</time>
      </trkpt>
      <trkpt lat="43.70146" lon="6.02503">
        <ele>368.9</ele>
        <time>2023-06-11T13:15:29Z</time>
      </trkpt>
      <trkpt lat="43.70145" lon="6.02504">
        <ele>368.9</ele>
        <time>2023-06-11T13:15:30Z</time>
      </trkpt>
      <trkpt lat="43.70144" lon="6.02505">
        <ele>369</ele>
        <time>2023-06-11T13:15:31Z</time>
      </trkpt>
      <trkpt lat="43.70142" lon="6.02505">
        <ele>369</ele>
        <time>2023-06-11T13:15:32Z</time>
      </trkpt>
      <trkpt lat="43.70141" lon="6.02506">
        <ele>368.9</ele>
        <time>2023-06-11T13:15:33Z</time>
      </trkpt>
      <trkpt lat="43.70139" lon="6.02507">
        <ele>368.9</ele>
        <time>2023-06-11T13:15:34Z</time>
      </trkpt>
      <trkpt lat="43.70138" lon="6.02507">
        <ele>368.9</ele>
        <time>2023-06-11T13:15:35Z</time>
      </trkpt>
      <trkpt lat="43.70137" lon="6.02508">
        <ele>368.9</ele>
        <time>2023-06-11T13:15:36Z</time>
      </trkpt>
      <trkpt lat="43.70135" lon="6.02508">
        <ele>368.9</ele>
        <time>2023-06-11T13:15:37Z</time>
      </trkpt>
      <trkpt lat="43.70134" lon="6.02509">
        <ele>368.9</ele>
        <time>2023-06-11T13:15:38Z</time>
      </trkpt>
      <trkpt lat="43.70132" lon="6.02509">
        <ele>368.9</ele>
        <time>2023-06-11T13:15:39Z</time>
      </trkpt>
      <trkpt lat="43.70131" lon="6.02509">
        <ele>368.9</ele>
        <time>2023-06-11T13:15:40Z</time>
      </trkpt>
      <trkpt lat="43.70129" lon="6.0251">
        <ele>368.9</ele>
        <time>2023-06-11T13:15:41Z</time>
      </trkpt>
      <trkpt lat="43.70128" lon="6.0251">
        <ele>368.9</ele>
        <time>2023-06-11T13:15:42Z</time>
      </trkpt>
      <trkpt lat="43.70126" lon="6.02511">
        <ele>368.9</ele>
        <time>2023-06-11T13:15:43Z</time>
      </trkpt>
      <trkpt lat="43.70125" lon="6.02511">
        <ele>368.9</ele>
        <time>2023-06-11T13:15:44Z</time>
      </trkpt>
      <trkpt lat="43.70124" lon="6.02511">
        <ele>368.8</ele>
        <time>2023-06-11T13:15:45Z</time>
      </trkpt>
      <trkpt lat="43.70122" lon="6.02512">
        <ele>368.7</ele>
        <time>2023-06-11T13:15:46Z</time>
      </trkpt>
      <trkpt lat="43.70121" lon="6.02512">
        <ele>368.8</ele>
        <time>2023-06-11T13:15:47Z</time>
      </trkpt>
      <trkpt lat="43.7012" lon="6.02512">
        <ele>368.8</ele>
        <time>2023-06-11T13:15:48Z</time>
      </trkpt>
      <trkpt lat="43.70118" lon="6.02513">
        <ele>368.8</ele>
        <time>2023-06-11T13:15:49Z</time>
      </trkpt>
      <trkpt lat="43.70116" lon="6.02513">
        <ele>368.9</ele>
        <time>2023-06-11T13:15:50Z</time>
      </trkpt>
      <trkpt lat="43.70115" lon="6.02513">
        <ele>368.9</ele>
        <time>2023-06-11T13:15:51Z</time>
      </trkpt>
      <trkpt lat="43.70113" lon="6.02513">
        <ele>368.9</ele>
        <time>2023-06-11T13:15:52Z</time>
      </trkpt>
      <trkpt lat="43.70112" lon="6.02513">
        <ele>369</ele>
        <time>2023-06-11T13:15:53Z</time>
      </trkpt>
      <trkpt lat="43.7011" lon="6.02513">
        <ele>368.9</ele>
        <time>2023-06-11T13:15:54Z</time>
      </trkpt>
      <trkpt lat="43.70109" lon="6.02513">
        <ele>368.9</ele>
        <time>2023-06-11T13:15:55Z</time>
      </trkpt>
      <trkpt lat="43.70107" lon="6.02514">
        <ele>368.8</ele>
        <time>2023-06-11T13:15:56Z</time>
      </trkpt>
      <trkpt lat="43.70106" lon="6.02514">
        <ele>368.8</ele>
        <time>2023-06-11T13:15:57Z</time>
      </trkpt>
      <trkpt lat="43.70104" lon="6.02514">
        <ele>368.8</ele>
        <time>2023-06-11T13:15:58Z</time>
      </trkpt>
      <trkpt lat="43.70103" lon="6.02514">
        <ele>368.8</ele>
        <time>2023-06-11T13:15:59Z</time>
      </trkpt>
      <trkpt lat="43.70101" lon="6.02514">
        <ele>368.8</ele>
        <time>2023-06-11T13:16:00Z</time>
      </trkpt>
      <trkpt lat="43.70099" lon="6.02514">
        <ele>368.7</ele>
        <time>2023-06-11T13:16:01Z</time>
      </trkpt>
      <trkpt lat="43.70098" lon="6.02514">
        <ele>368.7</ele>
        <time>2023-06-11T13:16:02Z</time>
      </trkpt>
      <trkpt lat="43.70096" lon="6.02515">
        <ele>368.7</ele>
        <time>2023-06-11T13:16:03Z</time>
      </trkpt>
      <trkpt lat="43.70095" lon="6.02515">
        <ele>368.7</ele>
        <time>2023-06-11T13:16:04Z</time>
      </trkpt>
      <trkpt lat="43.70093" lon="6.02515">
        <ele>368.8</ele>
        <time>2023-06-11T13:16:05Z</time>
      </trkpt>
      <trkpt lat="43.70092" lon="6.02515">
        <ele>368.9</ele>
        <time>2023-06-11T13:16:06Z</time>
      </trkpt>
      <trkpt lat="43.7009" lon="6.02515">
        <ele>368.9</ele>
        <time>2023-06-11T13:16:07Z</time>
      </trkpt>
      <trkpt lat="43.70089" lon="6.02515">
        <ele>368.9</ele>
        <time>2023-06-11T13:16:08Z</time>
      </trkpt>
      <trkpt lat="43.70088" lon="6.02516">
        <ele>368.9</ele>
        <time>2023-06-11T13:16:09Z</time>
      </trkpt>
      <trkpt lat="43.70086" lon="6.02516">
        <ele>368.8</ele>
        <time>2023-06-11T13:16:10Z</time>
      </trkpt>
      <trkpt lat="43.70085" lon="6.02516">
        <ele>368.8</ele>
        <time>2023-06-11T13:16:11Z</time>
      </trkpt>
      <trkpt lat="43.70084" lon="6.02516">
        <ele>368.7</ele>
        <time>2023-06-11T13:16:12Z</time>
      </trkpt>
      <trkpt lat="43.70082" lon="6.02517">
        <ele>368.6</ele>
        <time>2023-06-11T13:16:13Z</time>
      </trkpt>
      <trkpt lat="43.70081" lon="6.02517">
        <ele>368.6</ele>
        <time>2023-06-11T13:16:14Z</time>
      </trkpt>
      <trkpt lat="43.70079" lon="6.02517">
        <ele>368.5</ele>
        <time>2023-06-11T13:16:15Z</time>
      </trkpt>
      <trkpt lat="43.70078" lon="6.02517">
        <ele>368.5</ele>
        <time>2023-06-11T13:16:16Z</time>
      </trkpt>
      <trkpt lat="43.70076" lon="6.02517">
        <ele>368.6</ele>
        <time>2023-06-11T13:16:17Z</time>
      </trkpt>
      <trkpt lat="43.70076" lon="6.02518">
        <ele>368.6</ele>
        <time>2023-06-11T13:16:18Z</time>
      </trkpt>
      <trkpt lat="43.70075" lon="6.02519">
        <ele>368.6</ele>
        <time>2023-06-11T13:16:19Z</time>
      </trkpt>
      <trkpt lat="43.70074" lon="6.0252">
        <ele>368.6</ele>
        <time>2023-06-11T13:16:20Z</time>
      </trkpt>
      <trkpt lat="43.70073" lon="6.02521">
        <ele>368.6</ele>
        <time>2023-06-11T13:16:21Z</time>
      </trkpt>
      <trkpt lat="43.70072" lon="6.02521">
        <ele>368.5</ele>
        <time>2023-06-11T13:16:22Z</time>
      </trkpt>
      <trkpt lat="43.70071" lon="6.02522">
        <ele>368.5</ele>
        <time>2023-06-11T13:16:23Z</time>
      </trkpt>
      <trkpt lat="43.7007" lon="6.02523">
        <ele>368.6</ele>
        <time>2023-06-11T13:16:24Z</time>
      </trkpt>
      <trkpt lat="43.70068" lon="6.02523">
        <ele>368.6</ele>
        <time>2023-06-11T13:16:25Z</time>
      </trkpt>
      <trkpt lat="43.70067" lon="6.02524">
        <ele>368.7</ele>
        <time>2023-06-11T13:16:26Z</time>
      </trkpt>
      <trkpt lat="43.70066" lon="6.02524">
        <ele>368.7</ele>
        <time>2023-06-11T13:16:27Z</time>
      </trkpt>
      <trkpt lat="43.70065" lon="6.02525">
        <ele>368.7</ele>
        <time>2023-06-11T13:16:28Z</time>
      </trkpt>
      <trkpt lat="43.70065" lon="6.02526">
        <ele>368.7</ele>
        <time>2023-06-11T13:16:29Z</time>
      </trkpt>
      <trkpt lat="43.70063" lon="6.02527">
        <ele>368.7</ele>
        <time>2023-06-11T13:16:30Z</time>
      </trkpt>
      <trkpt lat="43.70062" lon="6.02528">
        <ele>368.6</ele>
        <time>2023-06-11T13:16:31Z</time>
      </trkpt>
      <trkpt lat="43.70061" lon="6.02529">
        <ele>368.6</ele>
        <time>2023-06-11T13:16:32Z</time>
      </trkpt>
      <trkpt lat="43.7006" lon="6.02529">
        <ele>368.6</ele>
        <time>2023-06-11T13:16:33Z</time>
      </trkpt>
      <trkpt lat="43.70059" lon="6.0253">
        <ele>368.6</ele>
        <time>2023-06-11T13:16:34Z</time>
      </trkpt>
      <trkpt lat="43.70058" lon="6.02531">
        <ele>368.7</ele>
        <time>2023-06-11T13:16:35Z</time>
      </trkpt>
      <trkpt lat="43.70056" lon="6.02532">
        <ele>368.7</ele>
        <time>2023-06-11T13:16:36Z</time>
      </trkpt>
      <trkpt lat="43.70055" lon="6.02532">
        <ele>368.8</ele>
        <time>2023-06-11T13:16:37Z</time>
      </trkpt>
      <trkpt lat="43.70054" lon="6.02533">
        <ele>368.8</ele>
        <time>2023-06-11T13:16:38Z</time>
      </trkpt>
      <trkpt lat="43.70053" lon="6.02533">
        <ele>368.8</ele>
        <time>2023-06-11T13:16:39Z</time>
      </trkpt>
      <trkpt lat="43.70052" lon="6.02534">
        <ele>368.9</ele>
        <time>2023-06-11T13:16:40Z</time>
      </trkpt>
      <trkpt lat="43.70051" lon="6.02535">
        <ele>368.9</ele>
        <time>2023-06-11T13:16:41Z</time>
      </trkpt>
      <trkpt lat="43.7005" lon="6.02536">
        <ele>368.9</ele>
        <time>2023-06-11T13:16:42Z</time>
      </trkpt>
      <trkpt lat="43.70049" lon="6.02536">
        <ele>368.9</ele>
        <time>2023-06-11T13:16:43Z</time>
      </trkpt>
      <trkpt lat="43.70048" lon="6.02537">
        <ele>368.9</ele>
        <time>2023-06-11T13:16:44Z</time>
      </trkpt>
      <trkpt lat="43.70047" lon="6.02537">
        <ele>369</ele>
        <time>2023-06-11T13:16:45Z</time>
      </trkpt>
      <trkpt lat="43.70046" lon="6.02538">
        <ele>369</ele>
        <time>2023-06-11T13:16:46Z</time>
      </trkpt>
      <trkpt lat="43.70044" lon="6.02538">
        <ele>369</ele>
        <time>2023-06-11T13:16:47Z</time>
      </trkpt>
      <trkpt lat="43.70043" lon="6.02538">
        <ele>369</ele>
        <time>2023-06-11T13:16:48Z</time>
      </trkpt>
      <trkpt lat="43.70042" lon="6.02538">
        <ele>369</ele>
        <time>2023-06-11T13:16:49Z</time>
      </trkpt>
      <trkpt lat="43.70041" lon="6.02539">
        <ele>368.9</ele>
        <time>2023-06-11T13:16:50Z</time>
      </trkpt>
      <trkpt lat="43.7004" lon="6.02539">
        <ele>368.9</ele>
        <time>2023-06-11T13:16:51Z</time>
      </trkpt>
      <trkpt lat="43.70039" lon="6.02539">
        <ele>368.9</ele>
        <time>2023-06-11T13:16:52Z</time>
      </trkpt>
      <trkpt lat="43.70038" lon="6.0254">
        <ele>368.9</ele>
        <time>2023-06-11T13:16:53Z</time>
      </trkpt>
      <trkpt lat="43.70037" lon="6.0254">
        <ele>368.6</ele>
        <time>2023-06-11T13:16:54Z</time>
      </trkpt>
      <trkpt lat="43.70035" lon="6.0254">
        <ele>368.7</ele>
        <time>2023-06-11T13:16:55Z</time>
      </trkpt>
      <trkpt lat="43.70034" lon="6.0254">
        <ele>368.6</ele>
        <time>2023-06-11T13:16:56Z</time>
      </trkpt>
      <trkpt lat="43.70032" lon="6.0254">
        <ele>368.6</ele>
        <time>2023-06-11T13:16:57Z</time>
      </trkpt>
      <trkpt lat="43.70031" lon="6.0254">
        <ele>368.6</ele>
        <time>2023-06-11T13:16:58Z</time>
      </trkpt>
      <trkpt lat="43.70029" lon="6.0254">
        <ele>368.7</ele>
        <time>2023-06-11T13:16:59Z</time>
      </trkpt>
      <trkpt lat="43.70028" lon="6.0254">
        <ele>368.7</ele>
        <time>2023-06-11T13:17:00Z</time>
      </trkpt>
      <trkpt lat="43.70026" lon="6.02539">
        <ele>368.7</ele>
        <time>2023-06-11T13:17:01Z</time>
      </trkpt>
      <trkpt lat="43.70025" lon="6.0254">
        <ele>368.7</ele>
        <time>2023-06-11T13:17:02Z</time>
      </trkpt>
      <trkpt lat="43.70023" lon="6.0254">
        <ele>368.7</ele>
        <time>2023-06-11T13:17:03Z</time>
      </trkpt>
      <trkpt lat="43.70022" lon="6.0254">
        <ele>368.5</ele>
        <time>2023-06-11T13:17:04Z</time>
      </trkpt>
      <trkpt lat="43.70021" lon="6.02539">
        <ele>368.5</ele>
        <time>2023-06-11T13:17:05Z</time>
      </trkpt>
      <trkpt lat="43.70019" lon="6.02539">
        <ele>368.5</ele>
        <time>2023-06-11T13:17:06Z</time>
      </trkpt>
      <trkpt lat="43.70018" lon="6.02539">
        <ele>368.5</ele>
        <time>2023-06-11T13:17:07Z</time>
      </trkpt>
      <trkpt lat="43.70016" lon="6.02539">
        <ele>368.5</ele>
        <time>2023-06-11T13:17:08Z</time>
      </trkpt>
      <trkpt lat="43.70015" lon="6.02539">
        <ele>368.6</ele>
        <time>2023-06-11T13:17:09Z</time>
      </trkpt>
      <trkpt lat="43.70013" lon="6.02539">
        <ele>368.6</ele>
        <time>2023-06-11T13:17:10Z</time>
      </trkpt>
      <trkpt lat="43.70012" lon="6.02539">
        <ele>368.6</ele>
        <time>2023-06-11T13:17:11Z</time>
      </trkpt>
      <trkpt lat="43.70011" lon="6.02539">
        <ele>368.6</ele>
        <time>2023-06-11T13:17:12Z</time>
      </trkpt>
      <trkpt lat="43.70009" lon="6.02539">
        <ele>368.6</ele>
        <time>2023-06-11T13:17:13Z</time>
      </trkpt>
      <trkpt lat="43.70007" lon="6.0254">
        <ele>368.6</ele>
        <time>2023-06-11T13:17:14Z</time>
      </trkpt>
      <trkpt lat="43.70006" lon="6.0254">
        <ele>368.7</ele>
        <time>2023-06-11T13:17:15Z</time>
      </trkpt>
      <trkpt lat="43.70004" lon="6.0254">
        <ele>368.7</ele>
        <time>2023-06-11T13:17:16Z</time>
      </trkpt>
      <trkpt lat="43.70003" lon="6.0254">
        <ele>368.6</ele>
        <time>2023-06-11T13:17:17Z</time>
      </trkpt>
      <trkpt lat="43.70001" lon="6.02541">
        <ele>368.6</ele>
        <time>2023-06-11T13:17:18Z</time>
      </trkpt>
      <trkpt lat="43.7" lon="6.02541">
        <ele>368.5</ele>
        <time>2023-06-11T13:17:19Z</time>
      </trkpt>
      <trkpt lat="43.69999" lon="6.02542">
        <ele>368.5</ele>
        <time>2023-06-11T13:17:20Z</time>
      </trkpt>
      <trkpt lat="43.69997" lon="6.02542">
        <ele>368.5</ele>
        <time>2023-06-11T13:17:21Z</time>
      </trkpt>
      <trkpt lat="43.69996" lon="6.02542">
        <ele>368.6</ele>
        <time>2023-06-11T13:17:22Z</time>
      </trkpt>
      <trkpt lat="43.69995" lon="6.02542">
        <ele>368.4</ele>
        <time>2023-06-11T13:17:23Z</time>
      </trkpt>
      <trkpt lat="43.69993" lon="6.02542">
        <ele>368.5</ele>
        <time>2023-06-11T13:17:24Z</time>
      </trkpt>
      <trkpt lat="43.69992" lon="6.02542">
        <ele>368.7</ele>
        <time>2023-06-11T13:17:25Z</time>
      </trkpt>
      <trkpt lat="43.69991" lon="6.02542">
        <ele>368.2</ele>
        <time>2023-06-11T13:17:26Z</time>
      </trkpt>
      <trkpt lat="43.69989" lon="6.02542">
        <ele>368.3</ele>
        <time>2023-06-11T13:17:27Z</time>
      </trkpt>
      <trkpt lat="43.69989" lon="6.02543">
        <ele>368.4</ele>
        <time>2023-06-11T13:17:28Z</time>
      </trkpt>
      <trkpt lat="43.69987" lon="6.02543">
        <ele>368.5</ele>
        <time>2023-06-11T13:17:29Z</time>
      </trkpt>
      <trkpt lat="43.69986" lon="6.02543">
        <ele>368.6</ele>
        <time>2023-06-11T13:17:30Z</time>
      </trkpt>
      <trkpt lat="43.69985" lon="6.02543">
        <ele>368.7</ele>
        <time>2023-06-11T13:17:31Z</time>
      </trkpt>
      <trkpt lat="43.69984" lon="6.02543">
        <ele>368.8</ele>
        <time>2023-06-11T13:17:32Z</time>
      </trkpt>
      <trkpt lat="43.69983" lon="6.02543">
        <ele>368.8</ele>
        <time>2023-06-11T13:17:33Z</time>
      </trkpt>
      <trkpt lat="43.69981" lon="6.02543">
        <ele>368.9</ele>
        <time>2023-06-11T13:17:34Z</time>
      </trkpt>
      <trkpt lat="43.6998" lon="6.02543">
        <ele>368.9</ele>
        <time>2023-06-11T13:17:35Z</time>
      </trkpt>
      <trkpt lat="43.69979" lon="6.02543">
        <ele>368.9</ele>
        <time>2023-06-11T13:17:36Z</time>
      </trkpt>
      <trkpt lat="43.69978" lon="6.02543">
        <ele>368.9</ele>
        <time>2023-06-11T13:17:37Z</time>
      </trkpt>
      <trkpt lat="43.69976" lon="6.02544">
        <ele>368.8</ele>
        <time>2023-06-11T13:17:38Z</time>
      </trkpt>
      <trkpt lat="43.69975" lon="6.02544">
        <ele>368.8</ele>
        <time>2023-06-11T13:17:39Z</time>
      </trkpt>
      <trkpt lat="43.69974" lon="6.02544">
        <ele>368.9</ele>
        <time>2023-06-11T13:17:40Z</time>
      </trkpt>
      <trkpt lat="43.69973" lon="6.02544">
        <ele>368.9</ele>
        <time>2023-06-11T13:17:41Z</time>
      </trkpt>
      <trkpt lat="43.69971" lon="6.02544">
        <ele>368.8</ele>
        <time>2023-06-11T13:17:42Z</time>
      </trkpt>
      <trkpt lat="43.6997" lon="6.02544">
        <ele>368.8</ele>
        <time>2023-06-11T13:17:43Z</time>
      </trkpt>
      <trkpt lat="43.69969" lon="6.02544">
        <ele>368.8</ele>
        <time>2023-06-11T13:17:44Z</time>
      </trkpt>
      <trkpt lat="43.69967" lon="6.02544">
        <ele>368.9</ele>
        <time>2023-06-11T13:17:45Z</time>
      </trkpt>
      <trkpt lat="43.69966" lon="6.02545">
        <ele>368.9</ele>
        <time>2023-06-11T13:17:46Z</time>
      </trkpt>
      <trkpt lat="43.69965" lon="6.02545">
        <ele>369</ele>
        <time>2023-06-11T13:17:47Z</time>
      </trkpt>
      <trkpt lat="43.69964" lon="6.02545">
        <ele>369</ele>
        <time>2023-06-11T13:17:48Z</time>
      </trkpt>
      <trkpt lat="43.69962" lon="6.02546">
        <ele>369</ele>
        <time>2023-06-11T13:17:49Z</time>
      </trkpt>
      <trkpt lat="43.69961" lon="6.02546">
        <ele>369</ele>
        <time>2023-06-11T13:17:50Z</time>
      </trkpt>
      <trkpt lat="43.6996" lon="6.02546">
        <ele>369</ele>
        <time>2023-06-11T13:17:51Z</time>
      </trkpt>
      <trkpt lat="43.69959" lon="6.02547">
        <ele>369</ele>
        <time>2023-06-11T13:17:52Z</time>
      </trkpt>
      <trkpt lat="43.69957" lon="6.02547">
        <ele>369</ele>
        <time>2023-06-11T13:17:53Z</time>
      </trkpt>
      <trkpt lat="43.69956" lon="6.02548">
        <ele>369</ele>
        <time>2023-06-11T13:17:54Z</time>
      </trkpt>
      <trkpt lat="43.69955" lon="6.02548">
        <ele>369.1</ele>
        <time>2023-06-11T13:17:55Z</time>
      </trkpt>
      <trkpt lat="43.69954" lon="6.02549">
        <ele>369.1</ele>
        <time>2023-06-11T13:17:56Z</time>
      </trkpt>
      <trkpt lat="43.69952" lon="6.02549">
        <ele>369.1</ele>
        <time>2023-06-11T13:17:57Z</time>
      </trkpt>
      <trkpt lat="43.69951" lon="6.0255">
        <ele>369.2</ele>
        <time>2023-06-11T13:17:58Z</time>
      </trkpt>
      <trkpt lat="43.6995" lon="6.02551">
        <ele>369.2</ele>
        <time>2023-06-11T13:17:59Z</time>
      </trkpt>
      <trkpt lat="43.69948" lon="6.02551">
        <ele>369.2</ele>
        <time>2023-06-11T13:18:00Z</time>
      </trkpt>
      <trkpt lat="43.69947" lon="6.02552">
        <ele>369.1</ele>
        <time>2023-06-11T13:18:01Z</time>
      </trkpt>
      <trkpt lat="43.69946" lon="6.02552">
        <ele>369.1</ele>
        <time>2023-06-11T13:18:02Z</time>
      </trkpt>
      <trkpt lat="43.69945" lon="6.02553">
        <ele>369.1</ele>
        <time>2023-06-11T13:18:03Z</time>
      </trkpt>
      <trkpt lat="43.69943" lon="6.02554">
        <ele>369.1</ele>
        <time>2023-06-11T13:18:04Z</time>
      </trkpt>
      <trkpt lat="43.69942" lon="6.02554">
        <ele>369.1</ele>
        <time>2023-06-11T13:18:05Z</time>
      </trkpt>
      <trkpt lat="43.69941" lon="6.02555">
        <ele>369.1</ele>
        <time>2023-06-11T13:18:06Z</time>
      </trkpt>
      <trkpt lat="43.6994" lon="6.02556">
        <ele>369.2</ele>
        <time>2023-06-11T13:18:07Z</time>
      </trkpt>
      <trkpt lat="43.69938" lon="6.02556">
        <ele>369.2</ele>
        <time>2023-06-11T13:18:08Z</time>
      </trkpt>
      <trkpt lat="43.69937" lon="6.02557">
        <ele>369.1</ele>
        <time>2023-06-11T13:18:09Z</time>
      </trkpt>
      <trkpt lat="43.69936" lon="6.02558">
        <ele>369</ele>
        <time>2023-06-11T13:18:10Z</time>
      </trkpt>
      <trkpt lat="43.69935" lon="6.02559">
        <ele>368.8</ele>
        <time>2023-06-11T13:18:11Z</time>
      </trkpt>
      <trkpt lat="43.69934" lon="6.02559">
        <ele>368.7</ele>
        <time>2023-06-11T13:18:12Z</time>
      </trkpt>
      <trkpt lat="43.69933" lon="6.0256">
        <ele>368.6</ele>
        <time>2023-06-11T13:18:13Z</time>
      </trkpt>
      <trkpt lat="43.69931" lon="6.02561">
        <ele>368.7</ele>
        <time>2023-06-11T13:18:14Z</time>
      </trkpt>
      <trkpt lat="43.6993" lon="6.02562">
        <ele>368.7</ele>
        <time>2023-06-11T13:18:15Z</time>
      </trkpt>
      <trkpt lat="43.69929" lon="6.02563">
        <ele>368.7</ele>
        <time>2023-06-11T13:18:16Z</time>
      </trkpt>
      <trkpt lat="43.69928" lon="6.02564">
        <ele>368.7</ele>
        <time>2023-06-11T13:18:17Z</time>
      </trkpt>
      <trkpt lat="43.69927" lon="6.02565">
        <ele>368.8</ele>
        <time>2023-06-11T13:18:18Z</time>
      </trkpt>
      <trkpt lat="43.69926" lon="6.02567">
        <ele>368.8</ele>
        <time>2023-06-11T13:18:19Z</time>
      </trkpt>
      <trkpt lat="43.69925" lon="6.02568">
        <ele>368.9</ele>
        <time>2023-06-11T13:18:20Z</time>
      </trkpt>
      <trkpt lat="43.69924" lon="6.02569">
        <ele>368.9</ele>
        <time>2023-06-11T13:18:21Z</time>
      </trkpt>
      <trkpt lat="43.69923" lon="6.0257">
        <ele>368.9</ele>
        <time>2023-06-11T13:18:22Z</time>
      </trkpt>
      <trkpt lat="43.69922" lon="6.02571">
        <ele>368.9</ele>
        <time>2023-06-11T13:18:23Z</time>
      </trkpt>
      <trkpt lat="43.69921" lon="6.02572">
        <ele>368.9</ele>
        <time>2023-06-11T13:18:24Z</time>
      </trkpt>
      <trkpt lat="43.6992" lon="6.02573">
        <ele>368.8</ele>
        <time>2023-06-11T13:18:25Z</time>
      </trkpt>
      <trkpt lat="43.69919" lon="6.02573">
        <ele>368.7</ele>
        <time>2023-06-11T13:18:26Z</time>
      </trkpt>
      <trkpt lat="43.69918" lon="6.02574">
        <ele>368.8</ele>
        <time>2023-06-11T13:18:27Z</time>
      </trkpt>
      <trkpt lat="43.69916" lon="6.02575">
        <ele>368.8</ele>
        <time>2023-06-11T13:18:28Z</time>
      </trkpt>
      <trkpt lat="43.69916" lon="6.02575">
        <ele>368.8</ele>
        <time>2023-06-11T13:18:29Z</time>
      </trkpt>
      <trkpt lat="43.69915" lon="6.02576">
        <ele>368.9</ele>
        <time>2023-06-11T13:18:30Z</time>
      </trkpt>
      <trkpt lat="43.69914" lon="6.02577">
        <ele>368.9</ele>
        <time>2023-06-11T13:18:31Z</time>
      </trkpt>
      <trkpt lat="43.69913" lon="6.02578">
        <ele>368.9</ele>
        <time>2023-06-11T13:18:32Z</time>
      </trkpt>
      <trkpt lat="43.69911" lon="6.02578">
        <ele>368.9</ele>
        <time>2023-06-11T13:18:33Z</time>
      </trkpt>
      <trkpt lat="43.6991" lon="6.02579">
        <ele>368.8</ele>
        <time>2023-06-11T13:18:34Z</time>
      </trkpt>
      <trkpt lat="43.69909" lon="6.02579">
        <ele>368.6</ele>
        <time>2023-06-11T13:18:35Z</time>
      </trkpt>
      <trkpt lat="43.69908" lon="6.0258">
        <ele>368.5</ele>
        <time>2023-06-11T13:18:36Z</time>
      </trkpt>
      <trkpt lat="43.69907" lon="6.0258">
        <ele>368.5</ele>
        <time>2023-06-11T13:18:37Z</time>
      </trkpt>
      <trkpt lat="43.69905" lon="6.02581">
        <ele>368.4</ele>
        <time>2023-06-11T13:18:38Z</time>
      </trkpt>
      <trkpt lat="43.69904" lon="6.02582">
        <ele>368.4</ele>
        <time>2023-06-11T13:18:39Z</time>
      </trkpt>
      <trkpt lat="43.69903" lon="6.02582">
        <ele>368.4</ele>
        <time>2023-06-11T13:18:40Z</time>
      </trkpt>
      <trkpt lat="43.69902" lon="6.02583">
        <ele>368.4</ele>
        <time>2023-06-11T13:18:41Z</time>
      </trkpt>
      <trkpt lat="43.69901" lon="6.02583">
        <ele>368.3</ele>
        <time>2023-06-11T13:18:42Z</time>
      </trkpt>
      <trkpt lat="43.699" lon="6.02584">
        <ele>368.4</ele>
        <time>2023-06-11T13:18:43Z</time>
      </trkpt>
      <trkpt lat="43.69898" lon="6.02584">
        <ele>368.5</ele>
        <time>2023-06-11T13:18:44Z</time>
      </trkpt>
      <trkpt lat="43.69897" lon="6.02585">
        <ele>368.5</ele>
        <time>2023-06-11T13:18:45Z</time>
      </trkpt>
      <trkpt lat="43.69896" lon="6.02585">
        <ele>368.4</ele>
        <time>2023-06-11T13:18:46Z</time>
      </trkpt>
      <trkpt lat="43.69895" lon="6.02586">
        <ele>368.4</ele>
        <time>2023-06-11T13:18:47Z</time>
      </trkpt>
      <trkpt lat="43.69894" lon="6.02587">
        <ele>368.4</ele>
        <time>2023-06-11T13:18:48Z</time>
      </trkpt>
      <trkpt lat="43.69892" lon="6.02587">
        <ele>368.4</ele>
        <time>2023-06-11T13:18:49Z</time>
      </trkpt>
      <trkpt lat="43.69891" lon="6.02588">
        <ele>368.4</ele>
        <time>2023-06-11T13:18:50Z</time>
      </trkpt>
      <trkpt lat="43.6989" lon="6.02588">
        <ele>368.5</ele>
        <time>2023-06-11T13:18:51Z</time>
      </trkpt>
      <trkpt lat="43.69888" lon="6.02589">
        <ele>368.4</ele>
        <time>2023-06-11T13:18:52Z</time>
      </trkpt>
      <trkpt lat="43.69887" lon="6.02589">
        <ele>368.4</ele>
        <time>2023-06-11T13:18:53Z</time>
      </trkpt>
      <trkpt lat="43.69886" lon="6.02589">
        <ele>368.3</ele>
        <time>2023-06-11T13:18:54Z</time>
      </trkpt>
      <trkpt lat="43.69885" lon="6.0259">
        <ele>368.4</ele>
        <time>2023-06-11T13:18:55Z</time>
      </trkpt>
      <trkpt lat="43.69883" lon="6.0259">
        <ele>368.4</ele>
        <time>2023-06-11T13:18:56Z</time>
      </trkpt>
      <trkpt lat="43.69882" lon="6.0259">
        <ele>368.4</ele>
        <time>2023-06-11T13:18:57Z</time>
      </trkpt>
      <trkpt lat="43.69881" lon="6.02591">
        <ele>368.5</ele>
        <time>2023-06-11T13:18:58Z</time>
      </trkpt>
      <trkpt lat="43.6988" lon="6.02591">
        <ele>368.5</ele>
        <time>2023-06-11T13:18:59Z</time>
      </trkpt>
      <trkpt lat="43.69878" lon="6.02591">
        <ele>368.6</ele>
        <time>2023-06-11T13:19:00Z</time>
      </trkpt>
      <trkpt lat="43.69877" lon="6.02592">
        <ele>368.7</ele>
        <time>2023-06-11T13:19:01Z</time>
      </trkpt>
      <trkpt lat="43.69876" lon="6.02592">
        <ele>368.6</ele>
        <time>2023-06-11T13:19:02Z</time>
      </trkpt>
      <trkpt lat="43.69875" lon="6.02592">
        <ele>368.6</ele>
        <time>2023-06-11T13:19:03Z</time>
      </trkpt>
      <trkpt lat="43.69873" lon="6.02592">
        <ele>368.5</ele>
        <time>2023-06-11T13:19:04Z</time>
      </trkpt>
      <trkpt lat="43.69872" lon="6.02592">
        <ele>368.5</ele>
        <time>2023-06-11T13:19:05Z</time>
      </trkpt>
      <trkpt lat="43.69871" lon="6.02593">
        <ele>368.5</ele>
        <time>2023-06-11T13:19:06Z</time>
      </trkpt>
      <trkpt lat="43.6987" lon="6.02593">
        <ele>368.4</ele>
        <time>2023-06-11T13:19:07Z</time>
      </trkpt>
      <trkpt lat="43.69868" lon="6.02593">
        <ele>368.4</ele>
        <time>2023-06-11T13:19:08Z</time>
      </trkpt>
      <trkpt lat="43.69867" lon="6.02593">
        <ele>368.4</ele>
        <time>2023-06-11T13:19:09Z</time>
      </trkpt>
      <trkpt lat="43.69866" lon="6.02594">
        <ele>368.4</ele>
        <time>2023-06-11T13:19:10Z</time>
      </trkpt>
      <trkpt lat="43.69865" lon="6.02594">
        <ele>368.3</ele>
        <time>2023-06-11T13:19:11Z</time>
      </trkpt>
      <trkpt lat="43.69863" lon="6.02595">
        <ele>368.3</ele>
        <time>2023-06-11T13:19:12Z</time>
      </trkpt>
      <trkpt lat="43.69862" lon="6.02595">
        <ele>368.3</ele>
        <time>2023-06-11T13:19:13Z</time>
      </trkpt>
      <trkpt lat="43.69861" lon="6.02596">
        <ele>368.3</ele>
        <time>2023-06-11T13:19:14Z</time>
      </trkpt>
      <trkpt lat="43.6986" lon="6.02596">
        <ele>368.3</ele>
        <time>2023-06-11T13:19:15Z</time>
      </trkpt>
      <trkpt lat="43.69859" lon="6.02597">
        <ele>368.3</ele>
        <time>2023-06-11T13:19:16Z</time>
      </trkpt>
      <trkpt lat="43.69857" lon="6.02598">
        <ele>368.5</ele>
        <time>2023-06-11T13:19:17Z</time>
      </trkpt>
      <trkpt lat="43.69856" lon="6.02598">
        <ele>368.6</ele>
        <time>2023-06-11T13:19:18Z</time>
      </trkpt>
      <trkpt lat="43.69855" lon="6.02599">
        <ele>368.7</ele>
        <time>2023-06-11T13:19:19Z</time>
      </trkpt>
      <trkpt lat="43.69854" lon="6.02599">
        <ele>368.7</ele>
        <time>2023-06-11T13:19:20Z</time>
      </trkpt>
      <trkpt lat="43.69852" lon="6.026">
        <ele>368.7</ele>
        <time>2023-06-11T13:19:21Z</time>
      </trkpt>
      <trkpt lat="43.69851" lon="6.026">
        <ele>368.7</ele>
        <time>2023-06-11T13:19:22Z</time>
      </trkpt>
      <trkpt lat="43.6985" lon="6.026">
        <ele>368.8</ele>
        <time>2023-06-11T13:19:23Z</time>
      </trkpt>
      <trkpt lat="43.69849" lon="6.02601">
        <ele>369</ele>
        <time>2023-06-11T13:19:24Z</time>
      </trkpt>
      <trkpt lat="43.69847" lon="6.02602">
        <ele>369.1</ele>
        <time>2023-06-11T13:19:25Z</time>
      </trkpt>
      <trkpt lat="43.69846" lon="6.02602">
        <ele>369.1</ele>
        <time>2023-06-11T13:19:26Z</time>
      </trkpt>
      <trkpt lat="43.69845" lon="6.02603">
        <ele>369.1</ele>
        <time>2023-06-11T13:19:27Z</time>
      </trkpt>
      <trkpt lat="43.69844" lon="6.02603">
        <ele>369.1</ele>
        <time>2023-06-11T13:19:28Z</time>
      </trkpt>
      <trkpt lat="43.69843" lon="6.02604">
        <ele>369.1</ele>
        <time>2023-06-11T13:19:29Z</time>
      </trkpt>
      <trkpt lat="43.69841" lon="6.02604">
        <ele>369.1</ele>
        <time>2023-06-11T13:19:30Z</time>
      </trkpt>
      <trkpt lat="43.6984" lon="6.02605">
        <ele>369.1</ele>
        <time>2023-06-11T13:19:31Z</time>
      </trkpt>
      <trkpt lat="43.69839" lon="6.02606">
        <ele>369</ele>
        <time>2023-06-11T13:19:32Z</time>
      </trkpt>
      <trkpt lat="43.69838" lon="6.02607">
        <ele>368.9</ele>
        <time>2023-06-11T13:19:33Z</time>
      </trkpt>
      <trkpt lat="43.69837" lon="6.02608">
        <ele>368.8</ele>
        <time>2023-06-11T13:19:34Z</time>
      </trkpt>
      <trkpt lat="43.69836" lon="6.02608">
        <ele>368.9</ele>
        <time>2023-06-11T13:19:35Z</time>
      </trkpt>
      <trkpt lat="43.69835" lon="6.02609">
        <ele>369</ele>
        <time>2023-06-11T13:19:36Z</time>
      </trkpt>
      <trkpt lat="43.69833" lon="6.0261">
        <ele>369</ele>
        <time>2023-06-11T13:19:37Z</time>
      </trkpt>
      <trkpt lat="43.69832" lon="6.02611">
        <ele>368.9</ele>
        <time>2023-06-11T13:19:38Z</time>
      </trkpt>
      <trkpt lat="43.69831" lon="6.02612">
        <ele>368.9</ele>
        <time>2023-06-11T13:19:39Z</time>
      </trkpt>
      <trkpt lat="43.6983" lon="6.02612">
        <ele>368.9</ele>
        <time>2023-06-11T13:19:40Z</time>
      </trkpt>
      <trkpt lat="43.69829" lon="6.02613">
        <ele>368.9</ele>
        <time>2023-06-11T13:19:41Z</time>
      </trkpt>
      <trkpt lat="43.69827" lon="6.02614">
        <ele>369</ele>
        <time>2023-06-11T13:19:42Z</time>
      </trkpt>
      <trkpt lat="43.69826" lon="6.02614">
        <ele>369</ele>
        <time>2023-06-11T13:19:43Z</time>
      </trkpt>
      <trkpt lat="43.69825" lon="6.02615">
        <ele>368.9</ele>
        <time>2023-06-11T13:19:44Z</time>
      </trkpt>
      <trkpt lat="43.69824" lon="6.02616">
        <ele>368.9</ele>
        <time>2023-06-11T13:19:45Z</time>
      </trkpt>
      <trkpt lat="43.69823" lon="6.02616">
        <ele>368.9</ele>
        <time>2023-06-11T13:19:46Z</time>
      </trkpt>
      <trkpt lat="43.69822" lon="6.02617">
        <ele>369</ele>
        <time>2023-06-11T13:19:47Z</time>
      </trkpt>
      <trkpt lat="43.6982" lon="6.02617">
        <ele>368.9</ele>
        <time>2023-06-11T13:19:48Z</time>
      </trkpt>
      <trkpt lat="43.69819" lon="6.02618">
        <ele>368.9</ele>
        <time>2023-06-11T13:19:49Z</time>
      </trkpt>
      <trkpt lat="43.69818" lon="6.02618">
        <ele>368.9</ele>
        <time>2023-06-11T13:19:50Z</time>
      </trkpt>
      <trkpt lat="43.69817" lon="6.02619">
        <ele>368.8</ele>
        <time>2023-06-11T13:19:51Z</time>
      </trkpt>
      <trkpt lat="43.69816" lon="6.0262">
        <ele>368.7</ele>
        <time>2023-06-11T13:19:52Z</time>
      </trkpt>
      <trkpt lat="43.69814" lon="6.0262">
        <ele>368.7</ele>
        <time>2023-06-11T13:19:53Z</time>
      </trkpt>
      <trkpt lat="43.69813" lon="6.02621">
        <ele>368.8</ele>
        <time>2023-06-11T13:19:54Z</time>
      </trkpt>
      <trkpt lat="43.69812" lon="6.02622">
        <ele>368.7</ele>
        <time>2023-06-11T13:19:55Z</time>
      </trkpt>
      <trkpt lat="43.69811" lon="6.02623">
        <ele>368.7</ele>
        <time>2023-06-11T13:19:56Z</time>
      </trkpt>
      <trkpt lat="43.6981" lon="6.02623">
        <ele>368.8</ele>
        <time>2023-06-11T13:19:57Z</time>
      </trkpt>
      <trkpt lat="43.69809" lon="6.02624">
        <ele>368.8</ele>
        <time>2023-06-11T13:19:58Z</time>
      </trkpt>
      <trkpt lat="43.69807" lon="6.02625">
        <ele>368.8</ele>
        <time>2023-06-11T13:19:59Z</time>
      </trkpt>
      <trkpt lat="43.69806" lon="6.02626">
        <ele>368.8</ele>
        <time>2023-06-11T13:20:00Z</time>
      </trkpt>
      <trkpt lat="43.69805" lon="6.02627">
        <ele>368.7</ele>
        <time>2023-06-11T13:20:01Z</time>
      </trkpt>
      <trkpt lat="43.69804" lon="6.02627">
        <ele>368.8</ele>
        <time>2023-06-11T13:20:02Z</time>
      </trkpt>
      <trkpt lat="43.69803" lon="6.02628">
        <ele>368.8</ele>
        <time>2023-06-11T13:20:03Z</time>
      </trkpt>
      <trkpt lat="43.69801" lon="6.02629">
        <ele>368.7</ele>
        <time>2023-06-11T13:20:04Z</time>
      </trkpt>
      <trkpt lat="43.698" lon="6.0263">
        <ele>368.7</ele>
        <time>2023-06-11T13:20:05Z</time>
      </trkpt>
      <trkpt lat="43.69799" lon="6.02631">
        <ele>368.7</ele>
        <time>2023-06-11T13:20:06Z</time>
      </trkpt>
      <trkpt lat="43.69798" lon="6.02631">
        <ele>368.7</ele>
        <time>2023-06-11T13:20:07Z</time>
      </trkpt>
      <trkpt lat="43.69797" lon="6.02632">
        <ele>368.7</ele>
        <time>2023-06-11T13:20:08Z</time>
      </trkpt>
      <trkpt lat="43.69796" lon="6.02632">
        <ele>368.7</ele>
        <time>2023-06-11T13:20:09Z</time>
      </trkpt>
      <trkpt lat="43.69794" lon="6.02633">
        <ele>368.7</ele>
        <time>2023-06-11T13:20:10Z</time>
      </trkpt>
      <trkpt lat="43.69793" lon="6.02634">
        <ele>368.7</ele>
        <time>2023-06-11T13:20:11Z</time>
      </trkpt>
      <trkpt lat="43.69792" lon="6.02635">
        <ele>368.7</ele>
        <time>2023-06-11T13:20:12Z</time>
      </trkpt>
      <trkpt lat="43.69791" lon="6.02636">
        <ele>368.7</ele>
        <time>2023-06-11T13:20:13Z</time>
      </trkpt>
      <trkpt lat="43.6979" lon="6.02637">
        <ele>368.7</ele>
        <time>2023-06-11T13:20:14Z</time>
      </trkpt>
      <trkpt lat="43.69789" lon="6.02637">
        <ele>368.6</ele>
        <time>2023-06-11T13:20:15Z</time>
      </trkpt>
      <trkpt lat="43.69787" lon="6.02638">
        <ele>368.7</ele>
        <time>2023-06-11T13:20:16Z</time>
      </trkpt>
      <trkpt lat="43.69786" lon="6.02639">
        <ele>368.7</ele>
        <time>2023-06-11T13:20:17Z</time>
      </trkpt>
      <trkpt lat="43.69785" lon="6.0264">
        <ele>368.7</ele>
        <time>2023-06-11T13:20:18Z</time>
      </trkpt>
      <trkpt lat="43.69784" lon="6.02641">
        <ele>368.8</ele>
        <time>2023-06-11T13:20:19Z</time>
      </trkpt>
      <trkpt lat="43.69783" lon="6.02642">
        <ele>368.9</ele>
        <time>2023-06-11T13:20:20Z</time>
      </trkpt>
      <trkpt lat="43.69781" lon="6.02642">
        <ele>368.8</ele>
        <time>2023-06-11T13:20:21Z</time>
      </trkpt>
      <trkpt lat="43.6978" lon="6.02643">
        <ele>368.8</ele>
        <time>2023-06-11T13:20:22Z</time>
      </trkpt>
      <trkpt lat="43.69779" lon="6.02644">
        <ele>368.9</ele>
        <time>2023-06-11T13:20:23Z</time>
      </trkpt>
      <trkpt lat="43.69778" lon="6.02645">
        <ele>369</ele>
        <time>2023-06-11T13:20:24Z</time>
      </trkpt>
      <trkpt lat="43.69777" lon="6.02646">
        <ele>369</ele>
        <time>2023-06-11T13:20:25Z</time>
      </trkpt>
      <trkpt lat="43.69775" lon="6.02647">
        <ele>369</ele>
        <time>2023-06-11T13:20:26Z</time>
      </trkpt>
      <trkpt lat="43.69774" lon="6.02649">
        <ele>369</ele>
        <time>2023-06-11T13:20:27Z</time>
      </trkpt>
      <trkpt lat="43.69773" lon="6.0265">
        <ele>369</ele>
        <time>2023-06-11T13:20:28Z</time>
      </trkpt>
      <trkpt lat="43.69772" lon="6.02651">
        <ele>369.1</ele>
        <time>2023-06-11T13:20:29Z</time>
      </trkpt>
      <trkpt lat="43.69771" lon="6.02652">
        <ele>369</ele>
        <time>2023-06-11T13:20:30Z</time>
      </trkpt>
      <trkpt lat="43.6977" lon="6.02653">
        <ele>369</ele>
        <time>2023-06-11T13:20:31Z</time>
      </trkpt>
      <trkpt lat="43.69769" lon="6.02655">
        <ele>369</ele>
        <time>2023-06-11T13:20:32Z</time>
      </trkpt>
      <trkpt lat="43.69768" lon="6.02656">
        <ele>368.9</ele>
        <time>2023-06-11T13:20:33Z</time>
      </trkpt>
      <trkpt lat="43.69767" lon="6.02657">
        <ele>368.9</ele>
        <time>2023-06-11T13:20:34Z</time>
      </trkpt>
      <trkpt lat="43.69766" lon="6.02658">
        <ele>368.8</ele>
        <time>2023-06-11T13:20:35Z</time>
      </trkpt>
      <trkpt lat="43.69765" lon="6.0266">
        <ele>368.9</ele>
        <time>2023-06-11T13:20:36Z</time>
      </trkpt>
      <trkpt lat="43.69764" lon="6.02661">
        <ele>368.9</ele>
        <time>2023-06-11T13:20:37Z</time>
      </trkpt>
      <trkpt lat="43.69763" lon="6.02662">
        <ele>368.7</ele>
        <time>2023-06-11T13:20:38Z</time>
      </trkpt>
      <trkpt lat="43.69763" lon="6.02663">
        <ele>368.5</ele>
        <time>2023-06-11T13:20:39Z</time>
      </trkpt>
      <trkpt lat="43.69762" lon="6.02665">
        <ele>368.4</ele>
        <time>2023-06-11T13:20:40Z</time>
      </trkpt>
      <trkpt lat="43.69761" lon="6.02666">
        <ele>368.4</ele>
        <time>2023-06-11T13:20:41Z</time>
      </trkpt>
      <trkpt lat="43.6976" lon="6.02667">
        <ele>368.4</ele>
        <time>2023-06-11T13:20:42Z</time>
      </trkpt>
      <trkpt lat="43.69759" lon="6.02669">
        <ele>368.5</ele>
        <time>2023-06-11T13:20:43Z</time>
      </trkpt>
      <trkpt lat="43.69758" lon="6.0267">
        <ele>368.6</ele>
        <time>2023-06-11T13:20:44Z</time>
      </trkpt>
      <trkpt lat="43.69758" lon="6.02671">
        <ele>368.7</ele>
        <time>2023-06-11T13:20:45Z</time>
      </trkpt>
      <trkpt lat="43.69757" lon="6.02673">
        <ele>368.8</ele>
        <time>2023-06-11T13:20:46Z</time>
      </trkpt>
      <trkpt lat="43.69756" lon="6.02674">
        <ele>368.9</ele>
        <time>2023-06-11T13:20:47Z</time>
      </trkpt>
      <trkpt lat="43.69755" lon="6.02675">
        <ele>369</ele>
        <time>2023-06-11T13:20:48Z</time>
      </trkpt>
      <trkpt lat="43.69754" lon="6.02677">
        <ele>368.9</ele>
        <time>2023-06-11T13:20:49Z</time>
      </trkpt>
      <trkpt lat="43.69754" lon="6.02678">
        <ele>368.9</ele>
        <time>2023-06-11T13:20:50Z</time>
      </trkpt>
      <trkpt lat="43.69753" lon="6.02679">
        <ele>368.9</ele>
        <time>2023-06-11T13:20:51Z</time>
      </trkpt>
      <trkpt lat="43.69752" lon="6.0268">
        <ele>368.8</ele>
        <time>2023-06-11T13:20:52Z</time>
      </trkpt>
      <trkpt lat="43.69751" lon="6.02682">
        <ele>368.7</ele>
        <time>2023-06-11T13:20:53Z</time>
      </trkpt>
      <trkpt lat="43.6975" lon="6.02683">
        <ele>368.6</ele>
        <time>2023-06-11T13:20:54Z</time>
      </trkpt>
      <trkpt lat="43.69749" lon="6.02684">
        <ele>368.5</ele>
        <time>2023-06-11T13:20:55Z</time>
      </trkpt>
      <trkpt lat="43.69748" lon="6.02686">
        <ele>368.5</ele>
        <time>2023-06-11T13:20:56Z</time>
      </trkpt>
      <trkpt lat="43.69747" lon="6.02687">
        <ele>368.6</ele>
        <time>2023-06-11T13:20:57Z</time>
      </trkpt>
      <trkpt lat="43.69747" lon="6.02688">
        <ele>368.7</ele>
        <time>2023-06-11T13:20:58Z</time>
      </trkpt>
      <trkpt lat="43.69746" lon="6.02689">
        <ele>368.7</ele>
        <time>2023-06-11T13:20:59Z</time>
      </trkpt>
      <trkpt lat="43.69745" lon="6.02691">
        <ele>368.8</ele>
        <time>2023-06-11T13:21:00Z</time>
      </trkpt>
      <trkpt lat="43.69744" lon="6.02692">
        <ele>368.9</ele>
        <time>2023-06-11T13:21:01Z</time>
      </trkpt>
      <trkpt lat="43.69743" lon="6.02693">
        <ele>369</ele>
        <time>2023-06-11T13:21:02Z</time>
      </trkpt>
      <trkpt lat="43.69742" lon="6.02694">
        <ele>368.9</ele>
        <time>2023-06-11T13:21:03Z</time>
      </trkpt>
      <trkpt lat="43.69741" lon="6.02695">
        <ele>369</ele>
        <time>2023-06-11T13:21:04Z</time>
      </trkpt>
      <trkpt lat="43.6974" lon="6.02697">
        <ele>369</ele>
        <time>2023-06-11T13:21:05Z</time>
      </trkpt>
      <trkpt lat="43.69739" lon="6.02698">
        <ele>369</ele>
        <time>2023-06-11T13:21:06Z</time>
      </trkpt>
      <trkpt lat="43.69738" lon="6.02699">
        <ele>369</ele>
        <time>2023-06-11T13:21:07Z</time>
      </trkpt>
      <trkpt lat="43.69737" lon="6.027">
        <ele>369</ele>
        <time>2023-06-11T13:21:08Z</time>
      </trkpt>
      <trkpt lat="43.69736" lon="6.02701">
        <ele>368.9</ele>
        <time>2023-06-11T13:21:09Z</time>
      </trkpt>
      <trkpt lat="43.69735" lon="6.02702">
        <ele>368.9</ele>
        <time>2023-06-11T13:21:10Z</time>
      </trkpt>
      <trkpt lat="43.69734" lon="6.02703">
        <ele>368.8</ele>
        <time>2023-06-11T13:21:11Z</time>
      </trkpt>
      <trkpt lat="43.69733" lon="6.02704">
        <ele>368.7</ele>
        <time>2023-06-11T13:21:12Z</time>
      </trkpt>
      <trkpt lat="43.69732" lon="6.02706">
        <ele>368.7</ele>
        <time>2023-06-11T13:21:13Z</time>
      </trkpt>
      <trkpt lat="43.69731" lon="6.02707">
        <ele>368.8</ele>
        <time>2023-06-11T13:21:14Z</time>
      </trkpt>
      <trkpt lat="43.6973" lon="6.02708">
        <ele>368.9</ele>
        <time>2023-06-11T13:21:15Z</time>
      </trkpt>
      <trkpt lat="43.69729" lon="6.02709">
        <ele>368.9</ele>
        <time>2023-06-11T13:21:16Z</time>
      </trkpt>
      <trkpt lat="43.69728" lon="6.0271">
        <ele>368.9</ele>
        <time>2023-06-11T13:21:17Z</time>
      </trkpt>
      <trkpt lat="43.69727" lon="6.02711">
        <ele>368.9</ele>
        <time>2023-06-11T13:21:18Z</time>
      </trkpt>
      <trkpt lat="43.69726" lon="6.02712">
        <ele>368.9</ele>
        <time>2023-06-11T13:21:19Z</time>
      </trkpt>
      <trkpt lat="43.69724" lon="6.02713">
        <ele>368.9</ele>
        <time>2023-06-11T13:21:20Z</time>
      </trkpt>
      <trkpt lat="43.69723" lon="6.02715">
        <ele>368.9</ele>
        <time>2023-06-11T13:21:21Z</time>
      </trkpt>
      <trkpt lat="43.69722" lon="6.02716">
        <ele>369</ele>
        <time>2023-06-11T13:21:22Z</time>
      </trkpt>
      <trkpt lat="43.69721" lon="6.02717">
        <ele>369</ele>
        <time>2023-06-11T13:21:23Z</time>
      </trkpt>
      <trkpt lat="43.6972" lon="6.02718">
        <ele>368.9</ele>
        <time>2023-06-11T13:21:24Z</time>
      </trkpt>
      <trkpt lat="43.69719" lon="6.02719">
        <ele>368.9</ele>
        <time>2023-06-11T13:21:25Z</time>
      </trkpt>
      <trkpt lat="43.69718" lon="6.02721">
        <ele>368.8</ele>
        <time>2023-06-11T13:21:26Z</time>
      </trkpt>
      <trkpt lat="43.69717" lon="6.02722">
        <ele>368.8</ele>
        <time>2023-06-11T13:21:27Z</time>
      </trkpt>
      <trkpt lat="43.69716" lon="6.02723">
        <ele>368.8</ele>
        <time>2023-06-11T13:21:28Z</time>
      </trkpt>
      <trkpt lat="43.69715" lon="6.02724">
        <ele>368.8</ele>
        <time>2023-06-11T13:21:29Z</time>
      </trkpt>
      <trkpt lat="43.69714" lon="6.02725">
        <ele>368.8</ele>
        <time>2023-06-11T13:21:30Z</time>
      </trkpt>
      <trkpt lat="43.69713" lon="6.02727">
        <ele>368.8</ele>
        <time>2023-06-11T13:21:31Z</time>
      </trkpt>
      <trkpt lat="43.69712" lon="6.02728">
        <ele>368.9</ele>
        <time>2023-06-11T13:21:32Z</time>
      </trkpt>
      <trkpt lat="43.69711" lon="6.02729">
        <ele>368.9</ele>
        <time>2023-06-11T13:21:33Z</time>
      </trkpt>
      <trkpt lat="43.6971" lon="6.02731">
        <ele>368.8</ele>
        <time>2023-06-11T13:21:34Z</time>
      </trkpt>
      <trkpt lat="43.6971" lon="6.02732">
        <ele>368.8</ele>
        <time>2023-06-11T13:21:35Z</time>
      </trkpt>
      <trkpt lat="43.69709" lon="6.02734">
        <ele>368.7</ele>
        <time>2023-06-11T13:21:36Z</time>
      </trkpt>
      <trkpt lat="43.69708" lon="6.02735">
        <ele>368.7</ele>
        <time>2023-06-11T13:21:37Z</time>
      </trkpt>
      <trkpt lat="43.69707" lon="6.02736">
        <ele>368.7</ele>
        <time>2023-06-11T13:21:38Z</time>
      </trkpt>
      <trkpt lat="43.69706" lon="6.02738">
        <ele>368.7</ele>
        <time>2023-06-11T13:21:39Z</time>
      </trkpt>
      <trkpt lat="43.69705" lon="6.02739">
        <ele>368.7</ele>
        <time>2023-06-11T13:21:40Z</time>
      </trkpt>
      <trkpt lat="43.69704" lon="6.0274">
        <ele>368.7</ele>
        <time>2023-06-11T13:21:41Z</time>
      </trkpt>
      <trkpt lat="43.69703" lon="6.02742">
        <ele>368.7</ele>
        <time>2023-06-11T13:21:42Z</time>
      </trkpt>
      <trkpt lat="43.69702" lon="6.02743">
        <ele>368.7</ele>
        <time>2023-06-11T13:21:43Z</time>
      </trkpt>
      <trkpt lat="43.69701" lon="6.02744">
        <ele>368.8</ele>
        <time>2023-06-11T13:21:44Z</time>
      </trkpt>
      <trkpt lat="43.697" lon="6.02746">
        <ele>368.8</ele>
        <time>2023-06-11T13:21:45Z</time>
      </trkpt>
      <trkpt lat="43.69699" lon="6.02747">
        <ele>368.8</ele>
        <time>2023-06-11T13:21:46Z</time>
      </trkpt>
      <trkpt lat="43.69698" lon="6.02748">
        <ele>368.9</ele>
        <time>2023-06-11T13:21:47Z</time>
      </trkpt>
      <trkpt lat="43.69697" lon="6.0275">
        <ele>368.9</ele>
        <time>2023-06-11T13:21:48Z</time>
      </trkpt>
      <trkpt lat="43.69696" lon="6.02751">
        <ele>368.9</ele>
        <time>2023-06-11T13:21:49Z</time>
      </trkpt>
      <trkpt lat="43.69695" lon="6.02752">
        <ele>368.9</ele>
        <time>2023-06-11T13:21:50Z</time>
      </trkpt>
      <trkpt lat="43.69694" lon="6.02753">
        <ele>369</ele>
        <time>2023-06-11T13:21:51Z</time>
      </trkpt>
      <trkpt lat="43.69693" lon="6.02754">
        <ele>369.1</ele>
        <time>2023-06-11T13:21:52Z</time>
      </trkpt>
      <trkpt lat="43.69692" lon="6.02756">
        <ele>369.1</ele>
        <time>2023-06-11T13:21:53Z</time>
      </trkpt>
      <trkpt lat="43.69691" lon="6.02757">
        <ele>369.2</ele>
        <time>2023-06-11T13:21:54Z</time>
      </trkpt>
      <trkpt lat="43.6969" lon="6.02758">
        <ele>369.2</ele>
        <time>2023-06-11T13:21:55Z</time>
      </trkpt>
      <trkpt lat="43.69689" lon="6.02759">
        <ele>369.2</ele>
        <time>2023-06-11T13:21:56Z</time>
      </trkpt>
      <trkpt lat="43.69688" lon="6.02761">
        <ele>369.2</ele>
        <time>2023-06-11T13:21:57Z</time>
      </trkpt>
      <trkpt lat="43.69687" lon="6.02762">
        <ele>369.1</ele>
        <time>2023-06-11T13:21:58Z</time>
      </trkpt>
      <trkpt lat="43.69686" lon="6.02763">
        <ele>369.1</ele>
        <time>2023-06-11T13:21:59Z</time>
      </trkpt>
      <trkpt lat="43.69685" lon="6.02764">
        <ele>369.1</ele>
        <time>2023-06-11T13:22:00Z</time>
      </trkpt>
      <trkpt lat="43.69684" lon="6.02766">
        <ele>369.1</ele>
        <time>2023-06-11T13:22:01Z</time>
      </trkpt>
      <trkpt lat="43.69683" lon="6.02767">
        <ele>369.1</ele>
        <time>2023-06-11T13:22:02Z</time>
      </trkpt>
      <trkpt lat="43.69682" lon="6.02768">
        <ele>369.1</ele>
        <time>2023-06-11T13:22:03Z</time>
      </trkpt>
      <trkpt lat="43.69681" lon="6.0277">
        <ele>369.1</ele>
        <time>2023-06-11T13:22:04Z</time>
      </trkpt>
      <trkpt lat="43.6968" lon="6.02771">
        <ele>369.2</ele>
        <time>2023-06-11T13:22:05Z</time>
      </trkpt>
      <trkpt lat="43.69679" lon="6.02772">
        <ele>369.2</ele>
        <time>2023-06-11T13:22:06Z</time>
      </trkpt>
      <trkpt lat="43.69679" lon="6.02774">
        <ele>369.2</ele>
        <time>2023-06-11T13:22:07Z</time>
      </trkpt>
      <trkpt lat="43.69678" lon="6.02775">
        <ele>369.1</ele>
        <time>2023-06-11T13:22:08Z</time>
      </trkpt>
      <trkpt lat="43.69677" lon="6.02777">
        <ele>369.1</ele>
        <time>2023-06-11T13:22:09Z</time>
      </trkpt>
      <trkpt lat="43.69676" lon="6.02778">
        <ele>369.1</ele>
        <time>2023-06-11T13:22:10Z</time>
      </trkpt>
      <trkpt lat="43.69675" lon="6.02779">
        <ele>369</ele>
        <time>2023-06-11T13:22:11Z</time>
      </trkpt>
      <trkpt lat="43.69674" lon="6.0278">
        <ele>368.9</ele>
        <time>2023-06-11T13:22:12Z</time>
      </trkpt>
      <trkpt lat="43.69673" lon="6.02782">
        <ele>368.9</ele>
        <time>2023-06-11T13:22:13Z</time>
      </trkpt>
      <trkpt lat="43.69672" lon="6.02783">
        <ele>368.9</ele>
        <time>2023-06-11T13:22:14Z</time>
      </trkpt>
      <trkpt lat="43.69671" lon="6.02784">
        <ele>368.9</ele>
        <time>2023-06-11T13:22:15Z</time>
      </trkpt>
      <trkpt lat="43.6967" lon="6.02786">
        <ele>368.9</ele>
        <time>2023-06-11T13:22:16Z</time>
      </trkpt>
      <trkpt lat="43.69669" lon="6.02787">
        <ele>368.9</ele>
        <time>2023-06-11T13:22:17Z</time>
      </trkpt>
      <trkpt lat="43.69669" lon="6.02789">
        <ele>369</ele>
        <time>2023-06-11T13:22:18Z</time>
      </trkpt>
      <trkpt lat="43.69668" lon="6.0279">
        <ele>369</ele>
        <time>2023-06-11T13:22:19Z</time>
      </trkpt>
      <trkpt lat="43.69667" lon="6.02791">
        <ele>369</ele>
        <time>2023-06-11T13:22:20Z</time>
      </trkpt>
      <trkpt lat="43.69666" lon="6.02793">
        <ele>369.1</ele>
        <time>2023-06-11T13:22:21Z</time>
      </trkpt>
      <trkpt lat="43.69665" lon="6.02794">
        <ele>369.1</ele>
        <time>2023-06-11T13:22:22Z</time>
      </trkpt>
      <trkpt lat="43.69664" lon="6.02796">
        <ele>369.1</ele>
        <time>2023-06-11T13:22:23Z</time>
      </trkpt>
      <trkpt lat="43.69664" lon="6.02797">
        <ele>369</ele>
        <time>2023-06-11T13:22:24Z</time>
      </trkpt>
      <trkpt lat="43.69663" lon="6.02799">
        <ele>369.1</ele>
        <time>2023-06-11T13:22:25Z</time>
      </trkpt>
      <trkpt lat="43.69662" lon="6.028">
        <ele>369.2</ele>
        <time>2023-06-11T13:22:26Z</time>
      </trkpt>
      <trkpt lat="43.69661" lon="6.02802">
        <ele>369.2</ele>
        <time>2023-06-11T13:22:27Z</time>
      </trkpt>
      <trkpt lat="43.69661" lon="6.02803">
        <ele>369.2</ele>
        <time>2023-06-11T13:22:28Z</time>
      </trkpt>
      <trkpt lat="43.6966" lon="6.02805">
        <ele>369.2</ele>
        <time>2023-06-11T13:22:29Z</time>
      </trkpt>
      <trkpt lat="43.69659" lon="6.02806">
        <ele>369.2</ele>
        <time>2023-06-11T13:22:30Z</time>
      </trkpt>
      <trkpt lat="43.69658" lon="6.02808">
        <ele>369.3</ele>
        <time>2023-06-11T13:22:31Z</time>
      </trkpt>
      <trkpt lat="43.69658" lon="6.02809">
        <ele>369.3</ele>
        <time>2023-06-11T13:22:32Z</time>
      </trkpt>
      <trkpt lat="43.69657" lon="6.02811">
        <ele>369.3</ele>
        <time>2023-06-11T13:22:33Z</time>
      </trkpt>
      <trkpt lat="43.69656" lon="6.02812">
        <ele>369.2</ele>
        <time>2023-06-11T13:22:34Z</time>
      </trkpt>
      <trkpt lat="43.69655" lon="6.02814">
        <ele>369.1</ele>
        <time>2023-06-11T13:22:35Z</time>
      </trkpt>
      <trkpt lat="43.69654" lon="6.02815">
        <ele>369.1</ele>
        <time>2023-06-11T13:22:36Z</time>
      </trkpt>
      <trkpt lat="43.69654" lon="6.02816">
        <ele>369</ele>
        <time>2023-06-11T13:22:37Z</time>
      </trkpt>
      <trkpt lat="43.69653" lon="6.02818">
        <ele>369</ele>
        <time>2023-06-11T13:22:38Z</time>
      </trkpt>
      <trkpt lat="43.69652" lon="6.02819">
        <ele>368.9</ele>
        <time>2023-06-11T13:22:39Z</time>
      </trkpt>
      <trkpt lat="43.69651" lon="6.02821">
        <ele>368.9</ele>
        <time>2023-06-11T13:22:40Z</time>
      </trkpt>
      <trkpt lat="43.69651" lon="6.02822">
        <ele>368.8</ele>
        <time>2023-06-11T13:22:41Z</time>
      </trkpt>
      <trkpt lat="43.6965" lon="6.02824">
        <ele>368.8</ele>
        <time>2023-06-11T13:22:42Z</time>
      </trkpt>
      <trkpt lat="43.69649" lon="6.02825">
        <ele>368.7</ele>
        <time>2023-06-11T13:22:43Z</time>
      </trkpt>
      <trkpt lat="43.69648" lon="6.02827">
        <ele>368.7</ele>
        <time>2023-06-11T13:22:44Z</time>
      </trkpt>
      <trkpt lat="43.69648" lon="6.02828">
        <ele>368.7</ele>
        <time>2023-06-11T13:22:45Z</time>
      </trkpt>
      <trkpt lat="43.69647" lon="6.0283">
        <ele>368.7</ele>
        <time>2023-06-11T13:22:46Z</time>
      </trkpt>
      <trkpt lat="43.69646" lon="6.02831">
        <ele>368.7</ele>
        <time>2023-06-11T13:22:47Z</time>
      </trkpt>
      <trkpt lat="43.69645" lon="6.02832">
        <ele>368.7</ele>
        <time>2023-06-11T13:22:48Z</time>
      </trkpt>
      <trkpt lat="43.69644" lon="6.02834">
        <ele>368.7</ele>
        <time>2023-06-11T13:22:49Z</time>
      </trkpt>
      <trkpt lat="43.69643" lon="6.02835">
        <ele>368.8</ele>
        <time>2023-06-11T13:22:50Z</time>
      </trkpt>
      <trkpt lat="43.69642" lon="6.02836">
        <ele>368.8</ele>
        <time>2023-06-11T13:22:51Z</time>
      </trkpt>
      <trkpt lat="43.69641" lon="6.02838">
        <ele>368.9</ele>
        <time>2023-06-11T13:22:52Z</time>
      </trkpt>
      <trkpt lat="43.69641" lon="6.02839">
        <ele>369</ele>
        <time>2023-06-11T13:22:53Z</time>
      </trkpt>
      <trkpt lat="43.6964" lon="6.02841">
        <ele>369.1</ele>
        <time>2023-06-11T13:22:54Z</time>
      </trkpt>
      <trkpt lat="43.69639" lon="6.02842">
        <ele>369.1</ele>
        <time>2023-06-11T13:22:55Z</time>
      </trkpt>
      <trkpt lat="43.69638" lon="6.02843">
        <ele>369.2</ele>
        <time>2023-06-11T13:22:56Z</time>
      </trkpt>
      <trkpt lat="43.69637" lon="6.02845">
        <ele>369.2</ele>
        <time>2023-06-11T13:22:57Z</time>
      </trkpt>
      <trkpt lat="43.69636" lon="6.02846">
        <ele>369.2</ele>
        <time>2023-06-11T13:22:58Z</time>
      </trkpt>
      <trkpt lat="43.69635" lon="6.02847">
        <ele>369.2</ele>
        <time>2023-06-11T13:22:59Z</time>
      </trkpt>
      <trkpt lat="43.69635" lon="6.02849">
        <ele>369.1</ele>
        <time>2023-06-11T13:23:00Z</time>
      </trkpt>
      <trkpt lat="43.69634" lon="6.0285">
        <ele>369.1</ele>
        <time>2023-06-11T13:23:01Z</time>
      </trkpt>
      <trkpt lat="43.69633" lon="6.02852">
        <ele>369.1</ele>
        <time>2023-06-11T13:23:02Z</time>
      </trkpt>
      <trkpt lat="43.69632" lon="6.02853">
        <ele>369.1</ele>
        <time>2023-06-11T13:23:03Z</time>
      </trkpt>
      <trkpt lat="43.69631" lon="6.02854">
        <ele>369.1</ele>
        <time>2023-06-11T13:23:04Z</time>
      </trkpt>
      <trkpt lat="43.6963" lon="6.02856">
        <ele>368.9</ele>
        <time>2023-06-11T13:23:05Z</time>
      </trkpt>
      <trkpt lat="43.69629" lon="6.02857">
        <ele>368.8</ele>
        <time>2023-06-11T13:23:06Z</time>
      </trkpt>
      <trkpt lat="43.69628" lon="6.02858">
        <ele>368.7</ele>
        <time>2023-06-11T13:23:07Z</time>
      </trkpt>
      <trkpt lat="43.69628" lon="6.0286">
        <ele>368.6</ele>
        <time>2023-06-11T13:23:08Z</time>
      </trkpt>
      <trkpt lat="43.69627" lon="6.02861">
        <ele>368.6</ele>
        <time>2023-06-11T13:23:09Z</time>
      </trkpt>
      <trkpt lat="43.69626" lon="6.02862">
        <ele>368.7</ele>
        <time>2023-06-11T13:23:10Z</time>
      </trkpt>
      <trkpt lat="43.69625" lon="6.02864">
        <ele>368.7</ele>
        <time>2023-06-11T13:23:11Z</time>
      </trkpt>
      <trkpt lat="43.69624" lon="6.02865">
        <ele>368.7</ele>
        <time>2023-06-11T13:23:12Z</time>
      </trkpt>
      <trkpt lat="43.69623" lon="6.02866">
        <ele>368.7</ele>
        <time>2023-06-11T13:23:13Z</time>
      </trkpt>
      <trkpt lat="43.69622" lon="6.02867">
        <ele>368.7</ele>
        <time>2023-06-11T13:23:14Z</time>
      </trkpt>
      <trkpt lat="43.69621" lon="6.02869">
        <ele>368.6</ele>
        <time>2023-06-11T13:23:15Z</time>
      </trkpt>
      <trkpt lat="43.6962" lon="6.0287">
        <ele>368.5</ele>
        <time>2023-06-11T13:23:16Z</time>
      </trkpt>
      <trkpt lat="43.69619" lon="6.02871">
        <ele>368.5</ele>
        <time>2023-06-11T13:23:17Z</time>
      </trkpt>
      <trkpt lat="43.69619" lon="6.02872">
        <ele>368.6</ele>
        <time>2023-06-11T13:23:18Z</time>
      </trkpt>
      <trkpt lat="43.69618" lon="6.02874">
        <ele>368.6</ele>
        <time>2023-06-11T13:23:19Z</time>
      </trkpt>
      <trkpt lat="43.69617" lon="6.02875">
        <ele>368.6</ele>
        <time>2023-06-11T13:23:20Z</time>
      </trkpt>
      <trkpt lat="43.69616" lon="6.02877">
        <ele>368.7</ele>
        <time>2023-06-11T13:23:21Z</time>
      </trkpt>
      <trkpt lat="43.69615" lon="6.02878">
        <ele>368.8</ele>
        <time>2023-06-11T13:23:22Z</time>
      </trkpt>
      <trkpt lat="43.69615" lon="6.0288">
        <ele>368.8</ele>
        <time>2023-06-11T13:23:23Z</time>
      </trkpt>
      <trkpt lat="43.69614" lon="6.02881">
        <ele>368.8</ele>
        <time>2023-06-11T13:23:24Z</time>
      </trkpt>
      <trkpt lat="43.69613" lon="6.02882">
        <ele>368.7</ele>
        <time>2023-06-11T13:23:25Z</time>
      </trkpt>
      <trkpt lat="43.69612" lon="6.02884">
        <ele>368.6</ele>
        <time>2023-06-11T13:23:26Z</time>
      </trkpt>
      <trkpt lat="43.69611" lon="6.02885">
        <ele>368.6</ele>
        <time>2023-06-11T13:23:27Z</time>
      </trkpt>
      <trkpt lat="43.6961" lon="6.02886">
        <ele>368.6</ele>
        <time>2023-06-11T13:23:28Z</time>
      </trkpt>
      <trkpt lat="43.69609" lon="6.02888">
        <ele>368.5</ele>
        <time>2023-06-11T13:23:29Z</time>
      </trkpt>
      <trkpt lat="43.69608" lon="6.02889">
        <ele>368.5</ele>
        <time>2023-06-11T13:23:30Z</time>
      </trkpt>
      <trkpt lat="43.69607" lon="6.0289">
        <ele>368.5</ele>
        <time>2023-06-11T13:23:31Z</time>
      </trkpt>
      <trkpt lat="43.69607" lon="6.02892">
        <ele>368.5</ele>
        <time>2023-06-11T13:23:32Z</time>
      </trkpt>
      <trkpt lat="43.69606" lon="6.02893">
        <ele>368.5</ele>
        <time>2023-06-11T13:23:33Z</time>
      </trkpt>
      <trkpt lat="43.69605" lon="6.02894">
        <ele>368.5</ele>
        <time>2023-06-11T13:23:34Z</time>
      </trkpt>
      <trkpt lat="43.69604" lon="6.02895">
        <ele>368.5</ele>
        <time>2023-06-11T13:23:35Z</time>
      </trkpt>
      <trkpt lat="43.69603" lon="6.02896">
        <ele>368.5</ele>
        <time>2023-06-11T13:23:36Z</time>
      </trkpt>
      <trkpt lat="43.69602" lon="6.02898">
        <ele>368.4</ele>
        <time>2023-06-11T13:23:37Z</time>
      </trkpt>
      <trkpt lat="43.69601" lon="6.02899">
        <ele>368.4</ele>
        <time>2023-06-11T13:23:38Z</time>
      </trkpt>
      <trkpt lat="43.69601" lon="6.02901">
        <ele>368.4</ele>
        <time>2023-06-11T13:23:39Z</time>
      </trkpt>
      <trkpt lat="43.696" lon="6.02902">
        <ele>368.5</ele>
        <time>2023-06-11T13:23:40Z</time>
      </trkpt>
      <trkpt lat="43.69599" lon="6.02903">
        <ele>368.4</ele>
        <time>2023-06-11T13:23:41Z</time>
      </trkpt>
      <trkpt lat="43.69598" lon="6.02905">
        <ele>368.4</ele>
        <time>2023-06-11T13:23:42Z</time>
      </trkpt>
      <trkpt lat="43.69598" lon="6.02906">
        <ele>368.5</ele>
        <time>2023-06-11T13:23:43Z</time>
      </trkpt>
      <trkpt lat="43.69597" lon="6.02908">
        <ele>368.5</ele>
        <time>2023-06-11T13:23:44Z</time>
      </trkpt>
      <trkpt lat="43.69596" lon="6.02909">
        <ele>368.5</ele>
        <time>2023-06-11T13:23:45Z</time>
      </trkpt>
      <trkpt lat="43.69596" lon="6.02911">
        <ele>368.4</ele>
        <time>2023-06-11T13:23:46Z</time>
      </trkpt>
      <trkpt lat="43.69595" lon="6.02913">
        <ele>368.4</ele>
        <time>2023-06-11T13:23:47Z</time>
      </trkpt>
      <trkpt lat="43.69595" lon="6.02914">
        <ele>368.4</ele>
        <time>2023-06-11T13:23:48Z</time>
      </trkpt>
      <trkpt lat="43.69594" lon="6.02916">
        <ele>368.4</ele>
        <time>2023-06-11T13:23:49Z</time>
      </trkpt>
      <trkpt lat="43.69593" lon="6.02917">
        <ele>368.4</ele>
        <time>2023-06-11T13:23:50Z</time>
      </trkpt>
      <trkpt lat="43.69592" lon="6.02919">
        <ele>368.4</ele>
        <time>2023-06-11T13:23:51Z</time>
      </trkpt>
      <trkpt lat="43.69591" lon="6.0292">
        <ele>368.5</ele>
        <time>2023-06-11T13:23:52Z</time>
      </trkpt>
      <trkpt lat="43.69591" lon="6.02921">
        <ele>368.5</ele>
        <time>2023-06-11T13:23:53Z</time>
      </trkpt>
      <trkpt lat="43.6959" lon="6.02923">
        <ele>368.5</ele>
        <time>2023-06-11T13:23:54Z</time>
      </trkpt>
      <trkpt lat="43.69589" lon="6.02924">
        <ele>368.6</ele>
        <time>2023-06-11T13:23:55Z</time>
      </trkpt>
      <trkpt lat="43.69588" lon="6.02926">
        <ele>368.6</ele>
        <time>2023-06-11T13:23:56Z</time>
      </trkpt>
      <trkpt lat="43.69587" lon="6.02927">
        <ele>368.6</ele>
        <time>2023-06-11T13:23:57Z</time>
      </trkpt>
      <trkpt lat="43.69586" lon="6.02929">
        <ele>368.6</ele>
        <time>2023-06-11T13:23:58Z</time>
      </trkpt>
      <trkpt lat="43.69585" lon="6.0293">
        <ele>368.7</ele>
        <time>2023-06-11T13:23:59Z</time>
      </trkpt>
      <trkpt lat="43.69584" lon="6.02931">
        <ele>368.7</ele>
        <time>2023-06-11T13:24:00Z</time>
      </trkpt>
      <trkpt lat="43.69583" lon="6.02933">
        <ele>368.7</ele>
        <time>2023-06-11T13:24:01Z</time>
      </trkpt>
      <trkpt lat="43.69582" lon="6.02934">
        <ele>368.7</ele>
        <time>2023-06-11T13:24:02Z</time>
      </trkpt>
      <trkpt lat="43.69581" lon="6.02936">
        <ele>368.7</ele>
        <time>2023-06-11T13:24:03Z</time>
      </trkpt>
      <trkpt lat="43.6958" lon="6.02937">
        <ele>368.8</ele>
        <time>2023-06-11T13:24:04Z</time>
      </trkpt>
      <trkpt lat="43.6958" lon="6.02938">
        <ele>368.8</ele>
        <time>2023-06-11T13:24:05Z</time>
      </trkpt>
      <trkpt lat="43.69579" lon="6.02939">
        <ele>368.9</ele>
        <time>2023-06-11T13:24:06Z</time>
      </trkpt>
      <trkpt lat="43.69578" lon="6.02941">
        <ele>368.9</ele>
        <time>2023-06-11T13:24:07Z</time>
      </trkpt>
      <trkpt lat="43.69577" lon="6.02942">
        <ele>368.9</ele>
        <time>2023-06-11T13:24:08Z</time>
      </trkpt>
      <trkpt lat="43.69576" lon="6.02943">
        <ele>368.9</ele>
        <time>2023-06-11T13:24:09Z</time>
      </trkpt>
      <trkpt lat="43.69575" lon="6.02945">
        <ele>368.8</ele>
        <time>2023-06-11T13:24:10Z</time>
      </trkpt>
      <trkpt lat="43.69574" lon="6.02946">
        <ele>368.7</ele>
        <time>2023-06-11T13:24:11Z</time>
      </trkpt>
      <trkpt lat="43.69573" lon="6.02947">
        <ele>368.7</ele>
        <time>2023-06-11T13:24:12Z</time>
      </trkpt>
      <trkpt lat="43.69572" lon="6.02949">
        <ele>368.6</ele>
        <time>2023-06-11T13:24:13Z</time>
      </trkpt>
      <trkpt lat="43.69571" lon="6.0295">
        <ele>368.5</ele>
        <time>2023-06-11T13:24:14Z</time>
      </trkpt>
      <trkpt lat="43.6957" lon="6.02951">
        <ele>368.5</ele>
        <time>2023-06-11T13:24:15Z</time>
      </trkpt>
      <trkpt lat="43.69569" lon="6.02952">
        <ele>368.5</ele>
        <time>2023-06-11T13:24:16Z</time>
      </trkpt>
      <trkpt lat="43.69568" lon="6.02953">
        <ele>368.5</ele>
        <time>2023-06-11T13:24:17Z</time>
      </trkpt>
      <trkpt lat="43.69567" lon="6.02954">
        <ele>368.5</ele>
        <time>2023-06-11T13:24:18Z</time>
      </trkpt>
      <trkpt lat="43.69565" lon="6.02955">
        <ele>368.5</ele>
        <time>2023-06-11T13:24:19Z</time>
      </trkpt>
      <trkpt lat="43.69564" lon="6.02956">
        <ele>368.6</ele>
        <time>2023-06-11T13:24:20Z</time>
      </trkpt>
      <trkpt lat="43.69563" lon="6.02957">
        <ele>368.7</ele>
        <time>2023-06-11T13:24:21Z</time>
      </trkpt>
      <trkpt lat="43.69562" lon="6.02958">
        <ele>368.8</ele>
        <time>2023-06-11T13:24:22Z</time>
      </trkpt>
      <trkpt lat="43.69561" lon="6.02959">
        <ele>368.9</ele>
        <time>2023-06-11T13:24:23Z</time>
      </trkpt>
      <trkpt lat="43.6956" lon="6.0296">
        <ele>368.9</ele>
        <time>2023-06-11T13:24:24Z</time>
      </trkpt>
      <trkpt lat="43.69559" lon="6.02961">
        <ele>369</ele>
        <time>2023-06-11T13:24:25Z</time>
      </trkpt>
      <trkpt lat="43.69558" lon="6.02962">
        <ele>369</ele>
        <time>2023-06-11T13:24:26Z</time>
      </trkpt>
      <trkpt lat="43.69556" lon="6.02963">
        <ele>369</ele>
        <time>2023-06-11T13:24:27Z</time>
      </trkpt>
      <trkpt lat="43.69555" lon="6.02964">
        <ele>369</ele>
        <time>2023-06-11T13:24:28Z</time>
      </trkpt>
      <trkpt lat="43.69554" lon="6.02965">
        <ele>369.2</ele>
        <time>2023-06-11T13:24:29Z</time>
      </trkpt>
      <trkpt lat="43.69553" lon="6.02966">
        <ele>369.3</ele>
        <time>2023-06-11T13:24:30Z</time>
      </trkpt>
      <trkpt lat="43.69552" lon="6.02967">
        <ele>369.3</ele>
        <time>2023-06-11T13:24:31Z</time>
      </trkpt>
      <trkpt lat="43.69551" lon="6.02968">
        <ele>369.3</ele>
        <time>2023-06-11T13:24:32Z</time>
      </trkpt>
      <trkpt lat="43.69549" lon="6.02969">
        <ele>369.3</ele>
        <time>2023-06-11T13:24:33Z</time>
      </trkpt>
      <trkpt lat="43.69548" lon="6.0297">
        <ele>369.2</ele>
        <time>2023-06-11T13:24:34Z</time>
      </trkpt>
      <trkpt lat="43.69547" lon="6.02971">
        <ele>369.2</ele>
        <time>2023-06-11T13:24:35Z</time>
      </trkpt>
      <trkpt lat="43.69546" lon="6.02972">
        <ele>369.2</ele>
        <time>2023-06-11T13:24:36Z</time>
      </trkpt>
      <trkpt lat="43.69545" lon="6.02972">
        <ele>369.2</ele>
        <time>2023-06-11T13:24:37Z</time>
      </trkpt>
      <trkpt lat="43.69543" lon="6.02973">
        <ele>369.2</ele>
        <time>2023-06-11T13:24:38Z</time>
      </trkpt>
      <trkpt lat="43.69542" lon="6.02974">
        <ele>369.2</ele>
        <time>2023-06-11T13:24:39Z</time>
      </trkpt>
      <trkpt lat="43.69541" lon="6.02975">
        <ele>369.2</ele>
        <time>2023-06-11T13:24:40Z</time>
      </trkpt>
      <trkpt lat="43.6954" lon="6.02976">
        <ele>369.2</ele>
        <time>2023-06-11T13:24:41Z</time>
      </trkpt>
      <trkpt lat="43.69538" lon="6.02976">
        <ele>369.2</ele>
        <time>2023-06-11T13:24:42Z</time>
      </trkpt>
      <trkpt lat="43.69537" lon="6.02977">
        <ele>369.2</ele>
        <time>2023-06-11T13:24:43Z</time>
      </trkpt>
      <trkpt lat="43.69536" lon="6.02977">
        <ele>369.2</ele>
        <time>2023-06-11T13:24:44Z</time>
      </trkpt>
      <trkpt lat="43.69534" lon="6.02978">
        <ele>369.2</ele>
        <time>2023-06-11T13:24:45Z</time>
      </trkpt>
      <trkpt lat="43.69533" lon="6.02979">
        <ele>369.2</ele>
        <time>2023-06-11T13:24:46Z</time>
      </trkpt>
      <trkpt lat="43.69532" lon="6.02979">
        <ele>369.2</ele>
        <time>2023-06-11T13:24:47Z</time>
      </trkpt>
      <trkpt lat="43.6953" lon="6.0298">
        <ele>369.3</ele>
        <time>2023-06-11T13:24:48Z</time>
      </trkpt>
      <trkpt lat="43.69529" lon="6.0298">
        <ele>369.3</ele>
        <time>2023-06-11T13:24:49Z</time>
      </trkpt>
      <trkpt lat="43.69528" lon="6.02981">
        <ele>369.3</ele>
        <time>2023-06-11T13:24:50Z</time>
      </trkpt>
      <trkpt lat="43.69526" lon="6.02981">
        <ele>369.3</ele>
        <time>2023-06-11T13:24:51Z</time>
      </trkpt>
      <trkpt lat="43.69525" lon="6.02982">
        <ele>369.3</ele>
        <time>2023-06-11T13:24:52Z</time>
      </trkpt>
      <trkpt lat="43.69524" lon="6.02982">
        <ele>369.4</ele>
        <time>2023-06-11T13:24:53Z</time>
      </trkpt>
      <trkpt lat="43.69522" lon="6.02983">
        <ele>369.4</ele>
        <time>2023-06-11T13:24:54Z</time>
      </trkpt>
      <trkpt lat="43.69521" lon="6.02984">
        <ele>369.4</ele>
        <time>2023-06-11T13:24:55Z</time>
      </trkpt>
      <trkpt lat="43.6952" lon="6.02984">
        <ele>369.4</ele>
        <time>2023-06-11T13:24:56Z</time>
      </trkpt>
      <trkpt lat="43.69518" lon="6.02985">
        <ele>369.4</ele>
        <time>2023-06-11T13:24:57Z</time>
      </trkpt>
      <trkpt lat="43.69517" lon="6.02986">
        <ele>369.4</ele>
        <time>2023-06-11T13:24:58Z</time>
      </trkpt>
      <trkpt lat="43.69516" lon="6.02987">
        <ele>369.4</ele>
        <time>2023-06-11T13:24:59Z</time>
      </trkpt>
      <trkpt lat="43.69515" lon="6.02987">
        <ele>369.4</ele>
        <time>2023-06-11T13:25:00Z</time>
      </trkpt>
      <trkpt lat="43.69513" lon="6.02988">
        <ele>369.4</ele>
        <time>2023-06-11T13:25:01Z</time>
      </trkpt>
      <trkpt lat="43.69512" lon="6.02989">
        <ele>369.4</ele>
        <time>2023-06-11T13:25:02Z</time>
      </trkpt>
      <trkpt lat="43.69511" lon="6.0299">
        <ele>369.4</ele>
        <time>2023-06-11T13:25:03Z</time>
      </trkpt>
      <trkpt lat="43.6951" lon="6.02991">
        <ele>369.3</ele>
        <time>2023-06-11T13:25:04Z</time>
      </trkpt>
      <trkpt lat="43.69508" lon="6.02991">
        <ele>369.3</ele>
        <time>2023-06-11T13:25:05Z</time>
      </trkpt>
      <trkpt lat="43.69507" lon="6.02992">
        <ele>369.3</ele>
        <time>2023-06-11T13:25:06Z</time>
      </trkpt>
      <trkpt lat="43.69506" lon="6.02993">
        <ele>369.2</ele>
        <time>2023-06-11T13:25:07Z</time>
      </trkpt>
      <trkpt lat="43.69505" lon="6.02994">
        <ele>369.2</ele>
        <time>2023-06-11T13:25:08Z</time>
      </trkpt>
      <trkpt lat="43.69503" lon="6.02995">
        <ele>369.1</ele>
        <time>2023-06-11T13:25:09Z</time>
      </trkpt>
      <trkpt lat="43.69502" lon="6.02996">
        <ele>369.2</ele>
        <time>2023-06-11T13:25:10Z</time>
      </trkpt>
      <trkpt lat="43.69501" lon="6.02997">
        <ele>369.3</ele>
        <time>2023-06-11T13:25:11Z</time>
      </trkpt>
      <trkpt lat="43.695" lon="6.02997">
        <ele>369.3</ele>
        <time>2023-06-11T13:25:12Z</time>
      </trkpt>
      <trkpt lat="43.69499" lon="6.02998">
        <ele>369.3</ele>
        <time>2023-06-11T13:25:13Z</time>
      </trkpt>
      <trkpt lat="43.69497" lon="6.02999">
        <ele>369.2</ele>
        <time>2023-06-11T13:25:14Z</time>
      </trkpt>
      <trkpt lat="43.69496" lon="6.03">
        <ele>369.2</ele>
        <time>2023-06-11T13:25:15Z</time>
      </trkpt>
      <trkpt lat="43.69495" lon="6.03001">
        <ele>369.2</ele>
        <time>2023-06-11T13:25:16Z</time>
      </trkpt>
      <trkpt lat="43.69493" lon="6.03002">
        <ele>369.1</ele>
        <time>2023-06-11T13:25:17Z</time>
      </trkpt>
      <trkpt lat="43.69492" lon="6.03003">
        <ele>369.1</ele>
        <time>2023-06-11T13:25:18Z</time>
      </trkpt>
      <trkpt lat="43.69491" lon="6.03004">
        <ele>369.1</ele>
        <time>2023-06-11T13:25:19Z</time>
      </trkpt>
      <trkpt lat="43.6949" lon="6.03004">
        <ele>369</ele>
        <time>2023-06-11T13:25:20Z</time>
      </trkpt>
      <trkpt lat="43.69488" lon="6.03005">
        <ele>369.2</ele>
        <time>2023-06-11T13:25:21Z</time>
      </trkpt>
      <trkpt lat="43.69487" lon="6.03006">
        <ele>369.3</ele>
        <time>2023-06-11T13:25:22Z</time>
      </trkpt>
      <trkpt lat="43.69486" lon="6.03007">
        <ele>369.3</ele>
        <time>2023-06-11T13:25:23Z</time>
      </trkpt>
      <trkpt lat="43.69485" lon="6.03008">
        <ele>369.4</ele>
        <time>2023-06-11T13:25:24Z</time>
      </trkpt>
      <trkpt lat="43.69484" lon="6.03009">
        <ele>369.5</ele>
        <time>2023-06-11T13:25:25Z</time>
      </trkpt>
      <trkpt lat="43.69482" lon="6.0301">
        <ele>369.5</ele>
        <time>2023-06-11T13:25:26Z</time>
      </trkpt>
      <trkpt lat="43.69481" lon="6.03011">
        <ele>369.5</ele>
        <time>2023-06-11T13:25:27Z</time>
      </trkpt>
      <trkpt lat="43.6948" lon="6.03012">
        <ele>369.5</ele>
        <time>2023-06-11T13:25:28Z</time>
      </trkpt>
      <trkpt lat="43.69479" lon="6.03013">
        <ele>369.4</ele>
        <time>2023-06-11T13:25:29Z</time>
      </trkpt>
      <trkpt lat="43.69477" lon="6.03014">
        <ele>369.4</ele>
        <time>2023-06-11T13:25:30Z</time>
      </trkpt>
      <trkpt lat="43.69476" lon="6.03015">
        <ele>369.4</ele>
        <time>2023-06-11T13:25:31Z</time>
      </trkpt>
      <trkpt lat="43.69475" lon="6.03016">
        <ele>369.4</ele>
        <time>2023-06-11T13:25:32Z</time>
      </trkpt>
      <trkpt lat="43.69473" lon="6.03018">
        <ele>369.4</ele>
        <time>2023-06-11T13:25:33Z</time>
      </trkpt>
      <trkpt lat="43.69472" lon="6.03019">
        <ele>369.4</ele>
        <time>2023-06-11T13:25:34Z</time>
      </trkpt>
      <trkpt lat="43.69471" lon="6.0302">
        <ele>369.5</ele>
        <time>2023-06-11T13:25:35Z</time>
      </trkpt>
      <trkpt lat="43.6947" lon="6.03021">
        <ele>369.5</ele>
        <time>2023-06-11T13:25:36Z</time>
      </trkpt>
      <trkpt lat="43.69468" lon="6.03022">
        <ele>369.5</ele>
        <time>2023-06-11T13:25:37Z</time>
      </trkpt>
      <trkpt lat="43.69467" lon="6.03023">
        <ele>369.4</ele>
        <time>2023-06-11T13:25:38Z</time>
      </trkpt>
      <trkpt lat="43.69466" lon="6.03025">
        <ele>369.4</ele>
        <time>2023-06-11T13:25:39Z</time>
      </trkpt>
      <trkpt lat="43.69465" lon="6.03026">
        <ele>369.4</ele>
        <time>2023-06-11T13:25:40Z</time>
      </trkpt>
      <trkpt lat="43.69464" lon="6.03027">
        <ele>369.4</ele>
        <time>2023-06-11T13:25:41Z</time>
      </trkpt>
      <trkpt lat="43.69463" lon="6.03028">
        <ele>369.4</ele>
        <time>2023-06-11T13:25:42Z</time>
      </trkpt>
      <trkpt lat="43.69462" lon="6.0303">
        <ele>369.4</ele>
        <time>2023-06-11T13:25:43Z</time>
      </trkpt>
      <trkpt lat="43.69461" lon="6.03031">
        <ele>369.4</ele>
        <time>2023-06-11T13:25:44Z</time>
      </trkpt>
      <trkpt lat="43.6946" lon="6.03032">
        <ele>369.5</ele>
        <time>2023-06-11T13:25:45Z</time>
      </trkpt>
      <trkpt lat="43.69459" lon="6.03033">
        <ele>369.4</ele>
        <time>2023-06-11T13:25:46Z</time>
      </trkpt>
      <trkpt lat="43.69458" lon="6.03035">
        <ele>369.4</ele>
        <time>2023-06-11T13:25:47Z</time>
      </trkpt>
      <trkpt lat="43.69457" lon="6.03036">
        <ele>369.4</ele>
        <time>2023-06-11T13:25:48Z</time>
      </trkpt>
      <trkpt lat="43.69456" lon="6.03037">
        <ele>369.5</ele>
        <time>2023-06-11T13:25:49Z</time>
      </trkpt>
      <trkpt lat="43.69455" lon="6.03039">
        <ele>369.5</ele>
        <time>2023-06-11T13:25:50Z</time>
      </trkpt>
      <trkpt lat="43.69454" lon="6.0304">
        <ele>369.5</ele>
        <time>2023-06-11T13:25:51Z</time>
      </trkpt>
      <trkpt lat="43.69453" lon="6.03041">
        <ele>369.6</ele>
        <time>2023-06-11T13:25:52Z</time>
      </trkpt>
      <trkpt lat="43.69452" lon="6.03043">
        <ele>369.6</ele>
        <time>2023-06-11T13:25:53Z</time>
      </trkpt>
      <trkpt lat="43.69451" lon="6.03044">
        <ele>369.7</ele>
        <time>2023-06-11T13:25:54Z</time>
      </trkpt>
      <trkpt lat="43.6945" lon="6.03045">
        <ele>369.7</ele>
        <time>2023-06-11T13:25:55Z</time>
      </trkpt>
      <trkpt lat="43.69449" lon="6.03047">
        <ele>369.6</ele>
        <time>2023-06-11T13:25:56Z</time>
      </trkpt>
      <trkpt lat="43.69448" lon="6.03048">
        <ele>369.6</ele>
        <time>2023-06-11T13:25:57Z</time>
      </trkpt>
      <trkpt lat="43.69447" lon="6.03049">
        <ele>369.5</ele>
        <time>2023-06-11T13:25:58Z</time>
      </trkpt>
      <trkpt lat="43.69446" lon="6.0305">
        <ele>369.4</ele>
        <time>2023-06-11T13:25:59Z</time>
      </trkpt>
      <trkpt lat="43.69445" lon="6.03052">
        <ele>369.3</ele>
        <time>2023-06-11T13:26:00Z</time>
      </trkpt>
      <trkpt lat="43.69444" lon="6.03053">
        <ele>369.4</ele>
        <time>2023-06-11T13:26:01Z</time>
      </trkpt>
      <trkpt lat="43.69443" lon="6.03054">
        <ele>369.4</ele>
        <time>2023-06-11T13:26:02Z</time>
      </trkpt>
      <trkpt lat="43.69442" lon="6.03056">
        <ele>369.3</ele>
        <time>2023-06-11T13:26:03Z</time>
      </trkpt>
      <trkpt lat="43.69441" lon="6.03057">
        <ele>369.2</ele>
        <time>2023-06-11T13:26:04Z</time>
      </trkpt>
      <trkpt lat="43.6944" lon="6.03058">
        <ele>369.2</ele>
        <time>2023-06-11T13:26:05Z</time>
      </trkpt>
      <trkpt lat="43.69439" lon="6.03059">
        <ele>369.1</ele>
        <time>2023-06-11T13:26:06Z</time>
      </trkpt>
      <trkpt lat="43.69438" lon="6.0306">
        <ele>369</ele>
        <time>2023-06-11T13:26:07Z</time>
      </trkpt>
      <trkpt lat="43.69437" lon="6.03062">
        <ele>369</ele>
        <time>2023-06-11T13:26:08Z</time>
      </trkpt>
      <trkpt lat="43.69436" lon="6.03063">
        <ele>369</ele>
        <time>2023-06-11T13:26:09Z</time>
      </trkpt>
      <trkpt lat="43.69436" lon="6.03064">
        <ele>368.9</ele>
        <time>2023-06-11T13:26:10Z</time>
      </trkpt>
      <trkpt lat="43.69435" lon="6.03066">
        <ele>368.9</ele>
        <time>2023-06-11T13:26:11Z</time>
      </trkpt>
      <trkpt lat="43.69434" lon="6.03067">
        <ele>369</ele>
        <time>2023-06-11T13:26:12Z</time>
      </trkpt>
      <trkpt lat="43.69433" lon="6.03069">
        <ele>368.9</ele>
        <time>2023-06-11T13:26:13Z</time>
      </trkpt>
      <trkpt lat="43.69432" lon="6.0307">
        <ele>368.9</ele>
        <time>2023-06-11T13:26:14Z</time>
      </trkpt>
      <trkpt lat="43.69432" lon="6.03072">
        <ele>369</ele>
        <time>2023-06-11T13:26:15Z</time>
      </trkpt>
      <trkpt lat="43.69431" lon="6.03073">
        <ele>369</ele>
        <time>2023-06-11T13:26:16Z</time>
      </trkpt>
      <trkpt lat="43.6943" lon="6.03075">
        <ele>369</ele>
        <time>2023-06-11T13:26:17Z</time>
      </trkpt>
      <trkpt lat="43.6943" lon="6.03076">
        <ele>369</ele>
        <time>2023-06-11T13:26:18Z</time>
      </trkpt>
      <trkpt lat="43.69429" lon="6.03078">
        <ele>369.1</ele>
        <time>2023-06-11T13:26:19Z</time>
      </trkpt>
      <trkpt lat="43.69428" lon="6.03079">
        <ele>369.2</ele>
        <time>2023-06-11T13:26:20Z</time>
      </trkpt>
      <trkpt lat="43.69427" lon="6.03081">
        <ele>369.2</ele>
        <time>2023-06-11T13:26:21Z</time>
      </trkpt>
      <trkpt lat="43.69427" lon="6.03082">
        <ele>369.2</ele>
        <time>2023-06-11T13:26:22Z</time>
      </trkpt>
      <trkpt lat="43.69426" lon="6.03083">
        <ele>369.3</ele>
        <time>2023-06-11T13:26:23Z</time>
      </trkpt>
      <trkpt lat="43.69425" lon="6.03085">
        <ele>369.3</ele>
        <time>2023-06-11T13:26:24Z</time>
      </trkpt>
      <trkpt lat="43.69424" lon="6.03086">
        <ele>369.3</ele>
        <time>2023-06-11T13:26:25Z</time>
      </trkpt>
      <trkpt lat="43.69423" lon="6.03087">
        <ele>369.3</ele>
        <time>2023-06-11T13:26:26Z</time>
      </trkpt>
      <trkpt lat="43.69422" lon="6.03089">
        <ele>369.3</ele>
        <time>2023-06-11T13:26:27Z</time>
      </trkpt>
      <trkpt lat="43.69421" lon="6.0309">
        <ele>369.3</ele>
        <time>2023-06-11T13:26:28Z</time>
      </trkpt>
      <trkpt lat="43.6942" lon="6.03091">
        <ele>369.2</ele>
        <time>2023-06-11T13:26:29Z</time>
      </trkpt>
      <trkpt lat="43.69419" lon="6.03093">
        <ele>369.1</ele>
        <time>2023-06-11T13:26:30Z</time>
      </trkpt>
      <trkpt lat="43.69419" lon="6.03094">
        <ele>369.2</ele>
        <time>2023-06-11T13:26:31Z</time>
      </trkpt>
      <trkpt lat="43.69418" lon="6.03096">
        <ele>369.2</ele>
        <time>2023-06-11T13:26:32Z</time>
      </trkpt>
      <trkpt lat="43.69417" lon="6.03097">
        <ele>369.1</ele>
        <time>2023-06-11T13:26:33Z</time>
      </trkpt>
      <trkpt lat="43.69416" lon="6.03099">
        <ele>369.1</ele>
        <time>2023-06-11T13:26:34Z</time>
      </trkpt>
      <trkpt lat="43.69415" lon="6.031">
        <ele>369</ele>
        <time>2023-06-11T13:26:35Z</time>
      </trkpt>
      <trkpt lat="43.69415" lon="6.03102">
        <ele>369.2</ele>
        <time>2023-06-11T13:26:36Z</time>
      </trkpt>
      <trkpt lat="43.69414" lon="6.03104">
        <ele>369.1</ele>
        <time>2023-06-11T13:26:37Z</time>
      </trkpt>
      <trkpt lat="43.69413" lon="6.03105">
        <ele>369.2</ele>
        <time>2023-06-11T13:26:38Z</time>
      </trkpt>
      <trkpt lat="43.69412" lon="6.03107">
        <ele>369.2</ele>
        <time>2023-06-11T13:26:39Z</time>
      </trkpt>
      <trkpt lat="43.69411" lon="6.03108">
        <ele>369.3</ele>
        <time>2023-06-11T13:26:40Z</time>
      </trkpt>
      <trkpt lat="43.69411" lon="6.0311">
        <ele>369.3</ele>
        <time>2023-06-11T13:26:41Z</time>
      </trkpt>
      <trkpt lat="43.6941" lon="6.03111">
        <ele>369.3</ele>
        <time>2023-06-11T13:26:42Z</time>
      </trkpt>
      <trkpt lat="43.69409" lon="6.03113">
        <ele>369.3</ele>
        <time>2023-06-11T13:26:43Z</time>
      </trkpt>
      <trkpt lat="43.69408" lon="6.03115">
        <ele>369.3</ele>
        <time>2023-06-11T13:26:44Z</time>
      </trkpt>
      <trkpt lat="43.69408" lon="6.03116">
        <ele>369.2</ele>
        <time>2023-06-11T13:26:45Z</time>
      </trkpt>
      <trkpt lat="43.69407" lon="6.03118">
        <ele>369.3</ele>
        <time>2023-06-11T13:26:46Z</time>
      </trkpt>
      <trkpt lat="43.69406" lon="6.03119">
        <ele>369.3</ele>
        <time>2023-06-11T13:26:47Z</time>
      </trkpt>
      <trkpt lat="43.69405" lon="6.03121">
        <ele>369.3</ele>
        <time>2023-06-11T13:26:48Z</time>
      </trkpt>
      <trkpt lat="43.69405" lon="6.03123">
        <ele>369.3</ele>
        <time>2023-06-11T13:26:49Z</time>
      </trkpt>
      <trkpt lat="43.69404" lon="6.03124">
        <ele>369.2</ele>
        <time>2023-06-11T13:26:50Z</time>
      </trkpt>
      <trkpt lat="43.69403" lon="6.03126">
        <ele>369.2</ele>
        <time>2023-06-11T13:26:51Z</time>
      </trkpt>
      <trkpt lat="43.69402" lon="6.03128">
        <ele>369.2</ele>
        <time>2023-06-11T13:26:52Z</time>
      </trkpt>
      <trkpt lat="43.69402" lon="6.03129">
        <ele>369.2</ele>
        <time>2023-06-11T13:26:53Z</time>
      </trkpt>
      <trkpt lat="43.69401" lon="6.03131">
        <ele>369.2</ele>
        <time>2023-06-11T13:26:54Z</time>
      </trkpt>
      <trkpt lat="43.69401" lon="6.03133">
        <ele>369.1</ele>
        <time>2023-06-11T13:26:55Z</time>
      </trkpt>
      <trkpt lat="43.694" lon="6.03135">
        <ele>369.2</ele>
        <time>2023-06-11T13:26:56Z</time>
      </trkpt>
      <trkpt lat="43.69399" lon="6.03136">
        <ele>369.2</ele>
        <time>2023-06-11T13:26:57Z</time>
      </trkpt>
      <trkpt lat="43.69399" lon="6.03138">
        <ele>369.2</ele>
        <time>2023-06-11T13:26:58Z</time>
      </trkpt>
      <trkpt lat="43.69398" lon="6.0314">
        <ele>369.3</ele>
        <time>2023-06-11T13:26:59Z</time>
      </trkpt>
      <trkpt lat="43.69397" lon="6.03141">
        <ele>369.4</ele>
        <time>2023-06-11T13:27:00Z</time>
      </trkpt>
      <trkpt lat="43.69397" lon="6.03143">
        <ele>369.4</ele>
        <time>2023-06-11T13:27:01Z</time>
      </trkpt>
      <trkpt lat="43.69396" lon="6.03145">
        <ele>369.4</ele>
        <time>2023-06-11T13:27:02Z</time>
      </trkpt>
      <trkpt lat="43.69396" lon="6.03147">
        <ele>369.5</ele>
        <time>2023-06-11T13:27:03Z</time>
      </trkpt>
      <trkpt lat="43.69395" lon="6.03149">
        <ele>369.4</ele>
        <time>2023-06-11T13:27:04Z</time>
      </trkpt>
      <trkpt lat="43.69395" lon="6.0315">
        <ele>369.4</ele>
        <time>2023-06-11T13:27:05Z</time>
      </trkpt>
      <trkpt lat="43.69394" lon="6.03152">
        <ele>369.3</ele>
        <time>2023-06-11T13:27:06Z</time>
      </trkpt>
      <trkpt lat="43.69394" lon="6.03154">
        <ele>369.3</ele>
        <time>2023-06-11T13:27:07Z</time>
      </trkpt>
      <trkpt lat="43.69393" lon="6.03156">
        <ele>369.3</ele>
        <time>2023-06-11T13:27:08Z</time>
      </trkpt>
      <trkpt lat="43.69393" lon="6.03158">
        <ele>369.2</ele>
        <time>2023-06-11T13:27:09Z</time>
      </trkpt>
      <trkpt lat="43.69392" lon="6.0316">
        <ele>369.2</ele>
        <time>2023-06-11T13:27:10Z</time>
      </trkpt>
      <trkpt lat="43.69392" lon="6.03161">
        <ele>369.2</ele>
        <time>2023-06-11T13:27:11Z</time>
      </trkpt>
      <trkpt lat="43.69392" lon="6.03163">
        <ele>369.2</ele>
        <time>2023-06-11T13:27:12Z</time>
      </trkpt>
      <trkpt lat="43.69391" lon="6.03165">
        <ele>369.3</ele>
        <time>2023-06-11T13:27:13Z</time>
      </trkpt>
      <trkpt lat="43.69391" lon="6.03167">
        <ele>369.3</ele>
        <time>2023-06-11T13:27:14Z</time>
      </trkpt>
      <trkpt lat="43.6939" lon="6.03169">
        <ele>369.3</ele>
        <time>2023-06-11T13:27:15Z</time>
      </trkpt>
      <trkpt lat="43.6939" lon="6.03171">
        <ele>369.2</ele>
        <time>2023-06-11T13:27:16Z</time>
      </trkpt>
      <trkpt lat="43.6939" lon="6.03173">
        <ele>369.3</ele>
        <time>2023-06-11T13:27:17Z</time>
      </trkpt>
      <trkpt lat="43.69389" lon="6.03175">
        <ele>369.3</ele>
        <time>2023-06-11T13:27:18Z</time>
      </trkpt>
      <trkpt lat="43.69389" lon="6.03177">
        <ele>369.3</ele>
        <time>2023-06-11T13:27:19Z</time>
      </trkpt>
      <trkpt lat="43.69388" lon="6.03178">
        <ele>369.4</ele>
        <time>2023-06-11T13:27:20Z</time>
      </trkpt>
      <trkpt lat="43.69388" lon="6.0318">
        <ele>369.4</ele>
        <time>2023-06-11T13:27:21Z</time>
      </trkpt>
      <trkpt lat="43.69388" lon="6.03182">
        <ele>369.5</ele>
        <time>2023-06-11T13:27:22Z</time>
      </trkpt>
      <trkpt lat="43.69387" lon="6.03184">
        <ele>369.5</ele>
        <time>2023-06-11T13:27:23Z</time>
      </trkpt>
      <trkpt lat="43.69387" lon="6.03186">
        <ele>369.6</ele>
        <time>2023-06-11T13:27:24Z</time>
      </trkpt>
      <trkpt lat="43.69386" lon="6.03188">
        <ele>369.5</ele>
        <time>2023-06-11T13:27:25Z</time>
      </trkpt>
      <trkpt lat="43.69386" lon="6.0319">
        <ele>369.6</ele>
        <time>2023-06-11T13:27:26Z</time>
      </trkpt>
      <trkpt lat="43.69386" lon="6.03192">
        <ele>369.6</ele>
        <time>2023-06-11T13:27:27Z</time>
      </trkpt>
      <trkpt lat="43.69385" lon="6.03194">
        <ele>369.6</ele>
        <time>2023-06-11T13:27:28Z</time>
      </trkpt>
      <trkpt lat="43.69385" lon="6.03195">
        <ele>369.6</ele>
        <time>2023-06-11T13:27:29Z</time>
      </trkpt>
      <trkpt lat="43.69384" lon="6.03197">
        <ele>369.7</ele>
        <time>2023-06-11T13:27:30Z</time>
      </trkpt>
      <trkpt lat="43.69384" lon="6.03199">
        <ele>369.6</ele>
        <time>2023-06-11T13:27:31Z</time>
      </trkpt>
      <trkpt lat="43.69383" lon="6.03201">
        <ele>369.7</ele>
        <time>2023-06-11T13:27:32Z</time>
      </trkpt>
      <trkpt lat="43.69383" lon="6.03203">
        <ele>369.8</ele>
        <time>2023-06-11T13:27:33Z</time>
      </trkpt>
      <trkpt lat="43.69383" lon="6.03205">
        <ele>369.9</ele>
        <time>2023-06-11T13:27:34Z</time>
      </trkpt>
      <trkpt lat="43.69382" lon="6.03207">
        <ele>369.9</ele>
        <time>2023-06-11T13:27:35Z</time>
      </trkpt>
      <trkpt lat="43.69382" lon="6.03209">
        <ele>369.9</ele>
        <time>2023-06-11T13:27:36Z</time>
      </trkpt>
      <trkpt lat="43.69381" lon="6.03211">
        <ele>369.8</ele>
        <time>2023-06-11T13:27:37Z</time>
      </trkpt>
      <trkpt lat="43.69381" lon="6.03212">
        <ele>369.9</ele>
        <time>2023-06-11T13:27:38Z</time>
      </trkpt>
      <trkpt lat="43.69381" lon="6.03214">
        <ele>369.9</ele>
        <time>2023-06-11T13:27:39Z</time>
      </trkpt>
      <trkpt lat="43.6938" lon="6.03216">
        <ele>370.1</ele>
        <time>2023-06-11T13:27:40Z</time>
      </trkpt>
      <trkpt lat="43.6938" lon="6.03218">
        <ele>370.2</ele>
        <time>2023-06-11T13:27:41Z</time>
      </trkpt>
      <trkpt lat="43.6938" lon="6.0322">
        <ele>370.2</ele>
        <time>2023-06-11T13:27:42Z</time>
      </trkpt>
      <trkpt lat="43.69379" lon="6.03222">
        <ele>370.2</ele>
        <time>2023-06-11T13:27:43Z</time>
      </trkpt>
      <trkpt lat="43.69379" lon="6.03224">
        <ele>370.2</ele>
        <time>2023-06-11T13:27:44Z</time>
      </trkpt>
      <trkpt lat="43.69378" lon="6.03225">
        <ele>370.1</ele>
        <time>2023-06-11T13:27:45Z</time>
      </trkpt>
      <trkpt lat="43.69378" lon="6.03227">
        <ele>370.2</ele>
        <time>2023-06-11T13:27:46Z</time>
      </trkpt>
      <trkpt lat="43.69377" lon="6.03229">
        <ele>370.2</ele>
        <time>2023-06-11T13:27:47Z</time>
      </trkpt>
      <trkpt lat="43.69377" lon="6.03231">
        <ele>370.2</ele>
        <time>2023-06-11T13:27:48Z</time>
      </trkpt>
      <trkpt lat="43.69377" lon="6.03233">
        <ele>370.1</ele>
        <time>2023-06-11T13:27:49Z</time>
      </trkpt>
      <trkpt lat="43.69376" lon="6.03235">
        <ele>370</ele>
        <time>2023-06-11T13:27:50Z</time>
      </trkpt>
      <trkpt lat="43.69376" lon="6.03237">
        <ele>369.9</ele>
        <time>2023-06-11T13:27:51Z</time>
      </trkpt>
      <trkpt lat="43.69376" lon="6.03238">
        <ele>369.8</ele>
        <time>2023-06-11T13:27:52Z</time>
      </trkpt>
      <trkpt lat="43.69375" lon="6.0324">
        <ele>369.7</ele>
        <time>2023-06-11T13:27:53Z</time>
      </trkpt>
      <trkpt lat="43.69375" lon="6.03242">
        <ele>369.7</ele>
        <time>2023-06-11T13:27:54Z</time>
      </trkpt>
      <trkpt lat="43.69375" lon="6.03244">
        <ele>369.7</ele>
        <time>2023-06-11T13:27:55Z</time>
      </trkpt>
      <trkpt lat="43.69375" lon="6.03246">
        <ele>369.8</ele>
        <time>2023-06-11T13:27:56Z</time>
      </trkpt>
      <trkpt lat="43.69375" lon="6.03248">
        <ele>369.9</ele>
        <time>2023-06-11T13:27:57Z</time>
      </trkpt>
      <trkpt lat="43.69375" lon="6.0325">
        <ele>369.9</ele>
        <time>2023-06-11T13:27:58Z</time>
      </trkpt>
      <trkpt lat="43.69375" lon="6.03252">
        <ele>369.9</ele>
        <time>2023-06-11T13:27:59Z</time>
      </trkpt>
      <trkpt lat="43.69375" lon="6.03253">
        <ele>369.9</ele>
        <time>2023-06-11T13:28:00Z</time>
      </trkpt>
      <trkpt lat="43.69375" lon="6.03255">
        <ele>369.9</ele>
        <time>2023-06-11T13:28:01Z</time>
      </trkpt>
      <trkpt lat="43.69375" lon="6.03256">
        <ele>369.7</ele>
        <time>2023-06-11T13:28:02Z</time>
      </trkpt>
      <trkpt lat="43.69374" lon="6.03258">
        <ele>369.8</ele>
        <time>2023-06-11T13:28:03Z</time>
      </trkpt>
      <trkpt lat="43.69374" lon="6.03259">
        <ele>369.8</ele>
        <time>2023-06-11T13:28:04Z</time>
      </trkpt>
      <trkpt lat="43.69375" lon="6.0326">
        <ele>369.8</ele>
        <time>2023-06-11T13:28:05Z</time>
      </trkpt>
      <trkpt lat="43.69375" lon="6.03262">
        <ele>369.9</ele>
        <time>2023-06-11T13:28:06Z</time>
      </trkpt>
      <trkpt lat="43.69375" lon="6.03262">
        <ele>369.9</ele>
        <time>2023-06-11T13:28:07Z</time>
      </trkpt>
      <trkpt lat="43.69376" lon="6.03263">
        <ele>369.8</ele>
        <time>2023-06-11T13:28:08Z</time>
      </trkpt>
      <trkpt lat="43.69377" lon="6.03263">
        <ele>369.9</ele>
        <time>2023-06-11T13:28:09Z</time>
      </trkpt>
      <trkpt lat="43.69378" lon="6.03263">
        <ele>369.8</ele>
        <time>2023-06-11T13:28:10Z</time>
      </trkpt>
      <trkpt lat="43.69378" lon="6.03263">
        <ele>369.8</ele>
        <time>2023-06-11T13:28:11Z</time>
      </trkpt>
      <trkpt lat="43.69379" lon="6.03263">
        <ele>369.7</ele>
        <time>2023-06-11T13:28:12Z</time>
      </trkpt>
      <trkpt lat="43.6938" lon="6.03263">
        <ele>369.8</ele>
        <time>2023-06-11T13:28:13Z</time>
      </trkpt>
      <trkpt lat="43.6938" lon="6.03262">
        <ele>369.8</ele>
        <time>2023-06-11T13:28:14Z</time>
      </trkpt>
      <trkpt lat="43.6938" lon="6.03261">
        <ele>369.8</ele>
        <time>2023-06-11T13:28:15Z</time>
      </trkpt>
      <trkpt lat="43.6938" lon="6.0326">
        <ele>369.9</ele>
        <time>2023-06-11T13:28:16Z</time>
      </trkpt>
      <trkpt lat="43.69381" lon="6.03259">
        <ele>369.8</ele>
        <time>2023-06-11T13:28:17Z</time>
      </trkpt>
      <trkpt lat="43.6938" lon="6.03258">
        <ele>369.8</ele>
        <time>2023-06-11T13:28:18Z</time>
      </trkpt>
      <trkpt lat="43.6938" lon="6.03257">
        <ele>369.7</ele>
        <time>2023-06-11T13:28:19Z</time>
      </trkpt>
      <trkpt lat="43.6938" lon="6.03256">
        <ele>369.7</ele>
        <time>2023-06-11T13:28:20Z</time>
      </trkpt>
      <trkpt lat="43.6938" lon="6.03254">
        <ele>369.7</ele>
        <time>2023-06-11T13:28:21Z</time>
      </trkpt>
      <trkpt lat="43.6938" lon="6.03253">
        <ele>369.6</ele>
        <time>2023-06-11T13:28:22Z</time>
      </trkpt>
      <trkpt lat="43.6938" lon="6.03252">
        <ele>369.6</ele>
        <time>2023-06-11T13:28:23Z</time>
      </trkpt>
      <trkpt lat="43.69379" lon="6.0325">
        <ele>369.6</ele>
        <time>2023-06-11T13:28:24Z</time>
      </trkpt>
      <trkpt lat="43.69379" lon="6.03249">
        <ele>369.6</ele>
        <time>2023-06-11T13:28:25Z</time>
      </trkpt>
      <trkpt lat="43.69378" lon="6.03248">
        <ele>369.7</ele>
        <time>2023-06-11T13:28:26Z</time>
      </trkpt>
      <trkpt lat="43.69378" lon="6.03246">
        <ele>369.7</ele>
        <time>2023-06-11T13:28:27Z</time>
      </trkpt>
      <trkpt lat="43.69377" lon="6.03245">
        <ele>369.7</ele>
        <time>2023-06-11T13:28:28Z</time>
      </trkpt>
      <trkpt lat="43.69377" lon="6.03244">
        <ele>369.6</ele>
        <time>2023-06-11T13:28:29Z</time>
      </trkpt>
      <trkpt lat="43.69376" lon="6.03242">
        <ele>369.6</ele>
        <time>2023-06-11T13:28:30Z</time>
      </trkpt>
      <trkpt lat="43.69376" lon="6.0324">
        <ele>369.5</ele>
        <time>2023-06-11T13:28:31Z</time>
      </trkpt>
      <trkpt lat="43.69376" lon="6.03239">
        <ele>369.5</ele>
        <time>2023-06-11T13:28:32Z</time>
      </trkpt>
      <trkpt lat="43.69376" lon="6.03237">
        <ele>369.4</ele>
        <time>2023-06-11T13:28:33Z</time>
      </trkpt>
      <trkpt lat="43.69376" lon="6.03236">
        <ele>369.3</ele>
        <time>2023-06-11T13:28:34Z</time>
      </trkpt>
      <trkpt lat="43.69376" lon="6.03235">
        <ele>369.2</ele>
        <time>2023-06-11T13:28:35Z</time>
      </trkpt>
      <trkpt lat="43.69377" lon="6.03234">
        <ele>369.1</ele>
        <time>2023-06-11T13:28:36Z</time>
      </trkpt>
      <trkpt lat="43.69378" lon="6.03233">
        <ele>369.1</ele>
        <time>2023-06-11T13:28:37Z</time>
      </trkpt>
      <trkpt lat="43.69379" lon="6.03232">
        <ele>369</ele>
        <time>2023-06-11T13:28:38Z</time>
      </trkpt>
      <trkpt lat="43.69379" lon="6.03232">
        <ele>369</ele>
        <time>2023-06-11T13:28:39Z</time>
      </trkpt>
      <trkpt lat="43.6938" lon="6.03232">
        <ele>368.9</ele>
        <time>2023-06-11T13:28:40Z</time>
      </trkpt>
      <trkpt lat="43.69381" lon="6.03232">
        <ele>369</ele>
        <time>2023-06-11T13:28:41Z</time>
      </trkpt>
      <trkpt lat="43.69382" lon="6.03233">
        <ele>369.1</ele>
        <time>2023-06-11T13:28:42Z</time>
      </trkpt>
      <trkpt lat="43.69383" lon="6.03234">
        <ele>369.1</ele>
        <time>2023-06-11T13:28:43Z</time>
      </trkpt>
      <trkpt lat="43.69383" lon="6.03235">
        <ele>369.2</ele>
        <time>2023-06-11T13:28:44Z</time>
      </trkpt>
      <trkpt lat="43.69383" lon="6.03235">
        <ele>369.3</ele>
        <time>2023-06-11T13:28:45Z</time>
      </trkpt>
      <trkpt lat="43.69383" lon="6.03236">
        <ele>369.4</ele>
        <time>2023-06-11T13:28:46Z</time>
      </trkpt>
      <trkpt lat="43.69384" lon="6.03237">
        <ele>369.4</ele>
        <time>2023-06-11T13:28:47Z</time>
      </trkpt>
      <trkpt lat="43.69384" lon="6.03238">
        <ele>369.5</ele>
        <time>2023-06-11T13:28:48Z</time>
      </trkpt>
      <trkpt lat="43.69384" lon="6.0324">
        <ele>369.4</ele>
        <time>2023-06-11T13:28:49Z</time>
      </trkpt>
      <trkpt lat="43.69383" lon="6.03241">
        <ele>369.4</ele>
        <time>2023-06-11T13:28:50Z</time>
      </trkpt>
      <trkpt lat="43.69383" lon="6.03242">
        <ele>369.3</ele>
        <time>2023-06-11T13:28:51Z</time>
      </trkpt>
      <trkpt lat="43.69383" lon="6.03243">
        <ele>369.3</ele>
        <time>2023-06-11T13:28:52Z</time>
      </trkpt>
      <trkpt lat="43.69383" lon="6.03245">
        <ele>369.3</ele>
        <time>2023-06-11T13:28:53Z</time>
      </trkpt>
      <trkpt lat="43.69382" lon="6.03246">
        <ele>369.4</ele>
        <time>2023-06-11T13:28:54Z</time>
      </trkpt>
      <trkpt lat="43.69382" lon="6.03247">
        <ele>369.4</ele>
        <time>2023-06-11T13:28:55Z</time>
      </trkpt>
      <trkpt lat="43.69382" lon="6.03249">
        <ele>369.4</ele>
        <time>2023-06-11T13:28:56Z</time>
      </trkpt>
      <trkpt lat="43.69381" lon="6.0325">
        <ele>369.4</ele>
        <time>2023-06-11T13:28:57Z</time>
      </trkpt>
      <trkpt lat="43.69381" lon="6.03251">
        <ele>369.4</ele>
        <time>2023-06-11T13:28:58Z</time>
      </trkpt>
      <trkpt lat="43.6938" lon="6.03252">
        <ele>369.5</ele>
        <time>2023-06-11T13:28:59Z</time>
      </trkpt>
      <trkpt lat="43.6938" lon="6.03254">
        <ele>369.6</ele>
        <time>2023-06-11T13:29:00Z</time>
      </trkpt>
      <trkpt lat="43.69379" lon="6.03255">
        <ele>369.7</ele>
        <time>2023-06-11T13:29:01Z</time>
      </trkpt>
      <trkpt lat="43.69379" lon="6.03257">
        <ele>369.8</ele>
        <time>2023-06-11T13:29:02Z</time>
      </trkpt>
      <trkpt lat="43.69379" lon="6.03258">
        <ele>369.8</ele>
        <time>2023-06-11T13:29:03Z</time>
      </trkpt>
      <trkpt lat="43.69378" lon="6.0326">
        <ele>369.9</ele>
        <time>2023-06-11T13:29:04Z</time>
      </trkpt>
      <trkpt lat="43.69378" lon="6.03262">
        <ele>369.8</ele>
        <time>2023-06-11T13:29:05Z</time>
      </trkpt>
      <trkpt lat="43.69378" lon="6.03263">
        <ele>369.7</ele>
        <time>2023-06-11T13:29:06Z</time>
      </trkpt>
      <trkpt lat="43.69377" lon="6.03265">
        <ele>369.7</ele>
        <time>2023-06-11T13:29:07Z</time>
      </trkpt>
      <trkpt lat="43.69377" lon="6.03266">
        <ele>369.7</ele>
        <time>2023-06-11T13:29:08Z</time>
      </trkpt>
      <trkpt lat="43.69376" lon="6.03268">
        <ele>369.6</ele>
        <time>2023-06-11T13:29:09Z</time>
      </trkpt>
      <trkpt lat="43.69376" lon="6.0327">
        <ele>369.7</ele>
        <time>2023-06-11T13:29:10Z</time>
      </trkpt>
      <trkpt lat="43.69376" lon="6.03271">
        <ele>369.8</ele>
        <time>2023-06-11T13:29:11Z</time>
      </trkpt>
      <trkpt lat="43.69376" lon="6.03273">
        <ele>369.9</ele>
        <time>2023-06-11T13:29:12Z</time>
      </trkpt>
      <trkpt lat="43.69375" lon="6.03275">
        <ele>369.9</ele>
        <time>2023-06-11T13:29:13Z</time>
      </trkpt>
      <trkpt lat="43.69375" lon="6.03277">
        <ele>369.9</ele>
        <time>2023-06-11T13:29:14Z</time>
      </trkpt>
      <trkpt lat="43.69375" lon="6.03278">
        <ele>369.9</ele>
        <time>2023-06-11T13:29:15Z</time>
      </trkpt>
      <trkpt lat="43.69375" lon="6.0328">
        <ele>369.9</ele>
        <time>2023-06-11T13:29:16Z</time>
      </trkpt>
      <trkpt lat="43.69375" lon="6.03282">
        <ele>369.8</ele>
        <time>2023-06-11T13:29:17Z</time>
      </trkpt>
      <trkpt lat="43.69375" lon="6.03283">
        <ele>369.9</ele>
        <time>2023-06-11T13:29:18Z</time>
      </trkpt>
      <trkpt lat="43.69375" lon="6.03285">
        <ele>369.8</ele>
        <time>2023-06-11T13:29:19Z</time>
      </trkpt>
      <trkpt lat="43.69375" lon="6.03287">
        <ele>369.8</ele>
        <time>2023-06-11T13:29:20Z</time>
      </trkpt>
      <trkpt lat="43.69375" lon="6.03288">
        <ele>369.8</ele>
        <time>2023-06-11T13:29:21Z</time>
      </trkpt>
      <trkpt lat="43.69375" lon="6.0329">
        <ele>369.8</ele>
        <time>2023-06-11T13:29:22Z</time>
      </trkpt>
      <trkpt lat="43.69375" lon="6.03291">
        <ele>369.7</ele>
        <time>2023-06-11T13:29:23Z</time>
      </trkpt>
      <trkpt lat="43.69375" lon="6.03293">
        <ele>369.7</ele>
        <time>2023-06-11T13:29:24Z</time>
      </trkpt>
      <trkpt lat="43.69375" lon="6.03295">
        <ele>369.6</ele>
        <time>2023-06-11T13:29:25Z</time>
      </trkpt>
      <trkpt lat="43.69376" lon="6.03297">
        <ele>369.5</ele>
        <time>2023-06-11T13:29:26Z</time>
      </trkpt>
      <trkpt lat="43.69376" lon="6.03299">
        <ele>369.4</ele>
        <time>2023-06-11T13:29:27Z</time>
      </trkpt>
      <trkpt lat="43.69377" lon="6.03301">
        <ele>369.5</ele>
        <time>2023-06-11T13:29:28Z</time>
      </trkpt>
      <trkpt lat="43.69377" lon="6.03303">
        <ele>369.5</ele>
        <time>2023-06-11T13:29:29Z</time>
      </trkpt>
      <trkpt lat="43.69377" lon="6.03305">
        <ele>369.5</ele>
        <time>2023-06-11T13:29:30Z</time>
      </trkpt>
      <trkpt lat="43.69378" lon="6.03307">
        <ele>369.4</ele>
        <time>2023-06-11T13:29:31Z</time>
      </trkpt>
      <trkpt lat="43.69378" lon="6.03309">
        <ele>369.4</ele>
        <time>2023-06-11T13:29:32Z</time>
      </trkpt>
      <trkpt lat="43.69378" lon="6.0331">
        <ele>369.3</ele>
        <time>2023-06-11T13:29:33Z</time>
      </trkpt>
      <trkpt lat="43.69378" lon="6.03312">
        <ele>369.2</ele>
        <time>2023-06-11T13:29:34Z</time>
      </trkpt>
      <trkpt lat="43.69378" lon="6.03314">
        <ele>369.1</ele>
        <time>2023-06-11T13:29:35Z</time>
      </trkpt>
      <trkpt lat="43.69378" lon="6.03316">
        <ele>369.1</ele>
        <time>2023-06-11T13:29:36Z</time>
      </trkpt>
      <trkpt lat="43.69378" lon="6.03318">
        <ele>369.1</ele>
        <time>2023-06-11T13:29:37Z</time>
      </trkpt>
      <trkpt lat="43.69378" lon="6.0332">
        <ele>369.1</ele>
        <time>2023-06-11T13:29:38Z</time>
      </trkpt>
      <trkpt lat="43.69379" lon="6.03322">
        <ele>369.1</ele>
        <time>2023-06-11T13:29:39Z</time>
      </trkpt>
      <trkpt lat="43.69379" lon="6.03324">
        <ele>369.2</ele>
        <time>2023-06-11T13:29:40Z</time>
      </trkpt>
      <trkpt lat="43.69379" lon="6.03326">
        <ele>369.2</ele>
        <time>2023-06-11T13:29:41Z</time>
      </trkpt>
      <trkpt lat="43.6938" lon="6.03328">
        <ele>369.2</ele>
        <time>2023-06-11T13:29:42Z</time>
      </trkpt>
      <trkpt lat="43.6938" lon="6.03331">
        <ele>369.2</ele>
        <time>2023-06-11T13:29:43Z</time>
      </trkpt>
      <trkpt lat="43.6938" lon="6.03333">
        <ele>369.2</ele>
        <time>2023-06-11T13:29:44Z</time>
      </trkpt>
      <trkpt lat="43.69381" lon="6.03335">
        <ele>369.2</ele>
        <time>2023-06-11T13:29:45Z</time>
      </trkpt>
      <trkpt lat="43.69381" lon="6.03337">
        <ele>369.2</ele>
        <time>2023-06-11T13:29:46Z</time>
      </trkpt>
      <trkpt lat="43.69381" lon="6.03339">
        <ele>369.2</ele>
        <time>2023-06-11T13:29:47Z</time>
      </trkpt>
      <trkpt lat="43.69382" lon="6.03341">
        <ele>369.1</ele>
        <time>2023-06-11T13:29:48Z</time>
      </trkpt>
      <trkpt lat="43.69382" lon="6.03343">
        <ele>369.1</ele>
        <time>2023-06-11T13:29:49Z</time>
      </trkpt>
      <trkpt lat="43.69383" lon="6.03344">
        <ele>369.1</ele>
        <time>2023-06-11T13:29:50Z</time>
      </trkpt>
      <trkpt lat="43.69383" lon="6.03346">
        <ele>369.2</ele>
        <time>2023-06-11T13:29:51Z</time>
      </trkpt>
      <trkpt lat="43.69384" lon="6.03348">
        <ele>369.3</ele>
        <time>2023-06-11T13:29:52Z</time>
      </trkpt>
      <trkpt lat="43.69384" lon="6.0335">
        <ele>369.4</ele>
        <time>2023-06-11T13:29:53Z</time>
      </trkpt>
      <trkpt lat="43.69385" lon="6.03351">
        <ele>369.5</ele>
        <time>2023-06-11T13:29:54Z</time>
      </trkpt>
      <trkpt lat="43.69385" lon="6.03353">
        <ele>369.6</ele>
        <time>2023-06-11T13:29:55Z</time>
      </trkpt>
      <trkpt lat="43.69385" lon="6.03355">
        <ele>369.7</ele>
        <time>2023-06-11T13:29:56Z</time>
      </trkpt>
      <trkpt lat="43.69386" lon="6.03357">
        <ele>369.7</ele>
        <time>2023-06-11T13:29:57Z</time>
      </trkpt>
      <trkpt lat="43.69386" lon="6.03358">
        <ele>369.7</ele>
        <time>2023-06-11T13:29:58Z</time>
      </trkpt>
      <trkpt lat="43.69387" lon="6.0336">
        <ele>369.8</ele>
        <time>2023-06-11T13:29:59Z</time>
      </trkpt>
      <trkpt lat="43.69387" lon="6.03362">
        <ele>369.8</ele>
        <time>2023-06-11T13:30:00Z</time>
      </trkpt>
      <trkpt lat="43.69388" lon="6.03364">
        <ele>369.8</ele>
        <time>2023-06-11T13:30:01Z</time>
      </trkpt>
      <trkpt lat="43.69388" lon="6.03366">
        <ele>369.8</ele>
        <time>2023-06-11T13:30:02Z</time>
      </trkpt>
      <trkpt lat="43.69389" lon="6.03368">
        <ele>369.7</ele>
        <time>2023-06-11T13:30:03Z</time>
      </trkpt>
      <trkpt lat="43.69389" lon="6.0337">
        <ele>369.5</ele>
        <time>2023-06-11T13:30:04Z</time>
      </trkpt>
      <trkpt lat="43.6939" lon="6.03372">
        <ele>369.4</ele>
        <time>2023-06-11T13:30:05Z</time>
      </trkpt>
      <trkpt lat="43.6939" lon="6.03374">
        <ele>369.5</ele>
        <time>2023-06-11T13:30:06Z</time>
      </trkpt>
      <trkpt lat="43.69391" lon="6.03376">
        <ele>369.5</ele>
        <time>2023-06-11T13:30:07Z</time>
      </trkpt>
      <trkpt lat="43.69391" lon="6.03378">
        <ele>369.6</ele>
        <time>2023-06-11T13:30:08Z</time>
      </trkpt>
      <trkpt lat="43.69392" lon="6.0338">
        <ele>369.7</ele>
        <time>2023-06-11T13:30:09Z</time>
      </trkpt>
      <trkpt lat="43.69392" lon="6.03382">
        <ele>369.7</ele>
        <time>2023-06-11T13:30:10Z</time>
      </trkpt>
      <trkpt lat="43.69392" lon="6.03384">
        <ele>369.5</ele>
        <time>2023-06-11T13:30:11Z</time>
      </trkpt>
      <trkpt lat="43.69392" lon="6.03385">
        <ele>369.4</ele>
        <time>2023-06-11T13:30:12Z</time>
      </trkpt>
      <trkpt lat="43.69393" lon="6.03387">
        <ele>369.3</ele>
        <time>2023-06-11T13:30:13Z</time>
      </trkpt>
      <trkpt lat="43.69393" lon="6.03389">
        <ele>369.2</ele>
        <time>2023-06-11T13:30:14Z</time>
      </trkpt>
      <trkpt lat="43.69393" lon="6.03391">
        <ele>369.1</ele>
        <time>2023-06-11T13:30:15Z</time>
      </trkpt>
      <trkpt lat="43.69394" lon="6.03393">
        <ele>369.1</ele>
        <time>2023-06-11T13:30:16Z</time>
      </trkpt>
      <trkpt lat="43.69394" lon="6.03394">
        <ele>369.1</ele>
        <time>2023-06-11T13:30:17Z</time>
      </trkpt>
      <trkpt lat="43.69394" lon="6.03396">
        <ele>369</ele>
        <time>2023-06-11T13:30:18Z</time>
      </trkpt>
      <trkpt lat="43.69395" lon="6.03398">
        <ele>369</ele>
        <time>2023-06-11T13:30:19Z</time>
      </trkpt>
      <trkpt lat="43.69395" lon="6.034">
        <ele>369.1</ele>
        <time>2023-06-11T13:30:20Z</time>
      </trkpt>
      <trkpt lat="43.69396" lon="6.03401">
        <ele>369.1</ele>
        <time>2023-06-11T13:30:21Z</time>
      </trkpt>
      <trkpt lat="43.69396" lon="6.03403">
        <ele>369.2</ele>
        <time>2023-06-11T13:30:22Z</time>
      </trkpt>
      <trkpt lat="43.69397" lon="6.03405">
        <ele>369.2</ele>
        <time>2023-06-11T13:30:23Z</time>
      </trkpt>
      <trkpt lat="43.69397" lon="6.03407">
        <ele>369.3</ele>
        <time>2023-06-11T13:30:24Z</time>
      </trkpt>
      <trkpt lat="43.69398" lon="6.03409">
        <ele>369.3</ele>
        <time>2023-06-11T13:30:25Z</time>
      </trkpt>
      <trkpt lat="43.69398" lon="6.03411">
        <ele>369.4</ele>
        <time>2023-06-11T13:30:26Z</time>
      </trkpt>
      <trkpt lat="43.69399" lon="6.03413">
        <ele>369.4</ele>
        <time>2023-06-11T13:30:27Z</time>
      </trkpt>
      <trkpt lat="43.69399" lon="6.03415">
        <ele>369.4</ele>
        <time>2023-06-11T13:30:28Z</time>
      </trkpt>
      <trkpt lat="43.69399" lon="6.03416">
        <ele>369.3</ele>
        <time>2023-06-11T13:30:29Z</time>
      </trkpt>
      <trkpt lat="43.694" lon="6.03418">
        <ele>369.2</ele>
        <time>2023-06-11T13:30:30Z</time>
      </trkpt>
      <trkpt lat="43.694" lon="6.0342">
        <ele>369.3</ele>
        <time>2023-06-11T13:30:31Z</time>
      </trkpt>
      <trkpt lat="43.694" lon="6.03422">
        <ele>369.2</ele>
        <time>2023-06-11T13:30:32Z</time>
      </trkpt>
      <trkpt lat="43.694" lon="6.03424">
        <ele>369.2</ele>
        <time>2023-06-11T13:30:33Z</time>
      </trkpt>
      <trkpt lat="43.69401" lon="6.03426">
        <ele>369.2</ele>
        <time>2023-06-11T13:30:34Z</time>
      </trkpt>
      <trkpt lat="43.69401" lon="6.03428">
        <ele>369.2</ele>
        <time>2023-06-11T13:30:35Z</time>
      </trkpt>
      <trkpt lat="43.69402" lon="6.03429">
        <ele>369.3</ele>
        <time>2023-06-11T13:30:36Z</time>
      </trkpt>
      <trkpt lat="43.69402" lon="6.03431">
        <ele>369.4</ele>
        <time>2023-06-11T13:30:37Z</time>
      </trkpt>
      <trkpt lat="43.69403" lon="6.03433">
        <ele>369.4</ele>
        <time>2023-06-11T13:30:38Z</time>
      </trkpt>
      <trkpt lat="43.69403" lon="6.03435">
        <ele>369.4</ele>
        <time>2023-06-11T13:30:39Z</time>
      </trkpt>
      <trkpt lat="43.69403" lon="6.03437">
        <ele>369.5</ele>
        <time>2023-06-11T13:30:40Z</time>
      </trkpt>
      <trkpt lat="43.69404" lon="6.03438">
        <ele>369.4</ele>
        <time>2023-06-11T13:30:41Z</time>
      </trkpt>
      <trkpt lat="43.69404" lon="6.0344">
        <ele>369.5</ele>
        <time>2023-06-11T13:30:42Z</time>
      </trkpt>
      <trkpt lat="43.69404" lon="6.03442">
        <ele>369.5</ele>
        <time>2023-06-11T13:30:43Z</time>
      </trkpt>
      <trkpt lat="43.69405" lon="6.03443">
        <ele>369.6</ele>
        <time>2023-06-11T13:30:44Z</time>
      </trkpt>
      <trkpt lat="43.69405" lon="6.03445">
        <ele>369.6</ele>
        <time>2023-06-11T13:30:45Z</time>
      </trkpt>
      <trkpt lat="43.69406" lon="6.03447">
        <ele>369.6</ele>
        <time>2023-06-11T13:30:46Z</time>
      </trkpt>
      <trkpt lat="43.69406" lon="6.03449">
        <ele>369.6</ele>
        <time>2023-06-11T13:30:47Z</time>
      </trkpt>
      <trkpt lat="43.69406" lon="6.03451">
        <ele>369.5</ele>
        <time>2023-06-11T13:30:48Z</time>
      </trkpt>
      <trkpt lat="43.69407" lon="6.03452">
        <ele>369.5</ele>
        <time>2023-06-11T13:30:49Z</time>
      </trkpt>
      <trkpt lat="43.69407" lon="6.03454">
        <ele>369.5</ele>
        <time>2023-06-11T13:30:50Z</time>
      </trkpt>
      <trkpt lat="43.69408" lon="6.03456">
        <ele>369.4</ele>
        <time>2023-06-11T13:30:51Z</time>
      </trkpt>
      <trkpt lat="43.69409" lon="6.03457">
        <ele>369.4</ele>
        <time>2023-06-11T13:30:52Z</time>
      </trkpt>
      <trkpt lat="43.69409" lon="6.03459">
        <ele>369.4</ele>
        <time>2023-06-11T13:30:53Z</time>
      </trkpt>
      <trkpt lat="43.6941" lon="6.0346">
        <ele>369.4</ele>
        <time>2023-06-11T13:30:54Z</time>
      </trkpt>
      <trkpt lat="43.6941" lon="6.03462">
        <ele>369.3</ele>
        <time>2023-06-11T13:30:55Z</time>
      </trkpt>
      <trkpt lat="43.69411" lon="6.03464">
        <ele>369.3</ele>
        <time>2023-06-11T13:30:56Z</time>
      </trkpt>
      <trkpt lat="43.69411" lon="6.03465">
        <ele>369.2</ele>
        <time>2023-06-11T13:30:57Z</time>
      </trkpt>
      <trkpt lat="43.69412" lon="6.03467">
        <ele>369.2</ele>
        <time>2023-06-11T13:30:58Z</time>
      </trkpt>
      <trkpt lat="43.69412" lon="6.03468">
        <ele>369.2</ele>
        <time>2023-06-11T13:30:59Z</time>
      </trkpt>
      <trkpt lat="43.69413" lon="6.0347">
        <ele>369.2</ele>
        <time>2023-06-11T13:31:00Z</time>
      </trkpt>
      <trkpt lat="43.69413" lon="6.03471">
        <ele>369.2</ele>
        <time>2023-06-11T13:31:01Z</time>
      </trkpt>
      <trkpt lat="43.69413" lon="6.03472">
        <ele>369.2</ele>
        <time>2023-06-11T13:31:02Z</time>
      </trkpt>
      <trkpt lat="43.69414" lon="6.03474">
        <ele>369.2</ele>
        <time>2023-06-11T13:31:03Z</time>
      </trkpt>
      <trkpt lat="43.69414" lon="6.03475">
        <ele>369.2</ele>
        <time>2023-06-11T13:31:04Z</time>
      </trkpt>
      <trkpt lat="43.69414" lon="6.03476">
        <ele>369.2</ele>
        <time>2023-06-11T13:31:05Z</time>
      </trkpt>
      <trkpt lat="43.69415" lon="6.03478">
        <ele>369.2</ele>
        <time>2023-06-11T13:31:06Z</time>
      </trkpt>
      <trkpt lat="43.69416" lon="6.03479">
        <ele>369.3</ele>
        <time>2023-06-11T13:31:07Z</time>
      </trkpt>
      <trkpt lat="43.69416" lon="6.03481">
        <ele>369.3</ele>
        <time>2023-06-11T13:31:08Z</time>
      </trkpt>
      <trkpt lat="43.69416" lon="6.03483">
        <ele>369.4</ele>
        <time>2023-06-11T13:31:09Z</time>
      </trkpt>
      <trkpt lat="43.69417" lon="6.03485">
        <ele>369.4</ele>
        <time>2023-06-11T13:31:10Z</time>
      </trkpt>
      <trkpt lat="43.69417" lon="6.03487">
        <ele>369.3</ele>
        <time>2023-06-11T13:31:11Z</time>
      </trkpt>
      <trkpt lat="43.69418" lon="6.03489">
        <ele>369.3</ele>
        <time>2023-06-11T13:31:12Z</time>
      </trkpt>
      <trkpt lat="43.69419" lon="6.0349">
        <ele>369.2</ele>
        <time>2023-06-11T13:31:13Z</time>
      </trkpt>
      <trkpt lat="43.69419" lon="6.03492">
        <ele>369.2</ele>
        <time>2023-06-11T13:31:14Z</time>
      </trkpt>
      <trkpt lat="43.69419" lon="6.03494">
        <ele>369.2</ele>
        <time>2023-06-11T13:31:15Z</time>
      </trkpt>
      <trkpt lat="43.6942" lon="6.03496">
        <ele>369.1</ele>
        <time>2023-06-11T13:31:16Z</time>
      </trkpt>
      <trkpt lat="43.6942" lon="6.03498">
        <ele>369.1</ele>
        <time>2023-06-11T13:31:17Z</time>
      </trkpt>
      <trkpt lat="43.6942" lon="6.035">
        <ele>369.1</ele>
        <time>2023-06-11T13:31:18Z</time>
      </trkpt>
      <trkpt lat="43.6942" lon="6.03501">
        <ele>369</ele>
        <time>2023-06-11T13:31:19Z</time>
      </trkpt>
      <trkpt lat="43.69421" lon="6.03503">
        <ele>369</ele>
        <time>2023-06-11T13:31:20Z</time>
      </trkpt>
      <trkpt lat="43.69421" lon="6.03504">
        <ele>369</ele>
        <time>2023-06-11T13:31:21Z</time>
      </trkpt>
      <trkpt lat="43.69421" lon="6.03506">
        <ele>369</ele>
        <time>2023-06-11T13:31:22Z</time>
      </trkpt>
      <trkpt lat="43.69422" lon="6.03508">
        <ele>369</ele>
        <time>2023-06-11T13:31:23Z</time>
      </trkpt>
      <trkpt lat="43.69422" lon="6.03509">
        <ele>369</ele>
        <time>2023-06-11T13:31:24Z</time>
      </trkpt>
      <trkpt lat="43.69423" lon="6.03511">
        <ele>369.1</ele>
        <time>2023-06-11T13:31:25Z</time>
      </trkpt>
      <trkpt lat="43.69423" lon="6.03513">
        <ele>369.1</ele>
        <time>2023-06-11T13:31:26Z</time>
      </trkpt>
      <trkpt lat="43.69424" lon="6.03514">
        <ele>369.1</ele>
        <time>2023-06-11T13:31:27Z</time>
      </trkpt>
      <trkpt lat="43.69424" lon="6.03516">
        <ele>369.2</ele>
        <time>2023-06-11T13:31:28Z</time>
      </trkpt>
      <trkpt lat="43.69424" lon="6.03518">
        <ele>369.2</ele>
        <time>2023-06-11T13:31:29Z</time>
      </trkpt>
      <trkpt lat="43.69425" lon="6.03519">
        <ele>369.2</ele>
        <time>2023-06-11T13:31:30Z</time>
      </trkpt>
      <trkpt lat="43.69426" lon="6.03521">
        <ele>369.2</ele>
        <time>2023-06-11T13:31:31Z</time>
      </trkpt>
      <trkpt lat="43.69426" lon="6.03523">
        <ele>369.3</ele>
        <time>2023-06-11T13:31:32Z</time>
      </trkpt>
      <trkpt lat="43.69426" lon="6.03525">
        <ele>369.3</ele>
        <time>2023-06-11T13:31:33Z</time>
      </trkpt>
      <trkpt lat="43.69427" lon="6.03527">
        <ele>369.4</ele>
        <time>2023-06-11T13:31:34Z</time>
      </trkpt>
      <trkpt lat="43.69427" lon="6.03529">
        <ele>369.4</ele>
        <time>2023-06-11T13:31:35Z</time>
      </trkpt>
      <trkpt lat="43.69428" lon="6.03531">
        <ele>369.4</ele>
        <time>2023-06-11T13:31:36Z</time>
      </trkpt>
      <trkpt lat="43.69428" lon="6.03532">
        <ele>369.3</ele>
        <time>2023-06-11T13:31:37Z</time>
      </trkpt>
      <trkpt lat="43.69429" lon="6.03534">
        <ele>369.3</ele>
        <time>2023-06-11T13:31:38Z</time>
      </trkpt>
      <trkpt lat="43.69429" lon="6.03535">
        <ele>369.2</ele>
        <time>2023-06-11T13:31:39Z</time>
      </trkpt>
      <trkpt lat="43.6943" lon="6.03537">
        <ele>369.3</ele>
        <time>2023-06-11T13:31:40Z</time>
      </trkpt>
      <trkpt lat="43.6943" lon="6.03539">
        <ele>369.3</ele>
        <time>2023-06-11T13:31:41Z</time>
      </trkpt>
      <trkpt lat="43.69431" lon="6.03541">
        <ele>369.3</ele>
        <time>2023-06-11T13:31:42Z</time>
      </trkpt>
      <trkpt lat="43.69431" lon="6.03543">
        <ele>369.2</ele>
        <time>2023-06-11T13:31:43Z</time>
      </trkpt>
      <trkpt lat="43.69432" lon="6.03545">
        <ele>369.2</ele>
        <time>2023-06-11T13:31:44Z</time>
      </trkpt>
      <trkpt lat="43.69432" lon="6.03547">
        <ele>369.2</ele>
        <time>2023-06-11T13:31:45Z</time>
      </trkpt>
      <trkpt lat="43.69433" lon="6.03549">
        <ele>369.2</ele>
        <time>2023-06-11T13:31:46Z</time>
      </trkpt>
      <trkpt lat="43.69433" lon="6.03551">
        <ele>369.1</ele>
        <time>2023-06-11T13:31:47Z</time>
      </trkpt>
      <trkpt lat="43.69434" lon="6.03553">
        <ele>369.1</ele>
        <time>2023-06-11T13:31:48Z</time>
      </trkpt>
      <trkpt lat="43.69435" lon="6.03555">
        <ele>369.1</ele>
        <time>2023-06-11T13:31:49Z</time>
      </trkpt>
      <trkpt lat="43.69435" lon="6.03557">
        <ele>369.1</ele>
        <time>2023-06-11T13:31:50Z</time>
      </trkpt>
      <trkpt lat="43.69436" lon="6.03559">
        <ele>369.1</ele>
        <time>2023-06-11T13:31:51Z</time>
      </trkpt>
      <trkpt lat="43.69437" lon="6.0356">
        <ele>369.2</ele>
        <time>2023-06-11T13:31:52Z</time>
      </trkpt>
      <trkpt lat="43.69438" lon="6.03562">
        <ele>369.3</ele>
        <time>2023-06-11T13:31:53Z</time>
      </trkpt>
      <trkpt lat="43.69439" lon="6.03564">
        <ele>369.3</ele>
        <time>2023-06-11T13:31:54Z</time>
      </trkpt>
      <trkpt lat="43.69439" lon="6.03566">
        <ele>369.3</ele>
        <time>2023-06-11T13:31:55Z</time>
      </trkpt>
      <trkpt lat="43.6944" lon="6.03568">
        <ele>369.4</ele>
        <time>2023-06-11T13:31:56Z</time>
      </trkpt>
      <trkpt lat="43.69441" lon="6.0357">
        <ele>369.4</ele>
        <time>2023-06-11T13:31:57Z</time>
      </trkpt>
      <trkpt lat="43.69442" lon="6.03572">
        <ele>369.4</ele>
        <time>2023-06-11T13:31:58Z</time>
      </trkpt>
      <trkpt lat="43.69443" lon="6.03574">
        <ele>369.4</ele>
        <time>2023-06-11T13:31:59Z</time>
      </trkpt>
      <trkpt lat="43.69443" lon="6.03576">
        <ele>369.4</ele>
        <time>2023-06-11T13:32:00Z</time>
      </trkpt>
      <trkpt lat="43.69444" lon="6.03578">
        <ele>369.5</ele>
        <time>2023-06-11T13:32:01Z</time>
      </trkpt>
      <trkpt lat="43.69445" lon="6.03579">
        <ele>369.5</ele>
        <time>2023-06-11T13:32:02Z</time>
      </trkpt>
      <trkpt lat="43.69446" lon="6.03581">
        <ele>369.5</ele>
        <time>2023-06-11T13:32:03Z</time>
      </trkpt>
      <trkpt lat="43.69446" lon="6.03583">
        <ele>369.5</ele>
        <time>2023-06-11T13:32:04Z</time>
      </trkpt>
      <trkpt lat="43.69447" lon="6.03585">
        <ele>369.5</ele>
        <time>2023-06-11T13:32:05Z</time>
      </trkpt>
      <trkpt lat="43.69448" lon="6.03587">
        <ele>369.5</ele>
        <time>2023-06-11T13:32:06Z</time>
      </trkpt>
      <trkpt lat="43.69448" lon="6.03589">
        <ele>369.6</ele>
        <time>2023-06-11T13:32:07Z</time>
      </trkpt>
      <trkpt lat="43.69449" lon="6.03591">
        <ele>369.5</ele>
        <time>2023-06-11T13:32:08Z</time>
      </trkpt>
      <trkpt lat="43.6945" lon="6.03593">
        <ele>369.5</ele>
        <time>2023-06-11T13:32:09Z</time>
      </trkpt>
      <trkpt lat="43.69451" lon="6.03594">
        <ele>369.5</ele>
        <time>2023-06-11T13:32:10Z</time>
      </trkpt>
      <trkpt lat="43.69452" lon="6.03596">
        <ele>369.5</ele>
        <time>2023-06-11T13:32:11Z</time>
      </trkpt>
      <trkpt lat="43.69452" lon="6.03598">
        <ele>369.5</ele>
        <time>2023-06-11T13:32:12Z</time>
      </trkpt>
      <trkpt lat="43.69453" lon="6.03599">
        <ele>369.6</ele>
        <time>2023-06-11T13:32:13Z</time>
      </trkpt>
      <trkpt lat="43.69454" lon="6.03601">
        <ele>369.6</ele>
        <time>2023-06-11T13:32:14Z</time>
      </trkpt>
      <trkpt lat="43.69455" lon="6.03603">
        <ele>369.5</ele>
        <time>2023-06-11T13:32:15Z</time>
      </trkpt>
      <trkpt lat="43.69456" lon="6.03604">
        <ele>369.5</ele>
        <time>2023-06-11T13:32:16Z</time>
      </trkpt>
      <trkpt lat="43.69456" lon="6.03606">
        <ele>369.5</ele>
        <time>2023-06-11T13:32:17Z</time>
      </trkpt>
      <trkpt lat="43.69457" lon="6.03607">
        <ele>369.5</ele>
        <time>2023-06-11T13:32:18Z</time>
      </trkpt>
      <trkpt lat="43.69458" lon="6.03609">
        <ele>369.4</ele>
        <time>2023-06-11T13:32:19Z</time>
      </trkpt>
      <trkpt lat="43.69459" lon="6.0361">
        <ele>369.5</ele>
        <time>2023-06-11T13:32:20Z</time>
      </trkpt>
      <trkpt lat="43.6946" lon="6.03611">
        <ele>369.5</ele>
        <time>2023-06-11T13:32:21Z</time>
      </trkpt>
      <trkpt lat="43.69461" lon="6.03613">
        <ele>369.5</ele>
        <time>2023-06-11T13:32:22Z</time>
      </trkpt>
      <trkpt lat="43.69462" lon="6.03614">
        <ele>369.6</ele>
        <time>2023-06-11T13:32:23Z</time>
      </trkpt>
      <trkpt lat="43.69463" lon="6.03615">
        <ele>369.6</ele>
        <time>2023-06-11T13:32:24Z</time>
      </trkpt>
      <trkpt lat="43.69464" lon="6.03616">
        <ele>369.6</ele>
        <time>2023-06-11T13:32:25Z</time>
      </trkpt>
      <trkpt lat="43.69465" lon="6.03617">
        <ele>369.6</ele>
        <time>2023-06-11T13:32:26Z</time>
      </trkpt>
      <trkpt lat="43.69466" lon="6.03619">
        <ele>369.6</ele>
        <time>2023-06-11T13:32:27Z</time>
      </trkpt>
      <trkpt lat="43.69467" lon="6.03621">
        <ele>369.5</ele>
        <time>2023-06-11T13:32:28Z</time>
      </trkpt>
      <trkpt lat="43.69468" lon="6.03623">
        <ele>369.4</ele>
        <time>2023-06-11T13:32:29Z</time>
      </trkpt>
      <trkpt lat="43.69469" lon="6.03625">
        <ele>369.4</ele>
        <time>2023-06-11T13:32:30Z</time>
      </trkpt>
      <trkpt lat="43.6947" lon="6.03627">
        <ele>369.4</ele>
        <time>2023-06-11T13:32:31Z</time>
      </trkpt>
      <trkpt lat="43.69471" lon="6.03628">
        <ele>369.3</ele>
        <time>2023-06-11T13:32:32Z</time>
      </trkpt>
      <trkpt lat="43.69472" lon="6.0363">
        <ele>369.3</ele>
        <time>2023-06-11T13:32:33Z</time>
      </trkpt>
      <trkpt lat="43.69473" lon="6.03632">
        <ele>369.2</ele>
        <time>2023-06-11T13:32:34Z</time>
      </trkpt>
      <trkpt lat="43.69474" lon="6.03634">
        <ele>369.2</ele>
        <time>2023-06-11T13:32:35Z</time>
      </trkpt>
      <trkpt lat="43.69475" lon="6.03636">
        <ele>369.1</ele>
        <time>2023-06-11T13:32:36Z</time>
      </trkpt>
      <trkpt lat="43.69476" lon="6.03638">
        <ele>369.2</ele>
        <time>2023-06-11T13:32:37Z</time>
      </trkpt>
      <trkpt lat="43.69477" lon="6.03639">
        <ele>369.2</ele>
        <time>2023-06-11T13:32:38Z</time>
      </trkpt>
      <trkpt lat="43.69478" lon="6.03641">
        <ele>369.2</ele>
        <time>2023-06-11T13:32:39Z</time>
      </trkpt>
      <trkpt lat="43.69479" lon="6.03643">
        <ele>369.1</ele>
        <time>2023-06-11T13:32:40Z</time>
      </trkpt>
      <trkpt lat="43.6948" lon="6.03645">
        <ele>369</ele>
        <time>2023-06-11T13:32:41Z</time>
      </trkpt>
      <trkpt lat="43.69481" lon="6.03647">
        <ele>368.9</ele>
        <time>2023-06-11T13:32:42Z</time>
      </trkpt>
      <trkpt lat="43.69482" lon="6.03648">
        <ele>368.9</ele>
        <time>2023-06-11T13:32:43Z</time>
      </trkpt>
      <trkpt lat="43.69483" lon="6.0365">
        <ele>368.9</ele>
        <time>2023-06-11T13:32:44Z</time>
      </trkpt>
      <trkpt lat="43.69484" lon="6.03652">
        <ele>368.9</ele>
        <time>2023-06-11T13:32:45Z</time>
      </trkpt>
      <trkpt lat="43.69485" lon="6.03654">
        <ele>368.9</ele>
        <time>2023-06-11T13:32:46Z</time>
      </trkpt>
      <trkpt lat="43.69485" lon="6.03656">
        <ele>369</ele>
        <time>2023-06-11T13:32:47Z</time>
      </trkpt>
      <trkpt lat="43.69486" lon="6.03657">
        <ele>369</ele>
        <time>2023-06-11T13:32:48Z</time>
      </trkpt>
      <trkpt lat="43.69487" lon="6.03659">
        <ele>369.1</ele>
        <time>2023-06-11T13:32:49Z</time>
      </trkpt>
      <trkpt lat="43.69488" lon="6.03661">
        <ele>369.2</ele>
        <time>2023-06-11T13:32:50Z</time>
      </trkpt>
      <trkpt lat="43.69489" lon="6.03662">
        <ele>369.3</ele>
        <time>2023-06-11T13:32:51Z</time>
      </trkpt>
      <trkpt lat="43.6949" lon="6.03664">
        <ele>369.3</ele>
        <time>2023-06-11T13:32:52Z</time>
      </trkpt>
      <trkpt lat="43.69491" lon="6.03666">
        <ele>369.3</ele>
        <time>2023-06-11T13:32:53Z</time>
      </trkpt>
      <trkpt lat="43.69491" lon="6.03667">
        <ele>369.4</ele>
        <time>2023-06-11T13:32:54Z</time>
      </trkpt>
      <trkpt lat="43.69492" lon="6.03669">
        <ele>369.4</ele>
        <time>2023-06-11T13:32:55Z</time>
      </trkpt>
      <trkpt lat="43.69493" lon="6.03671">
        <ele>369.4</ele>
        <time>2023-06-11T13:32:56Z</time>
      </trkpt>
      <trkpt lat="43.69494" lon="6.03672">
        <ele>369.4</ele>
        <time>2023-06-11T13:32:57Z</time>
      </trkpt>
      <trkpt lat="43.69495" lon="6.03674">
        <ele>369.4</ele>
        <time>2023-06-11T13:32:58Z</time>
      </trkpt>
      <trkpt lat="43.69496" lon="6.03676">
        <ele>369.4</ele>
        <time>2023-06-11T13:32:59Z</time>
      </trkpt>
      <trkpt lat="43.69497" lon="6.03677">
        <ele>369.3</ele>
        <time>2023-06-11T13:33:00Z</time>
      </trkpt>
      <trkpt lat="43.69497" lon="6.03679">
        <ele>369.3</ele>
        <time>2023-06-11T13:33:01Z</time>
      </trkpt>
      <trkpt lat="43.69498" lon="6.0368">
        <ele>369.2</ele>
        <time>2023-06-11T13:33:02Z</time>
      </trkpt>
      <trkpt lat="43.69499" lon="6.03682">
        <ele>369.2</ele>
        <time>2023-06-11T13:33:03Z</time>
      </trkpt>
      <trkpt lat="43.695" lon="6.03683">
        <ele>369.2</ele>
        <time>2023-06-11T13:33:04Z</time>
      </trkpt>
      <trkpt lat="43.69501" lon="6.03684">
        <ele>369.2</ele>
        <time>2023-06-11T13:33:05Z</time>
      </trkpt>
      <trkpt lat="43.69501" lon="6.03686">
        <ele>369.2</ele>
        <time>2023-06-11T13:33:06Z</time>
      </trkpt>
      <trkpt lat="43.69502" lon="6.03687">
        <ele>369.3</ele>
        <time>2023-06-11T13:33:07Z</time>
      </trkpt>
      <trkpt lat="43.69503" lon="6.03689">
        <ele>369.3</ele>
        <time>2023-06-11T13:33:08Z</time>
      </trkpt>
      <trkpt lat="43.69504" lon="6.0369">
        <ele>369.3</ele>
        <time>2023-06-11T13:33:09Z</time>
      </trkpt>
      <trkpt lat="43.69505" lon="6.03692">
        <ele>369.2</ele>
        <time>2023-06-11T13:33:10Z</time>
      </trkpt>
      <trkpt lat="43.69505" lon="6.03693">
        <ele>369.3</ele>
        <time>2023-06-11T13:33:11Z</time>
      </trkpt>
      <trkpt lat="43.69506" lon="6.03695">
        <ele>369.3</ele>
        <time>2023-06-11T13:33:12Z</time>
      </trkpt>
      <trkpt lat="43.69506" lon="6.03697">
        <ele>369.3</ele>
        <time>2023-06-11T13:33:13Z</time>
      </trkpt>
      <trkpt lat="43.69507" lon="6.03698">
        <ele>369.2</ele>
        <time>2023-06-11T13:33:14Z</time>
      </trkpt>
      <trkpt lat="43.69508" lon="6.037">
        <ele>369.2</ele>
        <time>2023-06-11T13:33:15Z</time>
      </trkpt>
      <trkpt lat="43.69508" lon="6.03702">
        <ele>369.2</ele>
        <time>2023-06-11T13:33:16Z</time>
      </trkpt>
      <trkpt lat="43.69509" lon="6.03703">
        <ele>369.3</ele>
        <time>2023-06-11T13:33:17Z</time>
      </trkpt>
      <trkpt lat="43.6951" lon="6.03705">
        <ele>369.3</ele>
        <time>2023-06-11T13:33:18Z</time>
      </trkpt>
      <trkpt lat="43.6951" lon="6.03706">
        <ele>369.2</ele>
        <time>2023-06-11T13:33:19Z</time>
      </trkpt>
      <trkpt lat="43.69511" lon="6.03708">
        <ele>369.2</ele>
        <time>2023-06-11T13:33:20Z</time>
      </trkpt>
      <trkpt lat="43.69512" lon="6.03709">
        <ele>369.1</ele>
        <time>2023-06-11T13:33:21Z</time>
      </trkpt>
      <trkpt lat="43.69512" lon="6.03711">
        <ele>369.1</ele>
        <time>2023-06-11T13:33:22Z</time>
      </trkpt>
      <trkpt lat="43.69513" lon="6.03712">
        <ele>369.1</ele>
        <time>2023-06-11T13:33:23Z</time>
      </trkpt>
      <trkpt lat="43.69514" lon="6.03714">
        <ele>369.1</ele>
        <time>2023-06-11T13:33:24Z</time>
      </trkpt>
      <trkpt lat="43.69515" lon="6.03716">
        <ele>369.1</ele>
        <time>2023-06-11T13:33:25Z</time>
      </trkpt>
      <trkpt lat="43.69515" lon="6.03717">
        <ele>369.1</ele>
        <time>2023-06-11T13:33:26Z</time>
      </trkpt>
      <trkpt lat="43.69516" lon="6.03719">
        <ele>369.1</ele>
        <time>2023-06-11T13:33:27Z</time>
      </trkpt>
      <trkpt lat="43.69517" lon="6.03721">
        <ele>369.1</ele>
        <time>2023-06-11T13:33:28Z</time>
      </trkpt>
      <trkpt lat="43.69518" lon="6.03722">
        <ele>369.1</ele>
        <time>2023-06-11T13:33:29Z</time>
      </trkpt>
      <trkpt lat="43.69518" lon="6.03724">
        <ele>369.1</ele>
        <time>2023-06-11T13:33:30Z</time>
      </trkpt>
      <trkpt lat="43.69519" lon="6.03726">
        <ele>369.2</ele>
        <time>2023-06-11T13:33:31Z</time>
      </trkpt>
      <trkpt lat="43.6952" lon="6.03727">
        <ele>369.2</ele>
        <time>2023-06-11T13:33:32Z</time>
      </trkpt>
      <trkpt lat="43.69521" lon="6.03728">
        <ele>369.1</ele>
        <time>2023-06-11T13:33:33Z</time>
      </trkpt>
      <trkpt lat="43.69522" lon="6.0373">
        <ele>369.1</ele>
        <time>2023-06-11T13:33:34Z</time>
      </trkpt>
      <trkpt lat="43.69523" lon="6.03732">
        <ele>369.2</ele>
        <time>2023-06-11T13:33:35Z</time>
      </trkpt>
      <trkpt lat="43.69523" lon="6.03734">
        <ele>369.2</ele>
        <time>2023-06-11T13:33:36Z</time>
      </trkpt>
      <trkpt lat="43.69524" lon="6.03735">
        <ele>369.2</ele>
        <time>2023-06-11T13:33:37Z</time>
      </trkpt>
      <trkpt lat="43.69525" lon="6.03737">
        <ele>369.3</ele>
        <time>2023-06-11T13:33:38Z</time>
      </trkpt>
      <trkpt lat="43.69525" lon="6.03739">
        <ele>369.4</ele>
        <time>2023-06-11T13:33:39Z</time>
      </trkpt>
      <trkpt lat="43.69526" lon="6.03741">
        <ele>369.4</ele>
        <time>2023-06-11T13:33:40Z</time>
      </trkpt>
      <trkpt lat="43.69526" lon="6.03742">
        <ele>369.5</ele>
        <time>2023-06-11T13:33:41Z</time>
      </trkpt>
      <trkpt lat="43.69527" lon="6.03744">
        <ele>369.5</ele>
        <time>2023-06-11T13:33:42Z</time>
      </trkpt>
      <trkpt lat="43.69527" lon="6.03746">
        <ele>369.5</ele>
        <time>2023-06-11T13:33:43Z</time>
      </trkpt>
      <trkpt lat="43.69528" lon="6.03748">
        <ele>369.5</ele>
        <time>2023-06-11T13:33:44Z</time>
      </trkpt>
      <trkpt lat="43.69529" lon="6.03749">
        <ele>369.6</ele>
        <time>2023-06-11T13:33:45Z</time>
      </trkpt>
      <trkpt lat="43.69529" lon="6.03751">
        <ele>369.6</ele>
        <time>2023-06-11T13:33:46Z</time>
      </trkpt>
      <trkpt lat="43.6953" lon="6.03753">
        <ele>369.6</ele>
        <time>2023-06-11T13:33:47Z</time>
      </trkpt>
      <trkpt lat="43.69531" lon="6.03754">
        <ele>369.6</ele>
        <time>2023-06-11T13:33:48Z</time>
      </trkpt>
      <trkpt lat="43.69531" lon="6.03756">
        <ele>369.6</ele>
        <time>2023-06-11T13:33:49Z</time>
      </trkpt>
      <trkpt lat="43.69532" lon="6.03758">
        <ele>369.6</ele>
        <time>2023-06-11T13:33:50Z</time>
      </trkpt>
      <trkpt lat="43.69533" lon="6.03759">
        <ele>369.7</ele>
        <time>2023-06-11T13:33:51Z</time>
      </trkpt>
      <trkpt lat="43.69534" lon="6.03761">
        <ele>369.7</ele>
        <time>2023-06-11T13:33:52Z</time>
      </trkpt>
      <trkpt lat="43.69535" lon="6.03762">
        <ele>369.7</ele>
        <time>2023-06-11T13:33:53Z</time>
      </trkpt>
      <trkpt lat="43.69535" lon="6.03764">
        <ele>369.8</ele>
        <time>2023-06-11T13:33:54Z</time>
      </trkpt>
      <trkpt lat="43.69536" lon="6.03765">
        <ele>369.8</ele>
        <time>2023-06-11T13:33:55Z</time>
      </trkpt>
      <trkpt lat="43.69537" lon="6.03767">
        <ele>369.8</ele>
        <time>2023-06-11T13:33:56Z</time>
      </trkpt>
      <trkpt lat="43.69537" lon="6.03769">
        <ele>369.7</ele>
        <time>2023-06-11T13:33:57Z</time>
      </trkpt>
      <trkpt lat="43.69538" lon="6.03771">
        <ele>369.6</ele>
        <time>2023-06-11T13:33:58Z</time>
      </trkpt>
      <trkpt lat="43.69539" lon="6.03772">
        <ele>369.6</ele>
        <time>2023-06-11T13:33:59Z</time>
      </trkpt>
      <trkpt lat="43.6954" lon="6.03774">
        <ele>369.6</ele>
        <time>2023-06-11T13:34:00Z</time>
      </trkpt>
      <trkpt lat="43.69541" lon="6.03775">
        <ele>369.5</ele>
        <time>2023-06-11T13:34:01Z</time>
      </trkpt>
      <trkpt lat="43.69542" lon="6.03777">
        <ele>369.5</ele>
        <time>2023-06-11T13:34:02Z</time>
      </trkpt>
      <trkpt lat="43.69542" lon="6.03779">
        <ele>369.5</ele>
        <time>2023-06-11T13:34:03Z</time>
      </trkpt>
      <trkpt lat="43.69543" lon="6.0378">
        <ele>369.5</ele>
        <time>2023-06-11T13:34:04Z</time>
      </trkpt>
      <trkpt lat="43.69544" lon="6.03782">
        <ele>369.6</ele>
        <time>2023-06-11T13:34:05Z</time>
      </trkpt>
      <trkpt lat="43.69544" lon="6.03784">
        <ele>369.7</ele>
        <time>2023-06-11T13:34:06Z</time>
      </trkpt>
      <trkpt lat="43.69545" lon="6.03785">
        <ele>369.8</ele>
        <time>2023-06-11T13:34:07Z</time>
      </trkpt>
      <trkpt lat="43.69546" lon="6.03787">
        <ele>369.8</ele>
        <time>2023-06-11T13:34:08Z</time>
      </trkpt>
      <trkpt lat="43.69547" lon="6.03789">
        <ele>369.9</ele>
        <time>2023-06-11T13:34:09Z</time>
      </trkpt>
      <trkpt lat="43.69547" lon="6.0379">
        <ele>369.9</ele>
        <time>2023-06-11T13:34:10Z</time>
      </trkpt>
      <trkpt lat="43.69548" lon="6.03792">
        <ele>369.9</ele>
        <time>2023-06-11T13:34:11Z</time>
      </trkpt>
      <trkpt lat="43.69548" lon="6.03794">
        <ele>369.9</ele>
        <time>2023-06-11T13:34:12Z</time>
      </trkpt>
      <trkpt lat="43.69549" lon="6.03796">
        <ele>370</ele>
        <time>2023-06-11T13:34:13Z</time>
      </trkpt>
      <trkpt lat="43.69549" lon="6.03797">
        <ele>370</ele>
        <time>2023-06-11T13:34:14Z</time>
      </trkpt>
      <trkpt lat="43.6955" lon="6.03799">
        <ele>370</ele>
        <time>2023-06-11T13:34:15Z</time>
      </trkpt>
      <trkpt lat="43.6955" lon="6.03801">
        <ele>370</ele>
        <time>2023-06-11T13:34:16Z</time>
      </trkpt>
      <trkpt lat="43.6955" lon="6.03803">
        <ele>369.9</ele>
        <time>2023-06-11T13:34:17Z</time>
      </trkpt>
      <trkpt lat="43.69551" lon="6.03804">
        <ele>369.9</ele>
        <time>2023-06-11T13:34:18Z</time>
      </trkpt>
      <trkpt lat="43.69551" lon="6.03806">
        <ele>369.8</ele>
        <time>2023-06-11T13:34:19Z</time>
      </trkpt>
      <trkpt lat="43.69551" lon="6.03808">
        <ele>369.8</ele>
        <time>2023-06-11T13:34:20Z</time>
      </trkpt>
      <trkpt lat="43.69552" lon="6.0381">
        <ele>369.9</ele>
        <time>2023-06-11T13:34:21Z</time>
      </trkpt>
      <trkpt lat="43.69553" lon="6.03811">
        <ele>369.8</ele>
        <time>2023-06-11T13:34:22Z</time>
      </trkpt>
      <trkpt lat="43.69553" lon="6.03813">
        <ele>369.9</ele>
        <time>2023-06-11T13:34:23Z</time>
      </trkpt>
      <trkpt lat="43.69553" lon="6.03815">
        <ele>369.8</ele>
        <time>2023-06-11T13:34:24Z</time>
      </trkpt>
      <trkpt lat="43.69553" lon="6.03817">
        <ele>369.9</ele>
        <time>2023-06-11T13:34:25Z</time>
      </trkpt>
      <trkpt lat="43.69553" lon="6.03818">
        <ele>370</ele>
        <time>2023-06-11T13:34:26Z</time>
      </trkpt>
      <trkpt lat="43.69554" lon="6.0382">
        <ele>370</ele>
        <time>2023-06-11T13:34:27Z</time>
      </trkpt>
      <trkpt lat="43.69554" lon="6.03822">
        <ele>369.9</ele>
        <time>2023-06-11T13:34:28Z</time>
      </trkpt>
      <trkpt lat="43.69554" lon="6.03824">
        <ele>369.9</ele>
        <time>2023-06-11T13:34:29Z</time>
      </trkpt>
      <trkpt lat="43.69554" lon="6.03826">
        <ele>369.9</ele>
        <time>2023-06-11T13:34:30Z</time>
      </trkpt>
      <trkpt lat="43.69554" lon="6.03827">
        <ele>369.9</ele>
        <time>2023-06-11T13:34:31Z</time>
      </trkpt>
      <trkpt lat="43.69555" lon="6.03829">
        <ele>369.9</ele>
        <time>2023-06-11T13:34:32Z</time>
      </trkpt>
      <trkpt lat="43.69555" lon="6.03831">
        <ele>370</ele>
        <time>2023-06-11T13:34:33Z</time>
      </trkpt>
      <trkpt lat="43.69555" lon="6.03833">
        <ele>370</ele>
        <time>2023-06-11T13:34:34Z</time>
      </trkpt>
      <trkpt lat="43.69555" lon="6.03835">
        <ele>370.1</ele>
        <time>2023-06-11T13:34:35Z</time>
      </trkpt>
      <trkpt lat="43.69555" lon="6.03836">
        <ele>370.1</ele>
        <time>2023-06-11T13:34:36Z</time>
      </trkpt>
      <trkpt lat="43.69555" lon="6.03838">
        <ele>370.1</ele>
        <time>2023-06-11T13:34:37Z</time>
      </trkpt>
      <trkpt lat="43.69555" lon="6.0384">
        <ele>370</ele>
        <time>2023-06-11T13:34:38Z</time>
      </trkpt>
      <trkpt lat="43.69556" lon="6.03842">
        <ele>370</ele>
        <time>2023-06-11T13:34:39Z</time>
      </trkpt>
      <trkpt lat="43.69556" lon="6.03844">
        <ele>370</ele>
        <time>2023-06-11T13:34:40Z</time>
      </trkpt>
      <trkpt lat="43.69556" lon="6.03846">
        <ele>370</ele>
        <time>2023-06-11T13:34:41Z</time>
      </trkpt>
      <trkpt lat="43.69556" lon="6.03848">
        <ele>370.1</ele>
        <time>2023-06-11T13:34:42Z</time>
      </trkpt>
      <trkpt lat="43.69556" lon="6.0385">
        <ele>370.1</ele>
        <time>2023-06-11T13:34:43Z</time>
      </trkpt>
      <trkpt lat="43.69556" lon="6.03852">
        <ele>370.1</ele>
        <time>2023-06-11T13:34:44Z</time>
      </trkpt>
      <trkpt lat="43.69556" lon="6.03853">
        <ele>370.1</ele>
        <time>2023-06-11T13:34:45Z</time>
      </trkpt>
      <trkpt lat="43.69556" lon="6.03855">
        <ele>370.2</ele>
        <time>2023-06-11T13:34:46Z</time>
      </trkpt>
      <trkpt lat="43.69555" lon="6.03857">
        <ele>370.2</ele>
        <time>2023-06-11T13:34:47Z</time>
      </trkpt>
      <trkpt lat="43.69555" lon="6.03859">
        <ele>370.2</ele>
        <time>2023-06-11T13:34:48Z</time>
      </trkpt>
      <trkpt lat="43.69554" lon="6.03861">
        <ele>370.2</ele>
        <time>2023-06-11T13:34:49Z</time>
      </trkpt>
      <trkpt lat="43.69554" lon="6.03862">
        <ele>370.1</ele>
        <time>2023-06-11T13:34:50Z</time>
      </trkpt>
      <trkpt lat="43.69553" lon="6.03864">
        <ele>370.2</ele>
        <time>2023-06-11T13:34:51Z</time>
      </trkpt>
      <trkpt lat="43.69553" lon="6.03865">
        <ele>370.2</ele>
        <time>2023-06-11T13:34:52Z</time>
      </trkpt>
      <trkpt lat="43.69552" lon="6.03867">
        <ele>370.2</ele>
        <time>2023-06-11T13:34:53Z</time>
      </trkpt>
      <trkpt lat="43.69552" lon="6.03869">
        <ele>370.2</ele>
        <time>2023-06-11T13:34:54Z</time>
      </trkpt>
      <trkpt lat="43.69552" lon="6.0387">
        <ele>370.2</ele>
        <time>2023-06-11T13:34:55Z</time>
      </trkpt>
      <trkpt lat="43.69551" lon="6.03872">
        <ele>370.2</ele>
        <time>2023-06-11T13:34:56Z</time>
      </trkpt>
      <trkpt lat="43.69551" lon="6.03874">
        <ele>370.1</ele>
        <time>2023-06-11T13:34:57Z</time>
      </trkpt>
      <trkpt lat="43.6955" lon="6.03876">
        <ele>370.2</ele>
        <time>2023-06-11T13:34:58Z</time>
      </trkpt>
      <trkpt lat="43.6955" lon="6.03878">
        <ele>370.2</ele>
        <time>2023-06-11T13:34:59Z</time>
      </trkpt>
      <trkpt lat="43.69549" lon="6.03879">
        <ele>370.2</ele>
        <time>2023-06-11T13:35:00Z</time>
      </trkpt>
      <trkpt lat="43.69549" lon="6.03881">
        <ele>370.2</ele>
        <time>2023-06-11T13:35:01Z</time>
      </trkpt>
      <trkpt lat="43.69549" lon="6.03883">
        <ele>370.1</ele>
        <time>2023-06-11T13:35:02Z</time>
      </trkpt>
      <trkpt lat="43.69548" lon="6.03885">
        <ele>370</ele>
        <time>2023-06-11T13:35:03Z</time>
      </trkpt>
      <trkpt lat="43.69547" lon="6.03887">
        <ele>370</ele>
        <time>2023-06-11T13:35:04Z</time>
      </trkpt>
      <trkpt lat="43.69547" lon="6.03888">
        <ele>370</ele>
        <time>2023-06-11T13:35:05Z</time>
      </trkpt>
      <trkpt lat="43.69546" lon="6.0389">
        <ele>370</ele>
        <time>2023-06-11T13:35:06Z</time>
      </trkpt>
      <trkpt lat="43.69546" lon="6.03892">
        <ele>370</ele>
        <time>2023-06-11T13:35:07Z</time>
      </trkpt>
      <trkpt lat="43.69545" lon="6.03893">
        <ele>370.1</ele>
        <time>2023-06-11T13:35:08Z</time>
      </trkpt>
      <trkpt lat="43.69544" lon="6.03895">
        <ele>370</ele>
        <time>2023-06-11T13:35:09Z</time>
      </trkpt>
      <trkpt lat="43.69543" lon="6.03896">
        <ele>370</ele>
        <time>2023-06-11T13:35:10Z</time>
      </trkpt>
      <trkpt lat="43.69542" lon="6.03898">
        <ele>370</ele>
        <time>2023-06-11T13:35:11Z</time>
      </trkpt>
      <trkpt lat="43.69541" lon="6.03899">
        <ele>369.9</ele>
        <time>2023-06-11T13:35:12Z</time>
      </trkpt>
      <trkpt lat="43.6954" lon="6.039">
        <ele>369.9</ele>
        <time>2023-06-11T13:35:13Z</time>
      </trkpt>
      <trkpt lat="43.6954" lon="6.03902">
        <ele>369.9</ele>
        <time>2023-06-11T13:35:14Z</time>
      </trkpt>
      <trkpt lat="43.69539" lon="6.03903">
        <ele>369.9</ele>
        <time>2023-06-11T13:35:15Z</time>
      </trkpt>
      <trkpt lat="43.69538" lon="6.03905">
        <ele>369.9</ele>
        <time>2023-06-11T13:35:16Z</time>
      </trkpt>
      <trkpt lat="43.69538" lon="6.03906">
        <ele>369.9</ele>
        <time>2023-06-11T13:35:17Z</time>
      </trkpt>
      <trkpt lat="43.69537" lon="6.03908">
        <ele>369.8</ele>
        <time>2023-06-11T13:35:18Z</time>
      </trkpt>
      <trkpt lat="43.69536" lon="6.03909">
        <ele>369.8</ele>
        <time>2023-06-11T13:35:19Z</time>
      </trkpt>
      <trkpt lat="43.69535" lon="6.03911">
        <ele>369.7</ele>
        <time>2023-06-11T13:35:20Z</time>
      </trkpt>
      <trkpt lat="43.69535" lon="6.03912">
        <ele>369.7</ele>
        <time>2023-06-11T13:35:21Z</time>
      </trkpt>
      <trkpt lat="43.69534" lon="6.03913">
        <ele>369.7</ele>
        <time>2023-06-11T13:35:22Z</time>
      </trkpt>
      <trkpt lat="43.69533" lon="6.03914">
        <ele>369.6</ele>
        <time>2023-06-11T13:35:23Z</time>
      </trkpt>
      <trkpt lat="43.69532" lon="6.03916">
        <ele>369.6</ele>
        <time>2023-06-11T13:35:24Z</time>
      </trkpt>
      <trkpt lat="43.69532" lon="6.03917">
        <ele>369.7</ele>
        <time>2023-06-11T13:35:25Z</time>
      </trkpt>
      <trkpt lat="43.69531" lon="6.03918">
        <ele>369.7</ele>
        <time>2023-06-11T13:35:26Z</time>
      </trkpt>
      <trkpt lat="43.6953" lon="6.03919">
        <ele>369.8</ele>
        <time>2023-06-11T13:35:27Z</time>
      </trkpt>
      <trkpt lat="43.6953" lon="6.0392">
        <ele>369.9</ele>
        <time>2023-06-11T13:35:28Z</time>
      </trkpt>
      <trkpt lat="43.69529" lon="6.03921">
        <ele>369.9</ele>
        <time>2023-06-11T13:35:29Z</time>
      </trkpt>
      <trkpt lat="43.69528" lon="6.03921">
        <ele>369.9</ele>
        <time>2023-06-11T13:35:30Z</time>
      </trkpt>
      <trkpt lat="43.69528" lon="6.03922">
        <ele>369.9</ele>
        <time>2023-06-11T13:35:31Z</time>
      </trkpt>
      <trkpt lat="43.69528" lon="6.03923">
        <ele>369.9</ele>
        <time>2023-06-11T13:35:32Z</time>
      </trkpt>
      <trkpt lat="43.69527" lon="6.03924">
        <ele>369.9</ele>
        <time>2023-06-11T13:35:33Z</time>
      </trkpt>
      <trkpt lat="43.69527" lon="6.03925">
        <ele>369.9</ele>
        <time>2023-06-11T13:35:34Z</time>
      </trkpt>
      <trkpt lat="43.69527" lon="6.03926">
        <ele>369.9</ele>
        <time>2023-06-11T13:35:35Z</time>
      </trkpt>
      <trkpt lat="43.69526" lon="6.03927">
        <ele>370</ele>
        <time>2023-06-11T13:35:36Z</time>
      </trkpt>
      <trkpt lat="43.69526" lon="6.03928">
        <ele>370.1</ele>
        <time>2023-06-11T13:35:37Z</time>
      </trkpt>
      <trkpt lat="43.69525" lon="6.03928">
        <ele>370.2</ele>
        <time>2023-06-11T13:35:38Z</time>
      </trkpt>
      <trkpt lat="43.69525" lon="6.03929">
        <ele>370.2</ele>
        <time>2023-06-11T13:35:39Z</time>
      </trkpt>
      <trkpt lat="43.69525" lon="6.03929">
        <ele>370.3</ele>
        <time>2023-06-11T13:35:40Z</time>
      </trkpt>
      <trkpt lat="43.69524" lon="6.03929">
        <ele>370.3</ele>
        <time>2023-06-11T13:35:41Z</time>
      </trkpt>
      <trkpt lat="43.69524" lon="6.0393">
        <ele>370.3</ele>
        <time>2023-06-11T13:35:42Z</time>
      </trkpt>
      <trkpt lat="43.69523" lon="6.0393">
        <ele>370.3</ele>
        <time>2023-06-11T13:35:43Z</time>
      </trkpt>
      <trkpt lat="43.69523" lon="6.03931">
        <ele>370.4</ele>
        <time>2023-06-11T13:35:44Z</time>
      </trkpt>
      <trkpt lat="43.69522" lon="6.03931">
        <ele>370.3</ele>
        <time>2023-06-11T13:35:45Z</time>
      </trkpt>
      <trkpt lat="43.69522" lon="6.03932">
        <ele>370.2</ele>
        <time>2023-06-11T13:35:46Z</time>
      </trkpt>
      <trkpt lat="43.69521" lon="6.03932">
        <ele>370.2</ele>
        <time>2023-06-11T13:35:47Z</time>
      </trkpt>
      <trkpt lat="43.69521" lon="6.03933">
        <ele>370.2</ele>
        <time>2023-06-11T13:35:48Z</time>
      </trkpt>
      <trkpt lat="43.6952" lon="6.03933">
        <ele>370.2</ele>
        <time>2023-06-11T13:35:49Z</time>
      </trkpt>
      <trkpt lat="43.69519" lon="6.03934">
        <ele>370.2</ele>
        <time>2023-06-11T13:35:50Z</time>
      </trkpt>
      <trkpt lat="43.69519" lon="6.03934">
        <ele>370.2</ele>
        <time>2023-06-11T13:35:51Z</time>
      </trkpt>
      <trkpt lat="43.69518" lon="6.03934">
        <ele>370.2</ele>
        <time>2023-06-11T13:35:52Z</time>
      </trkpt>
      <trkpt lat="43.69518" lon="6.03935">
        <ele>370.1</ele>
        <time>2023-06-11T13:35:53Z</time>
      </trkpt>
      <trkpt lat="43.69517" lon="6.03935">
        <ele>370.1</ele>
        <time>2023-06-11T13:35:54Z</time>
      </trkpt>
      <trkpt lat="43.69516" lon="6.03936">
        <ele>370.2</ele>
        <time>2023-06-11T13:35:55Z</time>
      </trkpt>
      <trkpt lat="43.69516" lon="6.03936">
        <ele>370.2</ele>
        <time>2023-06-11T13:35:56Z</time>
      </trkpt>
      <trkpt lat="43.69515" lon="6.03936">
        <ele>370.2</ele>
        <time>2023-06-11T13:35:57Z</time>
      </trkpt>
      <trkpt lat="43.69515" lon="6.03936">
        <ele>370.2</ele>
        <time>2023-06-11T13:35:58Z</time>
      </trkpt>
      <trkpt lat="43.69515" lon="6.03936">
        <ele>370.1</ele>
        <time>2023-06-11T13:35:59Z</time>
      </trkpt>
      <trkpt lat="43.69515" lon="6.03936">
        <ele>370.1</ele>
        <time>2023-06-11T13:36:00Z</time>
      </trkpt>
      <trkpt lat="43.69514" lon="6.03936">
        <ele>370</ele>
        <time>2023-06-11T13:36:01Z</time>
      </trkpt>
      <trkpt lat="43.69514" lon="6.03936">
        <ele>370.1</ele>
        <time>2023-06-11T13:36:02Z</time>
      </trkpt>
      <trkpt lat="43.69514" lon="6.03937">
        <ele>370.1</ele>
        <time>2023-06-11T13:36:03Z</time>
      </trkpt>
      <trkpt lat="43.69513" lon="6.03937">
        <ele>370.1</ele>
        <time>2023-06-11T13:36:04Z</time>
      </trkpt>
      <trkpt lat="43.69513" lon="6.03937">
        <ele>370</ele>
        <time>2023-06-11T13:36:05Z</time>
      </trkpt>
      <trkpt lat="43.69513" lon="6.03937">
        <ele>370</ele>
        <time>2023-06-11T13:36:06Z</time>
      </trkpt>
      <trkpt lat="43.69513" lon="6.03937">
        <ele>370</ele>
        <time>2023-06-11T13:36:07Z</time>
      </trkpt>
      <trkpt lat="43.69513" lon="6.03938">
        <ele>370</ele>
        <time>2023-06-11T13:36:08Z</time>
      </trkpt>
      <trkpt lat="43.69513" lon="6.03938">
        <ele>370</ele>
        <time>2023-06-11T13:36:09Z</time>
      </trkpt>
      <trkpt lat="43.69513" lon="6.03938">
        <ele>370</ele>
        <time>2023-06-11T13:36:10Z</time>
      </trkpt>
      <trkpt lat="43.69513" lon="6.03938">
        <ele>370</ele>
        <time>2023-06-11T13:36:11Z</time>
      </trkpt>
      <trkpt lat="43.69513" lon="6.03938">
        <ele>370.1</ele>
        <time>2023-06-11T13:36:12Z</time>
      </trkpt>
      <trkpt lat="43.69513" lon="6.03939">
        <ele>370.5</ele>
        <time>2023-06-11T13:36:13Z</time>
      </trkpt>
      <trkpt lat="43.69513" lon="6.03939">
        <ele>370.6</ele>
        <time>2023-06-11T13:36:14Z</time>
      </trkpt>
      <trkpt lat="43.69513" lon="6.0394">
        <ele>370.6</ele>
        <time>2023-06-11T13:36:15Z</time>
      </trkpt>
      <trkpt lat="43.69513" lon="6.0394">
        <ele>370.6</ele>
        <time>2023-06-11T13:36:16Z</time>
      </trkpt>
      <trkpt lat="43.69513" lon="6.0394">
        <ele>370.7</ele>
        <time>2023-06-11T13:36:17Z</time>
      </trkpt>
      <trkpt lat="43.69513" lon="6.0394">
        <ele>370.7</ele>
        <time>2023-06-11T13:36:18Z</time>
      </trkpt>
      <trkpt lat="43.69513" lon="6.0394">
        <ele>370.7</ele>
        <time>2023-06-11T13:36:19Z</time>
      </trkpt>
      <trkpt lat="43.69513" lon="6.0394">
        <ele>370.7</ele>
        <time>2023-06-11T13:36:20Z</time>
      </trkpt>
      <trkpt lat="43.69513" lon="6.0394">
        <ele>370.6</ele>
        <time>2023-06-11T13:36:21Z</time>
      </trkpt>
      <trkpt lat="43.69513" lon="6.03939">
        <ele>370.6</ele>
        <time>2023-06-11T13:36:22Z</time>
      </trkpt>
      <trkpt lat="43.69513" lon="6.0394">
        <ele>370.6</ele>
        <time>2023-06-11T13:36:23Z</time>
      </trkpt>
      <trkpt lat="43.69512" lon="6.0394">
        <ele>370.6</ele>
        <time>2023-06-11T13:36:24Z</time>
      </trkpt>
      <trkpt lat="43.69512" lon="6.0394">
        <ele>370.7</ele>
        <time>2023-06-11T13:36:25Z</time>
      </trkpt>
      <trkpt lat="43.69511" lon="6.03941">
        <ele>370.8</ele>
        <time>2023-06-11T13:36:26Z</time>
      </trkpt>
      <trkpt lat="43.69511" lon="6.03941">
        <ele>370.7</ele>
        <time>2023-06-11T13:36:27Z</time>
      </trkpt>
      <trkpt lat="43.69512" lon="6.03941">
        <ele>370.6</ele>
        <time>2023-06-11T13:36:28Z</time>
      </trkpt>
      <trkpt lat="43.69512" lon="6.03941">
        <ele>370.5</ele>
        <time>2023-06-11T13:36:29Z</time>
      </trkpt>
      <trkpt lat="43.69512" lon="6.03941">
        <ele>370.4</ele>
        <time>2023-06-11T13:36:30Z</time>
      </trkpt>
      <trkpt lat="43.69512" lon="6.03941">
        <ele>370.4</ele>
        <time>2023-06-11T13:36:31Z</time>
      </trkpt>
      <trkpt lat="43.69512" lon="6.03941">
        <ele>370.3</ele>
        <time>2023-06-11T13:36:32Z</time>
      </trkpt>
      <trkpt lat="43.69513" lon="6.03941">
        <ele>370.3</ele>
        <time>2023-06-11T13:36:33Z</time>
      </trkpt>
      <trkpt lat="43.69513" lon="6.03941">
        <ele>370.3</ele>
        <time>2023-06-11T13:36:34Z</time>
      </trkpt>
      <trkpt lat="43.69513" lon="6.03941">
        <ele>370.3</ele>
        <time>2023-06-11T13:36:35Z</time>
      </trkpt>
      <trkpt lat="43.69513" lon="6.03941">
        <ele>370.2</ele>
        <time>2023-06-11T13:36:36Z</time>
      </trkpt>
      <trkpt lat="43.69513" lon="6.03941">
        <ele>370.3</ele>
        <time>2023-06-11T13:36:37Z</time>
      </trkpt>
      <trkpt lat="43.69513" lon="6.03941">
        <ele>370.3</ele>
        <time>2023-06-11T13:36:38Z</time>
      </trkpt>
      <trkpt lat="43.69513" lon="6.03942">
        <ele>370.3</ele>
        <time>2023-06-11T13:36:39Z</time>
      </trkpt>
      <trkpt lat="43.69513" lon="6.03942">
        <ele>370.3</ele>
        <time>2023-06-11T13:36:40Z</time>
      </trkpt>
      <trkpt lat="43.69513" lon="6.03942">
        <ele>370.4</ele>
        <time>2023-06-11T13:36:41Z</time>
      </trkpt>
      <trkpt lat="43.69513" lon="6.03942">
        <ele>370.4</ele>
        <time>2023-06-11T13:36:42Z</time>
      </trkpt>
      <trkpt lat="43.69514" lon="6.03942">
        <ele>370.3</ele>
        <time>2023-06-11T13:36:43Z</time>
      </trkpt>
      <trkpt lat="43.69514" lon="6.03942">
        <ele>370.3</ele>
        <time>2023-06-11T13:36:44Z</time>
      </trkpt>
      <trkpt lat="43.69514" lon="6.03942">
        <ele>370.3</ele>
        <time>2023-06-11T13:36:45Z</time>
      </trkpt>
      <trkpt lat="43.69514" lon="6.03942">
        <ele>370.3</ele>
        <time>2023-06-11T13:36:46Z</time>
      </trkpt>
      <trkpt lat="43.69514" lon="6.03942">
        <ele>370.3</ele>
        <time>2023-06-11T13:36:47Z</time>
      </trkpt>
      <trkpt lat="43.69514" lon="6.03942">
        <ele>370.3</ele>
        <time>2023-06-11T13:36:48Z</time>
      </trkpt>
      <trkpt lat="43.69514" lon="6.03942">
        <ele>370.3</ele>
        <time>2023-06-11T13:36:49Z</time>
      </trkpt>
      <trkpt lat="43.69514" lon="6.03942">
        <ele>370.3</ele>
        <time>2023-06-11T13:36:50Z</time>
      </trkpt>
      <trkpt lat="43.69514" lon="6.03942">
        <ele>370.3</ele>
        <time>2023-06-11T13:36:51Z</time>
      </trkpt>
      <trkpt lat="43.69515" lon="6.03942">
        <ele>370.3</ele>
        <time>2023-06-11T13:36:52Z</time>
      </trkpt>
      <trkpt lat="43.69515" lon="6.03942">
        <ele>370.2</ele>
        <time>2023-06-11T13:36:53Z</time>
      </trkpt>
      <trkpt lat="43.69515" lon="6.03942">
        <ele>370.2</ele>
        <time>2023-06-11T13:36:54Z</time>
      </trkpt>
      <trkpt lat="43.69515" lon="6.03942">
        <ele>370.3</ele>
        <time>2023-06-11T13:36:55Z</time>
      </trkpt>
      <trkpt lat="43.69515" lon="6.03942">
        <ele>370.2</ele>
        <time>2023-06-11T13:36:56Z</time>
      </trkpt>
      <trkpt lat="43.69515" lon="6.03942">
        <ele>370.2</ele>
        <time>2023-06-11T13:36:57Z</time>
      </trkpt>
      <trkpt lat="43.69515" lon="6.03942">
        <ele>370.2</ele>
        <time>2023-06-11T13:36:58Z</time>
      </trkpt>
      <trkpt lat="43.69515" lon="6.03942">
        <ele>370.2</ele>
        <time>2023-06-11T13:36:59Z</time>
      </trkpt>
      <trkpt lat="43.69515" lon="6.03942">
        <ele>370.2</ele>
        <time>2023-06-11T13:37:00Z</time>
      </trkpt>
      <trkpt lat="43.69515" lon="6.03942">
        <ele>370.1</ele>
        <time>2023-06-11T13:37:01Z</time>
      </trkpt>
      <trkpt lat="43.69515" lon="6.03942">
        <ele>370.1</ele>
        <time>2023-06-11T13:37:02Z</time>
      </trkpt>
      <trkpt lat="43.69515" lon="6.03942">
        <ele>370</ele>
        <time>2023-06-11T13:37:03Z</time>
      </trkpt>
      <trkpt lat="43.69515" lon="6.03942">
        <ele>370.1</ele>
        <time>2023-06-11T13:37:04Z</time>
      </trkpt>
      <trkpt lat="43.69516" lon="6.03942">
        <ele>370.1</ele>
        <time>2023-06-11T13:37:05Z</time>
      </trkpt>
      <trkpt lat="43.69516" lon="6.03942">
        <ele>370.1</ele>
        <time>2023-06-11T13:37:06Z</time>
      </trkpt>
      <trkpt lat="43.69516" lon="6.03942">
        <ele>370.1</ele>
        <time>2023-06-11T13:37:07Z</time>
      </trkpt>
      <trkpt lat="43.69516" lon="6.03942">
        <ele>370.1</ele>
        <time>2023-06-11T13:37:08Z</time>
      </trkpt>
      <trkpt lat="43.69516" lon="6.03942">
        <ele>370.1</ele>
        <time>2023-06-11T13:37:09Z</time>
      </trkpt>
      <trkpt lat="43.69516" lon="6.03942">
        <ele>370.1</ele>
        <time>2023-06-11T13:37:10Z</time>
      </trkpt>
      <trkpt lat="43.69516" lon="6.03942">
        <ele>370.2</ele>
        <time>2023-06-11T13:37:11Z</time>
      </trkpt>
      <trkpt lat="43.69516" lon="6.03942">
        <ele>370.2</ele>
        <time>2023-06-11T13:37:12Z</time>
      </trkpt>
      <trkpt lat="43.69516" lon="6.03942">
        <ele>370.3</ele>
        <time>2023-06-11T13:37:13Z</time>
      </trkpt>
      <trkpt lat="43.69516" lon="6.03942">
        <ele>370.2</ele>
        <time>2023-06-11T13:37:14Z</time>
      </trkpt>
      <trkpt lat="43.69516" lon="6.03942">
        <ele>370.3</ele>
        <time>2023-06-11T13:37:15Z</time>
      </trkpt>
      <trkpt lat="43.69516" lon="6.03942">
        <ele>370.3</ele>
        <time>2023-06-11T13:37:16Z</time>
      </trkpt>
      <trkpt lat="43.69516" lon="6.03942">
        <ele>370.4</ele>
        <time>2023-06-11T13:37:17Z</time>
      </trkpt>
      <trkpt lat="43.69516" lon="6.03942">
        <ele>370.4</ele>
        <time>2023-06-11T13:37:18Z</time>
      </trkpt>
      <trkpt lat="43.69516" lon="6.03942">
        <ele>370.4</ele>
        <time>2023-06-11T13:37:19Z</time>
      </trkpt>
      <trkpt lat="43.69516" lon="6.03942">
        <ele>370.5</ele>
        <time>2023-06-11T13:37:20Z</time>
      </trkpt>
      <trkpt lat="43.69516" lon="6.03942">
        <ele>370.5</ele>
        <time>2023-06-11T13:37:21Z</time>
      </trkpt>
      <trkpt lat="43.69516" lon="6.03942">
        <ele>370.6</ele>
        <time>2023-06-11T13:37:22Z</time>
      </trkpt>
      <trkpt lat="43.69516" lon="6.03941">
        <ele>370.5</ele>
        <time>2023-06-11T13:37:23Z</time>
      </trkpt>
      <trkpt lat="43.69515" lon="6.03942">
        <ele>370.6</ele>
        <time>2023-06-11T13:37:24Z</time>
      </trkpt>
      <trkpt lat="43.69515" lon="6.03941">
        <ele>370.7</ele>
        <time>2023-06-11T13:37:25Z</time>
      </trkpt>
      <trkpt lat="43.69514" lon="6.0394">
        <ele>370.8</ele>
        <time>2023-06-11T13:37:26Z</time>
      </trkpt>
      <trkpt lat="43.69514" lon="6.0394">
        <ele>370.9</ele>
        <time>2023-06-11T13:37:27Z</time>
      </trkpt>
      <trkpt lat="43.69514" lon="6.03939">
        <ele>371</ele>
        <time>2023-06-11T13:37:28Z</time>
      </trkpt>
      <trkpt lat="43.69513" lon="6.03938">
        <ele>371.1</ele>
        <time>2023-06-11T13:37:29Z</time>
      </trkpt>
      <trkpt lat="43.69513" lon="6.03937">
        <ele>371.2</ele>
        <time>2023-06-11T13:37:30Z</time>
      </trkpt>
      <trkpt lat="43.69512" lon="6.03937">
        <ele>371.2</ele>
        <time>2023-06-11T13:37:31Z</time>
      </trkpt>
      <trkpt lat="43.69511" lon="6.03936">
        <ele>371.2</ele>
        <time>2023-06-11T13:37:32Z</time>
      </trkpt>
      <trkpt lat="43.69511" lon="6.03935">
        <ele>371.1</ele>
        <time>2023-06-11T13:37:33Z</time>
      </trkpt>
      <trkpt lat="43.6951" lon="6.03935">
        <ele>371.2</ele>
        <time>2023-06-11T13:37:34Z</time>
      </trkpt>
      <trkpt lat="43.6951" lon="6.03934">
        <ele>371.2</ele>
        <time>2023-06-11T13:37:35Z</time>
      </trkpt>
      <trkpt lat="43.69509" lon="6.03934">
        <ele>371.2</ele>
        <time>2023-06-11T13:37:36Z</time>
      </trkpt>
      <trkpt lat="43.69508" lon="6.03934">
        <ele>371.2</ele>
        <time>2023-06-11T13:37:37Z</time>
      </trkpt>
      <trkpt lat="43.69507" lon="6.03934">
        <ele>371.2</ele>
        <time>2023-06-11T13:37:38Z</time>
      </trkpt>
      <trkpt lat="43.69507" lon="6.03935">
        <ele>371.3</ele>
        <time>2023-06-11T13:37:39Z</time>
      </trkpt>
      <trkpt lat="43.69506" lon="6.03935">
        <ele>371.2</ele>
        <time>2023-06-11T13:37:40Z</time>
      </trkpt>
      <trkpt lat="43.69505" lon="6.03936">
        <ele>371.3</ele>
        <time>2023-06-11T13:37:41Z</time>
      </trkpt>
      <trkpt lat="43.69505" lon="6.03936">
        <ele>371.4</ele>
        <time>2023-06-11T13:37:42Z</time>
      </trkpt>
      <trkpt lat="43.69504" lon="6.03937">
        <ele>371.4</ele>
        <time>2023-06-11T13:37:43Z</time>
      </trkpt>
      <trkpt lat="43.69503" lon="6.03938">
        <ele>371.5</ele>
        <time>2023-06-11T13:37:44Z</time>
      </trkpt>
      <trkpt lat="43.69503" lon="6.03938">
        <ele>371.5</ele>
        <time>2023-06-11T13:37:45Z</time>
      </trkpt>
      <trkpt lat="43.69502" lon="6.03939">
        <ele>371.6</ele>
        <time>2023-06-11T13:37:46Z</time>
      </trkpt>
      <trkpt lat="43.69501" lon="6.03939">
        <ele>371.5</ele>
        <time>2023-06-11T13:37:47Z</time>
      </trkpt>
      <trkpt lat="43.69501" lon="6.0394">
        <ele>371.5</ele>
        <time>2023-06-11T13:37:48Z</time>
      </trkpt>
      <trkpt lat="43.695" lon="6.03941">
        <ele>371.4</ele>
        <time>2023-06-11T13:37:49Z</time>
      </trkpt>
      <trkpt lat="43.69499" lon="6.03941">
        <ele>371.4</ele>
        <time>2023-06-11T13:37:50Z</time>
      </trkpt>
      <trkpt lat="43.69498" lon="6.03942">
        <ele>371.3</ele>
        <time>2023-06-11T13:37:51Z</time>
      </trkpt>
      <trkpt lat="43.69498" lon="6.03943">
        <ele>371.3</ele>
        <time>2023-06-11T13:37:52Z</time>
      </trkpt>
      <trkpt lat="43.69497" lon="6.03944">
        <ele>371.2</ele>
        <time>2023-06-11T13:37:53Z</time>
      </trkpt>
      <trkpt lat="43.69497" lon="6.03944">
        <ele>371.2</ele>
        <time>2023-06-11T13:37:54Z</time>
      </trkpt>
      <trkpt lat="43.69496" lon="6.03945">
        <ele>371.2</ele>
        <time>2023-06-11T13:37:55Z</time>
      </trkpt>
      <trkpt lat="43.69496" lon="6.03945">
        <ele>371.2</ele>
        <time>2023-06-11T13:37:56Z</time>
      </trkpt>
      <trkpt lat="43.69495" lon="6.03946">
        <ele>371.1</ele>
        <time>2023-06-11T13:37:57Z</time>
      </trkpt>
      <trkpt lat="43.69495" lon="6.03947">
        <ele>371.2</ele>
        <time>2023-06-11T13:37:58Z</time>
      </trkpt>
      <trkpt lat="43.69494" lon="6.03947">
        <ele>371.2</ele>
        <time>2023-06-11T13:37:59Z</time>
      </trkpt>
      <trkpt lat="43.69494" lon="6.03948">
        <ele>371.1</ele>
        <time>2023-06-11T13:38:00Z</time>
      </trkpt>
      <trkpt lat="43.69493" lon="6.03949">
        <ele>371.1</ele>
        <time>2023-06-11T13:38:01Z</time>
      </trkpt>
      <trkpt lat="43.69493" lon="6.0395">
        <ele>371.1</ele>
        <time>2023-06-11T13:38:02Z</time>
      </trkpt>
      <trkpt lat="43.69493" lon="6.0395">
        <ele>371.1</ele>
        <time>2023-06-11T13:38:03Z</time>
      </trkpt>
      <trkpt lat="43.69492" lon="6.03951">
        <ele>371.1</ele>
        <time>2023-06-11T13:38:04Z</time>
      </trkpt>
      <trkpt lat="43.69492" lon="6.03951">
        <ele>371.1</ele>
        <time>2023-06-11T13:38:05Z</time>
      </trkpt>
      <trkpt lat="43.69492" lon="6.03951">
        <ele>371.1</ele>
        <time>2023-06-11T13:38:06Z</time>
      </trkpt>
      <trkpt lat="43.69492" lon="6.03952">
        <ele>371.1</ele>
        <time>2023-06-11T13:38:07Z</time>
      </trkpt>
      <trkpt lat="43.69491" lon="6.03953">
        <ele>371.1</ele>
        <time>2023-06-11T13:38:08Z</time>
      </trkpt>
      <trkpt lat="43.69491" lon="6.03953">
        <ele>371.2</ele>
        <time>2023-06-11T13:38:09Z</time>
      </trkpt>
      <trkpt lat="43.69491" lon="6.03954">
        <ele>371.3</ele>
        <time>2023-06-11T13:38:10Z</time>
      </trkpt>
      <trkpt lat="43.69491" lon="6.03954">
        <ele>371.5</ele>
        <time>2023-06-11T13:38:11Z</time>
      </trkpt>
      <trkpt lat="43.6949" lon="6.03954">
        <ele>371.6</ele>
        <time>2023-06-11T13:38:12Z</time>
      </trkpt>
      <trkpt lat="43.6949" lon="6.03955">
        <ele>371.6</ele>
        <time>2023-06-11T13:38:13Z</time>
      </trkpt>
      <trkpt lat="43.6949" lon="6.03955">
        <ele>371.7</ele>
        <time>2023-06-11T13:38:14Z</time>
      </trkpt>
      <trkpt lat="43.6949" lon="6.03956">
        <ele>371.7</ele>
        <time>2023-06-11T13:38:15Z</time>
      </trkpt>
      <trkpt lat="43.69489" lon="6.03957">
        <ele>371.9</ele>
        <time>2023-06-11T13:38:16Z</time>
      </trkpt>
      <trkpt lat="43.69489" lon="6.03958">
        <ele>372.1</ele>
        <time>2023-06-11T13:38:17Z</time>
      </trkpt>
      <trkpt lat="43.69489" lon="6.03958">
        <ele>372.1</ele>
        <time>2023-06-11T13:38:18Z</time>
      </trkpt>
      <trkpt lat="43.69489" lon="6.03958">
        <ele>372.1</ele>
        <time>2023-06-11T13:38:19Z</time>
      </trkpt>
      <trkpt lat="43.69489" lon="6.03958">
        <ele>372.2</ele>
        <time>2023-06-11T13:38:20Z</time>
      </trkpt>
      <trkpt lat="43.69489" lon="6.03958">
        <ele>372.2</ele>
        <time>2023-06-11T13:38:21Z</time>
      </trkpt>
      <trkpt lat="43.69489" lon="6.03959">
        <ele>372.3</ele>
        <time>2023-06-11T13:38:22Z</time>
      </trkpt>
      <trkpt lat="43.69489" lon="6.03959">
        <ele>372.3</ele>
        <time>2023-06-11T13:38:23Z</time>
      </trkpt>
      <trkpt lat="43.69489" lon="6.03959">
        <ele>372.3</ele>
        <time>2023-06-11T13:38:24Z</time>
      </trkpt>
      <trkpt lat="43.69489" lon="6.03959">
        <ele>372.5</ele>
        <time>2023-06-11T13:38:25Z</time>
      </trkpt>
      <trkpt lat="43.69489" lon="6.03961">
        <ele>372.4</ele>
        <time>2023-06-11T13:38:26Z</time>
      </trkpt>
      <trkpt lat="43.69489" lon="6.03963">
        <ele>372.3</ele>
        <time>2023-06-11T13:38:27Z</time>
      </trkpt>
      <trkpt lat="43.69489" lon="6.03963">
        <ele>372.2</ele>
        <time>2023-06-11T13:38:28Z</time>
      </trkpt>
      <trkpt lat="43.69489" lon="6.03963">
        <ele>372.1</ele>
        <time>2023-06-11T13:38:29Z</time>
      </trkpt>
      <trkpt lat="43.69489" lon="6.03963">
        <ele>372.1</ele>
        <time>2023-06-11T13:38:30Z</time>
      </trkpt>
      <trkpt lat="43.69489" lon="6.03963">
        <ele>372.1</ele>
        <time>2023-06-11T13:38:31Z</time>
      </trkpt>
      <trkpt lat="43.69488" lon="6.03963">
        <ele>372</ele>
        <time>2023-06-11T13:38:32Z</time>
      </trkpt>
      <trkpt lat="43.69488" lon="6.03963">
        <ele>372</ele>
        <time>2023-06-11T13:38:33Z</time>
      </trkpt>
      <trkpt lat="43.69488" lon="6.03963">
        <ele>372</ele>
        <time>2023-06-11T13:38:34Z</time>
      </trkpt>
      <trkpt lat="43.69488" lon="6.03963">
        <ele>371.9</ele>
        <time>2023-06-11T13:38:35Z</time>
      </trkpt>
      <trkpt lat="43.69488" lon="6.03963">
        <ele>372</ele>
        <time>2023-06-11T13:38:36Z</time>
      </trkpt>
      <trkpt lat="43.69487" lon="6.03963">
        <ele>372</ele>
        <time>2023-06-11T13:38:37Z</time>
      </trkpt>
      <trkpt lat="43.69487" lon="6.03963">
        <ele>372.1</ele>
        <time>2023-06-11T13:38:38Z</time>
      </trkpt>
      <trkpt lat="43.69487" lon="6.03963">
        <ele>372.1</ele>
        <time>2023-06-11T13:38:39Z</time>
      </trkpt>
      <trkpt lat="43.69487" lon="6.03963">
        <ele>372.1</ele>
        <time>2023-06-11T13:38:40Z</time>
      </trkpt>
      <trkpt lat="43.69487" lon="6.03963">
        <ele>372.1</ele>
        <time>2023-06-11T13:38:41Z</time>
      </trkpt>
      <trkpt lat="43.69487" lon="6.03963">
        <ele>372.1</ele>
        <time>2023-06-11T13:38:42Z</time>
      </trkpt>
      <trkpt lat="43.69487" lon="6.03963">
        <ele>372</ele>
        <time>2023-06-11T13:38:43Z</time>
      </trkpt>
      <trkpt lat="43.69487" lon="6.03963">
        <ele>371.9</ele>
        <time>2023-06-11T13:38:44Z</time>
      </trkpt>
      <trkpt lat="43.69487" lon="6.03963">
        <ele>371.9</ele>
        <time>2023-06-11T13:38:45Z</time>
      </trkpt>
      <trkpt lat="43.69486" lon="6.03963">
        <ele>371.9</ele>
        <time>2023-06-11T13:38:46Z</time>
      </trkpt>
      <trkpt lat="43.69486" lon="6.03964">
        <ele>371.9</ele>
        <time>2023-06-11T13:38:47Z</time>
      </trkpt>
      <trkpt lat="43.69486" lon="6.03964">
        <ele>371.9</ele>
        <time>2023-06-11T13:38:48Z</time>
      </trkpt>
      <trkpt lat="43.69486" lon="6.03964">
        <ele>371.8</ele>
        <time>2023-06-11T13:38:49Z</time>
      </trkpt>
      <trkpt lat="43.69486" lon="6.03964">
        <ele>371.8</ele>
        <time>2023-06-11T13:38:50Z</time>
      </trkpt>
      <trkpt lat="43.69486" lon="6.03964">
        <ele>371.8</ele>
        <time>2023-06-11T13:38:51Z</time>
      </trkpt>
      <trkpt lat="43.69486" lon="6.03964">
        <ele>371.7</ele>
        <time>2023-06-11T13:38:52Z</time>
      </trkpt>
      <trkpt lat="43.69486" lon="6.03964">
        <ele>371.8</ele>
        <time>2023-06-11T13:38:53Z</time>
      </trkpt>
      <trkpt lat="43.69486" lon="6.03964">
        <ele>371.8</ele>
        <time>2023-06-11T13:38:54Z</time>
      </trkpt>
      <trkpt lat="43.69486" lon="6.03964">
        <ele>371.8</ele>
        <time>2023-06-11T13:38:55Z</time>
      </trkpt>
      <trkpt lat="43.69485" lon="6.03964">
        <ele>371.8</ele>
        <time>2023-06-11T13:38:56Z</time>
      </trkpt>
      <trkpt lat="43.69485" lon="6.03964">
        <ele>371.8</ele>
        <time>2023-06-11T13:38:57Z</time>
      </trkpt>
      <trkpt lat="43.69485" lon="6.03964">
        <ele>371.7</ele>
        <time>2023-06-11T13:38:58Z</time>
      </trkpt>
      <trkpt lat="43.69485" lon="6.03964">
        <ele>371.7</ele>
        <time>2023-06-11T13:38:59Z</time>
      </trkpt>
      <trkpt lat="43.69485" lon="6.03964">
        <ele>371.7</ele>
        <time>2023-06-11T13:39:00Z</time>
      </trkpt>
      <trkpt lat="43.69485" lon="6.03964">
        <ele>371.7</ele>
        <time>2023-06-11T13:39:01Z</time>
      </trkpt>
      <trkpt lat="43.69485" lon="6.03964">
        <ele>371.7</ele>
        <time>2023-06-11T13:39:02Z</time>
      </trkpt>
      <trkpt lat="43.69485" lon="6.03964">
        <ele>371.7</ele>
        <time>2023-06-11T13:39:03Z</time>
      </trkpt>
      <trkpt lat="43.69485" lon="6.03964">
        <ele>371.7</ele>
        <time>2023-06-11T13:39:04Z</time>
      </trkpt>
      <trkpt lat="43.69485" lon="6.03964">
        <ele>371.7</ele>
        <time>2023-06-11T13:39:05Z</time>
      </trkpt>
      <trkpt lat="43.69485" lon="6.03964">
        <ele>371.7</ele>
        <time>2023-06-11T13:39:06Z</time>
      </trkpt>
      <trkpt lat="43.69486" lon="6.03964">
        <ele>371.7</ele>
        <time>2023-06-11T13:39:07Z</time>
      </trkpt>
      <trkpt lat="43.69486" lon="6.03964">
        <ele>371.7</ele>
        <time>2023-06-11T13:39:08Z</time>
      </trkpt>
      <trkpt lat="43.69486" lon="6.03964">
        <ele>371.6</ele>
        <time>2023-06-11T13:39:09Z</time>
      </trkpt>
      <trkpt lat="43.69486" lon="6.03964">
        <ele>371.6</ele>
        <time>2023-06-11T13:39:10Z</time>
      </trkpt>
      <trkpt lat="43.69486" lon="6.03964">
        <ele>371.6</ele>
        <time>2023-06-11T13:39:11Z</time>
      </trkpt>
      <trkpt lat="43.69486" lon="6.03964">
        <ele>371.7</ele>
        <time>2023-06-11T13:39:12Z</time>
      </trkpt>
      <trkpt lat="43.69486" lon="6.03964">
        <ele>371.7</ele>
        <time>2023-06-11T13:39:13Z</time>
      </trkpt>
      <trkpt lat="43.69486" lon="6.03964">
        <ele>371.8</ele>
        <time>2023-06-11T13:39:14Z</time>
      </trkpt>
      <trkpt lat="43.69486" lon="6.03964">
        <ele>371.8</ele>
        <time>2023-06-11T13:39:15Z</time>
      </trkpt>
      <trkpt lat="43.69486" lon="6.03964">
        <ele>371.7</ele>
        <time>2023-06-11T13:39:16Z</time>
      </trkpt>
      <trkpt lat="43.69486" lon="6.03964">
        <ele>371.7</ele>
        <time>2023-06-11T13:39:17Z</time>
      </trkpt>
      <trkpt lat="43.69486" lon="6.03964">
        <ele>371.6</ele>
        <time>2023-06-11T13:39:18Z</time>
      </trkpt>
      <trkpt lat="43.69486" lon="6.03964">
        <ele>371.7</ele>
        <time>2023-06-11T13:39:19Z</time>
      </trkpt>
      <trkpt lat="43.69486" lon="6.03964">
        <ele>371.7</ele>
        <time>2023-06-11T13:39:20Z</time>
      </trkpt>
      <trkpt lat="43.69486" lon="6.03964">
        <ele>371.8</ele>
        <time>2023-06-11T13:39:21Z</time>
      </trkpt>
      <trkpt lat="43.69486" lon="6.03964">
        <ele>371.8</ele>
        <time>2023-06-11T13:39:22Z</time>
      </trkpt>
      <trkpt lat="43.69487" lon="6.03964">
        <ele>371.8</ele>
        <time>2023-06-11T13:39:23Z</time>
      </trkpt>
      <trkpt lat="43.69487" lon="6.03964">
        <ele>371.7</ele>
        <time>2023-06-11T13:39:24Z</time>
      </trkpt>
      <trkpt lat="43.69487" lon="6.03964">
        <ele>371.7</ele>
        <time>2023-06-11T13:39:25Z</time>
      </trkpt>
      <trkpt lat="43.69487" lon="6.03964">
        <ele>371.7</ele>
        <time>2023-06-11T13:39:26Z</time>
      </trkpt>
      <trkpt lat="43.69487" lon="6.03964">
        <ele>371.7</ele>
        <time>2023-06-11T13:39:27Z</time>
      </trkpt>
      <trkpt lat="43.69487" lon="6.03964">
        <ele>371.8</ele>
        <time>2023-06-11T13:39:28Z</time>
      </trkpt>
      <trkpt lat="43.69487" lon="6.03964">
        <ele>371.8</ele>
        <time>2023-06-11T13:39:29Z</time>
      </trkpt>
      <trkpt lat="43.69487" lon="6.03964">
        <ele>371.7</ele>
        <time>2023-06-11T13:39:30Z</time>
      </trkpt>
      <trkpt lat="43.69487" lon="6.03964">
        <ele>371.7</ele>
        <time>2023-06-11T13:39:31Z</time>
      </trkpt>
      <trkpt lat="43.69487" lon="6.03964">
        <ele>371.7</ele>
        <time>2023-06-11T13:39:32Z</time>
      </trkpt>
      <trkpt lat="43.69487" lon="6.03964">
        <ele>371.7</ele>
        <time>2023-06-11T13:39:33Z</time>
      </trkpt>
      <trkpt lat="43.69487" lon="6.03964">
        <ele>371.7</ele>
        <time>2023-06-11T13:39:34Z</time>
      </trkpt>
      <trkpt lat="43.69487" lon="6.03964">
        <ele>371.8</ele>
        <time>2023-06-11T13:39:35Z</time>
      </trkpt>
      <trkpt lat="43.69487" lon="6.03964">
        <ele>371.8</ele>
        <time>2023-06-11T13:39:36Z</time>
      </trkpt>
      <trkpt lat="43.69487" lon="6.03964">
        <ele>371.8</ele>
        <time>2023-06-11T13:39:37Z</time>
      </trkpt>
      <trkpt lat="43.69487" lon="6.03963">
        <ele>371.8</ele>
        <time>2023-06-11T13:39:38Z</time>
      </trkpt>
      <trkpt lat="43.69487" lon="6.03963">
        <ele>371.8</ele>
        <time>2023-06-11T13:39:39Z</time>
      </trkpt>
      <trkpt lat="43.69487" lon="6.03963">
        <ele>371.8</ele>
        <time>2023-06-11T13:39:40Z</time>
      </trkpt>
      <trkpt lat="43.69487" lon="6.03963">
        <ele>371.8</ele>
        <time>2023-06-11T13:39:41Z</time>
      </trkpt>
      <trkpt lat="43.69487" lon="6.03963">
        <ele>371.8</ele>
        <time>2023-06-11T13:39:42Z</time>
      </trkpt>
      <trkpt lat="43.69487" lon="6.03963">
        <ele>371.8</ele>
        <time>2023-06-11T13:39:43Z</time>
      </trkpt>
      <trkpt lat="43.69488" lon="6.03963">
        <ele>371.7</ele>
        <time>2023-06-11T13:39:44Z</time>
      </trkpt>
      <trkpt lat="43.69488" lon="6.03963">
        <ele>371.7</ele>
        <time>2023-06-11T13:39:45Z</time>
      </trkpt>
      <trkpt lat="43.69488" lon="6.03963">
        <ele>371.6</ele>
        <time>2023-06-11T13:39:46Z</time>
      </trkpt>
      <trkpt lat="43.69488" lon="6.03963">
        <ele>371.7</ele>
        <time>2023-06-11T13:39:47Z</time>
      </trkpt>
      <trkpt lat="43.69488" lon="6.03963">
        <ele>371.7</ele>
        <time>2023-06-11T13:39:48Z</time>
      </trkpt>
      <trkpt lat="43.69488" lon="6.03963">
        <ele>371.7</ele>
        <time>2023-06-11T13:39:49Z</time>
      </trkpt>
      <trkpt lat="43.69488" lon="6.03963">
        <ele>371.7</ele>
        <time>2023-06-11T13:39:50Z</time>
      </trkpt>
      <trkpt lat="43.69488" lon="6.03963">
        <ele>371.7</ele>
        <time>2023-06-11T13:39:51Z</time>
      </trkpt>
      <trkpt lat="43.69488" lon="6.03963">
        <ele>371.7</ele>
        <time>2023-06-11T13:39:52Z</time>
      </trkpt>
      <trkpt lat="43.69488" lon="6.03963">
        <ele>371.7</ele>
        <time>2023-06-11T13:39:53Z</time>
      </trkpt>
      <trkpt lat="43.69488" lon="6.03963">
        <ele>371.6</ele>
        <time>2023-06-11T13:39:54Z</time>
      </trkpt>
      <trkpt lat="43.69488" lon="6.03963">
        <ele>371.6</ele>
        <time>2023-06-11T13:39:55Z</time>
      </trkpt>
      <trkpt lat="43.69488" lon="6.03963">
        <ele>371.6</ele>
        <time>2023-06-11T13:39:56Z</time>
      </trkpt>
      <trkpt lat="43.69488" lon="6.03963">
        <ele>371.6</ele>
        <time>2023-06-11T13:39:57Z</time>
      </trkpt>
      <trkpt lat="43.69488" lon="6.03963">
        <ele>371.5</ele>
        <time>2023-06-11T13:39:58Z</time>
      </trkpt>
      <trkpt lat="43.69488" lon="6.03963">
        <ele>371.5</ele>
        <time>2023-06-11T13:39:59Z</time>
      </trkpt>
      <trkpt lat="43.69488" lon="6.03963">
        <ele>371.6</ele>
        <time>2023-06-11T13:40:00Z</time>
      </trkpt>
      <trkpt lat="43.69488" lon="6.03963">
        <ele>371.6</ele>
        <time>2023-06-11T13:40:01Z</time>
      </trkpt>
      <trkpt lat="43.69488" lon="6.03963">
        <ele>371.6</ele>
        <time>2023-06-11T13:40:02Z</time>
      </trkpt>
      <trkpt lat="43.69488" lon="6.03963">
        <ele>371.7</ele>
        <time>2023-06-11T13:40:03Z</time>
      </trkpt>
      <trkpt lat="43.69488" lon="6.03963">
        <ele>371.7</ele>
        <time>2023-06-11T13:40:04Z</time>
      </trkpt>
      <trkpt lat="43.69488" lon="6.03963">
        <ele>371.7</ele>
        <time>2023-06-11T13:40:05Z</time>
      </trkpt>
      <trkpt lat="43.69488" lon="6.03963">
        <ele>371.8</ele>
        <time>2023-06-11T13:40:06Z</time>
      </trkpt>
      <trkpt lat="43.69488" lon="6.03963">
        <ele>371.8</ele>
        <time>2023-06-11T13:40:07Z</time>
      </trkpt>
      <trkpt lat="43.69488" lon="6.03963">
        <ele>371.8</ele>
        <time>2023-06-11T13:40:08Z</time>
      </trkpt>
      <trkpt lat="43.69488" lon="6.03963">
        <ele>371.7</ele>
        <time>2023-06-11T13:40:09Z</time>
      </trkpt>
      <trkpt lat="43.69488" lon="6.03963">
        <ele>371.6</ele>
        <time>2023-06-11T13:40:10Z</time>
      </trkpt>
      <trkpt lat="43.69488" lon="6.03963">
        <ele>371.6</ele>
        <time>2023-06-11T13:40:11Z</time>
      </trkpt>
      <trkpt lat="43.69488" lon="6.03963">
        <ele>371.7</ele>
        <time>2023-06-11T13:40:12Z</time>
      </trkpt>
      <trkpt lat="43.69489" lon="6.03963">
        <ele>371.7</ele>
        <time>2023-06-11T13:40:13Z</time>
      </trkpt>
      <trkpt lat="43.69489" lon="6.03963">
        <ele>371.7</ele>
        <time>2023-06-11T13:40:14Z</time>
      </trkpt>
      <trkpt lat="43.69489" lon="6.03963">
        <ele>371.6</ele>
        <time>2023-06-11T13:40:15Z</time>
      </trkpt>
      <trkpt lat="43.69489" lon="6.03963">
        <ele>371.6</ele>
        <time>2023-06-11T13:40:16Z</time>
      </trkpt>
      <trkpt lat="43.69489" lon="6.03963">
        <ele>371.5</ele>
        <time>2023-06-11T13:40:17Z</time>
      </trkpt>
      <trkpt lat="43.69489" lon="6.03963">
        <ele>371.6</ele>
        <time>2023-06-11T13:40:18Z</time>
      </trkpt>
      <trkpt lat="43.69489" lon="6.03963">
        <ele>371.5</ele>
        <time>2023-06-11T13:40:19Z</time>
      </trkpt>
      <trkpt lat="43.69489" lon="6.03963">
        <ele>371.4</ele>
        <time>2023-06-11T13:40:20Z</time>
      </trkpt>
      <trkpt lat="43.69489" lon="6.03963">
        <ele>371.3</ele>
        <time>2023-06-11T13:40:21Z</time>
      </trkpt>
      <trkpt lat="43.69489" lon="6.03963">
        <ele>371.2</ele>
        <time>2023-06-11T13:40:22Z</time>
      </trkpt>
      <trkpt lat="43.69489" lon="6.03963">
        <ele>371.3</ele>
        <time>2023-06-11T13:40:23Z</time>
      </trkpt>
      <trkpt lat="43.69489" lon="6.03963">
        <ele>371.3</ele>
        <time>2023-06-11T13:40:24Z</time>
      </trkpt>
      <trkpt lat="43.69489" lon="6.03963">
        <ele>371.3</ele>
        <time>2023-06-11T13:40:25Z</time>
      </trkpt>
      <trkpt lat="43.69489" lon="6.03963">
        <ele>371.3</ele>
        <time>2023-06-11T13:40:26Z</time>
      </trkpt>
      <trkpt lat="43.69489" lon="6.03963">
        <ele>371.3</ele>
        <time>2023-06-11T13:40:27Z</time>
      </trkpt>
      <trkpt lat="43.69489" lon="6.03963">
        <ele>371.2</ele>
        <time>2023-06-11T13:40:28Z</time>
      </trkpt>
      <trkpt lat="43.69488" lon="6.03963">
        <ele>371.2</ele>
        <time>2023-06-11T13:40:29Z</time>
      </trkpt>
      <trkpt lat="43.69488" lon="6.03963">
        <ele>371.2</ele>
        <time>2023-06-11T13:40:30Z</time>
      </trkpt>
      <trkpt lat="43.69488" lon="6.03963">
        <ele>371.2</ele>
        <time>2023-06-11T13:40:31Z</time>
      </trkpt>
      <trkpt lat="43.69488" lon="6.03963">
        <ele>371.3</ele>
        <time>2023-06-11T13:40:32Z</time>
      </trkpt>
      <trkpt lat="43.69488" lon="6.03963">
        <ele>371.3</ele>
        <time>2023-06-11T13:40:33Z</time>
      </trkpt>
      <trkpt lat="43.69488" lon="6.03963">
        <ele>371.3</ele>
        <time>2023-06-11T13:40:34Z</time>
      </trkpt>
      <trkpt lat="43.69488" lon="6.03963">
        <ele>371.3</ele>
        <time>2023-06-11T13:40:35Z</time>
      </trkpt>
      <trkpt lat="43.69488" lon="6.03963">
        <ele>371.3</ele>
        <time>2023-06-11T13:40:36Z</time>
      </trkpt>
      <trkpt lat="43.69488" lon="6.03963">
        <ele>371.2</ele>
        <time>2023-06-11T13:40:37Z</time>
      </trkpt>
      <trkpt lat="43.69488" lon="6.03963">
        <ele>371.2</ele>
        <time>2023-06-11T13:40:38Z</time>
      </trkpt>
      <trkpt lat="43.69488" lon="6.03963">
        <ele>371.2</ele>
        <time>2023-06-11T13:40:39Z</time>
      </trkpt>
      <trkpt lat="43.69488" lon="6.03963">
        <ele>371.2</ele>
        <time>2023-06-11T13:40:40Z</time>
      </trkpt>
      <trkpt lat="43.69488" lon="6.03963">
        <ele>371.2</ele>
        <time>2023-06-11T13:40:41Z</time>
      </trkpt>
      <trkpt lat="43.69488" lon="6.03963">
        <ele>371.2</ele>
        <time>2023-06-11T13:40:42Z</time>
      </trkpt>
      <trkpt lat="43.69488" lon="6.03963">
        <ele>371.2</ele>
        <time>2023-06-11T13:40:43Z</time>
      </trkpt>
      <trkpt lat="43.69488" lon="6.03963">
        <ele>371.2</ele>
        <time>2023-06-11T13:40:44Z</time>
      </trkpt>
      <trkpt lat="43.69488" lon="6.03963">
        <ele>371.2</ele>
        <time>2023-06-11T13:40:45Z</time>
      </trkpt>
      <trkpt lat="43.69488" lon="6.03963">
        <ele>371.2</ele>
        <time>2023-06-11T13:40:46Z</time>
      </trkpt>
      <trkpt lat="43.69488" lon="6.03963">
        <ele>371.2</ele>
        <time>2023-06-11T13:40:47Z</time>
      </trkpt>
      <trkpt lat="43.69488" lon="6.03963">
        <ele>371.3</ele>
        <time>2023-06-11T13:40:48Z</time>
      </trkpt>
      <trkpt lat="43.69488" lon="6.03963">
        <ele>371.3</ele>
        <time>2023-06-11T13:40:49Z</time>
      </trkpt>
      <trkpt lat="43.69488" lon="6.03963">
        <ele>371.3</ele>
        <time>2023-06-11T13:40:50Z</time>
      </trkpt>
      <trkpt lat="43.69488" lon="6.03963">
        <ele>371.3</ele>
        <time>2023-06-11T13:40:51Z</time>
      </trkpt>
      <trkpt lat="43.69488" lon="6.03963">
        <ele>371.4</ele>
        <time>2023-06-11T13:40:52Z</time>
      </trkpt>
      <trkpt lat="43.69488" lon="6.03963">
        <ele>371.5</ele>
        <time>2023-06-11T13:40:53Z</time>
      </trkpt>
      <trkpt lat="43.69488" lon="6.03963">
        <ele>371.5</ele>
        <time>2023-06-11T13:40:54Z</time>
      </trkpt>
      <trkpt lat="43.69488" lon="6.03963">
        <ele>371.5</ele>
        <time>2023-06-11T13:40:55Z</time>
      </trkpt>
      <trkpt lat="43.69488" lon="6.03963">
        <ele>371.5</ele>
        <time>2023-06-11T13:40:56Z</time>
      </trkpt>
      <trkpt lat="43.69488" lon="6.03963">
        <ele>371.5</ele>
        <time>2023-06-11T13:40:57Z</time>
      </trkpt>
      <trkpt lat="43.69488" lon="6.03963">
        <ele>371.6</ele>
        <time>2023-06-11T13:40:58Z</time>
      </trkpt>
      <trkpt lat="43.69488" lon="6.03963">
        <ele>371.6</ele>
        <time>2023-06-11T13:40:59Z</time>
      </trkpt>
      <trkpt lat="43.69488" lon="6.03963">
        <ele>371.6</ele>
        <time>2023-06-11T13:41:00Z</time>
      </trkpt>
      <trkpt lat="43.69488" lon="6.03963">
        <ele>371.6</ele>
        <time>2023-06-11T13:41:01Z</time>
      </trkpt>
      <trkpt lat="43.69488" lon="6.03963">
        <ele>371.7</ele>
        <time>2023-06-11T13:41:02Z</time>
      </trkpt>
      <trkpt lat="43.69488" lon="6.03963">
        <ele>371.6</ele>
        <time>2023-06-11T13:41:03Z</time>
      </trkpt>
      <trkpt lat="43.69488" lon="6.03963">
        <ele>371.6</ele>
        <time>2023-06-11T13:41:04Z</time>
      </trkpt>
      <trkpt lat="43.69488" lon="6.03963">
        <ele>371.6</ele>
        <time>2023-06-11T13:41:05Z</time>
      </trkpt>
      <trkpt lat="43.69488" lon="6.03963">
        <ele>371.6</ele>
        <time>2023-06-11T13:41:06Z</time>
      </trkpt>
      <trkpt lat="43.69488" lon="6.03963">
        <ele>371.7</ele>
        <time>2023-06-11T13:41:07Z</time>
      </trkpt>
      <trkpt lat="43.69488" lon="6.03962">
        <ele>371.7</ele>
        <time>2023-06-11T13:41:08Z</time>
      </trkpt>
      <trkpt lat="43.69488" lon="6.03962">
        <ele>371.6</ele>
        <time>2023-06-11T13:41:09Z</time>
      </trkpt>
      <trkpt lat="43.69488" lon="6.03962">
        <ele>371.6</ele>
        <time>2023-06-11T13:41:10Z</time>
      </trkpt>
      <trkpt lat="43.69488" lon="6.03962">
        <ele>371.6</ele>
        <time>2023-06-11T13:41:11Z</time>
      </trkpt>
      <trkpt lat="43.69488" lon="6.03962">
        <ele>371.5</ele>
        <time>2023-06-11T13:41:12Z</time>
      </trkpt>
      <trkpt lat="43.69487" lon="6.03962">
        <ele>371.5</ele>
        <time>2023-06-11T13:41:13Z</time>
      </trkpt>
      <trkpt lat="43.69486" lon="6.03962">
        <ele>371.6</ele>
        <time>2023-06-11T13:41:14Z</time>
      </trkpt>
      <trkpt lat="43.69485" lon="6.03963">
        <ele>371.6</ele>
        <time>2023-06-11T13:41:15Z</time>
      </trkpt>
      <trkpt lat="43.69485" lon="6.03962">
        <ele>371.6</ele>
        <time>2023-06-11T13:41:16Z</time>
      </trkpt>
      <trkpt lat="43.69483" lon="6.03962">
        <ele>371.6</ele>
        <time>2023-06-11T13:41:17Z</time>
      </trkpt>
      <trkpt lat="43.69482" lon="6.03963">
        <ele>371.6</ele>
        <time>2023-06-11T13:41:18Z</time>
      </trkpt>
      <trkpt lat="43.69482" lon="6.03964">
        <ele>371.7</ele>
        <time>2023-06-11T13:41:19Z</time>
      </trkpt>
      <trkpt lat="43.69481" lon="6.03964">
        <ele>371.7</ele>
        <time>2023-06-11T13:41:20Z</time>
      </trkpt>
      <trkpt lat="43.6948" lon="6.03965">
        <ele>371.7</ele>
        <time>2023-06-11T13:41:21Z</time>
      </trkpt>
      <trkpt lat="43.69479" lon="6.03966">
        <ele>371.8</ele>
        <time>2023-06-11T13:41:22Z</time>
      </trkpt>
      <trkpt lat="43.69478" lon="6.03968">
        <ele>371.8</ele>
        <time>2023-06-11T13:41:23Z</time>
      </trkpt>
      <trkpt lat="43.69478" lon="6.0397">
        <ele>372</ele>
        <time>2023-06-11T13:41:24Z</time>
      </trkpt>
      <trkpt lat="43.69478" lon="6.03972">
        <ele>372</ele>
        <time>2023-06-11T13:41:25Z</time>
      </trkpt>
      <trkpt lat="43.69478" lon="6.03973">
        <ele>372.1</ele>
        <time>2023-06-11T13:41:26Z</time>
      </trkpt>
      <trkpt lat="43.69477" lon="6.03975">
        <ele>372.1</ele>
        <time>2023-06-11T13:41:27Z</time>
      </trkpt>
      <trkpt lat="43.69477" lon="6.03976">
        <ele>372.2</ele>
        <time>2023-06-11T13:41:28Z</time>
      </trkpt>
      <trkpt lat="43.69477" lon="6.03978">
        <ele>372.2</ele>
        <time>2023-06-11T13:41:29Z</time>
      </trkpt>
      <trkpt lat="43.69476" lon="6.03979">
        <ele>372.3</ele>
        <time>2023-06-11T13:41:30Z</time>
      </trkpt>
      <trkpt lat="43.69476" lon="6.03981">
        <ele>372.3</ele>
        <time>2023-06-11T13:41:31Z</time>
      </trkpt>
      <trkpt lat="43.69475" lon="6.03982">
        <ele>372.4</ele>
        <time>2023-06-11T13:41:32Z</time>
      </trkpt>
      <trkpt lat="43.69475" lon="6.03983">
        <ele>372.4</ele>
        <time>2023-06-11T13:41:33Z</time>
      </trkpt>
      <trkpt lat="43.69474" lon="6.03985">
        <ele>372.5</ele>
        <time>2023-06-11T13:41:34Z</time>
      </trkpt>
      <trkpt lat="43.69474" lon="6.03986">
        <ele>372.5</ele>
        <time>2023-06-11T13:41:35Z</time>
      </trkpt>
      <trkpt lat="43.69474" lon="6.03988">
        <ele>372.5</ele>
        <time>2023-06-11T13:41:36Z</time>
      </trkpt>
      <trkpt lat="43.69474" lon="6.03989">
        <ele>372.5</ele>
        <time>2023-06-11T13:41:37Z</time>
      </trkpt>
      <trkpt lat="43.69474" lon="6.03989">
        <ele>372.7</ele>
        <time>2023-06-11T13:41:38Z</time>
      </trkpt>
      <trkpt lat="43.69474" lon="6.03989">
        <ele>372.8</ele>
        <time>2023-06-11T13:41:39Z</time>
      </trkpt>
      <trkpt lat="43.69474" lon="6.03989">
        <ele>372.9</ele>
        <time>2023-06-11T13:41:40Z</time>
      </trkpt>
      <trkpt lat="43.69473" lon="6.0399">
        <ele>372.9</ele>
        <time>2023-06-11T13:41:41Z</time>
      </trkpt>
      <trkpt lat="43.69473" lon="6.0399">
        <ele>373</ele>
        <time>2023-06-11T13:41:42Z</time>
      </trkpt>
      <trkpt lat="43.69473" lon="6.0399">
        <ele>373</ele>
        <time>2023-06-11T13:41:43Z</time>
      </trkpt>
      <trkpt lat="43.69473" lon="6.0399">
        <ele>373.1</ele>
        <time>2023-06-11T13:41:44Z</time>
      </trkpt>
      <trkpt lat="43.69473" lon="6.0399">
        <ele>373</ele>
        <time>2023-06-11T13:41:45Z</time>
      </trkpt>
      <trkpt lat="43.69473" lon="6.0399">
        <ele>373</ele>
        <time>2023-06-11T13:41:46Z</time>
      </trkpt>
      <trkpt lat="43.69473" lon="6.0399">
        <ele>373</ele>
        <time>2023-06-11T13:41:47Z</time>
      </trkpt>
      <trkpt lat="43.69473" lon="6.0399">
        <ele>372.9</ele>
        <time>2023-06-11T13:41:48Z</time>
      </trkpt>
      <trkpt lat="43.69473" lon="6.0399">
        <ele>372.9</ele>
        <time>2023-06-11T13:41:49Z</time>
      </trkpt>
      <trkpt lat="43.69473" lon="6.0399">
        <ele>372.9</ele>
        <time>2023-06-11T13:41:50Z</time>
      </trkpt>
      <trkpt lat="43.69473" lon="6.0399">
        <ele>372.9</ele>
        <time>2023-06-11T13:41:51Z</time>
      </trkpt>
      <trkpt lat="43.69473" lon="6.0399">
        <ele>372.9</ele>
        <time>2023-06-11T13:41:52Z</time>
      </trkpt>
      <trkpt lat="43.69473" lon="6.0399">
        <ele>372.9</ele>
        <time>2023-06-11T13:41:53Z</time>
      </trkpt>
      <trkpt lat="43.69473" lon="6.0399">
        <ele>373</ele>
        <time>2023-06-11T13:41:54Z</time>
      </trkpt>
      <trkpt lat="43.69473" lon="6.03989">
        <ele>373</ele>
        <time>2023-06-11T13:41:55Z</time>
      </trkpt>
      <trkpt lat="43.69473" lon="6.03989">
        <ele>373</ele>
        <time>2023-06-11T13:41:56Z</time>
      </trkpt>
      <trkpt lat="43.69473" lon="6.03989">
        <ele>372.9</ele>
        <time>2023-06-11T13:41:57Z</time>
      </trkpt>
      <trkpt lat="43.69472" lon="6.03989">
        <ele>372.9</ele>
        <time>2023-06-11T13:41:58Z</time>
      </trkpt>
      <trkpt lat="43.69472" lon="6.03989">
        <ele>373</ele>
        <time>2023-06-11T13:41:59Z</time>
      </trkpt>
      <trkpt lat="43.69473" lon="6.0399">
        <ele>373</ele>
        <time>2023-06-11T13:42:00Z</time>
      </trkpt>
      <trkpt lat="43.69473" lon="6.0399">
        <ele>373</ele>
        <time>2023-06-11T13:42:01Z</time>
      </trkpt>
      <trkpt lat="43.69473" lon="6.0399">
        <ele>373.1</ele>
        <time>2023-06-11T13:42:02Z</time>
      </trkpt>
      <trkpt lat="43.69473" lon="6.0399">
        <ele>373</ele>
        <time>2023-06-11T13:42:03Z</time>
      </trkpt>
      <trkpt lat="43.69473" lon="6.0399">
        <ele>372.9</ele>
        <time>2023-06-11T13:42:04Z</time>
      </trkpt>
      <trkpt lat="43.69473" lon="6.0399">
        <ele>373</ele>
        <time>2023-06-11T13:42:05Z</time>
      </trkpt>
      <trkpt lat="43.69473" lon="6.03991">
        <ele>373</ele>
        <time>2023-06-11T13:42:06Z</time>
      </trkpt>
      <trkpt lat="43.69473" lon="6.03991">
        <ele>373</ele>
        <time>2023-06-11T13:42:07Z</time>
      </trkpt>
      <trkpt lat="43.69473" lon="6.03991">
        <ele>373</ele>
        <time>2023-06-11T13:42:08Z</time>
      </trkpt>
      <trkpt lat="43.69473" lon="6.03991">
        <ele>373</ele>
        <time>2023-06-11T13:42:09Z</time>
      </trkpt>
      <trkpt lat="43.69473" lon="6.03991">
        <ele>373</ele>
        <time>2023-06-11T13:42:10Z</time>
      </trkpt>
      <trkpt lat="43.69473" lon="6.03991">
        <ele>373</ele>
        <time>2023-06-11T13:42:11Z</time>
      </trkpt>
      <trkpt lat="43.69473" lon="6.03991">
        <ele>373</ele>
        <time>2023-06-11T13:42:12Z</time>
      </trkpt>
      <trkpt lat="43.69473" lon="6.03991">
        <ele>373.1</ele>
        <time>2023-06-11T13:42:13Z</time>
      </trkpt>
      <trkpt lat="43.69473" lon="6.03991">
        <ele>373.1</ele>
        <time>2023-06-11T13:42:14Z</time>
      </trkpt>
      <trkpt lat="43.69473" lon="6.03991">
        <ele>373.1</ele>
        <time>2023-06-11T13:42:15Z</time>
      </trkpt>
      <trkpt lat="43.69473" lon="6.03991">
        <ele>373.1</ele>
        <time>2023-06-11T13:42:16Z</time>
      </trkpt>
      <trkpt lat="43.69473" lon="6.03991">
        <ele>373.1</ele>
        <time>2023-06-11T13:42:17Z</time>
      </trkpt>
      <trkpt lat="43.69473" lon="6.03991">
        <ele>373.2</ele>
        <time>2023-06-11T13:42:18Z</time>
      </trkpt>
      <trkpt lat="43.69473" lon="6.03991">
        <ele>373.2</ele>
        <time>2023-06-11T13:42:19Z</time>
      </trkpt>
      <trkpt lat="43.69473" lon="6.0399">
        <ele>373.3</ele>
        <time>2023-06-11T13:42:20Z</time>
      </trkpt>
      <trkpt lat="43.69473" lon="6.0399">
        <ele>373.4</ele>
        <time>2023-06-11T13:42:21Z</time>
      </trkpt>
      <trkpt lat="43.69473" lon="6.03991">
        <ele>373.5</ele>
        <time>2023-06-11T13:42:22Z</time>
      </trkpt>
      <trkpt lat="43.69472" lon="6.03991">
        <ele>373.6</ele>
        <time>2023-06-11T13:42:23Z</time>
      </trkpt>
      <trkpt lat="43.69473" lon="6.03991">
        <ele>373.7</ele>
        <time>2023-06-11T13:42:24Z</time>
      </trkpt>
      <trkpt lat="43.69473" lon="6.03991">
        <ele>373.7</ele>
        <time>2023-06-11T13:42:25Z</time>
      </trkpt>
      <trkpt lat="43.69473" lon="6.03991">
        <ele>373.7</ele>
        <time>2023-06-11T13:42:26Z</time>
      </trkpt>
      <trkpt lat="43.69473" lon="6.03991">
        <ele>373.8</ele>
        <time>2023-06-11T13:42:27Z</time>
      </trkpt>
      <trkpt lat="43.69473" lon="6.03991">
        <ele>373.7</ele>
        <time>2023-06-11T13:42:28Z</time>
      </trkpt>
      <trkpt lat="43.69473" lon="6.03991">
        <ele>373.7</ele>
        <time>2023-06-11T13:42:29Z</time>
      </trkpt>
      <trkpt lat="43.69473" lon="6.03991">
        <ele>373.7</ele>
        <time>2023-06-11T13:42:30Z</time>
      </trkpt>
      <trkpt lat="43.69473" lon="6.03991">
        <ele>373.7</ele>
        <time>2023-06-11T13:42:31Z</time>
      </trkpt>
      <trkpt lat="43.69473" lon="6.03991">
        <ele>373.8</ele>
        <time>2023-06-11T13:42:32Z</time>
      </trkpt>
      <trkpt lat="43.69473" lon="6.03991">
        <ele>373.8</ele>
        <time>2023-06-11T13:42:33Z</time>
      </trkpt>
      <trkpt lat="43.69473" lon="6.03991">
        <ele>373.8</ele>
        <time>2023-06-11T13:42:34Z</time>
      </trkpt>
      <trkpt lat="43.69473" lon="6.03991">
        <ele>373.8</ele>
        <time>2023-06-11T13:42:35Z</time>
      </trkpt>
      <trkpt lat="43.69473" lon="6.03991">
        <ele>373.8</ele>
        <time>2023-06-11T13:42:36Z</time>
      </trkpt>
      <trkpt lat="43.69473" lon="6.03991">
        <ele>373.8</ele>
        <time>2023-06-11T13:42:37Z</time>
      </trkpt>
      <trkpt lat="43.69473" lon="6.03991">
        <ele>373.8</ele>
        <time>2023-06-11T13:42:38Z</time>
      </trkpt>
      <trkpt lat="43.69473" lon="6.03991">
        <ele>373.8</ele>
        <time>2023-06-11T13:42:39Z</time>
      </trkpt>
      <trkpt lat="43.69473" lon="6.03991">
        <ele>373.7</ele>
        <time>2023-06-11T13:42:40Z</time>
      </trkpt>
      <trkpt lat="43.69473" lon="6.03991">
        <ele>373.7</ele>
        <time>2023-06-11T13:42:41Z</time>
      </trkpt>
      <trkpt lat="43.69473" lon="6.03991">
        <ele>373.7</ele>
        <time>2023-06-11T13:42:42Z</time>
      </trkpt>
      <trkpt lat="43.69473" lon="6.03991">
        <ele>373.6</ele>
        <time>2023-06-11T13:42:43Z</time>
      </trkpt>
      <trkpt lat="43.69473" lon="6.03991">
        <ele>373.6</ele>
        <time>2023-06-11T13:42:44Z</time>
      </trkpt>
      <trkpt lat="43.69473" lon="6.03991">
        <ele>373.6</ele>
        <time>2023-06-11T13:42:45Z</time>
      </trkpt>
      <trkpt lat="43.69473" lon="6.03991">
        <ele>373.5</ele>
        <time>2023-06-11T13:42:46Z</time>
      </trkpt>
      <trkpt lat="43.69473" lon="6.03991">
        <ele>373.5</ele>
        <time>2023-06-11T13:42:47Z</time>
      </trkpt>
      <trkpt lat="43.69473" lon="6.0399">
        <ele>373.5</ele>
        <time>2023-06-11T13:42:48Z</time>
      </trkpt>
      <trkpt lat="43.69473" lon="6.0399">
        <ele>373.4</ele>
        <time>2023-06-11T13:42:49Z</time>
      </trkpt>
      <trkpt lat="43.69472" lon="6.0399">
        <ele>373.5</ele>
        <time>2023-06-11T13:42:50Z</time>
      </trkpt>
      <trkpt lat="43.69472" lon="6.0399">
        <ele>373.5</ele>
        <time>2023-06-11T13:42:51Z</time>
      </trkpt>
      <trkpt lat="43.69472" lon="6.0399">
        <ele>373.6</ele>
        <time>2023-06-11T13:42:52Z</time>
      </trkpt>
      <trkpt lat="43.69472" lon="6.0399">
        <ele>373.7</ele>
        <time>2023-06-11T13:42:53Z</time>
      </trkpt>
      <trkpt lat="43.69472" lon="6.0399">
        <ele>373.7</ele>
        <time>2023-06-11T13:42:54Z</time>
      </trkpt>
      <trkpt lat="43.69472" lon="6.0399">
        <ele>373.8</ele>
        <time>2023-06-11T13:42:55Z</time>
      </trkpt>
      <trkpt lat="43.69472" lon="6.0399">
        <ele>373.8</ele>
        <time>2023-06-11T13:42:55Z</time>
      </trkpt>
      <trkpt lat="43.69472" lon="6.0399">
        <ele>373.8</ele>
        <time>2023-06-11T13:42:55Z</time>
      </trkpt>
    </trkseg>
  </trk>
</gpx>